﻿<?xml version="1.0" encoding="UTF-8"?>
<gpx version="v1.1.5" creator="iTravel Tech Inc. - http://www.itravel-tech.com" xmlns:xsi="http://www.w3.org/2001/XMLSchema-instance" xmlns="http://www.topografix.com/GPX/1/1" xsi:schemaLocation="http://www.topografix.com/GPX/1/1 http://www.topografix.com/GPX/1/1/gpx.xsd http://www.topografix.com/GPX/gpx_overlay/0/3 http://www.topografix.com/GPX/gpx_overlay/0/3/gpx_overlay.xsd http://www.topografix.com/GPX/gpx_modified/0/1 http://www.topografix.com/GPX/gpx_modified/0/1/gpx_modified.xsd">
<trk>
<name>Holux2012/04/29_12:54</name>
<trkseg>
<trkpt lat="43.158974" lon="19.292824">
<ele>827.055176</ele>
<time>2012-04-29T09:54:05Z</time>
<desc>lat.=43.158974, lon.=19.292824, Alt.=827.055176m. Speed=1.116000m/h.</desc>
<speed>0.310000</speed>
</trkpt>
<trkpt lat="43.159073" lon="19.292822">
<ele>826.586426</ele>
<time>2012-04-29T09:54:10Z</time>
<desc>lat.=43.159073, lon.=19.292822, Alt.=826.586426m. Speed=0.576000m/h.</desc>
<speed>0.160000</speed>
</trkpt>
<trkpt lat="43.159065" lon="19.292799">
<ele>821.352051</ele>
<time>2012-04-29T09:54:15Z</time>
<desc>lat.=43.159065, lon.=19.292799, Alt.=821.352051m. Speed=0.036000m/h.</desc>
<speed>0.010000</speed>
</trkpt>
<trkpt lat="43.159061" lon="19.292797">
<ele>822.414551</ele>
<time>2012-04-29T09:54:20Z</time>
<desc>lat.=43.159061, lon.=19.292797, Alt.=822.414551m. Speed=0.180000m/h.</desc>
<speed>0.050000</speed>
</trkpt>
<trkpt lat="43.159058" lon="19.292765">
<ele>827.555176</ele>
<time>2012-04-29T09:54:25Z</time>
<desc>lat.=43.159058, lon.=19.292765, Alt.=827.555176m. Speed=0.000000m/h.</desc>
<speed>0.000000</speed>
</trkpt>
<trkpt lat="43.159046" lon="19.292761">
<ele>828.305176</ele>
<time>2012-04-29T09:54:30Z</time>
<desc>lat.=43.159046, lon.=19.292761, Alt.=828.305176m. Speed=0.000000m/h.</desc>
<speed>0.000000</speed>
</trkpt>
<trkpt lat="43.159046" lon="19.292759">
<ele>830.102051</ele>
<time>2012-04-29T09:54:35Z</time>
<desc>lat.=43.159046, lon.=19.292759, Alt.=830.102051m. Speed=0.000000m/h.</desc>
<speed>0.000000</speed>
</trkpt>
<trkpt lat="43.159046" lon="19.292763">
<ele>829.711426</ele>
<time>2012-04-29T09:54:40Z</time>
<desc>lat.=43.159046, lon.=19.292763, Alt.=829.711426m. Speed=0.036000m/h.</desc>
<speed>0.010000</speed>
</trkpt>
<trkpt lat="43.159046" lon="19.292763">
<ele>829.633301</ele>
<time>2012-04-29T09:54:45Z</time>
<desc>lat.=43.159046, lon.=19.292763, Alt.=829.633301m. Speed=0.072000m/h.</desc>
<speed>0.020000</speed>
</trkpt>
<trkpt lat="43.159042" lon="19.292759">
<ele>829.555176</ele>
<time>2012-04-29T09:54:50Z</time>
<desc>lat.=43.159042, lon.=19.292759, Alt.=829.555176m. Speed=0.144000m/h.</desc>
<speed>0.040000</speed>
</trkpt>
<trkpt lat="43.159042" lon="19.292757">
<ele>829.477051</ele>
<time>2012-04-29T09:54:55Z</time>
<desc>lat.=43.159042, lon.=19.292757, Alt.=829.477051m. Speed=0.000000m/h.</desc>
<speed>0.000000</speed>
</trkpt>
<trkpt lat="43.159042" lon="19.292757">
<ele>829.445801</ele>
<time>2012-04-29T09:55:00Z</time>
<desc>lat.=43.159042, lon.=19.292757, Alt.=829.445801m. Speed=0.000000m/h.</desc>
<speed>0.000000</speed>
</trkpt>
<trkpt lat="43.159042" lon="19.292757">
<ele>829.430176</ele>
<time>2012-04-29T09:55:05Z</time>
<desc>lat.=43.159042, lon.=19.292757, Alt.=829.430176m. Speed=0.000000m/h.</desc>
<speed>0.000000</speed>
</trkpt>
<trkpt lat="43.159042" lon="19.292757">
<ele>829.414551</ele>
<time>2012-04-29T09:55:10Z</time>
<desc>lat.=43.159042, lon.=19.292757, Alt.=829.414551m. Speed=0.000000m/h.</desc>
<speed>0.000000</speed>
</trkpt>
<trkpt lat="43.159042" lon="19.292757">
<ele>829.398926</ele>
<time>2012-04-29T09:55:15Z</time>
<desc>lat.=43.159042, lon.=19.292757, Alt.=829.398926m. Speed=0.000000m/h.</desc>
<speed>0.000000</speed>
</trkpt>
<trkpt lat="43.159042" lon="19.292759">
<ele>829.336426</ele>
<time>2012-04-29T09:55:20Z</time>
<desc>lat.=43.159042, lon.=19.292759, Alt.=829.336426m. Speed=0.036000m/h.</desc>
<speed>0.010000</speed>
</trkpt>
<trkpt lat="43.159042" lon="19.292759">
<ele>829.258301</ele>
<time>2012-04-29T09:55:25Z</time>
<desc>lat.=43.159042, lon.=19.292759, Alt.=829.258301m. Speed=0.036000m/h.</desc>
<speed>0.010000</speed>
</trkpt>
<trkpt lat="43.159042" lon="19.292759">
<ele>829.258301</ele>
<time>2012-04-29T09:55:30Z</time>
<desc>lat.=43.159042, lon.=19.292759, Alt.=829.258301m. Speed=0.000000m/h.</desc>
<speed>0.000000</speed>
</trkpt>
<trkpt lat="43.159042" lon="19.292759">
<ele>829.258301</ele>
<time>2012-04-29T09:55:35Z</time>
<desc>lat.=43.159042, lon.=19.292759, Alt.=829.258301m. Speed=0.036000m/h.</desc>
<speed>0.010000</speed>
</trkpt>
<trkpt lat="43.159042" lon="19.292759">
<ele>829.242676</ele>
<time>2012-04-29T09:55:40Z</time>
<desc>lat.=43.159042, lon.=19.292759, Alt.=829.242676m. Speed=0.000000m/h.</desc>
<speed>0.000000</speed>
</trkpt>
<trkpt lat="43.159039" lon="19.292746">
<ele>828.867676</ele>
<time>2012-04-29T09:55:45Z</time>
<desc>lat.=43.159039, lon.=19.292746, Alt.=828.867676m. Speed=0.036000m/h.</desc>
<speed>0.010000</speed>
</trkpt>
<trkpt lat="43.159035" lon="19.292744">
<ele>828.961426</ele>
<time>2012-04-29T09:55:50Z</time>
<desc>lat.=43.159035, lon.=19.292744, Alt.=828.961426m. Speed=0.108000m/h.</desc>
<speed>0.030000</speed>
</trkpt>
<trkpt lat="43.159027" lon="19.292744">
<ele>828.992676</ele>
<time>2012-04-29T09:55:55Z</time>
<desc>lat.=43.159027, lon.=19.292744, Alt.=828.992676m. Speed=0.000000m/h.</desc>
<speed>0.000000</speed>
</trkpt>
<trkpt lat="43.159023" lon="19.292751">
<ele>828.211426</ele>
<time>2012-04-29T09:56:00Z</time>
<desc>lat.=43.159023, lon.=19.292751, Alt.=828.211426m. Speed=0.036000m/h.</desc>
<speed>0.010000</speed>
</trkpt>
<trkpt lat="43.159019" lon="19.292755">
<ele>827.414551</ele>
<time>2012-04-29T09:56:05Z</time>
<desc>lat.=43.159019, lon.=19.292755, Alt.=827.414551m. Speed=0.036000m/h.</desc>
<speed>0.010000</speed>
</trkpt>
<trkpt lat="43.159019" lon="19.292770">
<ele>827.289551</ele>
<time>2012-04-29T09:56:10Z</time>
<desc>lat.=43.159019, lon.=19.292770, Alt.=827.289551m. Speed=0.108000m/h.</desc>
<speed>0.030000</speed>
</trkpt>
<trkpt lat="43.159019" lon="19.292770">
<ele>827.242676</ele>
<time>2012-04-29T09:56:15Z</time>
<desc>lat.=43.159019, lon.=19.292770, Alt.=827.242676m. Speed=0.036000m/h.</desc>
<speed>0.010000</speed>
</trkpt>
<trkpt lat="43.159019" lon="19.292755">
<ele>827.961426</ele>
<time>2012-04-29T09:56:20Z</time>
<desc>lat.=43.159019, lon.=19.292755, Alt.=827.961426m. Speed=0.036000m/h.</desc>
<speed>0.010000</speed>
</trkpt>
<trkpt lat="43.159019" lon="19.292742">
<ele>828.492676</ele>
<time>2012-04-29T09:56:25Z</time>
<desc>lat.=43.159019, lon.=19.292742, Alt.=828.492676m. Speed=0.036000m/h.</desc>
<speed>0.010000</speed>
</trkpt>
<trkpt lat="43.159019" lon="19.292742">
<ele>828.492676</ele>
<time>2012-04-29T09:56:30Z</time>
<desc>lat.=43.159019, lon.=19.292742, Alt.=828.492676m. Speed=0.036000m/h.</desc>
<speed>0.010000</speed>
</trkpt>
<trkpt lat="43.159019" lon="19.292742">
<ele>828.492676</ele>
<time>2012-04-29T09:56:35Z</time>
<desc>lat.=43.159019, lon.=19.292742, Alt.=828.492676m. Speed=0.036000m/h.</desc>
<speed>0.010000</speed>
</trkpt>
<trkpt lat="43.159019" lon="19.292742">
<ele>828.492676</ele>
<time>2012-04-29T09:56:40Z</time>
<desc>lat.=43.159019, lon.=19.292742, Alt.=828.492676m. Speed=0.000000m/h.</desc>
<speed>0.000000</speed>
</trkpt>
<trkpt lat="43.159019" lon="19.292744">
<ele>828.477051</ele>
<time>2012-04-29T09:56:45Z</time>
<desc>lat.=43.159019, lon.=19.292744, Alt.=828.477051m. Speed=0.036000m/h.</desc>
<speed>0.010000</speed>
</trkpt>
<trkpt lat="43.159019" lon="19.292744">
<ele>828.477051</ele>
<time>2012-04-29T09:56:50Z</time>
<desc>lat.=43.159019, lon.=19.292744, Alt.=828.477051m. Speed=0.072000m/h.</desc>
<speed>0.020000</speed>
</trkpt>
<trkpt lat="43.159019" lon="19.292744">
<ele>828.477051</ele>
<time>2012-04-29T09:56:55Z</time>
<desc>lat.=43.159019, lon.=19.292744, Alt.=828.477051m. Speed=0.036000m/h.</desc>
<speed>0.010000</speed>
</trkpt>
<trkpt lat="43.159019" lon="19.292744">
<ele>828.477051</ele>
<time>2012-04-29T09:57:00Z</time>
<desc>lat.=43.159019, lon.=19.292744, Alt.=828.477051m. Speed=0.180000m/h.</desc>
<speed>0.050000</speed>
</trkpt>
<trkpt lat="43.159004" lon="19.292797">
<ele>827.586426</ele>
<time>2012-04-29T09:57:05Z</time>
<desc>lat.=43.159004, lon.=19.292797, Alt.=827.586426m. Speed=3.420000m/h.</desc>
<speed>0.950000</speed>
</trkpt>
<trkpt lat="43.158989" lon="19.292900">
<ele>827.695801</ele>
<time>2012-04-29T09:57:10Z</time>
<desc>lat.=43.158989, lon.=19.292900, Alt.=827.695801m. Speed=3.816000m/h.</desc>
<speed>1.060000</speed>
</trkpt>
<trkpt lat="43.158978" lon="19.293022">
<ele>827.258301</ele>
<time>2012-04-29T09:57:15Z</time>
<desc>lat.=43.158978, lon.=19.293022, Alt.=827.258301m. Speed=7.128000m/h.</desc>
<speed>1.980000</speed>
</trkpt>
<trkpt lat="43.158970" lon="19.293150">
<ele>827.805176</ele>
<time>2012-04-29T09:57:20Z</time>
<desc>lat.=43.158970, lon.=19.293150, Alt.=827.805176m. Speed=6.588000m/h.</desc>
<speed>1.830000</speed>
</trkpt>
<trkpt lat="43.158951" lon="19.293270">
<ele>827.852051</ele>
<time>2012-04-29T09:57:25Z</time>
<desc>lat.=43.158951, lon.=19.293270, Alt.=827.852051m. Speed=7.272000m/h.</desc>
<speed>2.020000</speed>
</trkpt>
<trkpt lat="43.158936" lon="19.293385">
<ele>827.336426</ele>
<time>2012-04-29T09:57:30Z</time>
<desc>lat.=43.158936, lon.=19.293385, Alt.=827.336426m. Speed=9.792000m/h.</desc>
<speed>2.720000</speed>
</trkpt>
<trkpt lat="43.158932" lon="19.293486">
<ele>829.305176</ele>
<time>2012-04-29T09:57:35Z</time>
<desc>lat.=43.158932, lon.=19.293486, Alt.=829.305176m. Speed=6.372000m/h.</desc>
<speed>1.770000</speed>
</trkpt>
<trkpt lat="43.158932" lon="19.293600">
<ele>832.648926</ele>
<time>2012-04-29T09:57:40Z</time>
<desc>lat.=43.158932, lon.=19.293600, Alt.=832.648926m. Speed=6.300000m/h.</desc>
<speed>1.750000</speed>
</trkpt>
<trkpt lat="43.158947" lon="19.293730">
<ele>833.930176</ele>
<time>2012-04-29T09:57:45Z</time>
<desc>lat.=43.158947, lon.=19.293730, Alt.=833.930176m. Speed=7.920000m/h.</desc>
<speed>2.200000</speed>
</trkpt>
<trkpt lat="43.158985" lon="19.293871">
<ele>835.070801</ele>
<time>2012-04-29T09:57:50Z</time>
<desc>lat.=43.158985, lon.=19.293871, Alt.=835.070801m. Speed=8.208000m/h.</desc>
<speed>2.280000</speed>
</trkpt>
<trkpt lat="43.159023" lon="19.294001">
<ele>837.539551</ele>
<time>2012-04-29T09:57:55Z</time>
<desc>lat.=43.159023, lon.=19.294001, Alt.=837.539551m. Speed=8.028000m/h.</desc>
<speed>2.230000</speed>
</trkpt>
<trkpt lat="43.159100" lon="19.294117">
<ele>837.820801</ele>
<time>2012-04-29T09:58:00Z</time>
<desc>lat.=43.159100, lon.=19.294117, Alt.=837.820801m. Speed=9.540000m/h.</desc>
<speed>2.650000</speed>
</trkpt>
<trkpt lat="43.159180" lon="19.294184">
<ele>837.570801</ele>
<time>2012-04-29T09:58:05Z</time>
<desc>lat.=43.159180, lon.=19.294184, Alt.=837.570801m. Speed=5.688000m/h.</desc>
<speed>1.580000</speed>
</trkpt>
<trkpt lat="43.159260" lon="19.294239">
<ele>837.539551</ele>
<time>2012-04-29T09:58:10Z</time>
<desc>lat.=43.159260, lon.=19.294239, Alt.=837.539551m. Speed=11.808000m/h.</desc>
<speed>3.280000</speed>
</trkpt>
<trkpt lat="43.159351" lon="19.294285">
<ele>837.523926</ele>
<time>2012-04-29T09:58:15Z</time>
<desc>lat.=43.159351, lon.=19.294285, Alt.=837.523926m. Speed=5.544000m/h.</desc>
<speed>1.540000</speed>
</trkpt>
<trkpt lat="43.159374" lon="19.294283">
<ele>837.570801</ele>
<time>2012-04-29T09:58:20Z</time>
<desc>lat.=43.159374, lon.=19.294283, Alt.=837.570801m. Speed=0.180000m/h.</desc>
<speed>0.050000</speed>
</trkpt>
<trkpt lat="43.159374" lon="19.294287">
<ele>837.695801</ele>
<time>2012-04-29T09:58:25Z</time>
<desc>lat.=43.159374, lon.=19.294287, Alt.=837.695801m. Speed=0.036000m/h.</desc>
<speed>0.010000</speed>
</trkpt>
<trkpt lat="43.159374" lon="19.294289">
<ele>837.695801</ele>
<time>2012-04-29T09:58:30Z</time>
<desc>lat.=43.159374, lon.=19.294289, Alt.=837.695801m. Speed=0.036000m/h.</desc>
<speed>0.010000</speed>
</trkpt>
<trkpt lat="43.159374" lon="19.294289">
<ele>837.602051</ele>
<time>2012-04-29T09:58:35Z</time>
<desc>lat.=43.159374, lon.=19.294289, Alt.=837.602051m. Speed=0.072000m/h.</desc>
<speed>0.020000</speed>
</trkpt>
<trkpt lat="43.159393" lon="19.294264">
<ele>837.961426</ele>
<time>2012-04-29T09:58:40Z</time>
<desc>lat.=43.159393, lon.=19.294264, Alt.=837.961426m. Speed=5.868000m/h.</desc>
<speed>1.630000</speed>
</trkpt>
<trkpt lat="43.159512" lon="19.294226">
<ele>836.992676</ele>
<time>2012-04-29T09:58:45Z</time>
<desc>lat.=43.159512, lon.=19.294226, Alt.=836.992676m. Speed=15.840000m/h.</desc>
<speed>4.400000</speed>
</trkpt>
<trkpt lat="43.159744" lon="19.294149">
<ele>834.617676</ele>
<time>2012-04-29T09:58:50Z</time>
<desc>lat.=43.159744, lon.=19.294149, Alt.=834.617676m. Speed=19.620001m/h.</desc>
<speed>5.450000</speed>
</trkpt>
<trkpt lat="43.160000" lon="19.294052">
<ele>833.180176</ele>
<time>2012-04-29T09:58:55Z</time>
<desc>lat.=43.160000, lon.=19.294052, Alt.=833.180176m. Speed=19.440001m/h.</desc>
<speed>5.400000</speed>
</trkpt>
<trkpt lat="43.160198" lon="19.293846">
<ele>830.586426</ele>
<time>2012-04-29T09:59:00Z</time>
<desc>lat.=43.160198, lon.=19.293846, Alt.=830.586426m. Speed=22.032000m/h.</desc>
<speed>6.120000</speed>
</trkpt>
<trkpt lat="43.160328" lon="19.293497">
<ele>828.258301</ele>
<time>2012-04-29T09:59:05Z</time>
<desc>lat.=43.160328, lon.=19.293497, Alt.=828.258301m. Speed=23.796000m/h.</desc>
<speed>6.610000</speed>
</trkpt>
<trkpt lat="43.160389" lon="19.293114">
<ele>827.727051</ele>
<time>2012-04-29T09:59:10Z</time>
<desc>lat.=43.160389, lon.=19.293114, Alt.=827.727051m. Speed=21.132000m/h.</desc>
<speed>5.870000</speed>
</trkpt>
<trkpt lat="43.160427" lon="19.292767">
<ele>827.898926</ele>
<time>2012-04-29T09:59:15Z</time>
<desc>lat.=43.160427, lon.=19.292767, Alt.=827.898926m. Speed=20.412001m/h.</desc>
<speed>5.670000</speed>
</trkpt>
<trkpt lat="43.160431" lon="19.292475">
<ele>825.805176</ele>
<time>2012-04-29T09:59:20Z</time>
<desc>lat.=43.160431, lon.=19.292475, Alt.=825.805176m. Speed=17.351999m/h.</desc>
<speed>4.820000</speed>
</trkpt>
<trkpt lat="43.160267" lon="19.292171">
<ele>821.648926</ele>
<time>2012-04-29T09:59:25Z</time>
<desc>lat.=43.160267, lon.=19.292171, Alt.=821.648926m. Speed=24.336000m/h.</desc>
<speed>6.760000</speed>
</trkpt>
<trkpt lat="43.160072" lon="19.291891">
<ele>820.492676</ele>
<time>2012-04-29T09:59:30Z</time>
<desc>lat.=43.160072, lon.=19.291891, Alt.=820.492676m. Speed=19.368000m/h.</desc>
<speed>5.380000</speed>
</trkpt>
<trkpt lat="43.159893" lon="19.291796">
<ele>819.727051</ele>
<time>2012-04-29T09:59:35Z</time>
<desc>lat.=43.159893, lon.=19.291796, Alt.=819.727051m. Speed=17.747999m/h.</desc>
<speed>4.930000</speed>
</trkpt>
<trkpt lat="43.159657" lon="19.291691">
<ele>819.320801</ele>
<time>2012-04-29T09:59:40Z</time>
<desc>lat.=43.159657, lon.=19.291691, Alt.=819.320801m. Speed=18.180000m/h.</desc>
<speed>5.050000</speed>
</trkpt>
<trkpt lat="43.159481" lon="19.291574">
<ele>820.242676</ele>
<time>2012-04-29T09:59:45Z</time>
<desc>lat.=43.159481, lon.=19.291574, Alt.=820.242676m. Speed=14.004000m/h.</desc>
<speed>3.890000</speed>
</trkpt>
<trkpt lat="43.159317" lon="19.291483">
<ele>820.602051</ele>
<time>2012-04-29T09:59:50Z</time>
<desc>lat.=43.159317, lon.=19.291483, Alt.=820.602051m. Speed=12.960000m/h.</desc>
<speed>3.600000</speed>
</trkpt>
<trkpt lat="43.159138" lon="19.291384">
<ele>820.461426</ele>
<time>2012-04-29T09:59:55Z</time>
<desc>lat.=43.159138, lon.=19.291384, Alt.=820.461426m. Speed=17.208000m/h.</desc>
<speed>4.780000</speed>
</trkpt>
<trkpt lat="43.158958" lon="19.291275">
<ele>821.773926</ele>
<time>2012-04-29T10:00:00Z</time>
<desc>lat.=43.158958, lon.=19.291275, Alt.=821.773926m. Speed=14.472000m/h.</desc>
<speed>4.020000</speed>
</trkpt>
<trkpt lat="43.158813" lon="19.291187">
<ele>822.977051</ele>
<time>2012-04-29T10:00:05Z</time>
<desc>lat.=43.158813, lon.=19.291187, Alt.=822.977051m. Speed=10.872000m/h.</desc>
<speed>3.020000</speed>
</trkpt>
<trkpt lat="43.158691" lon="19.291018">
<ele>822.148926</ele>
<time>2012-04-29T10:00:10Z</time>
<desc>lat.=43.158691, lon.=19.291018, Alt.=822.148926m. Speed=15.732000m/h.</desc>
<speed>4.370000</speed>
</trkpt>
<trkpt lat="43.158844" lon="19.290808">
<ele>817.898926</ele>
<time>2012-04-29T10:00:15Z</time>
<desc>lat.=43.158844, lon.=19.290808, Alt.=817.898926m. Speed=24.048000m/h.</desc>
<speed>6.680000</speed>
</trkpt>
<trkpt lat="43.159100" lon="19.290630">
<ele>813.742676</ele>
<time>2012-04-29T10:00:20Z</time>
<desc>lat.=43.159100, lon.=19.290630, Alt.=813.742676m. Speed=22.032000m/h.</desc>
<speed>6.120000</speed>
</trkpt>
<trkpt lat="43.159340" lon="19.290501">
<ele>812.133301</ele>
<time>2012-04-29T10:00:25Z</time>
<desc>lat.=43.159340, lon.=19.290501, Alt.=812.133301m. Speed=19.548000m/h.</desc>
<speed>5.430000</speed>
</trkpt>
<trkpt lat="43.159595" lon="19.290426">
<ele>810.836426</ele>
<time>2012-04-29T10:00:30Z</time>
<desc>lat.=43.159595, lon.=19.290426, Alt.=810.836426m. Speed=21.167999m/h.</desc>
<speed>5.880000</speed>
</trkpt>
<trkpt lat="43.159863" lon="19.290400">
<ele>810.461426</ele>
<time>2012-04-29T10:00:35Z</time>
<desc>lat.=43.159863, lon.=19.290400, Alt.=810.461426m. Speed=18.612000m/h.</desc>
<speed>5.170000</speed>
</trkpt>
<trkpt lat="43.160053" lon="19.290415">
<ele>811.320801</ele>
<time>2012-04-29T10:00:40Z</time>
<desc>lat.=43.160053, lon.=19.290415, Alt.=811.320801m. Speed=13.752000m/h.</desc>
<speed>3.820000</speed>
</trkpt>
<trkpt lat="43.160217" lon="19.290508">
<ele>811.102051</ele>
<time>2012-04-29T10:00:45Z</time>
<desc>lat.=43.160217, lon.=19.290508, Alt.=811.102051m. Speed=18.468000m/h.</desc>
<speed>5.130000</speed>
</trkpt>
<trkpt lat="43.160435" lon="19.290474">
<ele>808.773926</ele>
<time>2012-04-29T10:00:50Z</time>
<desc>lat.=43.160435, lon.=19.290474, Alt.=808.773926m. Speed=18.756001m/h.</desc>
<speed>5.210000</speed>
</trkpt>
<trkpt lat="43.160572" lon="19.290268">
<ele>807.117676</ele>
<time>2012-04-29T10:00:55Z</time>
<desc>lat.=43.160572, lon.=19.290268, Alt.=807.117676m. Speed=15.084000m/h.</desc>
<speed>4.190000</speed>
</trkpt>
<trkpt lat="43.160698" lon="19.290031">
<ele>804.320801</ele>
<time>2012-04-29T10:01:00Z</time>
<desc>lat.=43.160698, lon.=19.290031, Alt.=804.320801m. Speed=16.667999m/h.</desc>
<speed>4.630000</speed>
</trkpt>
<trkpt lat="43.160748" lon="19.289761">
<ele>803.617676</ele>
<time>2012-04-29T10:01:05Z</time>
<desc>lat.=43.160748, lon.=19.289761, Alt.=803.617676m. Speed=16.559999m/h.</desc>
<speed>4.600000</speed>
</trkpt>
<trkpt lat="43.160732" lon="19.289480">
<ele>803.758301</ele>
<time>2012-04-29T10:01:10Z</time>
<desc>lat.=43.160732, lon.=19.289480, Alt.=803.758301m. Speed=15.696000m/h.</desc>
<speed>4.360000</speed>
</trkpt>
<trkpt lat="43.160671" lon="19.289228">
<ele>801.008301</ele>
<time>2012-04-29T10:01:15Z</time>
<desc>lat.=43.160671, lon.=19.289228, Alt.=801.008301m. Speed=15.048000m/h.</desc>
<speed>4.180000</speed>
</trkpt>
<trkpt lat="43.160583" lon="19.288908">
<ele>797.977051</ele>
<time>2012-04-29T10:01:20Z</time>
<desc>lat.=43.160583, lon.=19.288908, Alt.=797.977051m. Speed=19.476000m/h.</desc>
<speed>5.410000</speed>
</trkpt>
<trkpt lat="43.160496" lon="19.288679">
<ele>797.164551</ele>
<time>2012-04-29T10:01:25Z</time>
<desc>lat.=43.160496, lon.=19.288679, Alt.=797.164551m. Speed=12.240000m/h.</desc>
<speed>3.400000</speed>
</trkpt>
<trkpt lat="43.160423" lon="19.288506">
<ele>797.148926</ele>
<time>2012-04-29T10:01:30Z</time>
<desc>lat.=43.160423, lon.=19.288506, Alt.=797.148926m. Speed=12.780000m/h.</desc>
<speed>3.550000</speed>
</trkpt>
<trkpt lat="43.160423" lon="19.288280">
<ele>797.180176</ele>
<time>2012-04-29T10:01:35Z</time>
<desc>lat.=43.160423, lon.=19.288280, Alt.=797.180176m. Speed=13.356000m/h.</desc>
<speed>3.710000</speed>
</trkpt>
<trkpt lat="43.160496" lon="19.288074">
<ele>796.414551</ele>
<time>2012-04-29T10:01:40Z</time>
<desc>lat.=43.160496, lon.=19.288074, Alt.=796.414551m. Speed=11.412000m/h.</desc>
<speed>3.170000</speed>
</trkpt>
<trkpt lat="43.160564" lon="19.287893">
<ele>796.242676</ele>
<time>2012-04-29T10:01:45Z</time>
<desc>lat.=43.160564, lon.=19.287893, Alt.=796.242676m. Speed=8.964000m/h.</desc>
<speed>2.490000</speed>
</trkpt>
<trkpt lat="43.160587" lon="19.287758">
<ele>796.539551</ele>
<time>2012-04-29T10:01:50Z</time>
<desc>lat.=43.160587, lon.=19.287758, Alt.=796.539551m. Speed=7.920000m/h.</desc>
<speed>2.200000</speed>
</trkpt>
<trkpt lat="43.160591" lon="19.287647">
<ele>796.320801</ele>
<time>2012-04-29T10:01:55Z</time>
<desc>lat.=43.160591, lon.=19.287647, Alt.=796.320801m. Speed=6.228000m/h.</desc>
<speed>1.730000</speed>
</trkpt>
<trkpt lat="43.160572" lon="19.287491">
<ele>796.320801</ele>
<time>2012-04-29T10:02:00Z</time>
<desc>lat.=43.160572, lon.=19.287491, Alt.=796.320801m. Speed=12.240000m/h.</desc>
<speed>3.400000</speed>
</trkpt>
<trkpt lat="43.160534" lon="19.287306">
<ele>796.836426</ele>
<time>2012-04-29T10:02:05Z</time>
<desc>lat.=43.160534, lon.=19.287306, Alt.=796.836426m. Speed=11.628000m/h.</desc>
<speed>3.230000</speed>
</trkpt>
<trkpt lat="43.160488" lon="19.287128">
<ele>797.305176</ele>
<time>2012-04-29T10:02:10Z</time>
<desc>lat.=43.160488, lon.=19.287128, Alt.=797.305176m. Speed=7.956000m/h.</desc>
<speed>2.210000</speed>
</trkpt>
<trkpt lat="43.160450" lon="19.286987">
<ele>797.914551</ele>
<time>2012-04-29T10:02:15Z</time>
<desc>lat.=43.160450, lon.=19.286987, Alt.=797.914551m. Speed=10.224000m/h.</desc>
<speed>2.840000</speed>
</trkpt>
<trkpt lat="43.160408" lon="19.286816">
<ele>798.539551</ele>
<time>2012-04-29T10:02:20Z</time>
<desc>lat.=43.160408, lon.=19.286816, Alt.=798.539551m. Speed=9.396000m/h.</desc>
<speed>2.610000</speed>
</trkpt>
<trkpt lat="43.160362" lon="19.286655">
<ele>798.992676</ele>
<time>2012-04-29T10:02:25Z</time>
<desc>lat.=43.160362, lon.=19.286655, Alt.=798.992676m. Speed=10.584000m/h.</desc>
<speed>2.940000</speed>
</trkpt>
<trkpt lat="43.160305" lon="19.286474">
<ele>799.383301</ele>
<time>2012-04-29T10:02:30Z</time>
<desc>lat.=43.160305, lon.=19.286474, Alt.=799.383301m. Speed=14.652000m/h.</desc>
<speed>4.070000</speed>
</trkpt>
<trkpt lat="43.160236" lon="19.286194">
<ele>797.820801</ele>
<time>2012-04-29T10:02:35Z</time>
<desc>lat.=43.160236, lon.=19.286194, Alt.=797.820801m. Speed=17.063999m/h.</desc>
<speed>4.740000</speed>
</trkpt>
<trkpt lat="43.160152" lon="19.285931">
<ele>795.555176</ele>
<time>2012-04-29T10:02:40Z</time>
<desc>lat.=43.160152, lon.=19.285931, Alt.=795.555176m. Speed=16.020000m/h.</desc>
<speed>4.450000</speed>
</trkpt>
<trkpt lat="43.160046" lon="19.285728">
<ele>793.523926</ele>
<time>2012-04-29T10:02:45Z</time>
<desc>lat.=43.160046, lon.=19.285728, Alt.=793.523926m. Speed=14.436000m/h.</desc>
<speed>4.010000</speed>
</trkpt>
<trkpt lat="43.159966" lon="19.285467">
<ele>789.773926</ele>
<time>2012-04-29T10:02:50Z</time>
<desc>lat.=43.159966, lon.=19.285467, Alt.=789.773926m. Speed=17.820000m/h.</desc>
<speed>4.950000</speed>
</trkpt>
<trkpt lat="43.159836" lon="19.285238">
<ele>786.133301</ele>
<time>2012-04-29T10:02:55Z</time>
<desc>lat.=43.159836, lon.=19.285238, Alt.=786.133301m. Speed=16.667999m/h.</desc>
<speed>4.630000</speed>
</trkpt>
<trkpt lat="43.159840" lon="19.284878">
<ele>781.523926</ele>
<time>2012-04-29T10:03:00Z</time>
<desc>lat.=43.159840, lon.=19.284878, Alt.=781.523926m. Speed=20.628000m/h.</desc>
<speed>5.730000</speed>
</trkpt>
<trkpt lat="43.159904" lon="19.284523">
<ele>779.133301</ele>
<time>2012-04-29T10:03:05Z</time>
<desc>lat.=43.159904, lon.=19.284523, Alt.=779.133301m. Speed=23.724001m/h.</desc>
<speed>6.590000</speed>
</trkpt>
<trkpt lat="43.159969" lon="19.284157">
<ele>778.289551</ele>
<time>2012-04-29T10:03:10Z</time>
<desc>lat.=43.159969, lon.=19.284157, Alt.=778.289551m. Speed=22.139999m/h.</desc>
<speed>6.150000</speed>
</trkpt>
<trkpt lat="43.159939" lon="19.283772">
<ele>773.148926</ele>
<time>2012-04-29T10:03:15Z</time>
<desc>lat.=43.159939, lon.=19.283772, Alt.=773.148926m. Speed=24.408001m/h.</desc>
<speed>6.780000</speed>
</trkpt>
<trkpt lat="43.159863" lon="19.283369">
<ele>768.664551</ele>
<time>2012-04-29T10:03:20Z</time>
<desc>lat.=43.159863, lon.=19.283369, Alt.=768.664551m. Speed=24.552000m/h.</desc>
<speed>6.820000</speed>
</trkpt>
<trkpt lat="43.159840" lon="19.282932">
<ele>766.477051</ele>
<time>2012-04-29T10:03:25Z</time>
<desc>lat.=43.159840, lon.=19.282932, Alt.=766.477051m. Speed=26.568001m/h.</desc>
<speed>7.380000</speed>
</trkpt>
<trkpt lat="43.159843" lon="19.282534">
<ele>765.133301</ele>
<time>2012-04-29T10:03:30Z</time>
<desc>lat.=43.159843, lon.=19.282534, Alt.=765.133301m. Speed=22.068001m/h.</desc>
<speed>6.130000</speed>
</trkpt>
<trkpt lat="43.159977" lon="19.282169">
<ele>762.633301</ele>
<time>2012-04-29T10:03:35Z</time>
<desc>lat.=43.159977, lon.=19.282169, Alt.=762.633301m. Speed=25.704000m/h.</desc>
<speed>7.140000</speed>
</trkpt>
<trkpt lat="43.160122" lon="19.281710">
<ele>759.727051</ele>
<time>2012-04-29T10:03:40Z</time>
<desc>lat.=43.160122, lon.=19.281710, Alt.=759.727051m. Speed=30.996000m/h.</desc>
<speed>8.610000</speed>
</trkpt>
<trkpt lat="43.160294" lon="19.281269">
<ele>756.383301</ele>
<time>2012-04-29T10:03:45Z</time>
<desc>lat.=43.160294, lon.=19.281269, Alt.=756.383301m. Speed=25.452000m/h.</desc>
<speed>7.070000</speed>
</trkpt>
<trkpt lat="43.160461" lon="19.280933">
<ele>752.164551</ele>
<time>2012-04-29T10:03:50Z</time>
<desc>lat.=43.160461, lon.=19.280933, Alt.=752.164551m. Speed=23.112000m/h.</desc>
<speed>6.420000</speed>
</trkpt>
<trkpt lat="43.160648" lon="19.280619">
<ele>747.820801</ele>
<time>2012-04-29T10:03:55Z</time>
<desc>lat.=43.160648, lon.=19.280619, Alt.=747.820801m. Speed=25.020000m/h.</desc>
<speed>6.950000</speed>
</trkpt>
<trkpt lat="43.160576" lon="19.280319">
<ele>748.086426</ele>
<time>2012-04-29T10:04:00Z</time>
<desc>lat.=43.160576, lon.=19.280319, Alt.=748.086426m. Speed=15.084000m/h.</desc>
<speed>4.190000</speed>
</trkpt>
<trkpt lat="43.160522" lon="19.280190">
<ele>747.992676</ele>
<time>2012-04-29T10:04:05Z</time>
<desc>lat.=43.160522, lon.=19.280190, Alt.=747.992676m. Speed=6.156000m/h.</desc>
<speed>1.710000</speed>
</trkpt>
<trkpt lat="43.160515" lon="19.280174">
<ele>747.789551</ele>
<time>2012-04-29T10:04:10Z</time>
<desc>lat.=43.160515, lon.=19.280174, Alt.=747.789551m. Speed=0.396000m/h.</desc>
<speed>0.110000</speed>
</trkpt>
<trkpt lat="43.160511" lon="19.280180">
<ele>748.305176</ele>
<time>2012-04-29T10:04:15Z</time>
<desc>lat.=43.160511, lon.=19.280180, Alt.=748.305176m. Speed=0.900000m/h.</desc>
<speed>0.250000</speed>
</trkpt>
<trkpt lat="43.160507" lon="19.280188">
<ele>748.852051</ele>
<time>2012-04-29T10:04:20Z</time>
<desc>lat.=43.160507, lon.=19.280188, Alt.=748.852051m. Speed=0.180000m/h.</desc>
<speed>0.050000</speed>
</trkpt>
<trkpt lat="43.160511" lon="19.280190">
<ele>748.852051</ele>
<time>2012-04-29T10:04:25Z</time>
<desc>lat.=43.160511, lon.=19.280190, Alt.=748.852051m. Speed=0.036000m/h.</desc>
<speed>0.010000</speed>
</trkpt>
<trkpt lat="43.160511" lon="19.280190">
<ele>748.820801</ele>
<time>2012-04-29T10:04:30Z</time>
<desc>lat.=43.160511, lon.=19.280190, Alt.=748.820801m. Speed=0.036000m/h.</desc>
<speed>0.010000</speed>
</trkpt>
<trkpt lat="43.160511" lon="19.280191">
<ele>748.836426</ele>
<time>2012-04-29T10:04:35Z</time>
<desc>lat.=43.160511, lon.=19.280191, Alt.=748.836426m. Speed=0.108000m/h.</desc>
<speed>0.030000</speed>
</trkpt>
<trkpt lat="43.160507" lon="19.280182">
<ele>748.992676</ele>
<time>2012-04-29T10:04:40Z</time>
<desc>lat.=43.160507, lon.=19.280182, Alt.=748.992676m. Speed=4.896000m/h.</desc>
<speed>1.360000</speed>
</trkpt>
<trkpt lat="43.160522" lon="19.279997">
<ele>748.508301</ele>
<time>2012-04-29T10:04:45Z</time>
<desc>lat.=43.160522, lon.=19.279997, Alt.=748.508301m. Speed=12.816000m/h.</desc>
<speed>3.560000</speed>
</trkpt>
<trkpt lat="43.160606" lon="19.279696">
<ele>746.258301</ele>
<time>2012-04-29T10:04:50Z</time>
<desc>lat.=43.160606, lon.=19.279696, Alt.=746.258301m. Speed=16.344000m/h.</desc>
<speed>4.540000</speed>
</trkpt>
<trkpt lat="43.160637" lon="19.279366">
<ele>745.055176</ele>
<time>2012-04-29T10:04:55Z</time>
<desc>lat.=43.160637, lon.=19.279366, Alt.=745.055176m. Speed=22.392000m/h.</desc>
<speed>6.220000</speed>
</trkpt>
<trkpt lat="43.160606" lon="19.278994">
<ele>744.539551</ele>
<time>2012-04-29T10:05:00Z</time>
<desc>lat.=43.160606, lon.=19.278994, Alt.=744.539551m. Speed=20.771999m/h.</desc>
<speed>5.770000</speed>
</trkpt>
<trkpt lat="43.160480" lon="19.278683">
<ele>744.508301</ele>
<time>2012-04-29T10:05:05Z</time>
<desc>lat.=43.160480, lon.=19.278683, Alt.=744.508301m. Speed=21.024000m/h.</desc>
<speed>5.840000</speed>
</trkpt>
<trkpt lat="43.160240" lon="19.278545">
<ele>746.102051</ele>
<time>2012-04-29T10:05:10Z</time>
<desc>lat.=43.160240, lon.=19.278545, Alt.=746.102051m. Speed=10.044000m/h.</desc>
<speed>2.790000</speed>
</trkpt>
<trkpt lat="43.160244" lon="19.278526">
<ele>745.242676</ele>
<time>2012-04-29T10:05:15Z</time>
<desc>lat.=43.160244, lon.=19.278526, Alt.=745.242676m. Speed=1.260000m/h.</desc>
<speed>0.350000</speed>
</trkpt>
<trkpt lat="43.160248" lon="19.278528">
<ele>746.148926</ele>
<time>2012-04-29T10:05:20Z</time>
<desc>lat.=43.160248, lon.=19.278528, Alt.=746.148926m. Speed=0.360000m/h.</desc>
<speed>0.100000</speed>
</trkpt>
<trkpt lat="43.160248" lon="19.278528">
<ele>746.195801</ele>
<time>2012-04-29T10:05:25Z</time>
<desc>lat.=43.160248, lon.=19.278528, Alt.=746.195801m. Speed=0.108000m/h.</desc>
<speed>0.030000</speed>
</trkpt>
<trkpt lat="43.160244" lon="19.278532">
<ele>746.227051</ele>
<time>2012-04-29T10:05:30Z</time>
<desc>lat.=43.160244, lon.=19.278532, Alt.=746.227051m. Speed=0.432000m/h.</desc>
<speed>0.120000</speed>
</trkpt>
<trkpt lat="43.160244" lon="19.278534">
<ele>746.367676</ele>
<time>2012-04-29T10:05:35Z</time>
<desc>lat.=43.160244, lon.=19.278534, Alt.=746.367676m. Speed=0.144000m/h.</desc>
<speed>0.040000</speed>
</trkpt>
<trkpt lat="43.160244" lon="19.278534">
<ele>746.367676</ele>
<time>2012-04-29T10:05:40Z</time>
<desc>lat.=43.160244, lon.=19.278534, Alt.=746.367676m. Speed=0.036000m/h.</desc>
<speed>0.010000</speed>
</trkpt>
<trkpt lat="43.160244" lon="19.278534">
<ele>746.367676</ele>
<time>2012-04-29T10:05:45Z</time>
<desc>lat.=43.160244, lon.=19.278534, Alt.=746.367676m. Speed=0.072000m/h.</desc>
<speed>0.020000</speed>
</trkpt>
<trkpt lat="43.160244" lon="19.278534">
<ele>746.352051</ele>
<time>2012-04-29T10:05:50Z</time>
<desc>lat.=43.160244, lon.=19.278534, Alt.=746.352051m. Speed=0.000000m/h.</desc>
<speed>0.000000</speed>
</trkpt>
<trkpt lat="43.160244" lon="19.278534">
<ele>746.352051</ele>
<time>2012-04-29T10:05:55Z</time>
<desc>lat.=43.160244, lon.=19.278534, Alt.=746.352051m. Speed=0.000000m/h.</desc>
<speed>0.000000</speed>
</trkpt>
<trkpt lat="43.160244" lon="19.278534">
<ele>746.367676</ele>
<time>2012-04-29T10:06:00Z</time>
<desc>lat.=43.160244, lon.=19.278534, Alt.=746.367676m. Speed=0.072000m/h.</desc>
<speed>0.020000</speed>
</trkpt>
<trkpt lat="43.160244" lon="19.278536">
<ele>746.367676</ele>
<time>2012-04-29T10:06:05Z</time>
<desc>lat.=43.160244, lon.=19.278536, Alt.=746.367676m. Speed=0.000000m/h.</desc>
<speed>0.000000</speed>
</trkpt>
<trkpt lat="43.160248" lon="19.278543">
<ele>746.414551</ele>
<time>2012-04-29T10:06:10Z</time>
<desc>lat.=43.160248, lon.=19.278543, Alt.=746.414551m. Speed=5.364000m/h.</desc>
<speed>1.490000</speed>
</trkpt>
<trkpt lat="43.160442" lon="19.278610">
<ele>748.133301</ele>
<time>2012-04-29T10:06:15Z</time>
<desc>lat.=43.160442, lon.=19.278610, Alt.=748.133301m. Speed=12.888000m/h.</desc>
<speed>3.580000</speed>
</trkpt>
<trkpt lat="43.160561" lon="19.278700">
<ele>750.805176</ele>
<time>2012-04-29T10:06:20Z</time>
<desc>lat.=43.160561, lon.=19.278700, Alt.=750.805176m. Speed=8.208000m/h.</desc>
<speed>2.280000</speed>
</trkpt>
<trkpt lat="43.160580" lon="19.278692">
<ele>752.727051</ele>
<time>2012-04-29T10:06:25Z</time>
<desc>lat.=43.160580, lon.=19.278692, Alt.=752.727051m. Speed=1.908000m/h.</desc>
<speed>0.530000</speed>
</trkpt>
<trkpt lat="43.160583" lon="19.278692">
<ele>751.883301</ele>
<time>2012-04-29T10:06:30Z</time>
<desc>lat.=43.160583, lon.=19.278692, Alt.=751.883301m. Speed=0.288000m/h.</desc>
<speed>0.080000</speed>
</trkpt>
<trkpt lat="43.160583" lon="19.278690">
<ele>751.977051</ele>
<time>2012-04-29T10:06:35Z</time>
<desc>lat.=43.160583, lon.=19.278690, Alt.=751.977051m. Speed=0.216000m/h.</desc>
<speed>0.060000</speed>
</trkpt>
<trkpt lat="43.160583" lon="19.278688">
<ele>752.055176</ele>
<time>2012-04-29T10:06:40Z</time>
<desc>lat.=43.160583, lon.=19.278688, Alt.=752.055176m. Speed=0.468000m/h.</desc>
<speed>0.130000</speed>
</trkpt>
<trkpt lat="43.160587" lon="19.278694">
<ele>752.164551</ele>
<time>2012-04-29T10:06:45Z</time>
<desc>lat.=43.160587, lon.=19.278694, Alt.=752.164551m. Speed=2.988000m/h.</desc>
<speed>0.830000</speed>
</trkpt>
<trkpt lat="43.160606" lon="19.278727">
<ele>752.367676</ele>
<time>2012-04-29T10:06:50Z</time>
<desc>lat.=43.160606, lon.=19.278727, Alt.=752.367676m. Speed=0.576000m/h.</desc>
<speed>0.160000</speed>
</trkpt>
<trkpt lat="43.160614" lon="19.278728">
<ele>752.242676</ele>
<time>2012-04-29T10:06:55Z</time>
<desc>lat.=43.160614, lon.=19.278728, Alt.=752.242676m. Speed=0.108000m/h.</desc>
<speed>0.030000</speed>
</trkpt>
<trkpt lat="43.160610" lon="19.278719">
<ele>752.273926</ele>
<time>2012-04-29T10:07:00Z</time>
<desc>lat.=43.160610, lon.=19.278719, Alt.=752.273926m. Speed=1.080000m/h.</desc>
<speed>0.300000</speed>
</trkpt>
<trkpt lat="43.160618" lon="19.278711">
<ele>752.211426</ele>
<time>2012-04-29T10:07:05Z</time>
<desc>lat.=43.160618, lon.=19.278711, Alt.=752.211426m. Speed=0.108000m/h.</desc>
<speed>0.030000</speed>
</trkpt>
<trkpt lat="43.160614" lon="19.278706">
<ele>752.227051</ele>
<time>2012-04-29T10:07:10Z</time>
<desc>lat.=43.160614, lon.=19.278706, Alt.=752.227051m. Speed=0.072000m/h.</desc>
<speed>0.020000</speed>
</trkpt>
<trkpt lat="43.160614" lon="19.278711">
<ele>752.336426</ele>
<time>2012-04-29T10:07:15Z</time>
<desc>lat.=43.160614, lon.=19.278711, Alt.=752.336426m. Speed=0.756000m/h.</desc>
<speed>0.210000</speed>
</trkpt>
<trkpt lat="43.160614" lon="19.278717">
<ele>752.383301</ele>
<time>2012-04-29T10:07:20Z</time>
<desc>lat.=43.160614, lon.=19.278717, Alt.=752.383301m. Speed=0.108000m/h.</desc>
<speed>0.030000</speed>
</trkpt>
<trkpt lat="43.160614" lon="19.278723">
<ele>752.414551</ele>
<time>2012-04-29T10:07:25Z</time>
<desc>lat.=43.160614, lon.=19.278723, Alt.=752.414551m. Speed=0.252000m/h.</desc>
<speed>0.070000</speed>
</trkpt>
<trkpt lat="43.160610" lon="19.278725">
<ele>752.430176</ele>
<time>2012-04-29T10:07:30Z</time>
<desc>lat.=43.160610, lon.=19.278725, Alt.=752.430176m. Speed=0.180000m/h.</desc>
<speed>0.050000</speed>
</trkpt>
<trkpt lat="43.160610" lon="19.278725">
<ele>752.445801</ele>
<time>2012-04-29T10:07:35Z</time>
<desc>lat.=43.160610, lon.=19.278725, Alt.=752.445801m. Speed=0.036000m/h.</desc>
<speed>0.010000</speed>
</trkpt>
<trkpt lat="43.160610" lon="19.278725">
<ele>752.445801</ele>
<time>2012-04-29T10:07:40Z</time>
<desc>lat.=43.160610, lon.=19.278725, Alt.=752.445801m. Speed=0.036000m/h.</desc>
<speed>0.010000</speed>
</trkpt>
<trkpt lat="43.160610" lon="19.278727">
<ele>752.445801</ele>
<time>2012-04-29T10:07:45Z</time>
<desc>lat.=43.160610, lon.=19.278727, Alt.=752.445801m. Speed=0.000000m/h.</desc>
<speed>0.000000</speed>
</trkpt>
<trkpt lat="43.160610" lon="19.278727">
<ele>752.445801</ele>
<time>2012-04-29T10:07:50Z</time>
<desc>lat.=43.160610, lon.=19.278727, Alt.=752.445801m. Speed=0.000000m/h.</desc>
<speed>0.000000</speed>
</trkpt>
<trkpt lat="43.160610" lon="19.278727">
<ele>752.430176</ele>
<time>2012-04-29T10:07:55Z</time>
<desc>lat.=43.160610, lon.=19.278727, Alt.=752.430176m. Speed=0.000000m/h.</desc>
<speed>0.000000</speed>
</trkpt>
<trkpt lat="43.160610" lon="19.278727">
<ele>752.430176</ele>
<time>2012-04-29T10:08:00Z</time>
<desc>lat.=43.160610, lon.=19.278727, Alt.=752.430176m. Speed=0.000000m/h.</desc>
<speed>0.000000</speed>
</trkpt>
<trkpt lat="43.160610" lon="19.278727">
<ele>752.430176</ele>
<time>2012-04-29T10:08:05Z</time>
<desc>lat.=43.160610, lon.=19.278727, Alt.=752.430176m. Speed=0.036000m/h.</desc>
<speed>0.010000</speed>
</trkpt>
<trkpt lat="43.160610" lon="19.278727">
<ele>752.430176</ele>
<time>2012-04-29T10:08:10Z</time>
<desc>lat.=43.160610, lon.=19.278727, Alt.=752.430176m. Speed=0.000000m/h.</desc>
<speed>0.000000</speed>
</trkpt>
<trkpt lat="43.160610" lon="19.278727">
<ele>752.414551</ele>
<time>2012-04-29T10:08:15Z</time>
<desc>lat.=43.160610, lon.=19.278727, Alt.=752.414551m. Speed=0.000000m/h.</desc>
<speed>0.000000</speed>
</trkpt>
<trkpt lat="43.160610" lon="19.278727">
<ele>752.398926</ele>
<time>2012-04-29T10:08:20Z</time>
<desc>lat.=43.160610, lon.=19.278727, Alt.=752.398926m. Speed=0.144000m/h.</desc>
<speed>0.040000</speed>
</trkpt>
<trkpt lat="43.160625" lon="19.278738">
<ele>752.352051</ele>
<time>2012-04-29T10:08:25Z</time>
<desc>lat.=43.160625, lon.=19.278738, Alt.=752.352051m. Speed=0.684000m/h.</desc>
<speed>0.190000</speed>
</trkpt>
<trkpt lat="43.160641" lon="19.278811">
<ele>751.805176</ele>
<time>2012-04-29T10:08:30Z</time>
<desc>lat.=43.160641, lon.=19.278811, Alt.=751.805176m. Speed=6.804000m/h.</desc>
<speed>1.890000</speed>
</trkpt>
<trkpt lat="43.160641" lon="19.278967">
<ele>752.398926</ele>
<time>2012-04-29T10:08:35Z</time>
<desc>lat.=43.160641, lon.=19.278967, Alt.=752.398926m. Speed=8.820000m/h.</desc>
<speed>2.450000</speed>
</trkpt>
<trkpt lat="43.160633" lon="19.279123">
<ele>752.664551</ele>
<time>2012-04-29T10:08:40Z</time>
<desc>lat.=43.160633, lon.=19.279123, Alt.=752.664551m. Speed=9.144000m/h.</desc>
<speed>2.540000</speed>
</trkpt>
<trkpt lat="43.160656" lon="19.279245">
<ele>752.305176</ele>
<time>2012-04-29T10:08:45Z</time>
<desc>lat.=43.160656, lon.=19.279245, Alt.=752.305176m. Speed=4.248000m/h.</desc>
<speed>1.180000</speed>
</trkpt>
<trkpt lat="43.160698" lon="19.279295">
<ele>752.133301</ele>
<time>2012-04-29T10:08:50Z</time>
<desc>lat.=43.160698, lon.=19.279295, Alt.=752.133301m. Speed=2.880000m/h.</desc>
<speed>0.800000</speed>
</trkpt>
<trkpt lat="43.160725" lon="19.279242">
<ele>752.102051</ele>
<time>2012-04-29T10:08:55Z</time>
<desc>lat.=43.160725, lon.=19.279242, Alt.=752.102051m. Speed=3.528000m/h.</desc>
<speed>0.980000</speed>
</trkpt>
<trkpt lat="43.160763" lon="19.279156">
<ele>752.398926</ele>
<time>2012-04-29T10:09:00Z</time>
<desc>lat.=43.160763, lon.=19.279156, Alt.=752.398926m. Speed=7.524000m/h.</desc>
<speed>2.090000</speed>
</trkpt>
<trkpt lat="43.160812" lon="19.279057">
<ele>753.164551</ele>
<time>2012-04-29T10:09:05Z</time>
<desc>lat.=43.160812, lon.=19.279057, Alt.=753.164551m. Speed=0.900000m/h.</desc>
<speed>0.250000</speed>
</trkpt>
<trkpt lat="43.160809" lon="19.279060">
<ele>752.555176</ele>
<time>2012-04-29T10:09:10Z</time>
<desc>lat.=43.160809, lon.=19.279060, Alt.=752.555176m. Speed=0.144000m/h.</desc>
<speed>0.040000</speed>
</trkpt>
<trkpt lat="43.160809" lon="19.279060">
<ele>752.617676</ele>
<time>2012-04-29T10:09:15Z</time>
<desc>lat.=43.160809, lon.=19.279060, Alt.=752.617676m. Speed=0.072000m/h.</desc>
<speed>0.020000</speed>
</trkpt>
<trkpt lat="43.160809" lon="19.279060">
<ele>752.695801</ele>
<time>2012-04-29T10:09:20Z</time>
<desc>lat.=43.160809, lon.=19.279060, Alt.=752.695801m. Speed=0.036000m/h.</desc>
<speed>0.010000</speed>
</trkpt>
<trkpt lat="43.160809" lon="19.279060">
<ele>752.695801</ele>
<time>2012-04-29T10:09:25Z</time>
<desc>lat.=43.160809, lon.=19.279060, Alt.=752.695801m. Speed=0.036000m/h.</desc>
<speed>0.010000</speed>
</trkpt>
<trkpt lat="43.160809" lon="19.279060">
<ele>752.695801</ele>
<time>2012-04-29T10:09:30Z</time>
<desc>lat.=43.160809, lon.=19.279060, Alt.=752.695801m. Speed=0.036000m/h.</desc>
<speed>0.010000</speed>
</trkpt>
<trkpt lat="43.160809" lon="19.279060">
<ele>752.695801</ele>
<time>2012-04-29T10:09:35Z</time>
<desc>lat.=43.160809, lon.=19.279060, Alt.=752.695801m. Speed=0.036000m/h.</desc>
<speed>0.010000</speed>
</trkpt>
<trkpt lat="43.160812" lon="19.279055">
<ele>752.805176</ele>
<time>2012-04-29T10:09:40Z</time>
<desc>lat.=43.160812, lon.=19.279055, Alt.=752.805176m. Speed=2.088000m/h.</desc>
<speed>0.580000</speed>
</trkpt>
<trkpt lat="43.160805" lon="19.279060">
<ele>752.680176</ele>
<time>2012-04-29T10:09:45Z</time>
<desc>lat.=43.160805, lon.=19.279060, Alt.=752.680176m. Speed=0.144000m/h.</desc>
<speed>0.040000</speed>
</trkpt>
<trkpt lat="43.160805" lon="19.279062">
<ele>752.602051</ele>
<time>2012-04-29T10:09:50Z</time>
<desc>lat.=43.160805, lon.=19.279062, Alt.=752.602051m. Speed=0.144000m/h.</desc>
<speed>0.040000</speed>
</trkpt>
<trkpt lat="43.160805" lon="19.279057">
<ele>752.477051</ele>
<time>2012-04-29T10:09:55Z</time>
<desc>lat.=43.160805, lon.=19.279057, Alt.=752.477051m. Speed=0.072000m/h.</desc>
<speed>0.020000</speed>
</trkpt>
<trkpt lat="43.160805" lon="19.279058">
<ele>752.430176</ele>
<time>2012-04-29T10:10:00Z</time>
<desc>lat.=43.160805, lon.=19.279058, Alt.=752.430176m. Speed=4.536000m/h.</desc>
<speed>1.260000</speed>
</trkpt>
<trkpt lat="43.160828" lon="19.279152">
<ele>752.820801</ele>
<time>2012-04-29T10:10:05Z</time>
<desc>lat.=43.160828, lon.=19.279152, Alt.=752.820801m. Speed=5.004000m/h.</desc>
<speed>1.390000</speed>
</trkpt>
<trkpt lat="43.160847" lon="19.279268">
<ele>753.617676</ele>
<time>2012-04-29T10:10:10Z</time>
<desc>lat.=43.160847, lon.=19.279268, Alt.=753.617676m. Speed=7.632000m/h.</desc>
<speed>2.120000</speed>
</trkpt>
<trkpt lat="43.160851" lon="19.279402">
<ele>755.227051</ele>
<time>2012-04-29T10:10:15Z</time>
<desc>lat.=43.160851, lon.=19.279402, Alt.=755.227051m. Speed=6.300000m/h.</desc>
<speed>1.750000</speed>
</trkpt>
<trkpt lat="43.160873" lon="19.279499">
<ele>756.711426</ele>
<time>2012-04-29T10:10:20Z</time>
<desc>lat.=43.160873, lon.=19.279499, Alt.=756.711426m. Speed=3.996000m/h.</desc>
<speed>1.110000</speed>
</trkpt>
<trkpt lat="43.160900" lon="19.279537">
<ele>757.742676</ele>
<time>2012-04-29T10:10:25Z</time>
<desc>lat.=43.160900, lon.=19.279537, Alt.=757.742676m. Speed=1.116000m/h.</desc>
<speed>0.310000</speed>
</trkpt>
<trkpt lat="43.160904" lon="19.279583">
<ele>758.508301</ele>
<time>2012-04-29T10:10:30Z</time>
<desc>lat.=43.160904, lon.=19.279583, Alt.=758.508301m. Speed=3.060000m/h.</desc>
<speed>0.850000</speed>
</trkpt>
<trkpt lat="43.160912" lon="19.279669">
<ele>759.164551</ele>
<time>2012-04-29T10:10:35Z</time>
<desc>lat.=43.160912, lon.=19.279669, Alt.=759.164551m. Speed=3.816000m/h.</desc>
<speed>1.060000</speed>
</trkpt>
<trkpt lat="43.160950" lon="19.279722">
<ele>760.023926</ele>
<time>2012-04-29T10:10:40Z</time>
<desc>lat.=43.160950, lon.=19.279722, Alt.=760.023926m. Speed=3.492000m/h.</desc>
<speed>0.970000</speed>
</trkpt>
<trkpt lat="43.160957" lon="19.279785">
<ele>761.117676</ele>
<time>2012-04-29T10:10:45Z</time>
<desc>lat.=43.160957, lon.=19.279785, Alt.=761.117676m. Speed=3.564000m/h.</desc>
<speed>0.990000</speed>
</trkpt>
<trkpt lat="43.160984" lon="19.279816">
<ele>762.430176</ele>
<time>2012-04-29T10:10:50Z</time>
<desc>lat.=43.160984, lon.=19.279816, Alt.=762.430176m. Speed=0.576000m/h.</desc>
<speed>0.160000</speed>
</trkpt>
<trkpt lat="43.160995" lon="19.279835">
<ele>762.242676</ele>
<time>2012-04-29T10:10:55Z</time>
<desc>lat.=43.160995, lon.=19.279835, Alt.=762.242676m. Speed=1.692000m/h.</desc>
<speed>0.470000</speed>
</trkpt>
<trkpt lat="43.161015" lon="19.279833">
<ele>763.383301</ele>
<time>2012-04-29T10:11:00Z</time>
<desc>lat.=43.161015, lon.=19.279833, Alt.=763.383301m. Speed=0.828000m/h.</desc>
<speed>0.230000</speed>
</trkpt>
<trkpt lat="43.161041" lon="19.279810">
<ele>763.492676</ele>
<time>2012-04-29T10:11:05Z</time>
<desc>lat.=43.161041, lon.=19.279810, Alt.=763.492676m. Speed=1.764000m/h.</desc>
<speed>0.490000</speed>
</trkpt>
<trkpt lat="43.161053" lon="19.279816">
<ele>763.195801</ele>
<time>2012-04-29T10:11:10Z</time>
<desc>lat.=43.161053, lon.=19.279816, Alt.=763.195801m. Speed=1.476000m/h.</desc>
<speed>0.410000</speed>
</trkpt>
<trkpt lat="43.161076" lon="19.279810">
<ele>764.086426</ele>
<time>2012-04-29T10:11:15Z</time>
<desc>lat.=43.161076, lon.=19.279810, Alt.=764.086426m. Speed=1.692000m/h.</desc>
<speed>0.470000</speed>
</trkpt>
<trkpt lat="43.161110" lon="19.279789">
<ele>764.867676</ele>
<time>2012-04-29T10:11:20Z</time>
<desc>lat.=43.161110, lon.=19.279789, Alt.=764.867676m. Speed=3.096000m/h.</desc>
<speed>0.860000</speed>
</trkpt>
<trkpt lat="43.161140" lon="19.279789">
<ele>765.758301</ele>
<time>2012-04-29T10:11:25Z</time>
<desc>lat.=43.161140, lon.=19.279789, Alt.=765.758301m. Speed=2.196000m/h.</desc>
<speed>0.610000</speed>
</trkpt>
<trkpt lat="43.161190" lon="19.279762">
<ele>767.242676</ele>
<time>2012-04-29T10:11:30Z</time>
<desc>lat.=43.161190, lon.=19.279762, Alt.=767.242676m. Speed=3.168000m/h.</desc>
<speed>0.880000</speed>
</trkpt>
<trkpt lat="43.161205" lon="19.279736">
<ele>767.680176</ele>
<time>2012-04-29T10:11:35Z</time>
<desc>lat.=43.161205, lon.=19.279736, Alt.=767.680176m. Speed=1.908000m/h.</desc>
<speed>0.530000</speed>
</trkpt>
<trkpt lat="43.161236" lon="19.279699">
<ele>768.852051</ele>
<time>2012-04-29T10:11:40Z</time>
<desc>lat.=43.161236, lon.=19.279699, Alt.=768.852051m. Speed=0.864000m/h.</desc>
<speed>0.240000</speed>
</trkpt>
<trkpt lat="43.161278" lon="19.279690">
<ele>769.367676</ele>
<time>2012-04-29T10:11:45Z</time>
<desc>lat.=43.161278, lon.=19.279690, Alt.=769.367676m. Speed=3.024000m/h.</desc>
<speed>0.840000</speed>
</trkpt>
<trkpt lat="43.161312" lon="19.279665">
<ele>770.352051</ele>
<time>2012-04-29T10:11:50Z</time>
<desc>lat.=43.161312, lon.=19.279665, Alt.=770.352051m. Speed=3.132000m/h.</desc>
<speed>0.870000</speed>
</trkpt>
<trkpt lat="43.161346" lon="19.279633">
<ele>771.727051</ele>
<time>2012-04-29T10:11:55Z</time>
<desc>lat.=43.161346, lon.=19.279633, Alt.=771.727051m. Speed=3.240000m/h.</desc>
<speed>0.900000</speed>
</trkpt>
<trkpt lat="43.161377" lon="19.279617">
<ele>773.570801</ele>
<time>2012-04-29T10:12:00Z</time>
<desc>lat.=43.161377, lon.=19.279617, Alt.=773.570801m. Speed=1.872000m/h.</desc>
<speed>0.520000</speed>
</trkpt>
<trkpt lat="43.161449" lon="19.279545">
<ele>776.258301</ele>
<time>2012-04-29T10:12:05Z</time>
<desc>lat.=43.161449, lon.=19.279545, Alt.=776.258301m. Speed=3.528000m/h.</desc>
<speed>0.980000</speed>
</trkpt>
<trkpt lat="43.161491" lon="19.279514">
<ele>778.539551</ele>
<time>2012-04-29T10:12:10Z</time>
<desc>lat.=43.161491, lon.=19.279514, Alt.=778.539551m. Speed=3.852000m/h.</desc>
<speed>1.070000</speed>
</trkpt>
<trkpt lat="43.161549" lon="19.279436">
<ele>779.289551</ele>
<time>2012-04-29T10:12:15Z</time>
<desc>lat.=43.161549, lon.=19.279436, Alt.=779.289551m. Speed=2.880000m/h.</desc>
<speed>0.800000</speed>
</trkpt>
<trkpt lat="43.161575" lon="19.279421">
<ele>779.711426</ele>
<time>2012-04-29T10:12:20Z</time>
<desc>lat.=43.161575, lon.=19.279421, Alt.=779.711426m. Speed=2.376000m/h.</desc>
<speed>0.660000</speed>
</trkpt>
<trkpt lat="43.161606" lon="19.279404">
<ele>779.336426</ele>
<time>2012-04-29T10:12:25Z</time>
<desc>lat.=43.161606, lon.=19.279404, Alt.=779.336426m. Speed=1.116000m/h.</desc>
<speed>0.310000</speed>
</trkpt>
<trkpt lat="43.161598" lon="19.279413">
<ele>779.461426</ele>
<time>2012-04-29T10:12:30Z</time>
<desc>lat.=43.161598, lon.=19.279413, Alt.=779.461426m. Speed=0.468000m/h.</desc>
<speed>0.130000</speed>
</trkpt>
<trkpt lat="43.161591" lon="19.279419">
<ele>779.602051</ele>
<time>2012-04-29T10:12:35Z</time>
<desc>lat.=43.161591, lon.=19.279419, Alt.=779.602051m. Speed=0.396000m/h.</desc>
<speed>0.110000</speed>
</trkpt>
<trkpt lat="43.161587" lon="19.279421">
<ele>779.680176</ele>
<time>2012-04-29T10:12:40Z</time>
<desc>lat.=43.161587, lon.=19.279421, Alt.=779.680176m. Speed=0.504000m/h.</desc>
<speed>0.140000</speed>
</trkpt>
<trkpt lat="43.161583" lon="19.279419">
<ele>779.664551</ele>
<time>2012-04-29T10:12:45Z</time>
<desc>lat.=43.161583, lon.=19.279419, Alt.=779.664551m. Speed=0.180000m/h.</desc>
<speed>0.050000</speed>
</trkpt>
<trkpt lat="43.161583" lon="19.279423">
<ele>779.695801</ele>
<time>2012-04-29T10:12:50Z</time>
<desc>lat.=43.161583, lon.=19.279423, Alt.=779.695801m. Speed=0.144000m/h.</desc>
<speed>0.040000</speed>
</trkpt>
<trkpt lat="43.161583" lon="19.279425">
<ele>779.742676</ele>
<time>2012-04-29T10:12:55Z</time>
<desc>lat.=43.161583, lon.=19.279425, Alt.=779.742676m. Speed=0.144000m/h.</desc>
<speed>0.040000</speed>
</trkpt>
<trkpt lat="43.161579" lon="19.279427">
<ele>779.820801</ele>
<time>2012-04-29T10:13:00Z</time>
<desc>lat.=43.161579, lon.=19.279427, Alt.=779.820801m. Speed=0.432000m/h.</desc>
<speed>0.120000</speed>
</trkpt>
<trkpt lat="43.161613" lon="19.279413">
<ele>780.023926</ele>
<time>2012-04-29T10:13:05Z</time>
<desc>lat.=43.161613, lon.=19.279413, Alt.=780.023926m. Speed=2.160000m/h.</desc>
<speed>0.600000</speed>
</trkpt>
<trkpt lat="43.161636" lon="19.279415">
<ele>780.195801</ele>
<time>2012-04-29T10:13:10Z</time>
<desc>lat.=43.161636, lon.=19.279415, Alt.=780.195801m. Speed=0.540000m/h.</desc>
<speed>0.150000</speed>
</trkpt>
<trkpt lat="43.161640" lon="19.279411">
<ele>780.164551</ele>
<time>2012-04-29T10:13:15Z</time>
<desc>lat.=43.161640, lon.=19.279411, Alt.=780.164551m. Speed=0.648000m/h.</desc>
<speed>0.180000</speed>
</trkpt>
<trkpt lat="43.161640" lon="19.279413">
<ele>780.102051</ele>
<time>2012-04-29T10:13:20Z</time>
<desc>lat.=43.161640, lon.=19.279413, Alt.=780.102051m. Speed=0.324000m/h.</desc>
<speed>0.090000</speed>
</trkpt>
<trkpt lat="43.161644" lon="19.279411">
<ele>780.086426</ele>
<time>2012-04-29T10:13:25Z</time>
<desc>lat.=43.161644, lon.=19.279411, Alt.=780.086426m. Speed=0.144000m/h.</desc>
<speed>0.040000</speed>
</trkpt>
<trkpt lat="43.161648" lon="19.279409">
<ele>780.039551</ele>
<time>2012-04-29T10:13:30Z</time>
<desc>lat.=43.161648, lon.=19.279409, Alt.=780.039551m. Speed=0.180000m/h.</desc>
<speed>0.050000</speed>
</trkpt>
<trkpt lat="43.161648" lon="19.279408">
<ele>779.961426</ele>
<time>2012-04-29T10:13:35Z</time>
<desc>lat.=43.161648, lon.=19.279408, Alt.=779.961426m. Speed=0.360000m/h.</desc>
<speed>0.100000</speed>
</trkpt>
<trkpt lat="43.161652" lon="19.279406">
<ele>779.883301</ele>
<time>2012-04-29T10:13:40Z</time>
<desc>lat.=43.161652, lon.=19.279406, Alt.=779.883301m. Speed=0.036000m/h.</desc>
<speed>0.010000</speed>
</trkpt>
<trkpt lat="43.161652" lon="19.279406">
<ele>779.773926</ele>
<time>2012-04-29T10:13:45Z</time>
<desc>lat.=43.161652, lon.=19.279406, Alt.=779.773926m. Speed=0.180000m/h.</desc>
<speed>0.050000</speed>
</trkpt>
<trkpt lat="43.161652" lon="19.279408">
<ele>779.695801</ele>
<time>2012-04-29T10:13:50Z</time>
<desc>lat.=43.161652, lon.=19.279408, Alt.=779.695801m. Speed=0.072000m/h.</desc>
<speed>0.020000</speed>
</trkpt>
<trkpt lat="43.161652" lon="19.279408">
<ele>779.695801</ele>
<time>2012-04-29T10:13:55Z</time>
<desc>lat.=43.161652, lon.=19.279408, Alt.=779.695801m. Speed=0.072000m/h.</desc>
<speed>0.020000</speed>
</trkpt>
<trkpt lat="43.161652" lon="19.279408">
<ele>779.695801</ele>
<time>2012-04-29T10:14:00Z</time>
<desc>lat.=43.161652, lon.=19.279408, Alt.=779.695801m. Speed=0.036000m/h.</desc>
<speed>0.010000</speed>
</trkpt>
<trkpt lat="43.161652" lon="19.279408">
<ele>779.711426</ele>
<time>2012-04-29T10:14:05Z</time>
<desc>lat.=43.161652, lon.=19.279408, Alt.=779.711426m. Speed=0.144000m/h.</desc>
<speed>0.040000</speed>
</trkpt>
<trkpt lat="43.161648" lon="19.279408">
<ele>779.727051</ele>
<time>2012-04-29T10:14:10Z</time>
<desc>lat.=43.161648, lon.=19.279408, Alt.=779.727051m. Speed=0.072000m/h.</desc>
<speed>0.020000</speed>
</trkpt>
<trkpt lat="43.161648" lon="19.279409">
<ele>779.742676</ele>
<time>2012-04-29T10:14:15Z</time>
<desc>lat.=43.161648, lon.=19.279409, Alt.=779.742676m. Speed=0.036000m/h.</desc>
<speed>0.010000</speed>
</trkpt>
<trkpt lat="43.161648" lon="19.279409">
<ele>779.742676</ele>
<time>2012-04-29T10:14:20Z</time>
<desc>lat.=43.161648, lon.=19.279409, Alt.=779.742676m. Speed=0.036000m/h.</desc>
<speed>0.010000</speed>
</trkpt>
<trkpt lat="43.161648" lon="19.279409">
<ele>779.742676</ele>
<time>2012-04-29T10:14:25Z</time>
<desc>lat.=43.161648, lon.=19.279409, Alt.=779.742676m. Speed=0.036000m/h.</desc>
<speed>0.010000</speed>
</trkpt>
<trkpt lat="43.161648" lon="19.279409">
<ele>779.727051</ele>
<time>2012-04-29T10:14:30Z</time>
<desc>lat.=43.161648, lon.=19.279409, Alt.=779.727051m. Speed=0.036000m/h.</desc>
<speed>0.010000</speed>
</trkpt>
<trkpt lat="43.161648" lon="19.279409">
<ele>779.727051</ele>
<time>2012-04-29T10:14:35Z</time>
<desc>lat.=43.161648, lon.=19.279409, Alt.=779.727051m. Speed=0.036000m/h.</desc>
<speed>0.010000</speed>
</trkpt>
<trkpt lat="43.161648" lon="19.279409">
<ele>779.727051</ele>
<time>2012-04-29T10:14:40Z</time>
<desc>lat.=43.161648, lon.=19.279409, Alt.=779.727051m. Speed=0.000000m/h.</desc>
<speed>0.000000</speed>
</trkpt>
<trkpt lat="43.161648" lon="19.279409">
<ele>779.742676</ele>
<time>2012-04-29T10:14:45Z</time>
<desc>lat.=43.161648, lon.=19.279409, Alt.=779.742676m. Speed=0.036000m/h.</desc>
<speed>0.010000</speed>
</trkpt>
<trkpt lat="43.161648" lon="19.279409">
<ele>779.742676</ele>
<time>2012-04-29T10:14:50Z</time>
<desc>lat.=43.161648, lon.=19.279409, Alt.=779.742676m. Speed=0.000000m/h.</desc>
<speed>0.000000</speed>
</trkpt>
<trkpt lat="43.161648" lon="19.279409">
<ele>779.742676</ele>
<time>2012-04-29T10:14:55Z</time>
<desc>lat.=43.161648, lon.=19.279409, Alt.=779.742676m. Speed=0.000000m/h.</desc>
<speed>0.000000</speed>
</trkpt>
<trkpt lat="43.161648" lon="19.279409">
<ele>779.742676</ele>
<time>2012-04-29T10:15:00Z</time>
<desc>lat.=43.161648, lon.=19.279409, Alt.=779.742676m. Speed=0.036000m/h.</desc>
<speed>0.010000</speed>
</trkpt>
<trkpt lat="43.161648" lon="19.279409">
<ele>779.742676</ele>
<time>2012-04-29T10:15:05Z</time>
<desc>lat.=43.161648, lon.=19.279409, Alt.=779.742676m. Speed=0.000000m/h.</desc>
<speed>0.000000</speed>
</trkpt>
<trkpt lat="43.161652" lon="19.279409">
<ele>779.727051</ele>
<time>2012-04-29T10:15:10Z</time>
<desc>lat.=43.161652, lon.=19.279409, Alt.=779.727051m. Speed=0.072000m/h.</desc>
<speed>0.020000</speed>
</trkpt>
<trkpt lat="43.161652" lon="19.279409">
<ele>779.727051</ele>
<time>2012-04-29T10:15:15Z</time>
<desc>lat.=43.161652, lon.=19.279409, Alt.=779.727051m. Speed=0.108000m/h.</desc>
<speed>0.030000</speed>
</trkpt>
<trkpt lat="43.161652" lon="19.279409">
<ele>779.711426</ele>
<time>2012-04-29T10:15:20Z</time>
<desc>lat.=43.161652, lon.=19.279409, Alt.=779.711426m. Speed=0.036000m/h.</desc>
<speed>0.010000</speed>
</trkpt>
<trkpt lat="43.161652" lon="19.279409">
<ele>779.695801</ele>
<time>2012-04-29T10:15:25Z</time>
<desc>lat.=43.161652, lon.=19.279409, Alt.=779.695801m. Speed=0.036000m/h.</desc>
<speed>0.010000</speed>
</trkpt>
<trkpt lat="43.161652" lon="19.279409">
<ele>779.695801</ele>
<time>2012-04-29T10:15:30Z</time>
<desc>lat.=43.161652, lon.=19.279409, Alt.=779.695801m. Speed=0.072000m/h.</desc>
<speed>0.020000</speed>
</trkpt>
<trkpt lat="43.161652" lon="19.279409">
<ele>779.727051</ele>
<time>2012-04-29T10:15:35Z</time>
<desc>lat.=43.161652, lon.=19.279409, Alt.=779.727051m. Speed=0.000000m/h.</desc>
<speed>0.000000</speed>
</trkpt>
<trkpt lat="43.161652" lon="19.279409">
<ele>779.727051</ele>
<time>2012-04-29T10:15:40Z</time>
<desc>lat.=43.161652, lon.=19.279409, Alt.=779.727051m. Speed=0.036000m/h.</desc>
<speed>0.010000</speed>
</trkpt>
<trkpt lat="43.161652" lon="19.279409">
<ele>779.711426</ele>
<time>2012-04-29T10:15:45Z</time>
<desc>lat.=43.161652, lon.=19.279409, Alt.=779.711426m. Speed=0.072000m/h.</desc>
<speed>0.020000</speed>
</trkpt>
<trkpt lat="43.161652" lon="19.279409">
<ele>779.727051</ele>
<time>2012-04-29T10:15:50Z</time>
<desc>lat.=43.161652, lon.=19.279409, Alt.=779.727051m. Speed=0.036000m/h.</desc>
<speed>0.010000</speed>
</trkpt>
<trkpt lat="43.161652" lon="19.279408">
<ele>779.695801</ele>
<time>2012-04-29T10:15:55Z</time>
<desc>lat.=43.161652, lon.=19.279408, Alt.=779.695801m. Speed=0.000000m/h.</desc>
<speed>0.000000</speed>
</trkpt>
<trkpt lat="43.161652" lon="19.279408">
<ele>779.695801</ele>
<time>2012-04-29T10:16:00Z</time>
<desc>lat.=43.161652, lon.=19.279408, Alt.=779.695801m. Speed=0.000000m/h.</desc>
<speed>0.000000</speed>
</trkpt>
<trkpt lat="43.161652" lon="19.279409">
<ele>779.711426</ele>
<time>2012-04-29T10:16:05Z</time>
<desc>lat.=43.161652, lon.=19.279409, Alt.=779.711426m. Speed=0.072000m/h.</desc>
<speed>0.020000</speed>
</trkpt>
<trkpt lat="43.161652" lon="19.279409">
<ele>779.695801</ele>
<time>2012-04-29T10:16:10Z</time>
<desc>lat.=43.161652, lon.=19.279409, Alt.=779.695801m. Speed=0.000000m/h.</desc>
<speed>0.000000</speed>
</trkpt>
<trkpt lat="43.161652" lon="19.279409">
<ele>779.711426</ele>
<time>2012-04-29T10:16:15Z</time>
<desc>lat.=43.161652, lon.=19.279409, Alt.=779.711426m. Speed=0.000000m/h.</desc>
<speed>0.000000</speed>
</trkpt>
<trkpt lat="43.161652" lon="19.279409">
<ele>779.727051</ele>
<time>2012-04-29T10:16:20Z</time>
<desc>lat.=43.161652, lon.=19.279409, Alt.=779.727051m. Speed=0.036000m/h.</desc>
<speed>0.010000</speed>
</trkpt>
<trkpt lat="43.161652" lon="19.279409">
<ele>779.742676</ele>
<time>2012-04-29T10:16:25Z</time>
<desc>lat.=43.161652, lon.=19.279409, Alt.=779.742676m. Speed=0.036000m/h.</desc>
<speed>0.010000</speed>
</trkpt>
<trkpt lat="43.161652" lon="19.279408">
<ele>779.727051</ele>
<time>2012-04-29T10:16:30Z</time>
<desc>lat.=43.161652, lon.=19.279408, Alt.=779.727051m. Speed=0.144000m/h.</desc>
<speed>0.040000</speed>
</trkpt>
<trkpt lat="43.161652" lon="19.279408">
<ele>779.727051</ele>
<time>2012-04-29T10:16:35Z</time>
<desc>lat.=43.161652, lon.=19.279408, Alt.=779.727051m. Speed=0.108000m/h.</desc>
<speed>0.030000</speed>
</trkpt>
<trkpt lat="43.161652" lon="19.279408">
<ele>779.727051</ele>
<time>2012-04-29T10:16:40Z</time>
<desc>lat.=43.161652, lon.=19.279408, Alt.=779.727051m. Speed=0.000000m/h.</desc>
<speed>0.000000</speed>
</trkpt>
<trkpt lat="43.161652" lon="19.279408">
<ele>779.727051</ele>
<time>2012-04-29T10:16:45Z</time>
<desc>lat.=43.161652, lon.=19.279408, Alt.=779.727051m. Speed=0.144000m/h.</desc>
<speed>0.040000</speed>
</trkpt>
<trkpt lat="43.161652" lon="19.279406">
<ele>779.758301</ele>
<time>2012-04-29T10:16:50Z</time>
<desc>lat.=43.161652, lon.=19.279406, Alt.=779.758301m. Speed=0.000000m/h.</desc>
<speed>0.000000</speed>
</trkpt>
<trkpt lat="43.161655" lon="19.279406">
<ele>779.758301</ele>
<time>2012-04-29T10:16:55Z</time>
<desc>lat.=43.161655, lon.=19.279406, Alt.=779.758301m. Speed=0.216000m/h.</desc>
<speed>0.060000</speed>
</trkpt>
<trkpt lat="43.161655" lon="19.279406">
<ele>779.758301</ele>
<time>2012-04-29T10:17:00Z</time>
<desc>lat.=43.161655, lon.=19.279406, Alt.=779.758301m. Speed=0.036000m/h.</desc>
<speed>0.010000</speed>
</trkpt>
<trkpt lat="43.161671" lon="19.279387">
<ele>779.492676</ele>
<time>2012-04-29T10:17:05Z</time>
<desc>lat.=43.161671, lon.=19.279387, Alt.=779.492676m. Speed=3.492000m/h.</desc>
<speed>0.970000</speed>
</trkpt>
<trkpt lat="43.161762" lon="19.279364">
<ele>781.680176</ele>
<time>2012-04-29T10:17:10Z</time>
<desc>lat.=43.161762, lon.=19.279364, Alt.=781.680176m. Speed=6.516000m/h.</desc>
<speed>1.810000</speed>
</trkpt>
<trkpt lat="43.161816" lon="19.279362">
<ele>783.305176</ele>
<time>2012-04-29T10:17:15Z</time>
<desc>lat.=43.161816, lon.=19.279362, Alt.=783.305176m. Speed=3.384000m/h.</desc>
<speed>0.940000</speed>
</trkpt>
<trkpt lat="43.161880" lon="19.279354">
<ele>783.398926</ele>
<time>2012-04-29T10:17:20Z</time>
<desc>lat.=43.161880, lon.=19.279354, Alt.=783.398926m. Speed=4.932000m/h.</desc>
<speed>1.370000</speed>
</trkpt>
<trkpt lat="43.161938" lon="19.279348">
<ele>783.289551</ele>
<time>2012-04-29T10:17:25Z</time>
<desc>lat.=43.161938, lon.=19.279348, Alt.=783.289551m. Speed=3.600000m/h.</desc>
<speed>1.000000</speed>
</trkpt>
<trkpt lat="43.161949" lon="19.279419">
<ele>784.008301</ele>
<time>2012-04-29T10:17:30Z</time>
<desc>lat.=43.161949, lon.=19.279419, Alt.=784.008301m. Speed=5.148000m/h.</desc>
<speed>1.430000</speed>
</trkpt>
<trkpt lat="43.161983" lon="19.279493">
<ele>784.492676</ele>
<time>2012-04-29T10:17:35Z</time>
<desc>lat.=43.161983, lon.=19.279493, Alt.=784.492676m. Speed=4.464000m/h.</desc>
<speed>1.240000</speed>
</trkpt>
<trkpt lat="43.162033" lon="19.279537">
<ele>785.477051</ele>
<time>2012-04-29T10:17:40Z</time>
<desc>lat.=43.162033, lon.=19.279537, Alt.=785.477051m. Speed=4.824000m/h.</desc>
<speed>1.340000</speed>
</trkpt>
<trkpt lat="43.162079" lon="19.279594">
<ele>786.398926</ele>
<time>2012-04-29T10:17:45Z</time>
<desc>lat.=43.162079, lon.=19.279594, Alt.=786.398926m. Speed=4.932000m/h.</desc>
<speed>1.370000</speed>
</trkpt>
<trkpt lat="43.162113" lon="19.279654">
<ele>787.414551</ele>
<time>2012-04-29T10:17:50Z</time>
<desc>lat.=43.162113, lon.=19.279654, Alt.=787.414551m. Speed=2.664000m/h.</desc>
<speed>0.740000</speed>
</trkpt>
<trkpt lat="43.162144" lon="19.279724">
<ele>788.195801</ele>
<time>2012-04-29T10:17:55Z</time>
<desc>lat.=43.162144, lon.=19.279724, Alt.=788.195801m. Speed=5.364000m/h.</desc>
<speed>1.490000</speed>
</trkpt>
<trkpt lat="43.162189" lon="19.279779">
<ele>789.773926</ele>
<time>2012-04-29T10:18:00Z</time>
<desc>lat.=43.162189, lon.=19.279779, Alt.=789.773926m. Speed=4.644000m/h.</desc>
<speed>1.290000</speed>
</trkpt>
<trkpt lat="43.162243" lon="19.279823">
<ele>790.680176</ele>
<time>2012-04-29T10:18:05Z</time>
<desc>lat.=43.162243, lon.=19.279823, Alt.=790.680176m. Speed=4.608000m/h.</desc>
<speed>1.280000</speed>
</trkpt>
<trkpt lat="43.162273" lon="19.279877">
<ele>792.180176</ele>
<time>2012-04-29T10:18:10Z</time>
<desc>lat.=43.162273, lon.=19.279877, Alt.=792.180176m. Speed=4.356000m/h.</desc>
<speed>1.210000</speed>
</trkpt>
<trkpt lat="43.162304" lon="19.279951">
<ele>793.070801</ele>
<time>2012-04-29T10:18:15Z</time>
<desc>lat.=43.162304, lon.=19.279951, Alt.=793.070801m. Speed=5.580000m/h.</desc>
<speed>1.550000</speed>
</trkpt>
<trkpt lat="43.162334" lon="19.280043">
<ele>794.086426</ele>
<time>2012-04-29T10:18:20Z</time>
<desc>lat.=43.162334, lon.=19.280043, Alt.=794.086426m. Speed=4.968000m/h.</desc>
<speed>1.380000</speed>
</trkpt>
<trkpt lat="43.162380" lon="19.280079">
<ele>795.945801</ele>
<time>2012-04-29T10:18:25Z</time>
<desc>lat.=43.162380, lon.=19.280079, Alt.=795.945801m. Speed=4.176000m/h.</desc>
<speed>1.160000</speed>
</trkpt>
<trkpt lat="43.162411" lon="19.280079">
<ele>797.273926</ele>
<time>2012-04-29T10:18:30Z</time>
<desc>lat.=43.162411, lon.=19.280079, Alt.=797.273926m. Speed=0.864000m/h.</desc>
<speed>0.240000</speed>
</trkpt>
<trkpt lat="43.162449" lon="19.280094">
<ele>796.711426</ele>
<time>2012-04-29T10:18:35Z</time>
<desc>lat.=43.162449, lon.=19.280094, Alt.=796.711426m. Speed=2.952000m/h.</desc>
<speed>0.820000</speed>
</trkpt>
<trkpt lat="43.162491" lon="19.280111">
<ele>796.305176</ele>
<time>2012-04-29T10:18:40Z</time>
<desc>lat.=43.162491, lon.=19.280111, Alt.=796.305176m. Speed=2.772000m/h.</desc>
<speed>0.770000</speed>
</trkpt>
<trkpt lat="43.162498" lon="19.280117">
<ele>795.555176</ele>
<time>2012-04-29T10:18:45Z</time>
<desc>lat.=43.162498, lon.=19.280117, Alt.=795.555176m. Speed=0.108000m/h.</desc>
<speed>0.030000</speed>
</trkpt>
<trkpt lat="43.162498" lon="19.280119">
<ele>795.492676</ele>
<time>2012-04-29T10:18:50Z</time>
<desc>lat.=43.162498, lon.=19.280119, Alt.=795.492676m. Speed=0.000000m/h.</desc>
<speed>0.000000</speed>
</trkpt>
<trkpt lat="43.162498" lon="19.280119">
<ele>795.477051</ele>
<time>2012-04-29T10:18:55Z</time>
<desc>lat.=43.162498, lon.=19.280119, Alt.=795.477051m. Speed=0.000000m/h.</desc>
<speed>0.000000</speed>
</trkpt>
<trkpt lat="43.162502" lon="19.280121">
<ele>795.680176</ele>
<time>2012-04-29T10:19:00Z</time>
<desc>lat.=43.162502, lon.=19.280121, Alt.=795.680176m. Speed=2.772000m/h.</desc>
<speed>0.770000</speed>
</trkpt>
<trkpt lat="43.162540" lon="19.280142">
<ele>796.961426</ele>
<time>2012-04-29T10:19:05Z</time>
<desc>lat.=43.162540, lon.=19.280142, Alt.=796.961426m. Speed=2.880000m/h.</desc>
<speed>0.800000</speed>
</trkpt>
<trkpt lat="43.162579" lon="19.280167">
<ele>798.023926</ele>
<time>2012-04-29T10:19:10Z</time>
<desc>lat.=43.162579, lon.=19.280167, Alt.=798.023926m. Speed=3.240000m/h.</desc>
<speed>0.900000</speed>
</trkpt>
<trkpt lat="43.162609" lon="19.280216">
<ele>798.820801</ele>
<time>2012-04-29T10:19:15Z</time>
<desc>lat.=43.162609, lon.=19.280216, Alt.=798.820801m. Speed=3.924000m/h.</desc>
<speed>1.090000</speed>
</trkpt>
<trkpt lat="43.162632" lon="19.280281">
<ele>799.461426</ele>
<time>2012-04-29T10:19:20Z</time>
<desc>lat.=43.162632, lon.=19.280281, Alt.=799.461426m. Speed=4.500000m/h.</desc>
<speed>1.250000</speed>
</trkpt>
<trkpt lat="43.162651" lon="19.280327">
<ele>800.664551</ele>
<time>2012-04-29T10:19:25Z</time>
<desc>lat.=43.162651, lon.=19.280327, Alt.=800.664551m. Speed=3.168000m/h.</desc>
<speed>0.880000</speed>
</trkpt>
<trkpt lat="43.162663" lon="19.280344">
<ele>801.023926</ele>
<time>2012-04-29T10:19:30Z</time>
<desc>lat.=43.162663, lon.=19.280344, Alt.=801.023926m. Speed=0.576000m/h.</desc>
<speed>0.160000</speed>
</trkpt>
<trkpt lat="43.162670" lon="19.280367">
<ele>801.242676</ele>
<time>2012-04-29T10:19:35Z</time>
<desc>lat.=43.162670, lon.=19.280367, Alt.=801.242676m. Speed=1.080000m/h.</desc>
<speed>0.300000</speed>
</trkpt>
<trkpt lat="43.162666" lon="19.280369">
<ele>800.680176</ele>
<time>2012-04-29T10:19:40Z</time>
<desc>lat.=43.162666, lon.=19.280369, Alt.=800.680176m. Speed=0.000000m/h.</desc>
<speed>0.000000</speed>
</trkpt>
<trkpt lat="43.162666" lon="19.280367">
<ele>800.680176</ele>
<time>2012-04-29T10:19:45Z</time>
<desc>lat.=43.162666, lon.=19.280367, Alt.=800.680176m. Speed=0.000000m/h.</desc>
<speed>0.000000</speed>
</trkpt>
<trkpt lat="43.162666" lon="19.280367">
<ele>800.711426</ele>
<time>2012-04-29T10:19:50Z</time>
<desc>lat.=43.162666, lon.=19.280367, Alt.=800.711426m. Speed=0.000000m/h.</desc>
<speed>0.000000</speed>
</trkpt>
<trkpt lat="43.162666" lon="19.280373">
<ele>800.727051</ele>
<time>2012-04-29T10:19:55Z</time>
<desc>lat.=43.162666, lon.=19.280373, Alt.=800.727051m. Speed=0.756000m/h.</desc>
<speed>0.210000</speed>
</trkpt>
<trkpt lat="43.162670" lon="19.280405">
<ele>801.055176</ele>
<time>2012-04-29T10:20:00Z</time>
<desc>lat.=43.162670, lon.=19.280405, Alt.=801.055176m. Speed=3.420000m/h.</desc>
<speed>0.950000</speed>
</trkpt>
<trkpt lat="43.162666" lon="19.280388">
<ele>800.602051</ele>
<time>2012-04-29T10:20:05Z</time>
<desc>lat.=43.162666, lon.=19.280388, Alt.=800.602051m. Speed=0.108000m/h.</desc>
<speed>0.030000</speed>
</trkpt>
<trkpt lat="43.162663" lon="19.280386">
<ele>800.680176</ele>
<time>2012-04-29T10:20:10Z</time>
<desc>lat.=43.162663, lon.=19.280386, Alt.=800.680176m. Speed=0.180000m/h.</desc>
<speed>0.050000</speed>
</trkpt>
<trkpt lat="43.162663" lon="19.280386">
<ele>800.648926</ele>
<time>2012-04-29T10:20:15Z</time>
<desc>lat.=43.162663, lon.=19.280386, Alt.=800.648926m. Speed=0.216000m/h.</desc>
<speed>0.060000</speed>
</trkpt>
<trkpt lat="43.162663" lon="19.280386">
<ele>800.648926</ele>
<time>2012-04-29T10:20:20Z</time>
<desc>lat.=43.162663, lon.=19.280386, Alt.=800.648926m. Speed=0.000000m/h.</desc>
<speed>0.000000</speed>
</trkpt>
<trkpt lat="43.162663" lon="19.280386">
<ele>800.680176</ele>
<time>2012-04-29T10:20:25Z</time>
<desc>lat.=43.162663, lon.=19.280386, Alt.=800.680176m. Speed=0.036000m/h.</desc>
<speed>0.010000</speed>
</trkpt>
<trkpt lat="43.162663" lon="19.280386">
<ele>800.695801</ele>
<time>2012-04-29T10:20:30Z</time>
<desc>lat.=43.162663, lon.=19.280386, Alt.=800.695801m. Speed=0.036000m/h.</desc>
<speed>0.010000</speed>
</trkpt>
<trkpt lat="43.162663" lon="19.280386">
<ele>800.695801</ele>
<time>2012-04-29T10:20:35Z</time>
<desc>lat.=43.162663, lon.=19.280386, Alt.=800.695801m. Speed=0.000000m/h.</desc>
<speed>0.000000</speed>
</trkpt>
<trkpt lat="43.162663" lon="19.280386">
<ele>800.695801</ele>
<time>2012-04-29T10:20:40Z</time>
<desc>lat.=43.162663, lon.=19.280386, Alt.=800.695801m. Speed=0.000000m/h.</desc>
<speed>0.000000</speed>
</trkpt>
<trkpt lat="43.162678" lon="19.280386">
<ele>800.555176</ele>
<time>2012-04-29T10:20:45Z</time>
<desc>lat.=43.162678, lon.=19.280386, Alt.=800.555176m. Speed=0.756000m/h.</desc>
<speed>0.210000</speed>
</trkpt>
<trkpt lat="43.162685" lon="19.280392">
<ele>800.305176</ele>
<time>2012-04-29T10:20:50Z</time>
<desc>lat.=43.162685, lon.=19.280392, Alt.=800.305176m. Speed=0.036000m/h.</desc>
<speed>0.010000</speed>
</trkpt>
<trkpt lat="43.162682" lon="19.280407">
<ele>800.320801</ele>
<time>2012-04-29T10:20:55Z</time>
<desc>lat.=43.162682, lon.=19.280407, Alt.=800.320801m. Speed=0.396000m/h.</desc>
<speed>0.110000</speed>
</trkpt>
<trkpt lat="43.162678" lon="19.280422">
<ele>800.117676</ele>
<time>2012-04-29T10:21:00Z</time>
<desc>lat.=43.162678, lon.=19.280422, Alt.=800.117676m. Speed=0.432000m/h.</desc>
<speed>0.120000</speed>
</trkpt>
<trkpt lat="43.162674" lon="19.280428">
<ele>801.414551</ele>
<time>2012-04-29T10:21:05Z</time>
<desc>lat.=43.162674, lon.=19.280428, Alt.=801.414551m. Speed=0.288000m/h.</desc>
<speed>0.080000</speed>
</trkpt>
<trkpt lat="43.162678" lon="19.280424">
<ele>801.727051</ele>
<time>2012-04-29T10:21:10Z</time>
<desc>lat.=43.162678, lon.=19.280424, Alt.=801.727051m. Speed=0.144000m/h.</desc>
<speed>0.040000</speed>
</trkpt>
<trkpt lat="43.162674" lon="19.280437">
<ele>801.883301</ele>
<time>2012-04-29T10:21:15Z</time>
<desc>lat.=43.162674, lon.=19.280437, Alt.=801.883301m. Speed=0.072000m/h.</desc>
<speed>0.020000</speed>
</trkpt>
<trkpt lat="43.162674" lon="19.280439">
<ele>802.008301</ele>
<time>2012-04-29T10:21:20Z</time>
<desc>lat.=43.162674, lon.=19.280439, Alt.=802.008301m. Speed=1.512000m/h.</desc>
<speed>0.420000</speed>
</trkpt>
<trkpt lat="43.162666" lon="19.280483">
<ele>802.148926</ele>
<time>2012-04-29T10:21:25Z</time>
<desc>lat.=43.162666, lon.=19.280483, Alt.=802.148926m. Speed=5.760000m/h.</desc>
<speed>1.600000</speed>
</trkpt>
<trkpt lat="43.162659" lon="19.280512">
<ele>802.336426</ele>
<time>2012-04-29T10:21:30Z</time>
<desc>lat.=43.162659, lon.=19.280512, Alt.=802.336426m. Speed=0.720000m/h.</desc>
<speed>0.200000</speed>
</trkpt>
<trkpt lat="43.162663" lon="19.280512">
<ele>802.430176</ele>
<time>2012-04-29T10:21:35Z</time>
<desc>lat.=43.162663, lon.=19.280512, Alt.=802.430176m. Speed=0.180000m/h.</desc>
<speed>0.050000</speed>
</trkpt>
<trkpt lat="43.162670" lon="19.280510">
<ele>802.461426</ele>
<time>2012-04-29T10:21:40Z</time>
<desc>lat.=43.162670, lon.=19.280510, Alt.=802.461426m. Speed=0.648000m/h.</desc>
<speed>0.180000</speed>
</trkpt>
<trkpt lat="43.162678" lon="19.280506">
<ele>802.445801</ele>
<time>2012-04-29T10:21:45Z</time>
<desc>lat.=43.162678, lon.=19.280506, Alt.=802.445801m. Speed=0.756000m/h.</desc>
<speed>0.210000</speed>
</trkpt>
<trkpt lat="43.162682" lon="19.280512">
<ele>802.305176</ele>
<time>2012-04-29T10:21:50Z</time>
<desc>lat.=43.162682, lon.=19.280512, Alt.=802.305176m. Speed=0.756000m/h.</desc>
<speed>0.210000</speed>
</trkpt>
<trkpt lat="43.162678" lon="19.280518">
<ele>802.258301</ele>
<time>2012-04-29T10:21:55Z</time>
<desc>lat.=43.162678, lon.=19.280518, Alt.=802.258301m. Speed=0.252000m/h.</desc>
<speed>0.070000</speed>
</trkpt>
<trkpt lat="43.162685" lon="19.280540">
<ele>802.320801</ele>
<time>2012-04-29T10:22:00Z</time>
<desc>lat.=43.162685, lon.=19.280540, Alt.=802.320801m. Speed=2.772000m/h.</desc>
<speed>0.770000</speed>
</trkpt>
<trkpt lat="43.162693" lon="19.280561">
<ele>802.336426</ele>
<time>2012-04-29T10:22:05Z</time>
<desc>lat.=43.162693, lon.=19.280561, Alt.=802.336426m. Speed=1.404000m/h.</desc>
<speed>0.390000</speed>
</trkpt>
<trkpt lat="43.162678" lon="19.280636">
<ele>801.914551</ele>
<time>2012-04-29T10:22:10Z</time>
<desc>lat.=43.162678, lon.=19.280636, Alt.=801.914551m. Speed=2.808000m/h.</desc>
<speed>0.780000</speed>
</trkpt>
<trkpt lat="43.162697" lon="19.280659">
<ele>802.555176</ele>
<time>2012-04-29T10:22:15Z</time>
<desc>lat.=43.162697, lon.=19.280659, Alt.=802.555176m. Speed=2.268000m/h.</desc>
<speed>0.630000</speed>
</trkpt>
<trkpt lat="43.162739" lon="19.280678">
<ele>803.086426</ele>
<time>2012-04-29T10:22:20Z</time>
<desc>lat.=43.162739, lon.=19.280678, Alt.=803.086426m. Speed=3.528000m/h.</desc>
<speed>0.980000</speed>
</trkpt>
<trkpt lat="43.162773" lon="19.280746">
<ele>803.914551</ele>
<time>2012-04-29T10:22:25Z</time>
<desc>lat.=43.162773, lon.=19.280746, Alt.=803.914551m. Speed=4.284000m/h.</desc>
<speed>1.190000</speed>
</trkpt>
<trkpt lat="43.162827" lon="19.280766">
<ele>804.773926</ele>
<time>2012-04-29T10:22:30Z</time>
<desc>lat.=43.162827, lon.=19.280766, Alt.=804.773926m. Speed=5.832000m/h.</desc>
<speed>1.620000</speed>
</trkpt>
<trkpt lat="43.162888" lon="19.280764">
<ele>804.258301</ele>
<time>2012-04-29T10:22:35Z</time>
<desc>lat.=43.162888, lon.=19.280764, Alt.=804.258301m. Speed=4.284000m/h.</desc>
<speed>1.190000</speed>
</trkpt>
<trkpt lat="43.162918" lon="19.280809">
<ele>803.961426</ele>
<time>2012-04-29T10:22:40Z</time>
<desc>lat.=43.162918, lon.=19.280809, Alt.=803.961426m. Speed=1.224000m/h.</desc>
<speed>0.340000</speed>
</trkpt>
<trkpt lat="43.162945" lon="19.280851">
<ele>805.398926</ele>
<time>2012-04-29T10:22:45Z</time>
<desc>lat.=43.162945, lon.=19.280851, Alt.=805.398926m. Speed=3.096000m/h.</desc>
<speed>0.860000</speed>
</trkpt>
<trkpt lat="43.162964" lon="19.280859">
<ele>806.398926</ele>
<time>2012-04-29T10:22:50Z</time>
<desc>lat.=43.162964, lon.=19.280859, Alt.=806.398926m. Speed=2.448000m/h.</desc>
<speed>0.680000</speed>
</trkpt>
<trkpt lat="43.162994" lon="19.280903">
<ele>806.992676</ele>
<time>2012-04-29T10:22:55Z</time>
<desc>lat.=43.162994, lon.=19.280903, Alt.=806.992676m. Speed=4.248000m/h.</desc>
<speed>1.180000</speed>
</trkpt>
<trkpt lat="43.163021" lon="19.280952">
<ele>807.805176</ele>
<time>2012-04-29T10:23:00Z</time>
<desc>lat.=43.163021, lon.=19.280952, Alt.=807.805176m. Speed=3.852000m/h.</desc>
<speed>1.070000</speed>
</trkpt>
<trkpt lat="43.163040" lon="19.280977">
<ele>808.430176</ele>
<time>2012-04-29T10:23:05Z</time>
<desc>lat.=43.163040, lon.=19.280977, Alt.=808.430176m. Speed=0.252000m/h.</desc>
<speed>0.070000</speed>
</trkpt>
<trkpt lat="43.163048" lon="19.281002">
<ele>808.586426</ele>
<time>2012-04-29T10:23:10Z</time>
<desc>lat.=43.163048, lon.=19.281002, Alt.=808.586426m. Speed=1.332000m/h.</desc>
<speed>0.370000</speed>
</trkpt>
<trkpt lat="43.163071" lon="19.281017">
<ele>808.758301</ele>
<time>2012-04-29T10:23:15Z</time>
<desc>lat.=43.163071, lon.=19.281017, Alt.=808.758301m. Speed=1.764000m/h.</desc>
<speed>0.490000</speed>
</trkpt>
<trkpt lat="43.163086" lon="19.281034">
<ele>808.930176</ele>
<time>2012-04-29T10:23:20Z</time>
<desc>lat.=43.163086, lon.=19.281034, Alt.=808.930176m. Speed=2.088000m/h.</desc>
<speed>0.580000</speed>
</trkpt>
<trkpt lat="43.163094" lon="19.281019">
<ele>808.789551</ele>
<time>2012-04-29T10:23:25Z</time>
<desc>lat.=43.163094, lon.=19.281019, Alt.=808.789551m. Speed=0.756000m/h.</desc>
<speed>0.210000</speed>
</trkpt>
<trkpt lat="43.163101" lon="19.281025">
<ele>808.789551</ele>
<time>2012-04-29T10:23:30Z</time>
<desc>lat.=43.163101, lon.=19.281025, Alt.=808.789551m. Speed=0.288000m/h.</desc>
<speed>0.080000</speed>
</trkpt>
<trkpt lat="43.163101" lon="19.281046">
<ele>808.820801</ele>
<time>2012-04-29T10:23:35Z</time>
<desc>lat.=43.163101, lon.=19.281046, Alt.=808.820801m. Speed=0.936000m/h.</desc>
<speed>0.260000</speed>
</trkpt>
<trkpt lat="43.163101" lon="19.281052">
<ele>808.883301</ele>
<time>2012-04-29T10:23:40Z</time>
<desc>lat.=43.163101, lon.=19.281052, Alt.=808.883301m. Speed=0.432000m/h.</desc>
<speed>0.120000</speed>
</trkpt>
<trkpt lat="43.163109" lon="19.281048">
<ele>808.945801</ele>
<time>2012-04-29T10:23:45Z</time>
<desc>lat.=43.163109, lon.=19.281048, Alt.=808.945801m. Speed=2.340000m/h.</desc>
<speed>0.650000</speed>
</trkpt>
<trkpt lat="43.163132" lon="19.281021">
<ele>809.398926</ele>
<time>2012-04-29T10:23:50Z</time>
<desc>lat.=43.163132, lon.=19.281021, Alt.=809.398926m. Speed=1.188000m/h.</desc>
<speed>0.330000</speed>
</trkpt>
<trkpt lat="43.163132" lon="19.281031">
<ele>809.648926</ele>
<time>2012-04-29T10:23:55Z</time>
<desc>lat.=43.163132, lon.=19.281031, Alt.=809.648926m. Speed=0.792000m/h.</desc>
<speed>0.220000</speed>
</trkpt>
<trkpt lat="43.163139" lon="19.281065">
<ele>810.133301</ele>
<time>2012-04-29T10:24:00Z</time>
<desc>lat.=43.163139, lon.=19.281065, Alt.=810.133301m. Speed=2.412000m/h.</desc>
<speed>0.670000</speed>
</trkpt>
<trkpt lat="43.163139" lon="19.281122">
<ele>810.477051</ele>
<time>2012-04-29T10:24:05Z</time>
<desc>lat.=43.163139, lon.=19.281122, Alt.=810.477051m. Speed=3.204000m/h.</desc>
<speed>0.890000</speed>
</trkpt>
<trkpt lat="43.163139" lon="19.281199">
<ele>810.570801</ele>
<time>2012-04-29T10:24:10Z</time>
<desc>lat.=43.163139, lon.=19.281199, Alt.=810.570801m. Speed=2.520000m/h.</desc>
<speed>0.700000</speed>
</trkpt>
<trkpt lat="43.163174" lon="19.281240">
<ele>811.023926</ele>
<time>2012-04-29T10:24:15Z</time>
<desc>lat.=43.163174, lon.=19.281240, Alt.=811.023926m. Speed=3.708000m/h.</desc>
<speed>1.030000</speed>
</trkpt>
<trkpt lat="43.163235" lon="19.281244">
<ele>811.945801</ele>
<time>2012-04-29T10:24:20Z</time>
<desc>lat.=43.163235, lon.=19.281244, Alt.=811.945801m. Speed=3.924000m/h.</desc>
<speed>1.090000</speed>
</trkpt>
<trkpt lat="43.163273" lon="19.281233">
<ele>814.008301</ele>
<time>2012-04-29T10:24:25Z</time>
<desc>lat.=43.163273, lon.=19.281233, Alt.=814.008301m. Speed=2.700000m/h.</desc>
<speed>0.750000</speed>
</trkpt>
<trkpt lat="43.163307" lon="19.281237">
<ele>817.430176</ele>
<time>2012-04-29T10:24:30Z</time>
<desc>lat.=43.163307, lon.=19.281237, Alt.=817.430176m. Speed=2.160000m/h.</desc>
<speed>0.600000</speed>
</trkpt>
<trkpt lat="43.163334" lon="19.281261">
<ele>817.789551</ele>
<time>2012-04-29T10:24:35Z</time>
<desc>lat.=43.163334, lon.=19.281261, Alt.=817.789551m. Speed=2.340000m/h.</desc>
<speed>0.650000</speed>
</trkpt>
<trkpt lat="43.163361" lon="19.281288">
<ele>817.258301</ele>
<time>2012-04-29T10:24:40Z</time>
<desc>lat.=43.163361, lon.=19.281288, Alt.=817.258301m. Speed=6.948000m/h.</desc>
<speed>1.930000</speed>
</trkpt>
<trkpt lat="43.163399" lon="19.281303">
<ele>815.102051</ele>
<time>2012-04-29T10:24:45Z</time>
<desc>lat.=43.163399, lon.=19.281303, Alt.=815.102051m. Speed=3.996000m/h.</desc>
<speed>1.110000</speed>
</trkpt>
<trkpt lat="43.163425" lon="19.281328">
<ele>813.367676</ele>
<time>2012-04-29T10:24:50Z</time>
<desc>lat.=43.163425, lon.=19.281328, Alt.=813.367676m. Speed=2.808000m/h.</desc>
<speed>0.780000</speed>
</trkpt>
<trkpt lat="43.163422" lon="19.281363">
<ele>812.211426</ele>
<time>2012-04-29T10:24:55Z</time>
<desc>lat.=43.163422, lon.=19.281363, Alt.=812.211426m. Speed=2.988000m/h.</desc>
<speed>0.830000</speed>
</trkpt>
<trkpt lat="43.163448" lon="19.281393">
<ele>810.914551</ele>
<time>2012-04-29T10:25:00Z</time>
<desc>lat.=43.163448, lon.=19.281393, Alt.=810.914551m. Speed=1.332000m/h.</desc>
<speed>0.370000</speed>
</trkpt>
<trkpt lat="43.163433" lon="19.281403">
<ele>810.914551</ele>
<time>2012-04-29T10:25:05Z</time>
<desc>lat.=43.163433, lon.=19.281403, Alt.=810.914551m. Speed=0.684000m/h.</desc>
<speed>0.190000</speed>
</trkpt>
<trkpt lat="43.163433" lon="19.281406">
<ele>810.977051</ele>
<time>2012-04-29T10:25:10Z</time>
<desc>lat.=43.163433, lon.=19.281406, Alt.=810.977051m. Speed=0.504000m/h.</desc>
<speed>0.140000</speed>
</trkpt>
<trkpt lat="43.163429" lon="19.281414">
<ele>810.836426</ele>
<time>2012-04-29T10:25:15Z</time>
<desc>lat.=43.163429, lon.=19.281414, Alt.=810.836426m. Speed=0.864000m/h.</desc>
<speed>0.240000</speed>
</trkpt>
<trkpt lat="43.163433" lon="19.281416">
<ele>810.633301</ele>
<time>2012-04-29T10:25:20Z</time>
<desc>lat.=43.163433, lon.=19.281416, Alt.=810.633301m. Speed=0.000000m/h.</desc>
<speed>0.000000</speed>
</trkpt>
<trkpt lat="43.163433" lon="19.281416">
<ele>810.602051</ele>
<time>2012-04-29T10:25:25Z</time>
<desc>lat.=43.163433, lon.=19.281416, Alt.=810.602051m. Speed=0.144000m/h.</desc>
<speed>0.040000</speed>
</trkpt>
<trkpt lat="43.163433" lon="19.281414">
<ele>810.695801</ele>
<time>2012-04-29T10:25:30Z</time>
<desc>lat.=43.163433, lon.=19.281414, Alt.=810.695801m. Speed=1.008000m/h.</desc>
<speed>0.280000</speed>
</trkpt>
<trkpt lat="43.163429" lon="19.281422">
<ele>811.039551</ele>
<time>2012-04-29T10:25:35Z</time>
<desc>lat.=43.163429, lon.=19.281422, Alt.=811.039551m. Speed=1.476000m/h.</desc>
<speed>0.410000</speed>
</trkpt>
<trkpt lat="43.163422" lon="19.281464">
<ele>811.633301</ele>
<time>2012-04-29T10:25:40Z</time>
<desc>lat.=43.163422, lon.=19.281464, Alt.=811.633301m. Speed=1.188000m/h.</desc>
<speed>0.330000</speed>
</trkpt>
<trkpt lat="43.163425" lon="19.281462">
<ele>811.898926</ele>
<time>2012-04-29T10:25:45Z</time>
<desc>lat.=43.163425, lon.=19.281462, Alt.=811.898926m. Speed=0.468000m/h.</desc>
<speed>0.130000</speed>
</trkpt>
<trkpt lat="43.163429" lon="19.281473">
<ele>812.195801</ele>
<time>2012-04-29T10:25:50Z</time>
<desc>lat.=43.163429, lon.=19.281473, Alt.=812.195801m. Speed=0.972000m/h.</desc>
<speed>0.270000</speed>
</trkpt>
<trkpt lat="43.163429" lon="19.281490">
<ele>812.305176</ele>
<time>2012-04-29T10:25:55Z</time>
<desc>lat.=43.163429, lon.=19.281490, Alt.=812.305176m. Speed=1.332000m/h.</desc>
<speed>0.370000</speed>
</trkpt>
<trkpt lat="43.163445" lon="19.281500">
<ele>813.836426</ele>
<time>2012-04-29T10:26:00Z</time>
<desc>lat.=43.163445, lon.=19.281500, Alt.=813.836426m. Speed=1.224000m/h.</desc>
<speed>0.340000</speed>
</trkpt>
<trkpt lat="43.163467" lon="19.281527">
<ele>814.508301</ele>
<time>2012-04-29T10:26:05Z</time>
<desc>lat.=43.163467, lon.=19.281527, Alt.=814.508301m. Speed=1.728000m/h.</desc>
<speed>0.480000</speed>
</trkpt>
<trkpt lat="43.163475" lon="19.281551">
<ele>815.102051</ele>
<time>2012-04-29T10:26:10Z</time>
<desc>lat.=43.163475, lon.=19.281551, Alt.=815.102051m. Speed=3.312000m/h.</desc>
<speed>0.920000</speed>
</trkpt>
<trkpt lat="43.163486" lon="19.281605">
<ele>815.508301</ele>
<time>2012-04-29T10:26:15Z</time>
<desc>lat.=43.163486, lon.=19.281605, Alt.=815.508301m. Speed=3.780000m/h.</desc>
<speed>1.050000</speed>
</trkpt>
<trkpt lat="43.163509" lon="19.281637">
<ele>816.992676</ele>
<time>2012-04-29T10:26:20Z</time>
<desc>lat.=43.163509, lon.=19.281637, Alt.=816.992676m. Speed=2.160000m/h.</desc>
<speed>0.600000</speed>
</trkpt>
<trkpt lat="43.163528" lon="19.281639">
<ele>818.602051</ele>
<time>2012-04-29T10:26:25Z</time>
<desc>lat.=43.163528, lon.=19.281639, Alt.=818.602051m. Speed=0.828000m/h.</desc>
<speed>0.230000</speed>
</trkpt>
<trkpt lat="43.163525" lon="19.281672">
<ele>819.477051</ele>
<time>2012-04-29T10:26:30Z</time>
<desc>lat.=43.163525, lon.=19.281672, Alt.=819.477051m. Speed=1.152000m/h.</desc>
<speed>0.320000</speed>
</trkpt>
<trkpt lat="43.163567" lon="19.281660">
<ele>819.883301</ele>
<time>2012-04-29T10:26:35Z</time>
<desc>lat.=43.163567, lon.=19.281660, Alt.=819.883301m. Speed=0.612000m/h.</desc>
<speed>0.170000</speed>
</trkpt>
<trkpt lat="43.163567" lon="19.281658">
<ele>820.164551</ele>
<time>2012-04-29T10:26:40Z</time>
<desc>lat.=43.163567, lon.=19.281658, Alt.=820.164551m. Speed=0.108000m/h.</desc>
<speed>0.030000</speed>
</trkpt>
<trkpt lat="43.163567" lon="19.281658">
<ele>820.273926</ele>
<time>2012-04-29T10:26:45Z</time>
<desc>lat.=43.163567, lon.=19.281658, Alt.=820.273926m. Speed=0.072000m/h.</desc>
<speed>0.020000</speed>
</trkpt>
<trkpt lat="43.163567" lon="19.281656">
<ele>820.273926</ele>
<time>2012-04-29T10:26:50Z</time>
<desc>lat.=43.163567, lon.=19.281656, Alt.=820.273926m. Speed=0.360000m/h.</desc>
<speed>0.100000</speed>
</trkpt>
<trkpt lat="43.163574" lon="19.281651">
<ele>820.273926</ele>
<time>2012-04-29T10:26:55Z</time>
<desc>lat.=43.163574, lon.=19.281651, Alt.=820.273926m. Speed=0.648000m/h.</desc>
<speed>0.180000</speed>
</trkpt>
<trkpt lat="43.163574" lon="19.281649">
<ele>820.289551</ele>
<time>2012-04-29T10:27:00Z</time>
<desc>lat.=43.163574, lon.=19.281649, Alt.=820.289551m. Speed=0.036000m/h.</desc>
<speed>0.010000</speed>
</trkpt>
<trkpt lat="43.163578" lon="19.281649">
<ele>820.352051</ele>
<time>2012-04-29T10:27:05Z</time>
<desc>lat.=43.163578, lon.=19.281649, Alt.=820.352051m. Speed=0.324000m/h.</desc>
<speed>0.090000</speed>
</trkpt>
<trkpt lat="43.163578" lon="19.281647">
<ele>820.430176</ele>
<time>2012-04-29T10:27:10Z</time>
<desc>lat.=43.163578, lon.=19.281647, Alt.=820.430176m. Speed=0.216000m/h.</desc>
<speed>0.060000</speed>
</trkpt>
<trkpt lat="43.163578" lon="19.281645">
<ele>820.430176</ele>
<time>2012-04-29T10:27:15Z</time>
<desc>lat.=43.163578, lon.=19.281645, Alt.=820.430176m. Speed=0.036000m/h.</desc>
<speed>0.010000</speed>
</trkpt>
<trkpt lat="43.163578" lon="19.281645">
<ele>820.461426</ele>
<time>2012-04-29T10:27:20Z</time>
<desc>lat.=43.163578, lon.=19.281645, Alt.=820.461426m. Speed=0.000000m/h.</desc>
<speed>0.000000</speed>
</trkpt>
<trkpt lat="43.163578" lon="19.281647">
<ele>820.539551</ele>
<time>2012-04-29T10:27:25Z</time>
<desc>lat.=43.163578, lon.=19.281647, Alt.=820.539551m. Speed=0.144000m/h.</desc>
<speed>0.040000</speed>
</trkpt>
<trkpt lat="43.163578" lon="19.281647">
<ele>820.602051</ele>
<time>2012-04-29T10:27:30Z</time>
<desc>lat.=43.163578, lon.=19.281647, Alt.=820.602051m. Speed=0.144000m/h.</desc>
<speed>0.040000</speed>
</trkpt>
<trkpt lat="43.163578" lon="19.281649">
<ele>820.648926</ele>
<time>2012-04-29T10:27:35Z</time>
<desc>lat.=43.163578, lon.=19.281649, Alt.=820.648926m. Speed=0.000000m/h.</desc>
<speed>0.000000</speed>
</trkpt>
<trkpt lat="43.163578" lon="19.281649">
<ele>820.711426</ele>
<time>2012-04-29T10:27:40Z</time>
<desc>lat.=43.163578, lon.=19.281649, Alt.=820.711426m. Speed=0.000000m/h.</desc>
<speed>0.000000</speed>
</trkpt>
<trkpt lat="43.163578" lon="19.281649">
<ele>820.727051</ele>
<time>2012-04-29T10:27:45Z</time>
<desc>lat.=43.163578, lon.=19.281649, Alt.=820.727051m. Speed=0.000000m/h.</desc>
<speed>0.000000</speed>
</trkpt>
<trkpt lat="43.163578" lon="19.281649">
<ele>820.727051</ele>
<time>2012-04-29T10:27:50Z</time>
<desc>lat.=43.163578, lon.=19.281649, Alt.=820.727051m. Speed=0.036000m/h.</desc>
<speed>0.010000</speed>
</trkpt>
<trkpt lat="43.163578" lon="19.281647">
<ele>820.742676</ele>
<time>2012-04-29T10:27:55Z</time>
<desc>lat.=43.163578, lon.=19.281647, Alt.=820.742676m. Speed=0.036000m/h.</desc>
<speed>0.010000</speed>
</trkpt>
<trkpt lat="43.163578" lon="19.281649">
<ele>820.773926</ele>
<time>2012-04-29T10:28:00Z</time>
<desc>lat.=43.163578, lon.=19.281649, Alt.=820.773926m. Speed=0.612000m/h.</desc>
<speed>0.170000</speed>
</trkpt>
<trkpt lat="43.163578" lon="19.281649">
<ele>820.805176</ele>
<time>2012-04-29T10:28:05Z</time>
<desc>lat.=43.163578, lon.=19.281649, Alt.=820.805176m. Speed=2.232000m/h.</desc>
<speed>0.620000</speed>
</trkpt>
<trkpt lat="43.163570" lon="19.281679">
<ele>821.414551</ele>
<time>2012-04-29T10:28:10Z</time>
<desc>lat.=43.163570, lon.=19.281679, Alt.=821.414551m. Speed=1.512000m/h.</desc>
<speed>0.420000</speed>
</trkpt>
<trkpt lat="43.163559" lon="19.281691">
<ele>821.695801</ele>
<time>2012-04-29T10:28:15Z</time>
<desc>lat.=43.163559, lon.=19.281691, Alt.=821.695801m. Speed=1.080000m/h.</desc>
<speed>0.300000</speed>
</trkpt>
<trkpt lat="43.163574" lon="19.281731">
<ele>822.945801</ele>
<time>2012-04-29T10:28:20Z</time>
<desc>lat.=43.163574, lon.=19.281731, Alt.=822.945801m. Speed=1.368000m/h.</desc>
<speed>0.380000</speed>
</trkpt>
<trkpt lat="43.163567" lon="19.281750">
<ele>823.273926</ele>
<time>2012-04-29T10:28:25Z</time>
<desc>lat.=43.163567, lon.=19.281750, Alt.=823.273926m. Speed=0.576000m/h.</desc>
<speed>0.160000</speed>
</trkpt>
<trkpt lat="43.163563" lon="19.281784">
<ele>824.586426</ele>
<time>2012-04-29T10:28:30Z</time>
<desc>lat.=43.163563, lon.=19.281784, Alt.=824.586426m. Speed=0.972000m/h.</desc>
<speed>0.270000</speed>
</trkpt>
<trkpt lat="43.163555" lon="19.281855">
<ele>826.055176</ele>
<time>2012-04-29T10:28:35Z</time>
<desc>lat.=43.163555, lon.=19.281855, Alt.=826.055176m. Speed=1.944000m/h.</desc>
<speed>0.540000</speed>
</trkpt>
<trkpt lat="43.163559" lon="19.281860">
<ele>827.492676</ele>
<time>2012-04-29T10:28:40Z</time>
<desc>lat.=43.163559, lon.=19.281860, Alt.=827.492676m. Speed=1.800000m/h.</desc>
<speed>0.500000</speed>
</trkpt>
<trkpt lat="43.163593" lon="19.281851">
<ele>828.727051</ele>
<time>2012-04-29T10:28:45Z</time>
<desc>lat.=43.163593, lon.=19.281851, Alt.=828.727051m. Speed=1.080000m/h.</desc>
<speed>0.300000</speed>
</trkpt>
<trkpt lat="43.163643" lon="19.281881">
<ele>829.711426</ele>
<time>2012-04-29T10:28:50Z</time>
<desc>lat.=43.163643, lon.=19.281881, Alt.=829.711426m. Speed=1.944000m/h.</desc>
<speed>0.540000</speed>
</trkpt>
<trkpt lat="43.163681" lon="19.281887">
<ele>831.648926</ele>
<time>2012-04-29T10:28:55Z</time>
<desc>lat.=43.163681, lon.=19.281887, Alt.=831.648926m. Speed=1.872000m/h.</desc>
<speed>0.520000</speed>
</trkpt>
<trkpt lat="43.163677" lon="19.281904">
<ele>832.258301</ele>
<time>2012-04-29T10:29:00Z</time>
<desc>lat.=43.163677, lon.=19.281904, Alt.=832.258301m. Speed=1.008000m/h.</desc>
<speed>0.280000</speed>
</trkpt>
<trkpt lat="43.163681" lon="19.281910">
<ele>832.555176</ele>
<time>2012-04-29T10:29:05Z</time>
<desc>lat.=43.163681, lon.=19.281910, Alt.=832.555176m. Speed=1.404000m/h.</desc>
<speed>0.390000</speed>
</trkpt>
<trkpt lat="43.163685" lon="19.281948">
<ele>833.633301</ele>
<time>2012-04-29T10:29:10Z</time>
<desc>lat.=43.163685, lon.=19.281948, Alt.=833.633301m. Speed=3.528000m/h.</desc>
<speed>0.980000</speed>
</trkpt>
<trkpt lat="43.163685" lon="19.281971">
<ele>833.914551</ele>
<time>2012-04-29T10:29:15Z</time>
<desc>lat.=43.163685, lon.=19.281971, Alt.=833.914551m. Speed=2.628000m/h.</desc>
<speed>0.730000</speed>
</trkpt>
<trkpt lat="43.163654" lon="19.282032">
<ele>835.508301</ele>
<time>2012-04-29T10:29:20Z</time>
<desc>lat.=43.163654, lon.=19.282032, Alt.=835.508301m. Speed=2.736000m/h.</desc>
<speed>0.760000</speed>
</trkpt>
<trkpt lat="43.163681" lon="19.282053">
<ele>837.055176</ele>
<time>2012-04-29T10:29:25Z</time>
<desc>lat.=43.163681, lon.=19.282053, Alt.=837.055176m. Speed=2.052000m/h.</desc>
<speed>0.570000</speed>
</trkpt>
<trkpt lat="43.163715" lon="19.282013">
<ele>837.695801</ele>
<time>2012-04-29T10:29:30Z</time>
<desc>lat.=43.163715, lon.=19.282013, Alt.=837.695801m. Speed=2.124000m/h.</desc>
<speed>0.590000</speed>
</trkpt>
<trkpt lat="43.163734" lon="19.282034">
<ele>839.867676</ele>
<time>2012-04-29T10:29:35Z</time>
<desc>lat.=43.163734, lon.=19.282034, Alt.=839.867676m. Speed=1.764000m/h.</desc>
<speed>0.490000</speed>
</trkpt>
<trkpt lat="43.163738" lon="19.282074">
<ele>842.508301</ele>
<time>2012-04-29T10:29:40Z</time>
<desc>lat.=43.163738, lon.=19.282074, Alt.=842.508301m. Speed=1.692000m/h.</desc>
<speed>0.470000</speed>
</trkpt>
<trkpt lat="43.163746" lon="19.282091">
<ele>843.008301</ele>
<time>2012-04-29T10:29:45Z</time>
<desc>lat.=43.163746, lon.=19.282091, Alt.=843.008301m. Speed=0.828000m/h.</desc>
<speed>0.230000</speed>
</trkpt>
<trkpt lat="43.163742" lon="19.282137">
<ele>843.164551</ele>
<time>2012-04-29T10:29:50Z</time>
<desc>lat.=43.163742, lon.=19.282137, Alt.=843.164551m. Speed=2.232000m/h.</desc>
<speed>0.620000</speed>
</trkpt>
<trkpt lat="43.163780" lon="19.282114">
<ele>843.836426</ele>
<time>2012-04-29T10:29:55Z</time>
<desc>lat.=43.163780, lon.=19.282114, Alt.=843.836426m. Speed=0.252000m/h.</desc>
<speed>0.070000</speed>
</trkpt>
<trkpt lat="43.163788" lon="19.282131">
<ele>844.117676</ele>
<time>2012-04-29T10:30:00Z</time>
<desc>lat.=43.163788, lon.=19.282131, Alt.=844.117676m. Speed=0.396000m/h.</desc>
<speed>0.110000</speed>
</trkpt>
<trkpt lat="43.163795" lon="19.282127">
<ele>844.273926</ele>
<time>2012-04-29T10:30:05Z</time>
<desc>lat.=43.163795, lon.=19.282127, Alt.=844.273926m. Speed=2.916000m/h.</desc>
<speed>0.810000</speed>
</trkpt>
<trkpt lat="43.163826" lon="19.282154">
<ele>846.180176</ele>
<time>2012-04-29T10:30:10Z</time>
<desc>lat.=43.163826, lon.=19.282154, Alt.=846.180176m. Speed=1.764000m/h.</desc>
<speed>0.490000</speed>
</trkpt>
<trkpt lat="43.163845" lon="19.282171">
<ele>847.883301</ele>
<time>2012-04-29T10:30:15Z</time>
<desc>lat.=43.163845, lon.=19.282171, Alt.=847.883301m. Speed=1.332000m/h.</desc>
<speed>0.370000</speed>
</trkpt>
<trkpt lat="43.163860" lon="19.282158">
<ele>848.539551</ele>
<time>2012-04-29T10:30:20Z</time>
<desc>lat.=43.163860, lon.=19.282158, Alt.=848.539551m. Speed=0.540000m/h.</desc>
<speed>0.150000</speed>
</trkpt>
<trkpt lat="43.163895" lon="19.282162">
<ele>849.617676</ele>
<time>2012-04-29T10:30:25Z</time>
<desc>lat.=43.163895, lon.=19.282162, Alt.=849.617676m. Speed=1.836000m/h.</desc>
<speed>0.510000</speed>
</trkpt>
<trkpt lat="43.163914" lon="19.282171">
<ele>851.602051</ele>
<time>2012-04-29T10:30:30Z</time>
<desc>lat.=43.163914, lon.=19.282171, Alt.=851.602051m. Speed=0.864000m/h.</desc>
<speed>0.240000</speed>
</trkpt>
<trkpt lat="43.163841" lon="19.282228">
<ele>852.461426</ele>
<time>2012-04-29T10:30:35Z</time>
<desc>lat.=43.163841, lon.=19.282228, Alt.=852.461426m. Speed=0.468000m/h.</desc>
<speed>0.130000</speed>
</trkpt>
<trkpt lat="43.163857" lon="19.282274">
<ele>852.773926</ele>
<time>2012-04-29T10:30:40Z</time>
<desc>lat.=43.163857, lon.=19.282274, Alt.=852.773926m. Speed=1.728000m/h.</desc>
<speed>0.480000</speed>
</trkpt>
<trkpt lat="43.163895" lon="19.282307">
<ele>854.133301</ele>
<time>2012-04-29T10:30:45Z</time>
<desc>lat.=43.163895, lon.=19.282307, Alt.=854.133301m. Speed=0.756000m/h.</desc>
<speed>0.210000</speed>
</trkpt>
<trkpt lat="43.163929" lon="19.282272">
<ele>854.617676</ele>
<time>2012-04-29T10:30:50Z</time>
<desc>lat.=43.163929, lon.=19.282272, Alt.=854.617676m. Speed=1.368000m/h.</desc>
<speed>0.380000</speed>
</trkpt>
<trkpt lat="43.163971" lon="19.282251">
<ele>854.898926</ele>
<time>2012-04-29T10:30:55Z</time>
<desc>lat.=43.163971, lon.=19.282251, Alt.=854.898926m. Speed=1.728000m/h.</desc>
<speed>0.480000</speed>
</trkpt>
<trkpt lat="43.163948" lon="19.282291">
<ele>855.352051</ele>
<time>2012-04-29T10:31:00Z</time>
<desc>lat.=43.163948, lon.=19.282291, Alt.=855.352051m. Speed=1.224000m/h.</desc>
<speed>0.340000</speed>
</trkpt>
<trkpt lat="43.163960" lon="19.282310">
<ele>857.258301</ele>
<time>2012-04-29T10:31:05Z</time>
<desc>lat.=43.163960, lon.=19.282310, Alt.=857.258301m. Speed=1.260000m/h.</desc>
<speed>0.350000</speed>
</trkpt>
<trkpt lat="43.163933" lon="19.282364">
<ele>859.273926</ele>
<time>2012-04-29T10:31:10Z</time>
<desc>lat.=43.163933, lon.=19.282364, Alt.=859.273926m. Speed=1.620000m/h.</desc>
<speed>0.450000</speed>
</trkpt>
<trkpt lat="43.163963" lon="19.282345">
<ele>860.914551</ele>
<time>2012-04-29T10:31:15Z</time>
<desc>lat.=43.163963, lon.=19.282345, Alt.=860.914551m. Speed=1.944000m/h.</desc>
<speed>0.540000</speed>
</trkpt>
<trkpt lat="43.164013" lon="19.282303">
<ele>861.789551</ele>
<time>2012-04-29T10:31:20Z</time>
<desc>lat.=43.164013, lon.=19.282303, Alt.=861.789551m. Speed=1.188000m/h.</desc>
<speed>0.330000</speed>
</trkpt>
<trkpt lat="43.164028" lon="19.282272">
<ele>861.992676</ele>
<time>2012-04-29T10:31:25Z</time>
<desc>lat.=43.164028, lon.=19.282272, Alt.=861.992676m. Speed=0.864000m/h.</desc>
<speed>0.240000</speed>
</trkpt>
<trkpt lat="43.164036" lon="19.282276">
<ele>862.383301</ele>
<time>2012-04-29T10:31:30Z</time>
<desc>lat.=43.164036, lon.=19.282276, Alt.=862.383301m. Speed=0.108000m/h.</desc>
<speed>0.030000</speed>
</trkpt>
<trkpt lat="43.164055" lon="19.282347">
<ele>862.008301</ele>
<time>2012-04-29T10:31:35Z</time>
<desc>lat.=43.164055, lon.=19.282347, Alt.=862.008301m. Speed=1.296000m/h.</desc>
<speed>0.360000</speed>
</trkpt>
<trkpt lat="43.164089" lon="19.282387">
<ele>862.258301</ele>
<time>2012-04-29T10:31:40Z</time>
<desc>lat.=43.164089, lon.=19.282387, Alt.=862.258301m. Speed=2.304000m/h.</desc>
<speed>0.640000</speed>
</trkpt>
<trkpt lat="43.164139" lon="19.282402">
<ele>863.633301</ele>
<time>2012-04-29T10:31:45Z</time>
<desc>lat.=43.164139, lon.=19.282402, Alt.=863.633301m. Speed=2.808000m/h.</desc>
<speed>0.780000</speed>
</trkpt>
<trkpt lat="43.164169" lon="19.282387">
<ele>864.695801</ele>
<time>2012-04-29T10:31:50Z</time>
<desc>lat.=43.164169, lon.=19.282387, Alt.=864.695801m. Speed=1.656000m/h.</desc>
<speed>0.460000</speed>
</trkpt>
<trkpt lat="43.164127" lon="19.282442">
<ele>865.992676</ele>
<time>2012-04-29T10:31:55Z</time>
<desc>lat.=43.164127, lon.=19.282442, Alt.=865.992676m. Speed=0.144000m/h.</desc>
<speed>0.040000</speed>
</trkpt>
<trkpt lat="43.164131" lon="19.282450">
<ele>866.195801</ele>
<time>2012-04-29T10:32:00Z</time>
<desc>lat.=43.164131, lon.=19.282450, Alt.=866.195801m. Speed=0.432000m/h.</desc>
<speed>0.120000</speed>
</trkpt>
<trkpt lat="43.164131" lon="19.282454">
<ele>866.273926</ele>
<time>2012-04-29T10:32:05Z</time>
<desc>lat.=43.164131, lon.=19.282454, Alt.=866.273926m. Speed=0.360000m/h.</desc>
<speed>0.100000</speed>
</trkpt>
<trkpt lat="43.164127" lon="19.282461">
<ele>866.555176</ele>
<time>2012-04-29T10:32:10Z</time>
<desc>lat.=43.164127, lon.=19.282461, Alt.=866.555176m. Speed=0.468000m/h.</desc>
<speed>0.130000</speed>
</trkpt>
<trkpt lat="43.164131" lon="19.282471">
<ele>866.586426</ele>
<time>2012-04-29T10:32:15Z</time>
<desc>lat.=43.164131, lon.=19.282471, Alt.=866.586426m. Speed=0.792000m/h.</desc>
<speed>0.220000</speed>
</trkpt>
<trkpt lat="43.164135" lon="19.282471">
<ele>866.586426</ele>
<time>2012-04-29T10:32:20Z</time>
<desc>lat.=43.164135, lon.=19.282471, Alt.=866.586426m. Speed=0.000000m/h.</desc>
<speed>0.000000</speed>
</trkpt>
<trkpt lat="43.164139" lon="19.282469">
<ele>866.617676</ele>
<time>2012-04-29T10:32:25Z</time>
<desc>lat.=43.164139, lon.=19.282469, Alt.=866.617676m. Speed=0.684000m/h.</desc>
<speed>0.190000</speed>
</trkpt>
<trkpt lat="43.164135" lon="19.282475">
<ele>866.680176</ele>
<time>2012-04-29T10:32:30Z</time>
<desc>lat.=43.164135, lon.=19.282475, Alt.=866.680176m. Speed=1.152000m/h.</desc>
<speed>0.320000</speed>
</trkpt>
<trkpt lat="43.164143" lon="19.282478">
<ele>868.023926</ele>
<time>2012-04-29T10:32:35Z</time>
<desc>lat.=43.164143, lon.=19.282478, Alt.=868.023926m. Speed=0.216000m/h.</desc>
<speed>0.060000</speed>
</trkpt>
<trkpt lat="43.164173" lon="19.282450">
<ele>868.852051</ele>
<time>2012-04-29T10:32:40Z</time>
<desc>lat.=43.164173, lon.=19.282450, Alt.=868.852051m. Speed=1.188000m/h.</desc>
<speed>0.330000</speed>
</trkpt>
<trkpt lat="43.164177" lon="19.282433">
<ele>870.664551</ele>
<time>2012-04-29T10:32:45Z</time>
<desc>lat.=43.164177, lon.=19.282433, Alt.=870.664551m. Speed=0.828000m/h.</desc>
<speed>0.230000</speed>
</trkpt>
<trkpt lat="43.164177" lon="19.282431">
<ele>870.836426</ele>
<time>2012-04-29T10:32:50Z</time>
<desc>lat.=43.164177, lon.=19.282431, Alt.=870.836426m. Speed=0.972000m/h.</desc>
<speed>0.270000</speed>
</trkpt>
<trkpt lat="43.164116" lon="19.282501">
<ele>871.086426</ele>
<time>2012-04-29T10:32:55Z</time>
<desc>lat.=43.164116, lon.=19.282501, Alt.=871.086426m. Speed=1.692000m/h.</desc>
<speed>0.470000</speed>
</trkpt>
<trkpt lat="43.164040" lon="19.282579">
<ele>871.914551</ele>
<time>2012-04-29T10:33:00Z</time>
<desc>lat.=43.164040, lon.=19.282579, Alt.=871.914551m. Speed=1.800000m/h.</desc>
<speed>0.500000</speed>
</trkpt>
<trkpt lat="43.163994" lon="19.282604">
<ele>874.617676</ele>
<time>2012-04-29T10:33:05Z</time>
<desc>lat.=43.163994, lon.=19.282604, Alt.=874.617676m. Speed=1.476000m/h.</desc>
<speed>0.410000</speed>
</trkpt>
<trkpt lat="43.164001" lon="19.282595">
<ele>876.758301</ele>
<time>2012-04-29T10:33:10Z</time>
<desc>lat.=43.164001, lon.=19.282595, Alt.=876.758301m. Speed=0.396000m/h.</desc>
<speed>0.110000</speed>
</trkpt>
<trkpt lat="43.164001" lon="19.282587">
<ele>877.383301</ele>
<time>2012-04-29T10:33:15Z</time>
<desc>lat.=43.164001, lon.=19.282587, Alt.=877.383301m. Speed=0.864000m/h.</desc>
<speed>0.240000</speed>
</trkpt>
<trkpt lat="43.164028" lon="19.282574">
<ele>878.164551</ele>
<time>2012-04-29T10:33:20Z</time>
<desc>lat.=43.164028, lon.=19.282574, Alt.=878.164551m. Speed=1.440000m/h.</desc>
<speed>0.400000</speed>
</trkpt>
<trkpt lat="43.164101" lon="19.282595">
<ele>879.508301</ele>
<time>2012-04-29T10:33:25Z</time>
<desc>lat.=43.164101, lon.=19.282595, Alt.=879.508301m. Speed=4.428000m/h.</desc>
<speed>1.230000</speed>
</trkpt>
<trkpt lat="43.164177" lon="19.282602">
<ele>881.211426</ele>
<time>2012-04-29T10:33:30Z</time>
<desc>lat.=43.164177, lon.=19.282602, Alt.=881.211426m. Speed=2.196000m/h.</desc>
<speed>0.610000</speed>
</trkpt>
<trkpt lat="43.164261" lon="19.282618">
<ele>881.727051</ele>
<time>2012-04-29T10:33:35Z</time>
<desc>lat.=43.164261, lon.=19.282618, Alt.=881.727051m. Speed=2.556000m/h.</desc>
<speed>0.710000</speed>
</trkpt>
<trkpt lat="43.164299" lon="19.282660">
<ele>881.398926</ele>
<time>2012-04-29T10:33:40Z</time>
<desc>lat.=43.164299, lon.=19.282660, Alt.=881.398926m. Speed=1.584000m/h.</desc>
<speed>0.440000</speed>
</trkpt>
<trkpt lat="43.164356" lon="19.282671">
<ele>883.133301</ele>
<time>2012-04-29T10:33:45Z</time>
<desc>lat.=43.164356, lon.=19.282671, Alt.=883.133301m. Speed=2.088000m/h.</desc>
<speed>0.580000</speed>
</trkpt>
<trkpt lat="43.164379" lon="19.282692">
<ele>884.570801</ele>
<time>2012-04-29T10:33:50Z</time>
<desc>lat.=43.164379, lon.=19.282692, Alt.=884.570801m. Speed=1.692000m/h.</desc>
<speed>0.470000</speed>
</trkpt>
<trkpt lat="43.164341" lon="19.282724">
<ele>886.445801</ele>
<time>2012-04-29T10:33:55Z</time>
<desc>lat.=43.164341, lon.=19.282724, Alt.=886.445801m. Speed=0.252000m/h.</desc>
<speed>0.070000</speed>
</trkpt>
<trkpt lat="43.164326" lon="19.282742">
<ele>887.820801</ele>
<time>2012-04-29T10:34:00Z</time>
<desc>lat.=43.164326, lon.=19.282742, Alt.=887.820801m. Speed=0.252000m/h.</desc>
<speed>0.070000</speed>
</trkpt>
<trkpt lat="43.164318" lon="19.282740">
<ele>888.805176</ele>
<time>2012-04-29T10:34:05Z</time>
<desc>lat.=43.164318, lon.=19.282740, Alt.=888.805176m. Speed=0.936000m/h.</desc>
<speed>0.260000</speed>
</trkpt>
<trkpt lat="43.164310" lon="19.282743">
<ele>889.648926</ele>
<time>2012-04-29T10:34:10Z</time>
<desc>lat.=43.164310, lon.=19.282743, Alt.=889.648926m. Speed=0.720000m/h.</desc>
<speed>0.200000</speed>
</trkpt>
<trkpt lat="43.164307" lon="19.282753">
<ele>890.461426</ele>
<time>2012-04-29T10:34:15Z</time>
<desc>lat.=43.164307, lon.=19.282753, Alt.=890.461426m. Speed=0.180000m/h.</desc>
<speed>0.050000</speed>
</trkpt>
<trkpt lat="43.164314" lon="19.282755">
<ele>891.305176</ele>
<time>2012-04-29T10:34:20Z</time>
<desc>lat.=43.164314, lon.=19.282755, Alt.=891.305176m. Speed=1.116000m/h.</desc>
<speed>0.310000</speed>
</trkpt>
<trkpt lat="43.164379" lon="19.282763">
<ele>890.633301</ele>
<time>2012-04-29T10:34:25Z</time>
<desc>lat.=43.164379, lon.=19.282763, Alt.=890.633301m. Speed=0.864000m/h.</desc>
<speed>0.240000</speed>
</trkpt>
<trkpt lat="43.164391" lon="19.282772">
<ele>891.945801</ele>
<time>2012-04-29T10:34:30Z</time>
<desc>lat.=43.164391, lon.=19.282772, Alt.=891.945801m. Speed=1.008000m/h.</desc>
<speed>0.280000</speed>
</trkpt>
<trkpt lat="43.164421" lon="19.282803">
<ele>891.977051</ele>
<time>2012-04-29T10:34:35Z</time>
<desc>lat.=43.164421, lon.=19.282803, Alt.=891.977051m. Speed=1.908000m/h.</desc>
<speed>0.530000</speed>
</trkpt>
<trkpt lat="43.164406" lon="19.282825">
<ele>891.133301</ele>
<time>2012-04-29T10:34:40Z</time>
<desc>lat.=43.164406, lon.=19.282825, Alt.=891.133301m. Speed=0.828000m/h.</desc>
<speed>0.230000</speed>
</trkpt>
<trkpt lat="43.164394" lon="19.282843">
<ele>890.820801</ele>
<time>2012-04-29T10:34:45Z</time>
<desc>lat.=43.164394, lon.=19.282843, Alt.=890.820801m. Speed=2.268000m/h.</desc>
<speed>0.630000</speed>
</trkpt>
<trkpt lat="43.164383" lon="19.282883">
<ele>890.336426</ele>
<time>2012-04-29T10:34:50Z</time>
<desc>lat.=43.164383, lon.=19.282883, Alt.=890.336426m. Speed=1.260000m/h.</desc>
<speed>0.350000</speed>
</trkpt>
<trkpt lat="43.164356" lon="19.282940">
<ele>890.477051</ele>
<time>2012-04-29T10:34:55Z</time>
<desc>lat.=43.164356, lon.=19.282940, Alt.=890.477051m. Speed=1.548000m/h.</desc>
<speed>0.430000</speed>
</trkpt>
<trkpt lat="43.164345" lon="19.282961">
<ele>891.273926</ele>
<time>2012-04-29T10:35:00Z</time>
<desc>lat.=43.164345, lon.=19.282961, Alt.=891.273926m. Speed=1.008000m/h.</desc>
<speed>0.280000</speed>
</trkpt>
<trkpt lat="43.164291" lon="19.282988">
<ele>891.633301</ele>
<time>2012-04-29T10:35:05Z</time>
<desc>lat.=43.164291, lon.=19.282988, Alt.=891.633301m. Speed=2.268000m/h.</desc>
<speed>0.630000</speed>
</trkpt>
<trkpt lat="43.164284" lon="19.283028">
<ele>891.336426</ele>
<time>2012-04-29T10:35:10Z</time>
<desc>lat.=43.164284, lon.=19.283028, Alt.=891.336426m. Speed=1.296000m/h.</desc>
<speed>0.360000</speed>
</trkpt>
<trkpt lat="43.164261" lon="19.283054">
<ele>891.461426</ele>
<time>2012-04-29T10:35:15Z</time>
<desc>lat.=43.164261, lon.=19.283054, Alt.=891.461426m. Speed=2.124000m/h.</desc>
<speed>0.590000</speed>
</trkpt>
<trkpt lat="43.164238" lon="19.283083">
<ele>891.602051</ele>
<time>2012-04-29T10:35:20Z</time>
<desc>lat.=43.164238, lon.=19.283083, Alt.=891.602051m. Speed=1.260000m/h.</desc>
<speed>0.350000</speed>
</trkpt>
<trkpt lat="43.164223" lon="19.283129">
<ele>891.242676</ele>
<time>2012-04-29T10:35:25Z</time>
<desc>lat.=43.164223, lon.=19.283129, Alt.=891.242676m. Speed=1.656000m/h.</desc>
<speed>0.460000</speed>
</trkpt>
<trkpt lat="43.164211" lon="19.283155">
<ele>891.023926</ele>
<time>2012-04-29T10:35:30Z</time>
<desc>lat.=43.164211, lon.=19.283155, Alt.=891.023926m. Speed=1.692000m/h.</desc>
<speed>0.470000</speed>
</trkpt>
<trkpt lat="43.164169" lon="19.283211">
<ele>890.664551</ele>
<time>2012-04-29T10:35:35Z</time>
<desc>lat.=43.164169, lon.=19.283211, Alt.=890.664551m. Speed=2.556000m/h.</desc>
<speed>0.710000</speed>
</trkpt>
<trkpt lat="43.164120" lon="19.283264">
<ele>892.148926</ele>
<time>2012-04-29T10:35:40Z</time>
<desc>lat.=43.164120, lon.=19.283264, Alt.=892.148926m. Speed=1.476000m/h.</desc>
<speed>0.410000</speed>
</trkpt>
<trkpt lat="43.164082" lon="19.283289">
<ele>891.992676</ele>
<time>2012-04-29T10:35:45Z</time>
<desc>lat.=43.164082, lon.=19.283289, Alt.=891.992676m. Speed=2.088000m/h.</desc>
<speed>0.580000</speed>
</trkpt>
<trkpt lat="43.164059" lon="19.283308">
<ele>891.742676</ele>
<time>2012-04-29T10:35:50Z</time>
<desc>lat.=43.164059, lon.=19.283308, Alt.=891.742676m. Speed=0.072000m/h.</desc>
<speed>0.020000</speed>
</trkpt>
<trkpt lat="43.164063" lon="19.283350">
<ele>889.445801</ele>
<time>2012-04-29T10:35:55Z</time>
<desc>lat.=43.164063, lon.=19.283350, Alt.=889.445801m. Speed=0.360000m/h.</desc>
<speed>0.100000</speed>
</trkpt>
<trkpt lat="43.164116" lon="19.283407">
<ele>888.039551</ele>
<time>2012-04-29T10:36:00Z</time>
<desc>lat.=43.164116, lon.=19.283407, Alt.=888.039551m. Speed=5.112000m/h.</desc>
<speed>1.420000</speed>
</trkpt>
<trkpt lat="43.164192" lon="19.283440">
<ele>886.758301</ele>
<time>2012-04-29T10:36:05Z</time>
<desc>lat.=43.164192, lon.=19.283440, Alt.=886.758301m. Speed=5.832000m/h.</desc>
<speed>1.620000</speed>
</trkpt>
<trkpt lat="43.164253" lon="19.283447">
<ele>886.070801</ele>
<time>2012-04-29T10:36:10Z</time>
<desc>lat.=43.164253, lon.=19.283447, Alt.=886.070801m. Speed=7.092000m/h.</desc>
<speed>1.970000</speed>
</trkpt>
<trkpt lat="43.164330" lon="19.283434">
<ele>884.586426</ele>
<time>2012-04-29T10:36:15Z</time>
<desc>lat.=43.164330, lon.=19.283434, Alt.=884.586426m. Speed=6.480000m/h.</desc>
<speed>1.800000</speed>
</trkpt>
<trkpt lat="43.164410" lon="19.283426">
<ele>884.820801</ele>
<time>2012-04-29T10:36:20Z</time>
<desc>lat.=43.164410, lon.=19.283426, Alt.=884.820801m. Speed=7.596000m/h.</desc>
<speed>2.110000</speed>
</trkpt>
<trkpt lat="43.164497" lon="19.283421">
<ele>884.742676</ele>
<time>2012-04-29T10:36:25Z</time>
<desc>lat.=43.164497, lon.=19.283421, Alt.=884.742676m. Speed=7.020000m/h.</desc>
<speed>1.950000</speed>
</trkpt>
<trkpt lat="43.164639" lon="19.283407">
<ele>883.398926</ele>
<time>2012-04-29T10:36:30Z</time>
<desc>lat.=43.164639, lon.=19.283407, Alt.=883.398926m. Speed=15.696000m/h.</desc>
<speed>4.360000</speed>
</trkpt>
<trkpt lat="43.164860" lon="19.283215">
<ele>881.461426</ele>
<time>2012-04-29T10:36:35Z</time>
<desc>lat.=43.164860, lon.=19.283215, Alt.=881.461426m. Speed=22.392000m/h.</desc>
<speed>6.220000</speed>
</trkpt>
<trkpt lat="43.164898" lon="19.282875">
<ele>882.555176</ele>
<time>2012-04-29T10:36:40Z</time>
<desc>lat.=43.164898, lon.=19.282875, Alt.=882.555176m. Speed=11.592000m/h.</desc>
<speed>3.220000</speed>
</trkpt>
<trkpt lat="43.164848" lon="19.282722">
<ele>883.977051</ele>
<time>2012-04-29T10:36:45Z</time>
<desc>lat.=43.164848, lon.=19.282722, Alt.=883.977051m. Speed=11.052000m/h.</desc>
<speed>3.070000</speed>
</trkpt>
<trkpt lat="43.164757" lon="19.282566">
<ele>883.492676</ele>
<time>2012-04-29T10:36:50Z</time>
<desc>lat.=43.164757, lon.=19.282566, Alt.=883.492676m. Speed=8.784000m/h.</desc>
<speed>2.440000</speed>
</trkpt>
<trkpt lat="43.164730" lon="19.282438">
<ele>884.477051</ele>
<time>2012-04-29T10:36:55Z</time>
<desc>lat.=43.164730, lon.=19.282438, Alt.=884.477051m. Speed=6.552000m/h.</desc>
<speed>1.820000</speed>
</trkpt>
<trkpt lat="43.164745" lon="19.282293">
<ele>885.180176</ele>
<time>2012-04-29T10:37:00Z</time>
<desc>lat.=43.164745, lon.=19.282293, Alt.=885.180176m. Speed=7.488000m/h.</desc>
<speed>2.080000</speed>
</trkpt>
<trkpt lat="43.164795" lon="19.282139">
<ele>886.133301</ele>
<time>2012-04-29T10:37:05Z</time>
<desc>lat.=43.164795, lon.=19.282139, Alt.=886.133301m. Speed=8.136000m/h.</desc>
<speed>2.260000</speed>
</trkpt>
<trkpt lat="43.164860" lon="19.282021">
<ele>887.023926</ele>
<time>2012-04-29T10:37:10Z</time>
<desc>lat.=43.164860, lon.=19.282021, Alt.=887.023926m. Speed=10.692000m/h.</desc>
<speed>2.970000</speed>
</trkpt>
<trkpt lat="43.164948" lon="19.281881">
<ele>886.867676</ele>
<time>2012-04-29T10:37:15Z</time>
<desc>lat.=43.164948, lon.=19.281881, Alt.=886.867676m. Speed=10.332000m/h.</desc>
<speed>2.870000</speed>
</trkpt>
<trkpt lat="43.165035" lon="19.281813">
<ele>887.898926</ele>
<time>2012-04-29T10:37:20Z</time>
<desc>lat.=43.165035, lon.=19.281813, Alt.=887.898926m. Speed=7.992000m/h.</desc>
<speed>2.220000</speed>
</trkpt>
<trkpt lat="43.165157" lon="19.281864">
<ele>888.445801</ele>
<time>2012-04-29T10:37:25Z</time>
<desc>lat.=43.165157, lon.=19.281864, Alt.=888.445801m. Speed=9.504000m/h.</desc>
<speed>2.640000</speed>
</trkpt>
<trkpt lat="43.165264" lon="19.281973">
<ele>889.586426</ele>
<time>2012-04-29T10:37:30Z</time>
<desc>lat.=43.165264, lon.=19.281973, Alt.=889.586426m. Speed=7.992000m/h.</desc>
<speed>2.220000</speed>
</trkpt>
<trkpt lat="43.165337" lon="19.282051">
<ele>891.273926</ele>
<time>2012-04-29T10:37:35Z</time>
<desc>lat.=43.165337, lon.=19.282051, Alt.=891.273926m. Speed=8.136000m/h.</desc>
<speed>2.260000</speed>
</trkpt>
<trkpt lat="43.165421" lon="19.282097">
<ele>892.742676</ele>
<time>2012-04-29T10:37:40Z</time>
<desc>lat.=43.165421, lon.=19.282097, Alt.=892.742676m. Speed=8.136000m/h.</desc>
<speed>2.260000</speed>
</trkpt>
<trkpt lat="43.165520" lon="19.282108">
<ele>892.883301</ele>
<time>2012-04-29T10:37:45Z</time>
<desc>lat.=43.165520, lon.=19.282108, Alt.=892.883301m. Speed=6.444000m/h.</desc>
<speed>1.790000</speed>
</trkpt>
<trkpt lat="43.165600" lon="19.282120">
<ele>893.180176</ele>
<time>2012-04-29T10:37:50Z</time>
<desc>lat.=43.165600, lon.=19.282120, Alt.=893.180176m. Speed=2.232000m/h.</desc>
<speed>0.620000</speed>
</trkpt>
<trkpt lat="43.165672" lon="19.282125">
<ele>895.539551</ele>
<time>2012-04-29T10:37:55Z</time>
<desc>lat.=43.165672, lon.=19.282125, Alt.=895.539551m. Speed=6.192000m/h.</desc>
<speed>1.720000</speed>
</trkpt>
<trkpt lat="43.165756" lon="19.282112">
<ele>897.992676</ele>
<time>2012-04-29T10:38:00Z</time>
<desc>lat.=43.165756, lon.=19.282112, Alt.=897.992676m. Speed=4.680000m/h.</desc>
<speed>1.300000</speed>
</trkpt>
<trkpt lat="43.165829" lon="19.282097">
<ele>900.727051</ele>
<time>2012-04-29T10:38:05Z</time>
<desc>lat.=43.165829, lon.=19.282097, Alt.=900.727051m. Speed=4.932000m/h.</desc>
<speed>1.370000</speed>
</trkpt>
<trkpt lat="43.165894" lon="19.281990">
<ele>901.398926</ele>
<time>2012-04-29T10:38:10Z</time>
<desc>lat.=43.165894, lon.=19.281990, Alt.=901.398926m. Speed=6.768000m/h.</desc>
<speed>1.880000</speed>
</trkpt>
<trkpt lat="43.165936" lon="19.281864">
<ele>900.570801</ele>
<time>2012-04-29T10:38:15Z</time>
<desc>lat.=43.165936, lon.=19.281864, Alt.=900.570801m. Speed=6.336000m/h.</desc>
<speed>1.760000</speed>
</trkpt>
<trkpt lat="43.165977" lon="19.281759">
<ele>901.492676</ele>
<time>2012-04-29T10:38:20Z</time>
<desc>lat.=43.165977, lon.=19.281759, Alt.=901.492676m. Speed=5.112000m/h.</desc>
<speed>1.420000</speed>
</trkpt>
<trkpt lat="43.166012" lon="19.281706">
<ele>900.898926</ele>
<time>2012-04-29T10:38:25Z</time>
<desc>lat.=43.166012, lon.=19.281706, Alt.=900.898926m. Speed=3.708000m/h.</desc>
<speed>1.030000</speed>
</trkpt>
<trkpt lat="43.166012" lon="19.281715">
<ele>900.602051</ele>
<time>2012-04-29T10:38:30Z</time>
<desc>lat.=43.166012, lon.=19.281715, Alt.=900.602051m. Speed=0.000000m/h.</desc>
<speed>0.000000</speed>
</trkpt>
<trkpt lat="43.166012" lon="19.281715">
<ele>900.602051</ele>
<time>2012-04-29T10:38:35Z</time>
<desc>lat.=43.166012, lon.=19.281715, Alt.=900.602051m. Speed=0.000000m/h.</desc>
<speed>0.000000</speed>
</trkpt>
<trkpt lat="43.166012" lon="19.281713">
<ele>900.570801</ele>
<time>2012-04-29T10:38:40Z</time>
<desc>lat.=43.166012, lon.=19.281713, Alt.=900.570801m. Speed=0.000000m/h.</desc>
<speed>0.000000</speed>
</trkpt>
<trkpt lat="43.166012" lon="19.281713">
<ele>900.570801</ele>
<time>2012-04-29T10:38:45Z</time>
<desc>lat.=43.166012, lon.=19.281713, Alt.=900.570801m. Speed=0.000000m/h.</desc>
<speed>0.000000</speed>
</trkpt>
<trkpt lat="43.166012" lon="19.281713">
<ele>900.555176</ele>
<time>2012-04-29T10:38:50Z</time>
<desc>lat.=43.166012, lon.=19.281713, Alt.=900.555176m. Speed=0.000000m/h.</desc>
<speed>0.000000</speed>
</trkpt>
<trkpt lat="43.166012" lon="19.281713">
<ele>900.555176</ele>
<time>2012-04-29T10:38:55Z</time>
<desc>lat.=43.166012, lon.=19.281713, Alt.=900.555176m. Speed=0.036000m/h.</desc>
<speed>0.010000</speed>
</trkpt>
<trkpt lat="43.166016" lon="19.281710">
<ele>900.461426</ele>
<time>2012-04-29T10:39:00Z</time>
<desc>lat.=43.166016, lon.=19.281710, Alt.=900.461426m. Speed=0.000000m/h.</desc>
<speed>0.000000</speed>
</trkpt>
<trkpt lat="43.166016" lon="19.281710">
<ele>900.461426</ele>
<time>2012-04-29T10:39:05Z</time>
<desc>lat.=43.166016, lon.=19.281710, Alt.=900.461426m. Speed=0.504000m/h.</desc>
<speed>0.140000</speed>
</trkpt>
<trkpt lat="43.166016" lon="19.281704">
<ele>900.492676</ele>
<time>2012-04-29T10:39:10Z</time>
<desc>lat.=43.166016, lon.=19.281704, Alt.=900.492676m. Speed=0.000000m/h.</desc>
<speed>0.000000</speed>
</trkpt>
<trkpt lat="43.166016" lon="19.281704">
<ele>900.477051</ele>
<time>2012-04-29T10:39:15Z</time>
<desc>lat.=43.166016, lon.=19.281704, Alt.=900.477051m. Speed=0.072000m/h.</desc>
<speed>0.020000</speed>
</trkpt>
<trkpt lat="43.166016" lon="19.281689">
<ele>900.227051</ele>
<time>2012-04-29T10:39:20Z</time>
<desc>lat.=43.166016, lon.=19.281689, Alt.=900.227051m. Speed=1.260000m/h.</desc>
<speed>0.350000</speed>
</trkpt>
<trkpt lat="43.166019" lon="19.281672">
<ele>899.758301</ele>
<time>2012-04-29T10:39:25Z</time>
<desc>lat.=43.166019, lon.=19.281672, Alt.=899.758301m. Speed=3.528000m/h.</desc>
<speed>0.980000</speed>
</trkpt>
<trkpt lat="43.166027" lon="19.281620">
<ele>898.555176</ele>
<time>2012-04-29T10:39:30Z</time>
<desc>lat.=43.166027, lon.=19.281620, Alt.=898.555176m. Speed=1.332000m/h.</desc>
<speed>0.370000</speed>
</trkpt>
<trkpt lat="43.166042" lon="19.281616">
<ele>898.289551</ele>
<time>2012-04-29T10:39:35Z</time>
<desc>lat.=43.166042, lon.=19.281616, Alt.=898.289551m. Speed=0.648000m/h.</desc>
<speed>0.180000</speed>
</trkpt>
<trkpt lat="43.166054" lon="19.281609">
<ele>897.711426</ele>
<time>2012-04-29T10:39:40Z</time>
<desc>lat.=43.166054, lon.=19.281609, Alt.=897.711426m. Speed=0.108000m/h.</desc>
<speed>0.030000</speed>
</trkpt>
<trkpt lat="43.166054" lon="19.281609">
<ele>897.680176</ele>
<time>2012-04-29T10:39:45Z</time>
<desc>lat.=43.166054, lon.=19.281609, Alt.=897.680176m. Speed=0.036000m/h.</desc>
<speed>0.010000</speed>
</trkpt>
<trkpt lat="43.166054" lon="19.281609">
<ele>897.773926</ele>
<time>2012-04-29T10:39:50Z</time>
<desc>lat.=43.166054, lon.=19.281609, Alt.=897.773926m. Speed=0.108000m/h.</desc>
<speed>0.030000</speed>
</trkpt>
<trkpt lat="43.166050" lon="19.281609">
<ele>897.805176</ele>
<time>2012-04-29T10:39:55Z</time>
<desc>lat.=43.166050, lon.=19.281609, Alt.=897.805176m. Speed=0.000000m/h.</desc>
<speed>0.000000</speed>
</trkpt>
<trkpt lat="43.166054" lon="19.281610">
<ele>897.836426</ele>
<time>2012-04-29T10:40:00Z</time>
<desc>lat.=43.166054, lon.=19.281610, Alt.=897.836426m. Speed=0.036000m/h.</desc>
<speed>0.010000</speed>
</trkpt>
<trkpt lat="43.166054" lon="19.281610">
<ele>897.852051</ele>
<time>2012-04-29T10:40:05Z</time>
<desc>lat.=43.166054, lon.=19.281610, Alt.=897.852051m. Speed=0.000000m/h.</desc>
<speed>0.000000</speed>
</trkpt>
<trkpt lat="43.166054" lon="19.281609">
<ele>897.852051</ele>
<time>2012-04-29T10:40:10Z</time>
<desc>lat.=43.166054, lon.=19.281609, Alt.=897.852051m. Speed=0.036000m/h.</desc>
<speed>0.010000</speed>
</trkpt>
<trkpt lat="43.166054" lon="19.281610">
<ele>897.820801</ele>
<time>2012-04-29T10:40:15Z</time>
<desc>lat.=43.166054, lon.=19.281610, Alt.=897.820801m. Speed=0.000000m/h.</desc>
<speed>0.000000</speed>
</trkpt>
<trkpt lat="43.166054" lon="19.281609">
<ele>897.805176</ele>
<time>2012-04-29T10:40:20Z</time>
<desc>lat.=43.166054, lon.=19.281609, Alt.=897.805176m. Speed=3.240000m/h.</desc>
<speed>0.900000</speed>
</trkpt>
<trkpt lat="43.166035" lon="19.281437">
<ele>896.930176</ele>
<time>2012-04-29T10:40:25Z</time>
<desc>lat.=43.166035, lon.=19.281437, Alt.=896.930176m. Speed=13.320000m/h.</desc>
<speed>3.700000</speed>
</trkpt>
<trkpt lat="43.166031" lon="19.281208">
<ele>896.039551</ele>
<time>2012-04-29T10:40:30Z</time>
<desc>lat.=43.166031, lon.=19.281208, Alt.=896.039551m. Speed=11.808000m/h.</desc>
<speed>3.280000</speed>
</trkpt>
<trkpt lat="43.166016" lon="19.280991">
<ele>895.898926</ele>
<time>2012-04-29T10:40:35Z</time>
<desc>lat.=43.166016, lon.=19.280991, Alt.=895.898926m. Speed=12.060000m/h.</desc>
<speed>3.350000</speed>
</trkpt>
<trkpt lat="43.165958" lon="19.280773">
<ele>894.648926</ele>
<time>2012-04-29T10:40:40Z</time>
<desc>lat.=43.165958, lon.=19.280773, Alt.=894.648926m. Speed=13.212000m/h.</desc>
<speed>3.670000</speed>
</trkpt>
<trkpt lat="43.165913" lon="19.280539">
<ele>893.461426</ele>
<time>2012-04-29T10:40:45Z</time>
<desc>lat.=43.165913, lon.=19.280539, Alt.=893.461426m. Speed=13.608000m/h.</desc>
<speed>3.780000</speed>
</trkpt>
<trkpt lat="43.165890" lon="19.280350">
<ele>892.914551</ele>
<time>2012-04-29T10:40:50Z</time>
<desc>lat.=43.165890, lon.=19.280350, Alt.=892.914551m. Speed=4.716000m/h.</desc>
<speed>1.310000</speed>
</trkpt>
<trkpt lat="43.165882" lon="19.280325">
<ele>894.273926</ele>
<time>2012-04-29T10:40:55Z</time>
<desc>lat.=43.165882, lon.=19.280325, Alt.=894.273926m. Speed=0.324000m/h.</desc>
<speed>0.090000</speed>
</trkpt>
<trkpt lat="43.165882" lon="19.280321">
<ele>893.961426</ele>
<time>2012-04-29T10:41:00Z</time>
<desc>lat.=43.165882, lon.=19.280321, Alt.=893.961426m. Speed=0.072000m/h.</desc>
<speed>0.020000</speed>
</trkpt>
<trkpt lat="43.165882" lon="19.280323">
<ele>893.867676</ele>
<time>2012-04-29T10:41:05Z</time>
<desc>lat.=43.165882, lon.=19.280323, Alt.=893.867676m. Speed=0.216000m/h.</desc>
<speed>0.060000</speed>
</trkpt>
<trkpt lat="43.165882" lon="19.280323">
<ele>893.930176</ele>
<time>2012-04-29T10:41:10Z</time>
<desc>lat.=43.165882, lon.=19.280323, Alt.=893.930176m. Speed=0.540000m/h.</desc>
<speed>0.150000</speed>
</trkpt>
<trkpt lat="43.165878" lon="19.280313">
<ele>893.898926</ele>
<time>2012-04-29T10:41:15Z</time>
<desc>lat.=43.165878, lon.=19.280313, Alt.=893.898926m. Speed=3.384000m/h.</desc>
<speed>0.940000</speed>
</trkpt>
<trkpt lat="43.165878" lon="19.280294">
<ele>893.648926</ele>
<time>2012-04-29T10:41:20Z</time>
<desc>lat.=43.165878, lon.=19.280294, Alt.=893.648926m. Speed=0.072000m/h.</desc>
<speed>0.020000</speed>
</trkpt>
<trkpt lat="43.165878" lon="19.280289">
<ele>894.117676</ele>
<time>2012-04-29T10:41:25Z</time>
<desc>lat.=43.165878, lon.=19.280289, Alt.=894.117676m. Speed=0.252000m/h.</desc>
<speed>0.070000</speed>
</trkpt>
<trkpt lat="43.165878" lon="19.280268">
<ele>894.914551</ele>
<time>2012-04-29T10:41:30Z</time>
<desc>lat.=43.165878, lon.=19.280268, Alt.=894.914551m. Speed=1.692000m/h.</desc>
<speed>0.470000</speed>
</trkpt>
<trkpt lat="43.165871" lon="19.280273">
<ele>895.273926</ele>
<time>2012-04-29T10:41:35Z</time>
<desc>lat.=43.165871, lon.=19.280273, Alt.=895.273926m. Speed=3.384000m/h.</desc>
<speed>0.940000</speed>
</trkpt>
<trkpt lat="43.165874" lon="19.280237">
<ele>895.555176</ele>
<time>2012-04-29T10:41:40Z</time>
<desc>lat.=43.165874, lon.=19.280237, Alt.=895.555176m. Speed=2.628000m/h.</desc>
<speed>0.730000</speed>
</trkpt>
<trkpt lat="43.165874" lon="19.280180">
<ele>895.148926</ele>
<time>2012-04-29T10:41:45Z</time>
<desc>lat.=43.165874, lon.=19.280180, Alt.=895.148926m. Speed=3.024000m/h.</desc>
<speed>0.840000</speed>
</trkpt>
<trkpt lat="43.165878" lon="19.280117">
<ele>895.602051</ele>
<time>2012-04-29T10:41:50Z</time>
<desc>lat.=43.165878, lon.=19.280117, Alt.=895.602051m. Speed=0.252000m/h.</desc>
<speed>0.070000</speed>
</trkpt>
<trkpt lat="43.165878" lon="19.280111">
<ele>896.133301</ele>
<time>2012-04-29T10:41:55Z</time>
<desc>lat.=43.165878, lon.=19.280111, Alt.=896.133301m. Speed=0.036000m/h.</desc>
<speed>0.010000</speed>
</trkpt>
<trkpt lat="43.165878" lon="19.280111">
<ele>896.133301</ele>
<time>2012-04-29T10:42:00Z</time>
<desc>lat.=43.165878, lon.=19.280111, Alt.=896.133301m. Speed=1.044000m/h.</desc>
<speed>0.290000</speed>
</trkpt>
<trkpt lat="43.165878" lon="19.280043">
<ele>896.258301</ele>
<time>2012-04-29T10:42:05Z</time>
<desc>lat.=43.165878, lon.=19.280043, Alt.=896.258301m. Speed=5.436000m/h.</desc>
<speed>1.510000</speed>
</trkpt>
<trkpt lat="43.165863" lon="19.279976">
<ele>896.070801</ele>
<time>2012-04-29T10:42:10Z</time>
<desc>lat.=43.165863, lon.=19.279976, Alt.=896.070801m. Speed=6.012000m/h.</desc>
<speed>1.670000</speed>
</trkpt>
<trkpt lat="43.165848" lon="19.279970">
<ele>897.320801</ele>
<time>2012-04-29T10:42:15Z</time>
<desc>lat.=43.165848, lon.=19.279970, Alt.=897.320801m. Speed=0.180000m/h.</desc>
<speed>0.050000</speed>
</trkpt>
<trkpt lat="43.165844" lon="19.279970">
<ele>897.977051</ele>
<time>2012-04-29T10:42:20Z</time>
<desc>lat.=43.165844, lon.=19.279970, Alt.=897.977051m. Speed=0.144000m/h.</desc>
<speed>0.040000</speed>
</trkpt>
<trkpt lat="43.165844" lon="19.279968">
<ele>898.617676</ele>
<time>2012-04-29T10:42:25Z</time>
<desc>lat.=43.165844, lon.=19.279968, Alt.=898.617676m. Speed=0.144000m/h.</desc>
<speed>0.040000</speed>
</trkpt>
<trkpt lat="43.165840" lon="19.279968">
<ele>899.242676</ele>
<time>2012-04-29T10:42:30Z</time>
<desc>lat.=43.165840, lon.=19.279968, Alt.=899.242676m. Speed=0.180000m/h.</desc>
<speed>0.050000</speed>
</trkpt>
<trkpt lat="43.165836" lon="19.279968">
<ele>899.836426</ele>
<time>2012-04-29T10:42:35Z</time>
<desc>lat.=43.165836, lon.=19.279968, Alt.=899.836426m. Speed=0.144000m/h.</desc>
<speed>0.040000</speed>
</trkpt>
<trkpt lat="43.165836" lon="19.279968">
<ele>900.430176</ele>
<time>2012-04-29T10:42:40Z</time>
<desc>lat.=43.165836, lon.=19.279968, Alt.=900.430176m. Speed=0.144000m/h.</desc>
<speed>0.040000</speed>
</trkpt>
<trkpt lat="43.165833" lon="19.279968">
<ele>900.992676</ele>
<time>2012-04-29T10:42:45Z</time>
<desc>lat.=43.165833, lon.=19.279968, Alt.=900.992676m. Speed=0.144000m/h.</desc>
<speed>0.040000</speed>
</trkpt>
<trkpt lat="43.165833" lon="19.279968">
<ele>901.570801</ele>
<time>2012-04-29T10:42:50Z</time>
<desc>lat.=43.165833, lon.=19.279968, Alt.=901.570801m. Speed=0.144000m/h.</desc>
<speed>0.040000</speed>
</trkpt>
<trkpt lat="43.165829" lon="19.279966">
<ele>902.133301</ele>
<time>2012-04-29T10:42:55Z</time>
<desc>lat.=43.165829, lon.=19.279966, Alt.=902.133301m. Speed=0.144000m/h.</desc>
<speed>0.040000</speed>
</trkpt>
<trkpt lat="43.165829" lon="19.279966">
<ele>902.680176</ele>
<time>2012-04-29T10:43:00Z</time>
<desc>lat.=43.165829, lon.=19.279966, Alt.=902.680176m. Speed=0.108000m/h.</desc>
<speed>0.030000</speed>
</trkpt>
<trkpt lat="43.165825" lon="19.279966">
<ele>903.164551</ele>
<time>2012-04-29T10:43:05Z</time>
<desc>lat.=43.165825, lon.=19.279966, Alt.=903.164551m. Speed=0.108000m/h.</desc>
<speed>0.030000</speed>
</trkpt>
<trkpt lat="43.165825" lon="19.279966">
<ele>903.586426</ele>
<time>2012-04-29T10:43:10Z</time>
<desc>lat.=43.165825, lon.=19.279966, Alt.=903.586426m. Speed=0.144000m/h.</desc>
<speed>0.040000</speed>
</trkpt>
<trkpt lat="43.165825" lon="19.279968">
<ele>903.914551</ele>
<time>2012-04-29T10:43:15Z</time>
<desc>lat.=43.165825, lon.=19.279968, Alt.=903.914551m. Speed=0.072000m/h.</desc>
<speed>0.020000</speed>
</trkpt>
<trkpt lat="43.165821" lon="19.279968">
<ele>903.930176</ele>
<time>2012-04-29T10:43:20Z</time>
<desc>lat.=43.165821, lon.=19.279968, Alt.=903.930176m. Speed=0.036000m/h.</desc>
<speed>0.010000</speed>
</trkpt>
<trkpt lat="43.165821" lon="19.279968">
<ele>903.930176</ele>
<time>2012-04-29T10:43:25Z</time>
<desc>lat.=43.165821, lon.=19.279968, Alt.=903.930176m. Speed=0.036000m/h.</desc>
<speed>0.010000</speed>
</trkpt>
<trkpt lat="43.165821" lon="19.279968">
<ele>903.930176</ele>
<time>2012-04-29T10:43:30Z</time>
<desc>lat.=43.165821, lon.=19.279968, Alt.=903.930176m. Speed=0.000000m/h.</desc>
<speed>0.000000</speed>
</trkpt>
<trkpt lat="43.165821" lon="19.279968">
<ele>903.898926</ele>
<time>2012-04-29T10:43:35Z</time>
<desc>lat.=43.165821, lon.=19.279968, Alt.=903.898926m. Speed=0.036000m/h.</desc>
<speed>0.010000</speed>
</trkpt>
<trkpt lat="43.165821" lon="19.279968">
<ele>903.898926</ele>
<time>2012-04-29T10:43:40Z</time>
<desc>lat.=43.165821, lon.=19.279968, Alt.=903.898926m. Speed=0.000000m/h.</desc>
<speed>0.000000</speed>
</trkpt>
<trkpt lat="43.165821" lon="19.279968">
<ele>903.898926</ele>
<time>2012-04-29T10:43:45Z</time>
<desc>lat.=43.165821, lon.=19.279968, Alt.=903.898926m. Speed=0.000000m/h.</desc>
<speed>0.000000</speed>
</trkpt>
<trkpt lat="43.165821" lon="19.279968">
<ele>903.883301</ele>
<time>2012-04-29T10:43:50Z</time>
<desc>lat.=43.165821, lon.=19.279968, Alt.=903.883301m. Speed=0.000000m/h.</desc>
<speed>0.000000</speed>
</trkpt>
<trkpt lat="43.165821" lon="19.279970">
<ele>903.867676</ele>
<time>2012-04-29T10:43:55Z</time>
<desc>lat.=43.165821, lon.=19.279970, Alt.=903.867676m. Speed=0.000000m/h.</desc>
<speed>0.000000</speed>
</trkpt>
<trkpt lat="43.165821" lon="19.279970">
<ele>903.836426</ele>
<time>2012-04-29T10:44:00Z</time>
<desc>lat.=43.165821, lon.=19.279970, Alt.=903.836426m. Speed=0.036000m/h.</desc>
<speed>0.010000</speed>
</trkpt>
<trkpt lat="43.165821" lon="19.279970">
<ele>903.820801</ele>
<time>2012-04-29T10:44:05Z</time>
<desc>lat.=43.165821, lon.=19.279970, Alt.=903.820801m. Speed=0.000000m/h.</desc>
<speed>0.000000</speed>
</trkpt>
<trkpt lat="43.165821" lon="19.279970">
<ele>903.758301</ele>
<time>2012-04-29T10:44:10Z</time>
<desc>lat.=43.165821, lon.=19.279970, Alt.=903.758301m. Speed=0.000000m/h.</desc>
<speed>0.000000</speed>
</trkpt>
<trkpt lat="43.165821" lon="19.279970">
<ele>903.742676</ele>
<time>2012-04-29T10:44:15Z</time>
<desc>lat.=43.165821, lon.=19.279970, Alt.=903.742676m. Speed=0.000000m/h.</desc>
<speed>0.000000</speed>
</trkpt>
<trkpt lat="43.165821" lon="19.279970">
<ele>903.742676</ele>
<time>2012-04-29T10:44:20Z</time>
<desc>lat.=43.165821, lon.=19.279970, Alt.=903.742676m. Speed=0.000000m/h.</desc>
<speed>0.000000</speed>
</trkpt>
<trkpt lat="43.165821" lon="19.279970">
<ele>903.773926</ele>
<time>2012-04-29T10:44:25Z</time>
<desc>lat.=43.165821, lon.=19.279970, Alt.=903.773926m. Speed=0.036000m/h.</desc>
<speed>0.010000</speed>
</trkpt>
<trkpt lat="43.165821" lon="19.279970">
<ele>903.805176</ele>
<time>2012-04-29T10:44:30Z</time>
<desc>lat.=43.165821, lon.=19.279970, Alt.=903.805176m. Speed=0.036000m/h.</desc>
<speed>0.010000</speed>
</trkpt>
<trkpt lat="43.165821" lon="19.279970">
<ele>903.805176</ele>
<time>2012-04-29T10:44:35Z</time>
<desc>lat.=43.165821, lon.=19.279970, Alt.=903.805176m. Speed=0.000000m/h.</desc>
<speed>0.000000</speed>
</trkpt>
<trkpt lat="43.165821" lon="19.279970">
<ele>903.805176</ele>
<time>2012-04-29T10:44:40Z</time>
<desc>lat.=43.165821, lon.=19.279970, Alt.=903.805176m. Speed=0.000000m/h.</desc>
<speed>0.000000</speed>
</trkpt>
<trkpt lat="43.165821" lon="19.279970">
<ele>903.773926</ele>
<time>2012-04-29T10:44:45Z</time>
<desc>lat.=43.165821, lon.=19.279970, Alt.=903.773926m. Speed=0.000000m/h.</desc>
<speed>0.000000</speed>
</trkpt>
<trkpt lat="43.165821" lon="19.279970">
<ele>903.758301</ele>
<time>2012-04-29T10:44:50Z</time>
<desc>lat.=43.165821, lon.=19.279970, Alt.=903.758301m. Speed=0.000000m/h.</desc>
<speed>0.000000</speed>
</trkpt>
<trkpt lat="43.165821" lon="19.279970">
<ele>903.742676</ele>
<time>2012-04-29T10:44:55Z</time>
<desc>lat.=43.165821, lon.=19.279970, Alt.=903.742676m. Speed=0.036000m/h.</desc>
<speed>0.010000</speed>
</trkpt>
<trkpt lat="43.165821" lon="19.279970">
<ele>903.695801</ele>
<time>2012-04-29T10:45:00Z</time>
<desc>lat.=43.165821, lon.=19.279970, Alt.=903.695801m. Speed=0.000000m/h.</desc>
<speed>0.000000</speed>
</trkpt>
<trkpt lat="43.165821" lon="19.279970">
<ele>903.664551</ele>
<time>2012-04-29T10:45:05Z</time>
<desc>lat.=43.165821, lon.=19.279970, Alt.=903.664551m. Speed=0.000000m/h.</desc>
<speed>0.000000</speed>
</trkpt>
<trkpt lat="43.165821" lon="19.279970">
<ele>903.648926</ele>
<time>2012-04-29T10:45:10Z</time>
<desc>lat.=43.165821, lon.=19.279970, Alt.=903.648926m. Speed=0.036000m/h.</desc>
<speed>0.010000</speed>
</trkpt>
<trkpt lat="43.165821" lon="19.279970">
<ele>903.633301</ele>
<time>2012-04-29T10:45:15Z</time>
<desc>lat.=43.165821, lon.=19.279970, Alt.=903.633301m. Speed=0.000000m/h.</desc>
<speed>0.000000</speed>
</trkpt>
<trkpt lat="43.165821" lon="19.279970">
<ele>903.617676</ele>
<time>2012-04-29T10:45:20Z</time>
<desc>lat.=43.165821, lon.=19.279970, Alt.=903.617676m. Speed=0.036000m/h.</desc>
<speed>0.010000</speed>
</trkpt>
<trkpt lat="43.165821" lon="19.279972">
<ele>903.602051</ele>
<time>2012-04-29T10:45:25Z</time>
<desc>lat.=43.165821, lon.=19.279972, Alt.=903.602051m. Speed=0.000000m/h.</desc>
<speed>0.000000</speed>
</trkpt>
<trkpt lat="43.165821" lon="19.279972">
<ele>903.586426</ele>
<time>2012-04-29T10:45:30Z</time>
<desc>lat.=43.165821, lon.=19.279972, Alt.=903.586426m. Speed=0.036000m/h.</desc>
<speed>0.010000</speed>
</trkpt>
<trkpt lat="43.165821" lon="19.279972">
<ele>903.570801</ele>
<time>2012-04-29T10:45:35Z</time>
<desc>lat.=43.165821, lon.=19.279972, Alt.=903.570801m. Speed=0.000000m/h.</desc>
<speed>0.000000</speed>
</trkpt>
<trkpt lat="43.165821" lon="19.279970">
<ele>903.570801</ele>
<time>2012-04-29T10:45:40Z</time>
<desc>lat.=43.165821, lon.=19.279970, Alt.=903.570801m. Speed=0.000000m/h.</desc>
<speed>0.000000</speed>
</trkpt>
<trkpt lat="43.165821" lon="19.279970">
<ele>903.555176</ele>
<time>2012-04-29T10:45:45Z</time>
<desc>lat.=43.165821, lon.=19.279970, Alt.=903.555176m. Speed=0.000000m/h.</desc>
<speed>0.000000</speed>
</trkpt>
<trkpt lat="43.165821" lon="19.279970">
<ele>903.555176</ele>
<time>2012-04-29T10:45:50Z</time>
<desc>lat.=43.165821, lon.=19.279970, Alt.=903.555176m. Speed=0.000000m/h.</desc>
<speed>0.000000</speed>
</trkpt>
<trkpt lat="43.165821" lon="19.279970">
<ele>903.539551</ele>
<time>2012-04-29T10:45:55Z</time>
<desc>lat.=43.165821, lon.=19.279970, Alt.=903.539551m. Speed=0.000000m/h.</desc>
<speed>0.000000</speed>
</trkpt>
<trkpt lat="43.165821" lon="19.279970">
<ele>903.555176</ele>
<time>2012-04-29T10:46:00Z</time>
<desc>lat.=43.165821, lon.=19.279970, Alt.=903.555176m. Speed=0.000000m/h.</desc>
<speed>0.000000</speed>
</trkpt>
<trkpt lat="43.165821" lon="19.279970">
<ele>903.555176</ele>
<time>2012-04-29T10:46:05Z</time>
<desc>lat.=43.165821, lon.=19.279970, Alt.=903.555176m. Speed=0.000000m/h.</desc>
<speed>0.000000</speed>
</trkpt>
<trkpt lat="43.165821" lon="19.279970">
<ele>903.570801</ele>
<time>2012-04-29T10:46:10Z</time>
<desc>lat.=43.165821, lon.=19.279970, Alt.=903.570801m. Speed=0.000000m/h.</desc>
<speed>0.000000</speed>
</trkpt>
<trkpt lat="43.165821" lon="19.279970">
<ele>903.586426</ele>
<time>2012-04-29T10:46:15Z</time>
<desc>lat.=43.165821, lon.=19.279970, Alt.=903.586426m. Speed=0.000000m/h.</desc>
<speed>0.000000</speed>
</trkpt>
<trkpt lat="43.165821" lon="19.279970">
<ele>903.586426</ele>
<time>2012-04-29T10:46:20Z</time>
<desc>lat.=43.165821, lon.=19.279970, Alt.=903.586426m. Speed=0.000000m/h.</desc>
<speed>0.000000</speed>
</trkpt>
<trkpt lat="43.165821" lon="19.279970">
<ele>903.586426</ele>
<time>2012-04-29T10:46:25Z</time>
<desc>lat.=43.165821, lon.=19.279970, Alt.=903.586426m. Speed=0.000000m/h.</desc>
<speed>0.000000</speed>
</trkpt>
<trkpt lat="43.165821" lon="19.279970">
<ele>903.602051</ele>
<time>2012-04-29T10:46:30Z</time>
<desc>lat.=43.165821, lon.=19.279970, Alt.=903.602051m. Speed=0.000000m/h.</desc>
<speed>0.000000</speed>
</trkpt>
<trkpt lat="43.165821" lon="19.279972">
<ele>903.602051</ele>
<time>2012-04-29T10:46:35Z</time>
<desc>lat.=43.165821, lon.=19.279972, Alt.=903.602051m. Speed=0.000000m/h.</desc>
<speed>0.000000</speed>
</trkpt>
<trkpt lat="43.165821" lon="19.279972">
<ele>903.617676</ele>
<time>2012-04-29T10:46:40Z</time>
<desc>lat.=43.165821, lon.=19.279972, Alt.=903.617676m. Speed=0.000000m/h.</desc>
<speed>0.000000</speed>
</trkpt>
<trkpt lat="43.165821" lon="19.279970">
<ele>903.648926</ele>
<time>2012-04-29T10:46:45Z</time>
<desc>lat.=43.165821, lon.=19.279970, Alt.=903.648926m. Speed=0.000000m/h.</desc>
<speed>0.000000</speed>
</trkpt>
<trkpt lat="43.165817" lon="19.279970">
<ele>903.680176</ele>
<time>2012-04-29T10:46:50Z</time>
<desc>lat.=43.165817, lon.=19.279970, Alt.=903.680176m. Speed=0.000000m/h.</desc>
<speed>0.000000</speed>
</trkpt>
<trkpt lat="43.165817" lon="19.279970">
<ele>903.711426</ele>
<time>2012-04-29T10:46:55Z</time>
<desc>lat.=43.165817, lon.=19.279970, Alt.=903.711426m. Speed=0.000000m/h.</desc>
<speed>0.000000</speed>
</trkpt>
<trkpt lat="43.165817" lon="19.279970">
<ele>903.742676</ele>
<time>2012-04-29T10:47:00Z</time>
<desc>lat.=43.165817, lon.=19.279970, Alt.=903.742676m. Speed=0.000000m/h.</desc>
<speed>0.000000</speed>
</trkpt>
<trkpt lat="43.165817" lon="19.279970">
<ele>903.742676</ele>
<time>2012-04-29T10:47:05Z</time>
<desc>lat.=43.165817, lon.=19.279970, Alt.=903.742676m. Speed=0.000000m/h.</desc>
<speed>0.000000</speed>
</trkpt>
<trkpt lat="43.165817" lon="19.279970">
<ele>903.758301</ele>
<time>2012-04-29T10:47:10Z</time>
<desc>lat.=43.165817, lon.=19.279970, Alt.=903.758301m. Speed=0.000000m/h.</desc>
<speed>0.000000</speed>
</trkpt>
<trkpt lat="43.165817" lon="19.279970">
<ele>903.773926</ele>
<time>2012-04-29T10:47:15Z</time>
<desc>lat.=43.165817, lon.=19.279970, Alt.=903.773926m. Speed=0.000000m/h.</desc>
<speed>0.000000</speed>
</trkpt>
<trkpt lat="43.165817" lon="19.279970">
<ele>903.789551</ele>
<time>2012-04-29T10:47:20Z</time>
<desc>lat.=43.165817, lon.=19.279970, Alt.=903.789551m. Speed=0.000000m/h.</desc>
<speed>0.000000</speed>
</trkpt>
<trkpt lat="43.165817" lon="19.279970">
<ele>903.789551</ele>
<time>2012-04-29T10:47:25Z</time>
<desc>lat.=43.165817, lon.=19.279970, Alt.=903.789551m. Speed=0.000000m/h.</desc>
<speed>0.000000</speed>
</trkpt>
<trkpt lat="43.165817" lon="19.279970">
<ele>903.773926</ele>
<time>2012-04-29T10:47:30Z</time>
<desc>lat.=43.165817, lon.=19.279970, Alt.=903.773926m. Speed=0.000000m/h.</desc>
<speed>0.000000</speed>
</trkpt>
<trkpt lat="43.165817" lon="19.279970">
<ele>903.773926</ele>
<time>2012-04-29T10:47:35Z</time>
<desc>lat.=43.165817, lon.=19.279970, Alt.=903.773926m. Speed=0.000000m/h.</desc>
<speed>0.000000</speed>
</trkpt>
<trkpt lat="43.165817" lon="19.279970">
<ele>903.758301</ele>
<time>2012-04-29T10:47:40Z</time>
<desc>lat.=43.165817, lon.=19.279970, Alt.=903.758301m. Speed=0.000000m/h.</desc>
<speed>0.000000</speed>
</trkpt>
<trkpt lat="43.165817" lon="19.279970">
<ele>903.758301</ele>
<time>2012-04-29T10:47:45Z</time>
<desc>lat.=43.165817, lon.=19.279970, Alt.=903.758301m. Speed=0.000000m/h.</desc>
<speed>0.000000</speed>
</trkpt>
<trkpt lat="43.165817" lon="19.279970">
<ele>903.789551</ele>
<time>2012-04-29T10:47:50Z</time>
<desc>lat.=43.165817, lon.=19.279970, Alt.=903.789551m. Speed=0.000000m/h.</desc>
<speed>0.000000</speed>
</trkpt>
<trkpt lat="43.165817" lon="19.279970">
<ele>903.805176</ele>
<time>2012-04-29T10:47:55Z</time>
<desc>lat.=43.165817, lon.=19.279970, Alt.=903.805176m. Speed=0.036000m/h.</desc>
<speed>0.010000</speed>
</trkpt>
<trkpt lat="43.165817" lon="19.279970">
<ele>903.805176</ele>
<time>2012-04-29T10:48:00Z</time>
<desc>lat.=43.165817, lon.=19.279970, Alt.=903.805176m. Speed=0.000000m/h.</desc>
<speed>0.000000</speed>
</trkpt>
<trkpt lat="43.165817" lon="19.279970">
<ele>903.789551</ele>
<time>2012-04-29T10:48:05Z</time>
<desc>lat.=43.165817, lon.=19.279970, Alt.=903.789551m. Speed=0.000000m/h.</desc>
<speed>0.000000</speed>
</trkpt>
<trkpt lat="43.165817" lon="19.279972">
<ele>903.773926</ele>
<time>2012-04-29T10:48:10Z</time>
<desc>lat.=43.165817, lon.=19.279972, Alt.=903.773926m. Speed=0.000000m/h.</desc>
<speed>0.000000</speed>
</trkpt>
<trkpt lat="43.165817" lon="19.279972">
<ele>903.758301</ele>
<time>2012-04-29T10:48:15Z</time>
<desc>lat.=43.165817, lon.=19.279972, Alt.=903.758301m. Speed=0.000000m/h.</desc>
<speed>0.000000</speed>
</trkpt>
<trkpt lat="43.165817" lon="19.279972">
<ele>903.680176</ele>
<time>2012-04-29T10:48:20Z</time>
<desc>lat.=43.165817, lon.=19.279972, Alt.=903.680176m. Speed=0.000000m/h.</desc>
<speed>0.000000</speed>
</trkpt>
<trkpt lat="43.165817" lon="19.279972">
<ele>903.727051</ele>
<time>2012-04-29T10:48:25Z</time>
<desc>lat.=43.165817, lon.=19.279972, Alt.=903.727051m. Speed=0.936000m/h.</desc>
<speed>0.260000</speed>
</trkpt>
<trkpt lat="43.165825" lon="19.279972">
<ele>904.117676</ele>
<time>2012-04-29T10:48:30Z</time>
<desc>lat.=43.165825, lon.=19.279972, Alt.=904.117676m. Speed=0.108000m/h.</desc>
<speed>0.030000</speed>
</trkpt>
<trkpt lat="43.165825" lon="19.279970">
<ele>904.164551</ele>
<time>2012-04-29T10:48:35Z</time>
<desc>lat.=43.165825, lon.=19.279970, Alt.=904.164551m. Speed=0.216000m/h.</desc>
<speed>0.060000</speed>
</trkpt>
<trkpt lat="43.165825" lon="19.279970">
<ele>904.195801</ele>
<time>2012-04-29T10:48:40Z</time>
<desc>lat.=43.165825, lon.=19.279970, Alt.=904.195801m. Speed=0.036000m/h.</desc>
<speed>0.010000</speed>
</trkpt>
<trkpt lat="43.165825" lon="19.279970">
<ele>904.195801</ele>
<time>2012-04-29T10:48:45Z</time>
<desc>lat.=43.165825, lon.=19.279970, Alt.=904.195801m. Speed=0.036000m/h.</desc>
<speed>0.010000</speed>
</trkpt>
<trkpt lat="43.165825" lon="19.279970">
<ele>904.195801</ele>
<time>2012-04-29T10:48:50Z</time>
<desc>lat.=43.165825, lon.=19.279970, Alt.=904.195801m. Speed=0.180000m/h.</desc>
<speed>0.050000</speed>
</trkpt>
<trkpt lat="43.165825" lon="19.279970">
<ele>904.180176</ele>
<time>2012-04-29T10:48:55Z</time>
<desc>lat.=43.165825, lon.=19.279970, Alt.=904.180176m. Speed=0.000000m/h.</desc>
<speed>0.000000</speed>
</trkpt>
<trkpt lat="43.165825" lon="19.279970">
<ele>904.180176</ele>
<time>2012-04-29T10:49:00Z</time>
<desc>lat.=43.165825, lon.=19.279970, Alt.=904.180176m. Speed=0.000000m/h.</desc>
<speed>0.000000</speed>
</trkpt>
<trkpt lat="43.165825" lon="19.279970">
<ele>904.164551</ele>
<time>2012-04-29T10:49:05Z</time>
<desc>lat.=43.165825, lon.=19.279970, Alt.=904.164551m. Speed=0.000000m/h.</desc>
<speed>0.000000</speed>
</trkpt>
<trkpt lat="43.165825" lon="19.279970">
<ele>904.164551</ele>
<time>2012-04-29T10:49:10Z</time>
<desc>lat.=43.165825, lon.=19.279970, Alt.=904.164551m. Speed=0.036000m/h.</desc>
<speed>0.010000</speed>
</trkpt>
<trkpt lat="43.165825" lon="19.279970">
<ele>904.164551</ele>
<time>2012-04-29T10:49:15Z</time>
<desc>lat.=43.165825, lon.=19.279970, Alt.=904.164551m. Speed=0.000000m/h.</desc>
<speed>0.000000</speed>
</trkpt>
<trkpt lat="43.165825" lon="19.279970">
<ele>904.164551</ele>
<time>2012-04-29T10:49:20Z</time>
<desc>lat.=43.165825, lon.=19.279970, Alt.=904.164551m. Speed=0.000000m/h.</desc>
<speed>0.000000</speed>
</trkpt>
<trkpt lat="43.165825" lon="19.279970">
<ele>904.164551</ele>
<time>2012-04-29T10:49:25Z</time>
<desc>lat.=43.165825, lon.=19.279970, Alt.=904.164551m. Speed=0.000000m/h.</desc>
<speed>0.000000</speed>
</trkpt>
<trkpt lat="43.165825" lon="19.279970">
<ele>904.164551</ele>
<time>2012-04-29T10:49:30Z</time>
<desc>lat.=43.165825, lon.=19.279970, Alt.=904.164551m. Speed=0.036000m/h.</desc>
<speed>0.010000</speed>
</trkpt>
<trkpt lat="43.165825" lon="19.279970">
<ele>904.164551</ele>
<time>2012-04-29T10:49:35Z</time>
<desc>lat.=43.165825, lon.=19.279970, Alt.=904.164551m. Speed=0.000000m/h.</desc>
<speed>0.000000</speed>
</trkpt>
<trkpt lat="43.165825" lon="19.279970">
<ele>904.164551</ele>
<time>2012-04-29T10:49:40Z</time>
<desc>lat.=43.165825, lon.=19.279970, Alt.=904.164551m. Speed=0.000000m/h.</desc>
<speed>0.000000</speed>
</trkpt>
<trkpt lat="43.165825" lon="19.279970">
<ele>904.164551</ele>
<time>2012-04-29T10:49:45Z</time>
<desc>lat.=43.165825, lon.=19.279970, Alt.=904.164551m. Speed=0.000000m/h.</desc>
<speed>0.000000</speed>
</trkpt>
<trkpt lat="43.165825" lon="19.279970">
<ele>904.164551</ele>
<time>2012-04-29T10:49:50Z</time>
<desc>lat.=43.165825, lon.=19.279970, Alt.=904.164551m. Speed=0.036000m/h.</desc>
<speed>0.010000</speed>
</trkpt>
<trkpt lat="43.165825" lon="19.279970">
<ele>904.164551</ele>
<time>2012-04-29T10:49:55Z</time>
<desc>lat.=43.165825, lon.=19.279970, Alt.=904.164551m. Speed=0.000000m/h.</desc>
<speed>0.000000</speed>
</trkpt>
<trkpt lat="43.165825" lon="19.279970">
<ele>904.164551</ele>
<time>2012-04-29T10:50:00Z</time>
<desc>lat.=43.165825, lon.=19.279970, Alt.=904.164551m. Speed=0.036000m/h.</desc>
<speed>0.010000</speed>
</trkpt>
<trkpt lat="43.165825" lon="19.279970">
<ele>904.164551</ele>
<time>2012-04-29T10:50:05Z</time>
<desc>lat.=43.165825, lon.=19.279970, Alt.=904.164551m. Speed=0.000000m/h.</desc>
<speed>0.000000</speed>
</trkpt>
<trkpt lat="43.165825" lon="19.279970">
<ele>904.164551</ele>
<time>2012-04-29T10:50:10Z</time>
<desc>lat.=43.165825, lon.=19.279970, Alt.=904.164551m. Speed=0.000000m/h.</desc>
<speed>0.000000</speed>
</trkpt>
<trkpt lat="43.165825" lon="19.279970">
<ele>904.164551</ele>
<time>2012-04-29T10:50:15Z</time>
<desc>lat.=43.165825, lon.=19.279970, Alt.=904.164551m. Speed=0.036000m/h.</desc>
<speed>0.010000</speed>
</trkpt>
<trkpt lat="43.165825" lon="19.279970">
<ele>904.164551</ele>
<time>2012-04-29T10:50:20Z</time>
<desc>lat.=43.165825, lon.=19.279970, Alt.=904.164551m. Speed=0.072000m/h.</desc>
<speed>0.020000</speed>
</trkpt>
<trkpt lat="43.165825" lon="19.279970">
<ele>904.180176</ele>
<time>2012-04-29T10:50:25Z</time>
<desc>lat.=43.165825, lon.=19.279970, Alt.=904.180176m. Speed=0.144000m/h.</desc>
<speed>0.040000</speed>
</trkpt>
<trkpt lat="43.165825" lon="19.279968">
<ele>904.180176</ele>
<time>2012-04-29T10:50:30Z</time>
<desc>lat.=43.165825, lon.=19.279968, Alt.=904.180176m. Speed=0.000000m/h.</desc>
<speed>0.000000</speed>
</trkpt>
<trkpt lat="43.165825" lon="19.279968">
<ele>904.164551</ele>
<time>2012-04-29T10:50:35Z</time>
<desc>lat.=43.165825, lon.=19.279968, Alt.=904.164551m. Speed=0.036000m/h.</desc>
<speed>0.010000</speed>
</trkpt>
<trkpt lat="43.165829" lon="19.279968">
<ele>904.148926</ele>
<time>2012-04-29T10:50:40Z</time>
<desc>lat.=43.165829, lon.=19.279968, Alt.=904.148926m. Speed=0.036000m/h.</desc>
<speed>0.010000</speed>
</trkpt>
<trkpt lat="43.165829" lon="19.279968">
<ele>904.133301</ele>
<time>2012-04-29T10:50:45Z</time>
<desc>lat.=43.165829, lon.=19.279968, Alt.=904.133301m. Speed=0.036000m/h.</desc>
<speed>0.010000</speed>
</trkpt>
<trkpt lat="43.165829" lon="19.279968">
<ele>904.117676</ele>
<time>2012-04-29T10:50:50Z</time>
<desc>lat.=43.165829, lon.=19.279968, Alt.=904.117676m. Speed=0.000000m/h.</desc>
<speed>0.000000</speed>
</trkpt>
<trkpt lat="43.165829" lon="19.279968">
<ele>904.117676</ele>
<time>2012-04-29T10:50:55Z</time>
<desc>lat.=43.165829, lon.=19.279968, Alt.=904.117676m. Speed=0.036000m/h.</desc>
<speed>0.010000</speed>
</trkpt>
<trkpt lat="43.165829" lon="19.279968">
<ele>904.117676</ele>
<time>2012-04-29T10:51:00Z</time>
<desc>lat.=43.165829, lon.=19.279968, Alt.=904.117676m. Speed=0.036000m/h.</desc>
<speed>0.010000</speed>
</trkpt>
<trkpt lat="43.165829" lon="19.279968">
<ele>904.117676</ele>
<time>2012-04-29T10:51:05Z</time>
<desc>lat.=43.165829, lon.=19.279968, Alt.=904.117676m. Speed=0.000000m/h.</desc>
<speed>0.000000</speed>
</trkpt>
<trkpt lat="43.165829" lon="19.279968">
<ele>904.102051</ele>
<time>2012-04-29T10:51:10Z</time>
<desc>lat.=43.165829, lon.=19.279968, Alt.=904.102051m. Speed=0.036000m/h.</desc>
<speed>0.010000</speed>
</trkpt>
<trkpt lat="43.165829" lon="19.279968">
<ele>904.102051</ele>
<time>2012-04-29T10:51:15Z</time>
<desc>lat.=43.165829, lon.=19.279968, Alt.=904.102051m. Speed=0.000000m/h.</desc>
<speed>0.000000</speed>
</trkpt>
<trkpt lat="43.165829" lon="19.279968">
<ele>904.102051</ele>
<time>2012-04-29T10:51:20Z</time>
<desc>lat.=43.165829, lon.=19.279968, Alt.=904.102051m. Speed=0.072000m/h.</desc>
<speed>0.020000</speed>
</trkpt>
<trkpt lat="43.165829" lon="19.279968">
<ele>904.102051</ele>
<time>2012-04-29T10:51:25Z</time>
<desc>lat.=43.165829, lon.=19.279968, Alt.=904.102051m. Speed=0.000000m/h.</desc>
<speed>0.000000</speed>
</trkpt>
<trkpt lat="43.165825" lon="19.279968">
<ele>904.117676</ele>
<time>2012-04-29T10:51:30Z</time>
<desc>lat.=43.165825, lon.=19.279968, Alt.=904.117676m. Speed=0.036000m/h.</desc>
<speed>0.010000</speed>
</trkpt>
<trkpt lat="43.165825" lon="19.279968">
<ele>904.117676</ele>
<time>2012-04-29T10:51:35Z</time>
<desc>lat.=43.165825, lon.=19.279968, Alt.=904.117676m. Speed=0.072000m/h.</desc>
<speed>0.020000</speed>
</trkpt>
<trkpt lat="43.165825" lon="19.279968">
<ele>904.117676</ele>
<time>2012-04-29T10:51:40Z</time>
<desc>lat.=43.165825, lon.=19.279968, Alt.=904.117676m. Speed=0.072000m/h.</desc>
<speed>0.020000</speed>
</trkpt>
<trkpt lat="43.165825" lon="19.279968">
<ele>904.117676</ele>
<time>2012-04-29T10:51:45Z</time>
<desc>lat.=43.165825, lon.=19.279968, Alt.=904.117676m. Speed=0.072000m/h.</desc>
<speed>0.020000</speed>
</trkpt>
<trkpt lat="43.165825" lon="19.279968">
<ele>904.102051</ele>
<time>2012-04-29T10:51:50Z</time>
<desc>lat.=43.165825, lon.=19.279968, Alt.=904.102051m. Speed=0.000000m/h.</desc>
<speed>0.000000</speed>
</trkpt>
<trkpt lat="43.165825" lon="19.279968">
<ele>904.102051</ele>
<time>2012-04-29T10:51:55Z</time>
<desc>lat.=43.165825, lon.=19.279968, Alt.=904.102051m. Speed=0.000000m/h.</desc>
<speed>0.000000</speed>
</trkpt>
<trkpt lat="43.165825" lon="19.279968">
<ele>904.117676</ele>
<time>2012-04-29T10:52:00Z</time>
<desc>lat.=43.165825, lon.=19.279968, Alt.=904.117676m. Speed=0.036000m/h.</desc>
<speed>0.010000</speed>
</trkpt>
<trkpt lat="43.165825" lon="19.279968">
<ele>904.117676</ele>
<time>2012-04-29T10:52:05Z</time>
<desc>lat.=43.165825, lon.=19.279968, Alt.=904.117676m. Speed=0.036000m/h.</desc>
<speed>0.010000</speed>
</trkpt>
<trkpt lat="43.165825" lon="19.279968">
<ele>904.117676</ele>
<time>2012-04-29T10:52:10Z</time>
<desc>lat.=43.165825, lon.=19.279968, Alt.=904.117676m. Speed=0.000000m/h.</desc>
<speed>0.000000</speed>
</trkpt>
<trkpt lat="43.165825" lon="19.279968">
<ele>904.102051</ele>
<time>2012-04-29T10:52:15Z</time>
<desc>lat.=43.165825, lon.=19.279968, Alt.=904.102051m. Speed=0.036000m/h.</desc>
<speed>0.010000</speed>
</trkpt>
<trkpt lat="43.165825" lon="19.279968">
<ele>904.102051</ele>
<time>2012-04-29T10:52:20Z</time>
<desc>lat.=43.165825, lon.=19.279968, Alt.=904.102051m. Speed=0.000000m/h.</desc>
<speed>0.000000</speed>
</trkpt>
<trkpt lat="43.165825" lon="19.279968">
<ele>904.070801</ele>
<time>2012-04-29T10:52:25Z</time>
<desc>lat.=43.165825, lon.=19.279968, Alt.=904.070801m. Speed=0.000000m/h.</desc>
<speed>0.000000</speed>
</trkpt>
<trkpt lat="43.165825" lon="19.279968">
<ele>904.055176</ele>
<time>2012-04-29T10:52:30Z</time>
<desc>lat.=43.165825, lon.=19.279968, Alt.=904.055176m. Speed=0.000000m/h.</desc>
<speed>0.000000</speed>
</trkpt>
<trkpt lat="43.165825" lon="19.279968">
<ele>904.039551</ele>
<time>2012-04-29T10:52:35Z</time>
<desc>lat.=43.165825, lon.=19.279968, Alt.=904.039551m. Speed=0.036000m/h.</desc>
<speed>0.010000</speed>
</trkpt>
<trkpt lat="43.165825" lon="19.279968">
<ele>904.055176</ele>
<time>2012-04-29T10:52:40Z</time>
<desc>lat.=43.165825, lon.=19.279968, Alt.=904.055176m. Speed=0.036000m/h.</desc>
<speed>0.010000</speed>
</trkpt>
<trkpt lat="43.165825" lon="19.279968">
<ele>904.055176</ele>
<time>2012-04-29T10:52:45Z</time>
<desc>lat.=43.165825, lon.=19.279968, Alt.=904.055176m. Speed=0.036000m/h.</desc>
<speed>0.010000</speed>
</trkpt>
<trkpt lat="43.165825" lon="19.279968">
<ele>904.039551</ele>
<time>2012-04-29T10:52:50Z</time>
<desc>lat.=43.165825, lon.=19.279968, Alt.=904.039551m. Speed=0.000000m/h.</desc>
<speed>0.000000</speed>
</trkpt>
<trkpt lat="43.165825" lon="19.279968">
<ele>904.039551</ele>
<time>2012-04-29T10:52:55Z</time>
<desc>lat.=43.165825, lon.=19.279968, Alt.=904.039551m. Speed=0.036000m/h.</desc>
<speed>0.010000</speed>
</trkpt>
<trkpt lat="43.165825" lon="19.279968">
<ele>904.039551</ele>
<time>2012-04-29T10:53:00Z</time>
<desc>lat.=43.165825, lon.=19.279968, Alt.=904.039551m. Speed=0.036000m/h.</desc>
<speed>0.010000</speed>
</trkpt>
<trkpt lat="43.165825" lon="19.279968">
<ele>904.039551</ele>
<time>2012-04-29T10:53:05Z</time>
<desc>lat.=43.165825, lon.=19.279968, Alt.=904.039551m. Speed=0.000000m/h.</desc>
<speed>0.000000</speed>
</trkpt>
<trkpt lat="43.165825" lon="19.279968">
<ele>904.055176</ele>
<time>2012-04-29T10:53:10Z</time>
<desc>lat.=43.165825, lon.=19.279968, Alt.=904.055176m. Speed=0.000000m/h.</desc>
<speed>0.000000</speed>
</trkpt>
<trkpt lat="43.165825" lon="19.279968">
<ele>904.039551</ele>
<time>2012-04-29T10:53:15Z</time>
<desc>lat.=43.165825, lon.=19.279968, Alt.=904.039551m. Speed=0.000000m/h.</desc>
<speed>0.000000</speed>
</trkpt>
<trkpt lat="43.165825" lon="19.279968">
<ele>904.039551</ele>
<time>2012-04-29T10:53:20Z</time>
<desc>lat.=43.165825, lon.=19.279968, Alt.=904.039551m. Speed=0.000000m/h.</desc>
<speed>0.000000</speed>
</trkpt>
<trkpt lat="43.165825" lon="19.279968">
<ele>904.039551</ele>
<time>2012-04-29T10:53:25Z</time>
<desc>lat.=43.165825, lon.=19.279968, Alt.=904.039551m. Speed=0.000000m/h.</desc>
<speed>0.000000</speed>
</trkpt>
<trkpt lat="43.165825" lon="19.279968">
<ele>904.039551</ele>
<time>2012-04-29T10:53:30Z</time>
<desc>lat.=43.165825, lon.=19.279968, Alt.=904.039551m. Speed=0.000000m/h.</desc>
<speed>0.000000</speed>
</trkpt>
<trkpt lat="43.165825" lon="19.279968">
<ele>904.023926</ele>
<time>2012-04-29T10:53:35Z</time>
<desc>lat.=43.165825, lon.=19.279968, Alt.=904.023926m. Speed=0.036000m/h.</desc>
<speed>0.010000</speed>
</trkpt>
<trkpt lat="43.165825" lon="19.279968">
<ele>904.008301</ele>
<time>2012-04-29T10:53:40Z</time>
<desc>lat.=43.165825, lon.=19.279968, Alt.=904.008301m. Speed=0.000000m/h.</desc>
<speed>0.000000</speed>
</trkpt>
<trkpt lat="43.165825" lon="19.279966">
<ele>904.008301</ele>
<time>2012-04-29T10:53:45Z</time>
<desc>lat.=43.165825, lon.=19.279966, Alt.=904.008301m. Speed=0.000000m/h.</desc>
<speed>0.000000</speed>
</trkpt>
<trkpt lat="43.165825" lon="19.279966">
<ele>904.008301</ele>
<time>2012-04-29T10:53:50Z</time>
<desc>lat.=43.165825, lon.=19.279966, Alt.=904.008301m. Speed=0.036000m/h.</desc>
<speed>0.010000</speed>
</trkpt>
<trkpt lat="43.165825" lon="19.279966">
<ele>903.992676</ele>
<time>2012-04-29T10:53:55Z</time>
<desc>lat.=43.165825, lon.=19.279966, Alt.=903.992676m. Speed=0.000000m/h.</desc>
<speed>0.000000</speed>
</trkpt>
<trkpt lat="43.165825" lon="19.279966">
<ele>903.977051</ele>
<time>2012-04-29T10:54:00Z</time>
<desc>lat.=43.165825, lon.=19.279966, Alt.=903.977051m. Speed=0.036000m/h.</desc>
<speed>0.010000</speed>
</trkpt>
<trkpt lat="43.165825" lon="19.279968">
<ele>903.977051</ele>
<time>2012-04-29T10:54:05Z</time>
<desc>lat.=43.165825, lon.=19.279968, Alt.=903.977051m. Speed=0.000000m/h.</desc>
<speed>0.000000</speed>
</trkpt>
<trkpt lat="43.165825" lon="19.279968">
<ele>903.961426</ele>
<time>2012-04-29T10:54:10Z</time>
<desc>lat.=43.165825, lon.=19.279968, Alt.=903.961426m. Speed=0.000000m/h.</desc>
<speed>0.000000</speed>
</trkpt>
<trkpt lat="43.165825" lon="19.279968">
<ele>903.961426</ele>
<time>2012-04-29T10:54:15Z</time>
<desc>lat.=43.165825, lon.=19.279968, Alt.=903.961426m. Speed=0.000000m/h.</desc>
<speed>0.000000</speed>
</trkpt>
<trkpt lat="43.165825" lon="19.279966">
<ele>903.961426</ele>
<time>2012-04-29T10:54:20Z</time>
<desc>lat.=43.165825, lon.=19.279966, Alt.=903.961426m. Speed=0.000000m/h.</desc>
<speed>0.000000</speed>
</trkpt>
<trkpt lat="43.165825" lon="19.279966">
<ele>903.961426</ele>
<time>2012-04-29T10:54:25Z</time>
<desc>lat.=43.165825, lon.=19.279966, Alt.=903.961426m. Speed=0.000000m/h.</desc>
<speed>0.000000</speed>
</trkpt>
<trkpt lat="43.165825" lon="19.279968">
<ele>903.945801</ele>
<time>2012-04-29T10:54:30Z</time>
<desc>lat.=43.165825, lon.=19.279968, Alt.=903.945801m. Speed=0.000000m/h.</desc>
<speed>0.000000</speed>
</trkpt>
<trkpt lat="43.165825" lon="19.279968">
<ele>903.945801</ele>
<time>2012-04-29T10:54:35Z</time>
<desc>lat.=43.165825, lon.=19.279968, Alt.=903.945801m. Speed=0.000000m/h.</desc>
<speed>0.000000</speed>
</trkpt>
<trkpt lat="43.165825" lon="19.279968">
<ele>903.914551</ele>
<time>2012-04-29T10:54:40Z</time>
<desc>lat.=43.165825, lon.=19.279968, Alt.=903.914551m. Speed=0.036000m/h.</desc>
<speed>0.010000</speed>
</trkpt>
<trkpt lat="43.165825" lon="19.279968">
<ele>903.914551</ele>
<time>2012-04-29T10:54:45Z</time>
<desc>lat.=43.165825, lon.=19.279968, Alt.=903.914551m. Speed=0.036000m/h.</desc>
<speed>0.010000</speed>
</trkpt>
<trkpt lat="43.165825" lon="19.279968">
<ele>903.898926</ele>
<time>2012-04-29T10:54:50Z</time>
<desc>lat.=43.165825, lon.=19.279968, Alt.=903.898926m. Speed=0.036000m/h.</desc>
<speed>0.010000</speed>
</trkpt>
<trkpt lat="43.165825" lon="19.279968">
<ele>903.914551</ele>
<time>2012-04-29T10:54:55Z</time>
<desc>lat.=43.165825, lon.=19.279968, Alt.=903.914551m. Speed=0.108000m/h.</desc>
<speed>0.030000</speed>
</trkpt>
<trkpt lat="43.165829" lon="19.279964">
<ele>903.695801</ele>
<time>2012-04-29T10:55:00Z</time>
<desc>lat.=43.165829, lon.=19.279964, Alt.=903.695801m. Speed=1.188000m/h.</desc>
<speed>0.330000</speed>
</trkpt>
<trkpt lat="43.165833" lon="19.279816">
<ele>903.430176</ele>
<time>2012-04-29T10:55:05Z</time>
<desc>lat.=43.165833, lon.=19.279816, Alt.=903.430176m. Speed=15.048000m/h.</desc>
<speed>4.180000</speed>
</trkpt>
<trkpt lat="43.165874" lon="19.279530">
<ele>901.602051</ele>
<time>2012-04-29T10:55:10Z</time>
<desc>lat.=43.165874, lon.=19.279530, Alt.=901.602051m. Speed=18.072001m/h.</desc>
<speed>5.020000</speed>
</trkpt>
<trkpt lat="43.165955" lon="19.279253">
<ele>900.133301</ele>
<time>2012-04-29T10:55:15Z</time>
<desc>lat.=43.165955, lon.=19.279253, Alt.=900.133301m. Speed=17.172001m/h.</desc>
<speed>4.770000</speed>
</trkpt>
<trkpt lat="43.166039" lon="19.278969">
<ele>898.398926</ele>
<time>2012-04-29T10:55:20Z</time>
<desc>lat.=43.166039, lon.=19.278969, Alt.=898.398926m. Speed=17.172001m/h.</desc>
<speed>4.770000</speed>
</trkpt>
<trkpt lat="43.166130" lon="19.278687">
<ele>896.867676</ele>
<time>2012-04-29T10:55:25Z</time>
<desc>lat.=43.166130, lon.=19.278687, Alt.=896.867676m. Speed=18.143999m/h.</desc>
<speed>5.040000</speed>
</trkpt>
<trkpt lat="43.166241" lon="19.278440">
<ele>895.820801</ele>
<time>2012-04-29T10:55:30Z</time>
<desc>lat.=43.166241, lon.=19.278440, Alt.=895.820801m. Speed=16.164000m/h.</desc>
<speed>4.490000</speed>
</trkpt>
<trkpt lat="43.166409" lon="19.278145">
<ele>895.664551</ele>
<time>2012-04-29T10:55:35Z</time>
<desc>lat.=43.166409, lon.=19.278145, Alt.=895.664551m. Speed=25.271999m/h.</desc>
<speed>7.020000</speed>
</trkpt>
<trkpt lat="43.166569" lon="19.277885">
<ele>896.008301</ele>
<time>2012-04-29T10:55:40Z</time>
<desc>lat.=43.166569, lon.=19.277885, Alt.=896.008301m. Speed=8.244000m/h.</desc>
<speed>2.290000</speed>
</trkpt>
<trkpt lat="43.166603" lon="19.277822">
<ele>896.695801</ele>
<time>2012-04-29T10:55:45Z</time>
<desc>lat.=43.166603, lon.=19.277822, Alt.=896.695801m. Speed=5.508000m/h.</desc>
<speed>1.530000</speed>
</trkpt>
<trkpt lat="43.166721" lon="19.277641">
<ele>897.586426</ele>
<time>2012-04-29T10:55:50Z</time>
<desc>lat.=43.166721, lon.=19.277641, Alt.=897.586426m. Speed=18.540001m/h.</desc>
<speed>5.150000</speed>
</trkpt>
<trkpt lat="43.166969" lon="19.277294">
<ele>897.805176</ele>
<time>2012-04-29T10:55:55Z</time>
<desc>lat.=43.166969, lon.=19.277294, Alt.=897.805176m. Speed=33.119999m/h.</desc>
<speed>9.200000</speed>
</trkpt>
<trkpt lat="43.167244" lon="19.276838">
<ele>898.070801</ele>
<time>2012-04-29T10:56:00Z</time>
<desc>lat.=43.167244, lon.=19.276838, Alt.=898.070801m. Speed=32.112000m/h.</desc>
<speed>8.920000</speed>
</trkpt>
<trkpt lat="43.167465" lon="19.276268">
<ele>897.914551</ele>
<time>2012-04-29T10:56:05Z</time>
<desc>lat.=43.167465, lon.=19.276268, Alt.=897.914551m. Speed=32.183998m/h.</desc>
<speed>8.939999</speed>
</trkpt>
<trkpt lat="43.167721" lon="19.275862">
<ele>897.133301</ele>
<time>2012-04-29T10:56:10Z</time>
<desc>lat.=43.167721, lon.=19.275862, Alt.=897.133301m. Speed=30.600000m/h.</desc>
<speed>8.500000</speed>
</trkpt>
<trkpt lat="43.167942" lon="19.275469">
<ele>896.398926</ele>
<time>2012-04-29T10:56:15Z</time>
<desc>lat.=43.167942, lon.=19.275469, Alt.=896.398926m. Speed=22.643999m/h.</desc>
<speed>6.290000</speed>
</trkpt>
<trkpt lat="43.168034" lon="19.275284">
<ele>896.117676</ele>
<time>2012-04-29T10:56:20Z</time>
<desc>lat.=43.168034, lon.=19.275284, Alt.=896.117676m. Speed=5.868000m/h.</desc>
<speed>1.630000</speed>
</trkpt>
<trkpt lat="43.168072" lon="19.275215">
<ele>895.789551</ele>
<time>2012-04-29T10:56:25Z</time>
<desc>lat.=43.168072, lon.=19.275215, Alt.=895.789551m. Speed=2.952000m/h.</desc>
<speed>0.820000</speed>
</trkpt>
<trkpt lat="43.168102" lon="19.275095">
<ele>895.617676</ele>
<time>2012-04-29T10:56:30Z</time>
<desc>lat.=43.168102, lon.=19.275095, Alt.=895.617676m. Speed=11.124000m/h.</desc>
<speed>3.090000</speed>
</trkpt>
<trkpt lat="43.168156" lon="19.274967">
<ele>895.477051</ele>
<time>2012-04-29T10:56:35Z</time>
<desc>lat.=43.168156, lon.=19.274967, Alt.=895.477051m. Speed=9.504000m/h.</desc>
<speed>2.640000</speed>
</trkpt>
<trkpt lat="43.168221" lon="19.274696">
<ele>895.789551</ele>
<time>2012-04-29T10:56:40Z</time>
<desc>lat.=43.168221, lon.=19.274696, Alt.=895.789551m. Speed=16.236000m/h.</desc>
<speed>4.510000</speed>
</trkpt>
<trkpt lat="43.168312" lon="19.274401">
<ele>893.930176</ele>
<time>2012-04-29T10:56:45Z</time>
<desc>lat.=43.168312, lon.=19.274401, Alt.=893.930176m. Speed=21.996000m/h.</desc>
<speed>6.110000</speed>
</trkpt>
<trkpt lat="43.168495" lon="19.274059">
<ele>890.320801</ele>
<time>2012-04-29T10:56:50Z</time>
<desc>lat.=43.168495, lon.=19.274059, Alt.=890.320801m. Speed=26.820000m/h.</desc>
<speed>7.450000</speed>
</trkpt>
<trkpt lat="43.168690" lon="19.273623">
<ele>883.320801</ele>
<time>2012-04-29T10:56:55Z</time>
<desc>lat.=43.168690, lon.=19.273623, Alt.=883.320801m. Speed=28.584000m/h.</desc>
<speed>7.940000</speed>
</trkpt>
<trkpt lat="43.168755" lon="19.273140">
<ele>880.805176</ele>
<time>2012-04-29T10:57:00Z</time>
<desc>lat.=43.168755, lon.=19.273140, Alt.=880.805176m. Speed=27.396000m/h.</desc>
<speed>7.610000</speed>
</trkpt>
<trkpt lat="43.168819" lon="19.272734">
<ele>878.180176</ele>
<time>2012-04-29T10:57:05Z</time>
<desc>lat.=43.168819, lon.=19.272734, Alt.=878.180176m. Speed=18.143999m/h.</desc>
<speed>5.040000</speed>
</trkpt>
<trkpt lat="43.168861" lon="19.272530">
<ele>876.945801</ele>
<time>2012-04-29T10:57:10Z</time>
<desc>lat.=43.168861, lon.=19.272530, Alt.=876.945801m. Speed=10.368000m/h.</desc>
<speed>2.880000</speed>
</trkpt>
<trkpt lat="43.168903" lon="19.272392">
<ele>876.445801</ele>
<time>2012-04-29T10:57:15Z</time>
<desc>lat.=43.168903, lon.=19.272392, Alt.=876.445801m. Speed=6.084000m/h.</desc>
<speed>1.690000</speed>
</trkpt>
<trkpt lat="43.168930" lon="19.272316">
<ele>874.992676</ele>
<time>2012-04-29T10:57:20Z</time>
<desc>lat.=43.168930, lon.=19.272316, Alt.=874.992676m. Speed=5.544000m/h.</desc>
<speed>1.540000</speed>
</trkpt>
<trkpt lat="43.168949" lon="19.272165">
<ele>873.633301</ele>
<time>2012-04-29T10:57:25Z</time>
<desc>lat.=43.168949, lon.=19.272165, Alt.=873.633301m. Speed=11.052000m/h.</desc>
<speed>3.070000</speed>
</trkpt>
<trkpt lat="43.168976" lon="19.271915">
<ele>872.336426</ele>
<time>2012-04-29T10:57:30Z</time>
<desc>lat.=43.168976, lon.=19.271915, Alt.=872.336426m. Speed=18.035999m/h.</desc>
<speed>5.010000</speed>
</trkpt>
<trkpt lat="43.169163" lon="19.271544">
<ele>868.523926</ele>
<time>2012-04-29T10:57:35Z</time>
<desc>lat.=43.169163, lon.=19.271544, Alt.=868.523926m. Speed=31.788000m/h.</desc>
<speed>8.830000</speed>
</trkpt>
<trkpt lat="43.169342" lon="19.271019">
<ele>864.758301</ele>
<time>2012-04-29T10:57:40Z</time>
<desc>lat.=43.169342, lon.=19.271019, Alt.=864.758301m. Speed=33.155998m/h.</desc>
<speed>9.210000</speed>
</trkpt>
<trkpt lat="43.169327" lon="19.270548">
<ele>862.867676</ele>
<time>2012-04-29T10:57:45Z</time>
<desc>lat.=43.169327, lon.=19.270548, Alt.=862.867676m. Speed=20.771999m/h.</desc>
<speed>5.770000</speed>
</trkpt>
<trkpt lat="43.169315" lon="19.270287">
<ele>860.711426</ele>
<time>2012-04-29T10:57:50Z</time>
<desc>lat.=43.169315, lon.=19.270287, Alt.=860.711426m. Speed=14.328000m/h.</desc>
<speed>3.980000</speed>
</trkpt>
<trkpt lat="43.169342" lon="19.270081">
<ele>859.367676</ele>
<time>2012-04-29T10:57:55Z</time>
<desc>lat.=43.169342, lon.=19.270081, Alt.=859.367676m. Speed=10.188000m/h.</desc>
<speed>2.830000</speed>
</trkpt>
<trkpt lat="43.169392" lon="19.269905">
<ele>860.977051</ele>
<time>2012-04-29T10:58:00Z</time>
<desc>lat.=43.169392, lon.=19.269905, Alt.=860.977051m. Speed=8.424000m/h.</desc>
<speed>2.340000</speed>
</trkpt>
<trkpt lat="43.169430" lon="19.269846">
<ele>863.758301</ele>
<time>2012-04-29T10:58:05Z</time>
<desc>lat.=43.169430, lon.=19.269846, Alt.=863.758301m. Speed=2.736000m/h.</desc>
<speed>0.760000</speed>
</trkpt>
<trkpt lat="43.169434" lon="19.269836">
<ele>864.305176</ele>
<time>2012-04-29T10:58:10Z</time>
<desc>lat.=43.169434, lon.=19.269836, Alt.=864.305176m. Speed=0.108000m/h.</desc>
<speed>0.030000</speed>
</trkpt>
<trkpt lat="43.169434" lon="19.269838">
<ele>864.430176</ele>
<time>2012-04-29T10:58:15Z</time>
<desc>lat.=43.169434, lon.=19.269838, Alt.=864.430176m. Speed=0.108000m/h.</desc>
<speed>0.030000</speed>
</trkpt>
<trkpt lat="43.169434" lon="19.269838">
<ele>864.508301</ele>
<time>2012-04-29T10:58:20Z</time>
<desc>lat.=43.169434, lon.=19.269838, Alt.=864.508301m. Speed=0.468000m/h.</desc>
<speed>0.130000</speed>
</trkpt>
<trkpt lat="43.169434" lon="19.269838">
<ele>864.492676</ele>
<time>2012-04-29T10:58:25Z</time>
<desc>lat.=43.169434, lon.=19.269838, Alt.=864.492676m. Speed=0.036000m/h.</desc>
<speed>0.010000</speed>
</trkpt>
<trkpt lat="43.169434" lon="19.269838">
<ele>864.508301</ele>
<time>2012-04-29T10:58:30Z</time>
<desc>lat.=43.169434, lon.=19.269838, Alt.=864.508301m. Speed=0.000000m/h.</desc>
<speed>0.000000</speed>
</trkpt>
<trkpt lat="43.169434" lon="19.269838">
<ele>864.539551</ele>
<time>2012-04-29T10:58:35Z</time>
<desc>lat.=43.169434, lon.=19.269838, Alt.=864.539551m. Speed=0.036000m/h.</desc>
<speed>0.010000</speed>
</trkpt>
<trkpt lat="43.169434" lon="19.269838">
<ele>864.586426</ele>
<time>2012-04-29T10:58:40Z</time>
<desc>lat.=43.169434, lon.=19.269838, Alt.=864.586426m. Speed=0.000000m/h.</desc>
<speed>0.000000</speed>
</trkpt>
<trkpt lat="43.169434" lon="19.269838">
<ele>864.602051</ele>
<time>2012-04-29T10:58:45Z</time>
<desc>lat.=43.169434, lon.=19.269838, Alt.=864.602051m. Speed=0.108000m/h.</desc>
<speed>0.030000</speed>
</trkpt>
<trkpt lat="43.169453" lon="19.269823">
<ele>864.867676</ele>
<time>2012-04-29T10:58:50Z</time>
<desc>lat.=43.169453, lon.=19.269823, Alt.=864.867676m. Speed=3.276000m/h.</desc>
<speed>0.910000</speed>
</trkpt>
<trkpt lat="43.169464" lon="19.269817">
<ele>866.352051</ele>
<time>2012-04-29T10:58:55Z</time>
<desc>lat.=43.169464, lon.=19.269817, Alt.=866.352051m. Speed=0.108000m/h.</desc>
<speed>0.030000</speed>
</trkpt>
<trkpt lat="43.169464" lon="19.269817">
<ele>866.383301</ele>
<time>2012-04-29T10:59:00Z</time>
<desc>lat.=43.169464, lon.=19.269817, Alt.=866.383301m. Speed=1.296000m/h.</desc>
<speed>0.360000</speed>
</trkpt>
<trkpt lat="43.169559" lon="19.269817">
<ele>866.789551</ele>
<time>2012-04-29T10:59:05Z</time>
<desc>lat.=43.169559, lon.=19.269817, Alt.=866.789551m. Speed=10.116000m/h.</desc>
<speed>2.810000</speed>
</trkpt>
<trkpt lat="43.169693" lon="19.269787">
<ele>866.102051</ele>
<time>2012-04-29T10:59:10Z</time>
<desc>lat.=43.169693, lon.=19.269787, Alt.=866.102051m. Speed=12.132000m/h.</desc>
<speed>3.370000</speed>
</trkpt>
<trkpt lat="43.169861" lon="19.269806">
<ele>866.320801</ele>
<time>2012-04-29T10:59:15Z</time>
<desc>lat.=43.169861, lon.=19.269806, Alt.=866.320801m. Speed=12.780000m/h.</desc>
<speed>3.550000</speed>
</trkpt>
<trkpt lat="43.170010" lon="19.269831">
<ele>866.977051</ele>
<time>2012-04-29T10:59:20Z</time>
<desc>lat.=43.170010, lon.=19.269831, Alt.=866.977051m. Speed=12.564000m/h.</desc>
<speed>3.490000</speed>
</trkpt>
<trkpt lat="43.170151" lon="19.269770">
<ele>868.195801</ele>
<time>2012-04-29T10:59:25Z</time>
<desc>lat.=43.170151, lon.=19.269770, Alt.=868.195801m. Speed=9.144000m/h.</desc>
<speed>2.540000</speed>
</trkpt>
<trkpt lat="43.170254" lon="19.269720">
<ele>871.180176</ele>
<time>2012-04-29T10:59:30Z</time>
<desc>lat.=43.170254, lon.=19.269720, Alt.=871.180176m. Speed=11.232000m/h.</desc>
<speed>3.120000</speed>
</trkpt>
<trkpt lat="43.170441" lon="19.269728">
<ele>871.898926</ele>
<time>2012-04-29T10:59:35Z</time>
<desc>lat.=43.170441, lon.=19.269728, Alt.=871.898926m. Speed=18.180000m/h.</desc>
<speed>5.050000</speed>
</trkpt>
<trkpt lat="43.170753" lon="19.269669">
<ele>867.398926</ele>
<time>2012-04-29T10:59:40Z</time>
<desc>lat.=43.170753, lon.=19.269669, Alt.=867.398926m. Speed=29.771999m/h.</desc>
<speed>8.270000</speed>
</trkpt>
<trkpt lat="43.171093" lon="19.269472">
<ele>865.055176</ele>
<time>2012-04-29T10:59:45Z</time>
<desc>lat.=43.171093, lon.=19.269472, Alt.=865.055176m. Speed=25.308001m/h.</desc>
<speed>7.030000</speed>
</trkpt>
<trkpt lat="43.171326" lon="19.269163">
<ele>862.289551</ele>
<time>2012-04-29T10:59:50Z</time>
<desc>lat.=43.171326, lon.=19.269163, Alt.=862.289551m. Speed=26.892000m/h.</desc>
<speed>7.470000</speed>
</trkpt>
<trkpt lat="43.171486" lon="19.268686">
<ele>860.164551</ele>
<time>2012-04-29T10:59:55Z</time>
<desc>lat.=43.171486, lon.=19.268686, Alt.=860.164551m. Speed=27.936001m/h.</desc>
<speed>7.760000</speed>
</trkpt>
<trkpt lat="43.171535" lon="19.268549">
<ele>859.445801</ele>
<time>2012-04-29T11:00:00Z</time>
<desc>lat.=43.171535, lon.=19.268549, Alt.=859.445801m. Speed=1.872000m/h.</desc>
<speed>0.520000</speed>
</trkpt>
<trkpt lat="43.171528" lon="19.268572">
<ele>859.602051</ele>
<time>2012-04-29T11:00:05Z</time>
<desc>lat.=43.171528, lon.=19.268572, Alt.=859.602051m. Speed=0.216000m/h.</desc>
<speed>0.060000</speed>
</trkpt>
<trkpt lat="43.171528" lon="19.268572">
<ele>859.727051</ele>
<time>2012-04-29T11:00:10Z</time>
<desc>lat.=43.171528, lon.=19.268572, Alt.=859.727051m. Speed=0.072000m/h.</desc>
<speed>0.020000</speed>
</trkpt>
<trkpt lat="43.171524" lon="19.268530">
<ele>859.695801</ele>
<time>2012-04-29T11:00:15Z</time>
<desc>lat.=43.171524, lon.=19.268530, Alt.=859.695801m. Speed=6.300000m/h.</desc>
<speed>1.750000</speed>
</trkpt>
<trkpt lat="43.171551" lon="19.268419">
<ele>859.883301</ele>
<time>2012-04-29T11:00:20Z</time>
<desc>lat.=43.171551, lon.=19.268419, Alt.=859.883301m. Speed=8.136000m/h.</desc>
<speed>2.260000</speed>
</trkpt>
<trkpt lat="43.171593" lon="19.268219">
<ele>859.305176</ele>
<time>2012-04-29T11:00:25Z</time>
<desc>lat.=43.171593, lon.=19.268219, Alt.=859.305176m. Speed=15.660000m/h.</desc>
<speed>4.350000</speed>
</trkpt>
<trkpt lat="43.171730" lon="19.267992">
<ele>857.180176</ele>
<time>2012-04-29T11:00:30Z</time>
<desc>lat.=43.171730, lon.=19.267992, Alt.=857.180176m. Speed=21.636000m/h.</desc>
<speed>6.010000</speed>
</trkpt>
<trkpt lat="43.172020" lon="19.267708">
<ele>853.945801</ele>
<time>2012-04-29T11:00:35Z</time>
<desc>lat.=43.172020, lon.=19.267708, Alt.=853.945801m. Speed=30.672001m/h.</desc>
<speed>8.520000</speed>
</trkpt>
<trkpt lat="43.172352" lon="19.267452">
<ele>850.492676</ele>
<time>2012-04-29T11:00:40Z</time>
<desc>lat.=43.172352, lon.=19.267452, Alt.=850.492676m. Speed=27.719999m/h.</desc>
<speed>7.700000</speed>
</trkpt>
<trkpt lat="43.172642" lon="19.267229">
<ele>847.008301</ele>
<time>2012-04-29T11:00:45Z</time>
<desc>lat.=43.172642, lon.=19.267229, Alt.=847.008301m. Speed=22.896000m/h.</desc>
<speed>6.360000</speed>
</trkpt>
<trkpt lat="43.172737" lon="19.266909">
<ele>845.180176</ele>
<time>2012-04-29T11:00:50Z</time>
<desc>lat.=43.172737, lon.=19.266909, Alt.=845.180176m. Speed=21.888000m/h.</desc>
<speed>6.080000</speed>
</trkpt>
<trkpt lat="43.172760" lon="19.266537">
<ele>844.711426</ele>
<time>2012-04-29T11:00:55Z</time>
<desc>lat.=43.172760, lon.=19.266537, Alt.=844.711426m. Speed=23.976000m/h.</desc>
<speed>6.660000</speed>
</trkpt>
<trkpt lat="43.172844" lon="19.266085">
<ele>841.555176</ele>
<time>2012-04-29T11:01:00Z</time>
<desc>lat.=43.172844, lon.=19.266085, Alt.=841.555176m. Speed=27.540001m/h.</desc>
<speed>7.650000</speed>
</trkpt>
<trkpt lat="43.173004" lon="19.265711">
<ele>842.023926</ele>
<time>2012-04-29T11:01:05Z</time>
<desc>lat.=43.173004, lon.=19.265711, Alt.=842.023926m. Speed=25.596001m/h.</desc>
<speed>7.110000</speed>
</trkpt>
<trkpt lat="43.173241" lon="19.265459">
<ele>842.461426</ele>
<time>2012-04-29T11:01:10Z</time>
<desc>lat.=43.173241, lon.=19.265459, Alt.=842.461426m. Speed=19.548000m/h.</desc>
<speed>5.430000</speed>
</trkpt>
<trkpt lat="43.173447" lon="19.265301">
<ele>844.836426</ele>
<time>2012-04-29T11:01:15Z</time>
<desc>lat.=43.173447, lon.=19.265301, Alt.=844.836426m. Speed=19.260000m/h.</desc>
<speed>5.350000</speed>
</trkpt>
<trkpt lat="43.173702" lon="19.265232">
<ele>843.664551</ele>
<time>2012-04-29T11:01:20Z</time>
<desc>lat.=43.173702, lon.=19.265232, Alt.=843.664551m. Speed=19.332001m/h.</desc>
<speed>5.370000</speed>
</trkpt>
<trkpt lat="43.173882" lon="19.265324">
<ele>838.289551</ele>
<time>2012-04-29T11:01:25Z</time>
<desc>lat.=43.173882, lon.=19.265324, Alt.=838.289551m. Speed=14.652000m/h.</desc>
<speed>4.070000</speed>
</trkpt>
<trkpt lat="43.173866" lon="19.265587">
<ele>836.445801</ele>
<time>2012-04-29T11:01:30Z</time>
<desc>lat.=43.173866, lon.=19.265587, Alt.=836.445801m. Speed=16.344000m/h.</desc>
<speed>4.540000</speed>
</trkpt>
<trkpt lat="43.173931" lon="19.265854">
<ele>832.492676</ele>
<time>2012-04-29T11:01:35Z</time>
<desc>lat.=43.173931, lon.=19.265854, Alt.=832.492676m. Speed=14.220000m/h.</desc>
<speed>3.950000</speed>
</trkpt>
<trkpt lat="43.174049" lon="19.265846">
<ele>830.008301</ele>
<time>2012-04-29T11:01:40Z</time>
<desc>lat.=43.174049, lon.=19.265846, Alt.=830.008301m. Speed=15.156000m/h.</desc>
<speed>4.210000</speed>
</trkpt>
<trkpt lat="43.174202" lon="19.265667">
<ele>829.102051</ele>
<time>2012-04-29T11:01:45Z</time>
<desc>lat.=43.174202, lon.=19.265667, Alt.=829.102051m. Speed=14.652000m/h.</desc>
<speed>4.070000</speed>
</trkpt>
<trkpt lat="43.174347" lon="19.265453">
<ele>826.320801</ele>
<time>2012-04-29T11:01:50Z</time>
<desc>lat.=43.174347, lon.=19.265453, Alt.=826.320801m. Speed=18.827999m/h.</desc>
<speed>5.230000</speed>
</trkpt>
<trkpt lat="43.174500" lon="19.265116">
<ele>824.102051</ele>
<time>2012-04-29T11:01:55Z</time>
<desc>lat.=43.174500, lon.=19.265116, Alt.=824.102051m. Speed=22.212000m/h.</desc>
<speed>6.170000</speed>
</trkpt>
<trkpt lat="43.174553" lon="19.264828">
<ele>822.680176</ele>
<time>2012-04-29T11:02:00Z</time>
<desc>lat.=43.174553, lon.=19.264828, Alt.=822.680176m. Speed=11.232000m/h.</desc>
<speed>3.120000</speed>
</trkpt>
<trkpt lat="43.174629" lon="19.264736">
<ele>820.195801</ele>
<time>2012-04-29T11:02:05Z</time>
<desc>lat.=43.174629, lon.=19.264736, Alt.=820.195801m. Speed=14.040000m/h.</desc>
<speed>3.900000</speed>
</trkpt>
<trkpt lat="43.174797" lon="19.264563">
<ele>816.055176</ele>
<time>2012-04-29T11:02:10Z</time>
<desc>lat.=43.174797, lon.=19.264563, Alt.=816.055176m. Speed=19.403999m/h.</desc>
<speed>5.390000</speed>
</trkpt>
<trkpt lat="43.174995" lon="19.264284">
<ele>814.320801</ele>
<time>2012-04-29T11:02:15Z</time>
<desc>lat.=43.174995, lon.=19.264284, Alt.=814.320801m. Speed=28.152000m/h.</desc>
<speed>7.820000</speed>
</trkpt>
<trkpt lat="43.175201" lon="19.263880">
<ele>809.508301</ele>
<time>2012-04-29T11:02:20Z</time>
<desc>lat.=43.175201, lon.=19.263880, Alt.=809.508301m. Speed=21.851999m/h.</desc>
<speed>6.070000</speed>
</trkpt>
<trkpt lat="43.175323" lon="19.263517">
<ele>808.352051</ele>
<time>2012-04-29T11:02:25Z</time>
<desc>lat.=43.175323, lon.=19.263517, Alt.=808.352051m. Speed=20.052000m/h.</desc>
<speed>5.570000</speed>
</trkpt>
<trkpt lat="43.175541" lon="19.263203">
<ele>807.617676</ele>
<time>2012-04-29T11:02:30Z</time>
<desc>lat.=43.175541, lon.=19.263203, Alt.=807.617676m. Speed=26.496000m/h.</desc>
<speed>7.360000</speed>
</trkpt>
<trkpt lat="43.175625" lon="19.262796">
<ele>805.320801</ele>
<time>2012-04-29T11:02:35Z</time>
<desc>lat.=43.175625, lon.=19.262796, Alt.=805.320801m. Speed=22.643999m/h.</desc>
<speed>6.290000</speed>
</trkpt>
<trkpt lat="43.175716" lon="19.262373">
<ele>800.992676</ele>
<time>2012-04-29T11:02:40Z</time>
<desc>lat.=43.175716, lon.=19.262373, Alt.=800.992676m. Speed=27.684000m/h.</desc>
<speed>7.690000</speed>
</trkpt>
<trkpt lat="43.175835" lon="19.261938">
<ele>801.039551</ele>
<time>2012-04-29T11:02:45Z</time>
<desc>lat.=43.175835, lon.=19.261938, Alt.=801.039551m. Speed=20.952000m/h.</desc>
<speed>5.820000</speed>
</trkpt>
<trkpt lat="43.175930" lon="19.261715">
<ele>804.695801</ele>
<time>2012-04-29T11:02:50Z</time>
<desc>lat.=43.175930, lon.=19.261715, Alt.=804.695801m. Speed=8.928000m/h.</desc>
<speed>2.480000</speed>
</trkpt>
<trkpt lat="43.175949" lon="19.261644">
<ele>803.852051</ele>
<time>2012-04-29T11:02:55Z</time>
<desc>lat.=43.175949, lon.=19.261644, Alt.=803.852051m. Speed=0.036000m/h.</desc>
<speed>0.010000</speed>
</trkpt>
<trkpt lat="43.175949" lon="19.261637">
<ele>802.805176</ele>
<time>2012-04-29T11:03:00Z</time>
<desc>lat.=43.175949, lon.=19.261637, Alt.=802.805176m. Speed=0.396000m/h.</desc>
<speed>0.110000</speed>
</trkpt>
<trkpt lat="43.175949" lon="19.261633">
<ele>802.852051</ele>
<time>2012-04-29T11:03:05Z</time>
<desc>lat.=43.175949, lon.=19.261633, Alt.=802.852051m. Speed=0.108000m/h.</desc>
<speed>0.030000</speed>
</trkpt>
<trkpt lat="43.175949" lon="19.261633">
<ele>802.898926</ele>
<time>2012-04-29T11:03:10Z</time>
<desc>lat.=43.175949, lon.=19.261633, Alt.=802.898926m. Speed=0.144000m/h.</desc>
<speed>0.040000</speed>
</trkpt>
<trkpt lat="43.176025" lon="19.261528">
<ele>802.164551</ele>
<time>2012-04-29T11:03:15Z</time>
<desc>lat.=43.176025, lon.=19.261528, Alt.=802.164551m. Speed=18.431999m/h.</desc>
<speed>5.120000</speed>
</trkpt>
<trkpt lat="43.176224" lon="19.261290">
<ele>797.602051</ele>
<time>2012-04-29T11:03:20Z</time>
<desc>lat.=43.176224, lon.=19.261290, Alt.=797.602051m. Speed=18.360001m/h.</desc>
<speed>5.100000</speed>
</trkpt>
<trkpt lat="43.176403" lon="19.261068">
<ele>791.711426</ele>
<time>2012-04-29T11:03:25Z</time>
<desc>lat.=43.176403, lon.=19.261068, Alt.=791.711426m. Speed=19.115999m/h.</desc>
<speed>5.310000</speed>
</trkpt>
<trkpt lat="43.176643" lon="19.260815">
<ele>788.477051</ele>
<time>2012-04-29T11:03:30Z</time>
<desc>lat.=43.176643, lon.=19.260815, Alt.=788.477051m. Speed=27.323999m/h.</desc>
<speed>7.590000</speed>
</trkpt>
<trkpt lat="43.176910" lon="19.260481">
<ele>786.117676</ele>
<time>2012-04-29T11:03:35Z</time>
<desc>lat.=43.176910, lon.=19.260481, Alt.=786.117676m. Speed=21.996000m/h.</desc>
<speed>6.110000</speed>
</trkpt>
<trkpt lat="43.177036" lon="19.260237">
<ele>786.539551</ele>
<time>2012-04-29T11:03:40Z</time>
<desc>lat.=43.177036, lon.=19.260237, Alt.=786.539551m. Speed=8.496000m/h.</desc>
<speed>2.360000</speed>
</trkpt>
<trkpt lat="43.177113" lon="19.260149">
<ele>787.898926</ele>
<time>2012-04-29T11:03:45Z</time>
<desc>lat.=43.177113, lon.=19.260149, Alt.=787.898926m. Speed=6.300000m/h.</desc>
<speed>1.750000</speed>
</trkpt>
<trkpt lat="43.177200" lon="19.260111">
<ele>789.633301</ele>
<time>2012-04-29T11:03:50Z</time>
<desc>lat.=43.177200, lon.=19.260111, Alt.=789.633301m. Speed=6.984000m/h.</desc>
<speed>1.940000</speed>
</trkpt>
<trkpt lat="43.177303" lon="19.260035">
<ele>791.555176</ele>
<time>2012-04-29T11:03:55Z</time>
<desc>lat.=43.177303, lon.=19.260035, Alt.=791.555176m. Speed=14.724000m/h.</desc>
<speed>4.090000</speed>
</trkpt>
<trkpt lat="43.177544" lon="19.259869">
<ele>790.570801</ele>
<time>2012-04-29T11:04:00Z</time>
<desc>lat.=43.177544, lon.=19.259869, Alt.=790.570801m. Speed=22.752001m/h.</desc>
<speed>6.320000</speed>
</trkpt>
<trkpt lat="43.177811" lon="19.259619">
<ele>789.570801</ele>
<time>2012-04-29T11:04:05Z</time>
<desc>lat.=43.177811, lon.=19.259619, Alt.=789.570801m. Speed=23.076000m/h.</desc>
<speed>6.410000</speed>
</trkpt>
<trkpt lat="43.178059" lon="19.259401">
<ele>786.570801</ele>
<time>2012-04-29T11:04:10Z</time>
<desc>lat.=43.178059, lon.=19.259401, Alt.=786.570801m. Speed=22.968000m/h.</desc>
<speed>6.380000</speed>
</trkpt>
<trkpt lat="43.178288" lon="19.259146">
<ele>786.273926</ele>
<time>2012-04-29T11:04:15Z</time>
<desc>lat.=43.178288, lon.=19.259146, Alt.=786.273926m. Speed=21.816000m/h.</desc>
<speed>6.060000</speed>
</trkpt>
<trkpt lat="43.178482" lon="19.258904">
<ele>785.883301</ele>
<time>2012-04-29T11:04:20Z</time>
<desc>lat.=43.178482, lon.=19.258904, Alt.=785.883301m. Speed=18.288000m/h.</desc>
<speed>5.080000</speed>
</trkpt>
<trkpt lat="43.178604" lon="19.258684">
<ele>785.695801</ele>
<time>2012-04-29T11:04:25Z</time>
<desc>lat.=43.178604, lon.=19.258684, Alt.=785.695801m. Speed=15.300000m/h.</desc>
<speed>4.250000</speed>
</trkpt>
<trkpt lat="43.178749" lon="19.258461">
<ele>782.898926</ele>
<time>2012-04-29T11:04:30Z</time>
<desc>lat.=43.178749, lon.=19.258461, Alt.=782.898926m. Speed=17.388000m/h.</desc>
<speed>4.830000</speed>
</trkpt>
<trkpt lat="43.178925" lon="19.258423">
<ele>780.695801</ele>
<time>2012-04-29T11:04:35Z</time>
<desc>lat.=43.178925, lon.=19.258423, Alt.=780.695801m. Speed=14.832000m/h.</desc>
<speed>4.120000</speed>
</trkpt>
<trkpt lat="43.179127" lon="19.258423">
<ele>773.867676</ele>
<time>2012-04-29T11:04:40Z</time>
<desc>lat.=43.179127, lon.=19.258423, Alt.=773.867676m. Speed=16.416000m/h.</desc>
<speed>4.560000</speed>
</trkpt>
<trkpt lat="43.179340" lon="19.258465">
<ele>769.945801</ele>
<time>2012-04-29T11:04:45Z</time>
<desc>lat.=43.179340, lon.=19.258465, Alt.=769.945801m. Speed=19.368000m/h.</desc>
<speed>5.380000</speed>
</trkpt>
<trkpt lat="43.179604" lon="19.258591">
<ele>766.086426</ele>
<time>2012-04-29T11:04:50Z</time>
<desc>lat.=43.179604, lon.=19.258591, Alt.=766.086426m. Speed=22.392000m/h.</desc>
<speed>6.220000</speed>
</trkpt>
<trkpt lat="43.179871" lon="19.258699">
<ele>762.633301</ele>
<time>2012-04-29T11:04:55Z</time>
<desc>lat.=43.179871, lon.=19.258699, Alt.=762.633301m. Speed=21.816000m/h.</desc>
<speed>6.060000</speed>
</trkpt>
<trkpt lat="43.180157" lon="19.258751">
<ele>761.305176</ele>
<time>2012-04-29T11:05:00Z</time>
<desc>lat.=43.180157, lon.=19.258751, Alt.=761.305176m. Speed=22.608000m/h.</desc>
<speed>6.280000</speed>
</trkpt>
<trkpt lat="43.180454" lon="19.258778">
<ele>759.898926</ele>
<time>2012-04-29T11:05:05Z</time>
<desc>lat.=43.180454, lon.=19.258778, Alt.=759.898926m. Speed=21.167999m/h.</desc>
<speed>5.880000</speed>
</trkpt>
<trkpt lat="43.180744" lon="19.258820">
<ele>757.352051</ele>
<time>2012-04-29T11:05:10Z</time>
<desc>lat.=43.180744, lon.=19.258820, Alt.=757.352051m. Speed=25.056000m/h.</desc>
<speed>6.960000</speed>
</trkpt>
<trkpt lat="43.181065" lon="19.258869">
<ele>756.805176</ele>
<time>2012-04-29T11:05:15Z</time>
<desc>lat.=43.181065, lon.=19.258869, Alt.=756.805176m. Speed=24.768000m/h.</desc>
<speed>6.880000</speed>
</trkpt>
<trkpt lat="43.181332" lon="19.258909">
<ele>755.648926</ele>
<time>2012-04-29T11:05:20Z</time>
<desc>lat.=43.181332, lon.=19.258909, Alt.=755.648926m. Speed=17.028000m/h.</desc>
<speed>4.730000</speed>
</trkpt>
<trkpt lat="43.181576" lon="19.259014">
<ele>752.820801</ele>
<time>2012-04-29T11:05:25Z</time>
<desc>lat.=43.181576, lon.=19.259014, Alt.=752.820801m. Speed=21.816000m/h.</desc>
<speed>6.060000</speed>
</trkpt>
<trkpt lat="43.181824" lon="19.259155">
<ele>750.930176</ele>
<time>2012-04-29T11:05:30Z</time>
<desc>lat.=43.181824, lon.=19.259155, Alt.=750.930176m. Speed=21.024000m/h.</desc>
<speed>5.840000</speed>
</trkpt>
<trkpt lat="43.182072" lon="19.259186">
<ele>751.508301</ele>
<time>2012-04-29T11:05:35Z</time>
<desc>lat.=43.182072, lon.=19.259186, Alt.=751.508301m. Speed=15.012000m/h.</desc>
<speed>4.170000</speed>
</trkpt>
<trkpt lat="43.182320" lon="19.259172">
<ele>744.570801</ele>
<time>2012-04-29T11:05:40Z</time>
<desc>lat.=43.182320, lon.=19.259172, Alt.=744.570801m. Speed=19.656000m/h.</desc>
<speed>5.460000</speed>
</trkpt>
<trkpt lat="43.182541" lon="19.259335">
<ele>739.664551</ele>
<time>2012-04-29T11:05:45Z</time>
<desc>lat.=43.182541, lon.=19.259335, Alt.=739.664551m. Speed=19.440001m/h.</desc>
<speed>5.400000</speed>
</trkpt>
<trkpt lat="43.182640" lon="19.259636">
<ele>735.211426</ele>
<time>2012-04-29T11:05:50Z</time>
<desc>lat.=43.182640, lon.=19.259636, Alt.=735.211426m. Speed=16.920000m/h.</desc>
<speed>4.700000</speed>
</trkpt>
<trkpt lat="43.182678" lon="19.259926">
<ele>732.461426</ele>
<time>2012-04-29T11:05:55Z</time>
<desc>lat.=43.182678, lon.=19.259926, Alt.=732.461426m. Speed=16.164000m/h.</desc>
<speed>4.490000</speed>
</trkpt>
<trkpt lat="43.182770" lon="19.260120">
<ele>729.961426</ele>
<time>2012-04-29T11:06:00Z</time>
<desc>lat.=43.182770, lon.=19.260120, Alt.=729.961426m. Speed=10.044000m/h.</desc>
<speed>2.790000</speed>
</trkpt>
<trkpt lat="43.182827" lon="19.260155">
<ele>730.195801</ele>
<time>2012-04-29T11:06:05Z</time>
<desc>lat.=43.182827, lon.=19.260155, Alt.=730.195801m. Speed=0.612000m/h.</desc>
<speed>0.170000</speed>
</trkpt>
<trkpt lat="43.182831" lon="19.260153">
<ele>730.258301</ele>
<time>2012-04-29T11:06:10Z</time>
<desc>lat.=43.182831, lon.=19.260153, Alt.=730.258301m. Speed=0.000000m/h.</desc>
<speed>0.000000</speed>
</trkpt>
<trkpt lat="43.182827" lon="19.260153">
<ele>730.258301</ele>
<time>2012-04-29T11:06:15Z</time>
<desc>lat.=43.182827, lon.=19.260153, Alt.=730.258301m. Speed=0.036000m/h.</desc>
<speed>0.010000</speed>
</trkpt>
<trkpt lat="43.182827" lon="19.260155">
<ele>730.242676</ele>
<time>2012-04-29T11:06:20Z</time>
<desc>lat.=43.182827, lon.=19.260155, Alt.=730.242676m. Speed=0.000000m/h.</desc>
<speed>0.000000</speed>
</trkpt>
<trkpt lat="43.182827" lon="19.260155">
<ele>730.305176</ele>
<time>2012-04-29T11:06:25Z</time>
<desc>lat.=43.182827, lon.=19.260155, Alt.=730.305176m. Speed=0.036000m/h.</desc>
<speed>0.010000</speed>
</trkpt>
<trkpt lat="43.182827" lon="19.260155">
<ele>730.523926</ele>
<time>2012-04-29T11:06:30Z</time>
<desc>lat.=43.182827, lon.=19.260155, Alt.=730.523926m. Speed=0.036000m/h.</desc>
<speed>0.010000</speed>
</trkpt>
<trkpt lat="43.182827" lon="19.260157">
<ele>730.758301</ele>
<time>2012-04-29T11:06:35Z</time>
<desc>lat.=43.182827, lon.=19.260157, Alt.=730.758301m. Speed=0.072000m/h.</desc>
<speed>0.020000</speed>
</trkpt>
<trkpt lat="43.182827" lon="19.260159">
<ele>730.930176</ele>
<time>2012-04-29T11:06:40Z</time>
<desc>lat.=43.182827, lon.=19.260159, Alt.=730.930176m. Speed=0.108000m/h.</desc>
<speed>0.030000</speed>
</trkpt>
<trkpt lat="43.182827" lon="19.260159">
<ele>730.992676</ele>
<time>2012-04-29T11:06:45Z</time>
<desc>lat.=43.182827, lon.=19.260159, Alt.=730.992676m. Speed=0.036000m/h.</desc>
<speed>0.010000</speed>
</trkpt>
<trkpt lat="43.182827" lon="19.260159">
<ele>731.039551</ele>
<time>2012-04-29T11:06:50Z</time>
<desc>lat.=43.182827, lon.=19.260159, Alt.=731.039551m. Speed=0.000000m/h.</desc>
<speed>0.000000</speed>
</trkpt>
<trkpt lat="43.182827" lon="19.260159">
<ele>731.086426</ele>
<time>2012-04-29T11:06:55Z</time>
<desc>lat.=43.182827, lon.=19.260159, Alt.=731.086426m. Speed=0.036000m/h.</desc>
<speed>0.010000</speed>
</trkpt>
<trkpt lat="43.182827" lon="19.260159">
<ele>731.117676</ele>
<time>2012-04-29T11:07:00Z</time>
<desc>lat.=43.182827, lon.=19.260159, Alt.=731.117676m. Speed=0.000000m/h.</desc>
<speed>0.000000</speed>
</trkpt>
<trkpt lat="43.182827" lon="19.260159">
<ele>731.164551</ele>
<time>2012-04-29T11:07:05Z</time>
<desc>lat.=43.182827, lon.=19.260159, Alt.=731.164551m. Speed=0.036000m/h.</desc>
<speed>0.010000</speed>
</trkpt>
<trkpt lat="43.182827" lon="19.260159">
<ele>731.211426</ele>
<time>2012-04-29T11:07:10Z</time>
<desc>lat.=43.182827, lon.=19.260159, Alt.=731.211426m. Speed=0.000000m/h.</desc>
<speed>0.000000</speed>
</trkpt>
<trkpt lat="43.182827" lon="19.260159">
<ele>731.273926</ele>
<time>2012-04-29T11:07:15Z</time>
<desc>lat.=43.182827, lon.=19.260159, Alt.=731.273926m. Speed=0.000000m/h.</desc>
<speed>0.000000</speed>
</trkpt>
<trkpt lat="43.182823" lon="19.260160">
<ele>731.336426</ele>
<time>2012-04-29T11:07:20Z</time>
<desc>lat.=43.182823, lon.=19.260160, Alt.=731.336426m. Speed=0.036000m/h.</desc>
<speed>0.010000</speed>
</trkpt>
<trkpt lat="43.182823" lon="19.260160">
<ele>731.398926</ele>
<time>2012-04-29T11:07:25Z</time>
<desc>lat.=43.182823, lon.=19.260160, Alt.=731.398926m. Speed=0.000000m/h.</desc>
<speed>0.000000</speed>
</trkpt>
<trkpt lat="43.182823" lon="19.260160">
<ele>731.461426</ele>
<time>2012-04-29T11:07:30Z</time>
<desc>lat.=43.182823, lon.=19.260160, Alt.=731.461426m. Speed=0.036000m/h.</desc>
<speed>0.010000</speed>
</trkpt>
<trkpt lat="43.182823" lon="19.260160">
<ele>731.539551</ele>
<time>2012-04-29T11:07:35Z</time>
<desc>lat.=43.182823, lon.=19.260160, Alt.=731.539551m. Speed=0.036000m/h.</desc>
<speed>0.010000</speed>
</trkpt>
<trkpt lat="43.182823" lon="19.260160">
<ele>731.570801</ele>
<time>2012-04-29T11:07:40Z</time>
<desc>lat.=43.182823, lon.=19.260160, Alt.=731.570801m. Speed=0.036000m/h.</desc>
<speed>0.010000</speed>
</trkpt>
<trkpt lat="43.182823" lon="19.260160">
<ele>731.602051</ele>
<time>2012-04-29T11:07:45Z</time>
<desc>lat.=43.182823, lon.=19.260160, Alt.=731.602051m. Speed=0.000000m/h.</desc>
<speed>0.000000</speed>
</trkpt>
<trkpt lat="43.182823" lon="19.260160">
<ele>731.648926</ele>
<time>2012-04-29T11:07:50Z</time>
<desc>lat.=43.182823, lon.=19.260160, Alt.=731.648926m. Speed=0.036000m/h.</desc>
<speed>0.010000</speed>
</trkpt>
<trkpt lat="43.182823" lon="19.260162">
<ele>731.648926</ele>
<time>2012-04-29T11:07:55Z</time>
<desc>lat.=43.182823, lon.=19.260162, Alt.=731.648926m. Speed=0.036000m/h.</desc>
<speed>0.010000</speed>
</trkpt>
<trkpt lat="43.182823" lon="19.260162">
<ele>731.680176</ele>
<time>2012-04-29T11:08:00Z</time>
<desc>lat.=43.182823, lon.=19.260162, Alt.=731.680176m. Speed=0.036000m/h.</desc>
<speed>0.010000</speed>
</trkpt>
<trkpt lat="43.182823" lon="19.260160">
<ele>731.711426</ele>
<time>2012-04-29T11:08:05Z</time>
<desc>lat.=43.182823, lon.=19.260160, Alt.=731.711426m. Speed=1.980000m/h.</desc>
<speed>0.550000</speed>
</trkpt>
<trkpt lat="43.182808" lon="19.260134">
<ele>731.680176</ele>
<time>2012-04-29T11:08:10Z</time>
<desc>lat.=43.182808, lon.=19.260134, Alt.=731.680176m. Speed=2.664000m/h.</desc>
<speed>0.740000</speed>
</trkpt>
<trkpt lat="43.182838" lon="19.259979">
<ele>730.336426</ele>
<time>2012-04-29T11:08:15Z</time>
<desc>lat.=43.182838, lon.=19.259979, Alt.=730.336426m. Speed=15.192000m/h.</desc>
<speed>4.220000</speed>
</trkpt>
<trkpt lat="43.182838" lon="19.259668">
<ele>727.633301</ele>
<time>2012-04-29T11:08:20Z</time>
<desc>lat.=43.182838, lon.=19.259668, Alt.=727.633301m. Speed=13.752000m/h.</desc>
<speed>3.820000</speed>
</trkpt>
<trkpt lat="43.182846" lon="19.259462">
<ele>725.258301</ele>
<time>2012-04-29T11:08:25Z</time>
<desc>lat.=43.182846, lon.=19.259462, Alt.=725.258301m. Speed=9.900000m/h.</desc>
<speed>2.750000</speed>
</trkpt>
<trkpt lat="43.182850" lon="19.259287">
<ele>723.305176</ele>
<time>2012-04-29T11:08:30Z</time>
<desc>lat.=43.182850, lon.=19.259287, Alt.=723.305176m. Speed=10.512000m/h.</desc>
<speed>2.920000</speed>
</trkpt>
<trkpt lat="43.182865" lon="19.259155">
<ele>721.836426</ele>
<time>2012-04-29T11:08:35Z</time>
<desc>lat.=43.182865, lon.=19.259155, Alt.=721.836426m. Speed=6.516000m/h.</desc>
<speed>1.810000</speed>
</trkpt>
<trkpt lat="43.182919" lon="19.259083">
<ele>721.539551</ele>
<time>2012-04-29T11:08:40Z</time>
<desc>lat.=43.182919, lon.=19.259083, Alt.=721.539551m. Speed=8.172000m/h.</desc>
<speed>2.270000</speed>
</trkpt>
<trkpt lat="43.183010" lon="19.259027">
<ele>720.258301</ele>
<time>2012-04-29T11:08:45Z</time>
<desc>lat.=43.183010, lon.=19.259027, Alt.=720.258301m. Speed=10.656000m/h.</desc>
<speed>2.960000</speed>
</trkpt>
<trkpt lat="43.183083" lon="19.258945">
<ele>718.617676</ele>
<time>2012-04-29T11:08:50Z</time>
<desc>lat.=43.183083, lon.=19.258945, Alt.=718.617676m. Speed=6.480000m/h.</desc>
<speed>1.800000</speed>
</trkpt>
<trkpt lat="43.183094" lon="19.258926">
<ele>719.305176</ele>
<time>2012-04-29T11:08:55Z</time>
<desc>lat.=43.183094, lon.=19.258926, Alt.=719.305176m. Speed=0.072000m/h.</desc>
<speed>0.020000</speed>
</trkpt>
<trkpt lat="43.183094" lon="19.258926">
<ele>719.352051</ele>
<time>2012-04-29T11:09:00Z</time>
<desc>lat.=43.183094, lon.=19.258926, Alt.=719.352051m. Speed=0.000000m/h.</desc>
<speed>0.000000</speed>
</trkpt>
<trkpt lat="43.183094" lon="19.258926">
<ele>719.305176</ele>
<time>2012-04-29T11:09:05Z</time>
<desc>lat.=43.183094, lon.=19.258926, Alt.=719.305176m. Speed=0.036000m/h.</desc>
<speed>0.010000</speed>
</trkpt>
<trkpt lat="43.183094" lon="19.258926">
<ele>719.258301</ele>
<time>2012-04-29T11:09:10Z</time>
<desc>lat.=43.183094, lon.=19.258926, Alt.=719.258301m. Speed=0.036000m/h.</desc>
<speed>0.010000</speed>
</trkpt>
<trkpt lat="43.183094" lon="19.258926">
<ele>719.242676</ele>
<time>2012-04-29T11:09:15Z</time>
<desc>lat.=43.183094, lon.=19.258926, Alt.=719.242676m. Speed=0.000000m/h.</desc>
<speed>0.000000</speed>
</trkpt>
<trkpt lat="43.183094" lon="19.258926">
<ele>719.242676</ele>
<time>2012-04-29T11:09:20Z</time>
<desc>lat.=43.183094, lon.=19.258926, Alt.=719.242676m. Speed=0.000000m/h.</desc>
<speed>0.000000</speed>
</trkpt>
<trkpt lat="43.183094" lon="19.258926">
<ele>719.211426</ele>
<time>2012-04-29T11:09:25Z</time>
<desc>lat.=43.183094, lon.=19.258926, Alt.=719.211426m. Speed=0.000000m/h.</desc>
<speed>0.000000</speed>
</trkpt>
<trkpt lat="43.183094" lon="19.258926">
<ele>719.164551</ele>
<time>2012-04-29T11:09:30Z</time>
<desc>lat.=43.183094, lon.=19.258926, Alt.=719.164551m. Speed=0.000000m/h.</desc>
<speed>0.000000</speed>
</trkpt>
<trkpt lat="43.183094" lon="19.258926">
<ele>719.133301</ele>
<time>2012-04-29T11:09:35Z</time>
<desc>lat.=43.183094, lon.=19.258926, Alt.=719.133301m. Speed=0.000000m/h.</desc>
<speed>0.000000</speed>
</trkpt>
<trkpt lat="43.183094" lon="19.258926">
<ele>719.102051</ele>
<time>2012-04-29T11:09:40Z</time>
<desc>lat.=43.183094, lon.=19.258926, Alt.=719.102051m. Speed=0.000000m/h.</desc>
<speed>0.000000</speed>
</trkpt>
<trkpt lat="43.183094" lon="19.258926">
<ele>719.070801</ele>
<time>2012-04-29T11:09:45Z</time>
<desc>lat.=43.183094, lon.=19.258926, Alt.=719.070801m. Speed=0.000000m/h.</desc>
<speed>0.000000</speed>
</trkpt>
<trkpt lat="43.183094" lon="19.258924">
<ele>719.055176</ele>
<time>2012-04-29T11:09:50Z</time>
<desc>lat.=43.183094, lon.=19.258924, Alt.=719.055176m. Speed=0.000000m/h.</desc>
<speed>0.000000</speed>
</trkpt>
<trkpt lat="43.183094" lon="19.258926">
<ele>719.039551</ele>
<time>2012-04-29T11:09:55Z</time>
<desc>lat.=43.183094, lon.=19.258926, Alt.=719.039551m. Speed=0.000000m/h.</desc>
<speed>0.000000</speed>
</trkpt>
<trkpt lat="43.183094" lon="19.258926">
<ele>719.023926</ele>
<time>2012-04-29T11:10:00Z</time>
<desc>lat.=43.183094, lon.=19.258926, Alt.=719.023926m. Speed=0.000000m/h.</desc>
<speed>0.000000</speed>
</trkpt>
<trkpt lat="43.183094" lon="19.258926">
<ele>719.023926</ele>
<time>2012-04-29T11:10:05Z</time>
<desc>lat.=43.183094, lon.=19.258926, Alt.=719.023926m. Speed=0.000000m/h.</desc>
<speed>0.000000</speed>
</trkpt>
<trkpt lat="43.183094" lon="19.258926">
<ele>719.023926</ele>
<time>2012-04-29T11:10:10Z</time>
<desc>lat.=43.183094, lon.=19.258926, Alt.=719.023926m. Speed=0.000000m/h.</desc>
<speed>0.000000</speed>
</trkpt>
<trkpt lat="43.183094" lon="19.258926">
<ele>719.023926</ele>
<time>2012-04-29T11:10:15Z</time>
<desc>lat.=43.183094, lon.=19.258926, Alt.=719.023926m. Speed=0.000000m/h.</desc>
<speed>0.000000</speed>
</trkpt>
<trkpt lat="43.183094" lon="19.258926">
<ele>719.039551</ele>
<time>2012-04-29T11:10:20Z</time>
<desc>lat.=43.183094, lon.=19.258926, Alt.=719.039551m. Speed=0.000000m/h.</desc>
<speed>0.000000</speed>
</trkpt>
<trkpt lat="43.183094" lon="19.258926">
<ele>719.070801</ele>
<time>2012-04-29T11:10:25Z</time>
<desc>lat.=43.183094, lon.=19.258926, Alt.=719.070801m. Speed=0.000000m/h.</desc>
<speed>0.000000</speed>
</trkpt>
<trkpt lat="43.183094" lon="19.258926">
<ele>719.086426</ele>
<time>2012-04-29T11:10:30Z</time>
<desc>lat.=43.183094, lon.=19.258926, Alt.=719.086426m. Speed=0.000000m/h.</desc>
<speed>0.000000</speed>
</trkpt>
<trkpt lat="43.183094" lon="19.258926">
<ele>719.102051</ele>
<time>2012-04-29T11:10:35Z</time>
<desc>lat.=43.183094, lon.=19.258926, Alt.=719.102051m. Speed=0.000000m/h.</desc>
<speed>0.000000</speed>
</trkpt>
<trkpt lat="43.183094" lon="19.258926">
<ele>719.117676</ele>
<time>2012-04-29T11:10:40Z</time>
<desc>lat.=43.183094, lon.=19.258926, Alt.=719.117676m. Speed=0.036000m/h.</desc>
<speed>0.010000</speed>
</trkpt>
<trkpt lat="43.183094" lon="19.258926">
<ele>719.133301</ele>
<time>2012-04-29T11:10:45Z</time>
<desc>lat.=43.183094, lon.=19.258926, Alt.=719.133301m. Speed=0.000000m/h.</desc>
<speed>0.000000</speed>
</trkpt>
<trkpt lat="43.183094" lon="19.258926">
<ele>719.133301</ele>
<time>2012-04-29T11:10:50Z</time>
<desc>lat.=43.183094, lon.=19.258926, Alt.=719.133301m. Speed=0.036000m/h.</desc>
<speed>0.010000</speed>
</trkpt>
<trkpt lat="43.183094" lon="19.258926">
<ele>719.133301</ele>
<time>2012-04-29T11:10:55Z</time>
<desc>lat.=43.183094, lon.=19.258926, Alt.=719.133301m. Speed=0.036000m/h.</desc>
<speed>0.010000</speed>
</trkpt>
<trkpt lat="43.183094" lon="19.258926">
<ele>719.133301</ele>
<time>2012-04-29T11:11:00Z</time>
<desc>lat.=43.183094, lon.=19.258926, Alt.=719.133301m. Speed=0.000000m/h.</desc>
<speed>0.000000</speed>
</trkpt>
<trkpt lat="43.183094" lon="19.258926">
<ele>719.133301</ele>
<time>2012-04-29T11:11:05Z</time>
<desc>lat.=43.183094, lon.=19.258926, Alt.=719.133301m. Speed=0.000000m/h.</desc>
<speed>0.000000</speed>
</trkpt>
<trkpt lat="43.183094" lon="19.258926">
<ele>719.133301</ele>
<time>2012-04-29T11:11:10Z</time>
<desc>lat.=43.183094, lon.=19.258926, Alt.=719.133301m. Speed=0.144000m/h.</desc>
<speed>0.040000</speed>
</trkpt>
<trkpt lat="43.183098" lon="19.258921">
<ele>719.164551</ele>
<time>2012-04-29T11:11:15Z</time>
<desc>lat.=43.183098, lon.=19.258921, Alt.=719.164551m. Speed=0.108000m/h.</desc>
<speed>0.030000</speed>
</trkpt>
<trkpt lat="43.183102" lon="19.258921">
<ele>719.039551</ele>
<time>2012-04-29T11:11:20Z</time>
<desc>lat.=43.183102, lon.=19.258921, Alt.=719.039551m. Speed=0.360000m/h.</desc>
<speed>0.100000</speed>
</trkpt>
<trkpt lat="43.183102" lon="19.258919">
<ele>719.086426</ele>
<time>2012-04-29T11:11:25Z</time>
<desc>lat.=43.183102, lon.=19.258919, Alt.=719.086426m. Speed=0.036000m/h.</desc>
<speed>0.010000</speed>
</trkpt>
<trkpt lat="43.183102" lon="19.258919">
<ele>719.086426</ele>
<time>2012-04-29T11:11:30Z</time>
<desc>lat.=43.183102, lon.=19.258919, Alt.=719.086426m. Speed=0.072000m/h.</desc>
<speed>0.020000</speed>
</trkpt>
<trkpt lat="43.183102" lon="19.258919">
<ele>719.086426</ele>
<time>2012-04-29T11:11:35Z</time>
<desc>lat.=43.183102, lon.=19.258919, Alt.=719.086426m. Speed=0.036000m/h.</desc>
<speed>0.010000</speed>
</trkpt>
<trkpt lat="43.183102" lon="19.258919">
<ele>719.086426</ele>
<time>2012-04-29T11:11:40Z</time>
<desc>lat.=43.183102, lon.=19.258919, Alt.=719.086426m. Speed=0.000000m/h.</desc>
<speed>0.000000</speed>
</trkpt>
<trkpt lat="43.183102" lon="19.258919">
<ele>719.102051</ele>
<time>2012-04-29T11:11:45Z</time>
<desc>lat.=43.183102, lon.=19.258919, Alt.=719.102051m. Speed=0.000000m/h.</desc>
<speed>0.000000</speed>
</trkpt>
<trkpt lat="43.183102" lon="19.258919">
<ele>719.102051</ele>
<time>2012-04-29T11:11:50Z</time>
<desc>lat.=43.183102, lon.=19.258919, Alt.=719.102051m. Speed=0.036000m/h.</desc>
<speed>0.010000</speed>
</trkpt>
<trkpt lat="43.183102" lon="19.258919">
<ele>719.117676</ele>
<time>2012-04-29T11:11:55Z</time>
<desc>lat.=43.183102, lon.=19.258919, Alt.=719.117676m. Speed=0.000000m/h.</desc>
<speed>0.000000</speed>
</trkpt>
<trkpt lat="43.183102" lon="19.258919">
<ele>719.117676</ele>
<time>2012-04-29T11:12:00Z</time>
<desc>lat.=43.183102, lon.=19.258919, Alt.=719.117676m. Speed=0.000000m/h.</desc>
<speed>0.000000</speed>
</trkpt>
<trkpt lat="43.183102" lon="19.258917">
<ele>719.117676</ele>
<time>2012-04-29T11:12:05Z</time>
<desc>lat.=43.183102, lon.=19.258917, Alt.=719.117676m. Speed=0.144000m/h.</desc>
<speed>0.040000</speed>
</trkpt>
<trkpt lat="43.183102" lon="19.258917">
<ele>719.102051</ele>
<time>2012-04-29T11:12:10Z</time>
<desc>lat.=43.183102, lon.=19.258917, Alt.=719.102051m. Speed=0.108000m/h.</desc>
<speed>0.030000</speed>
</trkpt>
<trkpt lat="43.183102" lon="19.258913">
<ele>719.102051</ele>
<time>2012-04-29T11:12:15Z</time>
<desc>lat.=43.183102, lon.=19.258913, Alt.=719.102051m. Speed=0.000000m/h.</desc>
<speed>0.000000</speed>
</trkpt>
<trkpt lat="43.183102" lon="19.258913">
<ele>719.117676</ele>
<time>2012-04-29T11:12:20Z</time>
<desc>lat.=43.183102, lon.=19.258913, Alt.=719.117676m. Speed=0.036000m/h.</desc>
<speed>0.010000</speed>
</trkpt>
<trkpt lat="43.183102" lon="19.258913">
<ele>719.117676</ele>
<time>2012-04-29T11:12:25Z</time>
<desc>lat.=43.183102, lon.=19.258913, Alt.=719.117676m. Speed=0.108000m/h.</desc>
<speed>0.030000</speed>
</trkpt>
<trkpt lat="43.183105" lon="19.258913">
<ele>719.133301</ele>
<time>2012-04-29T11:12:30Z</time>
<desc>lat.=43.183105, lon.=19.258913, Alt.=719.133301m. Speed=0.036000m/h.</desc>
<speed>0.010000</speed>
</trkpt>
<trkpt lat="43.183105" lon="19.258913">
<ele>719.133301</ele>
<time>2012-04-29T11:12:35Z</time>
<desc>lat.=43.183105, lon.=19.258913, Alt.=719.133301m. Speed=0.036000m/h.</desc>
<speed>0.010000</speed>
</trkpt>
<trkpt lat="43.183105" lon="19.258913">
<ele>719.148926</ele>
<time>2012-04-29T11:12:40Z</time>
<desc>lat.=43.183105, lon.=19.258913, Alt.=719.148926m. Speed=0.072000m/h.</desc>
<speed>0.020000</speed>
</trkpt>
<trkpt lat="43.183105" lon="19.258913">
<ele>719.148926</ele>
<time>2012-04-29T11:12:45Z</time>
<desc>lat.=43.183105, lon.=19.258913, Alt.=719.148926m. Speed=0.036000m/h.</desc>
<speed>0.010000</speed>
</trkpt>
<trkpt lat="43.183105" lon="19.258913">
<ele>719.164551</ele>
<time>2012-04-29T11:12:50Z</time>
<desc>lat.=43.183105, lon.=19.258913, Alt.=719.164551m. Speed=0.000000m/h.</desc>
<speed>0.000000</speed>
</trkpt>
<trkpt lat="43.183105" lon="19.258911">
<ele>719.164551</ele>
<time>2012-04-29T11:12:55Z</time>
<desc>lat.=43.183105, lon.=19.258911, Alt.=719.164551m. Speed=0.000000m/h.</desc>
<speed>0.000000</speed>
</trkpt>
<trkpt lat="43.183105" lon="19.258911">
<ele>719.164551</ele>
<time>2012-04-29T11:13:00Z</time>
<desc>lat.=43.183105, lon.=19.258911, Alt.=719.164551m. Speed=0.000000m/h.</desc>
<speed>0.000000</speed>
</trkpt>
<trkpt lat="43.183105" lon="19.258911">
<ele>719.164551</ele>
<time>2012-04-29T11:13:05Z</time>
<desc>lat.=43.183105, lon.=19.258911, Alt.=719.164551m. Speed=0.000000m/h.</desc>
<speed>0.000000</speed>
</trkpt>
<trkpt lat="43.183105" lon="19.258911">
<ele>719.180176</ele>
<time>2012-04-29T11:13:10Z</time>
<desc>lat.=43.183105, lon.=19.258911, Alt.=719.180176m. Speed=0.000000m/h.</desc>
<speed>0.000000</speed>
</trkpt>
<trkpt lat="43.183105" lon="19.258911">
<ele>719.180176</ele>
<time>2012-04-29T11:13:15Z</time>
<desc>lat.=43.183105, lon.=19.258911, Alt.=719.180176m. Speed=0.072000m/h.</desc>
<speed>0.020000</speed>
</trkpt>
<trkpt lat="43.183113" lon="19.258900">
<ele>719.148926</ele>
<time>2012-04-29T11:13:20Z</time>
<desc>lat.=43.183113, lon.=19.258900, Alt.=719.148926m. Speed=2.232000m/h.</desc>
<speed>0.620000</speed>
</trkpt>
<trkpt lat="43.183128" lon="19.258886">
<ele>719.289551</ele>
<time>2012-04-29T11:13:25Z</time>
<desc>lat.=43.183128, lon.=19.258886, Alt.=719.289551m. Speed=0.000000m/h.</desc>
<speed>0.000000</speed>
</trkpt>
<trkpt lat="43.183128" lon="19.258886">
<ele>719.242676</ele>
<time>2012-04-29T11:13:30Z</time>
<desc>lat.=43.183128, lon.=19.258886, Alt.=719.242676m. Speed=0.036000m/h.</desc>
<speed>0.010000</speed>
</trkpt>
<trkpt lat="43.183136" lon="19.258871">
<ele>719.430176</ele>
<time>2012-04-29T11:13:35Z</time>
<desc>lat.=43.183136, lon.=19.258871, Alt.=719.430176m. Speed=4.320000m/h.</desc>
<speed>1.200000</speed>
</trkpt>
<trkpt lat="43.183167" lon="19.258787">
<ele>718.648926</ele>
<time>2012-04-29T11:13:40Z</time>
<desc>lat.=43.183167, lon.=19.258787, Alt.=718.648926m. Speed=5.904000m/h.</desc>
<speed>1.640000</speed>
</trkpt>
<trkpt lat="43.183197" lon="19.258736">
<ele>720.555176</ele>
<time>2012-04-29T11:13:45Z</time>
<desc>lat.=43.183197, lon.=19.258736, Alt.=720.555176m. Speed=4.644000m/h.</desc>
<speed>1.290000</speed>
</trkpt>
<trkpt lat="43.183231" lon="19.258692">
<ele>722.289551</ele>
<time>2012-04-29T11:13:50Z</time>
<desc>lat.=43.183231, lon.=19.258692, Alt.=722.289551m. Speed=5.472000m/h.</desc>
<speed>1.520000</speed>
</trkpt>
<trkpt lat="43.183273" lon="19.258638">
<ele>724.461426</ele>
<time>2012-04-29T11:13:55Z</time>
<desc>lat.=43.183273, lon.=19.258638, Alt.=724.461426m. Speed=4.860000m/h.</desc>
<speed>1.350000</speed>
</trkpt>
<trkpt lat="43.183319" lon="19.258579">
<ele>725.758301</ele>
<time>2012-04-29T11:14:00Z</time>
<desc>lat.=43.183319, lon.=19.258579, Alt.=725.758301m. Speed=5.328000m/h.</desc>
<speed>1.480000</speed>
</trkpt>
<trkpt lat="43.183376" lon="19.258520">
<ele>726.992676</ele>
<time>2012-04-29T11:14:05Z</time>
<desc>lat.=43.183376, lon.=19.258520, Alt.=726.992676m. Speed=6.228000m/h.</desc>
<speed>1.730000</speed>
</trkpt>
<trkpt lat="43.183434" lon="19.258448">
<ele>727.961426</ele>
<time>2012-04-29T11:14:10Z</time>
<desc>lat.=43.183434, lon.=19.258448, Alt.=727.961426m. Speed=7.452000m/h.</desc>
<speed>2.070000</speed>
</trkpt>
<trkpt lat="43.183502" lon="19.258379">
<ele>729.336426</ele>
<time>2012-04-29T11:14:15Z</time>
<desc>lat.=43.183502, lon.=19.258379, Alt.=729.336426m. Speed=8.424000m/h.</desc>
<speed>2.340000</speed>
</trkpt>
<trkpt lat="43.183563" lon="19.258274">
<ele>729.008301</ele>
<time>2012-04-29T11:14:20Z</time>
<desc>lat.=43.183563, lon.=19.258274, Alt.=729.008301m. Speed=9.216000m/h.</desc>
<speed>2.560000</speed>
</trkpt>
<trkpt lat="43.183609" lon="19.258127">
<ele>728.461426</ele>
<time>2012-04-29T11:14:25Z</time>
<desc>lat.=43.183609, lon.=19.258127, Alt.=728.461426m. Speed=7.668000m/h.</desc>
<speed>2.130000</speed>
</trkpt>
<trkpt lat="43.183628" lon="19.257978">
<ele>730.555176</ele>
<time>2012-04-29T11:14:30Z</time>
<desc>lat.=43.183628, lon.=19.257978, Alt.=730.555176m. Speed=7.596000m/h.</desc>
<speed>2.110000</speed>
</trkpt>
<trkpt lat="43.183624" lon="19.257847">
<ele>731.195801</ele>
<time>2012-04-29T11:14:35Z</time>
<desc>lat.=43.183624, lon.=19.257847, Alt.=731.195801m. Speed=7.884000m/h.</desc>
<speed>2.190000</speed>
</trkpt>
<trkpt lat="43.183624" lon="19.257710">
<ele>732.539551</ele>
<time>2012-04-29T11:14:40Z</time>
<desc>lat.=43.183624, lon.=19.257710, Alt.=732.539551m. Speed=6.948000m/h.</desc>
<speed>1.930000</speed>
</trkpt>
<trkpt lat="43.183632" lon="19.257603">
<ele>732.867676</ele>
<time>2012-04-29T11:14:45Z</time>
<desc>lat.=43.183632, lon.=19.257603, Alt.=732.867676m. Speed=6.048000m/h.</desc>
<speed>1.680000</speed>
</trkpt>
<trkpt lat="43.183632" lon="19.257498">
<ele>733.617676</ele>
<time>2012-04-29T11:14:50Z</time>
<desc>lat.=43.183632, lon.=19.257498, Alt.=733.617676m. Speed=6.048000m/h.</desc>
<speed>1.680000</speed>
</trkpt>
<trkpt lat="43.183598" lon="19.257418">
<ele>734.820801</ele>
<time>2012-04-29T11:14:55Z</time>
<desc>lat.=43.183598, lon.=19.257418, Alt.=734.820801m. Speed=4.572000m/h.</desc>
<speed>1.270000</speed>
</trkpt>
<trkpt lat="43.183563" lon="19.257374">
<ele>736.070801</ele>
<time>2012-04-29T11:15:00Z</time>
<desc>lat.=43.183563, lon.=19.257374, Alt.=736.070801m. Speed=0.828000m/h.</desc>
<speed>0.230000</speed>
</trkpt>
<trkpt lat="43.183559" lon="19.257381">
<ele>735.648926</ele>
<time>2012-04-29T11:15:05Z</time>
<desc>lat.=43.183559, lon.=19.257381, Alt.=735.648926m. Speed=0.648000m/h.</desc>
<speed>0.180000</speed>
</trkpt>
<trkpt lat="43.183537" lon="19.257341">
<ele>736.180176</ele>
<time>2012-04-29T11:15:10Z</time>
<desc>lat.=43.183537, lon.=19.257341, Alt.=736.180176m. Speed=3.348000m/h.</desc>
<speed>0.930000</speed>
</trkpt>
<trkpt lat="43.183495" lon="19.257290">
<ele>737.008301</ele>
<time>2012-04-29T11:15:15Z</time>
<desc>lat.=43.183495, lon.=19.257290, Alt.=737.008301m. Speed=4.104000m/h.</desc>
<speed>1.140000</speed>
</trkpt>
<trkpt lat="43.183456" lon="19.257235">
<ele>737.680176</ele>
<time>2012-04-29T11:15:20Z</time>
<desc>lat.=43.183456, lon.=19.257235, Alt.=737.680176m. Speed=3.888000m/h.</desc>
<speed>1.080000</speed>
</trkpt>
<trkpt lat="43.183418" lon="19.257179">
<ele>738.258301</ele>
<time>2012-04-29T11:15:25Z</time>
<desc>lat.=43.183418, lon.=19.257179, Alt.=738.258301m. Speed=4.608000m/h.</desc>
<speed>1.280000</speed>
</trkpt>
<trkpt lat="43.183376" lon="19.257132">
<ele>739.664551</ele>
<time>2012-04-29T11:15:30Z</time>
<desc>lat.=43.183376, lon.=19.257132, Alt.=739.664551m. Speed=4.140000m/h.</desc>
<speed>1.150000</speed>
</trkpt>
<trkpt lat="43.183350" lon="19.257069">
<ele>739.805176</ele>
<time>2012-04-29T11:15:35Z</time>
<desc>lat.=43.183350, lon.=19.257069, Alt.=739.805176m. Speed=3.780000m/h.</desc>
<speed>1.050000</speed>
</trkpt>
<trkpt lat="43.183334" lon="19.257017">
<ele>740.008301</ele>
<time>2012-04-29T11:15:40Z</time>
<desc>lat.=43.183334, lon.=19.257017, Alt.=740.008301m. Speed=1.080000m/h.</desc>
<speed>0.300000</speed>
</trkpt>
<trkpt lat="43.183331" lon="19.257002">
<ele>738.883301</ele>
<time>2012-04-29T11:15:45Z</time>
<desc>lat.=43.183331, lon.=19.257002, Alt.=738.883301m. Speed=2.088000m/h.</desc>
<speed>0.580000</speed>
</trkpt>
<trkpt lat="43.183323" lon="19.256985">
<ele>739.320801</ele>
<time>2012-04-29T11:15:50Z</time>
<desc>lat.=43.183323, lon.=19.256985, Alt.=739.320801m. Speed=0.000000m/h.</desc>
<speed>0.000000</speed>
</trkpt>
<trkpt lat="43.183323" lon="19.256987">
<ele>739.367676</ele>
<time>2012-04-29T11:15:55Z</time>
<desc>lat.=43.183323, lon.=19.256987, Alt.=739.367676m. Speed=0.108000m/h.</desc>
<speed>0.030000</speed>
</trkpt>
<trkpt lat="43.183323" lon="19.256985">
<ele>739.320801</ele>
<time>2012-04-29T11:16:00Z</time>
<desc>lat.=43.183323, lon.=19.256985, Alt.=739.320801m. Speed=0.108000m/h.</desc>
<speed>0.030000</speed>
</trkpt>
<trkpt lat="43.183323" lon="19.256985">
<ele>739.320801</ele>
<time>2012-04-29T11:16:05Z</time>
<desc>lat.=43.183323, lon.=19.256985, Alt.=739.320801m. Speed=0.000000m/h.</desc>
<speed>0.000000</speed>
</trkpt>
<trkpt lat="43.183323" lon="19.256985">
<ele>739.320801</ele>
<time>2012-04-29T11:16:10Z</time>
<desc>lat.=43.183323, lon.=19.256985, Alt.=739.320801m. Speed=0.000000m/h.</desc>
<speed>0.000000</speed>
</trkpt>
<trkpt lat="43.183323" lon="19.256985">
<ele>739.320801</ele>
<time>2012-04-29T11:16:15Z</time>
<desc>lat.=43.183323, lon.=19.256985, Alt.=739.320801m. Speed=0.000000m/h.</desc>
<speed>0.000000</speed>
</trkpt>
<trkpt lat="43.183323" lon="19.256985">
<ele>739.305176</ele>
<time>2012-04-29T11:16:20Z</time>
<desc>lat.=43.183323, lon.=19.256985, Alt.=739.305176m. Speed=0.000000m/h.</desc>
<speed>0.000000</speed>
</trkpt>
<trkpt lat="43.183323" lon="19.256985">
<ele>739.320801</ele>
<time>2012-04-29T11:16:25Z</time>
<desc>lat.=43.183323, lon.=19.256985, Alt.=739.320801m. Speed=0.000000m/h.</desc>
<speed>0.000000</speed>
</trkpt>
<trkpt lat="43.183323" lon="19.256985">
<ele>739.320801</ele>
<time>2012-04-29T11:16:30Z</time>
<desc>lat.=43.183323, lon.=19.256985, Alt.=739.320801m. Speed=0.324000m/h.</desc>
<speed>0.090000</speed>
</trkpt>
<trkpt lat="43.183323" lon="19.256983">
<ele>739.289551</ele>
<time>2012-04-29T11:16:35Z</time>
<desc>lat.=43.183323, lon.=19.256983, Alt.=739.289551m. Speed=0.108000m/h.</desc>
<speed>0.030000</speed>
</trkpt>
<trkpt lat="43.183331" lon="19.256956">
<ele>739.445801</ele>
<time>2012-04-29T11:16:40Z</time>
<desc>lat.=43.183331, lon.=19.256956, Alt.=739.445801m. Speed=4.212000m/h.</desc>
<speed>1.170000</speed>
</trkpt>
<trkpt lat="43.183376" lon="19.256874">
<ele>740.289551</ele>
<time>2012-04-29T11:16:45Z</time>
<desc>lat.=43.183376, lon.=19.256874, Alt.=740.289551m. Speed=7.056000m/h.</desc>
<speed>1.960000</speed>
</trkpt>
<trkpt lat="43.183434" lon="19.256783">
<ele>741.211426</ele>
<time>2012-04-29T11:16:50Z</time>
<desc>lat.=43.183434, lon.=19.256783, Alt.=741.211426m. Speed=7.560000m/h.</desc>
<speed>2.100000</speed>
</trkpt>
<trkpt lat="43.183491" lon="19.256681">
<ele>742.430176</ele>
<time>2012-04-29T11:16:55Z</time>
<desc>lat.=43.183491, lon.=19.256681, Alt.=742.430176m. Speed=7.128000m/h.</desc>
<speed>1.980000</speed>
</trkpt>
<trkpt lat="43.183540" lon="19.256580">
<ele>743.523926</ele>
<time>2012-04-29T11:17:00Z</time>
<desc>lat.=43.183540, lon.=19.256580, Alt.=743.523926m. Speed=6.768000m/h.</desc>
<speed>1.880000</speed>
</trkpt>
<trkpt lat="43.183598" lon="19.256474">
<ele>744.711426</ele>
<time>2012-04-29T11:17:05Z</time>
<desc>lat.=43.183598, lon.=19.256474, Alt.=744.711426m. Speed=7.920000m/h.</desc>
<speed>2.200000</speed>
</trkpt>
<trkpt lat="43.183655" lon="19.256367">
<ele>746.148926</ele>
<time>2012-04-29T11:17:10Z</time>
<desc>lat.=43.183655, lon.=19.256367, Alt.=746.148926m. Speed=7.704000m/h.</desc>
<speed>2.140000</speed>
</trkpt>
<trkpt lat="43.183716" lon="19.256256">
<ele>747.445801</ele>
<time>2012-04-29T11:17:15Z</time>
<desc>lat.=43.183716, lon.=19.256256, Alt.=747.445801m. Speed=7.992000m/h.</desc>
<speed>2.220000</speed>
</trkpt>
<trkpt lat="43.183777" lon="19.256149">
<ele>748.789551</ele>
<time>2012-04-29T11:17:20Z</time>
<desc>lat.=43.183777, lon.=19.256149, Alt.=748.789551m. Speed=8.028000m/h.</desc>
<speed>2.230000</speed>
</trkpt>
<trkpt lat="43.183842" lon="19.256052">
<ele>750.305176</ele>
<time>2012-04-29T11:17:25Z</time>
<desc>lat.=43.183842, lon.=19.256052, Alt.=750.305176m. Speed=8.244000m/h.</desc>
<speed>2.290000</speed>
</trkpt>
<trkpt lat="43.183914" lon="19.255964">
<ele>752.492676</ele>
<time>2012-04-29T11:17:30Z</time>
<desc>lat.=43.183914, lon.=19.255964, Alt.=752.492676m. Speed=5.004000m/h.</desc>
<speed>1.390000</speed>
</trkpt>
<trkpt lat="43.183983" lon="19.255857">
<ele>753.867676</ele>
<time>2012-04-29T11:17:35Z</time>
<desc>lat.=43.183983, lon.=19.255857, Alt.=753.867676m. Speed=7.848000m/h.</desc>
<speed>2.180000</speed>
</trkpt>
<trkpt lat="43.184040" lon="19.255781">
<ele>755.508301</ele>
<time>2012-04-29T11:17:40Z</time>
<desc>lat.=43.184040, lon.=19.255781, Alt.=755.508301m. Speed=7.776000m/h.</desc>
<speed>2.160000</speed>
</trkpt>
<trkpt lat="43.184120" lon="19.255688">
<ele>755.930176</ele>
<time>2012-04-29T11:17:45Z</time>
<desc>lat.=43.184120, lon.=19.255688, Alt.=755.930176m. Speed=8.460000m/h.</desc>
<speed>2.350000</speed>
</trkpt>
<trkpt lat="43.184200" lon="19.255581">
<ele>756.180176</ele>
<time>2012-04-29T11:17:50Z</time>
<desc>lat.=43.184200, lon.=19.255581, Alt.=756.180176m. Speed=9.864000m/h.</desc>
<speed>2.740000</speed>
</trkpt>
<trkpt lat="43.184269" lon="19.255426">
<ele>756.055176</ele>
<time>2012-04-29T11:17:55Z</time>
<desc>lat.=43.184269, lon.=19.255426, Alt.=756.055176m. Speed=9.144000m/h.</desc>
<speed>2.540000</speed>
</trkpt>
<trkpt lat="43.184315" lon="19.255272">
<ele>756.430176</ele>
<time>2012-04-29T11:18:00Z</time>
<desc>lat.=43.184315, lon.=19.255272, Alt.=756.430176m. Speed=9.036000m/h.</desc>
<speed>2.510000</speed>
</trkpt>
<trkpt lat="43.184345" lon="19.255114">
<ele>756.930176</ele>
<time>2012-04-29T11:18:05Z</time>
<desc>lat.=43.184345, lon.=19.255114, Alt.=756.930176m. Speed=9.324000m/h.</desc>
<speed>2.590000</speed>
</trkpt>
<trkpt lat="43.184341" lon="19.254955">
<ele>758.148926</ele>
<time>2012-04-29T11:18:10Z</time>
<desc>lat.=43.184341, lon.=19.254955, Alt.=758.148926m. Speed=9.108000m/h.</desc>
<speed>2.530000</speed>
</trkpt>
<trkpt lat="43.184326" lon="19.254816">
<ele>759.258301</ele>
<time>2012-04-29T11:18:15Z</time>
<desc>lat.=43.184326, lon.=19.254816, Alt.=759.258301m. Speed=7.812000m/h.</desc>
<speed>2.170000</speed>
</trkpt>
<trkpt lat="43.184330" lon="19.254700">
<ele>759.930176</ele>
<time>2012-04-29T11:18:20Z</time>
<desc>lat.=43.184330, lon.=19.254700, Alt.=759.930176m. Speed=6.264000m/h.</desc>
<speed>1.740000</speed>
</trkpt>
<trkpt lat="43.184368" lon="19.254595">
<ele>760.227051</ele>
<time>2012-04-29T11:18:25Z</time>
<desc>lat.=43.184368, lon.=19.254595, Alt.=760.227051m. Speed=6.768000m/h.</desc>
<speed>1.880000</speed>
</trkpt>
<trkpt lat="43.184414" lon="19.254486">
<ele>760.992676</ele>
<time>2012-04-29T11:18:30Z</time>
<desc>lat.=43.184414, lon.=19.254486, Alt.=760.992676m. Speed=6.804000m/h.</desc>
<speed>1.890000</speed>
</trkpt>
<trkpt lat="43.184444" lon="19.254395">
<ele>762.008301</ele>
<time>2012-04-29T11:18:35Z</time>
<desc>lat.=43.184444, lon.=19.254395, Alt.=762.008301m. Speed=5.148000m/h.</desc>
<speed>1.430000</speed>
</trkpt>
<trkpt lat="43.184444" lon="19.254313">
<ele>763.195801</ele>
<time>2012-04-29T11:18:40Z</time>
<desc>lat.=43.184444, lon.=19.254313, Alt.=763.195801m. Speed=4.860000m/h.</desc>
<speed>1.350000</speed>
</trkpt>
<trkpt lat="43.184448" lon="19.254230">
<ele>764.430176</ele>
<time>2012-04-29T11:18:45Z</time>
<desc>lat.=43.184448, lon.=19.254230, Alt.=764.430176m. Speed=3.888000m/h.</desc>
<speed>1.080000</speed>
</trkpt>
<trkpt lat="43.184437" lon="19.254152">
<ele>765.664551</ele>
<time>2012-04-29T11:18:50Z</time>
<desc>lat.=43.184437, lon.=19.254152, Alt.=765.664551m. Speed=5.148000m/h.</desc>
<speed>1.430000</speed>
</trkpt>
<trkpt lat="43.184448" lon="19.254045">
<ele>766.945801</ele>
<time>2012-04-29T11:18:55Z</time>
<desc>lat.=43.184448, lon.=19.254045, Alt.=766.945801m. Speed=6.480000m/h.</desc>
<speed>1.800000</speed>
</trkpt>
<trkpt lat="43.184460" lon="19.253925">
<ele>768.477051</ele>
<time>2012-04-29T11:19:00Z</time>
<desc>lat.=43.184460, lon.=19.253925, Alt.=768.477051m. Speed=6.804000m/h.</desc>
<speed>1.890000</speed>
</trkpt>
<trkpt lat="43.184467" lon="19.253809">
<ele>769.461426</ele>
<time>2012-04-29T11:19:05Z</time>
<desc>lat.=43.184467, lon.=19.253809, Alt.=769.461426m. Speed=7.344000m/h.</desc>
<speed>2.040000</speed>
</trkpt>
<trkpt lat="43.184471" lon="19.253702">
<ele>770.836426</ele>
<time>2012-04-29T11:19:10Z</time>
<desc>lat.=43.184471, lon.=19.253702, Alt.=770.836426m. Speed=6.012000m/h.</desc>
<speed>1.670000</speed>
</trkpt>
<trkpt lat="43.184494" lon="19.253601">
<ele>772.102051</ele>
<time>2012-04-29T11:19:15Z</time>
<desc>lat.=43.184494, lon.=19.253601, Alt.=772.102051m. Speed=5.508000m/h.</desc>
<speed>1.530000</speed>
</trkpt>
<trkpt lat="43.184528" lon="19.253523">
<ele>773.727051</ele>
<time>2012-04-29T11:19:20Z</time>
<desc>lat.=43.184528, lon.=19.253523, Alt.=773.727051m. Speed=5.220000m/h.</desc>
<speed>1.450000</speed>
</trkpt>
<trkpt lat="43.184582" lon="19.253475">
<ele>775.867676</ele>
<time>2012-04-29T11:19:25Z</time>
<desc>lat.=43.184582, lon.=19.253475, Alt.=775.867676m. Speed=5.472000m/h.</desc>
<speed>1.520000</speed>
</trkpt>
<trkpt lat="43.184624" lon="19.253418">
<ele>776.508301</ele>
<time>2012-04-29T11:19:30Z</time>
<desc>lat.=43.184624, lon.=19.253418, Alt.=776.508301m. Speed=5.292000m/h.</desc>
<speed>1.470000</speed>
</trkpt>
<trkpt lat="43.184673" lon="19.253355">
<ele>777.008301</ele>
<time>2012-04-29T11:19:35Z</time>
<desc>lat.=43.184673, lon.=19.253355, Alt.=777.008301m. Speed=4.428000m/h.</desc>
<speed>1.230000</speed>
</trkpt>
<trkpt lat="43.184723" lon="19.253302">
<ele>777.898926</ele>
<time>2012-04-29T11:19:40Z</time>
<desc>lat.=43.184723, lon.=19.253302, Alt.=777.898926m. Speed=5.544000m/h.</desc>
<speed>1.540000</speed>
</trkpt>
<trkpt lat="43.184772" lon="19.253250">
<ele>778.398926</ele>
<time>2012-04-29T11:19:45Z</time>
<desc>lat.=43.184772, lon.=19.253250, Alt.=778.398926m. Speed=5.940000m/h.</desc>
<speed>1.650000</speed>
</trkpt>
<trkpt lat="43.184826" lon="19.253204">
<ele>779.742676</ele>
<time>2012-04-29T11:19:50Z</time>
<desc>lat.=43.184826, lon.=19.253204, Alt.=779.742676m. Speed=6.084000m/h.</desc>
<speed>1.690000</speed>
</trkpt>
<trkpt lat="43.184891" lon="19.253174">
<ele>781.336426</ele>
<time>2012-04-29T11:19:55Z</time>
<desc>lat.=43.184891, lon.=19.253174, Alt.=781.336426m. Speed=5.508000m/h.</desc>
<speed>1.530000</speed>
</trkpt>
<trkpt lat="43.184948" lon="19.253141">
<ele>782.539551</ele>
<time>2012-04-29T11:20:00Z</time>
<desc>lat.=43.184948, lon.=19.253141, Alt.=782.539551m. Speed=5.976000m/h.</desc>
<speed>1.660000</speed>
</trkpt>
<trkpt lat="43.185005" lon="19.253059">
<ele>784.008301</ele>
<time>2012-04-29T11:20:05Z</time>
<desc>lat.=43.185005, lon.=19.253059, Alt.=784.008301m. Speed=5.904000m/h.</desc>
<speed>1.640000</speed>
</trkpt>
<trkpt lat="43.185032" lon="19.252949">
<ele>785.102051</ele>
<time>2012-04-29T11:20:10Z</time>
<desc>lat.=43.185032, lon.=19.252949, Alt.=785.102051m. Speed=6.372000m/h.</desc>
<speed>1.770000</speed>
</trkpt>
<trkpt lat="43.185066" lon="19.252842">
<ele>786.023926</ele>
<time>2012-04-29T11:20:15Z</time>
<desc>lat.=43.185066, lon.=19.252842, Alt.=786.023926m. Speed=5.364000m/h.</desc>
<speed>1.490000</speed>
</trkpt>
<trkpt lat="43.185112" lon="19.252773">
<ele>787.305176</ele>
<time>2012-04-29T11:20:20Z</time>
<desc>lat.=43.185112, lon.=19.252773, Alt.=787.305176m. Speed=3.924000m/h.</desc>
<speed>1.090000</speed>
</trkpt>
<trkpt lat="43.185120" lon="19.252777">
<ele>788.133301</ele>
<time>2012-04-29T11:20:25Z</time>
<desc>lat.=43.185120, lon.=19.252777, Alt.=788.133301m. Speed=0.324000m/h.</desc>
<speed>0.090000</speed>
</trkpt>
<trkpt lat="43.185143" lon="19.252754">
<ele>789.117676</ele>
<time>2012-04-29T11:20:30Z</time>
<desc>lat.=43.185143, lon.=19.252754, Alt.=789.117676m. Speed=2.916000m/h.</desc>
<speed>0.810000</speed>
</trkpt>
<trkpt lat="43.185146" lon="19.252745">
<ele>789.211426</ele>
<time>2012-04-29T11:20:35Z</time>
<desc>lat.=43.185146, lon.=19.252745, Alt.=789.211426m. Speed=0.216000m/h.</desc>
<speed>0.060000</speed>
</trkpt>
<trkpt lat="43.185146" lon="19.252743">
<ele>789.227051</ele>
<time>2012-04-29T11:20:40Z</time>
<desc>lat.=43.185146, lon.=19.252743, Alt.=789.227051m. Speed=0.000000m/h.</desc>
<speed>0.000000</speed>
</trkpt>
<trkpt lat="43.185146" lon="19.252743">
<ele>789.195801</ele>
<time>2012-04-29T11:20:45Z</time>
<desc>lat.=43.185146, lon.=19.252743, Alt.=789.195801m. Speed=0.036000m/h.</desc>
<speed>0.010000</speed>
</trkpt>
<trkpt lat="43.185146" lon="19.252741">
<ele>789.180176</ele>
<time>2012-04-29T11:20:50Z</time>
<desc>lat.=43.185146, lon.=19.252741, Alt.=789.180176m. Speed=3.636000m/h.</desc>
<speed>1.010000</speed>
</trkpt>
<trkpt lat="43.185173" lon="19.252687">
<ele>789.570801</ele>
<time>2012-04-29T11:20:55Z</time>
<desc>lat.=43.185173, lon.=19.252687, Alt.=789.570801m. Speed=4.248000m/h.</desc>
<speed>1.180000</speed>
</trkpt>
<trkpt lat="43.185196" lon="19.252628">
<ele>789.680176</ele>
<time>2012-04-29T11:21:00Z</time>
<desc>lat.=43.185196, lon.=19.252628, Alt.=789.680176m. Speed=3.960000m/h.</desc>
<speed>1.100000</speed>
</trkpt>
<trkpt lat="43.185211" lon="19.252563">
<ele>790.477051</ele>
<time>2012-04-29T11:21:05Z</time>
<desc>lat.=43.185211, lon.=19.252563, Alt.=790.477051m. Speed=3.384000m/h.</desc>
<speed>0.940000</speed>
</trkpt>
<trkpt lat="43.185207" lon="19.252504">
<ele>791.211426</ele>
<time>2012-04-29T11:21:10Z</time>
<desc>lat.=43.185207, lon.=19.252504, Alt.=791.211426m. Speed=2.268000m/h.</desc>
<speed>0.630000</speed>
</trkpt>
<trkpt lat="43.185196" lon="19.252447">
<ele>792.211426</ele>
<time>2012-04-29T11:21:15Z</time>
<desc>lat.=43.185196, lon.=19.252447, Alt.=792.211426m. Speed=3.456000m/h.</desc>
<speed>0.960000</speed>
</trkpt>
<trkpt lat="43.185169" lon="19.252390">
<ele>793.242676</ele>
<time>2012-04-29T11:21:20Z</time>
<desc>lat.=43.185169, lon.=19.252390, Alt.=793.242676m. Speed=3.780000m/h.</desc>
<speed>1.050000</speed>
</trkpt>
<trkpt lat="43.185146" lon="19.252323">
<ele>794.086426</ele>
<time>2012-04-29T11:21:25Z</time>
<desc>lat.=43.185146, lon.=19.252323, Alt.=794.086426m. Speed=4.284000m/h.</desc>
<speed>1.190000</speed>
</trkpt>
<trkpt lat="43.185116" lon="19.252253">
<ele>794.727051</ele>
<time>2012-04-29T11:21:30Z</time>
<desc>lat.=43.185116, lon.=19.252253, Alt.=794.727051m. Speed=4.428000m/h.</desc>
<speed>1.230000</speed>
</trkpt>
<trkpt lat="43.185093" lon="19.252213">
<ele>794.977051</ele>
<time>2012-04-29T11:21:35Z</time>
<desc>lat.=43.185093, lon.=19.252213, Alt.=794.977051m. Speed=0.936000m/h.</desc>
<speed>0.260000</speed>
</trkpt>
<trkpt lat="43.185070" lon="19.252169">
<ele>795.414551</ele>
<time>2012-04-29T11:21:40Z</time>
<desc>lat.=43.185070, lon.=19.252169, Alt.=795.414551m. Speed=4.392000m/h.</desc>
<speed>1.220000</speed>
</trkpt>
<trkpt lat="43.185047" lon="19.252102">
<ele>796.477051</ele>
<time>2012-04-29T11:21:45Z</time>
<desc>lat.=43.185047, lon.=19.252102, Alt.=796.477051m. Speed=5.076000m/h.</desc>
<speed>1.410000</speed>
</trkpt>
<trkpt lat="43.185036" lon="19.252024">
<ele>796.680176</ele>
<time>2012-04-29T11:21:50Z</time>
<desc>lat.=43.185036, lon.=19.252024, Alt.=796.680176m. Speed=3.564000m/h.</desc>
<speed>0.990000</speed>
</trkpt>
<trkpt lat="43.185028" lon="19.251965">
<ele>797.148926</ele>
<time>2012-04-29T11:21:55Z</time>
<desc>lat.=43.185028, lon.=19.251965, Alt.=797.148926m. Speed=3.348000m/h.</desc>
<speed>0.930000</speed>
</trkpt>
<trkpt lat="43.185032" lon="19.251907">
<ele>798.211426</ele>
<time>2012-04-29T11:22:00Z</time>
<desc>lat.=43.185032, lon.=19.251907, Alt.=798.211426m. Speed=2.880000m/h.</desc>
<speed>0.800000</speed>
</trkpt>
<trkpt lat="43.185036" lon="19.251856">
<ele>799.789551</ele>
<time>2012-04-29T11:22:05Z</time>
<desc>lat.=43.185036, lon.=19.251856, Alt.=799.789551m. Speed=3.708000m/h.</desc>
<speed>1.030000</speed>
</trkpt>
<trkpt lat="43.185040" lon="19.251793">
<ele>800.430176</ele>
<time>2012-04-29T11:22:10Z</time>
<desc>lat.=43.185040, lon.=19.251793, Alt.=800.430176m. Speed=3.312000m/h.</desc>
<speed>0.920000</speed>
</trkpt>
<trkpt lat="43.185032" lon="19.251732">
<ele>801.273926</ele>
<time>2012-04-29T11:22:15Z</time>
<desc>lat.=43.185032, lon.=19.251732, Alt.=801.273926m. Speed=3.384000m/h.</desc>
<speed>0.940000</speed>
</trkpt>
<trkpt lat="43.185020" lon="19.251678">
<ele>802.883301</ele>
<time>2012-04-29T11:22:20Z</time>
<desc>lat.=43.185020, lon.=19.251678, Alt.=802.883301m. Speed=3.528000m/h.</desc>
<speed>0.980000</speed>
</trkpt>
<trkpt lat="43.185001" lon="19.251612">
<ele>803.711426</ele>
<time>2012-04-29T11:22:25Z</time>
<desc>lat.=43.185001, lon.=19.251612, Alt.=803.711426m. Speed=3.852000m/h.</desc>
<speed>1.070000</speed>
</trkpt>
<trkpt lat="43.184982" lon="19.251541">
<ele>804.289551</ele>
<time>2012-04-29T11:22:30Z</time>
<desc>lat.=43.184982, lon.=19.251541, Alt.=804.289551m. Speed=3.636000m/h.</desc>
<speed>1.010000</speed>
</trkpt>
<trkpt lat="43.184975" lon="19.251488">
<ele>805.883301</ele>
<time>2012-04-29T11:22:35Z</time>
<desc>lat.=43.184975, lon.=19.251488, Alt.=805.883301m. Speed=3.204000m/h.</desc>
<speed>0.890000</speed>
</trkpt>
<trkpt lat="43.184986" lon="19.251444">
<ele>806.227051</ele>
<time>2012-04-29T11:22:40Z</time>
<desc>lat.=43.184986, lon.=19.251444, Alt.=806.227051m. Speed=1.908000m/h.</desc>
<speed>0.530000</speed>
</trkpt>
<trkpt lat="43.185013" lon="19.251431">
<ele>806.836426</ele>
<time>2012-04-29T11:22:45Z</time>
<desc>lat.=43.185013, lon.=19.251431, Alt.=806.836426m. Speed=2.952000m/h.</desc>
<speed>0.820000</speed>
</trkpt>
<trkpt lat="43.185062" lon="19.251434">
<ele>807.727051</ele>
<time>2012-04-29T11:22:50Z</time>
<desc>lat.=43.185062, lon.=19.251434, Alt.=807.727051m. Speed=2.592000m/h.</desc>
<speed>0.720000</speed>
</trkpt>
<trkpt lat="43.185062" lon="19.251431">
<ele>807.898926</ele>
<time>2012-04-29T11:22:55Z</time>
<desc>lat.=43.185062, lon.=19.251431, Alt.=807.898926m. Speed=0.108000m/h.</desc>
<speed>0.030000</speed>
</trkpt>
<trkpt lat="43.185062" lon="19.251431">
<ele>808.055176</ele>
<time>2012-04-29T11:23:00Z</time>
<desc>lat.=43.185062, lon.=19.251431, Alt.=808.055176m. Speed=0.036000m/h.</desc>
<speed>0.010000</speed>
</trkpt>
<trkpt lat="43.185062" lon="19.251432">
<ele>808.117676</ele>
<time>2012-04-29T11:23:05Z</time>
<desc>lat.=43.185062, lon.=19.251432, Alt.=808.117676m. Speed=0.036000m/h.</desc>
<speed>0.010000</speed>
</trkpt>
<trkpt lat="43.185062" lon="19.251432">
<ele>808.102051</ele>
<time>2012-04-29T11:23:10Z</time>
<desc>lat.=43.185062, lon.=19.251432, Alt.=808.102051m. Speed=0.504000m/h.</desc>
<speed>0.140000</speed>
</trkpt>
<trkpt lat="43.185070" lon="19.251448">
<ele>808.352051</ele>
<time>2012-04-29T11:23:15Z</time>
<desc>lat.=43.185070, lon.=19.251448, Alt.=808.352051m. Speed=0.108000m/h.</desc>
<speed>0.030000</speed>
</trkpt>
<trkpt lat="43.185085" lon="19.251451">
<ele>808.539551</ele>
<time>2012-04-29T11:23:20Z</time>
<desc>lat.=43.185085, lon.=19.251451, Alt.=808.539551m. Speed=2.952000m/h.</desc>
<speed>0.820000</speed>
</trkpt>
<trkpt lat="43.185143" lon="19.251490">
<ele>809.258301</ele>
<time>2012-04-29T11:23:25Z</time>
<desc>lat.=43.185143, lon.=19.251490, Alt.=809.258301m. Speed=6.336000m/h.</desc>
<speed>1.760000</speed>
</trkpt>
<trkpt lat="43.185223" lon="19.251539">
<ele>810.211426</ele>
<time>2012-04-29T11:23:30Z</time>
<desc>lat.=43.185223, lon.=19.251539, Alt.=810.211426m. Speed=6.624000m/h.</desc>
<speed>1.840000</speed>
</trkpt>
<trkpt lat="43.185299" lon="19.251604">
<ele>810.820801</ele>
<time>2012-04-29T11:23:35Z</time>
<desc>lat.=43.185299, lon.=19.251604, Alt.=810.820801m. Speed=7.128000m/h.</desc>
<speed>1.980000</speed>
</trkpt>
<trkpt lat="43.185360" lon="19.251686">
<ele>812.180176</ele>
<time>2012-04-29T11:23:40Z</time>
<desc>lat.=43.185360, lon.=19.251686, Alt.=812.180176m. Speed=6.156000m/h.</desc>
<speed>1.710000</speed>
</trkpt>
<trkpt lat="43.185406" lon="19.251774">
<ele>814.070801</ele>
<time>2012-04-29T11:23:45Z</time>
<desc>lat.=43.185406, lon.=19.251774, Alt.=814.070801m. Speed=6.444000m/h.</desc>
<speed>1.790000</speed>
</trkpt>
<trkpt lat="43.185459" lon="19.251863">
<ele>815.617676</ele>
<time>2012-04-29T11:23:50Z</time>
<desc>lat.=43.185459, lon.=19.251863, Alt.=815.617676m. Speed=7.272000m/h.</desc>
<speed>2.020000</speed>
</trkpt>
<trkpt lat="43.185513" lon="19.251936">
<ele>817.164551</ele>
<time>2012-04-29T11:23:55Z</time>
<desc>lat.=43.185513, lon.=19.251936, Alt.=817.164551m. Speed=6.264000m/h.</desc>
<speed>1.740000</speed>
</trkpt>
<trkpt lat="43.185574" lon="19.252014">
<ele>818.383301</ele>
<time>2012-04-29T11:24:00Z</time>
<desc>lat.=43.185574, lon.=19.252014, Alt.=818.383301m. Speed=6.984000m/h.</desc>
<speed>1.940000</speed>
</trkpt>
<trkpt lat="43.185646" lon="19.252056">
<ele>819.492676</ele>
<time>2012-04-29T11:24:05Z</time>
<desc>lat.=43.185646, lon.=19.252056, Alt.=819.492676m. Speed=6.048000m/h.</desc>
<speed>1.680000</speed>
</trkpt>
<trkpt lat="43.185707" lon="19.252071">
<ele>819.773926</ele>
<time>2012-04-29T11:24:10Z</time>
<desc>lat.=43.185707, lon.=19.252071, Alt.=819.773926m. Speed=4.896000m/h.</desc>
<speed>1.360000</speed>
</trkpt>
<trkpt lat="43.185760" lon="19.252045">
<ele>821.023926</ele>
<time>2012-04-29T11:24:15Z</time>
<desc>lat.=43.185760, lon.=19.252045, Alt.=821.023926m. Speed=5.076000m/h.</desc>
<speed>1.410000</speed>
</trkpt>
<trkpt lat="43.185760" lon="19.251965">
<ele>822.320801</ele>
<time>2012-04-29T11:24:20Z</time>
<desc>lat.=43.185760, lon.=19.251965, Alt.=822.320801m. Speed=5.112000m/h.</desc>
<speed>1.420000</speed>
</trkpt>
<trkpt lat="43.185730" lon="19.251867">
<ele>823.727051</ele>
<time>2012-04-29T11:24:25Z</time>
<desc>lat.=43.185730, lon.=19.251867, Alt.=823.727051m. Speed=6.048000m/h.</desc>
<speed>1.680000</speed>
</trkpt>
<trkpt lat="43.185699" lon="19.251797">
<ele>825.008301</ele>
<time>2012-04-29T11:24:30Z</time>
<desc>lat.=43.185699, lon.=19.251797, Alt.=825.008301m. Speed=4.068000m/h.</desc>
<speed>1.130000</speed>
</trkpt>
<trkpt lat="43.185677" lon="19.251719">
<ele>825.492676</ele>
<time>2012-04-29T11:24:35Z</time>
<desc>lat.=43.185677, lon.=19.251719, Alt.=825.492676m. Speed=5.292000m/h.</desc>
<speed>1.470000</speed>
</trkpt>
<trkpt lat="43.185673" lon="19.251612">
<ele>825.445801</ele>
<time>2012-04-29T11:24:40Z</time>
<desc>lat.=43.185673, lon.=19.251612, Alt.=825.445801m. Speed=5.832000m/h.</desc>
<speed>1.620000</speed>
</trkpt>
<trkpt lat="43.185661" lon="19.251505">
<ele>825.711426</ele>
<time>2012-04-29T11:24:45Z</time>
<desc>lat.=43.185661, lon.=19.251505, Alt.=825.711426m. Speed=6.156000m/h.</desc>
<speed>1.710000</speed>
</trkpt>
<trkpt lat="43.185658" lon="19.251390">
<ele>827.008301</ele>
<time>2012-04-29T11:24:50Z</time>
<desc>lat.=43.185658, lon.=19.251390, Alt.=827.008301m. Speed=6.300000m/h.</desc>
<speed>1.750000</speed>
</trkpt>
<trkpt lat="43.185658" lon="19.251268">
<ele>827.680176</ele>
<time>2012-04-29T11:24:55Z</time>
<desc>lat.=43.185658, lon.=19.251268, Alt.=827.680176m. Speed=5.400000m/h.</desc>
<speed>1.500000</speed>
</trkpt>
<trkpt lat="43.185673" lon="19.251177">
<ele>827.898926</ele>
<time>2012-04-29T11:25:00Z</time>
<desc>lat.=43.185673, lon.=19.251177, Alt.=827.898926m. Speed=5.868000m/h.</desc>
<speed>1.630000</speed>
</trkpt>
<trkpt lat="43.185703" lon="19.251089">
<ele>828.352051</ele>
<time>2012-04-29T11:25:05Z</time>
<desc>lat.=43.185703, lon.=19.251089, Alt.=828.352051m. Speed=5.652000m/h.</desc>
<speed>1.570000</speed>
</trkpt>
<trkpt lat="43.185707" lon="19.250999">
<ele>830.648926</ele>
<time>2012-04-29T11:25:10Z</time>
<desc>lat.=43.185707, lon.=19.250999, Alt.=830.648926m. Speed=5.040000m/h.</desc>
<speed>1.400000</speed>
</trkpt>
<trkpt lat="43.185699" lon="19.250912">
<ele>832.586426</ele>
<time>2012-04-29T11:25:15Z</time>
<desc>lat.=43.185699, lon.=19.250912, Alt.=832.586426m. Speed=4.752000m/h.</desc>
<speed>1.320000</speed>
</trkpt>
<trkpt lat="43.185680" lon="19.250830">
<ele>833.977051</ele>
<time>2012-04-29T11:25:20Z</time>
<desc>lat.=43.185680, lon.=19.250830, Alt.=833.977051m. Speed=4.464000m/h.</desc>
<speed>1.240000</speed>
</trkpt>
<trkpt lat="43.185677" lon="19.250761">
<ele>835.164551</ele>
<time>2012-04-29T11:25:25Z</time>
<desc>lat.=43.185677, lon.=19.250761, Alt.=835.164551m. Speed=4.428000m/h.</desc>
<speed>1.230000</speed>
</trkpt>
<trkpt lat="43.185665" lon="19.250681">
<ele>835.727051</ele>
<time>2012-04-29T11:25:30Z</time>
<desc>lat.=43.185665, lon.=19.250681, Alt.=835.727051m. Speed=4.572000m/h.</desc>
<speed>1.270000</speed>
</trkpt>
<trkpt lat="43.185665" lon="19.250620">
<ele>837.477051</ele>
<time>2012-04-29T11:25:35Z</time>
<desc>lat.=43.185665, lon.=19.250620, Alt.=837.477051m. Speed=4.788000m/h.</desc>
<speed>1.330000</speed>
</trkpt>
<trkpt lat="43.185665" lon="19.250557">
<ele>840.602051</ele>
<time>2012-04-29T11:25:40Z</time>
<desc>lat.=43.185665, lon.=19.250557, Alt.=840.602051m. Speed=2.880000m/h.</desc>
<speed>0.800000</speed>
</trkpt>
<trkpt lat="43.185684" lon="19.250475">
<ele>841.508301</ele>
<time>2012-04-29T11:25:45Z</time>
<desc>lat.=43.185684, lon.=19.250475, Alt.=841.508301m. Speed=4.788000m/h.</desc>
<speed>1.330000</speed>
</trkpt>
<trkpt lat="43.185715" lon="19.250406">
<ele>842.727051</ele>
<time>2012-04-29T11:25:50Z</time>
<desc>lat.=43.185715, lon.=19.250406, Alt.=842.727051m. Speed=4.212000m/h.</desc>
<speed>1.170000</speed>
</trkpt>
<trkpt lat="43.185738" lon="19.250338">
<ele>843.758301</ele>
<time>2012-04-29T11:25:55Z</time>
<desc>lat.=43.185738, lon.=19.250338, Alt.=843.758301m. Speed=4.644000m/h.</desc>
<speed>1.290000</speed>
</trkpt>
<trkpt lat="43.185764" lon="19.250263">
<ele>844.445801</ele>
<time>2012-04-29T11:26:00Z</time>
<desc>lat.=43.185764, lon.=19.250263, Alt.=844.445801m. Speed=4.716000m/h.</desc>
<speed>1.310000</speed>
</trkpt>
<trkpt lat="43.185776" lon="19.250187">
<ele>845.273926</ele>
<time>2012-04-29T11:26:05Z</time>
<desc>lat.=43.185776, lon.=19.250187, Alt.=845.273926m. Speed=4.968000m/h.</desc>
<speed>1.380000</speed>
</trkpt>
<trkpt lat="43.185791" lon="19.250105">
<ele>846.852051</ele>
<time>2012-04-29T11:26:10Z</time>
<desc>lat.=43.185791, lon.=19.250105, Alt.=846.852051m. Speed=4.716000m/h.</desc>
<speed>1.310000</speed>
</trkpt>
<trkpt lat="43.185776" lon="19.250023">
<ele>849.070801</ele>
<time>2012-04-29T11:26:15Z</time>
<desc>lat.=43.185776, lon.=19.250023, Alt.=849.070801m. Speed=4.752000m/h.</desc>
<speed>1.320000</speed>
</trkpt>
<trkpt lat="43.185757" lon="19.249949">
<ele>851.211426</ele>
<time>2012-04-29T11:26:20Z</time>
<desc>lat.=43.185757, lon.=19.249949, Alt.=851.211426m. Speed=3.996000m/h.</desc>
<speed>1.110000</speed>
</trkpt>
<trkpt lat="43.185753" lon="19.249943">
<ele>852.289551</ele>
<time>2012-04-29T11:26:25Z</time>
<desc>lat.=43.185753, lon.=19.249943, Alt.=852.289551m. Speed=0.360000m/h.</desc>
<speed>0.100000</speed>
</trkpt>
<trkpt lat="43.185749" lon="19.249922">
<ele>853.320801</ele>
<time>2012-04-29T11:26:30Z</time>
<desc>lat.=43.185749, lon.=19.249922, Alt.=853.320801m. Speed=3.744000m/h.</desc>
<speed>1.040000</speed>
</trkpt>
<trkpt lat="43.185738" lon="19.249866">
<ele>856.273926</ele>
<time>2012-04-29T11:26:35Z</time>
<desc>lat.=43.185738, lon.=19.249866, Alt.=856.273926m. Speed=2.376000m/h.</desc>
<speed>0.660000</speed>
</trkpt>
<trkpt lat="43.185734" lon="19.249830">
<ele>858.289551</ele>
<time>2012-04-29T11:26:40Z</time>
<desc>lat.=43.185734, lon.=19.249830, Alt.=858.289551m. Speed=0.576000m/h.</desc>
<speed>0.160000</speed>
</trkpt>
<trkpt lat="43.185741" lon="19.249786">
<ele>856.539551</ele>
<time>2012-04-29T11:26:45Z</time>
<desc>lat.=43.185741, lon.=19.249786, Alt.=856.539551m. Speed=0.072000m/h.</desc>
<speed>0.020000</speed>
</trkpt>
<trkpt lat="43.185741" lon="19.249779">
<ele>856.289551</ele>
<time>2012-04-29T11:26:50Z</time>
<desc>lat.=43.185741, lon.=19.249779, Alt.=856.289551m. Speed=0.000000m/h.</desc>
<speed>0.000000</speed>
</trkpt>
<trkpt lat="43.185741" lon="19.249779">
<ele>856.195801</ele>
<time>2012-04-29T11:26:55Z</time>
<desc>lat.=43.185741, lon.=19.249779, Alt.=856.195801m. Speed=0.144000m/h.</desc>
<speed>0.040000</speed>
</trkpt>
<trkpt lat="43.185741" lon="19.249779">
<ele>856.211426</ele>
<time>2012-04-29T11:27:00Z</time>
<desc>lat.=43.185741, lon.=19.249779, Alt.=856.211426m. Speed=0.036000m/h.</desc>
<speed>0.010000</speed>
</trkpt>
<trkpt lat="43.185741" lon="19.249777">
<ele>856.195801</ele>
<time>2012-04-29T11:27:05Z</time>
<desc>lat.=43.185741, lon.=19.249777, Alt.=856.195801m. Speed=0.036000m/h.</desc>
<speed>0.010000</speed>
</trkpt>
<trkpt lat="43.185741" lon="19.249777">
<ele>856.180176</ele>
<time>2012-04-29T11:27:10Z</time>
<desc>lat.=43.185741, lon.=19.249777, Alt.=856.180176m. Speed=0.000000m/h.</desc>
<speed>0.000000</speed>
</trkpt>
<trkpt lat="43.185741" lon="19.249767">
<ele>856.133301</ele>
<time>2012-04-29T11:27:15Z</time>
<desc>lat.=43.185741, lon.=19.249767, Alt.=856.133301m. Speed=3.780000m/h.</desc>
<speed>1.050000</speed>
</trkpt>
<trkpt lat="43.185738" lon="19.249689">
<ele>856.461426</ele>
<time>2012-04-29T11:27:20Z</time>
<desc>lat.=43.185738, lon.=19.249689, Alt.=856.461426m. Speed=5.364000m/h.</desc>
<speed>1.490000</speed>
</trkpt>
<trkpt lat="43.185738" lon="19.249615">
<ele>856.070801</ele>
<time>2012-04-29T11:27:25Z</time>
<desc>lat.=43.185738, lon.=19.249615, Alt.=856.070801m. Speed=2.916000m/h.</desc>
<speed>0.810000</speed>
</trkpt>
<trkpt lat="43.185749" lon="19.249554">
<ele>855.461426</ele>
<time>2012-04-29T11:27:30Z</time>
<desc>lat.=43.185749, lon.=19.249554, Alt.=855.461426m. Speed=3.024000m/h.</desc>
<speed>0.840000</speed>
</trkpt>
<trkpt lat="43.185760" lon="19.249512">
<ele>855.383301</ele>
<time>2012-04-29T11:27:35Z</time>
<desc>lat.=43.185760, lon.=19.249512, Alt.=855.383301m. Speed=1.908000m/h.</desc>
<speed>0.530000</speed>
</trkpt>
<trkpt lat="43.185764" lon="19.249475">
<ele>855.367676</ele>
<time>2012-04-29T11:27:40Z</time>
<desc>lat.=43.185764, lon.=19.249475, Alt.=855.367676m. Speed=2.304000m/h.</desc>
<speed>0.640000</speed>
</trkpt>
<trkpt lat="43.185768" lon="19.249434">
<ele>855.570801</ele>
<time>2012-04-29T11:27:45Z</time>
<desc>lat.=43.185768, lon.=19.249434, Alt.=855.570801m. Speed=2.412000m/h.</desc>
<speed>0.670000</speed>
</trkpt>
<trkpt lat="43.185776" lon="19.249395">
<ele>855.680176</ele>
<time>2012-04-29T11:27:50Z</time>
<desc>lat.=43.185776, lon.=19.249395, Alt.=855.680176m. Speed=2.808000m/h.</desc>
<speed>0.780000</speed>
</trkpt>
<trkpt lat="43.185787" lon="19.249359">
<ele>856.539551</ele>
<time>2012-04-29T11:27:55Z</time>
<desc>lat.=43.185787, lon.=19.249359, Alt.=856.539551m. Speed=0.108000m/h.</desc>
<speed>0.030000</speed>
</trkpt>
<trkpt lat="43.185787" lon="19.249359">
<ele>856.617676</ele>
<time>2012-04-29T11:28:00Z</time>
<desc>lat.=43.185787, lon.=19.249359, Alt.=856.617676m. Speed=0.000000m/h.</desc>
<speed>0.000000</speed>
</trkpt>
<trkpt lat="43.185787" lon="19.249359">
<ele>856.633301</ele>
<time>2012-04-29T11:28:05Z</time>
<desc>lat.=43.185787, lon.=19.249359, Alt.=856.633301m. Speed=0.000000m/h.</desc>
<speed>0.000000</speed>
</trkpt>
<trkpt lat="43.185787" lon="19.249359">
<ele>856.586426</ele>
<time>2012-04-29T11:28:10Z</time>
<desc>lat.=43.185787, lon.=19.249359, Alt.=856.586426m. Speed=0.000000m/h.</desc>
<speed>0.000000</speed>
</trkpt>
<trkpt lat="43.185787" lon="19.249359">
<ele>856.602051</ele>
<time>2012-04-29T11:28:15Z</time>
<desc>lat.=43.185787, lon.=19.249359, Alt.=856.602051m. Speed=0.036000m/h.</desc>
<speed>0.010000</speed>
</trkpt>
<trkpt lat="43.185787" lon="19.249359">
<ele>856.602051</ele>
<time>2012-04-29T11:28:20Z</time>
<desc>lat.=43.185787, lon.=19.249359, Alt.=856.602051m. Speed=0.072000m/h.</desc>
<speed>0.020000</speed>
</trkpt>
<trkpt lat="43.185787" lon="19.249359">
<ele>856.617676</ele>
<time>2012-04-29T11:28:25Z</time>
<desc>lat.=43.185787, lon.=19.249359, Alt.=856.617676m. Speed=0.036000m/h.</desc>
<speed>0.010000</speed>
</trkpt>
<trkpt lat="43.185787" lon="19.249359">
<ele>856.633301</ele>
<time>2012-04-29T11:28:30Z</time>
<desc>lat.=43.185787, lon.=19.249359, Alt.=856.633301m. Speed=0.000000m/h.</desc>
<speed>0.000000</speed>
</trkpt>
<trkpt lat="43.185787" lon="19.249359">
<ele>856.648926</ele>
<time>2012-04-29T11:28:35Z</time>
<desc>lat.=43.185787, lon.=19.249359, Alt.=856.648926m. Speed=0.000000m/h.</desc>
<speed>0.000000</speed>
</trkpt>
<trkpt lat="43.185787" lon="19.249359">
<ele>856.664551</ele>
<time>2012-04-29T11:28:40Z</time>
<desc>lat.=43.185787, lon.=19.249359, Alt.=856.664551m. Speed=0.036000m/h.</desc>
<speed>0.010000</speed>
</trkpt>
<trkpt lat="43.185787" lon="19.249359">
<ele>856.664551</ele>
<time>2012-04-29T11:28:45Z</time>
<desc>lat.=43.185787, lon.=19.249359, Alt.=856.664551m. Speed=0.036000m/h.</desc>
<speed>0.010000</speed>
</trkpt>
<trkpt lat="43.185787" lon="19.249359">
<ele>856.664551</ele>
<time>2012-04-29T11:28:50Z</time>
<desc>lat.=43.185787, lon.=19.249359, Alt.=856.664551m. Speed=0.000000m/h.</desc>
<speed>0.000000</speed>
</trkpt>
<trkpt lat="43.185787" lon="19.249359">
<ele>856.680176</ele>
<time>2012-04-29T11:28:55Z</time>
<desc>lat.=43.185787, lon.=19.249359, Alt.=856.680176m. Speed=0.000000m/h.</desc>
<speed>0.000000</speed>
</trkpt>
<trkpt lat="43.185787" lon="19.249359">
<ele>856.664551</ele>
<time>2012-04-29T11:29:00Z</time>
<desc>lat.=43.185787, lon.=19.249359, Alt.=856.664551m. Speed=0.000000m/h.</desc>
<speed>0.000000</speed>
</trkpt>
<trkpt lat="43.185787" lon="19.249359">
<ele>856.648926</ele>
<time>2012-04-29T11:29:05Z</time>
<desc>lat.=43.185787, lon.=19.249359, Alt.=856.648926m. Speed=0.000000m/h.</desc>
<speed>0.000000</speed>
</trkpt>
<trkpt lat="43.185787" lon="19.249359">
<ele>856.633301</ele>
<time>2012-04-29T11:29:10Z</time>
<desc>lat.=43.185787, lon.=19.249359, Alt.=856.633301m. Speed=0.072000m/h.</desc>
<speed>0.020000</speed>
</trkpt>
<trkpt lat="43.185787" lon="19.249359">
<ele>856.617676</ele>
<time>2012-04-29T11:29:15Z</time>
<desc>lat.=43.185787, lon.=19.249359, Alt.=856.617676m. Speed=0.036000m/h.</desc>
<speed>0.010000</speed>
</trkpt>
<trkpt lat="43.185787" lon="19.249359">
<ele>856.617676</ele>
<time>2012-04-29T11:29:20Z</time>
<desc>lat.=43.185787, lon.=19.249359, Alt.=856.617676m. Speed=0.000000m/h.</desc>
<speed>0.000000</speed>
</trkpt>
<trkpt lat="43.185787" lon="19.249359">
<ele>856.617676</ele>
<time>2012-04-29T11:29:25Z</time>
<desc>lat.=43.185787, lon.=19.249359, Alt.=856.617676m. Speed=0.000000m/h.</desc>
<speed>0.000000</speed>
</trkpt>
<trkpt lat="43.185787" lon="19.249359">
<ele>856.633301</ele>
<time>2012-04-29T11:29:30Z</time>
<desc>lat.=43.185787, lon.=19.249359, Alt.=856.633301m. Speed=0.000000m/h.</desc>
<speed>0.000000</speed>
</trkpt>
<trkpt lat="43.185787" lon="19.249359">
<ele>856.633301</ele>
<time>2012-04-29T11:29:35Z</time>
<desc>lat.=43.185787, lon.=19.249359, Alt.=856.633301m. Speed=0.000000m/h.</desc>
<speed>0.000000</speed>
</trkpt>
<trkpt lat="43.185787" lon="19.249359">
<ele>856.648926</ele>
<time>2012-04-29T11:29:40Z</time>
<desc>lat.=43.185787, lon.=19.249359, Alt.=856.648926m. Speed=0.000000m/h.</desc>
<speed>0.000000</speed>
</trkpt>
<trkpt lat="43.185787" lon="19.249359">
<ele>856.648926</ele>
<time>2012-04-29T11:29:45Z</time>
<desc>lat.=43.185787, lon.=19.249359, Alt.=856.648926m. Speed=0.000000m/h.</desc>
<speed>0.000000</speed>
</trkpt>
<trkpt lat="43.185787" lon="19.249359">
<ele>856.648926</ele>
<time>2012-04-29T11:29:50Z</time>
<desc>lat.=43.185787, lon.=19.249359, Alt.=856.648926m. Speed=0.000000m/h.</desc>
<speed>0.000000</speed>
</trkpt>
<trkpt lat="43.185787" lon="19.249359">
<ele>856.633301</ele>
<time>2012-04-29T11:29:55Z</time>
<desc>lat.=43.185787, lon.=19.249359, Alt.=856.633301m. Speed=0.000000m/h.</desc>
<speed>0.000000</speed>
</trkpt>
<trkpt lat="43.185787" lon="19.249350">
<ele>856.836426</ele>
<time>2012-04-29T11:30:00Z</time>
<desc>lat.=43.185787, lon.=19.249350, Alt.=856.836426m. Speed=2.592000m/h.</desc>
<speed>0.720000</speed>
</trkpt>
<trkpt lat="43.185783" lon="19.249346">
<ele>856.570801</ele>
<time>2012-04-29T11:30:05Z</time>
<desc>lat.=43.185783, lon.=19.249346, Alt.=856.570801m. Speed=0.072000m/h.</desc>
<speed>0.020000</speed>
</trkpt>
<trkpt lat="43.185783" lon="19.249346">
<ele>856.617676</ele>
<time>2012-04-29T11:30:10Z</time>
<desc>lat.=43.185783, lon.=19.249346, Alt.=856.617676m. Speed=0.000000m/h.</desc>
<speed>0.000000</speed>
</trkpt>
<trkpt lat="43.185783" lon="19.249346">
<ele>856.617676</ele>
<time>2012-04-29T11:30:15Z</time>
<desc>lat.=43.185783, lon.=19.249346, Alt.=856.617676m. Speed=0.036000m/h.</desc>
<speed>0.010000</speed>
</trkpt>
<trkpt lat="43.185783" lon="19.249346">
<ele>856.617676</ele>
<time>2012-04-29T11:30:20Z</time>
<desc>lat.=43.185783, lon.=19.249346, Alt.=856.617676m. Speed=0.000000m/h.</desc>
<speed>0.000000</speed>
</trkpt>
<trkpt lat="43.185783" lon="19.249346">
<ele>856.633301</ele>
<time>2012-04-29T11:30:25Z</time>
<desc>lat.=43.185783, lon.=19.249346, Alt.=856.633301m. Speed=0.000000m/h.</desc>
<speed>0.000000</speed>
</trkpt>
<trkpt lat="43.185783" lon="19.249346">
<ele>856.633301</ele>
<time>2012-04-29T11:30:30Z</time>
<desc>lat.=43.185783, lon.=19.249346, Alt.=856.633301m. Speed=0.036000m/h.</desc>
<speed>0.010000</speed>
</trkpt>
<trkpt lat="43.185783" lon="19.249346">
<ele>856.633301</ele>
<time>2012-04-29T11:30:35Z</time>
<desc>lat.=43.185783, lon.=19.249346, Alt.=856.633301m. Speed=0.000000m/h.</desc>
<speed>0.000000</speed>
</trkpt>
<trkpt lat="43.185783" lon="19.249346">
<ele>856.633301</ele>
<time>2012-04-29T11:30:40Z</time>
<desc>lat.=43.185783, lon.=19.249346, Alt.=856.633301m. Speed=0.000000m/h.</desc>
<speed>0.000000</speed>
</trkpt>
<trkpt lat="43.185783" lon="19.249346">
<ele>856.617676</ele>
<time>2012-04-29T11:30:45Z</time>
<desc>lat.=43.185783, lon.=19.249346, Alt.=856.617676m. Speed=0.000000m/h.</desc>
<speed>0.000000</speed>
</trkpt>
<trkpt lat="43.185783" lon="19.249346">
<ele>856.602051</ele>
<time>2012-04-29T11:30:50Z</time>
<desc>lat.=43.185783, lon.=19.249346, Alt.=856.602051m. Speed=0.000000m/h.</desc>
<speed>0.000000</speed>
</trkpt>
<trkpt lat="43.185783" lon="19.249346">
<ele>856.602051</ele>
<time>2012-04-29T11:30:55Z</time>
<desc>lat.=43.185783, lon.=19.249346, Alt.=856.602051m. Speed=0.036000m/h.</desc>
<speed>0.010000</speed>
</trkpt>
<trkpt lat="43.185783" lon="19.249344">
<ele>856.586426</ele>
<time>2012-04-29T11:31:00Z</time>
<desc>lat.=43.185783, lon.=19.249344, Alt.=856.586426m. Speed=0.000000m/h.</desc>
<speed>0.000000</speed>
</trkpt>
<trkpt lat="43.185783" lon="19.249344">
<ele>856.586426</ele>
<time>2012-04-29T11:31:05Z</time>
<desc>lat.=43.185783, lon.=19.249344, Alt.=856.586426m. Speed=0.000000m/h.</desc>
<speed>0.000000</speed>
</trkpt>
<trkpt lat="43.185783" lon="19.249344">
<ele>856.586426</ele>
<time>2012-04-29T11:31:10Z</time>
<desc>lat.=43.185783, lon.=19.249344, Alt.=856.586426m. Speed=0.000000m/h.</desc>
<speed>0.000000</speed>
</trkpt>
<trkpt lat="43.185783" lon="19.249344">
<ele>856.570801</ele>
<time>2012-04-29T11:31:15Z</time>
<desc>lat.=43.185783, lon.=19.249344, Alt.=856.570801m. Speed=0.000000m/h.</desc>
<speed>0.000000</speed>
</trkpt>
<trkpt lat="43.185783" lon="19.249346">
<ele>856.570801</ele>
<time>2012-04-29T11:31:20Z</time>
<desc>lat.=43.185783, lon.=19.249346, Alt.=856.570801m. Speed=0.072000m/h.</desc>
<speed>0.020000</speed>
</trkpt>
<trkpt lat="43.185783" lon="19.249346">
<ele>856.570801</ele>
<time>2012-04-29T11:31:25Z</time>
<desc>lat.=43.185783, lon.=19.249346, Alt.=856.570801m. Speed=0.000000m/h.</desc>
<speed>0.000000</speed>
</trkpt>
<trkpt lat="43.185780" lon="19.249346">
<ele>856.570801</ele>
<time>2012-04-29T11:31:30Z</time>
<desc>lat.=43.185780, lon.=19.249346, Alt.=856.570801m. Speed=0.288000m/h.</desc>
<speed>0.080000</speed>
</trkpt>
<trkpt lat="43.185780" lon="19.249344">
<ele>856.617676</ele>
<time>2012-04-29T11:31:35Z</time>
<desc>lat.=43.185780, lon.=19.249344, Alt.=856.617676m. Speed=0.144000m/h.</desc>
<speed>0.040000</speed>
</trkpt>
<trkpt lat="43.185780" lon="19.249346">
<ele>856.617676</ele>
<time>2012-04-29T11:31:40Z</time>
<desc>lat.=43.185780, lon.=19.249346, Alt.=856.617676m. Speed=0.000000m/h.</desc>
<speed>0.000000</speed>
</trkpt>
<trkpt lat="43.185780" lon="19.249346">
<ele>856.602051</ele>
<time>2012-04-29T11:31:45Z</time>
<desc>lat.=43.185780, lon.=19.249346, Alt.=856.602051m. Speed=0.072000m/h.</desc>
<speed>0.020000</speed>
</trkpt>
<trkpt lat="43.185780" lon="19.249346">
<ele>856.602051</ele>
<time>2012-04-29T11:31:50Z</time>
<desc>lat.=43.185780, lon.=19.249346, Alt.=856.602051m. Speed=0.000000m/h.</desc>
<speed>0.000000</speed>
</trkpt>
<trkpt lat="43.185780" lon="19.249346">
<ele>856.602051</ele>
<time>2012-04-29T11:31:55Z</time>
<desc>lat.=43.185780, lon.=19.249346, Alt.=856.602051m. Speed=0.144000m/h.</desc>
<speed>0.040000</speed>
</trkpt>
<trkpt lat="43.185780" lon="19.249346">
<ele>856.586426</ele>
<time>2012-04-29T11:32:00Z</time>
<desc>lat.=43.185780, lon.=19.249346, Alt.=856.586426m. Speed=0.072000m/h.</desc>
<speed>0.020000</speed>
</trkpt>
<trkpt lat="43.185780" lon="19.249346">
<ele>856.586426</ele>
<time>2012-04-29T11:32:05Z</time>
<desc>lat.=43.185780, lon.=19.249346, Alt.=856.586426m. Speed=0.000000m/h.</desc>
<speed>0.000000</speed>
</trkpt>
<trkpt lat="43.185780" lon="19.249346">
<ele>856.570801</ele>
<time>2012-04-29T11:32:10Z</time>
<desc>lat.=43.185780, lon.=19.249346, Alt.=856.570801m. Speed=0.000000m/h.</desc>
<speed>0.000000</speed>
</trkpt>
<trkpt lat="43.185780" lon="19.249346">
<ele>856.570801</ele>
<time>2012-04-29T11:32:15Z</time>
<desc>lat.=43.185780, lon.=19.249346, Alt.=856.570801m. Speed=0.000000m/h.</desc>
<speed>0.000000</speed>
</trkpt>
<trkpt lat="43.185780" lon="19.249346">
<ele>856.555176</ele>
<time>2012-04-29T11:32:20Z</time>
<desc>lat.=43.185780, lon.=19.249346, Alt.=856.555176m. Speed=0.000000m/h.</desc>
<speed>0.000000</speed>
</trkpt>
<trkpt lat="43.185780" lon="19.249346">
<ele>856.555176</ele>
<time>2012-04-29T11:32:25Z</time>
<desc>lat.=43.185780, lon.=19.249346, Alt.=856.555176m. Speed=0.036000m/h.</desc>
<speed>0.010000</speed>
</trkpt>
<trkpt lat="43.185780" lon="19.249346">
<ele>856.570801</ele>
<time>2012-04-29T11:32:30Z</time>
<desc>lat.=43.185780, lon.=19.249346, Alt.=856.570801m. Speed=0.000000m/h.</desc>
<speed>0.000000</speed>
</trkpt>
<trkpt lat="43.185780" lon="19.249346">
<ele>856.570801</ele>
<time>2012-04-29T11:32:35Z</time>
<desc>lat.=43.185780, lon.=19.249346, Alt.=856.570801m. Speed=0.000000m/h.</desc>
<speed>0.000000</speed>
</trkpt>
<trkpt lat="43.185780" lon="19.249346">
<ele>856.570801</ele>
<time>2012-04-29T11:32:40Z</time>
<desc>lat.=43.185780, lon.=19.249346, Alt.=856.570801m. Speed=0.000000m/h.</desc>
<speed>0.000000</speed>
</trkpt>
<trkpt lat="43.185780" lon="19.249348">
<ele>856.570801</ele>
<time>2012-04-29T11:32:45Z</time>
<desc>lat.=43.185780, lon.=19.249348, Alt.=856.570801m. Speed=0.000000m/h.</desc>
<speed>0.000000</speed>
</trkpt>
<trkpt lat="43.185780" lon="19.249348">
<ele>856.555176</ele>
<time>2012-04-29T11:32:50Z</time>
<desc>lat.=43.185780, lon.=19.249348, Alt.=856.555176m. Speed=0.000000m/h.</desc>
<speed>0.000000</speed>
</trkpt>
<trkpt lat="43.185780" lon="19.249348">
<ele>856.555176</ele>
<time>2012-04-29T11:32:55Z</time>
<desc>lat.=43.185780, lon.=19.249348, Alt.=856.555176m. Speed=0.036000m/h.</desc>
<speed>0.010000</speed>
</trkpt>
<trkpt lat="43.185780" lon="19.249348">
<ele>856.555176</ele>
<time>2012-04-29T11:33:00Z</time>
<desc>lat.=43.185780, lon.=19.249348, Alt.=856.555176m. Speed=0.000000m/h.</desc>
<speed>0.000000</speed>
</trkpt>
<trkpt lat="43.185780" lon="19.249348">
<ele>856.555176</ele>
<time>2012-04-29T11:33:05Z</time>
<desc>lat.=43.185780, lon.=19.249348, Alt.=856.555176m. Speed=0.036000m/h.</desc>
<speed>0.010000</speed>
</trkpt>
<trkpt lat="43.185780" lon="19.249348">
<ele>856.555176</ele>
<time>2012-04-29T11:33:10Z</time>
<desc>lat.=43.185780, lon.=19.249348, Alt.=856.555176m. Speed=0.036000m/h.</desc>
<speed>0.010000</speed>
</trkpt>
<trkpt lat="43.185780" lon="19.249348">
<ele>856.555176</ele>
<time>2012-04-29T11:33:15Z</time>
<desc>lat.=43.185780, lon.=19.249348, Alt.=856.555176m. Speed=0.036000m/h.</desc>
<speed>0.010000</speed>
</trkpt>
<trkpt lat="43.185780" lon="19.249348">
<ele>856.570801</ele>
<time>2012-04-29T11:33:20Z</time>
<desc>lat.=43.185780, lon.=19.249348, Alt.=856.570801m. Speed=0.000000m/h.</desc>
<speed>0.000000</speed>
</trkpt>
<trkpt lat="43.185780" lon="19.249348">
<ele>856.570801</ele>
<time>2012-04-29T11:33:25Z</time>
<desc>lat.=43.185780, lon.=19.249348, Alt.=856.570801m. Speed=0.000000m/h.</desc>
<speed>0.000000</speed>
</trkpt>
<trkpt lat="43.185780" lon="19.249348">
<ele>856.570801</ele>
<time>2012-04-29T11:33:30Z</time>
<desc>lat.=43.185780, lon.=19.249348, Alt.=856.570801m. Speed=0.072000m/h.</desc>
<speed>0.020000</speed>
</trkpt>
<trkpt lat="43.185780" lon="19.249348">
<ele>856.570801</ele>
<time>2012-04-29T11:33:35Z</time>
<desc>lat.=43.185780, lon.=19.249348, Alt.=856.570801m. Speed=0.000000m/h.</desc>
<speed>0.000000</speed>
</trkpt>
<trkpt lat="43.185780" lon="19.249348">
<ele>856.570801</ele>
<time>2012-04-29T11:33:40Z</time>
<desc>lat.=43.185780, lon.=19.249348, Alt.=856.570801m. Speed=0.000000m/h.</desc>
<speed>0.000000</speed>
</trkpt>
<trkpt lat="43.185780" lon="19.249350">
<ele>856.586426</ele>
<time>2012-04-29T11:33:45Z</time>
<desc>lat.=43.185780, lon.=19.249350, Alt.=856.586426m. Speed=0.000000m/h.</desc>
<speed>0.000000</speed>
</trkpt>
<trkpt lat="43.185780" lon="19.249348">
<ele>856.570801</ele>
<time>2012-04-29T11:33:50Z</time>
<desc>lat.=43.185780, lon.=19.249348, Alt.=856.570801m. Speed=0.000000m/h.</desc>
<speed>0.000000</speed>
</trkpt>
<trkpt lat="43.185780" lon="19.249348">
<ele>856.570801</ele>
<time>2012-04-29T11:33:55Z</time>
<desc>lat.=43.185780, lon.=19.249348, Alt.=856.570801m. Speed=0.000000m/h.</desc>
<speed>0.000000</speed>
</trkpt>
<trkpt lat="43.185780" lon="19.249348">
<ele>856.555176</ele>
<time>2012-04-29T11:34:00Z</time>
<desc>lat.=43.185780, lon.=19.249348, Alt.=856.555176m. Speed=0.000000m/h.</desc>
<speed>0.000000</speed>
</trkpt>
<trkpt lat="43.185780" lon="19.249348">
<ele>856.555176</ele>
<time>2012-04-29T11:34:05Z</time>
<desc>lat.=43.185780, lon.=19.249348, Alt.=856.555176m. Speed=0.000000m/h.</desc>
<speed>0.000000</speed>
</trkpt>
<trkpt lat="43.185780" lon="19.249348">
<ele>856.461426</ele>
<time>2012-04-29T11:34:10Z</time>
<desc>lat.=43.185780, lon.=19.249348, Alt.=856.461426m. Speed=0.900000m/h.</desc>
<speed>0.250000</speed>
</trkpt>
<trkpt lat="43.185802" lon="19.249321">
<ele>856.305176</ele>
<time>2012-04-29T11:34:15Z</time>
<desc>lat.=43.185802, lon.=19.249321, Alt.=856.305176m. Speed=2.952000m/h.</desc>
<speed>0.820000</speed>
</trkpt>
<trkpt lat="43.185810" lon="19.249245">
<ele>856.680176</ele>
<time>2012-04-29T11:34:20Z</time>
<desc>lat.=43.185810, lon.=19.249245, Alt.=856.680176m. Speed=3.996000m/h.</desc>
<speed>1.110000</speed>
</trkpt>
<trkpt lat="43.185814" lon="19.249182">
<ele>856.758301</ele>
<time>2012-04-29T11:34:25Z</time>
<desc>lat.=43.185814, lon.=19.249182, Alt.=856.758301m. Speed=3.384000m/h.</desc>
<speed>0.940000</speed>
</trkpt>
<trkpt lat="43.185814" lon="19.249125">
<ele>857.289551</ele>
<time>2012-04-29T11:34:30Z</time>
<desc>lat.=43.185814, lon.=19.249125, Alt.=857.289551m. Speed=3.132000m/h.</desc>
<speed>0.870000</speed>
</trkpt>
<trkpt lat="43.185810" lon="19.249077">
<ele>858.523926</ele>
<time>2012-04-29T11:34:35Z</time>
<desc>lat.=43.185810, lon.=19.249077, Alt.=858.523926m. Speed=3.312000m/h.</desc>
<speed>0.920000</speed>
</trkpt>
<trkpt lat="43.185783" lon="19.249029">
<ele>861.227051</ele>
<time>2012-04-29T11:34:40Z</time>
<desc>lat.=43.185783, lon.=19.249029, Alt.=861.227051m. Speed=3.600000m/h.</desc>
<speed>1.000000</speed>
</trkpt>
<trkpt lat="43.185772" lon="19.248966">
<ele>862.633301</ele>
<time>2012-04-29T11:34:45Z</time>
<desc>lat.=43.185772, lon.=19.248966, Alt.=862.633301m. Speed=3.924000m/h.</desc>
<speed>1.090000</speed>
</trkpt>
<trkpt lat="43.185757" lon="19.248898">
<ele>863.117676</ele>
<time>2012-04-29T11:34:50Z</time>
<desc>lat.=43.185757, lon.=19.248898, Alt.=863.117676m. Speed=4.032000m/h.</desc>
<speed>1.120000</speed>
</trkpt>
<trkpt lat="43.185749" lon="19.248833">
<ele>863.695801</ele>
<time>2012-04-29T11:34:55Z</time>
<desc>lat.=43.185749, lon.=19.248833, Alt.=863.695801m. Speed=3.564000m/h.</desc>
<speed>0.990000</speed>
</trkpt>
<trkpt lat="43.185738" lon="19.248772">
<ele>863.836426</ele>
<time>2012-04-29T11:35:00Z</time>
<desc>lat.=43.185738, lon.=19.248772, Alt.=863.836426m. Speed=4.068000m/h.</desc>
<speed>1.130000</speed>
</trkpt>
<trkpt lat="43.185734" lon="19.248709">
<ele>864.836426</ele>
<time>2012-04-29T11:35:05Z</time>
<desc>lat.=43.185734, lon.=19.248709, Alt.=864.836426m. Speed=3.420000m/h.</desc>
<speed>0.950000</speed>
</trkpt>
<trkpt lat="43.185726" lon="19.248650">
<ele>865.945801</ele>
<time>2012-04-29T11:35:10Z</time>
<desc>lat.=43.185726, lon.=19.248650, Alt.=865.945801m. Speed=4.464000m/h.</desc>
<speed>1.240000</speed>
</trkpt>
<trkpt lat="43.185711" lon="19.248589">
<ele>867.320801</ele>
<time>2012-04-29T11:35:15Z</time>
<desc>lat.=43.185711, lon.=19.248589, Alt.=867.320801m. Speed=3.780000m/h.</desc>
<speed>1.050000</speed>
</trkpt>
<trkpt lat="43.185696" lon="19.248528">
<ele>867.602051</ele>
<time>2012-04-29T11:35:20Z</time>
<desc>lat.=43.185696, lon.=19.248528, Alt.=867.602051m. Speed=4.140000m/h.</desc>
<speed>1.150000</speed>
</trkpt>
<trkpt lat="43.185684" lon="19.248474">
<ele>868.789551</ele>
<time>2012-04-29T11:35:25Z</time>
<desc>lat.=43.185684, lon.=19.248474, Alt.=868.789551m. Speed=4.212000m/h.</desc>
<speed>1.170000</speed>
</trkpt>
<trkpt lat="43.185669" lon="19.248407">
<ele>869.492676</ele>
<time>2012-04-29T11:35:30Z</time>
<desc>lat.=43.185669, lon.=19.248407, Alt.=869.492676m. Speed=3.204000m/h.</desc>
<speed>0.890000</speed>
</trkpt>
<trkpt lat="43.185646" lon="19.248350">
<ele>870.961426</ele>
<time>2012-04-29T11:35:35Z</time>
<desc>lat.=43.185646, lon.=19.248350, Alt.=870.961426m. Speed=3.888000m/h.</desc>
<speed>1.080000</speed>
</trkpt>
<trkpt lat="43.185619" lon="19.248295">
<ele>872.039551</ele>
<time>2012-04-29T11:35:40Z</time>
<desc>lat.=43.185619, lon.=19.248295, Alt.=872.039551m. Speed=3.816000m/h.</desc>
<speed>1.060000</speed>
</trkpt>
<trkpt lat="43.185596" lon="19.248236">
<ele>872.602051</ele>
<time>2012-04-29T11:35:45Z</time>
<desc>lat.=43.185596, lon.=19.248236, Alt.=872.602051m. Speed=4.104000m/h.</desc>
<speed>1.140000</speed>
</trkpt>
<trkpt lat="43.185581" lon="19.248184">
<ele>873.539551</ele>
<time>2012-04-29T11:35:50Z</time>
<desc>lat.=43.185581, lon.=19.248184, Alt.=873.539551m. Speed=3.924000m/h.</desc>
<speed>1.090000</speed>
</trkpt>
<trkpt lat="43.185566" lon="19.248125">
<ele>873.992676</ele>
<time>2012-04-29T11:35:55Z</time>
<desc>lat.=43.185566, lon.=19.248125, Alt.=873.992676m. Speed=4.068000m/h.</desc>
<speed>1.130000</speed>
</trkpt>
<trkpt lat="43.185558" lon="19.248096">
<ele>874.539551</ele>
<time>2012-04-29T11:36:00Z</time>
<desc>lat.=43.185558, lon.=19.248096, Alt.=874.539551m. Speed=2.628000m/h.</desc>
<speed>0.730000</speed>
</trkpt>
<trkpt lat="43.185551" lon="19.248026">
<ele>875.289551</ele>
<time>2012-04-29T11:36:05Z</time>
<desc>lat.=43.185551, lon.=19.248026, Alt.=875.289551m. Speed=4.968000m/h.</desc>
<speed>1.380000</speed>
</trkpt>
<trkpt lat="43.185532" lon="19.247959">
<ele>875.977051</ele>
<time>2012-04-29T11:36:10Z</time>
<desc>lat.=43.185532, lon.=19.247959, Alt.=875.977051m. Speed=4.140000m/h.</desc>
<speed>1.150000</speed>
</trkpt>
<trkpt lat="43.185520" lon="19.247881">
<ele>876.461426</ele>
<time>2012-04-29T11:36:15Z</time>
<desc>lat.=43.185520, lon.=19.247881, Alt.=876.461426m. Speed=5.544000m/h.</desc>
<speed>1.540000</speed>
</trkpt>
<trkpt lat="43.185516" lon="19.247776">
<ele>876.664551</ele>
<time>2012-04-29T11:36:20Z</time>
<desc>lat.=43.185516, lon.=19.247776, Alt.=876.664551m. Speed=6.408000m/h.</desc>
<speed>1.780000</speed>
</trkpt>
<trkpt lat="43.185513" lon="19.247675">
<ele>876.383301</ele>
<time>2012-04-29T11:36:25Z</time>
<desc>lat.=43.185513, lon.=19.247675, Alt.=876.383301m. Speed=6.840000m/h.</desc>
<speed>1.900000</speed>
</trkpt>
<trkpt lat="43.185513" lon="19.247543">
<ele>875.805176</ele>
<time>2012-04-29T11:36:30Z</time>
<desc>lat.=43.185513, lon.=19.247543, Alt.=875.805176m. Speed=6.264000m/h.</desc>
<speed>1.740000</speed>
</trkpt>
<trkpt lat="43.185509" lon="19.247416">
<ele>876.414551</ele>
<time>2012-04-29T11:36:35Z</time>
<desc>lat.=43.185509, lon.=19.247416, Alt.=876.414551m. Speed=5.292000m/h.</desc>
<speed>1.470000</speed>
</trkpt>
<trkpt lat="43.185505" lon="19.247320">
<ele>876.867676</ele>
<time>2012-04-29T11:36:40Z</time>
<desc>lat.=43.185505, lon.=19.247320, Alt.=876.867676m. Speed=4.860000m/h.</desc>
<speed>1.350000</speed>
</trkpt>
<trkpt lat="43.185501" lon="19.247219">
<ele>878.273926</ele>
<time>2012-04-29T11:36:45Z</time>
<desc>lat.=43.185501, lon.=19.247219, Alt.=878.273926m. Speed=6.480000m/h.</desc>
<speed>1.800000</speed>
</trkpt>
<trkpt lat="43.185501" lon="19.247099">
<ele>879.508301</ele>
<time>2012-04-29T11:36:50Z</time>
<desc>lat.=43.185501, lon.=19.247099, Alt.=879.508301m. Speed=7.596000m/h.</desc>
<speed>2.110000</speed>
</trkpt>
<trkpt lat="43.185509" lon="19.246973">
<ele>880.148926</ele>
<time>2012-04-29T11:36:55Z</time>
<desc>lat.=43.185509, lon.=19.246973, Alt.=880.148926m. Speed=8.784000m/h.</desc>
<speed>2.440000</speed>
</trkpt>
<trkpt lat="43.185524" lon="19.246834">
<ele>879.289551</ele>
<time>2012-04-29T11:37:00Z</time>
<desc>lat.=43.185524, lon.=19.246834, Alt.=879.289551m. Speed=7.884000m/h.</desc>
<speed>2.190000</speed>
</trkpt>
<trkpt lat="43.185543" lon="19.246717">
<ele>880.164551</ele>
<time>2012-04-29T11:37:05Z</time>
<desc>lat.=43.185543, lon.=19.246717, Alt.=880.164551m. Speed=5.112000m/h.</desc>
<speed>1.420000</speed>
</trkpt>
<trkpt lat="43.185558" lon="19.246618">
<ele>882.055176</ele>
<time>2012-04-29T11:37:10Z</time>
<desc>lat.=43.185558, lon.=19.246618, Alt.=882.055176m. Speed=4.680000m/h.</desc>
<speed>1.300000</speed>
</trkpt>
<trkpt lat="43.185577" lon="19.246542">
<ele>883.195801</ele>
<time>2012-04-29T11:37:15Z</time>
<desc>lat.=43.185577, lon.=19.246542, Alt.=883.195801m. Speed=6.192000m/h.</desc>
<speed>1.720000</speed>
</trkpt>
<trkpt lat="43.185570" lon="19.246412">
<ele>884.414551</ele>
<time>2012-04-29T11:37:20Z</time>
<desc>lat.=43.185570, lon.=19.246412, Alt.=884.414551m. Speed=6.552000m/h.</desc>
<speed>1.820000</speed>
</trkpt>
<trkpt lat="43.185539" lon="19.246300">
<ele>885.398926</ele>
<time>2012-04-29T11:37:25Z</time>
<desc>lat.=43.185539, lon.=19.246300, Alt.=885.398926m. Speed=6.516000m/h.</desc>
<speed>1.810000</speed>
</trkpt>
<trkpt lat="43.185493" lon="19.246193">
<ele>884.852051</ele>
<time>2012-04-29T11:37:30Z</time>
<desc>lat.=43.185493, lon.=19.246193, Alt.=884.852051m. Speed=6.372000m/h.</desc>
<speed>1.770000</speed>
</trkpt>
<trkpt lat="43.185474" lon="19.246082">
<ele>885.055176</ele>
<time>2012-04-29T11:37:35Z</time>
<desc>lat.=43.185474, lon.=19.246082, Alt.=885.055176m. Speed=6.084000m/h.</desc>
<speed>1.690000</speed>
</trkpt>
<trkpt lat="43.185444" lon="19.245981">
<ele>886.102051</ele>
<time>2012-04-29T11:37:40Z</time>
<desc>lat.=43.185444, lon.=19.245981, Alt.=886.102051m. Speed=6.336000m/h.</desc>
<speed>1.760000</speed>
</trkpt>
<trkpt lat="43.185421" lon="19.245869">
<ele>886.992676</ele>
<time>2012-04-29T11:37:45Z</time>
<desc>lat.=43.185421, lon.=19.245869, Alt.=886.992676m. Speed=6.048000m/h.</desc>
<speed>1.680000</speed>
</trkpt>
<trkpt lat="43.185387" lon="19.245754">
<ele>888.414551</ele>
<time>2012-04-29T11:37:50Z</time>
<desc>lat.=43.185387, lon.=19.245754, Alt.=888.414551m. Speed=6.084000m/h.</desc>
<speed>1.690000</speed>
</trkpt>
<trkpt lat="43.185349" lon="19.245636">
<ele>889.195801</ele>
<time>2012-04-29T11:37:55Z</time>
<desc>lat.=43.185349, lon.=19.245636, Alt.=889.195801m. Speed=8.316000m/h.</desc>
<speed>2.310000</speed>
</trkpt>
<trkpt lat="43.185337" lon="19.245535">
<ele>889.680176</ele>
<time>2012-04-29T11:38:00Z</time>
<desc>lat.=43.185337, lon.=19.245535, Alt.=889.680176m. Speed=5.868000m/h.</desc>
<speed>1.630000</speed>
</trkpt>
<trkpt lat="43.185326" lon="19.245440">
<ele>890.648926</ele>
<time>2012-04-29T11:38:05Z</time>
<desc>lat.=43.185326, lon.=19.245440, Alt.=890.648926m. Speed=6.012000m/h.</desc>
<speed>1.670000</speed>
</trkpt>
<trkpt lat="43.185322" lon="19.245337">
<ele>891.195801</ele>
<time>2012-04-29T11:38:10Z</time>
<desc>lat.=43.185322, lon.=19.245337, Alt.=891.195801m. Speed=6.228000m/h.</desc>
<speed>1.730000</speed>
</trkpt>
<trkpt lat="43.185326" lon="19.245234">
<ele>892.258301</ele>
<time>2012-04-29T11:38:15Z</time>
<desc>lat.=43.185326, lon.=19.245234, Alt.=892.258301m. Speed=5.436000m/h.</desc>
<speed>1.510000</speed>
</trkpt>
<trkpt lat="43.185322" lon="19.245129">
<ele>892.867676</ele>
<time>2012-04-29T11:38:20Z</time>
<desc>lat.=43.185322, lon.=19.245129, Alt.=892.867676m. Speed=5.112000m/h.</desc>
<speed>1.420000</speed>
</trkpt>
<trkpt lat="43.185310" lon="19.245079">
<ele>892.914551</ele>
<time>2012-04-29T11:38:25Z</time>
<desc>lat.=43.185310, lon.=19.245079, Alt.=892.914551m. Speed=5.148000m/h.</desc>
<speed>1.430000</speed>
</trkpt>
<trkpt lat="43.185295" lon="19.244987">
<ele>893.352051</ele>
<time>2012-04-29T11:38:30Z</time>
<desc>lat.=43.185295, lon.=19.244987, Alt.=893.352051m. Speed=5.220000m/h.</desc>
<speed>1.450000</speed>
</trkpt>
<trkpt lat="43.185284" lon="19.244919">
<ele>894.555176</ele>
<time>2012-04-29T11:38:35Z</time>
<desc>lat.=43.185284, lon.=19.244919, Alt.=894.555176m. Speed=4.500000m/h.</desc>
<speed>1.250000</speed>
</trkpt>
<trkpt lat="43.185265" lon="19.244865">
<ele>896.070801</ele>
<time>2012-04-29T11:38:40Z</time>
<desc>lat.=43.185265, lon.=19.244865, Alt.=896.070801m. Speed=2.808000m/h.</desc>
<speed>0.780000</speed>
</trkpt>
<trkpt lat="43.185246" lon="19.244818">
<ele>897.242676</ele>
<time>2012-04-29T11:38:45Z</time>
<desc>lat.=43.185246, lon.=19.244818, Alt.=897.242676m. Speed=3.636000m/h.</desc>
<speed>1.010000</speed>
</trkpt>
<trkpt lat="43.185226" lon="19.244772">
<ele>897.695801</ele>
<time>2012-04-29T11:38:50Z</time>
<desc>lat.=43.185226, lon.=19.244772, Alt.=897.695801m. Speed=3.348000m/h.</desc>
<speed>0.930000</speed>
</trkpt>
<trkpt lat="43.185211" lon="19.244730">
<ele>898.352051</ele>
<time>2012-04-29T11:38:55Z</time>
<desc>lat.=43.185211, lon.=19.244730, Alt.=898.352051m. Speed=3.348000m/h.</desc>
<speed>0.930000</speed>
</trkpt>
<trkpt lat="43.185188" lon="19.244665">
<ele>899.586426</ele>
<time>2012-04-29T11:39:00Z</time>
<desc>lat.=43.185188, lon.=19.244665, Alt.=899.586426m. Speed=4.824000m/h.</desc>
<speed>1.340000</speed>
</trkpt>
<trkpt lat="43.185165" lon="19.244593">
<ele>900.617676</ele>
<time>2012-04-29T11:39:05Z</time>
<desc>lat.=43.185165, lon.=19.244593, Alt.=900.617676m. Speed=4.752000m/h.</desc>
<speed>1.320000</speed>
</trkpt>
<trkpt lat="43.185143" lon="19.244524">
<ele>901.492676</ele>
<time>2012-04-29T11:39:10Z</time>
<desc>lat.=43.185143, lon.=19.244524, Alt.=901.492676m. Speed=4.284000m/h.</desc>
<speed>1.190000</speed>
</trkpt>
<trkpt lat="43.185116" lon="19.244461">
<ele>903.164551</ele>
<time>2012-04-29T11:39:15Z</time>
<desc>lat.=43.185116, lon.=19.244461, Alt.=903.164551m. Speed=3.888000m/h.</desc>
<speed>1.080000</speed>
</trkpt>
<trkpt lat="43.185093" lon="19.244390">
<ele>904.570801</ele>
<time>2012-04-29T11:39:20Z</time>
<desc>lat.=43.185093, lon.=19.244390, Alt.=904.570801m. Speed=4.464000m/h.</desc>
<speed>1.240000</speed>
</trkpt>
<trkpt lat="43.185070" lon="19.244310">
<ele>905.820801</ele>
<time>2012-04-29T11:39:25Z</time>
<desc>lat.=43.185070, lon.=19.244310, Alt.=905.820801m. Speed=4.752000m/h.</desc>
<speed>1.320000</speed>
</trkpt>
<trkpt lat="43.185051" lon="19.244236">
<ele>907.305176</ele>
<time>2012-04-29T11:39:30Z</time>
<desc>lat.=43.185051, lon.=19.244236, Alt.=907.305176m. Speed=4.932000m/h.</desc>
<speed>1.370000</speed>
</trkpt>
<trkpt lat="43.185028" lon="19.244158">
<ele>907.977051</ele>
<time>2012-04-29T11:39:35Z</time>
<desc>lat.=43.185028, lon.=19.244158, Alt.=907.977051m. Speed=4.320000m/h.</desc>
<speed>1.200000</speed>
</trkpt>
<trkpt lat="43.185013" lon="19.244093">
<ele>908.867676</ele>
<time>2012-04-29T11:39:40Z</time>
<desc>lat.=43.185013, lon.=19.244093, Alt.=908.867676m. Speed=4.392000m/h.</desc>
<speed>1.220000</speed>
</trkpt>
<trkpt lat="43.185017" lon="19.244017">
<ele>909.508301</ele>
<time>2012-04-29T11:39:45Z</time>
<desc>lat.=43.185017, lon.=19.244017, Alt.=909.508301m. Speed=4.500000m/h.</desc>
<speed>1.250000</speed>
</trkpt>
<trkpt lat="43.185020" lon="19.243950">
<ele>910.195801</ele>
<time>2012-04-29T11:39:50Z</time>
<desc>lat.=43.185020, lon.=19.243950, Alt.=910.195801m. Speed=3.708000m/h.</desc>
<speed>1.030000</speed>
</trkpt>
<trkpt lat="43.185028" lon="19.243877">
<ele>910.305176</ele>
<time>2012-04-29T11:39:55Z</time>
<desc>lat.=43.185028, lon.=19.243877, Alt.=910.305176m. Speed=3.960000m/h.</desc>
<speed>1.100000</speed>
</trkpt>
<trkpt lat="43.185040" lon="19.243809">
<ele>910.617676</ele>
<time>2012-04-29T11:40:00Z</time>
<desc>lat.=43.185040, lon.=19.243809, Alt.=910.617676m. Speed=4.932000m/h.</desc>
<speed>1.370000</speed>
</trkpt>
<trkpt lat="43.185043" lon="19.243744">
<ele>911.086426</ele>
<time>2012-04-29T11:40:05Z</time>
<desc>lat.=43.185043, lon.=19.243744, Alt.=911.086426m. Speed=2.340000m/h.</desc>
<speed>0.650000</speed>
</trkpt>
<trkpt lat="43.185066" lon="19.243696">
<ele>911.430176</ele>
<time>2012-04-29T11:40:10Z</time>
<desc>lat.=43.185066, lon.=19.243696, Alt.=911.430176m. Speed=3.348000m/h.</desc>
<speed>0.930000</speed>
</trkpt>
<trkpt lat="43.185078" lon="19.243685">
<ele>910.898926</ele>
<time>2012-04-29T11:40:15Z</time>
<desc>lat.=43.185078, lon.=19.243685, Alt.=910.898926m. Speed=0.000000m/h.</desc>
<speed>0.000000</speed>
</trkpt>
<trkpt lat="43.185078" lon="19.243685">
<ele>910.883301</ele>
<time>2012-04-29T11:40:20Z</time>
<desc>lat.=43.185078, lon.=19.243685, Alt.=910.883301m. Speed=0.000000m/h.</desc>
<speed>0.000000</speed>
</trkpt>
<trkpt lat="43.185078" lon="19.243685">
<ele>910.867676</ele>
<time>2012-04-29T11:40:25Z</time>
<desc>lat.=43.185078, lon.=19.243685, Alt.=910.867676m. Speed=0.000000m/h.</desc>
<speed>0.000000</speed>
</trkpt>
<trkpt lat="43.185078" lon="19.243685">
<ele>910.867676</ele>
<time>2012-04-29T11:40:30Z</time>
<desc>lat.=43.185078, lon.=19.243685, Alt.=910.867676m. Speed=0.000000m/h.</desc>
<speed>0.000000</speed>
</trkpt>
<trkpt lat="43.185078" lon="19.243685">
<ele>910.867676</ele>
<time>2012-04-29T11:40:35Z</time>
<desc>lat.=43.185078, lon.=19.243685, Alt.=910.867676m. Speed=0.000000m/h.</desc>
<speed>0.000000</speed>
</trkpt>
<trkpt lat="43.185078" lon="19.243685">
<ele>910.883301</ele>
<time>2012-04-29T11:40:40Z</time>
<desc>lat.=43.185078, lon.=19.243685, Alt.=910.883301m. Speed=0.036000m/h.</desc>
<speed>0.010000</speed>
</trkpt>
<trkpt lat="43.185074" lon="19.243687">
<ele>910.914551</ele>
<time>2012-04-29T11:40:45Z</time>
<desc>lat.=43.185074, lon.=19.243687, Alt.=910.914551m. Speed=0.360000m/h.</desc>
<speed>0.100000</speed>
</trkpt>
<trkpt lat="43.185070" lon="19.243689">
<ele>910.711426</ele>
<time>2012-04-29T11:40:50Z</time>
<desc>lat.=43.185070, lon.=19.243689, Alt.=910.711426m. Speed=0.000000m/h.</desc>
<speed>0.000000</speed>
</trkpt>
<trkpt lat="43.185070" lon="19.243689">
<ele>910.680176</ele>
<time>2012-04-29T11:40:55Z</time>
<desc>lat.=43.185070, lon.=19.243689, Alt.=910.680176m. Speed=0.000000m/h.</desc>
<speed>0.000000</speed>
</trkpt>
<trkpt lat="43.185070" lon="19.243689">
<ele>910.680176</ele>
<time>2012-04-29T11:41:00Z</time>
<desc>lat.=43.185070, lon.=19.243689, Alt.=910.680176m. Speed=0.000000m/h.</desc>
<speed>0.000000</speed>
</trkpt>
<trkpt lat="43.185070" lon="19.243689">
<ele>910.680176</ele>
<time>2012-04-29T11:41:05Z</time>
<desc>lat.=43.185070, lon.=19.243689, Alt.=910.680176m. Speed=0.000000m/h.</desc>
<speed>0.000000</speed>
</trkpt>
<trkpt lat="43.185070" lon="19.243689">
<ele>910.664551</ele>
<time>2012-04-29T11:41:10Z</time>
<desc>lat.=43.185070, lon.=19.243689, Alt.=910.664551m. Speed=0.000000m/h.</desc>
<speed>0.000000</speed>
</trkpt>
<trkpt lat="43.185070" lon="19.243689">
<ele>910.648926</ele>
<time>2012-04-29T11:41:15Z</time>
<desc>lat.=43.185070, lon.=19.243689, Alt.=910.648926m. Speed=0.000000m/h.</desc>
<speed>0.000000</speed>
</trkpt>
<trkpt lat="43.185070" lon="19.243689">
<ele>910.617676</ele>
<time>2012-04-29T11:41:20Z</time>
<desc>lat.=43.185070, lon.=19.243689, Alt.=910.617676m. Speed=0.000000m/h.</desc>
<speed>0.000000</speed>
</trkpt>
<trkpt lat="43.185070" lon="19.243689">
<ele>910.602051</ele>
<time>2012-04-29T11:41:25Z</time>
<desc>lat.=43.185070, lon.=19.243689, Alt.=910.602051m. Speed=0.000000m/h.</desc>
<speed>0.000000</speed>
</trkpt>
<trkpt lat="43.185070" lon="19.243689">
<ele>910.602051</ele>
<time>2012-04-29T11:41:30Z</time>
<desc>lat.=43.185070, lon.=19.243689, Alt.=910.602051m. Speed=0.000000m/h.</desc>
<speed>0.000000</speed>
</trkpt>
<trkpt lat="43.185070" lon="19.243689">
<ele>910.602051</ele>
<time>2012-04-29T11:41:35Z</time>
<desc>lat.=43.185070, lon.=19.243689, Alt.=910.602051m. Speed=0.000000m/h.</desc>
<speed>0.000000</speed>
</trkpt>
<trkpt lat="43.185070" lon="19.243689">
<ele>910.570801</ele>
<time>2012-04-29T11:41:40Z</time>
<desc>lat.=43.185070, lon.=19.243689, Alt.=910.570801m. Speed=0.036000m/h.</desc>
<speed>0.010000</speed>
</trkpt>
<trkpt lat="43.185070" lon="19.243689">
<ele>910.555176</ele>
<time>2012-04-29T11:41:45Z</time>
<desc>lat.=43.185070, lon.=19.243689, Alt.=910.555176m. Speed=0.000000m/h.</desc>
<speed>0.000000</speed>
</trkpt>
<trkpt lat="43.185070" lon="19.243689">
<ele>910.539551</ele>
<time>2012-04-29T11:41:50Z</time>
<desc>lat.=43.185070, lon.=19.243689, Alt.=910.539551m. Speed=0.000000m/h.</desc>
<speed>0.000000</speed>
</trkpt>
<trkpt lat="43.185070" lon="19.243689">
<ele>910.539551</ele>
<time>2012-04-29T11:41:55Z</time>
<desc>lat.=43.185070, lon.=19.243689, Alt.=910.539551m. Speed=0.036000m/h.</desc>
<speed>0.010000</speed>
</trkpt>
<trkpt lat="43.185070" lon="19.243689">
<ele>910.539551</ele>
<time>2012-04-29T11:42:00Z</time>
<desc>lat.=43.185070, lon.=19.243689, Alt.=910.539551m. Speed=0.000000m/h.</desc>
<speed>0.000000</speed>
</trkpt>
<trkpt lat="43.185070" lon="19.243690">
<ele>910.539551</ele>
<time>2012-04-29T11:42:05Z</time>
<desc>lat.=43.185070, lon.=19.243690, Alt.=910.539551m. Speed=0.000000m/h.</desc>
<speed>0.000000</speed>
</trkpt>
<trkpt lat="43.185070" lon="19.243690">
<ele>910.539551</ele>
<time>2012-04-29T11:42:10Z</time>
<desc>lat.=43.185070, lon.=19.243690, Alt.=910.539551m. Speed=0.000000m/h.</desc>
<speed>0.000000</speed>
</trkpt>
<trkpt lat="43.185070" lon="19.243690">
<ele>910.539551</ele>
<time>2012-04-29T11:42:15Z</time>
<desc>lat.=43.185070, lon.=19.243690, Alt.=910.539551m. Speed=0.000000m/h.</desc>
<speed>0.000000</speed>
</trkpt>
<trkpt lat="43.185070" lon="19.243690">
<ele>910.539551</ele>
<time>2012-04-29T11:42:20Z</time>
<desc>lat.=43.185070, lon.=19.243690, Alt.=910.539551m. Speed=0.000000m/h.</desc>
<speed>0.000000</speed>
</trkpt>
<trkpt lat="43.185070" lon="19.243690">
<ele>910.539551</ele>
<time>2012-04-29T11:42:25Z</time>
<desc>lat.=43.185070, lon.=19.243690, Alt.=910.539551m. Speed=0.000000m/h.</desc>
<speed>0.000000</speed>
</trkpt>
<trkpt lat="43.185070" lon="19.243690">
<ele>910.555176</ele>
<time>2012-04-29T11:42:30Z</time>
<desc>lat.=43.185070, lon.=19.243690, Alt.=910.555176m. Speed=0.000000m/h.</desc>
<speed>0.000000</speed>
</trkpt>
<trkpt lat="43.185070" lon="19.243690">
<ele>910.539551</ele>
<time>2012-04-29T11:42:35Z</time>
<desc>lat.=43.185070, lon.=19.243690, Alt.=910.539551m. Speed=0.000000m/h.</desc>
<speed>0.000000</speed>
</trkpt>
<trkpt lat="43.185070" lon="19.243690">
<ele>910.523926</ele>
<time>2012-04-29T11:42:40Z</time>
<desc>lat.=43.185070, lon.=19.243690, Alt.=910.523926m. Speed=0.000000m/h.</desc>
<speed>0.000000</speed>
</trkpt>
<trkpt lat="43.185070" lon="19.243690">
<ele>910.492676</ele>
<time>2012-04-29T11:42:45Z</time>
<desc>lat.=43.185070, lon.=19.243690, Alt.=910.492676m. Speed=0.000000m/h.</desc>
<speed>0.000000</speed>
</trkpt>
<trkpt lat="43.185070" lon="19.243690">
<ele>910.461426</ele>
<time>2012-04-29T11:42:50Z</time>
<desc>lat.=43.185070, lon.=19.243690, Alt.=910.461426m. Speed=0.000000m/h.</desc>
<speed>0.000000</speed>
</trkpt>
<trkpt lat="43.185070" lon="19.243690">
<ele>910.430176</ele>
<time>2012-04-29T11:42:55Z</time>
<desc>lat.=43.185070, lon.=19.243690, Alt.=910.430176m. Speed=0.000000m/h.</desc>
<speed>0.000000</speed>
</trkpt>
<trkpt lat="43.185070" lon="19.243690">
<ele>910.383301</ele>
<time>2012-04-29T11:43:00Z</time>
<desc>lat.=43.185070, lon.=19.243690, Alt.=910.383301m. Speed=0.000000m/h.</desc>
<speed>0.000000</speed>
</trkpt>
<trkpt lat="43.185070" lon="19.243690">
<ele>910.336426</ele>
<time>2012-04-29T11:43:05Z</time>
<desc>lat.=43.185070, lon.=19.243690, Alt.=910.336426m. Speed=0.000000m/h.</desc>
<speed>0.000000</speed>
</trkpt>
<trkpt lat="43.185070" lon="19.243690">
<ele>910.305176</ele>
<time>2012-04-29T11:43:10Z</time>
<desc>lat.=43.185070, lon.=19.243690, Alt.=910.305176m. Speed=0.000000m/h.</desc>
<speed>0.000000</speed>
</trkpt>
<trkpt lat="43.185070" lon="19.243689">
<ele>910.242676</ele>
<time>2012-04-29T11:43:15Z</time>
<desc>lat.=43.185070, lon.=19.243689, Alt.=910.242676m. Speed=0.000000m/h.</desc>
<speed>0.000000</speed>
</trkpt>
<trkpt lat="43.185070" lon="19.243689">
<ele>910.180176</ele>
<time>2012-04-29T11:43:20Z</time>
<desc>lat.=43.185070, lon.=19.243689, Alt.=910.180176m. Speed=0.000000m/h.</desc>
<speed>0.000000</speed>
</trkpt>
<trkpt lat="43.185070" lon="19.243689">
<ele>910.133301</ele>
<time>2012-04-29T11:43:25Z</time>
<desc>lat.=43.185070, lon.=19.243689, Alt.=910.133301m. Speed=0.036000m/h.</desc>
<speed>0.010000</speed>
</trkpt>
<trkpt lat="43.185070" lon="19.243689">
<ele>910.086426</ele>
<time>2012-04-29T11:43:30Z</time>
<desc>lat.=43.185070, lon.=19.243689, Alt.=910.086426m. Speed=0.000000m/h.</desc>
<speed>0.000000</speed>
</trkpt>
<trkpt lat="43.185074" lon="19.243689">
<ele>910.008301</ele>
<time>2012-04-29T11:43:35Z</time>
<desc>lat.=43.185074, lon.=19.243689, Alt.=910.008301m. Speed=0.000000m/h.</desc>
<speed>0.000000</speed>
</trkpt>
<trkpt lat="43.185074" lon="19.243687">
<ele>909.945801</ele>
<time>2012-04-29T11:43:40Z</time>
<desc>lat.=43.185074, lon.=19.243687, Alt.=909.945801m. Speed=0.000000m/h.</desc>
<speed>0.000000</speed>
</trkpt>
<trkpt lat="43.185074" lon="19.243687">
<ele>909.867676</ele>
<time>2012-04-29T11:43:45Z</time>
<desc>lat.=43.185074, lon.=19.243687, Alt.=909.867676m. Speed=0.000000m/h.</desc>
<speed>0.000000</speed>
</trkpt>
<trkpt lat="43.185074" lon="19.243687">
<ele>909.805176</ele>
<time>2012-04-29T11:43:50Z</time>
<desc>lat.=43.185074, lon.=19.243687, Alt.=909.805176m. Speed=0.000000m/h.</desc>
<speed>0.000000</speed>
</trkpt>
<trkpt lat="43.185074" lon="19.243687">
<ele>909.742676</ele>
<time>2012-04-29T11:43:55Z</time>
<desc>lat.=43.185074, lon.=19.243687, Alt.=909.742676m. Speed=0.000000m/h.</desc>
<speed>0.000000</speed>
</trkpt>
<trkpt lat="43.185074" lon="19.243687">
<ele>909.695801</ele>
<time>2012-04-29T11:44:00Z</time>
<desc>lat.=43.185074, lon.=19.243687, Alt.=909.695801m. Speed=0.000000m/h.</desc>
<speed>0.000000</speed>
</trkpt>
<trkpt lat="43.185074" lon="19.243687">
<ele>909.680176</ele>
<time>2012-04-29T11:44:05Z</time>
<desc>lat.=43.185074, lon.=19.243687, Alt.=909.680176m. Speed=0.000000m/h.</desc>
<speed>0.000000</speed>
</trkpt>
<trkpt lat="43.185074" lon="19.243687">
<ele>909.633301</ele>
<time>2012-04-29T11:44:10Z</time>
<desc>lat.=43.185074, lon.=19.243687, Alt.=909.633301m. Speed=0.000000m/h.</desc>
<speed>0.000000</speed>
</trkpt>
<trkpt lat="43.185074" lon="19.243687">
<ele>909.586426</ele>
<time>2012-04-29T11:44:15Z</time>
<desc>lat.=43.185074, lon.=19.243687, Alt.=909.586426m. Speed=0.036000m/h.</desc>
<speed>0.010000</speed>
</trkpt>
<trkpt lat="43.185074" lon="19.243685">
<ele>909.523926</ele>
<time>2012-04-29T11:44:20Z</time>
<desc>lat.=43.185074, lon.=19.243685, Alt.=909.523926m. Speed=0.000000m/h.</desc>
<speed>0.000000</speed>
</trkpt>
<trkpt lat="43.185074" lon="19.243685">
<ele>909.461426</ele>
<time>2012-04-29T11:44:25Z</time>
<desc>lat.=43.185074, lon.=19.243685, Alt.=909.461426m. Speed=0.000000m/h.</desc>
<speed>0.000000</speed>
</trkpt>
<trkpt lat="43.185074" lon="19.243685">
<ele>909.414551</ele>
<time>2012-04-29T11:44:30Z</time>
<desc>lat.=43.185074, lon.=19.243685, Alt.=909.414551m. Speed=0.000000m/h.</desc>
<speed>0.000000</speed>
</trkpt>
<trkpt lat="43.185074" lon="19.243685">
<ele>909.383301</ele>
<time>2012-04-29T11:44:35Z</time>
<desc>lat.=43.185074, lon.=19.243685, Alt.=909.383301m. Speed=0.000000m/h.</desc>
<speed>0.000000</speed>
</trkpt>
<trkpt lat="43.185074" lon="19.243685">
<ele>909.367676</ele>
<time>2012-04-29T11:44:40Z</time>
<desc>lat.=43.185074, lon.=19.243685, Alt.=909.367676m. Speed=0.000000m/h.</desc>
<speed>0.000000</speed>
</trkpt>
<trkpt lat="43.185074" lon="19.243685">
<ele>909.320801</ele>
<time>2012-04-29T11:44:45Z</time>
<desc>lat.=43.185074, lon.=19.243685, Alt.=909.320801m. Speed=0.000000m/h.</desc>
<speed>0.000000</speed>
</trkpt>
<trkpt lat="43.185074" lon="19.243685">
<ele>909.273926</ele>
<time>2012-04-29T11:44:50Z</time>
<desc>lat.=43.185074, lon.=19.243685, Alt.=909.273926m. Speed=0.000000m/h.</desc>
<speed>0.000000</speed>
</trkpt>
<trkpt lat="43.185074" lon="19.243685">
<ele>909.242676</ele>
<time>2012-04-29T11:44:55Z</time>
<desc>lat.=43.185074, lon.=19.243685, Alt.=909.242676m. Speed=0.000000m/h.</desc>
<speed>0.000000</speed>
</trkpt>
<trkpt lat="43.185074" lon="19.243685">
<ele>909.180176</ele>
<time>2012-04-29T11:45:00Z</time>
<desc>lat.=43.185074, lon.=19.243685, Alt.=909.180176m. Speed=0.000000m/h.</desc>
<speed>0.000000</speed>
</trkpt>
<trkpt lat="43.185074" lon="19.243685">
<ele>909.117676</ele>
<time>2012-04-29T11:45:05Z</time>
<desc>lat.=43.185074, lon.=19.243685, Alt.=909.117676m. Speed=0.000000m/h.</desc>
<speed>0.000000</speed>
</trkpt>
<trkpt lat="43.185074" lon="19.243685">
<ele>909.023926</ele>
<time>2012-04-29T11:45:10Z</time>
<desc>lat.=43.185074, lon.=19.243685, Alt.=909.023926m. Speed=0.000000m/h.</desc>
<speed>0.000000</speed>
</trkpt>
<trkpt lat="43.185074" lon="19.243685">
<ele>908.945801</ele>
<time>2012-04-29T11:45:15Z</time>
<desc>lat.=43.185074, lon.=19.243685, Alt.=908.945801m. Speed=0.000000m/h.</desc>
<speed>0.000000</speed>
</trkpt>
<trkpt lat="43.185074" lon="19.243685">
<ele>908.867676</ele>
<time>2012-04-29T11:45:20Z</time>
<desc>lat.=43.185074, lon.=19.243685, Alt.=908.867676m. Speed=0.000000m/h.</desc>
<speed>0.000000</speed>
</trkpt>
<trkpt lat="43.185074" lon="19.243685">
<ele>908.820801</ele>
<time>2012-04-29T11:45:25Z</time>
<desc>lat.=43.185074, lon.=19.243685, Alt.=908.820801m. Speed=0.000000m/h.</desc>
<speed>0.000000</speed>
</trkpt>
<trkpt lat="43.185074" lon="19.243685">
<ele>908.758301</ele>
<time>2012-04-29T11:45:30Z</time>
<desc>lat.=43.185074, lon.=19.243685, Alt.=908.758301m. Speed=0.000000m/h.</desc>
<speed>0.000000</speed>
</trkpt>
<trkpt lat="43.185074" lon="19.243685">
<ele>908.695801</ele>
<time>2012-04-29T11:45:35Z</time>
<desc>lat.=43.185074, lon.=19.243685, Alt.=908.695801m. Speed=0.000000m/h.</desc>
<speed>0.000000</speed>
</trkpt>
<trkpt lat="43.185074" lon="19.243685">
<ele>908.633301</ele>
<time>2012-04-29T11:45:40Z</time>
<desc>lat.=43.185074, lon.=19.243685, Alt.=908.633301m. Speed=0.000000m/h.</desc>
<speed>0.000000</speed>
</trkpt>
<trkpt lat="43.185074" lon="19.243685">
<ele>908.570801</ele>
<time>2012-04-29T11:45:45Z</time>
<desc>lat.=43.185074, lon.=19.243685, Alt.=908.570801m. Speed=0.000000m/h.</desc>
<speed>0.000000</speed>
</trkpt>
<trkpt lat="43.185074" lon="19.243685">
<ele>908.477051</ele>
<time>2012-04-29T11:45:50Z</time>
<desc>lat.=43.185074, lon.=19.243685, Alt.=908.477051m. Speed=0.000000m/h.</desc>
<speed>0.000000</speed>
</trkpt>
<trkpt lat="43.185074" lon="19.243685">
<ele>908.383301</ele>
<time>2012-04-29T11:45:55Z</time>
<desc>lat.=43.185074, lon.=19.243685, Alt.=908.383301m. Speed=0.036000m/h.</desc>
<speed>0.010000</speed>
</trkpt>
<trkpt lat="43.185074" lon="19.243685">
<ele>908.289551</ele>
<time>2012-04-29T11:46:00Z</time>
<desc>lat.=43.185074, lon.=19.243685, Alt.=908.289551m. Speed=0.000000m/h.</desc>
<speed>0.000000</speed>
</trkpt>
<trkpt lat="43.185074" lon="19.243683">
<ele>908.195801</ele>
<time>2012-04-29T11:46:05Z</time>
<desc>lat.=43.185074, lon.=19.243683, Alt.=908.195801m. Speed=0.000000m/h.</desc>
<speed>0.000000</speed>
</trkpt>
<trkpt lat="43.185074" lon="19.243683">
<ele>908.117676</ele>
<time>2012-04-29T11:46:10Z</time>
<desc>lat.=43.185074, lon.=19.243683, Alt.=908.117676m. Speed=0.000000m/h.</desc>
<speed>0.000000</speed>
</trkpt>
<trkpt lat="43.185074" lon="19.243683">
<ele>908.039551</ele>
<time>2012-04-29T11:46:15Z</time>
<desc>lat.=43.185074, lon.=19.243683, Alt.=908.039551m. Speed=0.000000m/h.</desc>
<speed>0.000000</speed>
</trkpt>
<trkpt lat="43.185074" lon="19.243683">
<ele>907.977051</ele>
<time>2012-04-29T11:46:20Z</time>
<desc>lat.=43.185074, lon.=19.243683, Alt.=907.977051m. Speed=0.000000m/h.</desc>
<speed>0.000000</speed>
</trkpt>
<trkpt lat="43.185074" lon="19.243683">
<ele>907.914551</ele>
<time>2012-04-29T11:46:25Z</time>
<desc>lat.=43.185074, lon.=19.243683, Alt.=907.914551m. Speed=0.000000m/h.</desc>
<speed>0.000000</speed>
</trkpt>
<trkpt lat="43.185074" lon="19.243683">
<ele>907.852051</ele>
<time>2012-04-29T11:46:30Z</time>
<desc>lat.=43.185074, lon.=19.243683, Alt.=907.852051m. Speed=0.000000m/h.</desc>
<speed>0.000000</speed>
</trkpt>
<trkpt lat="43.185074" lon="19.243681">
<ele>907.789551</ele>
<time>2012-04-29T11:46:35Z</time>
<desc>lat.=43.185074, lon.=19.243681, Alt.=907.789551m. Speed=0.036000m/h.</desc>
<speed>0.010000</speed>
</trkpt>
<trkpt lat="43.185074" lon="19.243681">
<ele>907.773926</ele>
<time>2012-04-29T11:46:40Z</time>
<desc>lat.=43.185074, lon.=19.243681, Alt.=907.773926m. Speed=0.000000m/h.</desc>
<speed>0.000000</speed>
</trkpt>
<trkpt lat="43.185074" lon="19.243681">
<ele>907.742676</ele>
<time>2012-04-29T11:46:45Z</time>
<desc>lat.=43.185074, lon.=19.243681, Alt.=907.742676m. Speed=0.000000m/h.</desc>
<speed>0.000000</speed>
</trkpt>
<trkpt lat="43.185074" lon="19.243681">
<ele>907.742676</ele>
<time>2012-04-29T11:46:50Z</time>
<desc>lat.=43.185074, lon.=19.243681, Alt.=907.742676m. Speed=0.000000m/h.</desc>
<speed>0.000000</speed>
</trkpt>
<trkpt lat="43.185074" lon="19.243681">
<ele>907.727051</ele>
<time>2012-04-29T11:46:55Z</time>
<desc>lat.=43.185074, lon.=19.243681, Alt.=907.727051m. Speed=0.000000m/h.</desc>
<speed>0.000000</speed>
</trkpt>
<trkpt lat="43.185074" lon="19.243681">
<ele>907.711426</ele>
<time>2012-04-29T11:47:00Z</time>
<desc>lat.=43.185074, lon.=19.243681, Alt.=907.711426m. Speed=0.000000m/h.</desc>
<speed>0.000000</speed>
</trkpt>
<trkpt lat="43.185074" lon="19.243679">
<ele>907.695801</ele>
<time>2012-04-29T11:47:05Z</time>
<desc>lat.=43.185074, lon.=19.243679, Alt.=907.695801m. Speed=0.000000m/h.</desc>
<speed>0.000000</speed>
</trkpt>
<trkpt lat="43.185074" lon="19.243679">
<ele>907.680176</ele>
<time>2012-04-29T11:47:10Z</time>
<desc>lat.=43.185074, lon.=19.243679, Alt.=907.680176m. Speed=0.000000m/h.</desc>
<speed>0.000000</speed>
</trkpt>
<trkpt lat="43.185074" lon="19.243679">
<ele>907.664551</ele>
<time>2012-04-29T11:47:15Z</time>
<desc>lat.=43.185074, lon.=19.243679, Alt.=907.664551m. Speed=0.000000m/h.</desc>
<speed>0.000000</speed>
</trkpt>
<trkpt lat="43.185074" lon="19.243679">
<ele>907.602051</ele>
<time>2012-04-29T11:47:20Z</time>
<desc>lat.=43.185074, lon.=19.243679, Alt.=907.602051m. Speed=0.000000m/h.</desc>
<speed>0.000000</speed>
</trkpt>
<trkpt lat="43.185074" lon="19.243679">
<ele>907.523926</ele>
<time>2012-04-29T11:47:25Z</time>
<desc>lat.=43.185074, lon.=19.243679, Alt.=907.523926m. Speed=0.000000m/h.</desc>
<speed>0.000000</speed>
</trkpt>
<trkpt lat="43.185074" lon="19.243677">
<ele>907.414551</ele>
<time>2012-04-29T11:47:30Z</time>
<desc>lat.=43.185074, lon.=19.243677, Alt.=907.414551m. Speed=0.000000m/h.</desc>
<speed>0.000000</speed>
</trkpt>
<trkpt lat="43.185074" lon="19.243677">
<ele>907.320801</ele>
<time>2012-04-29T11:47:35Z</time>
<desc>lat.=43.185074, lon.=19.243677, Alt.=907.320801m. Speed=0.000000m/h.</desc>
<speed>0.000000</speed>
</trkpt>
<trkpt lat="43.185074" lon="19.243677">
<ele>907.273926</ele>
<time>2012-04-29T11:47:40Z</time>
<desc>lat.=43.185074, lon.=19.243677, Alt.=907.273926m. Speed=0.000000m/h.</desc>
<speed>0.000000</speed>
</trkpt>
<trkpt lat="43.185074" lon="19.243677">
<ele>907.180176</ele>
<time>2012-04-29T11:47:45Z</time>
<desc>lat.=43.185074, lon.=19.243677, Alt.=907.180176m. Speed=0.000000m/h.</desc>
<speed>0.000000</speed>
</trkpt>
<trkpt lat="43.185074" lon="19.243677">
<ele>907.133301</ele>
<time>2012-04-29T11:47:50Z</time>
<desc>lat.=43.185074, lon.=19.243677, Alt.=907.133301m. Speed=0.000000m/h.</desc>
<speed>0.000000</speed>
</trkpt>
<trkpt lat="43.185074" lon="19.243675">
<ele>907.070801</ele>
<time>2012-04-29T11:47:55Z</time>
<desc>lat.=43.185074, lon.=19.243675, Alt.=907.070801m. Speed=0.000000m/h.</desc>
<speed>0.000000</speed>
</trkpt>
<trkpt lat="43.185074" lon="19.243675">
<ele>907.008301</ele>
<time>2012-04-29T11:48:00Z</time>
<desc>lat.=43.185074, lon.=19.243675, Alt.=907.008301m. Speed=0.000000m/h.</desc>
<speed>0.000000</speed>
</trkpt>
<trkpt lat="43.185074" lon="19.243675">
<ele>906.977051</ele>
<time>2012-04-29T11:48:05Z</time>
<desc>lat.=43.185074, lon.=19.243675, Alt.=906.977051m. Speed=0.000000m/h.</desc>
<speed>0.000000</speed>
</trkpt>
<trkpt lat="43.185074" lon="19.243675">
<ele>906.930176</ele>
<time>2012-04-29T11:48:10Z</time>
<desc>lat.=43.185074, lon.=19.243675, Alt.=906.930176m. Speed=0.000000m/h.</desc>
<speed>0.000000</speed>
</trkpt>
<trkpt lat="43.185074" lon="19.243675">
<ele>906.883301</ele>
<time>2012-04-29T11:48:15Z</time>
<desc>lat.=43.185074, lon.=19.243675, Alt.=906.883301m. Speed=0.000000m/h.</desc>
<speed>0.000000</speed>
</trkpt>
<trkpt lat="43.185074" lon="19.243675">
<ele>906.852051</ele>
<time>2012-04-29T11:48:20Z</time>
<desc>lat.=43.185074, lon.=19.243675, Alt.=906.852051m. Speed=0.000000m/h.</desc>
<speed>0.000000</speed>
</trkpt>
<trkpt lat="43.185074" lon="19.243675">
<ele>906.836426</ele>
<time>2012-04-29T11:48:25Z</time>
<desc>lat.=43.185074, lon.=19.243675, Alt.=906.836426m. Speed=0.036000m/h.</desc>
<speed>0.010000</speed>
</trkpt>
<trkpt lat="43.185074" lon="19.243675">
<ele>906.836426</ele>
<time>2012-04-29T11:48:30Z</time>
<desc>lat.=43.185074, lon.=19.243675, Alt.=906.836426m. Speed=0.000000m/h.</desc>
<speed>0.000000</speed>
</trkpt>
<trkpt lat="43.185074" lon="19.243675">
<ele>906.836426</ele>
<time>2012-04-29T11:48:35Z</time>
<desc>lat.=43.185074, lon.=19.243675, Alt.=906.836426m. Speed=0.000000m/h.</desc>
<speed>0.000000</speed>
</trkpt>
<trkpt lat="43.185074" lon="19.243675">
<ele>906.820801</ele>
<time>2012-04-29T11:48:40Z</time>
<desc>lat.=43.185074, lon.=19.243675, Alt.=906.820801m. Speed=0.000000m/h.</desc>
<speed>0.000000</speed>
</trkpt>
<trkpt lat="43.185074" lon="19.243675">
<ele>906.836426</ele>
<time>2012-04-29T11:48:45Z</time>
<desc>lat.=43.185074, lon.=19.243675, Alt.=906.836426m. Speed=0.000000m/h.</desc>
<speed>0.000000</speed>
</trkpt>
<trkpt lat="43.185074" lon="19.243675">
<ele>906.867676</ele>
<time>2012-04-29T11:48:50Z</time>
<desc>lat.=43.185074, lon.=19.243675, Alt.=906.867676m. Speed=0.000000m/h.</desc>
<speed>0.000000</speed>
</trkpt>
<trkpt lat="43.185074" lon="19.243675">
<ele>906.867676</ele>
<time>2012-04-29T11:48:55Z</time>
<desc>lat.=43.185074, lon.=19.243675, Alt.=906.867676m. Speed=0.000000m/h.</desc>
<speed>0.000000</speed>
</trkpt>
<trkpt lat="43.185074" lon="19.243675">
<ele>906.836426</ele>
<time>2012-04-29T11:49:00Z</time>
<desc>lat.=43.185074, lon.=19.243675, Alt.=906.836426m. Speed=0.000000m/h.</desc>
<speed>0.000000</speed>
</trkpt>
<trkpt lat="43.185074" lon="19.243675">
<ele>906.773926</ele>
<time>2012-04-29T11:49:05Z</time>
<desc>lat.=43.185074, lon.=19.243675, Alt.=906.773926m. Speed=0.000000m/h.</desc>
<speed>0.000000</speed>
</trkpt>
<trkpt lat="43.185074" lon="19.243673">
<ele>906.758301</ele>
<time>2012-04-29T11:49:10Z</time>
<desc>lat.=43.185074, lon.=19.243673, Alt.=906.758301m. Speed=0.000000m/h.</desc>
<speed>0.000000</speed>
</trkpt>
<trkpt lat="43.185074" lon="19.243673">
<ele>906.758301</ele>
<time>2012-04-29T11:49:15Z</time>
<desc>lat.=43.185074, lon.=19.243673, Alt.=906.758301m. Speed=0.000000m/h.</desc>
<speed>0.000000</speed>
</trkpt>
<trkpt lat="43.185074" lon="19.243673">
<ele>906.711426</ele>
<time>2012-04-29T11:49:20Z</time>
<desc>lat.=43.185074, lon.=19.243673, Alt.=906.711426m. Speed=0.000000m/h.</desc>
<speed>0.000000</speed>
</trkpt>
<trkpt lat="43.185074" lon="19.243673">
<ele>906.633301</ele>
<time>2012-04-29T11:49:25Z</time>
<desc>lat.=43.185074, lon.=19.243673, Alt.=906.633301m. Speed=0.000000m/h.</desc>
<speed>0.000000</speed>
</trkpt>
<trkpt lat="43.185074" lon="19.243671">
<ele>906.555176</ele>
<time>2012-04-29T11:49:30Z</time>
<desc>lat.=43.185074, lon.=19.243671, Alt.=906.555176m. Speed=0.000000m/h.</desc>
<speed>0.000000</speed>
</trkpt>
<trkpt lat="43.185074" lon="19.243671">
<ele>906.508301</ele>
<time>2012-04-29T11:49:35Z</time>
<desc>lat.=43.185074, lon.=19.243671, Alt.=906.508301m. Speed=0.036000m/h.</desc>
<speed>0.010000</speed>
</trkpt>
<trkpt lat="43.185074" lon="19.243671">
<ele>906.461426</ele>
<time>2012-04-29T11:49:40Z</time>
<desc>lat.=43.185074, lon.=19.243671, Alt.=906.461426m. Speed=0.000000m/h.</desc>
<speed>0.000000</speed>
</trkpt>
<trkpt lat="43.185074" lon="19.243671">
<ele>906.414551</ele>
<time>2012-04-29T11:49:45Z</time>
<desc>lat.=43.185074, lon.=19.243671, Alt.=906.414551m. Speed=0.000000m/h.</desc>
<speed>0.000000</speed>
</trkpt>
<trkpt lat="43.185074" lon="19.243671">
<ele>906.367676</ele>
<time>2012-04-29T11:49:50Z</time>
<desc>lat.=43.185074, lon.=19.243671, Alt.=906.367676m. Speed=0.000000m/h.</desc>
<speed>0.000000</speed>
</trkpt>
<trkpt lat="43.185074" lon="19.243670">
<ele>906.320801</ele>
<time>2012-04-29T11:49:55Z</time>
<desc>lat.=43.185074, lon.=19.243670, Alt.=906.320801m. Speed=0.000000m/h.</desc>
<speed>0.000000</speed>
</trkpt>
<trkpt lat="43.185074" lon="19.243670">
<ele>906.273926</ele>
<time>2012-04-29T11:50:00Z</time>
<desc>lat.=43.185074, lon.=19.243670, Alt.=906.273926m. Speed=0.000000m/h.</desc>
<speed>0.000000</speed>
</trkpt>
<trkpt lat="43.185074" lon="19.243670">
<ele>906.258301</ele>
<time>2012-04-29T11:50:05Z</time>
<desc>lat.=43.185074, lon.=19.243670, Alt.=906.258301m. Speed=0.000000m/h.</desc>
<speed>0.000000</speed>
</trkpt>
<trkpt lat="43.185074" lon="19.243670">
<ele>906.242676</ele>
<time>2012-04-29T11:50:10Z</time>
<desc>lat.=43.185074, lon.=19.243670, Alt.=906.242676m. Speed=0.000000m/h.</desc>
<speed>0.000000</speed>
</trkpt>
<trkpt lat="43.185074" lon="19.243668">
<ele>906.180176</ele>
<time>2012-04-29T11:50:15Z</time>
<desc>lat.=43.185074, lon.=19.243668, Alt.=906.180176m. Speed=0.000000m/h.</desc>
<speed>0.000000</speed>
</trkpt>
<trkpt lat="43.185074" lon="19.243668">
<ele>906.117676</ele>
<time>2012-04-29T11:50:20Z</time>
<desc>lat.=43.185074, lon.=19.243668, Alt.=906.117676m. Speed=0.000000m/h.</desc>
<speed>0.000000</speed>
</trkpt>
<trkpt lat="43.185074" lon="19.243668">
<ele>906.055176</ele>
<time>2012-04-29T11:50:25Z</time>
<desc>lat.=43.185074, lon.=19.243668, Alt.=906.055176m. Speed=0.036000m/h.</desc>
<speed>0.010000</speed>
</trkpt>
<trkpt lat="43.185074" lon="19.243668">
<ele>906.023926</ele>
<time>2012-04-29T11:50:30Z</time>
<desc>lat.=43.185074, lon.=19.243668, Alt.=906.023926m. Speed=0.000000m/h.</desc>
<speed>0.000000</speed>
</trkpt>
<trkpt lat="43.185074" lon="19.243668">
<ele>905.977051</ele>
<time>2012-04-29T11:50:35Z</time>
<desc>lat.=43.185074, lon.=19.243668, Alt.=905.977051m. Speed=0.000000m/h.</desc>
<speed>0.000000</speed>
</trkpt>
<trkpt lat="43.185070" lon="19.243666">
<ele>905.930176</ele>
<time>2012-04-29T11:50:40Z</time>
<desc>lat.=43.185070, lon.=19.243666, Alt.=905.930176m. Speed=0.000000m/h.</desc>
<speed>0.000000</speed>
</trkpt>
<trkpt lat="43.185070" lon="19.243666">
<ele>905.852051</ele>
<time>2012-04-29T11:50:45Z</time>
<desc>lat.=43.185070, lon.=19.243666, Alt.=905.852051m. Speed=0.000000m/h.</desc>
<speed>0.000000</speed>
</trkpt>
<trkpt lat="43.185074" lon="19.243666">
<ele>905.805176</ele>
<time>2012-04-29T11:50:50Z</time>
<desc>lat.=43.185074, lon.=19.243666, Alt.=905.805176m. Speed=0.000000m/h.</desc>
<speed>0.000000</speed>
</trkpt>
<trkpt lat="43.185074" lon="19.243666">
<ele>905.758301</ele>
<time>2012-04-29T11:50:55Z</time>
<desc>lat.=43.185074, lon.=19.243666, Alt.=905.758301m. Speed=0.036000m/h.</desc>
<speed>0.010000</speed>
</trkpt>
<trkpt lat="43.185074" lon="19.243666">
<ele>905.711426</ele>
<time>2012-04-29T11:51:00Z</time>
<desc>lat.=43.185074, lon.=19.243666, Alt.=905.711426m. Speed=0.000000m/h.</desc>
<speed>0.000000</speed>
</trkpt>
<trkpt lat="43.185074" lon="19.243666">
<ele>905.664551</ele>
<time>2012-04-29T11:51:05Z</time>
<desc>lat.=43.185074, lon.=19.243666, Alt.=905.664551m. Speed=0.000000m/h.</desc>
<speed>0.000000</speed>
</trkpt>
<trkpt lat="43.185074" lon="19.243666">
<ele>905.602051</ele>
<time>2012-04-29T11:51:10Z</time>
<desc>lat.=43.185074, lon.=19.243666, Alt.=905.602051m. Speed=0.000000m/h.</desc>
<speed>0.000000</speed>
</trkpt>
<trkpt lat="43.185074" lon="19.243666">
<ele>905.539551</ele>
<time>2012-04-29T11:51:15Z</time>
<desc>lat.=43.185074, lon.=19.243666, Alt.=905.539551m. Speed=0.000000m/h.</desc>
<speed>0.000000</speed>
</trkpt>
<trkpt lat="43.185074" lon="19.243664">
<ele>905.492676</ele>
<time>2012-04-29T11:51:20Z</time>
<desc>lat.=43.185074, lon.=19.243664, Alt.=905.492676m. Speed=0.036000m/h.</desc>
<speed>0.010000</speed>
</trkpt>
<trkpt lat="43.185074" lon="19.243664">
<ele>905.477051</ele>
<time>2012-04-29T11:51:25Z</time>
<desc>lat.=43.185074, lon.=19.243664, Alt.=905.477051m. Speed=0.000000m/h.</desc>
<speed>0.000000</speed>
</trkpt>
<trkpt lat="43.185074" lon="19.243664">
<ele>905.445801</ele>
<time>2012-04-29T11:51:30Z</time>
<desc>lat.=43.185074, lon.=19.243664, Alt.=905.445801m. Speed=0.000000m/h.</desc>
<speed>0.000000</speed>
</trkpt>
<trkpt lat="43.185074" lon="19.243664">
<ele>905.445801</ele>
<time>2012-04-29T11:51:35Z</time>
<desc>lat.=43.185074, lon.=19.243664, Alt.=905.445801m. Speed=0.000000m/h.</desc>
<speed>0.000000</speed>
</trkpt>
<trkpt lat="43.185074" lon="19.243664">
<ele>905.430176</ele>
<time>2012-04-29T11:51:40Z</time>
<desc>lat.=43.185074, lon.=19.243664, Alt.=905.430176m. Speed=0.036000m/h.</desc>
<speed>0.010000</speed>
</trkpt>
<trkpt lat="43.185074" lon="19.243664">
<ele>905.398926</ele>
<time>2012-04-29T11:51:45Z</time>
<desc>lat.=43.185074, lon.=19.243664, Alt.=905.398926m. Speed=0.036000m/h.</desc>
<speed>0.010000</speed>
</trkpt>
<trkpt lat="43.185074" lon="19.243664">
<ele>905.367676</ele>
<time>2012-04-29T11:51:50Z</time>
<desc>lat.=43.185074, lon.=19.243664, Alt.=905.367676m. Speed=0.000000m/h.</desc>
<speed>0.000000</speed>
</trkpt>
<trkpt lat="43.185074" lon="19.243662">
<ele>905.320801</ele>
<time>2012-04-29T11:51:55Z</time>
<desc>lat.=43.185074, lon.=19.243662, Alt.=905.320801m. Speed=0.000000m/h.</desc>
<speed>0.000000</speed>
</trkpt>
<trkpt lat="43.185074" lon="19.243662">
<ele>905.289551</ele>
<time>2012-04-29T11:52:00Z</time>
<desc>lat.=43.185074, lon.=19.243662, Alt.=905.289551m. Speed=0.036000m/h.</desc>
<speed>0.010000</speed>
</trkpt>
<trkpt lat="43.185074" lon="19.243662">
<ele>905.242676</ele>
<time>2012-04-29T11:52:05Z</time>
<desc>lat.=43.185074, lon.=19.243662, Alt.=905.242676m. Speed=0.000000m/h.</desc>
<speed>0.000000</speed>
</trkpt>
<trkpt lat="43.185074" lon="19.243662">
<ele>905.180176</ele>
<time>2012-04-29T11:52:10Z</time>
<desc>lat.=43.185074, lon.=19.243662, Alt.=905.180176m. Speed=0.000000m/h.</desc>
<speed>0.000000</speed>
</trkpt>
<trkpt lat="43.185074" lon="19.243662">
<ele>905.117676</ele>
<time>2012-04-29T11:52:15Z</time>
<desc>lat.=43.185074, lon.=19.243662, Alt.=905.117676m. Speed=0.000000m/h.</desc>
<speed>0.000000</speed>
</trkpt>
<trkpt lat="43.185074" lon="19.243660">
<ele>905.070801</ele>
<time>2012-04-29T11:52:20Z</time>
<desc>lat.=43.185074, lon.=19.243660, Alt.=905.070801m. Speed=0.000000m/h.</desc>
<speed>0.000000</speed>
</trkpt>
<trkpt lat="43.185074" lon="19.243660">
<ele>905.023926</ele>
<time>2012-04-29T11:52:25Z</time>
<desc>lat.=43.185074, lon.=19.243660, Alt.=905.023926m. Speed=0.000000m/h.</desc>
<speed>0.000000</speed>
</trkpt>
<trkpt lat="43.185074" lon="19.243660">
<ele>904.977051</ele>
<time>2012-04-29T11:52:30Z</time>
<desc>lat.=43.185074, lon.=19.243660, Alt.=904.977051m. Speed=0.000000m/h.</desc>
<speed>0.000000</speed>
</trkpt>
<trkpt lat="43.185070" lon="19.243660">
<ele>904.945801</ele>
<time>2012-04-29T11:52:35Z</time>
<desc>lat.=43.185070, lon.=19.243660, Alt.=904.945801m. Speed=0.000000m/h.</desc>
<speed>0.000000</speed>
</trkpt>
<trkpt lat="43.185070" lon="19.243660">
<ele>904.898926</ele>
<time>2012-04-29T11:52:40Z</time>
<desc>lat.=43.185070, lon.=19.243660, Alt.=904.898926m. Speed=0.000000m/h.</desc>
<speed>0.000000</speed>
</trkpt>
<trkpt lat="43.185070" lon="19.243660">
<ele>904.883301</ele>
<time>2012-04-29T11:52:45Z</time>
<desc>lat.=43.185070, lon.=19.243660, Alt.=904.883301m. Speed=0.000000m/h.</desc>
<speed>0.000000</speed>
</trkpt>
<trkpt lat="43.185070" lon="19.243660">
<ele>904.883301</ele>
<time>2012-04-29T11:52:50Z</time>
<desc>lat.=43.185070, lon.=19.243660, Alt.=904.883301m. Speed=0.000000m/h.</desc>
<speed>0.000000</speed>
</trkpt>
<trkpt lat="43.185070" lon="19.243660">
<ele>904.883301</ele>
<time>2012-04-29T11:52:55Z</time>
<desc>lat.=43.185070, lon.=19.243660, Alt.=904.883301m. Speed=0.000000m/h.</desc>
<speed>0.000000</speed>
</trkpt>
<trkpt lat="43.185074" lon="19.243660">
<ele>904.867676</ele>
<time>2012-04-29T11:53:00Z</time>
<desc>lat.=43.185074, lon.=19.243660, Alt.=904.867676m. Speed=0.000000m/h.</desc>
<speed>0.000000</speed>
</trkpt>
<trkpt lat="43.185074" lon="19.243660">
<ele>904.836426</ele>
<time>2012-04-29T11:53:05Z</time>
<desc>lat.=43.185074, lon.=19.243660, Alt.=904.836426m. Speed=0.000000m/h.</desc>
<speed>0.000000</speed>
</trkpt>
<trkpt lat="43.185074" lon="19.243660">
<ele>904.805176</ele>
<time>2012-04-29T11:53:10Z</time>
<desc>lat.=43.185074, lon.=19.243660, Alt.=904.805176m. Speed=0.000000m/h.</desc>
<speed>0.000000</speed>
</trkpt>
<trkpt lat="43.185074" lon="19.243658">
<ele>904.758301</ele>
<time>2012-04-29T11:53:15Z</time>
<desc>lat.=43.185074, lon.=19.243658, Alt.=904.758301m. Speed=0.000000m/h.</desc>
<speed>0.000000</speed>
</trkpt>
<trkpt lat="43.185074" lon="19.243658">
<ele>904.742676</ele>
<time>2012-04-29T11:53:20Z</time>
<desc>lat.=43.185074, lon.=19.243658, Alt.=904.742676m. Speed=0.000000m/h.</desc>
<speed>0.000000</speed>
</trkpt>
<trkpt lat="43.185074" lon="19.243658">
<ele>904.727051</ele>
<time>2012-04-29T11:53:25Z</time>
<desc>lat.=43.185074, lon.=19.243658, Alt.=904.727051m. Speed=0.000000m/h.</desc>
<speed>0.000000</speed>
</trkpt>
<trkpt lat="43.185074" lon="19.243658">
<ele>904.695801</ele>
<time>2012-04-29T11:53:30Z</time>
<desc>lat.=43.185074, lon.=19.243658, Alt.=904.695801m. Speed=0.000000m/h.</desc>
<speed>0.000000</speed>
</trkpt>
<trkpt lat="43.185074" lon="19.243658">
<ele>904.695801</ele>
<time>2012-04-29T11:53:35Z</time>
<desc>lat.=43.185074, lon.=19.243658, Alt.=904.695801m. Speed=0.000000m/h.</desc>
<speed>0.000000</speed>
</trkpt>
<trkpt lat="43.185074" lon="19.243658">
<ele>904.695801</ele>
<time>2012-04-29T11:53:40Z</time>
<desc>lat.=43.185074, lon.=19.243658, Alt.=904.695801m. Speed=0.036000m/h.</desc>
<speed>0.010000</speed>
</trkpt>
<trkpt lat="43.185074" lon="19.243658">
<ele>904.695801</ele>
<time>2012-04-29T11:53:45Z</time>
<desc>lat.=43.185074, lon.=19.243658, Alt.=904.695801m. Speed=0.000000m/h.</desc>
<speed>0.000000</speed>
</trkpt>
<trkpt lat="43.185074" lon="19.243658">
<ele>904.680176</ele>
<time>2012-04-29T11:53:50Z</time>
<desc>lat.=43.185074, lon.=19.243658, Alt.=904.680176m. Speed=0.000000m/h.</desc>
<speed>0.000000</speed>
</trkpt>
<trkpt lat="43.185074" lon="19.243658">
<ele>904.633301</ele>
<time>2012-04-29T11:53:55Z</time>
<desc>lat.=43.185074, lon.=19.243658, Alt.=904.633301m. Speed=0.000000m/h.</desc>
<speed>0.000000</speed>
</trkpt>
<trkpt lat="43.185074" lon="19.243658">
<ele>904.555176</ele>
<time>2012-04-29T11:54:00Z</time>
<desc>lat.=43.185074, lon.=19.243658, Alt.=904.555176m. Speed=0.000000m/h.</desc>
<speed>0.000000</speed>
</trkpt>
<trkpt lat="43.185074" lon="19.243658">
<ele>904.492676</ele>
<time>2012-04-29T11:54:05Z</time>
<desc>lat.=43.185074, lon.=19.243658, Alt.=904.492676m. Speed=0.000000m/h.</desc>
<speed>0.000000</speed>
</trkpt>
<trkpt lat="43.185074" lon="19.243658">
<ele>904.492676</ele>
<time>2012-04-29T11:54:10Z</time>
<desc>lat.=43.185074, lon.=19.243658, Alt.=904.492676m. Speed=0.036000m/h.</desc>
<speed>0.010000</speed>
</trkpt>
<trkpt lat="43.185074" lon="19.243658">
<ele>904.492676</ele>
<time>2012-04-29T11:54:15Z</time>
<desc>lat.=43.185074, lon.=19.243658, Alt.=904.492676m. Speed=0.000000m/h.</desc>
<speed>0.000000</speed>
</trkpt>
<trkpt lat="43.185074" lon="19.243656">
<ele>904.477051</ele>
<time>2012-04-29T11:54:20Z</time>
<desc>lat.=43.185074, lon.=19.243656, Alt.=904.477051m. Speed=0.036000m/h.</desc>
<speed>0.010000</speed>
</trkpt>
<trkpt lat="43.185078" lon="19.243656">
<ele>904.430176</ele>
<time>2012-04-29T11:54:25Z</time>
<desc>lat.=43.185078, lon.=19.243656, Alt.=904.430176m. Speed=0.036000m/h.</desc>
<speed>0.010000</speed>
</trkpt>
<trkpt lat="43.185078" lon="19.243656">
<ele>904.414551</ele>
<time>2012-04-29T11:54:30Z</time>
<desc>lat.=43.185078, lon.=19.243656, Alt.=904.414551m. Speed=0.000000m/h.</desc>
<speed>0.000000</speed>
</trkpt>
<trkpt lat="43.185078" lon="19.243656">
<ele>904.398926</ele>
<time>2012-04-29T11:54:35Z</time>
<desc>lat.=43.185078, lon.=19.243656, Alt.=904.398926m. Speed=0.000000m/h.</desc>
<speed>0.000000</speed>
</trkpt>
<trkpt lat="43.185078" lon="19.243654">
<ele>904.383301</ele>
<time>2012-04-29T11:54:40Z</time>
<desc>lat.=43.185078, lon.=19.243654, Alt.=904.383301m. Speed=0.000000m/h.</desc>
<speed>0.000000</speed>
</trkpt>
<trkpt lat="43.185078" lon="19.243654">
<ele>904.336426</ele>
<time>2012-04-29T11:54:45Z</time>
<desc>lat.=43.185078, lon.=19.243654, Alt.=904.336426m. Speed=0.000000m/h.</desc>
<speed>0.000000</speed>
</trkpt>
<trkpt lat="43.185078" lon="19.243654">
<ele>904.273926</ele>
<time>2012-04-29T11:54:50Z</time>
<desc>lat.=43.185078, lon.=19.243654, Alt.=904.273926m. Speed=0.000000m/h.</desc>
<speed>0.000000</speed>
</trkpt>
<trkpt lat="43.185078" lon="19.243654">
<ele>904.242676</ele>
<time>2012-04-29T11:54:55Z</time>
<desc>lat.=43.185078, lon.=19.243654, Alt.=904.242676m. Speed=0.000000m/h.</desc>
<speed>0.000000</speed>
</trkpt>
<trkpt lat="43.185078" lon="19.243654">
<ele>904.211426</ele>
<time>2012-04-29T11:55:00Z</time>
<desc>lat.=43.185078, lon.=19.243654, Alt.=904.211426m. Speed=0.000000m/h.</desc>
<speed>0.000000</speed>
</trkpt>
<trkpt lat="43.185078" lon="19.243654">
<ele>904.164551</ele>
<time>2012-04-29T11:55:05Z</time>
<desc>lat.=43.185078, lon.=19.243654, Alt.=904.164551m. Speed=0.000000m/h.</desc>
<speed>0.000000</speed>
</trkpt>
<trkpt lat="43.185078" lon="19.243652">
<ele>904.117676</ele>
<time>2012-04-29T11:55:10Z</time>
<desc>lat.=43.185078, lon.=19.243652, Alt.=904.117676m. Speed=0.036000m/h.</desc>
<speed>0.010000</speed>
</trkpt>
<trkpt lat="43.185078" lon="19.243652">
<ele>904.055176</ele>
<time>2012-04-29T11:55:15Z</time>
<desc>lat.=43.185078, lon.=19.243652, Alt.=904.055176m. Speed=0.000000m/h.</desc>
<speed>0.000000</speed>
</trkpt>
<trkpt lat="43.185078" lon="19.243652">
<ele>904.023926</ele>
<time>2012-04-29T11:55:20Z</time>
<desc>lat.=43.185078, lon.=19.243652, Alt.=904.023926m. Speed=0.000000m/h.</desc>
<speed>0.000000</speed>
</trkpt>
<trkpt lat="43.185078" lon="19.243652">
<ele>903.992676</ele>
<time>2012-04-29T11:55:25Z</time>
<desc>lat.=43.185078, lon.=19.243652, Alt.=903.992676m. Speed=0.000000m/h.</desc>
<speed>0.000000</speed>
</trkpt>
<trkpt lat="43.185078" lon="19.243652">
<ele>903.961426</ele>
<time>2012-04-29T11:55:30Z</time>
<desc>lat.=43.185078, lon.=19.243652, Alt.=903.961426m. Speed=0.000000m/h.</desc>
<speed>0.000000</speed>
</trkpt>
<trkpt lat="43.185078" lon="19.243652">
<ele>903.930176</ele>
<time>2012-04-29T11:55:35Z</time>
<desc>lat.=43.185078, lon.=19.243652, Alt.=903.930176m. Speed=0.000000m/h.</desc>
<speed>0.000000</speed>
</trkpt>
<trkpt lat="43.185078" lon="19.243652">
<ele>903.883301</ele>
<time>2012-04-29T11:55:40Z</time>
<desc>lat.=43.185078, lon.=19.243652, Alt.=903.883301m. Speed=0.000000m/h.</desc>
<speed>0.000000</speed>
</trkpt>
<trkpt lat="43.185078" lon="19.243652">
<ele>903.820801</ele>
<time>2012-04-29T11:55:45Z</time>
<desc>lat.=43.185078, lon.=19.243652, Alt.=903.820801m. Speed=0.000000m/h.</desc>
<speed>0.000000</speed>
</trkpt>
<trkpt lat="43.185078" lon="19.243650">
<ele>903.758301</ele>
<time>2012-04-29T11:55:50Z</time>
<desc>lat.=43.185078, lon.=19.243650, Alt.=903.758301m. Speed=0.036000m/h.</desc>
<speed>0.010000</speed>
</trkpt>
<trkpt lat="43.185078" lon="19.243650">
<ele>903.695801</ele>
<time>2012-04-29T11:55:55Z</time>
<desc>lat.=43.185078, lon.=19.243650, Alt.=903.695801m. Speed=0.036000m/h.</desc>
<speed>0.010000</speed>
</trkpt>
<trkpt lat="43.185078" lon="19.243650">
<ele>903.664551</ele>
<time>2012-04-29T11:56:00Z</time>
<desc>lat.=43.185078, lon.=19.243650, Alt.=903.664551m. Speed=0.000000m/h.</desc>
<speed>0.000000</speed>
</trkpt>
<trkpt lat="43.185078" lon="19.243650">
<ele>903.633301</ele>
<time>2012-04-29T11:56:05Z</time>
<desc>lat.=43.185078, lon.=19.243650, Alt.=903.633301m. Speed=0.000000m/h.</desc>
<speed>0.000000</speed>
</trkpt>
<trkpt lat="43.185078" lon="19.243650">
<ele>903.617676</ele>
<time>2012-04-29T11:56:10Z</time>
<desc>lat.=43.185078, lon.=19.243650, Alt.=903.617676m. Speed=0.000000m/h.</desc>
<speed>0.000000</speed>
</trkpt>
<trkpt lat="43.185078" lon="19.243649">
<ele>903.602051</ele>
<time>2012-04-29T11:56:15Z</time>
<desc>lat.=43.185078, lon.=19.243649, Alt.=903.602051m. Speed=0.000000m/h.</desc>
<speed>0.000000</speed>
</trkpt>
<trkpt lat="43.185078" lon="19.243649">
<ele>903.570801</ele>
<time>2012-04-29T11:56:20Z</time>
<desc>lat.=43.185078, lon.=19.243649, Alt.=903.570801m. Speed=0.000000m/h.</desc>
<speed>0.000000</speed>
</trkpt>
<trkpt lat="43.185078" lon="19.243649">
<ele>903.539551</ele>
<time>2012-04-29T11:56:25Z</time>
<desc>lat.=43.185078, lon.=19.243649, Alt.=903.539551m. Speed=0.000000m/h.</desc>
<speed>0.000000</speed>
</trkpt>
<trkpt lat="43.185078" lon="19.243649">
<ele>903.508301</ele>
<time>2012-04-29T11:56:30Z</time>
<desc>lat.=43.185078, lon.=19.243649, Alt.=903.508301m. Speed=0.000000m/h.</desc>
<speed>0.000000</speed>
</trkpt>
<trkpt lat="43.185078" lon="19.243649">
<ele>903.477051</ele>
<time>2012-04-29T11:56:35Z</time>
<desc>lat.=43.185078, lon.=19.243649, Alt.=903.477051m. Speed=0.000000m/h.</desc>
<speed>0.000000</speed>
</trkpt>
<trkpt lat="43.185078" lon="19.243649">
<ele>903.445801</ele>
<time>2012-04-29T11:56:40Z</time>
<desc>lat.=43.185078, lon.=19.243649, Alt.=903.445801m. Speed=0.000000m/h.</desc>
<speed>0.000000</speed>
</trkpt>
<trkpt lat="43.185078" lon="19.243649">
<ele>903.398926</ele>
<time>2012-04-29T11:56:45Z</time>
<desc>lat.=43.185078, lon.=19.243649, Alt.=903.398926m. Speed=0.036000m/h.</desc>
<speed>0.010000</speed>
</trkpt>
<trkpt lat="43.185078" lon="19.243649">
<ele>903.367676</ele>
<time>2012-04-29T11:56:50Z</time>
<desc>lat.=43.185078, lon.=19.243649, Alt.=903.367676m. Speed=0.000000m/h.</desc>
<speed>0.000000</speed>
</trkpt>
<trkpt lat="43.185078" lon="19.243649">
<ele>903.305176</ele>
<time>2012-04-29T11:56:55Z</time>
<desc>lat.=43.185078, lon.=19.243649, Alt.=903.305176m. Speed=0.000000m/h.</desc>
<speed>0.000000</speed>
</trkpt>
<trkpt lat="43.185078" lon="19.243649">
<ele>903.258301</ele>
<time>2012-04-29T11:57:00Z</time>
<desc>lat.=43.185078, lon.=19.243649, Alt.=903.258301m. Speed=0.000000m/h.</desc>
<speed>0.000000</speed>
</trkpt>
<trkpt lat="43.185078" lon="19.243647">
<ele>903.227051</ele>
<time>2012-04-29T11:57:05Z</time>
<desc>lat.=43.185078, lon.=19.243647, Alt.=903.227051m. Speed=0.000000m/h.</desc>
<speed>0.000000</speed>
</trkpt>
<trkpt lat="43.185078" lon="19.243647">
<ele>903.164551</ele>
<time>2012-04-29T11:57:10Z</time>
<desc>lat.=43.185078, lon.=19.243647, Alt.=903.164551m. Speed=0.000000m/h.</desc>
<speed>0.000000</speed>
</trkpt>
<trkpt lat="43.185078" lon="19.243647">
<ele>903.133301</ele>
<time>2012-04-29T11:57:15Z</time>
<desc>lat.=43.185078, lon.=19.243647, Alt.=903.133301m. Speed=0.000000m/h.</desc>
<speed>0.000000</speed>
</trkpt>
<trkpt lat="43.185078" lon="19.243647">
<ele>903.133301</ele>
<time>2012-04-29T11:57:20Z</time>
<desc>lat.=43.185078, lon.=19.243647, Alt.=903.133301m. Speed=0.000000m/h.</desc>
<speed>0.000000</speed>
</trkpt>
<trkpt lat="43.185078" lon="19.243647">
<ele>903.133301</ele>
<time>2012-04-29T11:57:25Z</time>
<desc>lat.=43.185078, lon.=19.243647, Alt.=903.133301m. Speed=0.036000m/h.</desc>
<speed>0.010000</speed>
</trkpt>
<trkpt lat="43.185078" lon="19.243647">
<ele>903.102051</ele>
<time>2012-04-29T11:57:30Z</time>
<desc>lat.=43.185078, lon.=19.243647, Alt.=903.102051m. Speed=0.000000m/h.</desc>
<speed>0.000000</speed>
</trkpt>
<trkpt lat="43.185078" lon="19.243647">
<ele>903.055176</ele>
<time>2012-04-29T11:57:35Z</time>
<desc>lat.=43.185078, lon.=19.243647, Alt.=903.055176m. Speed=0.000000m/h.</desc>
<speed>0.000000</speed>
</trkpt>
<trkpt lat="43.185078" lon="19.243647">
<ele>903.039551</ele>
<time>2012-04-29T11:57:40Z</time>
<desc>lat.=43.185078, lon.=19.243647, Alt.=903.039551m. Speed=0.000000m/h.</desc>
<speed>0.000000</speed>
</trkpt>
<trkpt lat="43.185078" lon="19.243647">
<ele>903.008301</ele>
<time>2012-04-29T11:57:45Z</time>
<desc>lat.=43.185078, lon.=19.243647, Alt.=903.008301m. Speed=0.036000m/h.</desc>
<speed>0.010000</speed>
</trkpt>
<trkpt lat="43.185078" lon="19.243647">
<ele>902.977051</ele>
<time>2012-04-29T11:57:50Z</time>
<desc>lat.=43.185078, lon.=19.243647, Alt.=902.977051m. Speed=0.000000m/h.</desc>
<speed>0.000000</speed>
</trkpt>
<trkpt lat="43.185078" lon="19.243645">
<ele>902.945801</ele>
<time>2012-04-29T11:57:55Z</time>
<desc>lat.=43.185078, lon.=19.243645, Alt.=902.945801m. Speed=0.000000m/h.</desc>
<speed>0.000000</speed>
</trkpt>
<trkpt lat="43.185078" lon="19.243645">
<ele>902.930176</ele>
<time>2012-04-29T11:58:00Z</time>
<desc>lat.=43.185078, lon.=19.243645, Alt.=902.930176m. Speed=0.036000m/h.</desc>
<speed>0.010000</speed>
</trkpt>
<trkpt lat="43.185078" lon="19.243645">
<ele>902.930176</ele>
<time>2012-04-29T11:58:05Z</time>
<desc>lat.=43.185078, lon.=19.243645, Alt.=902.930176m. Speed=0.000000m/h.</desc>
<speed>0.000000</speed>
</trkpt>
<trkpt lat="43.185078" lon="19.243645">
<ele>902.930176</ele>
<time>2012-04-29T11:58:10Z</time>
<desc>lat.=43.185078, lon.=19.243645, Alt.=902.930176m. Speed=0.000000m/h.</desc>
<speed>0.000000</speed>
</trkpt>
<trkpt lat="43.185078" lon="19.243645">
<ele>902.945801</ele>
<time>2012-04-29T11:58:15Z</time>
<desc>lat.=43.185078, lon.=19.243645, Alt.=902.945801m. Speed=0.000000m/h.</desc>
<speed>0.000000</speed>
</trkpt>
<trkpt lat="43.185078" lon="19.243645">
<ele>902.961426</ele>
<time>2012-04-29T11:58:20Z</time>
<desc>lat.=43.185078, lon.=19.243645, Alt.=902.961426m. Speed=0.036000m/h.</desc>
<speed>0.010000</speed>
</trkpt>
<trkpt lat="43.185078" lon="19.243645">
<ele>902.945801</ele>
<time>2012-04-29T11:58:25Z</time>
<desc>lat.=43.185078, lon.=19.243645, Alt.=902.945801m. Speed=0.000000m/h.</desc>
<speed>0.000000</speed>
</trkpt>
<trkpt lat="43.185078" lon="19.243645">
<ele>902.961426</ele>
<time>2012-04-29T11:58:30Z</time>
<desc>lat.=43.185078, lon.=19.243645, Alt.=902.961426m. Speed=0.000000m/h.</desc>
<speed>0.000000</speed>
</trkpt>
<trkpt lat="43.185078" lon="19.243643">
<ele>902.977051</ele>
<time>2012-04-29T11:58:35Z</time>
<desc>lat.=43.185078, lon.=19.243643, Alt.=902.977051m. Speed=0.000000m/h.</desc>
<speed>0.000000</speed>
</trkpt>
<trkpt lat="43.185078" lon="19.243643">
<ele>902.961426</ele>
<time>2012-04-29T11:58:40Z</time>
<desc>lat.=43.185078, lon.=19.243643, Alt.=902.961426m. Speed=0.036000m/h.</desc>
<speed>0.010000</speed>
</trkpt>
<trkpt lat="43.185078" lon="19.243643">
<ele>902.945801</ele>
<time>2012-04-29T11:58:45Z</time>
<desc>lat.=43.185078, lon.=19.243643, Alt.=902.945801m. Speed=0.000000m/h.</desc>
<speed>0.000000</speed>
</trkpt>
<trkpt lat="43.185078" lon="19.243643">
<ele>902.914551</ele>
<time>2012-04-29T11:58:50Z</time>
<desc>lat.=43.185078, lon.=19.243643, Alt.=902.914551m. Speed=0.000000m/h.</desc>
<speed>0.000000</speed>
</trkpt>
<trkpt lat="43.185078" lon="19.243643">
<ele>902.883301</ele>
<time>2012-04-29T11:58:55Z</time>
<desc>lat.=43.185078, lon.=19.243643, Alt.=902.883301m. Speed=0.036000m/h.</desc>
<speed>0.010000</speed>
</trkpt>
<trkpt lat="43.185078" lon="19.243643">
<ele>902.867676</ele>
<time>2012-04-29T11:59:00Z</time>
<desc>lat.=43.185078, lon.=19.243643, Alt.=902.867676m. Speed=0.000000m/h.</desc>
<speed>0.000000</speed>
</trkpt>
<trkpt lat="43.185078" lon="19.243643">
<ele>902.867676</ele>
<time>2012-04-29T11:59:05Z</time>
<desc>lat.=43.185078, lon.=19.243643, Alt.=902.867676m. Speed=0.000000m/h.</desc>
<speed>0.000000</speed>
</trkpt>
<trkpt lat="43.185078" lon="19.243641">
<ele>902.852051</ele>
<time>2012-04-29T11:59:10Z</time>
<desc>lat.=43.185078, lon.=19.243641, Alt.=902.852051m. Speed=0.000000m/h.</desc>
<speed>0.000000</speed>
</trkpt>
<trkpt lat="43.185078" lon="19.243641">
<ele>902.852051</ele>
<time>2012-04-29T11:59:15Z</time>
<desc>lat.=43.185078, lon.=19.243641, Alt.=902.852051m. Speed=0.000000m/h.</desc>
<speed>0.000000</speed>
</trkpt>
<trkpt lat="43.185078" lon="19.243641">
<ele>902.836426</ele>
<time>2012-04-29T11:59:20Z</time>
<desc>lat.=43.185078, lon.=19.243641, Alt.=902.836426m. Speed=0.000000m/h.</desc>
<speed>0.000000</speed>
</trkpt>
<trkpt lat="43.185078" lon="19.243641">
<ele>902.852051</ele>
<time>2012-04-29T11:59:25Z</time>
<desc>lat.=43.185078, lon.=19.243641, Alt.=902.852051m. Speed=0.000000m/h.</desc>
<speed>0.000000</speed>
</trkpt>
<trkpt lat="43.185078" lon="19.243641">
<ele>902.867676</ele>
<time>2012-04-29T11:59:30Z</time>
<desc>lat.=43.185078, lon.=19.243641, Alt.=902.867676m. Speed=0.000000m/h.</desc>
<speed>0.000000</speed>
</trkpt>
<trkpt lat="43.185078" lon="19.243641">
<ele>902.883301</ele>
<time>2012-04-29T11:59:35Z</time>
<desc>lat.=43.185078, lon.=19.243641, Alt.=902.883301m. Speed=0.000000m/h.</desc>
<speed>0.000000</speed>
</trkpt>
<trkpt lat="43.185078" lon="19.243641">
<ele>902.867676</ele>
<time>2012-04-29T11:59:40Z</time>
<desc>lat.=43.185078, lon.=19.243641, Alt.=902.867676m. Speed=0.000000m/h.</desc>
<speed>0.000000</speed>
</trkpt>
<trkpt lat="43.185078" lon="19.243641">
<ele>902.852051</ele>
<time>2012-04-29T11:59:45Z</time>
<desc>lat.=43.185078, lon.=19.243641, Alt.=902.852051m. Speed=0.000000m/h.</desc>
<speed>0.000000</speed>
</trkpt>
<trkpt lat="43.185078" lon="19.243641">
<ele>902.820801</ele>
<time>2012-04-29T11:59:50Z</time>
<desc>lat.=43.185078, lon.=19.243641, Alt.=902.820801m. Speed=0.000000m/h.</desc>
<speed>0.000000</speed>
</trkpt>
<trkpt lat="43.185078" lon="19.243641">
<ele>902.805176</ele>
<time>2012-04-29T11:59:55Z</time>
<desc>lat.=43.185078, lon.=19.243641, Alt.=902.805176m. Speed=0.000000m/h.</desc>
<speed>0.000000</speed>
</trkpt>
<trkpt lat="43.185078" lon="19.243641">
<ele>902.773926</ele>
<time>2012-04-29T12:00:00Z</time>
<desc>lat.=43.185078, lon.=19.243641, Alt.=902.773926m. Speed=0.000000m/h.</desc>
<speed>0.000000</speed>
</trkpt>
<trkpt lat="43.185078" lon="19.243641">
<ele>902.758301</ele>
<time>2012-04-29T12:00:05Z</time>
<desc>lat.=43.185078, lon.=19.243641, Alt.=902.758301m. Speed=0.000000m/h.</desc>
<speed>0.000000</speed>
</trkpt>
<trkpt lat="43.185078" lon="19.243641">
<ele>902.742676</ele>
<time>2012-04-29T12:00:10Z</time>
<desc>lat.=43.185078, lon.=19.243641, Alt.=902.742676m. Speed=0.000000m/h.</desc>
<speed>0.000000</speed>
</trkpt>
<trkpt lat="43.185078" lon="19.243641">
<ele>902.727051</ele>
<time>2012-04-29T12:00:15Z</time>
<desc>lat.=43.185078, lon.=19.243641, Alt.=902.727051m. Speed=0.036000m/h.</desc>
<speed>0.010000</speed>
</trkpt>
<trkpt lat="43.185078" lon="19.243641">
<ele>902.711426</ele>
<time>2012-04-29T12:00:20Z</time>
<desc>lat.=43.185078, lon.=19.243641, Alt.=902.711426m. Speed=0.000000m/h.</desc>
<speed>0.000000</speed>
</trkpt>
<trkpt lat="43.185078" lon="19.243641">
<ele>902.695801</ele>
<time>2012-04-29T12:00:25Z</time>
<desc>lat.=43.185078, lon.=19.243641, Alt.=902.695801m. Speed=0.000000m/h.</desc>
<speed>0.000000</speed>
</trkpt>
<trkpt lat="43.185078" lon="19.243641">
<ele>902.680176</ele>
<time>2012-04-29T12:00:30Z</time>
<desc>lat.=43.185078, lon.=19.243641, Alt.=902.680176m. Speed=0.000000m/h.</desc>
<speed>0.000000</speed>
</trkpt>
<trkpt lat="43.185078" lon="19.243641">
<ele>902.664551</ele>
<time>2012-04-29T12:00:35Z</time>
<desc>lat.=43.185078, lon.=19.243641, Alt.=902.664551m. Speed=0.000000m/h.</desc>
<speed>0.000000</speed>
</trkpt>
<trkpt lat="43.185078" lon="19.243641">
<ele>902.648926</ele>
<time>2012-04-29T12:00:40Z</time>
<desc>lat.=43.185078, lon.=19.243641, Alt.=902.648926m. Speed=0.000000m/h.</desc>
<speed>0.000000</speed>
</trkpt>
<trkpt lat="43.185078" lon="19.243639">
<ele>902.648926</ele>
<time>2012-04-29T12:00:45Z</time>
<desc>lat.=43.185078, lon.=19.243639, Alt.=902.648926m. Speed=0.036000m/h.</desc>
<speed>0.010000</speed>
</trkpt>
<trkpt lat="43.185078" lon="19.243639">
<ele>902.648926</ele>
<time>2012-04-29T12:00:50Z</time>
<desc>lat.=43.185078, lon.=19.243639, Alt.=902.648926m. Speed=0.036000m/h.</desc>
<speed>0.010000</speed>
</trkpt>
<trkpt lat="43.185078" lon="19.243639">
<ele>902.648926</ele>
<time>2012-04-29T12:00:55Z</time>
<desc>lat.=43.185078, lon.=19.243639, Alt.=902.648926m. Speed=0.000000m/h.</desc>
<speed>0.000000</speed>
</trkpt>
<trkpt lat="43.185078" lon="19.243639">
<ele>902.664551</ele>
<time>2012-04-29T12:01:00Z</time>
<desc>lat.=43.185078, lon.=19.243639, Alt.=902.664551m. Speed=0.000000m/h.</desc>
<speed>0.000000</speed>
</trkpt>
<trkpt lat="43.185078" lon="19.243639">
<ele>902.664551</ele>
<time>2012-04-29T12:01:05Z</time>
<desc>lat.=43.185078, lon.=19.243639, Alt.=902.664551m. Speed=0.000000m/h.</desc>
<speed>0.000000</speed>
</trkpt>
<trkpt lat="43.185078" lon="19.243641">
<ele>902.664551</ele>
<time>2012-04-29T12:01:10Z</time>
<desc>lat.=43.185078, lon.=19.243641, Alt.=902.664551m. Speed=0.000000m/h.</desc>
<speed>0.000000</speed>
</trkpt>
<trkpt lat="43.185078" lon="19.243641">
<ele>902.648926</ele>
<time>2012-04-29T12:01:15Z</time>
<desc>lat.=43.185078, lon.=19.243641, Alt.=902.648926m. Speed=0.000000m/h.</desc>
<speed>0.000000</speed>
</trkpt>
<trkpt lat="43.185078" lon="19.243641">
<ele>902.648926</ele>
<time>2012-04-29T12:01:20Z</time>
<desc>lat.=43.185078, lon.=19.243641, Alt.=902.648926m. Speed=0.036000m/h.</desc>
<speed>0.010000</speed>
</trkpt>
<trkpt lat="43.185078" lon="19.243641">
<ele>902.633301</ele>
<time>2012-04-29T12:01:25Z</time>
<desc>lat.=43.185078, lon.=19.243641, Alt.=902.633301m. Speed=0.000000m/h.</desc>
<speed>0.000000</speed>
</trkpt>
<trkpt lat="43.185078" lon="19.243641">
<ele>902.633301</ele>
<time>2012-04-29T12:01:30Z</time>
<desc>lat.=43.185078, lon.=19.243641, Alt.=902.633301m. Speed=0.000000m/h.</desc>
<speed>0.000000</speed>
</trkpt>
<trkpt lat="43.185078" lon="19.243643">
<ele>902.664551</ele>
<time>2012-04-29T12:01:35Z</time>
<desc>lat.=43.185078, lon.=19.243643, Alt.=902.664551m. Speed=0.036000m/h.</desc>
<speed>0.010000</speed>
</trkpt>
<trkpt lat="43.185078" lon="19.243643">
<ele>902.695801</ele>
<time>2012-04-29T12:01:40Z</time>
<desc>lat.=43.185078, lon.=19.243643, Alt.=902.695801m. Speed=0.000000m/h.</desc>
<speed>0.000000</speed>
</trkpt>
<trkpt lat="43.185078" lon="19.243643">
<ele>902.742676</ele>
<time>2012-04-29T12:01:45Z</time>
<desc>lat.=43.185078, lon.=19.243643, Alt.=902.742676m. Speed=0.036000m/h.</desc>
<speed>0.010000</speed>
</trkpt>
<trkpt lat="43.185078" lon="19.243643">
<ele>902.773926</ele>
<time>2012-04-29T12:01:50Z</time>
<desc>lat.=43.185078, lon.=19.243643, Alt.=902.773926m. Speed=0.036000m/h.</desc>
<speed>0.010000</speed>
</trkpt>
<trkpt lat="43.185078" lon="19.243645">
<ele>902.789551</ele>
<time>2012-04-29T12:01:55Z</time>
<desc>lat.=43.185078, lon.=19.243645, Alt.=902.789551m. Speed=0.036000m/h.</desc>
<speed>0.010000</speed>
</trkpt>
<trkpt lat="43.185078" lon="19.243645">
<ele>902.773926</ele>
<time>2012-04-29T12:02:00Z</time>
<desc>lat.=43.185078, lon.=19.243645, Alt.=902.773926m. Speed=0.036000m/h.</desc>
<speed>0.010000</speed>
</trkpt>
<trkpt lat="43.185078" lon="19.243645">
<ele>902.727051</ele>
<time>2012-04-29T12:02:05Z</time>
<desc>lat.=43.185078, lon.=19.243645, Alt.=902.727051m. Speed=0.036000m/h.</desc>
<speed>0.010000</speed>
</trkpt>
<trkpt lat="43.185078" lon="19.243645">
<ele>902.695801</ele>
<time>2012-04-29T12:02:10Z</time>
<desc>lat.=43.185078, lon.=19.243645, Alt.=902.695801m. Speed=0.000000m/h.</desc>
<speed>0.000000</speed>
</trkpt>
<trkpt lat="43.185078" lon="19.243645">
<ele>902.695801</ele>
<time>2012-04-29T12:02:15Z</time>
<desc>lat.=43.185078, lon.=19.243645, Alt.=902.695801m. Speed=0.000000m/h.</desc>
<speed>0.000000</speed>
</trkpt>
<trkpt lat="43.185078" lon="19.243645">
<ele>902.695801</ele>
<time>2012-04-29T12:02:20Z</time>
<desc>lat.=43.185078, lon.=19.243645, Alt.=902.695801m. Speed=0.000000m/h.</desc>
<speed>0.000000</speed>
</trkpt>
<trkpt lat="43.185078" lon="19.243645">
<ele>902.664551</ele>
<time>2012-04-29T12:02:25Z</time>
<desc>lat.=43.185078, lon.=19.243645, Alt.=902.664551m. Speed=0.000000m/h.</desc>
<speed>0.000000</speed>
</trkpt>
<trkpt lat="43.185078" lon="19.243645">
<ele>902.648926</ele>
<time>2012-04-29T12:02:30Z</time>
<desc>lat.=43.185078, lon.=19.243645, Alt.=902.648926m. Speed=0.000000m/h.</desc>
<speed>0.000000</speed>
</trkpt>
<trkpt lat="43.185078" lon="19.243647">
<ele>902.633301</ele>
<time>2012-04-29T12:02:35Z</time>
<desc>lat.=43.185078, lon.=19.243647, Alt.=902.633301m. Speed=0.000000m/h.</desc>
<speed>0.000000</speed>
</trkpt>
<trkpt lat="43.185078" lon="19.243647">
<ele>902.602051</ele>
<time>2012-04-29T12:02:40Z</time>
<desc>lat.=43.185078, lon.=19.243647, Alt.=902.602051m. Speed=0.000000m/h.</desc>
<speed>0.000000</speed>
</trkpt>
<trkpt lat="43.185078" lon="19.243647">
<ele>902.586426</ele>
<time>2012-04-29T12:02:45Z</time>
<desc>lat.=43.185078, lon.=19.243647, Alt.=902.586426m. Speed=0.000000m/h.</desc>
<speed>0.000000</speed>
</trkpt>
<trkpt lat="43.185078" lon="19.243647">
<ele>902.555176</ele>
<time>2012-04-29T12:02:50Z</time>
<desc>lat.=43.185078, lon.=19.243647, Alt.=902.555176m. Speed=0.036000m/h.</desc>
<speed>0.010000</speed>
</trkpt>
<trkpt lat="43.185078" lon="19.243647">
<ele>902.539551</ele>
<time>2012-04-29T12:02:55Z</time>
<desc>lat.=43.185078, lon.=19.243647, Alt.=902.539551m. Speed=0.000000m/h.</desc>
<speed>0.000000</speed>
</trkpt>
<trkpt lat="43.185078" lon="19.243647">
<ele>902.523926</ele>
<time>2012-04-29T12:03:00Z</time>
<desc>lat.=43.185078, lon.=19.243647, Alt.=902.523926m. Speed=0.036000m/h.</desc>
<speed>0.010000</speed>
</trkpt>
<trkpt lat="43.185078" lon="19.243649">
<ele>902.492676</ele>
<time>2012-04-29T12:03:05Z</time>
<desc>lat.=43.185078, lon.=19.243649, Alt.=902.492676m. Speed=0.000000m/h.</desc>
<speed>0.000000</speed>
</trkpt>
<trkpt lat="43.185078" lon="19.243649">
<ele>902.461426</ele>
<time>2012-04-29T12:03:10Z</time>
<desc>lat.=43.185078, lon.=19.243649, Alt.=902.461426m. Speed=0.000000m/h.</desc>
<speed>0.000000</speed>
</trkpt>
<trkpt lat="43.185078" lon="19.243647">
<ele>902.445801</ele>
<time>2012-04-29T12:03:15Z</time>
<desc>lat.=43.185078, lon.=19.243647, Alt.=902.445801m. Speed=0.000000m/h.</desc>
<speed>0.000000</speed>
</trkpt>
<trkpt lat="43.185078" lon="19.243647">
<ele>902.398926</ele>
<time>2012-04-29T12:03:20Z</time>
<desc>lat.=43.185078, lon.=19.243647, Alt.=902.398926m. Speed=0.000000m/h.</desc>
<speed>0.000000</speed>
</trkpt>
<trkpt lat="43.185078" lon="19.243647">
<ele>902.383301</ele>
<time>2012-04-29T12:03:25Z</time>
<desc>lat.=43.185078, lon.=19.243647, Alt.=902.383301m. Speed=0.000000m/h.</desc>
<speed>0.000000</speed>
</trkpt>
<trkpt lat="43.185078" lon="19.243647">
<ele>902.383301</ele>
<time>2012-04-29T12:03:30Z</time>
<desc>lat.=43.185078, lon.=19.243647, Alt.=902.383301m. Speed=0.000000m/h.</desc>
<speed>0.000000</speed>
</trkpt>
<trkpt lat="43.185078" lon="19.243647">
<ele>902.352051</ele>
<time>2012-04-29T12:03:35Z</time>
<desc>lat.=43.185078, lon.=19.243647, Alt.=902.352051m. Speed=0.000000m/h.</desc>
<speed>0.000000</speed>
</trkpt>
<trkpt lat="43.185078" lon="19.243647">
<ele>902.367676</ele>
<time>2012-04-29T12:03:40Z</time>
<desc>lat.=43.185078, lon.=19.243647, Alt.=902.367676m. Speed=0.000000m/h.</desc>
<speed>0.000000</speed>
</trkpt>
<trkpt lat="43.185078" lon="19.243647">
<ele>902.383301</ele>
<time>2012-04-29T12:03:45Z</time>
<desc>lat.=43.185078, lon.=19.243647, Alt.=902.383301m. Speed=0.036000m/h.</desc>
<speed>0.010000</speed>
</trkpt>
<trkpt lat="43.185078" lon="19.243647">
<ele>902.383301</ele>
<time>2012-04-29T12:03:50Z</time>
<desc>lat.=43.185078, lon.=19.243647, Alt.=902.383301m. Speed=0.000000m/h.</desc>
<speed>0.000000</speed>
</trkpt>
<trkpt lat="43.185078" lon="19.243647">
<ele>902.398926</ele>
<time>2012-04-29T12:03:55Z</time>
<desc>lat.=43.185078, lon.=19.243647, Alt.=902.398926m. Speed=0.000000m/h.</desc>
<speed>0.000000</speed>
</trkpt>
<trkpt lat="43.185078" lon="19.243647">
<ele>902.414551</ele>
<time>2012-04-29T12:04:00Z</time>
<desc>lat.=43.185078, lon.=19.243647, Alt.=902.414551m. Speed=0.000000m/h.</desc>
<speed>0.000000</speed>
</trkpt>
<trkpt lat="43.185078" lon="19.243647">
<ele>902.430176</ele>
<time>2012-04-29T12:04:05Z</time>
<desc>lat.=43.185078, lon.=19.243647, Alt.=902.430176m. Speed=0.036000m/h.</desc>
<speed>0.010000</speed>
</trkpt>
<trkpt lat="43.185078" lon="19.243647">
<ele>902.461426</ele>
<time>2012-04-29T12:04:10Z</time>
<desc>lat.=43.185078, lon.=19.243647, Alt.=902.461426m. Speed=0.000000m/h.</desc>
<speed>0.000000</speed>
</trkpt>
<trkpt lat="43.185078" lon="19.243647">
<ele>902.477051</ele>
<time>2012-04-29T12:04:15Z</time>
<desc>lat.=43.185078, lon.=19.243647, Alt.=902.477051m. Speed=0.000000m/h.</desc>
<speed>0.000000</speed>
</trkpt>
<trkpt lat="43.185078" lon="19.243647">
<ele>902.477051</ele>
<time>2012-04-29T12:04:20Z</time>
<desc>lat.=43.185078, lon.=19.243647, Alt.=902.477051m. Speed=0.000000m/h.</desc>
<speed>0.000000</speed>
</trkpt>
<trkpt lat="43.185078" lon="19.243647">
<ele>902.492676</ele>
<time>2012-04-29T12:04:25Z</time>
<desc>lat.=43.185078, lon.=19.243647, Alt.=902.492676m. Speed=0.000000m/h.</desc>
<speed>0.000000</speed>
</trkpt>
<trkpt lat="43.185078" lon="19.243647">
<ele>902.508301</ele>
<time>2012-04-29T12:04:30Z</time>
<desc>lat.=43.185078, lon.=19.243647, Alt.=902.508301m. Speed=0.000000m/h.</desc>
<speed>0.000000</speed>
</trkpt>
<trkpt lat="43.185078" lon="19.243647">
<ele>902.539551</ele>
<time>2012-04-29T12:04:35Z</time>
<desc>lat.=43.185078, lon.=19.243647, Alt.=902.539551m. Speed=0.036000m/h.</desc>
<speed>0.010000</speed>
</trkpt>
<trkpt lat="43.185078" lon="19.243647">
<ele>902.586426</ele>
<time>2012-04-29T12:04:40Z</time>
<desc>lat.=43.185078, lon.=19.243647, Alt.=902.586426m. Speed=0.036000m/h.</desc>
<speed>0.010000</speed>
</trkpt>
<trkpt lat="43.185078" lon="19.243647">
<ele>902.602051</ele>
<time>2012-04-29T12:04:45Z</time>
<desc>lat.=43.185078, lon.=19.243647, Alt.=902.602051m. Speed=0.000000m/h.</desc>
<speed>0.000000</speed>
</trkpt>
<trkpt lat="43.185078" lon="19.243647">
<ele>902.617676</ele>
<time>2012-04-29T12:04:50Z</time>
<desc>lat.=43.185078, lon.=19.243647, Alt.=902.617676m. Speed=0.000000m/h.</desc>
<speed>0.000000</speed>
</trkpt>
<trkpt lat="43.185078" lon="19.243647">
<ele>902.648926</ele>
<time>2012-04-29T12:04:55Z</time>
<desc>lat.=43.185078, lon.=19.243647, Alt.=902.648926m. Speed=0.000000m/h.</desc>
<speed>0.000000</speed>
</trkpt>
<trkpt lat="43.185078" lon="19.243647">
<ele>902.664551</ele>
<time>2012-04-29T12:05:00Z</time>
<desc>lat.=43.185078, lon.=19.243647, Alt.=902.664551m. Speed=0.000000m/h.</desc>
<speed>0.000000</speed>
</trkpt>
<trkpt lat="43.185078" lon="19.243647">
<ele>902.680176</ele>
<time>2012-04-29T12:05:05Z</time>
<desc>lat.=43.185078, lon.=19.243647, Alt.=902.680176m. Speed=0.180000m/h.</desc>
<speed>0.050000</speed>
</trkpt>
<trkpt lat="43.185078" lon="19.243649">
<ele>902.695801</ele>
<time>2012-04-29T12:05:10Z</time>
<desc>lat.=43.185078, lon.=19.243649, Alt.=902.695801m. Speed=0.072000m/h.</desc>
<speed>0.020000</speed>
</trkpt>
<trkpt lat="43.185078" lon="19.243649">
<ele>902.711426</ele>
<time>2012-04-29T12:05:15Z</time>
<desc>lat.=43.185078, lon.=19.243649, Alt.=902.711426m. Speed=0.000000m/h.</desc>
<speed>0.000000</speed>
</trkpt>
<trkpt lat="43.185078" lon="19.243649">
<ele>902.727051</ele>
<time>2012-04-29T12:05:20Z</time>
<desc>lat.=43.185078, lon.=19.243649, Alt.=902.727051m. Speed=0.036000m/h.</desc>
<speed>0.010000</speed>
</trkpt>
<trkpt lat="43.185078" lon="19.243649">
<ele>902.727051</ele>
<time>2012-04-29T12:05:25Z</time>
<desc>lat.=43.185078, lon.=19.243649, Alt.=902.727051m. Speed=0.036000m/h.</desc>
<speed>0.010000</speed>
</trkpt>
<trkpt lat="43.185078" lon="19.243649">
<ele>902.742676</ele>
<time>2012-04-29T12:05:30Z</time>
<desc>lat.=43.185078, lon.=19.243649, Alt.=902.742676m. Speed=0.000000m/h.</desc>
<speed>0.000000</speed>
</trkpt>
<trkpt lat="43.185078" lon="19.243649">
<ele>902.758301</ele>
<time>2012-04-29T12:05:35Z</time>
<desc>lat.=43.185078, lon.=19.243649, Alt.=902.758301m. Speed=0.000000m/h.</desc>
<speed>0.000000</speed>
</trkpt>
<trkpt lat="43.185078" lon="19.243650">
<ele>902.805176</ele>
<time>2012-04-29T12:05:40Z</time>
<desc>lat.=43.185078, lon.=19.243650, Alt.=902.805176m. Speed=0.000000m/h.</desc>
<speed>0.000000</speed>
</trkpt>
<trkpt lat="43.185078" lon="19.243650">
<ele>902.820801</ele>
<time>2012-04-29T12:05:45Z</time>
<desc>lat.=43.185078, lon.=19.243650, Alt.=902.820801m. Speed=0.072000m/h.</desc>
<speed>0.020000</speed>
</trkpt>
<trkpt lat="43.185078" lon="19.243650">
<ele>902.852051</ele>
<time>2012-04-29T12:05:50Z</time>
<desc>lat.=43.185078, lon.=19.243650, Alt.=902.852051m. Speed=0.144000m/h.</desc>
<speed>0.040000</speed>
</trkpt>
<trkpt lat="43.185078" lon="19.243650">
<ele>902.883301</ele>
<time>2012-04-29T12:05:55Z</time>
<desc>lat.=43.185078, lon.=19.243650, Alt.=902.883301m. Speed=0.000000m/h.</desc>
<speed>0.000000</speed>
</trkpt>
<trkpt lat="43.185078" lon="19.243650">
<ele>902.914551</ele>
<time>2012-04-29T12:06:00Z</time>
<desc>lat.=43.185078, lon.=19.243650, Alt.=902.914551m. Speed=0.000000m/h.</desc>
<speed>0.000000</speed>
</trkpt>
<trkpt lat="43.185078" lon="19.243650">
<ele>902.945801</ele>
<time>2012-04-29T12:06:05Z</time>
<desc>lat.=43.185078, lon.=19.243650, Alt.=902.945801m. Speed=0.000000m/h.</desc>
<speed>0.000000</speed>
</trkpt>
<trkpt lat="43.185078" lon="19.243652">
<ele>902.977051</ele>
<time>2012-04-29T12:06:10Z</time>
<desc>lat.=43.185078, lon.=19.243652, Alt.=902.977051m. Speed=0.036000m/h.</desc>
<speed>0.010000</speed>
</trkpt>
<trkpt lat="43.185078" lon="19.243652">
<ele>903.023926</ele>
<time>2012-04-29T12:06:15Z</time>
<desc>lat.=43.185078, lon.=19.243652, Alt.=903.023926m. Speed=0.036000m/h.</desc>
<speed>0.010000</speed>
</trkpt>
<trkpt lat="43.185078" lon="19.243654">
<ele>903.070801</ele>
<time>2012-04-29T12:06:20Z</time>
<desc>lat.=43.185078, lon.=19.243654, Alt.=903.070801m. Speed=0.000000m/h.</desc>
<speed>0.000000</speed>
</trkpt>
<trkpt lat="43.185078" lon="19.243654">
<ele>903.102051</ele>
<time>2012-04-29T12:06:25Z</time>
<desc>lat.=43.185078, lon.=19.243654, Alt.=903.102051m. Speed=0.000000m/h.</desc>
<speed>0.000000</speed>
</trkpt>
<trkpt lat="43.185081" lon="19.243654">
<ele>903.133301</ele>
<time>2012-04-29T12:06:30Z</time>
<desc>lat.=43.185081, lon.=19.243654, Alt.=903.133301m. Speed=0.000000m/h.</desc>
<speed>0.000000</speed>
</trkpt>
<trkpt lat="43.185081" lon="19.243654">
<ele>903.164551</ele>
<time>2012-04-29T12:06:35Z</time>
<desc>lat.=43.185081, lon.=19.243654, Alt.=903.164551m. Speed=0.036000m/h.</desc>
<speed>0.010000</speed>
</trkpt>
<trkpt lat="43.185081" lon="19.243656">
<ele>903.195801</ele>
<time>2012-04-29T12:06:40Z</time>
<desc>lat.=43.185081, lon.=19.243656, Alt.=903.195801m. Speed=0.000000m/h.</desc>
<speed>0.000000</speed>
</trkpt>
<trkpt lat="43.185081" lon="19.243656">
<ele>903.211426</ele>
<time>2012-04-29T12:06:45Z</time>
<desc>lat.=43.185081, lon.=19.243656, Alt.=903.211426m. Speed=0.036000m/h.</desc>
<speed>0.010000</speed>
</trkpt>
<trkpt lat="43.185081" lon="19.243656">
<ele>903.242676</ele>
<time>2012-04-29T12:06:50Z</time>
<desc>lat.=43.185081, lon.=19.243656, Alt.=903.242676m. Speed=0.036000m/h.</desc>
<speed>0.010000</speed>
</trkpt>
<trkpt lat="43.185081" lon="19.243658">
<ele>903.258301</ele>
<time>2012-04-29T12:06:55Z</time>
<desc>lat.=43.185081, lon.=19.243658, Alt.=903.258301m. Speed=0.000000m/h.</desc>
<speed>0.000000</speed>
</trkpt>
<trkpt lat="43.185081" lon="19.243658">
<ele>903.289551</ele>
<time>2012-04-29T12:07:00Z</time>
<desc>lat.=43.185081, lon.=19.243658, Alt.=903.289551m. Speed=0.000000m/h.</desc>
<speed>0.000000</speed>
</trkpt>
<trkpt lat="43.185081" lon="19.243658">
<ele>903.320801</ele>
<time>2012-04-29T12:07:05Z</time>
<desc>lat.=43.185081, lon.=19.243658, Alt.=903.320801m. Speed=0.000000m/h.</desc>
<speed>0.000000</speed>
</trkpt>
<trkpt lat="43.185081" lon="19.243658">
<ele>903.367676</ele>
<time>2012-04-29T12:07:10Z</time>
<desc>lat.=43.185081, lon.=19.243658, Alt.=903.367676m. Speed=0.000000m/h.</desc>
<speed>0.000000</speed>
</trkpt>
<trkpt lat="43.185081" lon="19.243660">
<ele>903.398926</ele>
<time>2012-04-29T12:07:15Z</time>
<desc>lat.=43.185081, lon.=19.243660, Alt.=903.398926m. Speed=0.000000m/h.</desc>
<speed>0.000000</speed>
</trkpt>
<trkpt lat="43.185081" lon="19.243660">
<ele>903.398926</ele>
<time>2012-04-29T12:07:20Z</time>
<desc>lat.=43.185081, lon.=19.243660, Alt.=903.398926m. Speed=0.000000m/h.</desc>
<speed>0.000000</speed>
</trkpt>
<trkpt lat="43.185081" lon="19.243660">
<ele>903.398926</ele>
<time>2012-04-29T12:07:25Z</time>
<desc>lat.=43.185081, lon.=19.243660, Alt.=903.398926m. Speed=0.000000m/h.</desc>
<speed>0.000000</speed>
</trkpt>
<trkpt lat="43.185081" lon="19.243660">
<ele>903.414551</ele>
<time>2012-04-29T12:07:30Z</time>
<desc>lat.=43.185081, lon.=19.243660, Alt.=903.414551m. Speed=0.036000m/h.</desc>
<speed>0.010000</speed>
</trkpt>
<trkpt lat="43.185081" lon="19.243660">
<ele>903.430176</ele>
<time>2012-04-29T12:07:35Z</time>
<desc>lat.=43.185081, lon.=19.243660, Alt.=903.430176m. Speed=0.036000m/h.</desc>
<speed>0.010000</speed>
</trkpt>
<trkpt lat="43.185081" lon="19.243662">
<ele>903.461426</ele>
<time>2012-04-29T12:07:40Z</time>
<desc>lat.=43.185081, lon.=19.243662, Alt.=903.461426m. Speed=0.000000m/h.</desc>
<speed>0.000000</speed>
</trkpt>
<trkpt lat="43.185081" lon="19.243662">
<ele>903.508301</ele>
<time>2012-04-29T12:07:45Z</time>
<desc>lat.=43.185081, lon.=19.243662, Alt.=903.508301m. Speed=0.000000m/h.</desc>
<speed>0.000000</speed>
</trkpt>
<trkpt lat="43.185081" lon="19.243662">
<ele>903.555176</ele>
<time>2012-04-29T12:07:50Z</time>
<desc>lat.=43.185081, lon.=19.243662, Alt.=903.555176m. Speed=0.036000m/h.</desc>
<speed>0.010000</speed>
</trkpt>
<trkpt lat="43.185081" lon="19.243664">
<ele>903.570801</ele>
<time>2012-04-29T12:07:55Z</time>
<desc>lat.=43.185081, lon.=19.243664, Alt.=903.570801m. Speed=0.000000m/h.</desc>
<speed>0.000000</speed>
</trkpt>
<trkpt lat="43.185081" lon="19.243664">
<ele>903.602051</ele>
<time>2012-04-29T12:08:00Z</time>
<desc>lat.=43.185081, lon.=19.243664, Alt.=903.602051m. Speed=0.036000m/h.</desc>
<speed>0.010000</speed>
</trkpt>
<trkpt lat="43.185081" lon="19.243664">
<ele>903.633301</ele>
<time>2012-04-29T12:08:05Z</time>
<desc>lat.=43.185081, lon.=19.243664, Alt.=903.633301m. Speed=0.000000m/h.</desc>
<speed>0.000000</speed>
</trkpt>
<trkpt lat="43.185081" lon="19.243664">
<ele>903.664551</ele>
<time>2012-04-29T12:08:10Z</time>
<desc>lat.=43.185081, lon.=19.243664, Alt.=903.664551m. Speed=0.000000m/h.</desc>
<speed>0.000000</speed>
</trkpt>
<trkpt lat="43.185081" lon="19.243666">
<ele>903.680176</ele>
<time>2012-04-29T12:08:15Z</time>
<desc>lat.=43.185081, lon.=19.243666, Alt.=903.680176m. Speed=0.036000m/h.</desc>
<speed>0.010000</speed>
</trkpt>
<trkpt lat="43.185081" lon="19.243666">
<ele>903.695801</ele>
<time>2012-04-29T12:08:20Z</time>
<desc>lat.=43.185081, lon.=19.243666, Alt.=903.695801m. Speed=0.000000m/h.</desc>
<speed>0.000000</speed>
</trkpt>
<trkpt lat="43.185081" lon="19.243666">
<ele>903.711426</ele>
<time>2012-04-29T12:08:25Z</time>
<desc>lat.=43.185081, lon.=19.243666, Alt.=903.711426m. Speed=0.000000m/h.</desc>
<speed>0.000000</speed>
</trkpt>
<trkpt lat="43.185081" lon="19.243666">
<ele>903.742676</ele>
<time>2012-04-29T12:08:30Z</time>
<desc>lat.=43.185081, lon.=19.243666, Alt.=903.742676m. Speed=0.000000m/h.</desc>
<speed>0.000000</speed>
</trkpt>
<trkpt lat="43.185081" lon="19.243666">
<ele>903.758301</ele>
<time>2012-04-29T12:08:35Z</time>
<desc>lat.=43.185081, lon.=19.243666, Alt.=903.758301m. Speed=0.000000m/h.</desc>
<speed>0.000000</speed>
</trkpt>
<trkpt lat="43.185081" lon="19.243666">
<ele>903.773926</ele>
<time>2012-04-29T12:08:40Z</time>
<desc>lat.=43.185081, lon.=19.243666, Alt.=903.773926m. Speed=0.000000m/h.</desc>
<speed>0.000000</speed>
</trkpt>
<trkpt lat="43.185081" lon="19.243666">
<ele>903.789551</ele>
<time>2012-04-29T12:08:45Z</time>
<desc>lat.=43.185081, lon.=19.243666, Alt.=903.789551m. Speed=0.036000m/h.</desc>
<speed>0.010000</speed>
</trkpt>
<trkpt lat="43.185081" lon="19.243666">
<ele>903.789551</ele>
<time>2012-04-29T12:08:50Z</time>
<desc>lat.=43.185081, lon.=19.243666, Alt.=903.789551m. Speed=0.000000m/h.</desc>
<speed>0.000000</speed>
</trkpt>
<trkpt lat="43.185081" lon="19.243666">
<ele>903.805176</ele>
<time>2012-04-29T12:08:55Z</time>
<desc>lat.=43.185081, lon.=19.243666, Alt.=903.805176m. Speed=0.000000m/h.</desc>
<speed>0.000000</speed>
</trkpt>
<trkpt lat="43.185081" lon="19.243666">
<ele>903.820801</ele>
<time>2012-04-29T12:09:00Z</time>
<desc>lat.=43.185081, lon.=19.243666, Alt.=903.820801m. Speed=0.000000m/h.</desc>
<speed>0.000000</speed>
</trkpt>
<trkpt lat="43.185081" lon="19.243666">
<ele>903.820801</ele>
<time>2012-04-29T12:09:05Z</time>
<desc>lat.=43.185081, lon.=19.243666, Alt.=903.820801m. Speed=0.000000m/h.</desc>
<speed>0.000000</speed>
</trkpt>
<trkpt lat="43.185081" lon="19.243666">
<ele>903.820801</ele>
<time>2012-04-29T12:09:10Z</time>
<desc>lat.=43.185081, lon.=19.243666, Alt.=903.820801m. Speed=0.000000m/h.</desc>
<speed>0.000000</speed>
</trkpt>
<trkpt lat="43.185081" lon="19.243666">
<ele>903.820801</ele>
<time>2012-04-29T12:09:15Z</time>
<desc>lat.=43.185081, lon.=19.243666, Alt.=903.820801m. Speed=0.000000m/h.</desc>
<speed>0.000000</speed>
</trkpt>
<trkpt lat="43.185081" lon="19.243666">
<ele>903.836426</ele>
<time>2012-04-29T12:09:20Z</time>
<desc>lat.=43.185081, lon.=19.243666, Alt.=903.836426m. Speed=0.000000m/h.</desc>
<speed>0.000000</speed>
</trkpt>
<trkpt lat="43.185081" lon="19.243666">
<ele>903.836426</ele>
<time>2012-04-29T12:09:25Z</time>
<desc>lat.=43.185081, lon.=19.243666, Alt.=903.836426m. Speed=0.000000m/h.</desc>
<speed>0.000000</speed>
</trkpt>
<trkpt lat="43.185081" lon="19.243666">
<ele>903.820801</ele>
<time>2012-04-29T12:09:30Z</time>
<desc>lat.=43.185081, lon.=19.243666, Alt.=903.820801m. Speed=0.000000m/h.</desc>
<speed>0.000000</speed>
</trkpt>
<trkpt lat="43.185081" lon="19.243666">
<ele>903.820801</ele>
<time>2012-04-29T12:09:35Z</time>
<desc>lat.=43.185081, lon.=19.243666, Alt.=903.820801m. Speed=0.000000m/h.</desc>
<speed>0.000000</speed>
</trkpt>
<trkpt lat="43.185081" lon="19.243666">
<ele>903.820801</ele>
<time>2012-04-29T12:09:40Z</time>
<desc>lat.=43.185081, lon.=19.243666, Alt.=903.820801m. Speed=0.000000m/h.</desc>
<speed>0.000000</speed>
</trkpt>
<trkpt lat="43.185081" lon="19.243666">
<ele>903.820801</ele>
<time>2012-04-29T12:09:45Z</time>
<desc>lat.=43.185081, lon.=19.243666, Alt.=903.820801m. Speed=0.000000m/h.</desc>
<speed>0.000000</speed>
</trkpt>
<trkpt lat="43.185081" lon="19.243666">
<ele>903.836426</ele>
<time>2012-04-29T12:09:50Z</time>
<desc>lat.=43.185081, lon.=19.243666, Alt.=903.836426m. Speed=0.000000m/h.</desc>
<speed>0.000000</speed>
</trkpt>
<trkpt lat="43.185081" lon="19.243668">
<ele>903.852051</ele>
<time>2012-04-29T12:09:55Z</time>
<desc>lat.=43.185081, lon.=19.243668, Alt.=903.852051m. Speed=0.000000m/h.</desc>
<speed>0.000000</speed>
</trkpt>
<trkpt lat="43.185081" lon="19.243668">
<ele>903.867676</ele>
<time>2012-04-29T12:10:00Z</time>
<desc>lat.=43.185081, lon.=19.243668, Alt.=903.867676m. Speed=0.000000m/h.</desc>
<speed>0.000000</speed>
</trkpt>
<trkpt lat="43.185081" lon="19.243666">
<ele>903.867676</ele>
<time>2012-04-29T12:10:05Z</time>
<desc>lat.=43.185081, lon.=19.243666, Alt.=903.867676m. Speed=0.000000m/h.</desc>
<speed>0.000000</speed>
</trkpt>
<trkpt lat="43.185081" lon="19.243666">
<ele>903.867676</ele>
<time>2012-04-29T12:10:10Z</time>
<desc>lat.=43.185081, lon.=19.243666, Alt.=903.867676m. Speed=0.000000m/h.</desc>
<speed>0.000000</speed>
</trkpt>
<trkpt lat="43.185081" lon="19.243666">
<ele>903.867676</ele>
<time>2012-04-29T12:10:15Z</time>
<desc>lat.=43.185081, lon.=19.243666, Alt.=903.867676m. Speed=0.000000m/h.</desc>
<speed>0.000000</speed>
</trkpt>
<trkpt lat="43.185081" lon="19.243668">
<ele>903.883301</ele>
<time>2012-04-29T12:10:20Z</time>
<desc>lat.=43.185081, lon.=19.243668, Alt.=903.883301m. Speed=0.000000m/h.</desc>
<speed>0.000000</speed>
</trkpt>
<trkpt lat="43.185081" lon="19.243668">
<ele>903.883301</ele>
<time>2012-04-29T12:10:25Z</time>
<desc>lat.=43.185081, lon.=19.243668, Alt.=903.883301m. Speed=0.000000m/h.</desc>
<speed>0.000000</speed>
</trkpt>
<trkpt lat="43.185081" lon="19.243668">
<ele>903.883301</ele>
<time>2012-04-29T12:10:30Z</time>
<desc>lat.=43.185081, lon.=19.243668, Alt.=903.883301m. Speed=0.000000m/h.</desc>
<speed>0.000000</speed>
</trkpt>
<trkpt lat="43.185081" lon="19.243668">
<ele>903.898926</ele>
<time>2012-04-29T12:10:35Z</time>
<desc>lat.=43.185081, lon.=19.243668, Alt.=903.898926m. Speed=0.000000m/h.</desc>
<speed>0.000000</speed>
</trkpt>
<trkpt lat="43.185081" lon="19.243668">
<ele>903.898926</ele>
<time>2012-04-29T12:10:40Z</time>
<desc>lat.=43.185081, lon.=19.243668, Alt.=903.898926m. Speed=0.000000m/h.</desc>
<speed>0.000000</speed>
</trkpt>
<trkpt lat="43.185081" lon="19.243668">
<ele>903.914551</ele>
<time>2012-04-29T12:10:45Z</time>
<desc>lat.=43.185081, lon.=19.243668, Alt.=903.914551m. Speed=0.000000m/h.</desc>
<speed>0.000000</speed>
</trkpt>
<trkpt lat="43.185081" lon="19.243668">
<ele>903.930176</ele>
<time>2012-04-29T12:10:50Z</time>
<desc>lat.=43.185081, lon.=19.243668, Alt.=903.930176m. Speed=0.000000m/h.</desc>
<speed>0.000000</speed>
</trkpt>
<trkpt lat="43.185081" lon="19.243668">
<ele>903.945801</ele>
<time>2012-04-29T12:10:55Z</time>
<desc>lat.=43.185081, lon.=19.243668, Alt.=903.945801m. Speed=0.000000m/h.</desc>
<speed>0.000000</speed>
</trkpt>
<trkpt lat="43.185081" lon="19.243668">
<ele>903.961426</ele>
<time>2012-04-29T12:11:00Z</time>
<desc>lat.=43.185081, lon.=19.243668, Alt.=903.961426m. Speed=0.000000m/h.</desc>
<speed>0.000000</speed>
</trkpt>
<trkpt lat="43.185081" lon="19.243668">
<ele>903.961426</ele>
<time>2012-04-29T12:11:05Z</time>
<desc>lat.=43.185081, lon.=19.243668, Alt.=903.961426m. Speed=0.000000m/h.</desc>
<speed>0.000000</speed>
</trkpt>
<trkpt lat="43.185081" lon="19.243668">
<ele>903.961426</ele>
<time>2012-04-29T12:11:10Z</time>
<desc>lat.=43.185081, lon.=19.243668, Alt.=903.961426m. Speed=0.000000m/h.</desc>
<speed>0.000000</speed>
</trkpt>
<trkpt lat="43.185081" lon="19.243668">
<ele>903.977051</ele>
<time>2012-04-29T12:11:15Z</time>
<desc>lat.=43.185081, lon.=19.243668, Alt.=903.977051m. Speed=0.000000m/h.</desc>
<speed>0.000000</speed>
</trkpt>
<trkpt lat="43.185081" lon="19.243668">
<ele>903.977051</ele>
<time>2012-04-29T12:11:20Z</time>
<desc>lat.=43.185081, lon.=19.243668, Alt.=903.977051m. Speed=0.000000m/h.</desc>
<speed>0.000000</speed>
</trkpt>
<trkpt lat="43.185081" lon="19.243668">
<ele>903.977051</ele>
<time>2012-04-29T12:11:25Z</time>
<desc>lat.=43.185081, lon.=19.243668, Alt.=903.977051m. Speed=0.000000m/h.</desc>
<speed>0.000000</speed>
</trkpt>
<trkpt lat="43.185081" lon="19.243668">
<ele>903.992676</ele>
<time>2012-04-29T12:11:30Z</time>
<desc>lat.=43.185081, lon.=19.243668, Alt.=903.992676m. Speed=0.000000m/h.</desc>
<speed>0.000000</speed>
</trkpt>
<trkpt lat="43.185081" lon="19.243668">
<ele>903.992676</ele>
<time>2012-04-29T12:11:35Z</time>
<desc>lat.=43.185081, lon.=19.243668, Alt.=903.992676m. Speed=0.000000m/h.</desc>
<speed>0.000000</speed>
</trkpt>
<trkpt lat="43.185081" lon="19.243668">
<ele>903.992676</ele>
<time>2012-04-29T12:11:40Z</time>
<desc>lat.=43.185081, lon.=19.243668, Alt.=903.992676m. Speed=0.000000m/h.</desc>
<speed>0.000000</speed>
</trkpt>
<trkpt lat="43.185081" lon="19.243668">
<ele>904.008301</ele>
<time>2012-04-29T12:11:45Z</time>
<desc>lat.=43.185081, lon.=19.243668, Alt.=904.008301m. Speed=0.000000m/h.</desc>
<speed>0.000000</speed>
</trkpt>
<trkpt lat="43.185081" lon="19.243668">
<ele>904.008301</ele>
<time>2012-04-29T12:11:50Z</time>
<desc>lat.=43.185081, lon.=19.243668, Alt.=904.008301m. Speed=0.000000m/h.</desc>
<speed>0.000000</speed>
</trkpt>
<trkpt lat="43.185081" lon="19.243668">
<ele>904.023926</ele>
<time>2012-04-29T12:11:55Z</time>
<desc>lat.=43.185081, lon.=19.243668, Alt.=904.023926m. Speed=0.000000m/h.</desc>
<speed>0.000000</speed>
</trkpt>
<trkpt lat="43.185081" lon="19.243668">
<ele>904.023926</ele>
<time>2012-04-29T12:12:00Z</time>
<desc>lat.=43.185081, lon.=19.243668, Alt.=904.023926m. Speed=0.000000m/h.</desc>
<speed>0.000000</speed>
</trkpt>
<trkpt lat="43.185081" lon="19.243668">
<ele>904.008301</ele>
<time>2012-04-29T12:12:05Z</time>
<desc>lat.=43.185081, lon.=19.243668, Alt.=904.008301m. Speed=0.000000m/h.</desc>
<speed>0.000000</speed>
</trkpt>
<trkpt lat="43.185081" lon="19.243666">
<ele>904.008301</ele>
<time>2012-04-29T12:12:10Z</time>
<desc>lat.=43.185081, lon.=19.243666, Alt.=904.008301m. Speed=0.000000m/h.</desc>
<speed>0.000000</speed>
</trkpt>
<trkpt lat="43.185081" lon="19.243666">
<ele>904.008301</ele>
<time>2012-04-29T12:12:15Z</time>
<desc>lat.=43.185081, lon.=19.243666, Alt.=904.008301m. Speed=0.000000m/h.</desc>
<speed>0.000000</speed>
</trkpt>
<trkpt lat="43.185081" lon="19.243666">
<ele>904.023926</ele>
<time>2012-04-29T12:12:20Z</time>
<desc>lat.=43.185081, lon.=19.243666, Alt.=904.023926m. Speed=0.000000m/h.</desc>
<speed>0.000000</speed>
</trkpt>
<trkpt lat="43.185081" lon="19.243666">
<ele>904.023926</ele>
<time>2012-04-29T12:12:25Z</time>
<desc>lat.=43.185081, lon.=19.243666, Alt.=904.023926m. Speed=0.000000m/h.</desc>
<speed>0.000000</speed>
</trkpt>
<trkpt lat="43.185081" lon="19.243668">
<ele>904.039551</ele>
<time>2012-04-29T12:12:30Z</time>
<desc>lat.=43.185081, lon.=19.243668, Alt.=904.039551m. Speed=0.000000m/h.</desc>
<speed>0.000000</speed>
</trkpt>
<trkpt lat="43.185081" lon="19.243668">
<ele>904.055176</ele>
<time>2012-04-29T12:12:35Z</time>
<desc>lat.=43.185081, lon.=19.243668, Alt.=904.055176m. Speed=0.000000m/h.</desc>
<speed>0.000000</speed>
</trkpt>
<trkpt lat="43.185081" lon="19.243668">
<ele>904.086426</ele>
<time>2012-04-29T12:12:40Z</time>
<desc>lat.=43.185081, lon.=19.243668, Alt.=904.086426m. Speed=0.000000m/h.</desc>
<speed>0.000000</speed>
</trkpt>
<trkpt lat="43.185081" lon="19.243668">
<ele>904.086426</ele>
<time>2012-04-29T12:12:45Z</time>
<desc>lat.=43.185081, lon.=19.243668, Alt.=904.086426m. Speed=0.000000m/h.</desc>
<speed>0.000000</speed>
</trkpt>
<trkpt lat="43.185081" lon="19.243668">
<ele>904.102051</ele>
<time>2012-04-29T12:12:50Z</time>
<desc>lat.=43.185081, lon.=19.243668, Alt.=904.102051m. Speed=0.000000m/h.</desc>
<speed>0.000000</speed>
</trkpt>
<trkpt lat="43.185081" lon="19.243668">
<ele>904.102051</ele>
<time>2012-04-29T12:12:55Z</time>
<desc>lat.=43.185081, lon.=19.243668, Alt.=904.102051m. Speed=0.000000m/h.</desc>
<speed>0.000000</speed>
</trkpt>
<trkpt lat="43.185081" lon="19.243668">
<ele>904.102051</ele>
<time>2012-04-29T12:13:00Z</time>
<desc>lat.=43.185081, lon.=19.243668, Alt.=904.102051m. Speed=0.000000m/h.</desc>
<speed>0.000000</speed>
</trkpt>
<trkpt lat="43.185081" lon="19.243668">
<ele>904.102051</ele>
<time>2012-04-29T12:13:05Z</time>
<desc>lat.=43.185081, lon.=19.243668, Alt.=904.102051m. Speed=0.000000m/h.</desc>
<speed>0.000000</speed>
</trkpt>
<trkpt lat="43.185081" lon="19.243668">
<ele>904.117676</ele>
<time>2012-04-29T12:13:10Z</time>
<desc>lat.=43.185081, lon.=19.243668, Alt.=904.117676m. Speed=0.000000m/h.</desc>
<speed>0.000000</speed>
</trkpt>
<trkpt lat="43.185081" lon="19.243668">
<ele>904.133301</ele>
<time>2012-04-29T12:13:15Z</time>
<desc>lat.=43.185081, lon.=19.243668, Alt.=904.133301m. Speed=0.000000m/h.</desc>
<speed>0.000000</speed>
</trkpt>
<trkpt lat="43.185081" lon="19.243668">
<ele>904.133301</ele>
<time>2012-04-29T12:13:20Z</time>
<desc>lat.=43.185081, lon.=19.243668, Alt.=904.133301m. Speed=0.000000m/h.</desc>
<speed>0.000000</speed>
</trkpt>
<trkpt lat="43.185081" lon="19.243668">
<ele>904.148926</ele>
<time>2012-04-29T12:13:25Z</time>
<desc>lat.=43.185081, lon.=19.243668, Alt.=904.148926m. Speed=0.000000m/h.</desc>
<speed>0.000000</speed>
</trkpt>
<trkpt lat="43.185081" lon="19.243668">
<ele>904.148926</ele>
<time>2012-04-29T12:13:30Z</time>
<desc>lat.=43.185081, lon.=19.243668, Alt.=904.148926m. Speed=0.000000m/h.</desc>
<speed>0.000000</speed>
</trkpt>
<trkpt lat="43.185081" lon="19.243668">
<ele>904.164551</ele>
<time>2012-04-29T12:13:35Z</time>
<desc>lat.=43.185081, lon.=19.243668, Alt.=904.164551m. Speed=0.000000m/h.</desc>
<speed>0.000000</speed>
</trkpt>
<trkpt lat="43.185081" lon="19.243668">
<ele>904.164551</ele>
<time>2012-04-29T12:13:40Z</time>
<desc>lat.=43.185081, lon.=19.243668, Alt.=904.164551m. Speed=0.000000m/h.</desc>
<speed>0.000000</speed>
</trkpt>
<trkpt lat="43.185081" lon="19.243668">
<ele>904.180176</ele>
<time>2012-04-29T12:13:45Z</time>
<desc>lat.=43.185081, lon.=19.243668, Alt.=904.180176m. Speed=0.000000m/h.</desc>
<speed>0.000000</speed>
</trkpt>
<trkpt lat="43.185081" lon="19.243668">
<ele>904.195801</ele>
<time>2012-04-29T12:13:50Z</time>
<desc>lat.=43.185081, lon.=19.243668, Alt.=904.195801m. Speed=0.000000m/h.</desc>
<speed>0.000000</speed>
</trkpt>
<trkpt lat="43.185081" lon="19.243670">
<ele>904.211426</ele>
<time>2012-04-29T12:13:55Z</time>
<desc>lat.=43.185081, lon.=19.243670, Alt.=904.211426m. Speed=0.000000m/h.</desc>
<speed>0.000000</speed>
</trkpt>
<trkpt lat="43.185081" lon="19.243670">
<ele>904.227051</ele>
<time>2012-04-29T12:14:00Z</time>
<desc>lat.=43.185081, lon.=19.243670, Alt.=904.227051m. Speed=0.000000m/h.</desc>
<speed>0.000000</speed>
</trkpt>
<trkpt lat="43.185081" lon="19.243670">
<ele>904.227051</ele>
<time>2012-04-29T12:14:05Z</time>
<desc>lat.=43.185081, lon.=19.243670, Alt.=904.227051m. Speed=0.000000m/h.</desc>
<speed>0.000000</speed>
</trkpt>
<trkpt lat="43.185081" lon="19.243670">
<ele>904.258301</ele>
<time>2012-04-29T12:14:10Z</time>
<desc>lat.=43.185081, lon.=19.243670, Alt.=904.258301m. Speed=0.000000m/h.</desc>
<speed>0.000000</speed>
</trkpt>
<trkpt lat="43.185081" lon="19.243670">
<ele>904.273926</ele>
<time>2012-04-29T12:14:15Z</time>
<desc>lat.=43.185081, lon.=19.243670, Alt.=904.273926m. Speed=0.000000m/h.</desc>
<speed>0.000000</speed>
</trkpt>
<trkpt lat="43.185081" lon="19.243671">
<ele>904.273926</ele>
<time>2012-04-29T12:14:20Z</time>
<desc>lat.=43.185081, lon.=19.243671, Alt.=904.273926m. Speed=0.000000m/h.</desc>
<speed>0.000000</speed>
</trkpt>
<trkpt lat="43.185081" lon="19.243671">
<ele>904.289551</ele>
<time>2012-04-29T12:14:25Z</time>
<desc>lat.=43.185081, lon.=19.243671, Alt.=904.289551m. Speed=0.000000m/h.</desc>
<speed>0.000000</speed>
</trkpt>
<trkpt lat="43.185081" lon="19.243671">
<ele>904.320801</ele>
<time>2012-04-29T12:14:30Z</time>
<desc>lat.=43.185081, lon.=19.243671, Alt.=904.320801m. Speed=0.000000m/h.</desc>
<speed>0.000000</speed>
</trkpt>
<trkpt lat="43.185081" lon="19.243671">
<ele>904.352051</ele>
<time>2012-04-29T12:14:35Z</time>
<desc>lat.=43.185081, lon.=19.243671, Alt.=904.352051m. Speed=0.000000m/h.</desc>
<speed>0.000000</speed>
</trkpt>
<trkpt lat="43.185081" lon="19.243671">
<ele>904.383301</ele>
<time>2012-04-29T12:14:40Z</time>
<desc>lat.=43.185081, lon.=19.243671, Alt.=904.383301m. Speed=0.000000m/h.</desc>
<speed>0.000000</speed>
</trkpt>
<trkpt lat="43.185081" lon="19.243671">
<ele>904.430176</ele>
<time>2012-04-29T12:14:45Z</time>
<desc>lat.=43.185081, lon.=19.243671, Alt.=904.430176m. Speed=0.000000m/h.</desc>
<speed>0.000000</speed>
</trkpt>
<trkpt lat="43.185081" lon="19.243671">
<ele>904.461426</ele>
<time>2012-04-29T12:14:50Z</time>
<desc>lat.=43.185081, lon.=19.243671, Alt.=904.461426m. Speed=0.000000m/h.</desc>
<speed>0.000000</speed>
</trkpt>
<trkpt lat="43.185081" lon="19.243671">
<ele>904.492676</ele>
<time>2012-04-29T12:14:55Z</time>
<desc>lat.=43.185081, lon.=19.243671, Alt.=904.492676m. Speed=0.000000m/h.</desc>
<speed>0.000000</speed>
</trkpt>
<trkpt lat="43.185081" lon="19.243671">
<ele>904.523926</ele>
<time>2012-04-29T12:15:00Z</time>
<desc>lat.=43.185081, lon.=19.243671, Alt.=904.523926m. Speed=0.000000m/h.</desc>
<speed>0.000000</speed>
</trkpt>
<trkpt lat="43.185081" lon="19.243673">
<ele>904.539551</ele>
<time>2012-04-29T12:15:05Z</time>
<desc>lat.=43.185081, lon.=19.243673, Alt.=904.539551m. Speed=0.000000m/h.</desc>
<speed>0.000000</speed>
</trkpt>
<trkpt lat="43.185081" lon="19.243673">
<ele>904.555176</ele>
<time>2012-04-29T12:15:10Z</time>
<desc>lat.=43.185081, lon.=19.243673, Alt.=904.555176m. Speed=0.000000m/h.</desc>
<speed>0.000000</speed>
</trkpt>
<trkpt lat="43.185081" lon="19.243673">
<ele>904.555176</ele>
<time>2012-04-29T12:15:15Z</time>
<desc>lat.=43.185081, lon.=19.243673, Alt.=904.555176m. Speed=0.000000m/h.</desc>
<speed>0.000000</speed>
</trkpt>
<trkpt lat="43.185081" lon="19.243673">
<ele>904.570801</ele>
<time>2012-04-29T12:15:20Z</time>
<desc>lat.=43.185081, lon.=19.243673, Alt.=904.570801m. Speed=0.000000m/h.</desc>
<speed>0.000000</speed>
</trkpt>
<trkpt lat="43.185081" lon="19.243673">
<ele>904.586426</ele>
<time>2012-04-29T12:15:25Z</time>
<desc>lat.=43.185081, lon.=19.243673, Alt.=904.586426m. Speed=0.000000m/h.</desc>
<speed>0.000000</speed>
</trkpt>
<trkpt lat="43.185081" lon="19.243673">
<ele>904.633301</ele>
<time>2012-04-29T12:15:30Z</time>
<desc>lat.=43.185081, lon.=19.243673, Alt.=904.633301m. Speed=0.000000m/h.</desc>
<speed>0.000000</speed>
</trkpt>
<trkpt lat="43.185081" lon="19.243675">
<ele>904.664551</ele>
<time>2012-04-29T12:15:35Z</time>
<desc>lat.=43.185081, lon.=19.243675, Alt.=904.664551m. Speed=0.000000m/h.</desc>
<speed>0.000000</speed>
</trkpt>
<trkpt lat="43.185081" lon="19.243675">
<ele>904.680176</ele>
<time>2012-04-29T12:15:40Z</time>
<desc>lat.=43.185081, lon.=19.243675, Alt.=904.680176m. Speed=0.000000m/h.</desc>
<speed>0.000000</speed>
</trkpt>
<trkpt lat="43.185081" lon="19.243675">
<ele>904.695801</ele>
<time>2012-04-29T12:15:45Z</time>
<desc>lat.=43.185081, lon.=19.243675, Alt.=904.695801m. Speed=0.000000m/h.</desc>
<speed>0.000000</speed>
</trkpt>
<trkpt lat="43.185081" lon="19.243675">
<ele>904.711426</ele>
<time>2012-04-29T12:15:50Z</time>
<desc>lat.=43.185081, lon.=19.243675, Alt.=904.711426m. Speed=0.000000m/h.</desc>
<speed>0.000000</speed>
</trkpt>
<trkpt lat="43.185081" lon="19.243675">
<ele>904.742676</ele>
<time>2012-04-29T12:15:55Z</time>
<desc>lat.=43.185081, lon.=19.243675, Alt.=904.742676m. Speed=0.000000m/h.</desc>
<speed>0.000000</speed>
</trkpt>
<trkpt lat="43.185081" lon="19.243675">
<ele>904.773926</ele>
<time>2012-04-29T12:16:00Z</time>
<desc>lat.=43.185081, lon.=19.243675, Alt.=904.773926m. Speed=0.000000m/h.</desc>
<speed>0.000000</speed>
</trkpt>
<trkpt lat="43.185081" lon="19.243675">
<ele>904.789551</ele>
<time>2012-04-29T12:16:05Z</time>
<desc>lat.=43.185081, lon.=19.243675, Alt.=904.789551m. Speed=0.000000m/h.</desc>
<speed>0.000000</speed>
</trkpt>
<trkpt lat="43.185081" lon="19.243675">
<ele>904.820801</ele>
<time>2012-04-29T12:16:10Z</time>
<desc>lat.=43.185081, lon.=19.243675, Alt.=904.820801m. Speed=0.000000m/h.</desc>
<speed>0.000000</speed>
</trkpt>
<trkpt lat="43.185081" lon="19.243677">
<ele>904.852051</ele>
<time>2012-04-29T12:16:15Z</time>
<desc>lat.=43.185081, lon.=19.243677, Alt.=904.852051m. Speed=0.000000m/h.</desc>
<speed>0.000000</speed>
</trkpt>
<trkpt lat="43.185081" lon="19.243677">
<ele>904.883301</ele>
<time>2012-04-29T12:16:20Z</time>
<desc>lat.=43.185081, lon.=19.243677, Alt.=904.883301m. Speed=0.000000m/h.</desc>
<speed>0.000000</speed>
</trkpt>
<trkpt lat="43.185081" lon="19.243677">
<ele>904.914551</ele>
<time>2012-04-29T12:16:25Z</time>
<desc>lat.=43.185081, lon.=19.243677, Alt.=904.914551m. Speed=0.000000m/h.</desc>
<speed>0.000000</speed>
</trkpt>
<trkpt lat="43.185081" lon="19.243677">
<ele>904.961426</ele>
<time>2012-04-29T12:16:30Z</time>
<desc>lat.=43.185081, lon.=19.243677, Alt.=904.961426m. Speed=0.000000m/h.</desc>
<speed>0.000000</speed>
</trkpt>
<trkpt lat="43.185081" lon="19.243677">
<ele>905.008301</ele>
<time>2012-04-29T12:16:35Z</time>
<desc>lat.=43.185081, lon.=19.243677, Alt.=905.008301m. Speed=0.000000m/h.</desc>
<speed>0.000000</speed>
</trkpt>
<trkpt lat="43.185081" lon="19.243677">
<ele>905.039551</ele>
<time>2012-04-29T12:16:40Z</time>
<desc>lat.=43.185081, lon.=19.243677, Alt.=905.039551m. Speed=0.000000m/h.</desc>
<speed>0.000000</speed>
</trkpt>
<trkpt lat="43.185081" lon="19.243677">
<ele>905.086426</ele>
<time>2012-04-29T12:16:45Z</time>
<desc>lat.=43.185081, lon.=19.243677, Alt.=905.086426m. Speed=0.000000m/h.</desc>
<speed>0.000000</speed>
</trkpt>
<trkpt lat="43.185081" lon="19.243677">
<ele>905.117676</ele>
<time>2012-04-29T12:16:50Z</time>
<desc>lat.=43.185081, lon.=19.243677, Alt.=905.117676m. Speed=0.036000m/h.</desc>
<speed>0.010000</speed>
</trkpt>
<trkpt lat="43.185081" lon="19.243677">
<ele>905.180176</ele>
<time>2012-04-29T12:16:55Z</time>
<desc>lat.=43.185081, lon.=19.243677, Alt.=905.180176m. Speed=0.000000m/h.</desc>
<speed>0.000000</speed>
</trkpt>
<trkpt lat="43.185081" lon="19.243677">
<ele>905.211426</ele>
<time>2012-04-29T12:17:00Z</time>
<desc>lat.=43.185081, lon.=19.243677, Alt.=905.211426m. Speed=0.000000m/h.</desc>
<speed>0.000000</speed>
</trkpt>
<trkpt lat="43.185081" lon="19.243677">
<ele>905.242676</ele>
<time>2012-04-29T12:17:05Z</time>
<desc>lat.=43.185081, lon.=19.243677, Alt.=905.242676m. Speed=0.036000m/h.</desc>
<speed>0.010000</speed>
</trkpt>
<trkpt lat="43.185081" lon="19.243677">
<ele>905.273926</ele>
<time>2012-04-29T12:17:10Z</time>
<desc>lat.=43.185081, lon.=19.243677, Alt.=905.273926m. Speed=0.000000m/h.</desc>
<speed>0.000000</speed>
</trkpt>
<trkpt lat="43.185081" lon="19.243677">
<ele>905.305176</ele>
<time>2012-04-29T12:17:15Z</time>
<desc>lat.=43.185081, lon.=19.243677, Alt.=905.305176m. Speed=0.000000m/h.</desc>
<speed>0.000000</speed>
</trkpt>
<trkpt lat="43.185081" lon="19.243677">
<ele>905.336426</ele>
<time>2012-04-29T12:17:20Z</time>
<desc>lat.=43.185081, lon.=19.243677, Alt.=905.336426m. Speed=0.000000m/h.</desc>
<speed>0.000000</speed>
</trkpt>
<trkpt lat="43.185081" lon="19.243677">
<ele>905.367676</ele>
<time>2012-04-29T12:17:25Z</time>
<desc>lat.=43.185081, lon.=19.243677, Alt.=905.367676m. Speed=0.036000m/h.</desc>
<speed>0.010000</speed>
</trkpt>
<trkpt lat="43.185081" lon="19.243677">
<ele>905.383301</ele>
<time>2012-04-29T12:17:30Z</time>
<desc>lat.=43.185081, lon.=19.243677, Alt.=905.383301m. Speed=0.000000m/h.</desc>
<speed>0.000000</speed>
</trkpt>
<trkpt lat="43.185081" lon="19.243677">
<ele>905.414551</ele>
<time>2012-04-29T12:17:35Z</time>
<desc>lat.=43.185081, lon.=19.243677, Alt.=905.414551m. Speed=0.000000m/h.</desc>
<speed>0.000000</speed>
</trkpt>
<trkpt lat="43.185081" lon="19.243677">
<ele>905.445801</ele>
<time>2012-04-29T12:17:40Z</time>
<desc>lat.=43.185081, lon.=19.243677, Alt.=905.445801m. Speed=0.036000m/h.</desc>
<speed>0.010000</speed>
</trkpt>
<trkpt lat="43.185081" lon="19.243677">
<ele>905.461426</ele>
<time>2012-04-29T12:17:45Z</time>
<desc>lat.=43.185081, lon.=19.243677, Alt.=905.461426m. Speed=0.000000m/h.</desc>
<speed>0.000000</speed>
</trkpt>
<trkpt lat="43.185081" lon="19.243677">
<ele>905.492676</ele>
<time>2012-04-29T12:17:50Z</time>
<desc>lat.=43.185081, lon.=19.243677, Alt.=905.492676m. Speed=0.036000m/h.</desc>
<speed>0.010000</speed>
</trkpt>
<trkpt lat="43.185081" lon="19.243679">
<ele>905.523926</ele>
<time>2012-04-29T12:17:55Z</time>
<desc>lat.=43.185081, lon.=19.243679, Alt.=905.523926m. Speed=0.000000m/h.</desc>
<speed>0.000000</speed>
</trkpt>
<trkpt lat="43.185081" lon="19.243679">
<ele>905.555176</ele>
<time>2012-04-29T12:18:00Z</time>
<desc>lat.=43.185081, lon.=19.243679, Alt.=905.555176m. Speed=0.000000m/h.</desc>
<speed>0.000000</speed>
</trkpt>
<trkpt lat="43.185081" lon="19.243679">
<ele>905.586426</ele>
<time>2012-04-29T12:18:05Z</time>
<desc>lat.=43.185081, lon.=19.243679, Alt.=905.586426m. Speed=0.000000m/h.</desc>
<speed>0.000000</speed>
</trkpt>
<trkpt lat="43.185081" lon="19.243679">
<ele>905.602051</ele>
<time>2012-04-29T12:18:10Z</time>
<desc>lat.=43.185081, lon.=19.243679, Alt.=905.602051m. Speed=0.000000m/h.</desc>
<speed>0.000000</speed>
</trkpt>
<trkpt lat="43.185078" lon="19.243679">
<ele>905.648926</ele>
<time>2012-04-29T12:18:15Z</time>
<desc>lat.=43.185078, lon.=19.243679, Alt.=905.648926m. Speed=0.000000m/h.</desc>
<speed>0.000000</speed>
</trkpt>
<trkpt lat="43.185081" lon="19.243679">
<ele>905.680176</ele>
<time>2012-04-29T12:18:20Z</time>
<desc>lat.=43.185081, lon.=19.243679, Alt.=905.680176m. Speed=0.000000m/h.</desc>
<speed>0.000000</speed>
</trkpt>
<trkpt lat="43.185078" lon="19.243679">
<ele>905.711426</ele>
<time>2012-04-29T12:18:25Z</time>
<desc>lat.=43.185078, lon.=19.243679, Alt.=905.711426m. Speed=0.000000m/h.</desc>
<speed>0.000000</speed>
</trkpt>
<trkpt lat="43.185078" lon="19.243679">
<ele>905.742676</ele>
<time>2012-04-29T12:18:30Z</time>
<desc>lat.=43.185078, lon.=19.243679, Alt.=905.742676m. Speed=0.000000m/h.</desc>
<speed>0.000000</speed>
</trkpt>
<trkpt lat="43.185078" lon="19.243679">
<ele>905.773926</ele>
<time>2012-04-29T12:18:35Z</time>
<desc>lat.=43.185078, lon.=19.243679, Alt.=905.773926m. Speed=0.000000m/h.</desc>
<speed>0.000000</speed>
</trkpt>
<trkpt lat="43.185081" lon="19.243679">
<ele>905.789551</ele>
<time>2012-04-29T12:18:40Z</time>
<desc>lat.=43.185081, lon.=19.243679, Alt.=905.789551m. Speed=0.000000m/h.</desc>
<speed>0.000000</speed>
</trkpt>
<trkpt lat="43.185078" lon="19.243679">
<ele>905.820801</ele>
<time>2012-04-29T12:18:45Z</time>
<desc>lat.=43.185078, lon.=19.243679, Alt.=905.820801m. Speed=0.036000m/h.</desc>
<speed>0.010000</speed>
</trkpt>
<trkpt lat="43.185078" lon="19.243679">
<ele>905.852051</ele>
<time>2012-04-29T12:18:50Z</time>
<desc>lat.=43.185078, lon.=19.243679, Alt.=905.852051m. Speed=0.000000m/h.</desc>
<speed>0.000000</speed>
</trkpt>
<trkpt lat="43.185078" lon="19.243679">
<ele>905.898926</ele>
<time>2012-04-29T12:18:55Z</time>
<desc>lat.=43.185078, lon.=19.243679, Alt.=905.898926m. Speed=0.000000m/h.</desc>
<speed>0.000000</speed>
</trkpt>
<trkpt lat="43.185078" lon="19.243679">
<ele>905.914551</ele>
<time>2012-04-29T12:19:00Z</time>
<desc>lat.=43.185078, lon.=19.243679, Alt.=905.914551m. Speed=0.000000m/h.</desc>
<speed>0.000000</speed>
</trkpt>
<trkpt lat="43.185078" lon="19.243679">
<ele>905.945801</ele>
<time>2012-04-29T12:19:05Z</time>
<desc>lat.=43.185078, lon.=19.243679, Alt.=905.945801m. Speed=0.000000m/h.</desc>
<speed>0.000000</speed>
</trkpt>
<trkpt lat="43.185078" lon="19.243679">
<ele>905.977051</ele>
<time>2012-04-29T12:19:10Z</time>
<desc>lat.=43.185078, lon.=19.243679, Alt.=905.977051m. Speed=0.000000m/h.</desc>
<speed>0.000000</speed>
</trkpt>
<trkpt lat="43.185081" lon="19.243679">
<ele>905.992676</ele>
<time>2012-04-29T12:19:15Z</time>
<desc>lat.=43.185081, lon.=19.243679, Alt.=905.992676m. Speed=0.000000m/h.</desc>
<speed>0.000000</speed>
</trkpt>
<trkpt lat="43.185081" lon="19.243679">
<ele>906.008301</ele>
<time>2012-04-29T12:19:20Z</time>
<desc>lat.=43.185081, lon.=19.243679, Alt.=906.008301m. Speed=0.000000m/h.</desc>
<speed>0.000000</speed>
</trkpt>
<trkpt lat="43.185081" lon="19.243679">
<ele>906.039551</ele>
<time>2012-04-29T12:19:25Z</time>
<desc>lat.=43.185081, lon.=19.243679, Alt.=906.039551m. Speed=0.000000m/h.</desc>
<speed>0.000000</speed>
</trkpt>
<trkpt lat="43.185081" lon="19.243679">
<ele>906.070801</ele>
<time>2012-04-29T12:19:30Z</time>
<desc>lat.=43.185081, lon.=19.243679, Alt.=906.070801m. Speed=0.000000m/h.</desc>
<speed>0.000000</speed>
</trkpt>
<trkpt lat="43.185081" lon="19.243679">
<ele>906.086426</ele>
<time>2012-04-29T12:19:35Z</time>
<desc>lat.=43.185081, lon.=19.243679, Alt.=906.086426m. Speed=0.000000m/h.</desc>
<speed>0.000000</speed>
</trkpt>
<trkpt lat="43.185078" lon="19.243679">
<ele>906.117676</ele>
<time>2012-04-29T12:19:40Z</time>
<desc>lat.=43.185078, lon.=19.243679, Alt.=906.117676m. Speed=0.000000m/h.</desc>
<speed>0.000000</speed>
</trkpt>
<trkpt lat="43.185078" lon="19.243679">
<ele>906.148926</ele>
<time>2012-04-29T12:19:45Z</time>
<desc>lat.=43.185078, lon.=19.243679, Alt.=906.148926m. Speed=0.000000m/h.</desc>
<speed>0.000000</speed>
</trkpt>
<trkpt lat="43.185078" lon="19.243679">
<ele>906.148926</ele>
<time>2012-04-29T12:19:50Z</time>
<desc>lat.=43.185078, lon.=19.243679, Alt.=906.148926m. Speed=0.000000m/h.</desc>
<speed>0.000000</speed>
</trkpt>
<trkpt lat="43.185078" lon="19.243679">
<ele>906.164551</ele>
<time>2012-04-29T12:19:55Z</time>
<desc>lat.=43.185078, lon.=19.243679, Alt.=906.164551m. Speed=0.000000m/h.</desc>
<speed>0.000000</speed>
</trkpt>
<trkpt lat="43.185078" lon="19.243679">
<ele>906.195801</ele>
<time>2012-04-29T12:20:00Z</time>
<desc>lat.=43.185078, lon.=19.243679, Alt.=906.195801m. Speed=0.000000m/h.</desc>
<speed>0.000000</speed>
</trkpt>
<trkpt lat="43.185078" lon="19.243681">
<ele>906.211426</ele>
<time>2012-04-29T12:20:05Z</time>
<desc>lat.=43.185078, lon.=19.243681, Alt.=906.211426m. Speed=0.000000m/h.</desc>
<speed>0.000000</speed>
</trkpt>
<trkpt lat="43.185078" lon="19.243681">
<ele>906.242676</ele>
<time>2012-04-29T12:20:10Z</time>
<desc>lat.=43.185078, lon.=19.243681, Alt.=906.242676m. Speed=0.000000m/h.</desc>
<speed>0.000000</speed>
</trkpt>
<trkpt lat="43.185078" lon="19.243681">
<ele>906.273926</ele>
<time>2012-04-29T12:20:15Z</time>
<desc>lat.=43.185078, lon.=19.243681, Alt.=906.273926m. Speed=0.000000m/h.</desc>
<speed>0.000000</speed>
</trkpt>
<trkpt lat="43.185078" lon="19.243681">
<ele>906.289551</ele>
<time>2012-04-29T12:20:20Z</time>
<desc>lat.=43.185078, lon.=19.243681, Alt.=906.289551m. Speed=0.000000m/h.</desc>
<speed>0.000000</speed>
</trkpt>
<trkpt lat="43.185078" lon="19.243681">
<ele>906.305176</ele>
<time>2012-04-29T12:20:25Z</time>
<desc>lat.=43.185078, lon.=19.243681, Alt.=906.305176m. Speed=0.000000m/h.</desc>
<speed>0.000000</speed>
</trkpt>
<trkpt lat="43.185078" lon="19.243681">
<ele>906.320801</ele>
<time>2012-04-29T12:20:30Z</time>
<desc>lat.=43.185078, lon.=19.243681, Alt.=906.320801m. Speed=0.000000m/h.</desc>
<speed>0.000000</speed>
</trkpt>
<trkpt lat="43.185078" lon="19.243681">
<ele>906.336426</ele>
<time>2012-04-29T12:20:35Z</time>
<desc>lat.=43.185078, lon.=19.243681, Alt.=906.336426m. Speed=0.000000m/h.</desc>
<speed>0.000000</speed>
</trkpt>
<trkpt lat="43.185081" lon="19.243681">
<ele>906.367676</ele>
<time>2012-04-29T12:20:40Z</time>
<desc>lat.=43.185081, lon.=19.243681, Alt.=906.367676m. Speed=0.000000m/h.</desc>
<speed>0.000000</speed>
</trkpt>
<trkpt lat="43.185081" lon="19.243681">
<ele>906.398926</ele>
<time>2012-04-29T12:20:45Z</time>
<desc>lat.=43.185081, lon.=19.243681, Alt.=906.398926m. Speed=0.000000m/h.</desc>
<speed>0.000000</speed>
</trkpt>
<trkpt lat="43.185081" lon="19.243681">
<ele>906.430176</ele>
<time>2012-04-29T12:20:50Z</time>
<desc>lat.=43.185081, lon.=19.243681, Alt.=906.430176m. Speed=0.036000m/h.</desc>
<speed>0.010000</speed>
</trkpt>
<trkpt lat="43.185081" lon="19.243681">
<ele>906.461426</ele>
<time>2012-04-29T12:20:55Z</time>
<desc>lat.=43.185081, lon.=19.243681, Alt.=906.461426m. Speed=0.000000m/h.</desc>
<speed>0.000000</speed>
</trkpt>
<trkpt lat="43.185081" lon="19.243681">
<ele>906.492676</ele>
<time>2012-04-29T12:21:00Z</time>
<desc>lat.=43.185081, lon.=19.243681, Alt.=906.492676m. Speed=0.000000m/h.</desc>
<speed>0.000000</speed>
</trkpt>
<trkpt lat="43.185081" lon="19.243681">
<ele>906.523926</ele>
<time>2012-04-29T12:21:05Z</time>
<desc>lat.=43.185081, lon.=19.243681, Alt.=906.523926m. Speed=0.000000m/h.</desc>
<speed>0.000000</speed>
</trkpt>
<trkpt lat="43.185081" lon="19.243681">
<ele>906.539551</ele>
<time>2012-04-29T12:21:10Z</time>
<desc>lat.=43.185081, lon.=19.243681, Alt.=906.539551m. Speed=0.000000m/h.</desc>
<speed>0.000000</speed>
</trkpt>
<trkpt lat="43.185081" lon="19.243681">
<ele>906.555176</ele>
<time>2012-04-29T12:21:15Z</time>
<desc>lat.=43.185081, lon.=19.243681, Alt.=906.555176m. Speed=0.000000m/h.</desc>
<speed>0.000000</speed>
</trkpt>
<trkpt lat="43.185078" lon="19.243681">
<ele>906.570801</ele>
<time>2012-04-29T12:21:20Z</time>
<desc>lat.=43.185078, lon.=19.243681, Alt.=906.570801m. Speed=0.000000m/h.</desc>
<speed>0.000000</speed>
</trkpt>
<trkpt lat="43.185078" lon="19.243681">
<ele>906.586426</ele>
<time>2012-04-29T12:21:25Z</time>
<desc>lat.=43.185078, lon.=19.243681, Alt.=906.586426m. Speed=0.000000m/h.</desc>
<speed>0.000000</speed>
</trkpt>
<trkpt lat="43.185078" lon="19.243683">
<ele>906.602051</ele>
<time>2012-04-29T12:21:30Z</time>
<desc>lat.=43.185078, lon.=19.243683, Alt.=906.602051m. Speed=0.000000m/h.</desc>
<speed>0.000000</speed>
</trkpt>
<trkpt lat="43.185078" lon="19.243683">
<ele>906.617676</ele>
<time>2012-04-29T12:21:35Z</time>
<desc>lat.=43.185078, lon.=19.243683, Alt.=906.617676m. Speed=0.000000m/h.</desc>
<speed>0.000000</speed>
</trkpt>
<trkpt lat="43.185078" lon="19.243683">
<ele>906.617676</ele>
<time>2012-04-29T12:21:40Z</time>
<desc>lat.=43.185078, lon.=19.243683, Alt.=906.617676m. Speed=0.000000m/h.</desc>
<speed>0.000000</speed>
</trkpt>
<trkpt lat="43.185078" lon="19.243683">
<ele>906.633301</ele>
<time>2012-04-29T12:21:45Z</time>
<desc>lat.=43.185078, lon.=19.243683, Alt.=906.633301m. Speed=0.000000m/h.</desc>
<speed>0.000000</speed>
</trkpt>
<trkpt lat="43.185078" lon="19.243683">
<ele>906.664551</ele>
<time>2012-04-29T12:21:50Z</time>
<desc>lat.=43.185078, lon.=19.243683, Alt.=906.664551m. Speed=0.000000m/h.</desc>
<speed>0.000000</speed>
</trkpt>
<trkpt lat="43.185078" lon="19.243683">
<ele>906.680176</ele>
<time>2012-04-29T12:21:55Z</time>
<desc>lat.=43.185078, lon.=19.243683, Alt.=906.680176m. Speed=0.000000m/h.</desc>
<speed>0.000000</speed>
</trkpt>
<trkpt lat="43.185078" lon="19.243683">
<ele>906.711426</ele>
<time>2012-04-29T12:22:00Z</time>
<desc>lat.=43.185078, lon.=19.243683, Alt.=906.711426m. Speed=0.036000m/h.</desc>
<speed>0.010000</speed>
</trkpt>
<trkpt lat="43.185078" lon="19.243683">
<ele>906.727051</ele>
<time>2012-04-29T12:22:05Z</time>
<desc>lat.=43.185078, lon.=19.243683, Alt.=906.727051m. Speed=0.000000m/h.</desc>
<speed>0.000000</speed>
</trkpt>
<trkpt lat="43.185078" lon="19.243683">
<ele>906.727051</ele>
<time>2012-04-29T12:22:10Z</time>
<desc>lat.=43.185078, lon.=19.243683, Alt.=906.727051m. Speed=0.000000m/h.</desc>
<speed>0.000000</speed>
</trkpt>
<trkpt lat="43.185078" lon="19.243683">
<ele>906.727051</ele>
<time>2012-04-29T12:22:15Z</time>
<desc>lat.=43.185078, lon.=19.243683, Alt.=906.727051m. Speed=0.000000m/h.</desc>
<speed>0.000000</speed>
</trkpt>
<trkpt lat="43.185078" lon="19.243683">
<ele>906.742676</ele>
<time>2012-04-29T12:22:20Z</time>
<desc>lat.=43.185078, lon.=19.243683, Alt.=906.742676m. Speed=0.000000m/h.</desc>
<speed>0.000000</speed>
</trkpt>
<trkpt lat="43.185078" lon="19.243685">
<ele>906.742676</ele>
<time>2012-04-29T12:22:25Z</time>
<desc>lat.=43.185078, lon.=19.243685, Alt.=906.742676m. Speed=0.036000m/h.</desc>
<speed>0.010000</speed>
</trkpt>
<trkpt lat="43.185078" lon="19.243685">
<ele>906.758301</ele>
<time>2012-04-29T12:22:30Z</time>
<desc>lat.=43.185078, lon.=19.243685, Alt.=906.758301m. Speed=0.000000m/h.</desc>
<speed>0.000000</speed>
</trkpt>
<trkpt lat="43.185078" lon="19.243685">
<ele>906.742676</ele>
<time>2012-04-29T12:22:35Z</time>
<desc>lat.=43.185078, lon.=19.243685, Alt.=906.742676m. Speed=0.000000m/h.</desc>
<speed>0.000000</speed>
</trkpt>
<trkpt lat="43.185078" lon="19.243685">
<ele>906.742676</ele>
<time>2012-04-29T12:22:40Z</time>
<desc>lat.=43.185078, lon.=19.243685, Alt.=906.742676m. Speed=0.000000m/h.</desc>
<speed>0.000000</speed>
</trkpt>
<trkpt lat="43.185078" lon="19.243685">
<ele>906.742676</ele>
<time>2012-04-29T12:22:45Z</time>
<desc>lat.=43.185078, lon.=19.243685, Alt.=906.742676m. Speed=0.000000m/h.</desc>
<speed>0.000000</speed>
</trkpt>
<trkpt lat="43.185078" lon="19.243685">
<ele>906.742676</ele>
<time>2012-04-29T12:22:50Z</time>
<desc>lat.=43.185078, lon.=19.243685, Alt.=906.742676m. Speed=0.000000m/h.</desc>
<speed>0.000000</speed>
</trkpt>
<trkpt lat="43.185078" lon="19.243685">
<ele>906.742676</ele>
<time>2012-04-29T12:22:55Z</time>
<desc>lat.=43.185078, lon.=19.243685, Alt.=906.742676m. Speed=0.000000m/h.</desc>
<speed>0.000000</speed>
</trkpt>
<trkpt lat="43.185078" lon="19.243685">
<ele>906.727051</ele>
<time>2012-04-29T12:23:00Z</time>
<desc>lat.=43.185078, lon.=19.243685, Alt.=906.727051m. Speed=0.000000m/h.</desc>
<speed>0.000000</speed>
</trkpt>
<trkpt lat="43.185078" lon="19.243685">
<ele>906.727051</ele>
<time>2012-04-29T12:23:05Z</time>
<desc>lat.=43.185078, lon.=19.243685, Alt.=906.727051m. Speed=0.000000m/h.</desc>
<speed>0.000000</speed>
</trkpt>
<trkpt lat="43.185078" lon="19.243685">
<ele>906.695801</ele>
<time>2012-04-29T12:23:10Z</time>
<desc>lat.=43.185078, lon.=19.243685, Alt.=906.695801m. Speed=0.000000m/h.</desc>
<speed>0.000000</speed>
</trkpt>
<trkpt lat="43.185078" lon="19.243685">
<ele>906.695801</ele>
<time>2012-04-29T12:23:15Z</time>
<desc>lat.=43.185078, lon.=19.243685, Alt.=906.695801m. Speed=0.000000m/h.</desc>
<speed>0.000000</speed>
</trkpt>
<trkpt lat="43.185078" lon="19.243685">
<ele>906.680176</ele>
<time>2012-04-29T12:23:20Z</time>
<desc>lat.=43.185078, lon.=19.243685, Alt.=906.680176m. Speed=0.000000m/h.</desc>
<speed>0.000000</speed>
</trkpt>
<trkpt lat="43.185078" lon="19.243685">
<ele>906.680176</ele>
<time>2012-04-29T12:23:25Z</time>
<desc>lat.=43.185078, lon.=19.243685, Alt.=906.680176m. Speed=0.000000m/h.</desc>
<speed>0.000000</speed>
</trkpt>
<trkpt lat="43.185078" lon="19.243685">
<ele>906.680176</ele>
<time>2012-04-29T12:23:30Z</time>
<desc>lat.=43.185078, lon.=19.243685, Alt.=906.680176m. Speed=0.000000m/h.</desc>
<speed>0.000000</speed>
</trkpt>
<trkpt lat="43.185078" lon="19.243685">
<ele>906.680176</ele>
<time>2012-04-29T12:23:35Z</time>
<desc>lat.=43.185078, lon.=19.243685, Alt.=906.680176m. Speed=0.000000m/h.</desc>
<speed>0.000000</speed>
</trkpt>
<trkpt lat="43.185078" lon="19.243685">
<ele>906.695801</ele>
<time>2012-04-29T12:23:40Z</time>
<desc>lat.=43.185078, lon.=19.243685, Alt.=906.695801m. Speed=0.036000m/h.</desc>
<speed>0.010000</speed>
</trkpt>
<trkpt lat="43.185078" lon="19.243685">
<ele>906.695801</ele>
<time>2012-04-29T12:23:45Z</time>
<desc>lat.=43.185078, lon.=19.243685, Alt.=906.695801m. Speed=0.000000m/h.</desc>
<speed>0.000000</speed>
</trkpt>
<trkpt lat="43.185078" lon="19.243685">
<ele>906.711426</ele>
<time>2012-04-29T12:23:50Z</time>
<desc>lat.=43.185078, lon.=19.243685, Alt.=906.711426m. Speed=0.036000m/h.</desc>
<speed>0.010000</speed>
</trkpt>
<trkpt lat="43.185078" lon="19.243685">
<ele>906.727051</ele>
<time>2012-04-29T12:23:55Z</time>
<desc>lat.=43.185078, lon.=19.243685, Alt.=906.727051m. Speed=0.000000m/h.</desc>
<speed>0.000000</speed>
</trkpt>
<trkpt lat="43.185078" lon="19.243687">
<ele>906.742676</ele>
<time>2012-04-29T12:24:00Z</time>
<desc>lat.=43.185078, lon.=19.243687, Alt.=906.742676m. Speed=0.000000m/h.</desc>
<speed>0.000000</speed>
</trkpt>
<trkpt lat="43.185078" lon="19.243687">
<ele>906.758301</ele>
<time>2012-04-29T12:24:05Z</time>
<desc>lat.=43.185078, lon.=19.243687, Alt.=906.758301m. Speed=0.000000m/h.</desc>
<speed>0.000000</speed>
</trkpt>
<trkpt lat="43.185078" lon="19.243687">
<ele>906.773926</ele>
<time>2012-04-29T12:24:10Z</time>
<desc>lat.=43.185078, lon.=19.243687, Alt.=906.773926m. Speed=0.000000m/h.</desc>
<speed>0.000000</speed>
</trkpt>
<trkpt lat="43.185078" lon="19.243687">
<ele>906.773926</ele>
<time>2012-04-29T12:24:15Z</time>
<desc>lat.=43.185078, lon.=19.243687, Alt.=906.773926m. Speed=0.000000m/h.</desc>
<speed>0.000000</speed>
</trkpt>
<trkpt lat="43.185078" lon="19.243685">
<ele>906.758301</ele>
<time>2012-04-29T12:24:20Z</time>
<desc>lat.=43.185078, lon.=19.243685, Alt.=906.758301m. Speed=0.000000m/h.</desc>
<speed>0.000000</speed>
</trkpt>
<trkpt lat="43.185078" lon="19.243685">
<ele>906.758301</ele>
<time>2012-04-29T12:24:25Z</time>
<desc>lat.=43.185078, lon.=19.243685, Alt.=906.758301m. Speed=0.000000m/h.</desc>
<speed>0.000000</speed>
</trkpt>
<trkpt lat="43.185078" lon="19.243685">
<ele>906.758301</ele>
<time>2012-04-29T12:24:30Z</time>
<desc>lat.=43.185078, lon.=19.243685, Alt.=906.758301m. Speed=0.036000m/h.</desc>
<speed>0.010000</speed>
</trkpt>
<trkpt lat="43.185078" lon="19.243685">
<ele>906.758301</ele>
<time>2012-04-29T12:24:35Z</time>
<desc>lat.=43.185078, lon.=19.243685, Alt.=906.758301m. Speed=0.000000m/h.</desc>
<speed>0.000000</speed>
</trkpt>
<trkpt lat="43.185078" lon="19.243685">
<ele>906.805176</ele>
<time>2012-04-29T12:24:40Z</time>
<desc>lat.=43.185078, lon.=19.243685, Alt.=906.805176m. Speed=0.036000m/h.</desc>
<speed>0.010000</speed>
</trkpt>
<trkpt lat="43.185078" lon="19.243687">
<ele>906.836426</ele>
<time>2012-04-29T12:24:45Z</time>
<desc>lat.=43.185078, lon.=19.243687, Alt.=906.836426m. Speed=0.000000m/h.</desc>
<speed>0.000000</speed>
</trkpt>
<trkpt lat="43.185078" lon="19.243687">
<ele>906.883301</ele>
<time>2012-04-29T12:24:50Z</time>
<desc>lat.=43.185078, lon.=19.243687, Alt.=906.883301m. Speed=0.000000m/h.</desc>
<speed>0.000000</speed>
</trkpt>
<trkpt lat="43.185078" lon="19.243687">
<ele>906.930176</ele>
<time>2012-04-29T12:24:55Z</time>
<desc>lat.=43.185078, lon.=19.243687, Alt.=906.930176m. Speed=0.000000m/h.</desc>
<speed>0.000000</speed>
</trkpt>
<trkpt lat="43.185078" lon="19.243687">
<ele>906.977051</ele>
<time>2012-04-29T12:25:00Z</time>
<desc>lat.=43.185078, lon.=19.243687, Alt.=906.977051m. Speed=0.000000m/h.</desc>
<speed>0.000000</speed>
</trkpt>
<trkpt lat="43.185078" lon="19.243687">
<ele>907.008301</ele>
<time>2012-04-29T12:25:05Z</time>
<desc>lat.=43.185078, lon.=19.243687, Alt.=907.008301m. Speed=0.000000m/h.</desc>
<speed>0.000000</speed>
</trkpt>
<trkpt lat="43.185078" lon="19.243687">
<ele>907.055176</ele>
<time>2012-04-29T12:25:10Z</time>
<desc>lat.=43.185078, lon.=19.243687, Alt.=907.055176m. Speed=0.000000m/h.</desc>
<speed>0.000000</speed>
</trkpt>
<trkpt lat="43.185078" lon="19.243687">
<ele>907.086426</ele>
<time>2012-04-29T12:25:15Z</time>
<desc>lat.=43.185078, lon.=19.243687, Alt.=907.086426m. Speed=0.036000m/h.</desc>
<speed>0.010000</speed>
</trkpt>
<trkpt lat="43.185078" lon="19.243687">
<ele>907.117676</ele>
<time>2012-04-29T12:25:20Z</time>
<desc>lat.=43.185078, lon.=19.243687, Alt.=907.117676m. Speed=0.000000m/h.</desc>
<speed>0.000000</speed>
</trkpt>
<trkpt lat="43.185078" lon="19.243689">
<ele>907.133301</ele>
<time>2012-04-29T12:25:25Z</time>
<desc>lat.=43.185078, lon.=19.243689, Alt.=907.133301m. Speed=0.000000m/h.</desc>
<speed>0.000000</speed>
</trkpt>
<trkpt lat="43.185078" lon="19.243687">
<ele>907.148926</ele>
<time>2012-04-29T12:25:30Z</time>
<desc>lat.=43.185078, lon.=19.243687, Alt.=907.148926m. Speed=0.000000m/h.</desc>
<speed>0.000000</speed>
</trkpt>
<trkpt lat="43.185078" lon="19.243689">
<ele>907.164551</ele>
<time>2012-04-29T12:25:35Z</time>
<desc>lat.=43.185078, lon.=19.243689, Alt.=907.164551m. Speed=0.000000m/h.</desc>
<speed>0.000000</speed>
</trkpt>
<trkpt lat="43.185078" lon="19.243689">
<ele>907.148926</ele>
<time>2012-04-29T12:25:40Z</time>
<desc>lat.=43.185078, lon.=19.243689, Alt.=907.148926m. Speed=0.000000m/h.</desc>
<speed>0.000000</speed>
</trkpt>
<trkpt lat="43.185078" lon="19.243689">
<ele>907.148926</ele>
<time>2012-04-29T12:25:45Z</time>
<desc>lat.=43.185078, lon.=19.243689, Alt.=907.148926m. Speed=0.000000m/h.</desc>
<speed>0.000000</speed>
</trkpt>
<trkpt lat="43.185078" lon="19.243689">
<ele>907.133301</ele>
<time>2012-04-29T12:25:50Z</time>
<desc>lat.=43.185078, lon.=19.243689, Alt.=907.133301m. Speed=0.000000m/h.</desc>
<speed>0.000000</speed>
</trkpt>
<trkpt lat="43.185078" lon="19.243689">
<ele>907.133301</ele>
<time>2012-04-29T12:25:55Z</time>
<desc>lat.=43.185078, lon.=19.243689, Alt.=907.133301m. Speed=0.000000m/h.</desc>
<speed>0.000000</speed>
</trkpt>
<trkpt lat="43.185078" lon="19.243689">
<ele>907.133301</ele>
<time>2012-04-29T12:26:00Z</time>
<desc>lat.=43.185078, lon.=19.243689, Alt.=907.133301m. Speed=0.000000m/h.</desc>
<speed>0.000000</speed>
</trkpt>
<trkpt lat="43.185078" lon="19.243689">
<ele>907.133301</ele>
<time>2012-04-29T12:26:05Z</time>
<desc>lat.=43.185078, lon.=19.243689, Alt.=907.133301m. Speed=0.000000m/h.</desc>
<speed>0.000000</speed>
</trkpt>
<trkpt lat="43.185078" lon="19.243689">
<ele>907.133301</ele>
<time>2012-04-29T12:26:10Z</time>
<desc>lat.=43.185078, lon.=19.243689, Alt.=907.133301m. Speed=0.036000m/h.</desc>
<speed>0.010000</speed>
</trkpt>
<trkpt lat="43.185078" lon="19.243689">
<ele>907.148926</ele>
<time>2012-04-29T12:26:15Z</time>
<desc>lat.=43.185078, lon.=19.243689, Alt.=907.148926m. Speed=0.000000m/h.</desc>
<speed>0.000000</speed>
</trkpt>
<trkpt lat="43.185078" lon="19.243689">
<ele>907.148926</ele>
<time>2012-04-29T12:26:20Z</time>
<desc>lat.=43.185078, lon.=19.243689, Alt.=907.148926m. Speed=0.000000m/h.</desc>
<speed>0.000000</speed>
</trkpt>
<trkpt lat="43.185078" lon="19.243689">
<ele>907.148926</ele>
<time>2012-04-29T12:26:25Z</time>
<desc>lat.=43.185078, lon.=19.243689, Alt.=907.148926m. Speed=0.000000m/h.</desc>
<speed>0.000000</speed>
</trkpt>
<trkpt lat="43.185078" lon="19.243689">
<ele>907.133301</ele>
<time>2012-04-29T12:26:30Z</time>
<desc>lat.=43.185078, lon.=19.243689, Alt.=907.133301m. Speed=0.000000m/h.</desc>
<speed>0.000000</speed>
</trkpt>
<trkpt lat="43.185078" lon="19.243689">
<ele>907.117676</ele>
<time>2012-04-29T12:26:35Z</time>
<desc>lat.=43.185078, lon.=19.243689, Alt.=907.117676m. Speed=0.000000m/h.</desc>
<speed>0.000000</speed>
</trkpt>
<trkpt lat="43.185078" lon="19.243689">
<ele>907.117676</ele>
<time>2012-04-29T12:26:40Z</time>
<desc>lat.=43.185078, lon.=19.243689, Alt.=907.117676m. Speed=0.000000m/h.</desc>
<speed>0.000000</speed>
</trkpt>
<trkpt lat="43.185078" lon="19.243689">
<ele>907.102051</ele>
<time>2012-04-29T12:26:45Z</time>
<desc>lat.=43.185078, lon.=19.243689, Alt.=907.102051m. Speed=0.000000m/h.</desc>
<speed>0.000000</speed>
</trkpt>
<trkpt lat="43.185078" lon="19.243687">
<ele>907.086426</ele>
<time>2012-04-29T12:26:50Z</time>
<desc>lat.=43.185078, lon.=19.243687, Alt.=907.086426m. Speed=0.000000m/h.</desc>
<speed>0.000000</speed>
</trkpt>
<trkpt lat="43.185078" lon="19.243687">
<ele>907.070801</ele>
<time>2012-04-29T12:26:55Z</time>
<desc>lat.=43.185078, lon.=19.243687, Alt.=907.070801m. Speed=0.000000m/h.</desc>
<speed>0.000000</speed>
</trkpt>
<trkpt lat="43.185078" lon="19.243687">
<ele>907.023926</ele>
<time>2012-04-29T12:27:00Z</time>
<desc>lat.=43.185078, lon.=19.243687, Alt.=907.023926m. Speed=0.000000m/h.</desc>
<speed>0.000000</speed>
</trkpt>
<trkpt lat="43.185078" lon="19.243687">
<ele>906.992676</ele>
<time>2012-04-29T12:27:05Z</time>
<desc>lat.=43.185078, lon.=19.243687, Alt.=906.992676m. Speed=0.000000m/h.</desc>
<speed>0.000000</speed>
</trkpt>
<trkpt lat="43.185078" lon="19.243687">
<ele>906.977051</ele>
<time>2012-04-29T12:27:10Z</time>
<desc>lat.=43.185078, lon.=19.243687, Alt.=906.977051m. Speed=0.000000m/h.</desc>
<speed>0.000000</speed>
</trkpt>
<trkpt lat="43.185078" lon="19.243687">
<ele>906.977051</ele>
<time>2012-04-29T12:27:15Z</time>
<desc>lat.=43.185078, lon.=19.243687, Alt.=906.977051m. Speed=0.000000m/h.</desc>
<speed>0.000000</speed>
</trkpt>
<trkpt lat="43.185078" lon="19.243687">
<ele>906.977051</ele>
<time>2012-04-29T12:27:20Z</time>
<desc>lat.=43.185078, lon.=19.243687, Alt.=906.977051m. Speed=0.000000m/h.</desc>
<speed>0.000000</speed>
</trkpt>
<trkpt lat="43.185078" lon="19.243687">
<ele>906.977051</ele>
<time>2012-04-29T12:27:25Z</time>
<desc>lat.=43.185078, lon.=19.243687, Alt.=906.977051m. Speed=0.000000m/h.</desc>
<speed>0.000000</speed>
</trkpt>
<trkpt lat="43.185078" lon="19.243685">
<ele>906.961426</ele>
<time>2012-04-29T12:27:30Z</time>
<desc>lat.=43.185078, lon.=19.243685, Alt.=906.961426m. Speed=0.000000m/h.</desc>
<speed>0.000000</speed>
</trkpt>
<trkpt lat="43.185078" lon="19.243685">
<ele>906.945801</ele>
<time>2012-04-29T12:27:35Z</time>
<desc>lat.=43.185078, lon.=19.243685, Alt.=906.945801m. Speed=0.036000m/h.</desc>
<speed>0.010000</speed>
</trkpt>
<trkpt lat="43.185078" lon="19.243685">
<ele>906.930176</ele>
<time>2012-04-29T12:27:40Z</time>
<desc>lat.=43.185078, lon.=19.243685, Alt.=906.930176m. Speed=0.000000m/h.</desc>
<speed>0.000000</speed>
</trkpt>
<trkpt lat="43.185078" lon="19.243685">
<ele>906.930176</ele>
<time>2012-04-29T12:27:45Z</time>
<desc>lat.=43.185078, lon.=19.243685, Alt.=906.930176m. Speed=0.000000m/h.</desc>
<speed>0.000000</speed>
</trkpt>
<trkpt lat="43.185078" lon="19.243685">
<ele>906.945801</ele>
<time>2012-04-29T12:27:50Z</time>
<desc>lat.=43.185078, lon.=19.243685, Alt.=906.945801m. Speed=0.072000m/h.</desc>
<speed>0.020000</speed>
</trkpt>
<trkpt lat="43.185078" lon="19.243685">
<ele>906.945801</ele>
<time>2012-04-29T12:27:55Z</time>
<desc>lat.=43.185078, lon.=19.243685, Alt.=906.945801m. Speed=0.000000m/h.</desc>
<speed>0.000000</speed>
</trkpt>
<trkpt lat="43.185078" lon="19.243685">
<ele>906.914551</ele>
<time>2012-04-29T12:28:00Z</time>
<desc>lat.=43.185078, lon.=19.243685, Alt.=906.914551m. Speed=0.000000m/h.</desc>
<speed>0.000000</speed>
</trkpt>
<trkpt lat="43.185078" lon="19.243685">
<ele>906.914551</ele>
<time>2012-04-29T12:28:05Z</time>
<desc>lat.=43.185078, lon.=19.243685, Alt.=906.914551m. Speed=0.036000m/h.</desc>
<speed>0.010000</speed>
</trkpt>
<trkpt lat="43.185078" lon="19.243685">
<ele>906.914551</ele>
<time>2012-04-29T12:28:10Z</time>
<desc>lat.=43.185078, lon.=19.243685, Alt.=906.914551m. Speed=0.000000m/h.</desc>
<speed>0.000000</speed>
</trkpt>
<trkpt lat="43.185078" lon="19.243685">
<ele>906.930176</ele>
<time>2012-04-29T12:28:15Z</time>
<desc>lat.=43.185078, lon.=19.243685, Alt.=906.930176m. Speed=0.000000m/h.</desc>
<speed>0.000000</speed>
</trkpt>
<trkpt lat="43.185074" lon="19.243685">
<ele>906.930176</ele>
<time>2012-04-29T12:28:20Z</time>
<desc>lat.=43.185074, lon.=19.243685, Alt.=906.930176m. Speed=0.000000m/h.</desc>
<speed>0.000000</speed>
</trkpt>
<trkpt lat="43.185078" lon="19.243685">
<ele>906.914551</ele>
<time>2012-04-29T12:28:25Z</time>
<desc>lat.=43.185078, lon.=19.243685, Alt.=906.914551m. Speed=0.000000m/h.</desc>
<speed>0.000000</speed>
</trkpt>
<trkpt lat="43.185078" lon="19.243685">
<ele>906.914551</ele>
<time>2012-04-29T12:28:30Z</time>
<desc>lat.=43.185078, lon.=19.243685, Alt.=906.914551m. Speed=0.000000m/h.</desc>
<speed>0.000000</speed>
</trkpt>
<trkpt lat="43.185078" lon="19.243685">
<ele>906.914551</ele>
<time>2012-04-29T12:28:35Z</time>
<desc>lat.=43.185078, lon.=19.243685, Alt.=906.914551m. Speed=0.000000m/h.</desc>
<speed>0.000000</speed>
</trkpt>
<trkpt lat="43.185078" lon="19.243685">
<ele>906.914551</ele>
<time>2012-04-29T12:28:40Z</time>
<desc>lat.=43.185078, lon.=19.243685, Alt.=906.914551m. Speed=0.000000m/h.</desc>
<speed>0.000000</speed>
</trkpt>
<trkpt lat="43.185078" lon="19.243685">
<ele>906.945801</ele>
<time>2012-04-29T12:28:45Z</time>
<desc>lat.=43.185078, lon.=19.243685, Alt.=906.945801m. Speed=0.000000m/h.</desc>
<speed>0.000000</speed>
</trkpt>
<trkpt lat="43.185078" lon="19.243685">
<ele>906.977051</ele>
<time>2012-04-29T12:28:50Z</time>
<desc>lat.=43.185078, lon.=19.243685, Alt.=906.977051m. Speed=0.000000m/h.</desc>
<speed>0.000000</speed>
</trkpt>
<trkpt lat="43.185078" lon="19.243685">
<ele>906.992676</ele>
<time>2012-04-29T12:28:55Z</time>
<desc>lat.=43.185078, lon.=19.243685, Alt.=906.992676m. Speed=0.000000m/h.</desc>
<speed>0.000000</speed>
</trkpt>
<trkpt lat="43.185078" lon="19.243685">
<ele>907.008301</ele>
<time>2012-04-29T12:29:00Z</time>
<desc>lat.=43.185078, lon.=19.243685, Alt.=907.008301m. Speed=0.000000m/h.</desc>
<speed>0.000000</speed>
</trkpt>
<trkpt lat="43.185078" lon="19.243685">
<ele>907.055176</ele>
<time>2012-04-29T12:29:05Z</time>
<desc>lat.=43.185078, lon.=19.243685, Alt.=907.055176m. Speed=0.036000m/h.</desc>
<speed>0.010000</speed>
</trkpt>
<trkpt lat="43.185078" lon="19.243685">
<ele>907.086426</ele>
<time>2012-04-29T12:29:10Z</time>
<desc>lat.=43.185078, lon.=19.243685, Alt.=907.086426m. Speed=0.000000m/h.</desc>
<speed>0.000000</speed>
</trkpt>
<trkpt lat="43.185078" lon="19.243685">
<ele>907.133301</ele>
<time>2012-04-29T12:29:15Z</time>
<desc>lat.=43.185078, lon.=19.243685, Alt.=907.133301m. Speed=0.000000m/h.</desc>
<speed>0.000000</speed>
</trkpt>
<trkpt lat="43.185078" lon="19.243685">
<ele>907.148926</ele>
<time>2012-04-29T12:29:20Z</time>
<desc>lat.=43.185078, lon.=19.243685, Alt.=907.148926m. Speed=0.000000m/h.</desc>
<speed>0.000000</speed>
</trkpt>
<trkpt lat="43.185078" lon="19.243685">
<ele>907.195801</ele>
<time>2012-04-29T12:29:25Z</time>
<desc>lat.=43.185078, lon.=19.243685, Alt.=907.195801m. Speed=0.000000m/h.</desc>
<speed>0.000000</speed>
</trkpt>
<trkpt lat="43.185078" lon="19.243685">
<ele>907.211426</ele>
<time>2012-04-29T12:29:30Z</time>
<desc>lat.=43.185078, lon.=19.243685, Alt.=907.211426m. Speed=0.000000m/h.</desc>
<speed>0.000000</speed>
</trkpt>
<trkpt lat="43.185078" lon="19.243685">
<ele>907.242676</ele>
<time>2012-04-29T12:29:35Z</time>
<desc>lat.=43.185078, lon.=19.243685, Alt.=907.242676m. Speed=0.000000m/h.</desc>
<speed>0.000000</speed>
</trkpt>
<trkpt lat="43.185078" lon="19.243685">
<ele>907.273926</ele>
<time>2012-04-29T12:29:40Z</time>
<desc>lat.=43.185078, lon.=19.243685, Alt.=907.273926m. Speed=0.000000m/h.</desc>
<speed>0.000000</speed>
</trkpt>
<trkpt lat="43.185078" lon="19.243685">
<ele>907.305176</ele>
<time>2012-04-29T12:29:45Z</time>
<desc>lat.=43.185078, lon.=19.243685, Alt.=907.305176m. Speed=0.000000m/h.</desc>
<speed>0.000000</speed>
</trkpt>
<trkpt lat="43.185078" lon="19.243685">
<ele>907.336426</ele>
<time>2012-04-29T12:29:50Z</time>
<desc>lat.=43.185078, lon.=19.243685, Alt.=907.336426m. Speed=0.000000m/h.</desc>
<speed>0.000000</speed>
</trkpt>
<trkpt lat="43.185078" lon="19.243685">
<ele>907.352051</ele>
<time>2012-04-29T12:29:55Z</time>
<desc>lat.=43.185078, lon.=19.243685, Alt.=907.352051m. Speed=0.000000m/h.</desc>
<speed>0.000000</speed>
</trkpt>
<trkpt lat="43.185078" lon="19.243685">
<ele>907.367676</ele>
<time>2012-04-29T12:30:00Z</time>
<desc>lat.=43.185078, lon.=19.243685, Alt.=907.367676m. Speed=0.000000m/h.</desc>
<speed>0.000000</speed>
</trkpt>
<trkpt lat="43.185078" lon="19.243685">
<ele>907.383301</ele>
<time>2012-04-29T12:30:05Z</time>
<desc>lat.=43.185078, lon.=19.243685, Alt.=907.383301m. Speed=0.000000m/h.</desc>
<speed>0.000000</speed>
</trkpt>
<trkpt lat="43.185078" lon="19.243685">
<ele>907.414551</ele>
<time>2012-04-29T12:30:10Z</time>
<desc>lat.=43.185078, lon.=19.243685, Alt.=907.414551m. Speed=0.000000m/h.</desc>
<speed>0.000000</speed>
</trkpt>
<trkpt lat="43.185078" lon="19.243685">
<ele>907.430176</ele>
<time>2012-04-29T12:30:15Z</time>
<desc>lat.=43.185078, lon.=19.243685, Alt.=907.430176m. Speed=0.036000m/h.</desc>
<speed>0.010000</speed>
</trkpt>
<trkpt lat="43.185078" lon="19.243685">
<ele>907.414551</ele>
<time>2012-04-29T12:30:20Z</time>
<desc>lat.=43.185078, lon.=19.243685, Alt.=907.414551m. Speed=0.000000m/h.</desc>
<speed>0.000000</speed>
</trkpt>
<trkpt lat="43.185078" lon="19.243685">
<ele>907.383301</ele>
<time>2012-04-29T12:30:25Z</time>
<desc>lat.=43.185078, lon.=19.243685, Alt.=907.383301m. Speed=0.036000m/h.</desc>
<speed>0.010000</speed>
</trkpt>
<trkpt lat="43.185078" lon="19.243685">
<ele>907.383301</ele>
<time>2012-04-29T12:30:30Z</time>
<desc>lat.=43.185078, lon.=19.243685, Alt.=907.383301m. Speed=0.000000m/h.</desc>
<speed>0.000000</speed>
</trkpt>
<trkpt lat="43.185078" lon="19.243685">
<ele>907.367676</ele>
<time>2012-04-29T12:30:35Z</time>
<desc>lat.=43.185078, lon.=19.243685, Alt.=907.367676m. Speed=0.072000m/h.</desc>
<speed>0.020000</speed>
</trkpt>
<trkpt lat="43.185078" lon="19.243685">
<ele>907.383301</ele>
<time>2012-04-29T12:30:40Z</time>
<desc>lat.=43.185078, lon.=19.243685, Alt.=907.383301m. Speed=0.000000m/h.</desc>
<speed>0.000000</speed>
</trkpt>
<trkpt lat="43.185078" lon="19.243685">
<ele>907.398926</ele>
<time>2012-04-29T12:30:45Z</time>
<desc>lat.=43.185078, lon.=19.243685, Alt.=907.398926m. Speed=0.036000m/h.</desc>
<speed>0.010000</speed>
</trkpt>
<trkpt lat="43.185078" lon="19.243685">
<ele>907.398926</ele>
<time>2012-04-29T12:30:50Z</time>
<desc>lat.=43.185078, lon.=19.243685, Alt.=907.398926m. Speed=0.180000m/h.</desc>
<speed>0.050000</speed>
</trkpt>
<trkpt lat="43.185078" lon="19.243683">
<ele>907.398926</ele>
<time>2012-04-29T12:30:55Z</time>
<desc>lat.=43.185078, lon.=19.243683, Alt.=907.398926m. Speed=0.036000m/h.</desc>
<speed>0.010000</speed>
</trkpt>
<trkpt lat="43.185078" lon="19.243683">
<ele>907.414551</ele>
<time>2012-04-29T12:31:00Z</time>
<desc>lat.=43.185078, lon.=19.243683, Alt.=907.414551m. Speed=0.036000m/h.</desc>
<speed>0.010000</speed>
</trkpt>
<trkpt lat="43.185078" lon="19.243683">
<ele>907.414551</ele>
<time>2012-04-29T12:31:05Z</time>
<desc>lat.=43.185078, lon.=19.243683, Alt.=907.414551m. Speed=0.036000m/h.</desc>
<speed>0.010000</speed>
</trkpt>
<trkpt lat="43.185078" lon="19.243683">
<ele>907.414551</ele>
<time>2012-04-29T12:31:10Z</time>
<desc>lat.=43.185078, lon.=19.243683, Alt.=907.414551m. Speed=0.036000m/h.</desc>
<speed>0.010000</speed>
</trkpt>
<trkpt lat="43.185078" lon="19.243683">
<ele>907.414551</ele>
<time>2012-04-29T12:31:15Z</time>
<desc>lat.=43.185078, lon.=19.243683, Alt.=907.414551m. Speed=0.000000m/h.</desc>
<speed>0.000000</speed>
</trkpt>
<trkpt lat="43.185078" lon="19.243683">
<ele>907.430176</ele>
<time>2012-04-29T12:31:20Z</time>
<desc>lat.=43.185078, lon.=19.243683, Alt.=907.430176m. Speed=0.000000m/h.</desc>
<speed>0.000000</speed>
</trkpt>
<trkpt lat="43.185078" lon="19.243683">
<ele>907.430176</ele>
<time>2012-04-29T12:31:25Z</time>
<desc>lat.=43.185078, lon.=19.243683, Alt.=907.430176m. Speed=0.072000m/h.</desc>
<speed>0.020000</speed>
</trkpt>
<trkpt lat="43.185078" lon="19.243683">
<ele>907.445801</ele>
<time>2012-04-29T12:31:30Z</time>
<desc>lat.=43.185078, lon.=19.243683, Alt.=907.445801m. Speed=0.000000m/h.</desc>
<speed>0.000000</speed>
</trkpt>
<trkpt lat="43.185078" lon="19.243683">
<ele>907.445801</ele>
<time>2012-04-29T12:31:35Z</time>
<desc>lat.=43.185078, lon.=19.243683, Alt.=907.445801m. Speed=0.000000m/h.</desc>
<speed>0.000000</speed>
</trkpt>
<trkpt lat="43.185078" lon="19.243683">
<ele>907.445801</ele>
<time>2012-04-29T12:31:40Z</time>
<desc>lat.=43.185078, lon.=19.243683, Alt.=907.445801m. Speed=0.108000m/h.</desc>
<speed>0.030000</speed>
</trkpt>
<trkpt lat="43.185078" lon="19.243683">
<ele>907.445801</ele>
<time>2012-04-29T12:31:45Z</time>
<desc>lat.=43.185078, lon.=19.243683, Alt.=907.445801m. Speed=0.036000m/h.</desc>
<speed>0.010000</speed>
</trkpt>
<trkpt lat="43.185078" lon="19.243683">
<ele>907.461426</ele>
<time>2012-04-29T12:31:50Z</time>
<desc>lat.=43.185078, lon.=19.243683, Alt.=907.461426m. Speed=0.036000m/h.</desc>
<speed>0.010000</speed>
</trkpt>
<trkpt lat="43.185074" lon="19.243683">
<ele>907.461426</ele>
<time>2012-04-29T12:31:55Z</time>
<desc>lat.=43.185074, lon.=19.243683, Alt.=907.461426m. Speed=0.648000m/h.</desc>
<speed>0.180000</speed>
</trkpt>
<trkpt lat="43.185051" lon="19.243700">
<ele>907.977051</ele>
<time>2012-04-29T12:32:00Z</time>
<desc>lat.=43.185051, lon.=19.243700, Alt.=907.977051m. Speed=3.132000m/h.</desc>
<speed>0.870000</speed>
</trkpt>
<trkpt lat="43.185036" lon="19.243706">
<ele>909.461426</ele>
<time>2012-04-29T12:32:05Z</time>
<desc>lat.=43.185036, lon.=19.243706, Alt.=909.461426m. Speed=2.016000m/h.</desc>
<speed>0.560000</speed>
</trkpt>
<trkpt lat="43.185024" lon="19.243750">
<ele>909.695801</ele>
<time>2012-04-29T12:32:10Z</time>
<desc>lat.=43.185024, lon.=19.243750, Alt.=909.695801m. Speed=0.684000m/h.</desc>
<speed>0.190000</speed>
</trkpt>
<trkpt lat="43.185028" lon="19.243748">
<ele>910.336426</ele>
<time>2012-04-29T12:32:15Z</time>
<desc>lat.=43.185028, lon.=19.243748, Alt.=910.336426m. Speed=0.144000m/h.</desc>
<speed>0.040000</speed>
</trkpt>
<trkpt lat="43.185024" lon="19.243753">
<ele>910.523926</ele>
<time>2012-04-29T12:32:20Z</time>
<desc>lat.=43.185024, lon.=19.243753, Alt.=910.523926m. Speed=1.224000m/h.</desc>
<speed>0.340000</speed>
</trkpt>
<trkpt lat="43.185017" lon="19.243786">
<ele>910.992676</ele>
<time>2012-04-29T12:32:25Z</time>
<desc>lat.=43.185017, lon.=19.243786, Alt.=910.992676m. Speed=5.040000m/h.</desc>
<speed>1.400000</speed>
</trkpt>
<trkpt lat="43.184998" lon="19.243931">
<ele>910.320801</ele>
<time>2012-04-29T12:32:30Z</time>
<desc>lat.=43.184998, lon.=19.243931, Alt.=910.320801m. Speed=10.836000m/h.</desc>
<speed>3.010000</speed>
</trkpt>
<trkpt lat="43.185020" lon="19.244162">
<ele>908.273926</ele>
<time>2012-04-29T12:32:35Z</time>
<desc>lat.=43.185020, lon.=19.244162, Alt.=908.273926m. Speed=16.379999m/h.</desc>
<speed>4.550000</speed>
</trkpt>
<trkpt lat="43.185093" lon="19.244408">
<ele>905.227051</ele>
<time>2012-04-29T12:32:40Z</time>
<desc>lat.=43.185093, lon.=19.244408, Alt.=905.227051m. Speed=14.184000m/h.</desc>
<speed>3.940000</speed>
</trkpt>
<trkpt lat="43.185173" lon="19.244661">
<ele>901.633301</ele>
<time>2012-04-29T12:32:45Z</time>
<desc>lat.=43.185173, lon.=19.244661, Alt.=901.633301m. Speed=17.892000m/h.</desc>
<speed>4.970000</speed>
</trkpt>
<trkpt lat="43.185280" lon="19.244947">
<ele>898.180176</ele>
<time>2012-04-29T12:32:50Z</time>
<desc>lat.=43.185280, lon.=19.244947, Alt.=898.180176m. Speed=18.360001m/h.</desc>
<speed>5.100000</speed>
</trkpt>
<trkpt lat="43.185310" lon="19.245186">
<ele>894.758301</ele>
<time>2012-04-29T12:32:55Z</time>
<desc>lat.=43.185310, lon.=19.245186, Alt.=894.758301m. Speed=14.976000m/h.</desc>
<speed>4.160000</speed>
</trkpt>
<trkpt lat="43.185337" lon="19.245426">
<ele>891.711426</ele>
<time>2012-04-29T12:33:00Z</time>
<desc>lat.=43.185337, lon.=19.245426, Alt.=891.711426m. Speed=15.444000m/h.</desc>
<speed>4.290000</speed>
</trkpt>
<trkpt lat="43.185364" lon="19.245718">
<ele>889.492676</ele>
<time>2012-04-29T12:33:05Z</time>
<desc>lat.=43.185364, lon.=19.245718, Alt.=889.492676m. Speed=16.379999m/h.</desc>
<speed>4.550000</speed>
</trkpt>
<trkpt lat="43.185440" lon="19.245947">
<ele>887.180176</ele>
<time>2012-04-29T12:33:10Z</time>
<desc>lat.=43.185440, lon.=19.245947, Alt.=887.180176m. Speed=18.576000m/h.</desc>
<speed>5.160000</speed>
</trkpt>
<trkpt lat="43.185520" lon="19.246292">
<ele>886.039551</ele>
<time>2012-04-29T12:33:15Z</time>
<desc>lat.=43.185520, lon.=19.246292, Alt.=886.039551m. Speed=20.916000m/h.</desc>
<speed>5.810000</speed>
</trkpt>
<trkpt lat="43.185562" lon="19.246582">
<ele>885.492676</ele>
<time>2012-04-29T12:33:20Z</time>
<desc>lat.=43.185562, lon.=19.246582, Alt.=885.492676m. Speed=11.556000m/h.</desc>
<speed>3.210000</speed>
</trkpt>
<trkpt lat="43.185497" lon="19.246878">
<ele>884.633301</ele>
<time>2012-04-29T12:33:25Z</time>
<desc>lat.=43.185497, lon.=19.246878, Alt.=884.633301m. Speed=17.892000m/h.</desc>
<speed>4.970000</speed>
</trkpt>
<trkpt lat="43.185478" lon="19.247206">
<ele>882.758301</ele>
<time>2012-04-29T12:33:30Z</time>
<desc>lat.=43.185478, lon.=19.247206, Alt.=882.758301m. Speed=14.724000m/h.</desc>
<speed>4.090000</speed>
</trkpt>
<trkpt lat="43.185513" lon="19.247417">
<ele>879.977051</ele>
<time>2012-04-29T12:33:35Z</time>
<desc>lat.=43.185513, lon.=19.247417, Alt.=879.977051m. Speed=4.140000m/h.</desc>
<speed>1.150000</speed>
</trkpt>
<trkpt lat="43.185513" lon="19.247423">
<ele>879.961426</ele>
<time>2012-04-29T12:33:40Z</time>
<desc>lat.=43.185513, lon.=19.247423, Alt.=879.961426m. Speed=0.360000m/h.</desc>
<speed>0.100000</speed>
</trkpt>
<trkpt lat="43.185513" lon="19.247438">
<ele>879.617676</ele>
<time>2012-04-29T12:33:45Z</time>
<desc>lat.=43.185513, lon.=19.247438, Alt.=879.617676m. Speed=1.008000m/h.</desc>
<speed>0.280000</speed>
</trkpt>
<trkpt lat="43.185520" lon="19.247440">
<ele>878.898926</ele>
<time>2012-04-29T12:33:50Z</time>
<desc>lat.=43.185520, lon.=19.247440, Alt.=878.898926m. Speed=0.000000m/h.</desc>
<speed>0.000000</speed>
</trkpt>
<trkpt lat="43.185520" lon="19.247440">
<ele>878.852051</ele>
<time>2012-04-29T12:33:55Z</time>
<desc>lat.=43.185520, lon.=19.247440, Alt.=878.852051m. Speed=0.000000m/h.</desc>
<speed>0.000000</speed>
</trkpt>
<trkpt lat="43.185520" lon="19.247440">
<ele>878.820801</ele>
<time>2012-04-29T12:34:00Z</time>
<desc>lat.=43.185520, lon.=19.247440, Alt.=878.820801m. Speed=0.000000m/h.</desc>
<speed>0.000000</speed>
</trkpt>
<trkpt lat="43.185520" lon="19.247440">
<ele>878.820801</ele>
<time>2012-04-29T12:34:05Z</time>
<desc>lat.=43.185520, lon.=19.247440, Alt.=878.820801m. Speed=0.000000m/h.</desc>
<speed>0.000000</speed>
</trkpt>
<trkpt lat="43.185520" lon="19.247440">
<ele>878.789551</ele>
<time>2012-04-29T12:34:10Z</time>
<desc>lat.=43.185520, lon.=19.247440, Alt.=878.789551m. Speed=0.000000m/h.</desc>
<speed>0.000000</speed>
</trkpt>
<trkpt lat="43.185520" lon="19.247440">
<ele>878.758301</ele>
<time>2012-04-29T12:34:15Z</time>
<desc>lat.=43.185520, lon.=19.247440, Alt.=878.758301m. Speed=0.000000m/h.</desc>
<speed>0.000000</speed>
</trkpt>
<trkpt lat="43.185520" lon="19.247440">
<ele>878.727051</ele>
<time>2012-04-29T12:34:20Z</time>
<desc>lat.=43.185520, lon.=19.247440, Alt.=878.727051m. Speed=0.036000m/h.</desc>
<speed>0.010000</speed>
</trkpt>
<trkpt lat="43.185520" lon="19.247440">
<ele>878.711426</ele>
<time>2012-04-29T12:34:25Z</time>
<desc>lat.=43.185520, lon.=19.247440, Alt.=878.711426m. Speed=0.036000m/h.</desc>
<speed>0.010000</speed>
</trkpt>
<trkpt lat="43.185520" lon="19.247440">
<ele>878.695801</ele>
<time>2012-04-29T12:34:30Z</time>
<desc>lat.=43.185520, lon.=19.247440, Alt.=878.695801m. Speed=0.000000m/h.</desc>
<speed>0.000000</speed>
</trkpt>
<trkpt lat="43.185520" lon="19.247440">
<ele>878.680176</ele>
<time>2012-04-29T12:34:35Z</time>
<desc>lat.=43.185520, lon.=19.247440, Alt.=878.680176m. Speed=0.000000m/h.</desc>
<speed>0.000000</speed>
</trkpt>
<trkpt lat="43.185520" lon="19.247440">
<ele>878.648926</ele>
<time>2012-04-29T12:34:40Z</time>
<desc>lat.=43.185520, lon.=19.247440, Alt.=878.648926m. Speed=0.036000m/h.</desc>
<speed>0.010000</speed>
</trkpt>
<trkpt lat="43.185520" lon="19.247440">
<ele>878.633301</ele>
<time>2012-04-29T12:34:45Z</time>
<desc>lat.=43.185520, lon.=19.247440, Alt.=878.633301m. Speed=0.000000m/h.</desc>
<speed>0.000000</speed>
</trkpt>
<trkpt lat="43.185520" lon="19.247440">
<ele>878.617676</ele>
<time>2012-04-29T12:34:50Z</time>
<desc>lat.=43.185520, lon.=19.247440, Alt.=878.617676m. Speed=0.108000m/h.</desc>
<speed>0.030000</speed>
</trkpt>
<trkpt lat="43.185520" lon="19.247440">
<ele>878.586426</ele>
<time>2012-04-29T12:34:55Z</time>
<desc>lat.=43.185520, lon.=19.247440, Alt.=878.586426m. Speed=0.036000m/h.</desc>
<speed>0.010000</speed>
</trkpt>
<trkpt lat="43.185520" lon="19.247440">
<ele>878.570801</ele>
<time>2012-04-29T12:35:00Z</time>
<desc>lat.=43.185520, lon.=19.247440, Alt.=878.570801m. Speed=0.000000m/h.</desc>
<speed>0.000000</speed>
</trkpt>
<trkpt lat="43.185520" lon="19.247440">
<ele>878.539551</ele>
<time>2012-04-29T12:35:05Z</time>
<desc>lat.=43.185520, lon.=19.247440, Alt.=878.539551m. Speed=0.000000m/h.</desc>
<speed>0.000000</speed>
</trkpt>
<trkpt lat="43.185520" lon="19.247440">
<ele>878.523926</ele>
<time>2012-04-29T12:35:10Z</time>
<desc>lat.=43.185520, lon.=19.247440, Alt.=878.523926m. Speed=0.000000m/h.</desc>
<speed>0.000000</speed>
</trkpt>
<trkpt lat="43.185520" lon="19.247440">
<ele>878.508301</ele>
<time>2012-04-29T12:35:15Z</time>
<desc>lat.=43.185520, lon.=19.247440, Alt.=878.508301m. Speed=0.072000m/h.</desc>
<speed>0.020000</speed>
</trkpt>
<trkpt lat="43.185520" lon="19.247438">
<ele>878.102051</ele>
<time>2012-04-29T12:35:20Z</time>
<desc>lat.=43.185520, lon.=19.247438, Alt.=878.102051m. Speed=0.468000m/h.</desc>
<speed>0.130000</speed>
</trkpt>
<trkpt lat="43.185528" lon="19.247431">
<ele>877.289551</ele>
<time>2012-04-29T12:35:25Z</time>
<desc>lat.=43.185528, lon.=19.247431, Alt.=877.289551m. Speed=0.648000m/h.</desc>
<speed>0.180000</speed>
</trkpt>
<trkpt lat="43.185528" lon="19.247429">
<ele>876.977051</ele>
<time>2012-04-29T12:35:30Z</time>
<desc>lat.=43.185528, lon.=19.247429, Alt.=876.977051m. Speed=0.252000m/h.</desc>
<speed>0.070000</speed>
</trkpt>
<trkpt lat="43.185528" lon="19.247431">
<ele>876.930176</ele>
<time>2012-04-29T12:35:35Z</time>
<desc>lat.=43.185528, lon.=19.247431, Alt.=876.930176m. Speed=0.072000m/h.</desc>
<speed>0.020000</speed>
</trkpt>
<trkpt lat="43.185532" lon="19.247477">
<ele>876.461426</ele>
<time>2012-04-29T12:35:40Z</time>
<desc>lat.=43.185532, lon.=19.247477, Alt.=876.461426m. Speed=5.832000m/h.</desc>
<speed>1.620000</speed>
</trkpt>
<trkpt lat="43.185532" lon="19.247572">
<ele>875.727051</ele>
<time>2012-04-29T12:35:45Z</time>
<desc>lat.=43.185532, lon.=19.247572, Alt.=875.727051m. Speed=3.564000m/h.</desc>
<speed>0.990000</speed>
</trkpt>
<trkpt lat="43.185535" lon="19.247585">
<ele>875.195801</ele>
<time>2012-04-29T12:35:50Z</time>
<desc>lat.=43.185535, lon.=19.247585, Alt.=875.195801m. Speed=1.368000m/h.</desc>
<speed>0.380000</speed>
</trkpt>
<trkpt lat="43.185543" lon="19.247671">
<ele>874.727051</ele>
<time>2012-04-29T12:35:55Z</time>
<desc>lat.=43.185543, lon.=19.247671, Alt.=874.727051m. Speed=6.696000m/h.</desc>
<speed>1.860000</speed>
</trkpt>
<trkpt lat="43.185555" lon="19.247814">
<ele>873.336426</ele>
<time>2012-04-29T12:36:00Z</time>
<desc>lat.=43.185555, lon.=19.247814, Alt.=873.336426m. Speed=7.776000m/h.</desc>
<speed>2.160000</speed>
</trkpt>
<trkpt lat="43.185558" lon="19.247948">
<ele>872.977051</ele>
<time>2012-04-29T12:36:05Z</time>
<desc>lat.=43.185558, lon.=19.247948, Alt.=872.977051m. Speed=6.336000m/h.</desc>
<speed>1.760000</speed>
</trkpt>
<trkpt lat="43.185558" lon="19.247990">
<ele>872.539551</ele>
<time>2012-04-29T12:36:10Z</time>
<desc>lat.=43.185558, lon.=19.247990, Alt.=872.539551m. Speed=1.368000m/h.</desc>
<speed>0.380000</speed>
</trkpt>
<trkpt lat="43.185574" lon="19.248089">
<ele>872.180176</ele>
<time>2012-04-29T12:36:15Z</time>
<desc>lat.=43.185574, lon.=19.248089, Alt.=872.180176m. Speed=8.424000m/h.</desc>
<speed>2.340000</speed>
</trkpt>
<trkpt lat="43.185631" lon="19.248301">
<ele>870.133301</ele>
<time>2012-04-29T12:36:20Z</time>
<desc>lat.=43.185631, lon.=19.248301, Alt.=870.133301m. Speed=13.644000m/h.</desc>
<speed>3.790000</speed>
</trkpt>
<trkpt lat="43.185699" lon="19.248512">
<ele>868.102051</ele>
<time>2012-04-29T12:36:25Z</time>
<desc>lat.=43.185699, lon.=19.248512, Alt.=868.102051m. Speed=13.248000m/h.</desc>
<speed>3.680000</speed>
</trkpt>
<trkpt lat="43.185741" lon="19.248749">
<ele>864.602051</ele>
<time>2012-04-29T12:36:30Z</time>
<desc>lat.=43.185741, lon.=19.248749, Alt.=864.602051m. Speed=15.876000m/h.</desc>
<speed>4.410000</speed>
</trkpt>
<trkpt lat="43.185772" lon="19.249004">
<ele>861.055176</ele>
<time>2012-04-29T12:36:35Z</time>
<desc>lat.=43.185772, lon.=19.249004, Alt.=861.055176m. Speed=11.340000m/h.</desc>
<speed>3.150000</speed>
</trkpt>
<trkpt lat="43.185791" lon="19.249184">
<ele>858.773926</ele>
<time>2012-04-29T12:36:40Z</time>
<desc>lat.=43.185791, lon.=19.249184, Alt.=858.773926m. Speed=9.792000m/h.</desc>
<speed>2.720000</speed>
</trkpt>
<trkpt lat="43.185764" lon="19.249384">
<ele>855.523926</ele>
<time>2012-04-29T12:36:45Z</time>
<desc>lat.=43.185764, lon.=19.249384, Alt.=855.523926m. Speed=9.900000m/h.</desc>
<speed>2.750000</speed>
</trkpt>
<trkpt lat="43.185734" lon="19.249628">
<ele>852.695801</ele>
<time>2012-04-29T12:36:50Z</time>
<desc>lat.=43.185734, lon.=19.249628, Alt.=852.695801m. Speed=16.596001m/h.</desc>
<speed>4.610000</speed>
</trkpt>
<trkpt lat="43.185757" lon="19.249935">
<ele>849.414551</ele>
<time>2012-04-29T12:36:55Z</time>
<desc>lat.=43.185757, lon.=19.249935, Alt.=849.414551m. Speed=17.820000m/h.</desc>
<speed>4.950000</speed>
</trkpt>
<trkpt lat="43.185753" lon="19.250204">
<ele>846.852051</ele>
<time>2012-04-29T12:37:00Z</time>
<desc>lat.=43.185753, lon.=19.250204, Alt.=846.852051m. Speed=17.424000m/h.</desc>
<speed>4.840000</speed>
</trkpt>
<trkpt lat="43.185669" lon="19.250425">
<ele>844.680176</ele>
<time>2012-04-29T12:37:05Z</time>
<desc>lat.=43.185669, lon.=19.250425, Alt.=844.680176m. Speed=8.712000m/h.</desc>
<speed>2.420000</speed>
</trkpt>
<trkpt lat="43.185619" lon="19.250614">
<ele>843.273926</ele>
<time>2012-04-29T12:37:10Z</time>
<desc>lat.=43.185619, lon.=19.250614, Alt.=843.273926m. Speed=9.972000m/h.</desc>
<speed>2.770000</speed>
</trkpt>
<trkpt lat="43.185623" lon="19.250799">
<ele>841.852051</ele>
<time>2012-04-29T12:37:15Z</time>
<desc>lat.=43.185623, lon.=19.250799, Alt.=841.852051m. Speed=11.664000m/h.</desc>
<speed>3.240000</speed>
</trkpt>
<trkpt lat="43.185631" lon="19.251032">
<ele>839.492676</ele>
<time>2012-04-29T12:37:20Z</time>
<desc>lat.=43.185631, lon.=19.251032, Alt.=839.492676m. Speed=13.284000m/h.</desc>
<speed>3.690000</speed>
</trkpt>
<trkpt lat="43.185596" lon="19.251251">
<ele>837.680176</ele>
<time>2012-04-29T12:37:25Z</time>
<desc>lat.=43.185596, lon.=19.251251, Alt.=837.680176m. Speed=13.104000m/h.</desc>
<speed>3.640000</speed>
</trkpt>
<trkpt lat="43.185612" lon="19.251492">
<ele>835.320801</ele>
<time>2012-04-29T12:37:30Z</time>
<desc>lat.=43.185612, lon.=19.251492, Alt.=835.320801m. Speed=14.076000m/h.</desc>
<speed>3.910000</speed>
</trkpt>
<trkpt lat="43.185635" lon="19.251715">
<ele>833.383301</ele>
<time>2012-04-29T12:37:35Z</time>
<desc>lat.=43.185635, lon.=19.251715, Alt.=833.383301m. Speed=13.140000m/h.</desc>
<speed>3.650000</speed>
</trkpt>
<trkpt lat="43.185703" lon="19.251900">
<ele>830.352051</ele>
<time>2012-04-29T12:37:40Z</time>
<desc>lat.=43.185703, lon.=19.251900, Alt.=830.352051m. Speed=8.604000m/h.</desc>
<speed>2.390000</speed>
</trkpt>
<trkpt lat="43.185669" lon="19.252022">
<ele>827.148926</ele>
<time>2012-04-29T12:37:45Z</time>
<desc>lat.=43.185669, lon.=19.252022, Alt.=827.148926m. Speed=9.828000m/h.</desc>
<speed>2.730000</speed>
</trkpt>
<trkpt lat="43.185585" lon="19.251995">
<ele>826.367676</ele>
<time>2012-04-29T12:37:50Z</time>
<desc>lat.=43.185585, lon.=19.251995, Alt.=826.367676m. Speed=5.940000m/h.</desc>
<speed>1.650000</speed>
</trkpt>
<trkpt lat="43.185490" lon="19.251863">
<ele>824.289551</ele>
<time>2012-04-29T12:37:55Z</time>
<desc>lat.=43.185490, lon.=19.251863, Alt.=824.289551m. Speed=13.824000m/h.</desc>
<speed>3.840000</speed>
</trkpt>
<trkpt lat="43.185345" lon="19.251644">
<ele>821.992676</ele>
<time>2012-04-29T12:38:00Z</time>
<desc>lat.=43.185345, lon.=19.251644, Alt.=821.992676m. Speed=21.600000m/h.</desc>
<speed>6.000000</speed>
</trkpt>
<trkpt lat="43.185165" lon="19.251444">
<ele>820.414551</ele>
<time>2012-04-29T12:38:05Z</time>
<desc>lat.=43.185165, lon.=19.251444, Alt.=820.414551m. Speed=16.236000m/h.</desc>
<speed>4.510000</speed>
</trkpt>
<trkpt lat="43.184967" lon="19.251371">
<ele>818.930176</ele>
<time>2012-04-29T12:38:10Z</time>
<desc>lat.=43.184967, lon.=19.251371, Alt.=818.930176m. Speed=12.528000m/h.</desc>
<speed>3.480000</speed>
</trkpt>
<trkpt lat="43.184925" lon="19.251564">
<ele>816.508301</ele>
<time>2012-04-29T12:38:15Z</time>
<desc>lat.=43.184925, lon.=19.251564, Alt.=816.508301m. Speed=13.608000m/h.</desc>
<speed>3.780000</speed>
</trkpt>
<trkpt lat="43.184956" lon="19.251808">
<ele>814.008301</ele>
<time>2012-04-29T12:38:20Z</time>
<desc>lat.=43.184956, lon.=19.251808, Alt.=814.008301m. Speed=13.896000m/h.</desc>
<speed>3.860000</speed>
</trkpt>
<trkpt lat="43.184971" lon="19.252108">
<ele>811.664551</ele>
<time>2012-04-29T12:38:25Z</time>
<desc>lat.=43.184971, lon.=19.252108, Alt.=811.664551m. Speed=17.243999m/h.</desc>
<speed>4.790000</speed>
</trkpt>
<trkpt lat="43.185081" lon="19.252329">
<ele>810.273926</ele>
<time>2012-04-29T12:38:30Z</time>
<desc>lat.=43.185081, lon.=19.252329, Alt.=810.273926m. Speed=13.500000m/h.</desc>
<speed>3.750000</speed>
</trkpt>
<trkpt lat="43.185078" lon="19.252542">
<ele>808.164551</ele>
<time>2012-04-29T12:38:35Z</time>
<desc>lat.=43.185078, lon.=19.252542, Alt.=808.164551m. Speed=11.628000m/h.</desc>
<speed>3.230000</speed>
</trkpt>
<trkpt lat="43.184956" lon="19.252771">
<ele>804.398926</ele>
<time>2012-04-29T12:38:40Z</time>
<desc>lat.=43.184956, lon.=19.252771, Alt.=804.398926m. Speed=14.868000m/h.</desc>
<speed>4.130000</speed>
</trkpt>
<trkpt lat="43.184864" lon="19.252998">
<ele>799.914551</ele>
<time>2012-04-29T12:38:45Z</time>
<desc>lat.=43.184864, lon.=19.252998, Alt.=799.914551m. Speed=14.400000m/h.</desc>
<speed>4.000000</speed>
</trkpt>
<trkpt lat="43.184734" lon="19.253105">
<ele>798.195801</ele>
<time>2012-04-29T12:38:50Z</time>
<desc>lat.=43.184734, lon.=19.253105, Alt.=798.195801m. Speed=14.004000m/h.</desc>
<speed>3.890000</speed>
</trkpt>
<trkpt lat="43.184601" lon="19.253235">
<ele>796.242676</ele>
<time>2012-04-29T12:38:55Z</time>
<desc>lat.=43.184601, lon.=19.253235, Alt.=796.242676m. Speed=9.288000m/h.</desc>
<speed>2.580000</speed>
</trkpt>
<trkpt lat="43.184509" lon="19.253330">
<ele>794.039551</ele>
<time>2012-04-29T12:39:00Z</time>
<desc>lat.=43.184509, lon.=19.253330, Alt.=794.039551m. Speed=11.520000m/h.</desc>
<speed>3.200000</speed>
</trkpt>
<trkpt lat="43.184410" lon="19.253466">
<ele>791.680176</ele>
<time>2012-04-29T12:39:05Z</time>
<desc>lat.=43.184410, lon.=19.253466, Alt.=791.680176m. Speed=9.288000m/h.</desc>
<speed>2.580000</speed>
</trkpt>
<trkpt lat="43.184361" lon="19.253675">
<ele>787.336426</ele>
<time>2012-04-29T12:39:10Z</time>
<desc>lat.=43.184361, lon.=19.253675, Alt.=787.336426m. Speed=14.940000m/h.</desc>
<speed>4.150000</speed>
</trkpt>
<trkpt lat="43.184334" lon="19.253920">
<ele>784.398926</ele>
<time>2012-04-29T12:39:15Z</time>
<desc>lat.=43.184334, lon.=19.253920, Alt.=784.398926m. Speed=16.308001m/h.</desc>
<speed>4.530000</speed>
</trkpt>
<trkpt lat="43.184288" lon="19.254211">
<ele>781.148926</ele>
<time>2012-04-29T12:39:20Z</time>
<desc>lat.=43.184288, lon.=19.254211, Alt.=781.148926m. Speed=18.468000m/h.</desc>
<speed>5.130000</speed>
</trkpt>
<trkpt lat="43.184223" lon="19.254494">
<ele>775.867676</ele>
<time>2012-04-29T12:39:25Z</time>
<desc>lat.=43.184223, lon.=19.254494, Alt.=775.867676m. Speed=12.708000m/h.</desc>
<speed>3.530000</speed>
</trkpt>
<trkpt lat="43.184185" lon="19.254696">
<ele>773.617676</ele>
<time>2012-04-29T12:39:30Z</time>
<desc>lat.=43.184185, lon.=19.254696, Alt.=773.617676m. Speed=13.392000m/h.</desc>
<speed>3.720000</speed>
</trkpt>
<trkpt lat="43.184193" lon="19.255060">
<ele>770.102051</ele>
<time>2012-04-29T12:39:35Z</time>
<desc>lat.=43.184193, lon.=19.255060, Alt.=770.102051m. Speed=23.868000m/h.</desc>
<speed>6.630000</speed>
</trkpt>
<trkpt lat="43.184093" lon="19.255405">
<ele>767.477051</ele>
<time>2012-04-29T12:39:40Z</time>
<desc>lat.=43.184093, lon.=19.255405, Alt.=767.477051m. Speed=24.264000m/h.</desc>
<speed>6.740000</speed>
</trkpt>
<trkpt lat="43.183949" lon="19.255621">
<ele>765.195801</ele>
<time>2012-04-29T12:39:45Z</time>
<desc>lat.=43.183949, lon.=19.255621, Alt.=765.195801m. Speed=17.063999m/h.</desc>
<speed>4.740000</speed>
</trkpt>
<trkpt lat="43.183784" lon="19.255857">
<ele>762.961426</ele>
<time>2012-04-29T12:39:50Z</time>
<desc>lat.=43.183784, lon.=19.255857, Alt.=762.961426m. Speed=19.620001m/h.</desc>
<speed>5.450000</speed>
</trkpt>
<trkpt lat="43.183624" lon="19.256126">
<ele>759.180176</ele>
<time>2012-04-29T12:39:55Z</time>
<desc>lat.=43.183624, lon.=19.256126, Alt.=759.180176m. Speed=18.756001m/h.</desc>
<speed>5.210000</speed>
</trkpt>
<trkpt lat="43.183502" lon="19.256353">
<ele>756.523926</ele>
<time>2012-04-29T12:40:00Z</time>
<desc>lat.=43.183502, lon.=19.256353, Alt.=756.523926m. Speed=14.328000m/h.</desc>
<speed>3.980000</speed>
</trkpt>
<trkpt lat="43.183407" lon="19.256584">
<ele>752.992676</ele>
<time>2012-04-29T12:40:05Z</time>
<desc>lat.=43.183407, lon.=19.256584, Alt.=752.992676m. Speed=15.912000m/h.</desc>
<speed>4.420000</speed>
</trkpt>
<trkpt lat="43.183281" lon="19.256824">
<ele>749.898926</ele>
<time>2012-04-29T12:40:10Z</time>
<desc>lat.=43.183281, lon.=19.256824, Alt.=749.898926m. Speed=15.696000m/h.</desc>
<speed>4.360000</speed>
</trkpt>
<trkpt lat="43.183224" lon="19.256987">
<ele>747.602051</ele>
<time>2012-04-29T12:40:15Z</time>
<desc>lat.=43.183224, lon.=19.256987, Alt.=747.602051m. Speed=5.796000m/h.</desc>
<speed>1.610000</speed>
</trkpt>
<trkpt lat="43.183270" lon="19.257101">
<ele>745.992676</ele>
<time>2012-04-29T12:40:20Z</time>
<desc>lat.=43.183270, lon.=19.257101, Alt.=745.992676m. Speed=11.520000m/h.</desc>
<speed>3.200000</speed>
</trkpt>
<trkpt lat="43.183407" lon="19.257259">
<ele>743.773926</ele>
<time>2012-04-29T12:40:25Z</time>
<desc>lat.=43.183407, lon.=19.257259, Alt.=743.773926m. Speed=14.364000m/h.</desc>
<speed>3.990000</speed>
</trkpt>
<trkpt lat="43.183521" lon="19.257427">
<ele>742.086426</ele>
<time>2012-04-29T12:40:30Z</time>
<desc>lat.=43.183521, lon.=19.257427, Alt.=742.086426m. Speed=13.932000m/h.</desc>
<speed>3.870000</speed>
</trkpt>
<trkpt lat="43.183510" lon="19.257738">
<ele>739.758301</ele>
<time>2012-04-29T12:40:35Z</time>
<desc>lat.=43.183510, lon.=19.257738, Alt.=739.758301m. Speed=19.440001m/h.</desc>
<speed>5.400000</speed>
</trkpt>
<trkpt lat="43.183407" lon="19.258125">
<ele>737.883301</ele>
<time>2012-04-29T12:40:40Z</time>
<desc>lat.=43.183407, lon.=19.258125, Alt.=737.883301m. Speed=21.384001m/h.</desc>
<speed>5.940000</speed>
</trkpt>
<trkpt lat="43.183247" lon="19.258373">
<ele>735.523926</ele>
<time>2012-04-29T12:40:45Z</time>
<desc>lat.=43.183247, lon.=19.258373, Alt.=735.523926m. Speed=18.468000m/h.</desc>
<speed>5.130000</speed>
</trkpt>
<trkpt lat="43.183105" lon="19.258558">
<ele>732.961426</ele>
<time>2012-04-29T12:40:50Z</time>
<desc>lat.=43.183105, lon.=19.258558, Alt.=732.961426m. Speed=17.388000m/h.</desc>
<speed>4.830000</speed>
</trkpt>
<trkpt lat="43.182930" lon="19.258888">
<ele>731.352051</ele>
<time>2012-04-29T12:40:55Z</time>
<desc>lat.=43.182930, lon.=19.258888, Alt.=731.352051m. Speed=20.448000m/h.</desc>
<speed>5.680000</speed>
</trkpt>
<trkpt lat="43.182854" lon="19.258955">
<ele>731.320801</ele>
<time>2012-04-29T12:41:00Z</time>
<desc>lat.=43.182854, lon.=19.258955, Alt.=731.320801m. Speed=8.532000m/h.</desc>
<speed>2.370000</speed>
</trkpt>
<trkpt lat="43.182789" lon="19.259060">
<ele>732.070801</ele>
<time>2012-04-29T12:41:05Z</time>
<desc>lat.=43.182789, lon.=19.259060, Alt.=732.070801m. Speed=7.596000m/h.</desc>
<speed>2.110000</speed>
</trkpt>
<trkpt lat="43.182762" lon="19.259171">
<ele>732.727051</ele>
<time>2012-04-29T12:41:10Z</time>
<desc>lat.=43.182762, lon.=19.259171, Alt.=732.727051m. Speed=5.580000m/h.</desc>
<speed>1.550000</speed>
</trkpt>
<trkpt lat="43.182762" lon="19.259209">
<ele>733.070801</ele>
<time>2012-04-29T12:41:15Z</time>
<desc>lat.=43.182762, lon.=19.259209, Alt.=733.070801m. Speed=0.288000m/h.</desc>
<speed>0.080000</speed>
</trkpt>
<trkpt lat="43.182770" lon="19.259209">
<ele>732.523926</ele>
<time>2012-04-29T12:41:20Z</time>
<desc>lat.=43.182770, lon.=19.259209, Alt.=732.523926m. Speed=0.468000m/h.</desc>
<speed>0.130000</speed>
</trkpt>
<trkpt lat="43.182766" lon="19.259209">
<ele>732.211426</ele>
<time>2012-04-29T12:41:25Z</time>
<desc>lat.=43.182766, lon.=19.259209, Alt.=732.211426m. Speed=0.072000m/h.</desc>
<speed>0.020000</speed>
</trkpt>
<trkpt lat="43.182774" lon="19.259232">
<ele>732.242676</ele>
<time>2012-04-29T12:41:30Z</time>
<desc>lat.=43.182774, lon.=19.259232, Alt.=732.242676m. Speed=2.124000m/h.</desc>
<speed>0.590000</speed>
</trkpt>
<trkpt lat="43.182789" lon="19.259321">
<ele>733.789551</ele>
<time>2012-04-29T12:41:35Z</time>
<desc>lat.=43.182789, lon.=19.259321, Alt.=733.789551m. Speed=3.744000m/h.</desc>
<speed>1.040000</speed>
</trkpt>
<trkpt lat="43.182789" lon="19.259396">
<ele>734.836426</ele>
<time>2012-04-29T12:41:40Z</time>
<desc>lat.=43.182789, lon.=19.259396, Alt.=734.836426m. Speed=2.736000m/h.</desc>
<speed>0.760000</speed>
</trkpt>
<trkpt lat="43.182789" lon="19.259447">
<ele>735.961426</ele>
<time>2012-04-29T12:41:45Z</time>
<desc>lat.=43.182789, lon.=19.259447, Alt.=735.961426m. Speed=3.024000m/h.</desc>
<speed>0.840000</speed>
</trkpt>
<trkpt lat="43.182789" lon="19.259518">
<ele>736.258301</ele>
<time>2012-04-29T12:41:50Z</time>
<desc>lat.=43.182789, lon.=19.259518, Alt.=736.258301m. Speed=2.916000m/h.</desc>
<speed>0.810000</speed>
</trkpt>
<trkpt lat="43.182796" lon="19.259577">
<ele>735.898926</ele>
<time>2012-04-29T12:41:55Z</time>
<desc>lat.=43.182796, lon.=19.259577, Alt.=735.898926m. Speed=2.052000m/h.</desc>
<speed>0.570000</speed>
</trkpt>
<trkpt lat="43.182804" lon="19.259653">
<ele>736.039551</ele>
<time>2012-04-29T12:42:00Z</time>
<desc>lat.=43.182804, lon.=19.259653, Alt.=736.039551m. Speed=3.708000m/h.</desc>
<speed>1.030000</speed>
</trkpt>
<trkpt lat="43.182827" lon="19.259739">
<ele>735.430176</ele>
<time>2012-04-29T12:42:05Z</time>
<desc>lat.=43.182827, lon.=19.259739, Alt.=735.430176m. Speed=3.492000m/h.</desc>
<speed>0.970000</speed>
</trkpt>
<trkpt lat="43.182842" lon="19.259804">
<ele>734.992676</ele>
<time>2012-04-29T12:42:10Z</time>
<desc>lat.=43.182842, lon.=19.259804, Alt.=734.992676m. Speed=4.032000m/h.</desc>
<speed>1.120000</speed>
</trkpt>
<trkpt lat="43.182846" lon="19.259869">
<ele>735.805176</ele>
<time>2012-04-29T12:42:15Z</time>
<desc>lat.=43.182846, lon.=19.259869, Alt.=735.805176m. Speed=3.960000m/h.</desc>
<speed>1.100000</speed>
</trkpt>
<trkpt lat="43.182846" lon="19.259941">
<ele>737.461426</ele>
<time>2012-04-29T12:42:20Z</time>
<desc>lat.=43.182846, lon.=19.259941, Alt.=737.461426m. Speed=3.780000m/h.</desc>
<speed>1.050000</speed>
</trkpt>
<trkpt lat="43.182831" lon="19.260015">
<ele>737.445801</ele>
<time>2012-04-29T12:42:25Z</time>
<desc>lat.=43.182831, lon.=19.260015, Alt.=737.445801m. Speed=3.312000m/h.</desc>
<speed>0.920000</speed>
</trkpt>
<trkpt lat="43.182819" lon="19.260069">
<ele>736.711426</ele>
<time>2012-04-29T12:42:30Z</time>
<desc>lat.=43.182819, lon.=19.260069, Alt.=736.711426m. Speed=2.880000m/h.</desc>
<speed>0.800000</speed>
</trkpt>
<trkpt lat="43.182804" lon="19.260086">
<ele>737.320801</ele>
<time>2012-04-29T12:42:35Z</time>
<desc>lat.=43.182804, lon.=19.260086, Alt.=737.320801m. Speed=0.072000m/h.</desc>
<speed>0.020000</speed>
</trkpt>
<trkpt lat="43.182808" lon="19.260077">
<ele>737.508301</ele>
<time>2012-04-29T12:42:40Z</time>
<desc>lat.=43.182808, lon.=19.260077, Alt.=737.508301m. Speed=0.144000m/h.</desc>
<speed>0.040000</speed>
</trkpt>
<trkpt lat="43.182808" lon="19.260078">
<ele>737.320801</ele>
<time>2012-04-29T12:42:45Z</time>
<desc>lat.=43.182808, lon.=19.260078, Alt.=737.320801m. Speed=0.144000m/h.</desc>
<speed>0.040000</speed>
</trkpt>
<trkpt lat="43.182804" lon="19.260078">
<ele>737.273926</ele>
<time>2012-04-29T12:42:50Z</time>
<desc>lat.=43.182804, lon.=19.260078, Alt.=737.273926m. Speed=0.036000m/h.</desc>
<speed>0.010000</speed>
</trkpt>
<trkpt lat="43.182804" lon="19.260078">
<ele>737.273926</ele>
<time>2012-04-29T12:42:55Z</time>
<desc>lat.=43.182804, lon.=19.260078, Alt.=737.273926m. Speed=0.072000m/h.</desc>
<speed>0.020000</speed>
</trkpt>
<trkpt lat="43.182804" lon="19.260078">
<ele>737.273926</ele>
<time>2012-04-29T12:43:00Z</time>
<desc>lat.=43.182804, lon.=19.260078, Alt.=737.273926m. Speed=0.036000m/h.</desc>
<speed>0.010000</speed>
</trkpt>
<trkpt lat="43.182804" lon="19.260077">
<ele>737.273926</ele>
<time>2012-04-29T12:43:05Z</time>
<desc>lat.=43.182804, lon.=19.260077, Alt.=737.273926m. Speed=0.036000m/h.</desc>
<speed>0.010000</speed>
</trkpt>
<trkpt lat="43.182804" lon="19.260077">
<ele>737.273926</ele>
<time>2012-04-29T12:43:10Z</time>
<desc>lat.=43.182804, lon.=19.260077, Alt.=737.273926m. Speed=0.072000m/h.</desc>
<speed>0.020000</speed>
</trkpt>
<trkpt lat="43.182804" lon="19.260077">
<ele>737.242676</ele>
<time>2012-04-29T12:43:15Z</time>
<desc>lat.=43.182804, lon.=19.260077, Alt.=737.242676m. Speed=0.000000m/h.</desc>
<speed>0.000000</speed>
</trkpt>
<trkpt lat="43.182804" lon="19.260077">
<ele>737.242676</ele>
<time>2012-04-29T12:43:20Z</time>
<desc>lat.=43.182804, lon.=19.260077, Alt.=737.242676m. Speed=0.036000m/h.</desc>
<speed>0.010000</speed>
</trkpt>
<trkpt lat="43.182808" lon="19.260078">
<ele>737.258301</ele>
<time>2012-04-29T12:43:25Z</time>
<desc>lat.=43.182808, lon.=19.260078, Alt.=737.258301m. Speed=0.000000m/h.</desc>
<speed>0.000000</speed>
</trkpt>
<trkpt lat="43.182808" lon="19.260077">
<ele>737.258301</ele>
<time>2012-04-29T12:43:30Z</time>
<desc>lat.=43.182808, lon.=19.260077, Alt.=737.258301m. Speed=0.000000m/h.</desc>
<speed>0.000000</speed>
</trkpt>
<trkpt lat="43.182808" lon="19.260077">
<ele>737.242676</ele>
<time>2012-04-29T12:43:35Z</time>
<desc>lat.=43.182808, lon.=19.260077, Alt.=737.242676m. Speed=0.000000m/h.</desc>
<speed>0.000000</speed>
</trkpt>
<trkpt lat="43.182808" lon="19.260077">
<ele>737.273926</ele>
<time>2012-04-29T12:43:40Z</time>
<desc>lat.=43.182808, lon.=19.260077, Alt.=737.273926m. Speed=0.036000m/h.</desc>
<speed>0.010000</speed>
</trkpt>
<trkpt lat="43.182808" lon="19.260077">
<ele>737.289551</ele>
<time>2012-04-29T12:43:45Z</time>
<desc>lat.=43.182808, lon.=19.260077, Alt.=737.289551m. Speed=0.000000m/h.</desc>
<speed>0.000000</speed>
</trkpt>
<trkpt lat="43.182808" lon="19.260077">
<ele>737.289551</ele>
<time>2012-04-29T12:43:50Z</time>
<desc>lat.=43.182808, lon.=19.260077, Alt.=737.289551m. Speed=0.000000m/h.</desc>
<speed>0.000000</speed>
</trkpt>
<trkpt lat="43.182808" lon="19.260077">
<ele>737.289551</ele>
<time>2012-04-29T12:43:55Z</time>
<desc>lat.=43.182808, lon.=19.260077, Alt.=737.289551m. Speed=0.000000m/h.</desc>
<speed>0.000000</speed>
</trkpt>
<trkpt lat="43.182808" lon="19.260077">
<ele>737.273926</ele>
<time>2012-04-29T12:44:00Z</time>
<desc>lat.=43.182808, lon.=19.260077, Alt.=737.273926m. Speed=0.000000m/h.</desc>
<speed>0.000000</speed>
</trkpt>
<trkpt lat="43.182808" lon="19.260077">
<ele>737.273926</ele>
<time>2012-04-29T12:44:05Z</time>
<desc>lat.=43.182808, lon.=19.260077, Alt.=737.273926m. Speed=0.036000m/h.</desc>
<speed>0.010000</speed>
</trkpt>
<trkpt lat="43.182808" lon="19.260077">
<ele>737.273926</ele>
<time>2012-04-29T12:44:10Z</time>
<desc>lat.=43.182808, lon.=19.260077, Alt.=737.273926m. Speed=0.000000m/h.</desc>
<speed>0.000000</speed>
</trkpt>
<trkpt lat="43.182808" lon="19.260077">
<ele>737.258301</ele>
<time>2012-04-29T12:44:15Z</time>
<desc>lat.=43.182808, lon.=19.260077, Alt.=737.258301m. Speed=0.000000m/h.</desc>
<speed>0.000000</speed>
</trkpt>
<trkpt lat="43.182808" lon="19.260075">
<ele>737.273926</ele>
<time>2012-04-29T12:44:20Z</time>
<desc>lat.=43.182808, lon.=19.260075, Alt.=737.273926m. Speed=0.000000m/h.</desc>
<speed>0.000000</speed>
</trkpt>
<trkpt lat="43.182808" lon="19.260075">
<ele>737.289551</ele>
<time>2012-04-29T12:44:25Z</time>
<desc>lat.=43.182808, lon.=19.260075, Alt.=737.289551m. Speed=0.000000m/h.</desc>
<speed>0.000000</speed>
</trkpt>
<trkpt lat="43.182808" lon="19.260075">
<ele>737.320801</ele>
<time>2012-04-29T12:44:30Z</time>
<desc>lat.=43.182808, lon.=19.260075, Alt.=737.320801m. Speed=0.000000m/h.</desc>
<speed>0.000000</speed>
</trkpt>
<trkpt lat="43.182808" lon="19.260075">
<ele>737.352051</ele>
<time>2012-04-29T12:44:35Z</time>
<desc>lat.=43.182808, lon.=19.260075, Alt.=737.352051m. Speed=0.000000m/h.</desc>
<speed>0.000000</speed>
</trkpt>
<trkpt lat="43.182808" lon="19.260075">
<ele>737.352051</ele>
<time>2012-04-29T12:44:40Z</time>
<desc>lat.=43.182808, lon.=19.260075, Alt.=737.352051m. Speed=0.000000m/h.</desc>
<speed>0.000000</speed>
</trkpt>
<trkpt lat="43.182808" lon="19.260073">
<ele>737.367676</ele>
<time>2012-04-29T12:44:45Z</time>
<desc>lat.=43.182808, lon.=19.260073, Alt.=737.367676m. Speed=0.000000m/h.</desc>
<speed>0.000000</speed>
</trkpt>
<trkpt lat="43.182808" lon="19.260073">
<ele>737.398926</ele>
<time>2012-04-29T12:44:50Z</time>
<desc>lat.=43.182808, lon.=19.260073, Alt.=737.398926m. Speed=0.000000m/h.</desc>
<speed>0.000000</speed>
</trkpt>
<trkpt lat="43.182808" lon="19.260073">
<ele>737.445801</ele>
<time>2012-04-29T12:44:55Z</time>
<desc>lat.=43.182808, lon.=19.260073, Alt.=737.445801m. Speed=0.000000m/h.</desc>
<speed>0.000000</speed>
</trkpt>
<trkpt lat="43.182808" lon="19.260073">
<ele>737.477051</ele>
<time>2012-04-29T12:45:00Z</time>
<desc>lat.=43.182808, lon.=19.260073, Alt.=737.477051m. Speed=0.036000m/h.</desc>
<speed>0.010000</speed>
</trkpt>
<trkpt lat="43.182808" lon="19.260073">
<ele>737.523926</ele>
<time>2012-04-29T12:45:05Z</time>
<desc>lat.=43.182808, lon.=19.260073, Alt.=737.523926m. Speed=0.000000m/h.</desc>
<speed>0.000000</speed>
</trkpt>
<trkpt lat="43.182808" lon="19.260073">
<ele>737.555176</ele>
<time>2012-04-29T12:45:10Z</time>
<desc>lat.=43.182808, lon.=19.260073, Alt.=737.555176m. Speed=0.000000m/h.</desc>
<speed>0.000000</speed>
</trkpt>
<trkpt lat="43.182808" lon="19.260073">
<ele>737.617676</ele>
<time>2012-04-29T12:45:15Z</time>
<desc>lat.=43.182808, lon.=19.260073, Alt.=737.617676m. Speed=0.000000m/h.</desc>
<speed>0.000000</speed>
</trkpt>
<trkpt lat="43.182808" lon="19.260071">
<ele>737.664551</ele>
<time>2012-04-29T12:45:20Z</time>
<desc>lat.=43.182808, lon.=19.260071, Alt.=737.664551m. Speed=0.036000m/h.</desc>
<speed>0.010000</speed>
</trkpt>
<trkpt lat="43.182808" lon="19.260071">
<ele>737.742676</ele>
<time>2012-04-29T12:45:25Z</time>
<desc>lat.=43.182808, lon.=19.260071, Alt.=737.742676m. Speed=0.036000m/h.</desc>
<speed>0.010000</speed>
</trkpt>
<trkpt lat="43.182808" lon="19.260071">
<ele>737.836426</ele>
<time>2012-04-29T12:45:30Z</time>
<desc>lat.=43.182808, lon.=19.260071, Alt.=737.836426m. Speed=0.000000m/h.</desc>
<speed>0.000000</speed>
</trkpt>
<trkpt lat="43.182808" lon="19.260071">
<ele>737.852051</ele>
<time>2012-04-29T12:45:35Z</time>
<desc>lat.=43.182808, lon.=19.260071, Alt.=737.852051m. Speed=0.000000m/h.</desc>
<speed>0.000000</speed>
</trkpt>
<trkpt lat="43.182808" lon="19.260071">
<ele>737.867676</ele>
<time>2012-04-29T12:45:40Z</time>
<desc>lat.=43.182808, lon.=19.260071, Alt.=737.867676m. Speed=0.000000m/h.</desc>
<speed>0.000000</speed>
</trkpt>
<trkpt lat="43.182808" lon="19.260069">
<ele>737.898926</ele>
<time>2012-04-29T12:45:45Z</time>
<desc>lat.=43.182808, lon.=19.260069, Alt.=737.898926m. Speed=0.000000m/h.</desc>
<speed>0.000000</speed>
</trkpt>
<trkpt lat="43.182808" lon="19.260069">
<ele>737.930176</ele>
<time>2012-04-29T12:45:50Z</time>
<desc>lat.=43.182808, lon.=19.260069, Alt.=737.930176m. Speed=0.036000m/h.</desc>
<speed>0.010000</speed>
</trkpt>
<trkpt lat="43.182808" lon="19.260069">
<ele>737.945801</ele>
<time>2012-04-29T12:45:55Z</time>
<desc>lat.=43.182808, lon.=19.260069, Alt.=737.945801m. Speed=0.324000m/h.</desc>
<speed>0.090000</speed>
</trkpt>
<trkpt lat="43.182796" lon="19.260057">
<ele>737.930176</ele>
<time>2012-04-29T12:46:00Z</time>
<desc>lat.=43.182796, lon.=19.260057, Alt.=737.930176m. Speed=4.824000m/h.</desc>
<speed>1.340000</speed>
</trkpt>
<trkpt lat="43.182755" lon="19.259983">
<ele>737.461426</ele>
<time>2012-04-29T12:46:05Z</time>
<desc>lat.=43.182755, lon.=19.259983, Alt.=737.461426m. Speed=5.004000m/h.</desc>
<speed>1.390000</speed>
</trkpt>
<trkpt lat="43.182735" lon="19.259888">
<ele>738.117676</ele>
<time>2012-04-29T12:46:10Z</time>
<desc>lat.=43.182735, lon.=19.259888, Alt.=738.117676m. Speed=6.624000m/h.</desc>
<speed>1.840000</speed>
</trkpt>
<trkpt lat="43.182720" lon="19.259769">
<ele>739.820801</ele>
<time>2012-04-29T12:46:15Z</time>
<desc>lat.=43.182720, lon.=19.259769, Alt.=739.820801m. Speed=7.776000m/h.</desc>
<speed>2.160000</speed>
</trkpt>
<trkpt lat="43.182693" lon="19.259649">
<ele>740.789551</ele>
<time>2012-04-29T12:46:20Z</time>
<desc>lat.=43.182693, lon.=19.259649, Alt.=740.789551m. Speed=7.056000m/h.</desc>
<speed>1.960000</speed>
</trkpt>
<trkpt lat="43.182667" lon="19.259527">
<ele>743.227051</ele>
<time>2012-04-29T12:46:25Z</time>
<desc>lat.=43.182667, lon.=19.259527, Alt.=743.227051m. Speed=6.840000m/h.</desc>
<speed>1.900000</speed>
</trkpt>
<trkpt lat="43.182625" lon="19.259409">
<ele>744.148926</ele>
<time>2012-04-29T12:46:30Z</time>
<desc>lat.=43.182625, lon.=19.259409, Alt.=744.148926m. Speed=6.588000m/h.</desc>
<speed>1.830000</speed>
</trkpt>
<trkpt lat="43.182579" lon="19.259308">
<ele>746.383301</ele>
<time>2012-04-29T12:46:35Z</time>
<desc>lat.=43.182579, lon.=19.259308, Alt.=746.383301m. Speed=4.968000m/h.</desc>
<speed>1.380000</speed>
</trkpt>
<trkpt lat="43.182514" lon="19.259228">
<ele>747.367676</ele>
<time>2012-04-29T12:46:40Z</time>
<desc>lat.=43.182514, lon.=19.259228, Alt.=747.367676m. Speed=6.840000m/h.</desc>
<speed>1.900000</speed>
</trkpt>
<trkpt lat="43.182415" lon="19.259174">
<ele>748.836426</ele>
<time>2012-04-29T12:46:45Z</time>
<desc>lat.=43.182415, lon.=19.259174, Alt.=748.836426m. Speed=6.984000m/h.</desc>
<speed>1.940000</speed>
</trkpt>
<trkpt lat="43.182323" lon="19.259148">
<ele>749.742676</ele>
<time>2012-04-29T12:46:50Z</time>
<desc>lat.=43.182323, lon.=19.259148, Alt.=749.742676m. Speed=6.480000m/h.</desc>
<speed>1.800000</speed>
</trkpt>
<trkpt lat="43.182224" lon="19.259130">
<ele>750.898926</ele>
<time>2012-04-29T12:46:55Z</time>
<desc>lat.=43.182224, lon.=19.259130, Alt.=750.898926m. Speed=8.532000m/h.</desc>
<speed>2.370000</speed>
</trkpt>
<trkpt lat="43.182125" lon="19.259130">
<ele>751.320801</ele>
<time>2012-04-29T12:47:00Z</time>
<desc>lat.=43.182125, lon.=19.259130, Alt.=751.320801m. Speed=8.388000m/h.</desc>
<speed>2.330000</speed>
</trkpt>
<trkpt lat="43.182045" lon="19.259113">
<ele>753.305176</ele>
<time>2012-04-29T12:47:05Z</time>
<desc>lat.=43.182045, lon.=19.259113, Alt.=753.305176m. Speed=4.752000m/h.</desc>
<speed>1.320000</speed>
</trkpt>
<trkpt lat="43.181946" lon="19.259123">
<ele>754.398926</ele>
<time>2012-04-29T12:47:10Z</time>
<desc>lat.=43.181946, lon.=19.259123, Alt.=754.398926m. Speed=10.044000m/h.</desc>
<speed>2.790000</speed>
</trkpt>
<trkpt lat="43.181828" lon="19.259094">
<ele>756.336426</ele>
<time>2012-04-29T12:47:15Z</time>
<desc>lat.=43.181828, lon.=19.259094, Alt.=756.336426m. Speed=10.764000m/h.</desc>
<speed>2.990000</speed>
</trkpt>
<trkpt lat="43.181686" lon="19.259027">
<ele>758.445801</ele>
<time>2012-04-29T12:47:20Z</time>
<desc>lat.=43.181686, lon.=19.259027, Alt.=758.445801m. Speed=12.312000m/h.</desc>
<speed>3.420000</speed>
</trkpt>
<trkpt lat="43.181568" lon="19.258915">
<ele>761.367676</ele>
<time>2012-04-29T12:47:25Z</time>
<desc>lat.=43.181568, lon.=19.258915, Alt.=761.367676m. Speed=10.908000m/h.</desc>
<speed>3.030000</speed>
</trkpt>
<trkpt lat="43.181419" lon="19.258827">
<ele>762.711426</ele>
<time>2012-04-29T12:47:30Z</time>
<desc>lat.=43.181419, lon.=19.258827, Alt.=762.711426m. Speed=6.228000m/h.</desc>
<speed>1.730000</speed>
</trkpt>
<trkpt lat="43.181328" lon="19.258797">
<ele>764.117676</ele>
<time>2012-04-29T12:47:35Z</time>
<desc>lat.=43.181328, lon.=19.258797, Alt.=764.117676m. Speed=8.856000m/h.</desc>
<speed>2.460000</speed>
</trkpt>
<trkpt lat="43.181198" lon="19.258766">
<ele>766.289551</ele>
<time>2012-04-29T12:47:40Z</time>
<desc>lat.=43.181198, lon.=19.258766, Alt.=766.289551m. Speed=9.612000m/h.</desc>
<speed>2.670000</speed>
</trkpt>
<trkpt lat="43.181084" lon="19.258717">
<ele>767.992676</ele>
<time>2012-04-29T12:47:45Z</time>
<desc>lat.=43.181084, lon.=19.258717, Alt.=767.992676m. Speed=8.496000m/h.</desc>
<speed>2.360000</speed>
</trkpt>
<trkpt lat="43.180992" lon="19.258692">
<ele>769.820801</ele>
<time>2012-04-29T12:47:50Z</time>
<desc>lat.=43.180992, lon.=19.258692, Alt.=769.820801m. Speed=7.236000m/h.</desc>
<speed>2.010000</speed>
</trkpt>
<trkpt lat="43.180904" lon="19.258663">
<ele>772.820801</ele>
<time>2012-04-29T12:47:55Z</time>
<desc>lat.=43.180904, lon.=19.258663, Alt.=772.820801m. Speed=8.280000m/h.</desc>
<speed>2.300000</speed>
</trkpt>
<trkpt lat="43.180809" lon="19.258671">
<ele>775.477051</ele>
<time>2012-04-29T12:48:00Z</time>
<desc>lat.=43.180809, lon.=19.258671, Alt.=775.477051m. Speed=4.644000m/h.</desc>
<speed>1.290000</speed>
</trkpt>
<trkpt lat="43.180710" lon="19.258650">
<ele>777.445801</ele>
<time>2012-04-29T12:48:05Z</time>
<desc>lat.=43.180710, lon.=19.258650, Alt.=777.445801m. Speed=7.380000m/h.</desc>
<speed>2.050000</speed>
</trkpt>
<trkpt lat="43.180622" lon="19.258623">
<ele>778.133301</ele>
<time>2012-04-29T12:48:10Z</time>
<desc>lat.=43.180622, lon.=19.258623, Alt.=778.133301m. Speed=7.848000m/h.</desc>
<speed>2.180000</speed>
</trkpt>
<trkpt lat="43.180565" lon="19.258640">
<ele>780.539551</ele>
<time>2012-04-29T12:48:15Z</time>
<desc>lat.=43.180565, lon.=19.258640, Alt.=780.539551m. Speed=0.648000m/h.</desc>
<speed>0.180000</speed>
</trkpt>
<trkpt lat="43.180553" lon="19.258661">
<ele>781.461426</ele>
<time>2012-04-29T12:48:20Z</time>
<desc>lat.=43.180553, lon.=19.258661, Alt.=781.461426m. Speed=0.144000m/h.</desc>
<speed>0.040000</speed>
</trkpt>
<trkpt lat="43.180553" lon="19.258661">
<ele>781.680176</ele>
<time>2012-04-29T12:48:25Z</time>
<desc>lat.=43.180553, lon.=19.258661, Alt.=781.680176m. Speed=0.180000m/h.</desc>
<speed>0.050000</speed>
</trkpt>
<trkpt lat="43.180534" lon="19.258661">
<ele>781.945801</ele>
<time>2012-04-29T12:48:30Z</time>
<desc>lat.=43.180534, lon.=19.258661, Alt.=781.945801m. Speed=3.672000m/h.</desc>
<speed>1.020000</speed>
</trkpt>
<trkpt lat="43.180443" lon="19.258665">
<ele>782.211426</ele>
<time>2012-04-29T12:48:35Z</time>
<desc>lat.=43.180443, lon.=19.258665, Alt.=782.211426m. Speed=11.160000m/h.</desc>
<speed>3.100000</speed>
</trkpt>
<trkpt lat="43.180305" lon="19.258648">
<ele>782.039551</ele>
<time>2012-04-29T12:48:40Z</time>
<desc>lat.=43.180305, lon.=19.258648, Alt.=782.039551m. Speed=10.044000m/h.</desc>
<speed>2.790000</speed>
</trkpt>
<trkpt lat="43.180187" lon="19.258629">
<ele>782.133301</ele>
<time>2012-04-29T12:48:45Z</time>
<desc>lat.=43.180187, lon.=19.258629, Alt.=782.133301m. Speed=11.484000m/h.</desc>
<speed>3.190000</speed>
</trkpt>
<trkpt lat="43.180058" lon="19.258619">
<ele>780.820801</ele>
<time>2012-04-29T12:48:50Z</time>
<desc>lat.=43.180058, lon.=19.258619, Alt.=780.820801m. Speed=10.224000m/h.</desc>
<speed>2.840000</speed>
</trkpt>
<trkpt lat="43.179928" lon="19.258621">
<ele>780.211426</ele>
<time>2012-04-29T12:48:55Z</time>
<desc>lat.=43.179928, lon.=19.258621, Alt.=780.211426m. Speed=11.052000m/h.</desc>
<speed>3.070000</speed>
</trkpt>
<trkpt lat="43.179813" lon="19.258600">
<ele>778.820801</ele>
<time>2012-04-29T12:49:00Z</time>
<desc>lat.=43.179813, lon.=19.258600, Alt.=778.820801m. Speed=9.000000m/h.</desc>
<speed>2.500000</speed>
</trkpt>
<trkpt lat="43.179710" lon="19.258602">
<ele>778.383301</ele>
<time>2012-04-29T12:49:05Z</time>
<desc>lat.=43.179710, lon.=19.258602, Alt.=778.383301m. Speed=8.460000m/h.</desc>
<speed>2.350000</speed>
</trkpt>
<trkpt lat="43.179619" lon="19.258537">
<ele>777.523926</ele>
<time>2012-04-29T12:49:10Z</time>
<desc>lat.=43.179619, lon.=19.258537, Alt.=777.523926m. Speed=8.244000m/h.</desc>
<speed>2.290000</speed>
</trkpt>
<trkpt lat="43.179523" lon="19.258514">
<ele>776.195801</ele>
<time>2012-04-29T12:49:15Z</time>
<desc>lat.=43.179523, lon.=19.258514, Alt.=776.195801m. Speed=8.208000m/h.</desc>
<speed>2.280000</speed>
</trkpt>
<trkpt lat="43.179436" lon="19.258501">
<ele>775.336426</ele>
<time>2012-04-29T12:49:20Z</time>
<desc>lat.=43.179436, lon.=19.258501, Alt.=775.336426m. Speed=5.364000m/h.</desc>
<speed>1.490000</speed>
</trkpt>
<trkpt lat="43.179375" lon="19.258467">
<ele>774.039551</ele>
<time>2012-04-29T12:49:25Z</time>
<desc>lat.=43.179375, lon.=19.258467, Alt.=774.039551m. Speed=3.996000m/h.</desc>
<speed>1.110000</speed>
</trkpt>
<trkpt lat="43.179298" lon="19.258453">
<ele>775.305176</ele>
<time>2012-04-29T12:49:30Z</time>
<desc>lat.=43.179298, lon.=19.258453, Alt.=775.305176m. Speed=5.580000m/h.</desc>
<speed>1.550000</speed>
</trkpt>
<trkpt lat="43.179230" lon="19.258451">
<ele>775.383301</ele>
<time>2012-04-29T12:49:35Z</time>
<desc>lat.=43.179230, lon.=19.258451, Alt.=775.383301m. Speed=4.356000m/h.</desc>
<speed>1.210000</speed>
</trkpt>
<trkpt lat="43.179173" lon="19.258457">
<ele>775.914551</ele>
<time>2012-04-29T12:49:40Z</time>
<desc>lat.=43.179173, lon.=19.258457, Alt.=775.914551m. Speed=3.564000m/h.</desc>
<speed>0.990000</speed>
</trkpt>
<trkpt lat="43.179104" lon="19.258448">
<ele>776.633301</ele>
<time>2012-04-29T12:49:45Z</time>
<desc>lat.=43.179104, lon.=19.258448, Alt.=776.633301m. Speed=4.716000m/h.</desc>
<speed>1.310000</speed>
</trkpt>
<trkpt lat="43.179047" lon="19.258427">
<ele>777.148926</ele>
<time>2012-04-29T12:49:50Z</time>
<desc>lat.=43.179047, lon.=19.258427, Alt.=777.148926m. Speed=2.988000m/h.</desc>
<speed>0.830000</speed>
</trkpt>
<trkpt lat="43.178989" lon="19.258396">
<ele>777.273926</ele>
<time>2012-04-29T12:49:55Z</time>
<desc>lat.=43.178989, lon.=19.258396, Alt.=777.273926m. Speed=4.356000m/h.</desc>
<speed>1.210000</speed>
</trkpt>
<trkpt lat="43.178928" lon="19.258375">
<ele>779.711426</ele>
<time>2012-04-29T12:50:00Z</time>
<desc>lat.=43.178928, lon.=19.258375, Alt.=779.711426m. Speed=5.256000m/h.</desc>
<speed>1.460000</speed>
</trkpt>
<trkpt lat="43.178871" lon="19.258377">
<ele>780.898926</ele>
<time>2012-04-29T12:50:05Z</time>
<desc>lat.=43.178871, lon.=19.258377, Alt.=780.898926m. Speed=4.140000m/h.</desc>
<speed>1.150000</speed>
</trkpt>
<trkpt lat="43.178814" lon="19.258400">
<ele>782.102051</ele>
<time>2012-04-29T12:50:10Z</time>
<desc>lat.=43.178814, lon.=19.258400, Alt.=782.102051m. Speed=4.320000m/h.</desc>
<speed>1.200000</speed>
</trkpt>
<trkpt lat="43.178764" lon="19.258436">
<ele>782.617676</ele>
<time>2012-04-29T12:50:15Z</time>
<desc>lat.=43.178764, lon.=19.258436, Alt.=782.617676m. Speed=3.888000m/h.</desc>
<speed>1.080000</speed>
</trkpt>
<trkpt lat="43.178699" lon="19.258512">
<ele>784.477051</ele>
<time>2012-04-29T12:50:20Z</time>
<desc>lat.=43.178699, lon.=19.258512, Alt.=784.477051m. Speed=6.876000m/h.</desc>
<speed>1.910000</speed>
</trkpt>
<trkpt lat="43.178650" lon="19.258596">
<ele>785.633301</ele>
<time>2012-04-29T12:50:25Z</time>
<desc>lat.=43.178650, lon.=19.258596, Alt.=785.633301m. Speed=5.328000m/h.</desc>
<speed>1.480000</speed>
</trkpt>
<trkpt lat="43.178619" lon="19.258688">
<ele>786.492676</ele>
<time>2012-04-29T12:50:30Z</time>
<desc>lat.=43.178619, lon.=19.258688, Alt.=786.492676m. Speed=7.236000m/h.</desc>
<speed>2.010000</speed>
</trkpt>
<trkpt lat="43.178570" lon="19.258780">
<ele>786.477051</ele>
<time>2012-04-29T12:50:35Z</time>
<desc>lat.=43.178570, lon.=19.258780, Alt.=786.477051m. Speed=6.912000m/h.</desc>
<speed>1.920000</speed>
</trkpt>
<trkpt lat="43.178513" lon="19.258896">
<ele>786.711426</ele>
<time>2012-04-29T12:50:40Z</time>
<desc>lat.=43.178513, lon.=19.258896, Alt.=786.711426m. Speed=8.316000m/h.</desc>
<speed>2.310000</speed>
</trkpt>
<trkpt lat="43.178440" lon="19.258995">
<ele>788.023926</ele>
<time>2012-04-29T12:50:45Z</time>
<desc>lat.=43.178440, lon.=19.258995, Alt.=788.023926m. Speed=9.180000m/h.</desc>
<speed>2.550000</speed>
</trkpt>
<trkpt lat="43.178364" lon="19.259096">
<ele>787.617676</ele>
<time>2012-04-29T12:50:50Z</time>
<desc>lat.=43.178364, lon.=19.259096, Alt.=787.617676m. Speed=9.504000m/h.</desc>
<speed>2.640000</speed>
</trkpt>
<trkpt lat="43.178257" lon="19.259211">
<ele>788.023926</ele>
<time>2012-04-29T12:50:55Z</time>
<desc>lat.=43.178257, lon.=19.259211, Alt.=788.023926m. Speed=10.296000m/h.</desc>
<speed>2.860000</speed>
</trkpt>
<trkpt lat="43.178196" lon="19.259329">
<ele>788.586426</ele>
<time>2012-04-29T12:51:00Z</time>
<desc>lat.=43.178196, lon.=19.259329, Alt.=788.586426m. Speed=8.172000m/h.</desc>
<speed>2.270000</speed>
</trkpt>
<trkpt lat="43.178089" lon="19.259455">
<ele>788.930176</ele>
<time>2012-04-29T12:51:05Z</time>
<desc>lat.=43.178089, lon.=19.259455, Alt.=788.930176m. Speed=7.848000m/h.</desc>
<speed>2.180000</speed>
</trkpt>
<trkpt lat="43.177971" lon="19.259565">
<ele>788.727051</ele>
<time>2012-04-29T12:51:10Z</time>
<desc>lat.=43.177971, lon.=19.259565, Alt.=788.727051m. Speed=5.472000m/h.</desc>
<speed>1.520000</speed>
</trkpt>
<trkpt lat="43.177902" lon="19.259672">
<ele>788.805176</ele>
<time>2012-04-29T12:51:15Z</time>
<desc>lat.=43.177902, lon.=19.259672, Alt.=788.805176m. Speed=9.504000m/h.</desc>
<speed>2.640000</speed>
</trkpt>
<trkpt lat="43.177780" lon="19.259769">
<ele>790.461426</ele>
<time>2012-04-29T12:51:20Z</time>
<desc>lat.=43.177780, lon.=19.259769, Alt.=790.461426m. Speed=10.152000m/h.</desc>
<speed>2.820000</speed>
</trkpt>
<trkpt lat="43.177639" lon="19.259838">
<ele>791.914551</ele>
<time>2012-04-29T12:51:25Z</time>
<desc>lat.=43.177639, lon.=19.259838, Alt.=791.914551m. Speed=6.552000m/h.</desc>
<speed>1.820000</speed>
</trkpt>
<trkpt lat="43.177525" lon="19.259882">
<ele>791.867676</ele>
<time>2012-04-29T12:51:30Z</time>
<desc>lat.=43.177525, lon.=19.259882, Alt.=791.867676m. Speed=11.448000m/h.</desc>
<speed>3.180000</speed>
</trkpt>
<trkpt lat="43.177402" lon="19.259926">
<ele>791.539551</ele>
<time>2012-04-29T12:51:35Z</time>
<desc>lat.=43.177402, lon.=19.259926, Alt.=791.539551m. Speed=7.020000m/h.</desc>
<speed>1.950000</speed>
</trkpt>
<trkpt lat="43.177311" lon="19.259993">
<ele>790.742676</ele>
<time>2012-04-29T12:51:40Z</time>
<desc>lat.=43.177311, lon.=19.259993, Alt.=790.742676m. Speed=3.528000m/h.</desc>
<speed>0.980000</speed>
</trkpt>
<trkpt lat="43.177219" lon="19.260073">
<ele>791.023926</ele>
<time>2012-04-29T12:51:45Z</time>
<desc>lat.=43.177219, lon.=19.260073, Alt.=791.023926m. Speed=11.844000m/h.</desc>
<speed>3.290000</speed>
</trkpt>
<trkpt lat="43.177094" lon="19.260214">
<ele>791.477051</ele>
<time>2012-04-29T12:51:50Z</time>
<desc>lat.=43.177094, lon.=19.260214, Alt.=791.477051m. Speed=10.224000m/h.</desc>
<speed>2.840000</speed>
</trkpt>
<trkpt lat="43.176926" lon="19.260410">
<ele>790.414551</ele>
<time>2012-04-29T12:51:55Z</time>
<desc>lat.=43.176926, lon.=19.260410, Alt.=790.414551m. Speed=21.563999m/h.</desc>
<speed>5.990000</speed>
</trkpt>
<trkpt lat="43.176701" lon="19.260717">
<ele>789.867676</ele>
<time>2012-04-29T12:52:00Z</time>
<desc>lat.=43.176701, lon.=19.260717, Alt.=789.867676m. Speed=16.704000m/h.</desc>
<speed>4.640000</speed>
</trkpt>
<trkpt lat="43.176552" lon="19.260857">
<ele>789.773926</ele>
<time>2012-04-29T12:52:05Z</time>
<desc>lat.=43.176552, lon.=19.260857, Alt.=789.773926m. Speed=10.260000m/h.</desc>
<speed>2.850000</speed>
</trkpt>
<trkpt lat="43.176449" lon="19.260962">
<ele>790.336426</ele>
<time>2012-04-29T12:52:10Z</time>
<desc>lat.=43.176449, lon.=19.260962, Alt.=790.336426m. Speed=9.432000m/h.</desc>
<speed>2.620000</speed>
</trkpt>
<trkpt lat="43.176350" lon="19.261045">
<ele>791.805176</ele>
<time>2012-04-29T12:52:15Z</time>
<desc>lat.=43.176350, lon.=19.261045, Alt.=791.805176m. Speed=7.884000m/h.</desc>
<speed>2.190000</speed>
</trkpt>
<trkpt lat="43.176292" lon="19.261147">
<ele>790.586426</ele>
<time>2012-04-29T12:52:20Z</time>
<desc>lat.=43.176292, lon.=19.261147, Alt.=790.586426m. Speed=7.092000m/h.</desc>
<speed>1.970000</speed>
</trkpt>
<trkpt lat="43.176224" lon="19.261248">
<ele>791.039551</ele>
<time>2012-04-29T12:52:25Z</time>
<desc>lat.=43.176224, lon.=19.261248, Alt.=791.039551m. Speed=6.912000m/h.</desc>
<speed>1.920000</speed>
</trkpt>
<trkpt lat="43.176163" lon="19.261326">
<ele>791.523926</ele>
<time>2012-04-29T12:52:30Z</time>
<desc>lat.=43.176163, lon.=19.261326, Alt.=791.523926m. Speed=6.948000m/h.</desc>
<speed>1.930000</speed>
</trkpt>
<trkpt lat="43.176094" lon="19.261395">
<ele>793.773926</ele>
<time>2012-04-29T12:52:35Z</time>
<desc>lat.=43.176094, lon.=19.261395, Alt.=793.773926m. Speed=6.444000m/h.</desc>
<speed>1.790000</speed>
</trkpt>
<trkpt lat="43.176037" lon="19.261463">
<ele>794.805176</ele>
<time>2012-04-29T12:52:40Z</time>
<desc>lat.=43.176037, lon.=19.261463, Alt.=794.805176m. Speed=6.948000m/h.</desc>
<speed>1.930000</speed>
</trkpt>
<trkpt lat="43.175987" lon="19.261551">
<ele>794.945801</ele>
<time>2012-04-29T12:52:45Z</time>
<desc>lat.=43.175987, lon.=19.261551, Alt.=794.945801m. Speed=6.876000m/h.</desc>
<speed>1.910000</speed>
</trkpt>
<trkpt lat="43.175945" lon="19.261652">
<ele>796.023926</ele>
<time>2012-04-29T12:52:50Z</time>
<desc>lat.=43.175945, lon.=19.261652, Alt.=796.023926m. Speed=5.760000m/h.</desc>
<speed>1.600000</speed>
</trkpt>
<trkpt lat="43.175911" lon="19.261736">
<ele>796.492676</ele>
<time>2012-04-29T12:52:55Z</time>
<desc>lat.=43.175911, lon.=19.261736, Alt.=796.492676m. Speed=8.028000m/h.</desc>
<speed>2.230000</speed>
</trkpt>
<trkpt lat="43.175861" lon="19.261827">
<ele>796.930176</ele>
<time>2012-04-29T12:53:00Z</time>
<desc>lat.=43.175861, lon.=19.261827, Alt.=796.930176m. Speed=8.100000m/h.</desc>
<speed>2.250000</speed>
</trkpt>
<trkpt lat="43.175781" lon="19.261900">
<ele>797.602051</ele>
<time>2012-04-29T12:53:05Z</time>
<desc>lat.=43.175781, lon.=19.261900, Alt.=797.602051m. Speed=7.488000m/h.</desc>
<speed>2.080000</speed>
</trkpt>
<trkpt lat="43.175758" lon="19.262051">
<ele>797.711426</ele>
<time>2012-04-29T12:53:10Z</time>
<desc>lat.=43.175758, lon.=19.262051, Alt.=797.711426m. Speed=8.136000m/h.</desc>
<speed>2.260000</speed>
</trkpt>
<trkpt lat="43.175682" lon="19.262140">
<ele>797.227051</ele>
<time>2012-04-29T12:53:15Z</time>
<desc>lat.=43.175682, lon.=19.262140, Alt.=797.227051m. Speed=8.316000m/h.</desc>
<speed>2.310000</speed>
</trkpt>
<trkpt lat="43.175629" lon="19.262297">
<ele>797.383301</ele>
<time>2012-04-29T12:53:20Z</time>
<desc>lat.=43.175629, lon.=19.262297, Alt.=797.383301m. Speed=8.676000m/h.</desc>
<speed>2.410000</speed>
</trkpt>
<trkpt lat="43.175629" lon="19.262489">
<ele>796.711426</ele>
<time>2012-04-29T12:53:25Z</time>
<desc>lat.=43.175629, lon.=19.262489, Alt.=796.711426m. Speed=7.704000m/h.</desc>
<speed>2.140000</speed>
</trkpt>
<trkpt lat="43.175652" lon="19.262695">
<ele>796.883301</ele>
<time>2012-04-29T12:53:30Z</time>
<desc>lat.=43.175652, lon.=19.262695, Alt.=796.883301m. Speed=10.764000m/h.</desc>
<speed>2.990000</speed>
</trkpt>
<trkpt lat="43.175716" lon="19.262962">
<ele>797.133301</ele>
<time>2012-04-29T12:53:35Z</time>
<desc>lat.=43.175716, lon.=19.262962, Alt.=797.133301m. Speed=8.568000m/h.</desc>
<speed>2.380000</speed>
</trkpt>
<trkpt lat="43.175629" lon="19.263096">
<ele>796.664551</ele>
<time>2012-04-29T12:53:40Z</time>
<desc>lat.=43.175629, lon.=19.263096, Alt.=796.664551m. Speed=8.964000m/h.</desc>
<speed>2.490000</speed>
</trkpt>
<trkpt lat="43.175507" lon="19.263283">
<ele>796.305176</ele>
<time>2012-04-29T12:53:45Z</time>
<desc>lat.=43.175507, lon.=19.263283, Alt.=796.305176m. Speed=9.216000m/h.</desc>
<speed>2.560000</speed>
</trkpt>
<trkpt lat="43.175392" lon="19.263416">
<ele>795.633301</ele>
<time>2012-04-29T12:53:50Z</time>
<desc>lat.=43.175392, lon.=19.263416, Alt.=795.633301m. Speed=9.072000m/h.</desc>
<speed>2.520000</speed>
</trkpt>
<trkpt lat="43.175312" lon="19.263506">
<ele>796.383301</ele>
<time>2012-04-29T12:53:55Z</time>
<desc>lat.=43.175312, lon.=19.263506, Alt.=796.383301m. Speed=6.336000m/h.</desc>
<speed>1.760000</speed>
</trkpt>
<trkpt lat="43.175282" lon="19.263636">
<ele>795.258301</ele>
<time>2012-04-29T12:54:00Z</time>
<desc>lat.=43.175282, lon.=19.263636, Alt.=795.258301m. Speed=5.040000m/h.</desc>
<speed>1.400000</speed>
</trkpt>
<trkpt lat="43.175232" lon="19.263783">
<ele>793.633301</ele>
<time>2012-04-29T12:54:05Z</time>
<desc>lat.=43.175232, lon.=19.263783, Alt.=793.633301m. Speed=6.192000m/h.</desc>
<speed>1.720000</speed>
</trkpt>
<trkpt lat="43.175198" lon="19.263895">
<ele>790.398926</ele>
<time>2012-04-29T12:54:10Z</time>
<desc>lat.=43.175198, lon.=19.263895, Alt.=790.398926m. Speed=7.992000m/h.</desc>
<speed>2.220000</speed>
</trkpt>
<trkpt lat="43.175175" lon="19.264074">
<ele>788.320801</ele>
<time>2012-04-29T12:54:15Z</time>
<desc>lat.=43.175175, lon.=19.264074, Alt.=788.320801m. Speed=8.460000m/h.</desc>
<speed>2.350000</speed>
</trkpt>
<trkpt lat="43.175056" lon="19.264217">
<ele>788.727051</ele>
<time>2012-04-29T12:54:20Z</time>
<desc>lat.=43.175056, lon.=19.264217, Alt.=788.727051m. Speed=8.820000m/h.</desc>
<speed>2.450000</speed>
</trkpt>
<trkpt lat="43.174995" lon="19.264338">
<ele>788.852051</ele>
<time>2012-04-29T12:54:25Z</time>
<desc>lat.=43.174995, lon.=19.264338, Alt.=788.852051m. Speed=9.756000m/h.</desc>
<speed>2.710000</speed>
</trkpt>
<trkpt lat="43.174938" lon="19.264442">
<ele>788.711426</ele>
<time>2012-04-29T12:54:30Z</time>
<desc>lat.=43.174938, lon.=19.264442, Alt.=788.711426m. Speed=6.084000m/h.</desc>
<speed>1.690000</speed>
</trkpt>
<trkpt lat="43.174900" lon="19.264482">
<ele>793.336426</ele>
<time>2012-04-29T12:54:35Z</time>
<desc>lat.=43.174900, lon.=19.264482, Alt.=793.336426m. Speed=4.140000m/h.</desc>
<speed>1.150000</speed>
</trkpt>
<trkpt lat="43.174850" lon="19.264542">
<ele>794.711426</ele>
<time>2012-04-29T12:54:40Z</time>
<desc>lat.=43.174850, lon.=19.264542, Alt.=794.711426m. Speed=3.744000m/h.</desc>
<speed>1.040000</speed>
</trkpt>
<trkpt lat="43.174778" lon="19.264624">
<ele>797.164551</ele>
<time>2012-04-29T12:54:45Z</time>
<desc>lat.=43.174778, lon.=19.264624, Alt.=797.164551m. Speed=6.912000m/h.</desc>
<speed>1.920000</speed>
</trkpt>
<trkpt lat="43.174690" lon="19.264671">
<ele>797.570801</ele>
<time>2012-04-29T12:54:50Z</time>
<desc>lat.=43.174690, lon.=19.264671, Alt.=797.570801m. Speed=3.384000m/h.</desc>
<speed>0.940000</speed>
</trkpt>
<trkpt lat="43.174606" lon="19.264858">
<ele>797.867676</ele>
<time>2012-04-29T12:54:55Z</time>
<desc>lat.=43.174606, lon.=19.264858, Alt.=797.867676m. Speed=8.316000m/h.</desc>
<speed>2.310000</speed>
</trkpt>
<trkpt lat="43.174515" lon="19.264965">
<ele>798.383301</ele>
<time>2012-04-29T12:55:00Z</time>
<desc>lat.=43.174515, lon.=19.264965, Alt.=798.383301m. Speed=7.956000m/h.</desc>
<speed>2.210000</speed>
</trkpt>
<trkpt lat="43.174480" lon="19.265070">
<ele>797.477051</ele>
<time>2012-04-29T12:55:05Z</time>
<desc>lat.=43.174480, lon.=19.265070, Alt.=797.477051m. Speed=8.280000m/h.</desc>
<speed>2.300000</speed>
</trkpt>
<trkpt lat="43.174484" lon="19.265194">
<ele>796.352051</ele>
<time>2012-04-29T12:55:10Z</time>
<desc>lat.=43.174484, lon.=19.265194, Alt.=796.352051m. Speed=9.360000m/h.</desc>
<speed>2.600000</speed>
</trkpt>
<trkpt lat="43.174461" lon="19.265310">
<ele>795.133301</ele>
<time>2012-04-29T12:55:15Z</time>
<desc>lat.=43.174461, lon.=19.265310, Alt.=795.133301m. Speed=6.444000m/h.</desc>
<speed>1.790000</speed>
</trkpt>
<trkpt lat="43.174404" lon="19.265394">
<ele>793.539551</ele>
<time>2012-04-29T12:55:20Z</time>
<desc>lat.=43.174404, lon.=19.265394, Alt.=793.539551m. Speed=5.472000m/h.</desc>
<speed>1.520000</speed>
</trkpt>
<trkpt lat="43.174377" lon="19.265497">
<ele>791.477051</ele>
<time>2012-04-29T12:55:25Z</time>
<desc>lat.=43.174377, lon.=19.265497, Alt.=791.477051m. Speed=3.888000m/h.</desc>
<speed>1.080000</speed>
</trkpt>
<trkpt lat="43.174362" lon="19.265594">
<ele>790.086426</ele>
<time>2012-04-29T12:55:30Z</time>
<desc>lat.=43.174362, lon.=19.265594, Alt.=790.086426m. Speed=4.212000m/h.</desc>
<speed>1.170000</speed>
</trkpt>
<trkpt lat="43.174355" lon="19.265644">
<ele>788.758301</ele>
<time>2012-04-29T12:55:35Z</time>
<desc>lat.=43.174355, lon.=19.265644, Alt.=788.758301m. Speed=0.792000m/h.</desc>
<speed>0.220000</speed>
</trkpt>
<trkpt lat="43.174335" lon="19.265675">
<ele>787.602051</ele>
<time>2012-04-29T12:55:40Z</time>
<desc>lat.=43.174335, lon.=19.265675, Alt.=787.602051m. Speed=2.916000m/h.</desc>
<speed>0.810000</speed>
</trkpt>
<trkpt lat="43.174305" lon="19.265707">
<ele>786.477051</ele>
<time>2012-04-29T12:55:45Z</time>
<desc>lat.=43.174305, lon.=19.265707, Alt.=786.477051m. Speed=5.256000m/h.</desc>
<speed>1.460000</speed>
</trkpt>
<trkpt lat="43.174278" lon="19.265759">
<ele>786.102051</ele>
<time>2012-04-29T12:55:50Z</time>
<desc>lat.=43.174278, lon.=19.265759, Alt.=786.102051m. Speed=2.880000m/h.</desc>
<speed>0.800000</speed>
</trkpt>
<trkpt lat="43.174225" lon="19.265783">
<ele>785.180176</ele>
<time>2012-04-29T12:55:55Z</time>
<desc>lat.=43.174225, lon.=19.265783, Alt.=785.180176m. Speed=3.852000m/h.</desc>
<speed>1.070000</speed>
</trkpt>
<trkpt lat="43.174179" lon="19.265844">
<ele>784.617676</ele>
<time>2012-04-29T12:56:00Z</time>
<desc>lat.=43.174179, lon.=19.265844, Alt.=784.617676m. Speed=3.672000m/h.</desc>
<speed>1.020000</speed>
</trkpt>
<trkpt lat="43.174141" lon="19.265905">
<ele>784.180176</ele>
<time>2012-04-29T12:56:05Z</time>
<desc>lat.=43.174141, lon.=19.265905, Alt.=784.180176m. Speed=5.184000m/h.</desc>
<speed>1.440000</speed>
</trkpt>
<trkpt lat="43.174103" lon="19.265980">
<ele>784.227051</ele>
<time>2012-04-29T12:56:10Z</time>
<desc>lat.=43.174103, lon.=19.265980, Alt.=784.227051m. Speed=4.536000m/h.</desc>
<speed>1.260000</speed>
</trkpt>
<trkpt lat="43.174038" lon="19.266048">
<ele>783.898926</ele>
<time>2012-04-29T12:56:15Z</time>
<desc>lat.=43.174038, lon.=19.266048, Alt.=783.898926m. Speed=4.176000m/h.</desc>
<speed>1.160000</speed>
</trkpt>
<trkpt lat="43.173988" lon="19.266098">
<ele>784.492676</ele>
<time>2012-04-29T12:56:20Z</time>
<desc>lat.=43.173988, lon.=19.266098, Alt.=784.492676m. Speed=3.456000m/h.</desc>
<speed>0.960000</speed>
</trkpt>
<trkpt lat="43.173943" lon="19.266136">
<ele>784.164551</ele>
<time>2012-04-29T12:56:25Z</time>
<desc>lat.=43.173943, lon.=19.266136, Alt.=784.164551m. Speed=2.772000m/h.</desc>
<speed>0.770000</speed>
</trkpt>
<trkpt lat="43.173874" lon="19.266171">
<ele>784.383301</ele>
<time>2012-04-29T12:56:30Z</time>
<desc>lat.=43.173874, lon.=19.266171, Alt.=784.383301m. Speed=2.880000m/h.</desc>
<speed>0.800000</speed>
</trkpt>
<trkpt lat="43.173847" lon="19.266167">
<ele>783.398926</ele>
<time>2012-04-29T12:56:35Z</time>
<desc>lat.=43.173847, lon.=19.266167, Alt.=783.398926m. Speed=2.376000m/h.</desc>
<speed>0.660000</speed>
</trkpt>
<trkpt lat="43.173847" lon="19.266136">
<ele>783.148926</ele>
<time>2012-04-29T12:56:40Z</time>
<desc>lat.=43.173847, lon.=19.266136, Alt.=783.148926m. Speed=2.700000m/h.</desc>
<speed>0.750000</speed>
</trkpt>
<trkpt lat="43.173840" lon="19.266058">
<ele>784.008301</ele>
<time>2012-04-29T12:56:45Z</time>
<desc>lat.=43.173840, lon.=19.266058, Alt.=784.008301m. Speed=6.012000m/h.</desc>
<speed>1.670000</speed>
</trkpt>
<trkpt lat="43.173847" lon="19.265963">
<ele>786.539551</ele>
<time>2012-04-29T12:56:50Z</time>
<desc>lat.=43.173847, lon.=19.265963, Alt.=786.539551m. Speed=5.544000m/h.</desc>
<speed>1.540000</speed>
</trkpt>
<trkpt lat="43.173866" lon="19.265856">
<ele>787.977051</ele>
<time>2012-04-29T12:56:55Z</time>
<desc>lat.=43.173866, lon.=19.265856, Alt.=787.977051m. Speed=5.220000m/h.</desc>
<speed>1.450000</speed>
</trkpt>
<trkpt lat="43.173908" lon="19.265738">
<ele>792.883301</ele>
<time>2012-04-29T12:57:00Z</time>
<desc>lat.=43.173908, lon.=19.265738, Alt.=792.883301m. Speed=4.320000m/h.</desc>
<speed>1.200000</speed>
</trkpt>
<trkpt lat="43.173916" lon="19.265598">
<ele>796.867676</ele>
<time>2012-04-29T12:57:05Z</time>
<desc>lat.=43.173916, lon.=19.265598, Alt.=796.867676m. Speed=6.840000m/h.</desc>
<speed>1.900000</speed>
</trkpt>
<trkpt lat="43.173824" lon="19.265490">
<ele>798.836426</ele>
<time>2012-04-29T12:57:10Z</time>
<desc>lat.=43.173824, lon.=19.265490, Alt.=798.836426m. Speed=5.760000m/h.</desc>
<speed>1.600000</speed>
</trkpt>
<trkpt lat="43.173748" lon="19.265451">
<ele>800.617676</ele>
<time>2012-04-29T12:57:15Z</time>
<desc>lat.=43.173748, lon.=19.265451, Alt.=800.617676m. Speed=6.804000m/h.</desc>
<speed>1.890000</speed>
</trkpt>
<trkpt lat="43.173641" lon="19.265463">
<ele>802.039551</ele>
<time>2012-04-29T12:57:20Z</time>
<desc>lat.=43.173641, lon.=19.265463, Alt.=802.039551m. Speed=8.064000m/h.</desc>
<speed>2.240000</speed>
</trkpt>
<trkpt lat="43.173542" lon="19.265478">
<ele>802.617676</ele>
<time>2012-04-29T12:57:25Z</time>
<desc>lat.=43.173542, lon.=19.265478, Alt.=802.617676m. Speed=7.560000m/h.</desc>
<speed>2.100000</speed>
</trkpt>
<trkpt lat="43.173450" lon="19.265516">
<ele>802.461426</ele>
<time>2012-04-29T12:57:30Z</time>
<desc>lat.=43.173450, lon.=19.265516, Alt.=802.461426m. Speed=8.424000m/h.</desc>
<speed>2.340000</speed>
</trkpt>
<trkpt lat="43.173347" lon="19.265612">
<ele>803.102051</ele>
<time>2012-04-29T12:57:35Z</time>
<desc>lat.=43.173347, lon.=19.265612, Alt.=803.102051m. Speed=8.856000m/h.</desc>
<speed>2.460000</speed>
</trkpt>
<trkpt lat="43.173256" lon="19.265701">
<ele>803.414551</ele>
<time>2012-04-29T12:57:40Z</time>
<desc>lat.=43.173256, lon.=19.265701, Alt.=803.414551m. Speed=5.760000m/h.</desc>
<speed>1.600000</speed>
</trkpt>
<trkpt lat="43.173180" lon="19.265787">
<ele>804.211426</ele>
<time>2012-04-29T12:57:45Z</time>
<desc>lat.=43.173180, lon.=19.265787, Alt.=804.211426m. Speed=9.468000m/h.</desc>
<speed>2.630000</speed>
</trkpt>
<trkpt lat="43.173100" lon="19.265862">
<ele>804.086426</ele>
<time>2012-04-29T12:57:50Z</time>
<desc>lat.=43.173100, lon.=19.265862, Alt.=804.086426m. Speed=9.972000m/h.</desc>
<speed>2.770000</speed>
</trkpt>
<trkpt lat="43.172966" lon="19.266020">
<ele>803.398926</ele>
<time>2012-04-29T12:57:55Z</time>
<desc>lat.=43.172966, lon.=19.266020, Alt.=803.398926m. Speed=10.116000m/h.</desc>
<speed>2.810000</speed>
</trkpt>
<trkpt lat="43.172871" lon="19.266188">
<ele>803.336426</ele>
<time>2012-04-29T12:58:00Z</time>
<desc>lat.=43.172871, lon.=19.266188, Alt.=803.336426m. Speed=10.872000m/h.</desc>
<speed>3.020000</speed>
</trkpt>
<trkpt lat="43.172810" lon="19.266321">
<ele>804.789551</ele>
<time>2012-04-29T12:58:05Z</time>
<desc>lat.=43.172810, lon.=19.266321, Alt.=804.789551m. Speed=11.124000m/h.</desc>
<speed>3.090000</speed>
</trkpt>
<trkpt lat="43.172779" lon="19.266476">
<ele>805.758301</ele>
<time>2012-04-29T12:58:10Z</time>
<desc>lat.=43.172779, lon.=19.266476, Alt.=805.758301m. Speed=8.532000m/h.</desc>
<speed>2.370000</speed>
</trkpt>
<trkpt lat="43.172756" lon="19.266602">
<ele>806.883301</ele>
<time>2012-04-29T12:58:15Z</time>
<desc>lat.=43.172756, lon.=19.266602, Alt.=806.883301m. Speed=9.072000m/h.</desc>
<speed>2.520000</speed>
</trkpt>
<trkpt lat="43.172726" lon="19.266766">
<ele>807.930176</ele>
<time>2012-04-29T12:58:20Z</time>
<desc>lat.=43.172726, lon.=19.266766, Alt.=807.930176m. Speed=8.424000m/h.</desc>
<speed>2.340000</speed>
</trkpt>
<trkpt lat="43.172714" lon="19.266882">
<ele>808.930176</ele>
<time>2012-04-29T12:58:25Z</time>
<desc>lat.=43.172714, lon.=19.266882, Alt.=808.930176m. Speed=7.740000m/h.</desc>
<speed>2.150000</speed>
</trkpt>
<trkpt lat="43.172699" lon="19.267021">
<ele>809.836426</ele>
<time>2012-04-29T12:58:30Z</time>
<desc>lat.=43.172699, lon.=19.267021, Alt.=809.836426m. Speed=7.884000m/h.</desc>
<speed>2.190000</speed>
</trkpt>
<trkpt lat="43.172684" lon="19.267143">
<ele>810.477051</ele>
<time>2012-04-29T12:58:35Z</time>
<desc>lat.=43.172684, lon.=19.267143, Alt.=810.477051m. Speed=8.820000m/h.</desc>
<speed>2.450000</speed>
</trkpt>
<trkpt lat="43.172676" lon="19.267282">
<ele>811.008301</ele>
<time>2012-04-29T12:58:40Z</time>
<desc>lat.=43.172676, lon.=19.267282, Alt.=811.008301m. Speed=4.572000m/h.</desc>
<speed>1.270000</speed>
</trkpt>
<trkpt lat="43.172665" lon="19.267372">
<ele>811.648926</ele>
<time>2012-04-29T12:58:45Z</time>
<desc>lat.=43.172665, lon.=19.267372, Alt.=811.648926m. Speed=7.200000m/h.</desc>
<speed>2.000000</speed>
</trkpt>
<trkpt lat="43.172619" lon="19.267469">
<ele>812.914551</ele>
<time>2012-04-29T12:58:50Z</time>
<desc>lat.=43.172619, lon.=19.267469, Alt.=812.914551m. Speed=7.848000m/h.</desc>
<speed>2.180000</speed>
</trkpt>
<trkpt lat="43.172523" lon="19.267540">
<ele>814.633301</ele>
<time>2012-04-29T12:58:55Z</time>
<desc>lat.=43.172523, lon.=19.267540, Alt.=814.633301m. Speed=8.100000m/h.</desc>
<speed>2.250000</speed>
</trkpt>
<trkpt lat="43.172424" lon="19.267611">
<ele>816.586426</ele>
<time>2012-04-29T12:59:00Z</time>
<desc>lat.=43.172424, lon.=19.267611, Alt.=816.586426m. Speed=8.064000m/h.</desc>
<speed>2.240000</speed>
</trkpt>
<trkpt lat="43.172321" lon="19.267664">
<ele>818.648926</ele>
<time>2012-04-29T12:59:05Z</time>
<desc>lat.=43.172321, lon.=19.267664, Alt.=818.648926m. Speed=8.136000m/h.</desc>
<speed>2.260000</speed>
</trkpt>
<trkpt lat="43.172230" lon="19.267736">
<ele>820.430176</ele>
<time>2012-04-29T12:59:10Z</time>
<desc>lat.=43.172230, lon.=19.267736, Alt.=820.430176m. Speed=8.676000m/h.</desc>
<speed>2.410000</speed>
</trkpt>
<trkpt lat="43.172142" lon="19.267803">
<ele>822.055176</ele>
<time>2012-04-29T12:59:15Z</time>
<desc>lat.=43.172142, lon.=19.267803, Alt.=822.055176m. Speed=9.360000m/h.</desc>
<speed>2.600000</speed>
</trkpt>
<trkpt lat="43.172058" lon="19.267870">
<ele>822.758301</ele>
<time>2012-04-29T12:59:20Z</time>
<desc>lat.=43.172058, lon.=19.267870, Alt.=822.758301m. Speed=8.064000m/h.</desc>
<speed>2.240000</speed>
</trkpt>
<trkpt lat="43.171974" lon="19.267948">
<ele>823.242676</ele>
<time>2012-04-29T12:59:25Z</time>
<desc>lat.=43.171974, lon.=19.267948, Alt.=823.242676m. Speed=7.056000m/h.</desc>
<speed>1.960000</speed>
</trkpt>
<trkpt lat="43.171890" lon="19.268017">
<ele>823.820801</ele>
<time>2012-04-29T12:59:30Z</time>
<desc>lat.=43.171890, lon.=19.268017, Alt.=823.820801m. Speed=9.000000m/h.</desc>
<speed>2.500000</speed>
</trkpt>
<trkpt lat="43.171791" lon="19.268106">
<ele>824.867676</ele>
<time>2012-04-29T12:59:35Z</time>
<desc>lat.=43.171791, lon.=19.268106, Alt.=824.867676m. Speed=8.280000m/h.</desc>
<speed>2.300000</speed>
</trkpt>
<trkpt lat="43.171719" lon="19.268181">
<ele>825.680176</ele>
<time>2012-04-29T12:59:40Z</time>
<desc>lat.=43.171719, lon.=19.268181, Alt.=825.680176m. Speed=3.600000m/h.</desc>
<speed>1.000000</speed>
</trkpt>
<trkpt lat="43.171650" lon="19.268255">
<ele>827.070801</ele>
<time>2012-04-29T12:59:45Z</time>
<desc>lat.=43.171650, lon.=19.268255, Alt.=827.070801m. Speed=8.280000m/h.</desc>
<speed>2.300000</speed>
</trkpt>
<trkpt lat="43.171566" lon="19.268354">
<ele>829.070801</ele>
<time>2012-04-29T12:59:50Z</time>
<desc>lat.=43.171566, lon.=19.268354, Alt.=829.070801m. Speed=8.244000m/h.</desc>
<speed>2.290000</speed>
</trkpt>
<trkpt lat="43.171520" lon="19.268463">
<ele>829.789551</ele>
<time>2012-04-29T12:59:55Z</time>
<desc>lat.=43.171520, lon.=19.268463, Alt.=829.789551m. Speed=8.208000m/h.</desc>
<speed>2.280000</speed>
</trkpt>
<trkpt lat="43.171478" lon="19.268610">
<ele>830.461426</ele>
<time>2012-04-29T13:00:00Z</time>
<desc>lat.=43.171478, lon.=19.268610, Alt.=830.461426m. Speed=9.756000m/h.</desc>
<speed>2.710000</speed>
</trkpt>
<trkpt lat="43.171474" lon="19.268675">
<ele>830.695801</ele>
<time>2012-04-29T13:00:05Z</time>
<desc>lat.=43.171474, lon.=19.268675, Alt.=830.695801m. Speed=0.036000m/h.</desc>
<speed>0.010000</speed>
</trkpt>
<trkpt lat="43.171478" lon="19.268663">
<ele>830.414551</ele>
<time>2012-04-29T13:00:10Z</time>
<desc>lat.=43.171478, lon.=19.268663, Alt.=830.414551m. Speed=0.036000m/h.</desc>
<speed>0.010000</speed>
</trkpt>
<trkpt lat="43.171478" lon="19.268663">
<ele>830.398926</ele>
<time>2012-04-29T13:00:15Z</time>
<desc>lat.=43.171478, lon.=19.268663, Alt.=830.398926m. Speed=0.252000m/h.</desc>
<speed>0.070000</speed>
</trkpt>
<trkpt lat="43.171471" lon="19.268736">
<ele>830.711426</ele>
<time>2012-04-29T13:00:20Z</time>
<desc>lat.=43.171471, lon.=19.268736, Alt.=830.711426m. Speed=8.424000m/h.</desc>
<speed>2.340000</speed>
</trkpt>
<trkpt lat="43.171436" lon="19.268919">
<ele>831.195801</ele>
<time>2012-04-29T13:00:25Z</time>
<desc>lat.=43.171436, lon.=19.268919, Alt.=831.195801m. Speed=12.996000m/h.</desc>
<speed>3.610000</speed>
</trkpt>
<trkpt lat="43.171387" lon="19.269121">
<ele>831.742676</ele>
<time>2012-04-29T13:00:30Z</time>
<desc>lat.=43.171387, lon.=19.269121, Alt.=831.742676m. Speed=12.132000m/h.</desc>
<speed>3.370000</speed>
</trkpt>
<trkpt lat="43.171329" lon="19.269287">
<ele>832.836426</ele>
<time>2012-04-29T13:00:35Z</time>
<desc>lat.=43.171329, lon.=19.269287, Alt.=832.836426m. Speed=9.324000m/h.</desc>
<speed>2.590000</speed>
</trkpt>
<trkpt lat="43.171288" lon="19.269413">
<ele>833.867676</ele>
<time>2012-04-29T13:00:40Z</time>
<desc>lat.=43.171288, lon.=19.269413, Alt.=833.867676m. Speed=7.488000m/h.</desc>
<speed>2.080000</speed>
</trkpt>
<trkpt lat="43.171234" lon="19.269531">
<ele>835.164551</ele>
<time>2012-04-29T13:00:45Z</time>
<desc>lat.=43.171234, lon.=19.269531, Alt.=835.164551m. Speed=7.092000m/h.</desc>
<speed>1.970000</speed>
</trkpt>
<trkpt lat="43.171154" lon="19.269617">
<ele>835.867676</ele>
<time>2012-04-29T13:00:50Z</time>
<desc>lat.=43.171154, lon.=19.269617, Alt.=835.867676m. Speed=9.720000m/h.</desc>
<speed>2.700000</speed>
</trkpt>
<trkpt lat="43.171059" lon="19.269718">
<ele>837.164551</ele>
<time>2012-04-29T13:00:55Z</time>
<desc>lat.=43.171059, lon.=19.269718, Alt.=837.164551m. Speed=14.184000m/h.</desc>
<speed>3.940000</speed>
</trkpt>
<trkpt lat="43.170933" lon="19.269869">
<ele>838.695801</ele>
<time>2012-04-29T13:01:00Z</time>
<desc>lat.=43.170933, lon.=19.269869, Alt.=838.695801m. Speed=12.852000m/h.</desc>
<speed>3.570000</speed>
</trkpt>
<trkpt lat="43.170780" lon="19.269865">
<ele>838.805176</ele>
<time>2012-04-29T13:01:05Z</time>
<desc>lat.=43.170780, lon.=19.269865, Alt.=838.805176m. Speed=7.992000m/h.</desc>
<speed>2.220000</speed>
</trkpt>
<trkpt lat="43.170677" lon="19.269880">
<ele>839.586426</ele>
<time>2012-04-29T13:01:10Z</time>
<desc>lat.=43.170677, lon.=19.269880, Alt.=839.586426m. Speed=7.020000m/h.</desc>
<speed>1.950000</speed>
</trkpt>
<trkpt lat="43.170570" lon="19.269871">
<ele>839.883301</ele>
<time>2012-04-29T13:01:15Z</time>
<desc>lat.=43.170570, lon.=19.269871, Alt.=839.883301m. Speed=11.556000m/h.</desc>
<speed>3.210000</speed>
</trkpt>
<trkpt lat="43.170441" lon="19.269859">
<ele>841.055176</ele>
<time>2012-04-29T13:01:20Z</time>
<desc>lat.=43.170441, lon.=19.269859, Alt.=841.055176m. Speed=9.756000m/h.</desc>
<speed>2.710000</speed>
</trkpt>
<trkpt lat="43.170303" lon="19.269857">
<ele>843.086426</ele>
<time>2012-04-29T13:01:25Z</time>
<desc>lat.=43.170303, lon.=19.269857, Alt.=843.086426m. Speed=9.324000m/h.</desc>
<speed>2.590000</speed>
</trkpt>
<trkpt lat="43.170174" lon="19.269917">
<ele>846.211426</ele>
<time>2012-04-29T13:01:30Z</time>
<desc>lat.=43.170174, lon.=19.269917, Alt.=846.211426m. Speed=11.628000m/h.</desc>
<speed>3.230000</speed>
</trkpt>
<trkpt lat="43.170025" lon="19.269979">
<ele>848.398926</ele>
<time>2012-04-29T13:01:35Z</time>
<desc>lat.=43.170025, lon.=19.269979, Alt.=848.398926m. Speed=13.860000m/h.</desc>
<speed>3.850000</speed>
</trkpt>
<trkpt lat="43.169819" lon="19.269915">
<ele>851.398926</ele>
<time>2012-04-29T13:01:40Z</time>
<desc>lat.=43.169819, lon.=19.269915, Alt.=851.398926m. Speed=11.592000m/h.</desc>
<speed>3.220000</speed>
</trkpt>
<trkpt lat="43.169643" lon="19.269894">
<ele>853.617676</ele>
<time>2012-04-29T13:01:45Z</time>
<desc>lat.=43.169643, lon.=19.269894, Alt.=853.617676m. Speed=9.576000m/h.</desc>
<speed>2.660000</speed>
</trkpt>
<trkpt lat="43.169518" lon="19.269855">
<ele>859.180176</ele>
<time>2012-04-29T13:01:50Z</time>
<desc>lat.=43.169518, lon.=19.269855, Alt.=859.180176m. Speed=12.168000m/h.</desc>
<speed>3.380000</speed>
</trkpt>
<trkpt lat="43.169407" lon="19.269831">
<ele>865.867676</ele>
<time>2012-04-29T13:01:55Z</time>
<desc>lat.=43.169407, lon.=19.269831, Alt.=865.867676m. Speed=6.840000m/h.</desc>
<speed>1.900000</speed>
</trkpt>
<trkpt lat="43.169323" lon="19.269882">
<ele>868.711426</ele>
<time>2012-04-29T13:02:00Z</time>
<desc>lat.=43.169323, lon.=19.269882, Alt.=868.711426m. Speed=6.192000m/h.</desc>
<speed>1.720000</speed>
</trkpt>
<trkpt lat="43.169308" lon="19.269913">
<ele>871.211426</ele>
<time>2012-04-29T13:02:05Z</time>
<desc>lat.=43.169308, lon.=19.269913, Alt.=871.211426m. Speed=0.252000m/h.</desc>
<speed>0.070000</speed>
</trkpt>
<trkpt lat="43.169300" lon="19.269930">
<ele>872.211426</ele>
<time>2012-04-29T13:02:10Z</time>
<desc>lat.=43.169300, lon.=19.269930, Alt.=872.211426m. Speed=7.704000m/h.</desc>
<speed>2.140000</speed>
</trkpt>
<trkpt lat="43.169258" lon="19.270201">
<ele>872.305176</ele>
<time>2012-04-29T13:02:15Z</time>
<desc>lat.=43.169258, lon.=19.270201, Alt.=872.305176m. Speed=22.320000m/h.</desc>
<speed>6.200000</speed>
</trkpt>
<trkpt lat="43.169270" lon="19.270725">
<ele>869.461426</ele>
<time>2012-04-29T13:02:20Z</time>
<desc>lat.=43.169270, lon.=19.270725, Alt.=869.461426m. Speed=36.467999m/h.</desc>
<speed>10.130000</speed>
</trkpt>
<trkpt lat="43.169220" lon="19.271345">
<ele>869.445801</ele>
<time>2012-04-29T13:02:25Z</time>
<desc>lat.=43.169220, lon.=19.271345, Alt.=869.445801m. Speed=31.572001m/h.</desc>
<speed>8.770000</speed>
</trkpt>
<trkpt lat="43.169044" lon="19.271673">
<ele>873.414551</ele>
<time>2012-04-29T13:02:30Z</time>
<desc>lat.=43.169044, lon.=19.271673, Alt.=873.414551m. Speed=15.300000m/h.</desc>
<speed>4.250000</speed>
</trkpt>
<trkpt lat="43.168968" lon="19.271795">
<ele>876.258301</ele>
<time>2012-04-29T13:02:35Z</time>
<desc>lat.=43.168968, lon.=19.271795, Alt.=876.258301m. Speed=7.740000m/h.</desc>
<speed>2.150000</speed>
</trkpt>
<trkpt lat="43.168919" lon="19.271902">
<ele>878.055176</ele>
<time>2012-04-29T13:02:40Z</time>
<desc>lat.=43.168919, lon.=19.271902, Alt.=878.055176m. Speed=9.000000m/h.</desc>
<speed>2.500000</speed>
</trkpt>
<trkpt lat="43.168896" lon="19.272060">
<ele>879.320801</ele>
<time>2012-04-29T13:02:45Z</time>
<desc>lat.=43.168896, lon.=19.272060, Alt.=879.320801m. Speed=8.784000m/h.</desc>
<speed>2.440000</speed>
</trkpt>
<trkpt lat="43.168892" lon="19.272207">
<ele>880.586426</ele>
<time>2012-04-29T13:02:50Z</time>
<desc>lat.=43.168892, lon.=19.272207, Alt.=880.586426m. Speed=8.640000m/h.</desc>
<speed>2.400000</speed>
</trkpt>
<trkpt lat="43.168873" lon="19.272341">
<ele>881.117676</ele>
<time>2012-04-29T13:02:55Z</time>
<desc>lat.=43.168873, lon.=19.272341, Alt.=881.117676m. Speed=6.372000m/h.</desc>
<speed>1.770000</speed>
</trkpt>
<trkpt lat="43.168854" lon="19.272469">
<ele>880.852051</ele>
<time>2012-04-29T13:03:00Z</time>
<desc>lat.=43.168854, lon.=19.272469, Alt.=880.852051m. Speed=9.432000m/h.</desc>
<speed>2.620000</speed>
</trkpt>
<trkpt lat="43.168804" lon="19.272713">
<ele>879.680176</ele>
<time>2012-04-29T13:03:05Z</time>
<desc>lat.=43.168804, lon.=19.272713, Alt.=879.680176m. Speed=19.007999m/h.</desc>
<speed>5.280000</speed>
</trkpt>
<trkpt lat="43.168736" lon="19.273064">
<ele>879.430176</ele>
<time>2012-04-29T13:03:10Z</time>
<desc>lat.=43.168736, lon.=19.273064, Alt.=879.430176m. Speed=21.600000m/h.</desc>
<speed>6.000000</speed>
</trkpt>
<trkpt lat="43.168701" lon="19.273407">
<ele>879.945801</ele>
<time>2012-04-29T13:03:15Z</time>
<desc>lat.=43.168701, lon.=19.273407, Alt.=879.945801m. Speed=19.836000m/h.</desc>
<speed>5.510000</speed>
</trkpt>
<trkpt lat="43.168644" lon="19.273727">
<ele>880.555176</ele>
<time>2012-04-29T13:03:20Z</time>
<desc>lat.=43.168644, lon.=19.273727, Alt.=880.555176m. Speed=18.936001m/h.</desc>
<speed>5.260000</speed>
</trkpt>
<trkpt lat="43.168530" lon="19.273985">
<ele>881.648926</ele>
<time>2012-04-29T13:03:25Z</time>
<desc>lat.=43.168530, lon.=19.273985, Alt.=881.648926m. Speed=15.768000m/h.</desc>
<speed>4.380000</speed>
</trkpt>
<trkpt lat="43.168430" lon="19.274151">
<ele>882.336426</ele>
<time>2012-04-29T13:03:30Z</time>
<desc>lat.=43.168430, lon.=19.274151, Alt.=882.336426m. Speed=8.892000m/h.</desc>
<speed>2.470000</speed>
</trkpt>
<trkpt lat="43.168362" lon="19.274267">
<ele>882.977051</ele>
<time>2012-04-29T13:03:35Z</time>
<desc>lat.=43.168362, lon.=19.274267, Alt.=882.977051m. Speed=10.152000m/h.</desc>
<speed>2.820000</speed>
</trkpt>
<trkpt lat="43.168301" lon="19.274416">
<ele>883.852051</ele>
<time>2012-04-29T13:03:40Z</time>
<desc>lat.=43.168301, lon.=19.274416, Alt.=883.852051m. Speed=7.848000m/h.</desc>
<speed>2.180000</speed>
</trkpt>
<trkpt lat="43.168259" lon="19.274534">
<ele>884.852051</ele>
<time>2012-04-29T13:03:45Z</time>
<desc>lat.=43.168259, lon.=19.274534, Alt.=884.852051m. Speed=9.828000m/h.</desc>
<speed>2.730000</speed>
</trkpt>
<trkpt lat="43.168221" lon="19.274696">
<ele>885.805176</ele>
<time>2012-04-29T13:03:50Z</time>
<desc>lat.=43.168221, lon.=19.274696, Alt.=885.805176m. Speed=10.980000m/h.</desc>
<speed>3.050000</speed>
</trkpt>
<trkpt lat="43.168198" lon="19.274881">
<ele>886.586426</ele>
<time>2012-04-29T13:03:55Z</time>
<desc>lat.=43.168198, lon.=19.274881, Alt.=886.586426m. Speed=6.048000m/h.</desc>
<speed>1.680000</speed>
</trkpt>
<trkpt lat="43.168163" lon="19.274998">
<ele>887.227051</ele>
<time>2012-04-29T13:04:00Z</time>
<desc>lat.=43.168163, lon.=19.274998, Alt.=887.227051m. Speed=7.344000m/h.</desc>
<speed>2.040000</speed>
</trkpt>
<trkpt lat="43.168110" lon="19.275095">
<ele>886.523926</ele>
<time>2012-04-29T13:04:05Z</time>
<desc>lat.=43.168110, lon.=19.275095, Alt.=886.523926m. Speed=7.704000m/h.</desc>
<speed>2.140000</speed>
</trkpt>
<trkpt lat="43.168091" lon="19.275204">
<ele>887.133301</ele>
<time>2012-04-29T13:04:10Z</time>
<desc>lat.=43.168091, lon.=19.275204, Alt.=887.133301m. Speed=7.200000m/h.</desc>
<speed>2.000000</speed>
</trkpt>
<trkpt lat="43.168140" lon="19.275232">
<ele>888.430176</ele>
<time>2012-04-29T13:04:15Z</time>
<desc>lat.=43.168140, lon.=19.275232, Alt.=888.430176m. Speed=9.072000m/h.</desc>
<speed>2.520000</speed>
</trkpt>
<trkpt lat="43.168213" lon="19.275143">
<ele>888.930176</ele>
<time>2012-04-29T13:04:20Z</time>
<desc>lat.=43.168213, lon.=19.275143, Alt.=888.930176m. Speed=7.452000m/h.</desc>
<speed>2.070000</speed>
</trkpt>
<trkpt lat="43.168301" lon="19.275057">
<ele>889.508301</ele>
<time>2012-04-29T13:04:25Z</time>
<desc>lat.=43.168301, lon.=19.275057, Alt.=889.508301m. Speed=8.712000m/h.</desc>
<speed>2.420000</speed>
</trkpt>
<trkpt lat="43.168377" lon="19.274952">
<ele>889.805176</ele>
<time>2012-04-29T13:04:30Z</time>
<desc>lat.=43.168377, lon.=19.274952, Alt.=889.805176m. Speed=7.452000m/h.</desc>
<speed>2.070000</speed>
</trkpt>
<trkpt lat="43.168434" lon="19.274868">
<ele>890.133301</ele>
<time>2012-04-29T13:04:35Z</time>
<desc>lat.=43.168434, lon.=19.274868, Alt.=890.133301m. Speed=8.784000m/h.</desc>
<speed>2.440000</speed>
</trkpt>
<trkpt lat="43.168526" lon="19.274748">
<ele>891.086426</ele>
<time>2012-04-29T13:04:40Z</time>
<desc>lat.=43.168526, lon.=19.274748, Alt.=891.086426m. Speed=8.244000m/h.</desc>
<speed>2.290000</speed>
</trkpt>
<trkpt lat="43.168552" lon="19.274717">
<ele>890.680176</ele>
<time>2012-04-29T13:04:45Z</time>
<desc>lat.=43.168552, lon.=19.274717, Alt.=890.680176m. Speed=0.072000m/h.</desc>
<speed>0.020000</speed>
</trkpt>
<trkpt lat="43.168552" lon="19.274717">
<ele>890.617676</ele>
<time>2012-04-29T13:04:50Z</time>
<desc>lat.=43.168552, lon.=19.274717, Alt.=890.617676m. Speed=0.036000m/h.</desc>
<speed>0.010000</speed>
</trkpt>
<trkpt lat="43.168552" lon="19.274717">
<ele>890.648926</ele>
<time>2012-04-29T13:04:55Z</time>
<desc>lat.=43.168552, lon.=19.274717, Alt.=890.648926m. Speed=0.000000m/h.</desc>
<speed>0.000000</speed>
</trkpt>
<trkpt lat="43.168552" lon="19.274717">
<ele>890.680176</ele>
<time>2012-04-29T13:05:00Z</time>
<desc>lat.=43.168552, lon.=19.274717, Alt.=890.680176m. Speed=0.000000m/h.</desc>
<speed>0.000000</speed>
</trkpt>
<trkpt lat="43.168552" lon="19.274717">
<ele>890.680176</ele>
<time>2012-04-29T13:05:05Z</time>
<desc>lat.=43.168552, lon.=19.274717, Alt.=890.680176m. Speed=0.036000m/h.</desc>
<speed>0.010000</speed>
</trkpt>
<trkpt lat="43.168552" lon="19.274717">
<ele>890.695801</ele>
<time>2012-04-29T13:05:10Z</time>
<desc>lat.=43.168552, lon.=19.274717, Alt.=890.695801m. Speed=0.000000m/h.</desc>
<speed>0.000000</speed>
</trkpt>
<trkpt lat="43.168552" lon="19.274717">
<ele>890.695801</ele>
<time>2012-04-29T13:05:15Z</time>
<desc>lat.=43.168552, lon.=19.274717, Alt.=890.695801m. Speed=0.036000m/h.</desc>
<speed>0.010000</speed>
</trkpt>
<trkpt lat="43.168549" lon="19.274717">
<ele>890.727051</ele>
<time>2012-04-29T13:05:20Z</time>
<desc>lat.=43.168549, lon.=19.274717, Alt.=890.727051m. Speed=0.000000m/h.</desc>
<speed>0.000000</speed>
</trkpt>
<trkpt lat="43.168549" lon="19.274717">
<ele>890.742676</ele>
<time>2012-04-29T13:05:25Z</time>
<desc>lat.=43.168549, lon.=19.274717, Alt.=890.742676m. Speed=0.000000m/h.</desc>
<speed>0.000000</speed>
</trkpt>
<trkpt lat="43.168549" lon="19.274717">
<ele>890.742676</ele>
<time>2012-04-29T13:05:30Z</time>
<desc>lat.=43.168549, lon.=19.274717, Alt.=890.742676m. Speed=0.000000m/h.</desc>
<speed>0.000000</speed>
</trkpt>
<trkpt lat="43.168549" lon="19.274717">
<ele>890.742676</ele>
<time>2012-04-29T13:05:35Z</time>
<desc>lat.=43.168549, lon.=19.274717, Alt.=890.742676m. Speed=0.000000m/h.</desc>
<speed>0.000000</speed>
</trkpt>
<trkpt lat="43.168549" lon="19.274717">
<ele>890.758301</ele>
<time>2012-04-29T13:05:40Z</time>
<desc>lat.=43.168549, lon.=19.274717, Alt.=890.758301m. Speed=0.000000m/h.</desc>
<speed>0.000000</speed>
</trkpt>
<trkpt lat="43.168549" lon="19.274717">
<ele>890.758301</ele>
<time>2012-04-29T13:05:45Z</time>
<desc>lat.=43.168549, lon.=19.274717, Alt.=890.758301m. Speed=0.000000m/h.</desc>
<speed>0.000000</speed>
</trkpt>
<trkpt lat="43.168549" lon="19.274717">
<ele>890.742676</ele>
<time>2012-04-29T13:05:50Z</time>
<desc>lat.=43.168549, lon.=19.274717, Alt.=890.742676m. Speed=0.000000m/h.</desc>
<speed>0.000000</speed>
</trkpt>
<trkpt lat="43.168549" lon="19.274717">
<ele>890.727051</ele>
<time>2012-04-29T13:05:55Z</time>
<desc>lat.=43.168549, lon.=19.274717, Alt.=890.727051m. Speed=0.000000m/h.</desc>
<speed>0.000000</speed>
</trkpt>
<trkpt lat="43.168549" lon="19.274717">
<ele>890.711426</ele>
<time>2012-04-29T13:06:00Z</time>
<desc>lat.=43.168549, lon.=19.274717, Alt.=890.711426m. Speed=0.000000m/h.</desc>
<speed>0.000000</speed>
</trkpt>
<trkpt lat="43.168549" lon="19.274717">
<ele>890.695801</ele>
<time>2012-04-29T13:06:05Z</time>
<desc>lat.=43.168549, lon.=19.274717, Alt.=890.695801m. Speed=0.000000m/h.</desc>
<speed>0.000000</speed>
</trkpt>
<trkpt lat="43.168549" lon="19.274717">
<ele>890.664551</ele>
<time>2012-04-29T13:06:10Z</time>
<desc>lat.=43.168549, lon.=19.274717, Alt.=890.664551m. Speed=0.000000m/h.</desc>
<speed>0.000000</speed>
</trkpt>
<trkpt lat="43.168549" lon="19.274717">
<ele>890.648926</ele>
<time>2012-04-29T13:06:15Z</time>
<desc>lat.=43.168549, lon.=19.274717, Alt.=890.648926m. Speed=0.000000m/h.</desc>
<speed>0.000000</speed>
</trkpt>
<trkpt lat="43.168549" lon="19.274717">
<ele>890.633301</ele>
<time>2012-04-29T13:06:20Z</time>
<desc>lat.=43.168549, lon.=19.274717, Alt.=890.633301m. Speed=0.000000m/h.</desc>
<speed>0.000000</speed>
</trkpt>
<trkpt lat="43.168549" lon="19.274717">
<ele>890.617676</ele>
<time>2012-04-29T13:06:25Z</time>
<desc>lat.=43.168549, lon.=19.274717, Alt.=890.617676m. Speed=0.000000m/h.</desc>
<speed>0.000000</speed>
</trkpt>
<trkpt lat="43.168549" lon="19.274719">
<ele>890.617676</ele>
<time>2012-04-29T13:06:30Z</time>
<desc>lat.=43.168549, lon.=19.274719, Alt.=890.617676m. Speed=0.000000m/h.</desc>
<speed>0.000000</speed>
</trkpt>
<trkpt lat="43.168552" lon="19.274719">
<ele>890.617676</ele>
<time>2012-04-29T13:06:35Z</time>
<desc>lat.=43.168552, lon.=19.274719, Alt.=890.617676m. Speed=0.000000m/h.</desc>
<speed>0.000000</speed>
</trkpt>
<trkpt lat="43.168552" lon="19.274719">
<ele>890.602051</ele>
<time>2012-04-29T13:06:40Z</time>
<desc>lat.=43.168552, lon.=19.274719, Alt.=890.602051m. Speed=0.000000m/h.</desc>
<speed>0.000000</speed>
</trkpt>
<trkpt lat="43.168552" lon="19.274719">
<ele>890.586426</ele>
<time>2012-04-29T13:06:45Z</time>
<desc>lat.=43.168552, lon.=19.274719, Alt.=890.586426m. Speed=0.000000m/h.</desc>
<speed>0.000000</speed>
</trkpt>
<trkpt lat="43.168552" lon="19.274719">
<ele>890.586426</ele>
<time>2012-04-29T13:06:50Z</time>
<desc>lat.=43.168552, lon.=19.274719, Alt.=890.586426m. Speed=0.000000m/h.</desc>
<speed>0.000000</speed>
</trkpt>
<trkpt lat="43.168552" lon="19.274719">
<ele>890.570801</ele>
<time>2012-04-29T13:06:55Z</time>
<desc>lat.=43.168552, lon.=19.274719, Alt.=890.570801m. Speed=0.000000m/h.</desc>
<speed>0.000000</speed>
</trkpt>
<trkpt lat="43.168552" lon="19.274721">
<ele>890.555176</ele>
<time>2012-04-29T13:07:00Z</time>
<desc>lat.=43.168552, lon.=19.274721, Alt.=890.555176m. Speed=0.036000m/h.</desc>
<speed>0.010000</speed>
</trkpt>
<trkpt lat="43.168552" lon="19.274721">
<ele>890.539551</ele>
<time>2012-04-29T13:07:05Z</time>
<desc>lat.=43.168552, lon.=19.274721, Alt.=890.539551m. Speed=0.000000m/h.</desc>
<speed>0.000000</speed>
</trkpt>
<trkpt lat="43.168552" lon="19.274721">
<ele>890.523926</ele>
<time>2012-04-29T13:07:10Z</time>
<desc>lat.=43.168552, lon.=19.274721, Alt.=890.523926m. Speed=0.000000m/h.</desc>
<speed>0.000000</speed>
</trkpt>
<trkpt lat="43.168552" lon="19.274721">
<ele>890.492676</ele>
<time>2012-04-29T13:07:15Z</time>
<desc>lat.=43.168552, lon.=19.274721, Alt.=890.492676m. Speed=0.036000m/h.</desc>
<speed>0.010000</speed>
</trkpt>
<trkpt lat="43.168552" lon="19.274721">
<ele>890.477051</ele>
<time>2012-04-29T13:07:20Z</time>
<desc>lat.=43.168552, lon.=19.274721, Alt.=890.477051m. Speed=0.000000m/h.</desc>
<speed>0.000000</speed>
</trkpt>
<trkpt lat="43.168552" lon="19.274721">
<ele>890.461426</ele>
<time>2012-04-29T13:07:25Z</time>
<desc>lat.=43.168552, lon.=19.274721, Alt.=890.461426m. Speed=0.000000m/h.</desc>
<speed>0.000000</speed>
</trkpt>
<trkpt lat="43.168552" lon="19.274721">
<ele>890.445801</ele>
<time>2012-04-29T13:07:30Z</time>
<desc>lat.=43.168552, lon.=19.274721, Alt.=890.445801m. Speed=0.000000m/h.</desc>
<speed>0.000000</speed>
</trkpt>
<trkpt lat="43.168552" lon="19.274721">
<ele>890.445801</ele>
<time>2012-04-29T13:07:35Z</time>
<desc>lat.=43.168552, lon.=19.274721, Alt.=890.445801m. Speed=0.036000m/h.</desc>
<speed>0.010000</speed>
</trkpt>
<trkpt lat="43.168552" lon="19.274721">
<ele>890.430176</ele>
<time>2012-04-29T13:07:40Z</time>
<desc>lat.=43.168552, lon.=19.274721, Alt.=890.430176m. Speed=0.036000m/h.</desc>
<speed>0.010000</speed>
</trkpt>
<trkpt lat="43.168552" lon="19.274721">
<ele>890.430176</ele>
<time>2012-04-29T13:07:45Z</time>
<desc>lat.=43.168552, lon.=19.274721, Alt.=890.430176m. Speed=0.036000m/h.</desc>
<speed>0.010000</speed>
</trkpt>
<trkpt lat="43.168552" lon="19.274721">
<ele>890.430176</ele>
<time>2012-04-29T13:07:50Z</time>
<desc>lat.=43.168552, lon.=19.274721, Alt.=890.430176m. Speed=0.036000m/h.</desc>
<speed>0.010000</speed>
</trkpt>
<trkpt lat="43.168552" lon="19.274721">
<ele>890.414551</ele>
<time>2012-04-29T13:07:55Z</time>
<desc>lat.=43.168552, lon.=19.274721, Alt.=890.414551m. Speed=3.672000m/h.</desc>
<speed>1.020000</speed>
</trkpt>
<trkpt lat="43.168617" lon="19.274637">
<ele>890.445801</ele>
<time>2012-04-29T13:08:00Z</time>
<desc>lat.=43.168617, lon.=19.274637, Alt.=890.445801m. Speed=10.152000m/h.</desc>
<speed>2.820000</speed>
</trkpt>
<trkpt lat="43.168713" lon="19.274504">
<ele>891.289551</ele>
<time>2012-04-29T13:08:05Z</time>
<desc>lat.=43.168713, lon.=19.274504, Alt.=891.289551m. Speed=9.396000m/h.</desc>
<speed>2.610000</speed>
</trkpt>
<trkpt lat="43.168755" lon="19.274376">
<ele>893.180176</ele>
<time>2012-04-29T13:08:10Z</time>
<desc>lat.=43.168755, lon.=19.274376, Alt.=893.180176m. Speed=8.784000m/h.</desc>
<speed>2.440000</speed>
</trkpt>
<trkpt lat="43.168819" lon="19.274302">
<ele>893.242676</ele>
<time>2012-04-29T13:08:15Z</time>
<desc>lat.=43.168819, lon.=19.274302, Alt.=893.242676m. Speed=0.468000m/h.</desc>
<speed>0.130000</speed>
</trkpt>
<trkpt lat="43.168831" lon="19.274290">
<ele>893.289551</ele>
<time>2012-04-29T13:08:20Z</time>
<desc>lat.=43.168831, lon.=19.274290, Alt.=893.289551m. Speed=5.076000m/h.</desc>
<speed>1.410000</speed>
</trkpt>
<trkpt lat="43.168896" lon="19.274191">
<ele>895.180176</ele>
<time>2012-04-29T13:08:25Z</time>
<desc>lat.=43.168896, lon.=19.274191, Alt.=895.180176m. Speed=7.308000m/h.</desc>
<speed>2.030000</speed>
</trkpt>
<trkpt lat="43.168968" lon="19.274088">
<ele>895.523926</ele>
<time>2012-04-29T13:08:30Z</time>
<desc>lat.=43.168968, lon.=19.274088, Alt.=895.523926m. Speed=7.668000m/h.</desc>
<speed>2.130000</speed>
</trkpt>
<trkpt lat="43.169029" lon="19.273991">
<ele>895.383301</ele>
<time>2012-04-29T13:08:35Z</time>
<desc>lat.=43.169029, lon.=19.273991, Alt.=895.383301m. Speed=6.876000m/h.</desc>
<speed>1.910000</speed>
</trkpt>
<trkpt lat="43.169083" lon="19.273882">
<ele>895.680176</ele>
<time>2012-04-29T13:08:40Z</time>
<desc>lat.=43.169083, lon.=19.273882, Alt.=895.680176m. Speed=7.128000m/h.</desc>
<speed>1.980000</speed>
</trkpt>
<trkpt lat="43.169136" lon="19.273766">
<ele>896.164551</ele>
<time>2012-04-29T13:08:45Z</time>
<desc>lat.=43.169136, lon.=19.273766, Alt.=896.164551m. Speed=6.912000m/h.</desc>
<speed>1.920000</speed>
</trkpt>
<trkpt lat="43.169182" lon="19.273643">
<ele>896.883301</ele>
<time>2012-04-29T13:08:50Z</time>
<desc>lat.=43.169182, lon.=19.273643, Alt.=896.883301m. Speed=8.460000m/h.</desc>
<speed>2.350000</speed>
</trkpt>
<trkpt lat="43.169220" lon="19.273502">
<ele>899.102051</ele>
<time>2012-04-29T13:08:55Z</time>
<desc>lat.=43.169220, lon.=19.273502, Alt.=899.102051m. Speed=8.352000m/h.</desc>
<speed>2.320000</speed>
</trkpt>
<trkpt lat="43.169254" lon="19.273392">
<ele>900.023926</ele>
<time>2012-04-29T13:09:00Z</time>
<desc>lat.=43.169254, lon.=19.273392, Alt.=900.023926m. Speed=6.804000m/h.</desc>
<speed>1.890000</speed>
</trkpt>
<trkpt lat="43.169308" lon="19.273296">
<ele>901.133301</ele>
<time>2012-04-29T13:09:05Z</time>
<desc>lat.=43.169308, lon.=19.273296, Alt.=901.133301m. Speed=8.568000m/h.</desc>
<speed>2.380000</speed>
</trkpt>
<trkpt lat="43.169357" lon="19.273167">
<ele>902.727051</ele>
<time>2012-04-29T13:09:10Z</time>
<desc>lat.=43.169357, lon.=19.273167, Alt.=902.727051m. Speed=8.604000m/h.</desc>
<speed>2.390000</speed>
</trkpt>
<trkpt lat="43.169430" lon="19.273014">
<ele>904.680176</ele>
<time>2012-04-29T13:09:15Z</time>
<desc>lat.=43.169430, lon.=19.273014, Alt.=904.680176m. Speed=11.772000m/h.</desc>
<speed>3.270000</speed>
</trkpt>
<trkpt lat="43.169491" lon="19.272881">
<ele>906.164551</ele>
<time>2012-04-29T13:09:20Z</time>
<desc>lat.=43.169491, lon.=19.272881, Alt.=906.164551m. Speed=6.444000m/h.</desc>
<speed>1.790000</speed>
</trkpt>
<trkpt lat="43.169544" lon="19.272774">
<ele>907.570801</ele>
<time>2012-04-29T13:09:25Z</time>
<desc>lat.=43.169544, lon.=19.272774, Alt.=907.570801m. Speed=9.396000m/h.</desc>
<speed>2.610000</speed>
</trkpt>
<trkpt lat="43.169605" lon="19.272699">
<ele>908.570801</ele>
<time>2012-04-29T13:09:30Z</time>
<desc>lat.=43.169605, lon.=19.272699, Alt.=908.570801m. Speed=5.868000m/h.</desc>
<speed>1.630000</speed>
</trkpt>
<trkpt lat="43.169670" lon="19.272614">
<ele>909.320801</ele>
<time>2012-04-29T13:09:35Z</time>
<desc>lat.=43.169670, lon.=19.272614, Alt.=909.320801m. Speed=8.748000m/h.</desc>
<speed>2.430000</speed>
</trkpt>
<trkpt lat="43.169754" lon="19.272537">
<ele>909.820801</ele>
<time>2012-04-29T13:09:40Z</time>
<desc>lat.=43.169754, lon.=19.272537, Alt.=909.820801m. Speed=8.172000m/h.</desc>
<speed>2.270000</speed>
</trkpt>
<trkpt lat="43.169842" lon="19.272469">
<ele>910.570801</ele>
<time>2012-04-29T13:09:45Z</time>
<desc>lat.=43.169842, lon.=19.272469, Alt.=910.570801m. Speed=8.208000m/h.</desc>
<speed>2.280000</speed>
</trkpt>
<trkpt lat="43.169937" lon="19.272394">
<ele>910.930176</ele>
<time>2012-04-29T13:09:50Z</time>
<desc>lat.=43.169937, lon.=19.272394, Alt.=910.930176m. Speed=7.704000m/h.</desc>
<speed>2.140000</speed>
</trkpt>
<trkpt lat="43.170029" lon="19.272329">
<ele>911.789551</ele>
<time>2012-04-29T13:09:55Z</time>
<desc>lat.=43.170029, lon.=19.272329, Alt.=911.789551m. Speed=7.920000m/h.</desc>
<speed>2.200000</speed>
</trkpt>
<trkpt lat="43.170116" lon="19.272264">
<ele>912.773926</ele>
<time>2012-04-29T13:10:00Z</time>
<desc>lat.=43.170116, lon.=19.272264, Alt.=912.773926m. Speed=7.164000m/h.</desc>
<speed>1.990000</speed>
</trkpt>
<trkpt lat="43.170189" lon="19.272207">
<ele>913.680176</ele>
<time>2012-04-29T13:10:05Z</time>
<desc>lat.=43.170189, lon.=19.272207, Alt.=913.680176m. Speed=7.488000m/h.</desc>
<speed>2.080000</speed>
</trkpt>
<trkpt lat="43.170288" lon="19.272154">
<ele>914.180176</ele>
<time>2012-04-29T13:10:10Z</time>
<desc>lat.=43.170288, lon.=19.272154, Alt.=914.180176m. Speed=9.396000m/h.</desc>
<speed>2.610000</speed>
</trkpt>
<trkpt lat="43.170391" lon="19.272123">
<ele>914.555176</ele>
<time>2012-04-29T13:10:15Z</time>
<desc>lat.=43.170391, lon.=19.272123, Alt.=914.555176m. Speed=7.164000m/h.</desc>
<speed>1.990000</speed>
</trkpt>
<trkpt lat="43.170486" lon="19.272099">
<ele>914.914551</ele>
<time>2012-04-29T13:10:20Z</time>
<desc>lat.=43.170486, lon.=19.272099, Alt.=914.914551m. Speed=6.480000m/h.</desc>
<speed>1.800000</speed>
</trkpt>
<trkpt lat="43.170601" lon="19.272015">
<ele>916.883301</ele>
<time>2012-04-29T13:10:25Z</time>
<desc>lat.=43.170601, lon.=19.272015, Alt.=916.883301m. Speed=8.280000m/h.</desc>
<speed>2.300000</speed>
</trkpt>
<trkpt lat="43.170696" lon="19.271931">
<ele>919.289551</ele>
<time>2012-04-29T13:10:30Z</time>
<desc>lat.=43.170696, lon.=19.271931, Alt.=919.289551m. Speed=8.460000m/h.</desc>
<speed>2.350000</speed>
</trkpt>
<trkpt lat="43.170788" lon="19.271837">
<ele>921.555176</ele>
<time>2012-04-29T13:10:35Z</time>
<desc>lat.=43.170788, lon.=19.271837, Alt.=921.555176m. Speed=9.648000m/h.</desc>
<speed>2.680000</speed>
</trkpt>
<trkpt lat="43.170887" lon="19.271797">
<ele>924.023926</ele>
<time>2012-04-29T13:10:40Z</time>
<desc>lat.=43.170887, lon.=19.271797, Alt.=924.023926m. Speed=8.424000m/h.</desc>
<speed>2.340000</speed>
</trkpt>
<trkpt lat="43.170971" lon="19.271734">
<ele>925.602051</ele>
<time>2012-04-29T13:10:45Z</time>
<desc>lat.=43.170971, lon.=19.271734, Alt.=925.602051m. Speed=6.984000m/h.</desc>
<speed>1.940000</speed>
</trkpt>
<trkpt lat="43.171066" lon="19.271683">
<ele>926.352051</ele>
<time>2012-04-29T13:10:50Z</time>
<desc>lat.=43.171066, lon.=19.271683, Alt.=926.352051m. Speed=8.712000m/h.</desc>
<speed>2.420000</speed>
</trkpt>
<trkpt lat="43.171200" lon="19.271658">
<ele>927.383301</ele>
<time>2012-04-29T13:10:55Z</time>
<desc>lat.=43.171200, lon.=19.271658, Alt.=927.383301m. Speed=9.144000m/h.</desc>
<speed>2.540000</speed>
</trkpt>
<trkpt lat="43.171249" lon="19.271645">
<ele>927.555176</ele>
<time>2012-04-29T13:11:00Z</time>
<desc>lat.=43.171249, lon.=19.271645, Alt.=927.555176m. Speed=4.176000m/h.</desc>
<speed>1.160000</speed>
</trkpt>
<trkpt lat="43.171368" lon="19.271624">
<ele>927.852051</ele>
<time>2012-04-29T13:11:05Z</time>
<desc>lat.=43.171368, lon.=19.271624, Alt.=927.852051m. Speed=7.848000m/h.</desc>
<speed>2.180000</speed>
</trkpt>
<trkpt lat="43.171471" lon="19.271597">
<ele>928.383301</ele>
<time>2012-04-29T13:11:10Z</time>
<desc>lat.=43.171471, lon.=19.271597, Alt.=928.383301m. Speed=4.572000m/h.</desc>
<speed>1.270000</speed>
</trkpt>
<trkpt lat="43.171581" lon="19.271563">
<ele>928.414551</ele>
<time>2012-04-29T13:11:15Z</time>
<desc>lat.=43.171581, lon.=19.271563, Alt.=928.414551m. Speed=10.188000m/h.</desc>
<speed>2.830000</speed>
</trkpt>
<trkpt lat="43.171680" lon="19.271570">
<ele>928.164551</ele>
<time>2012-04-29T13:11:20Z</time>
<desc>lat.=43.171680, lon.=19.271570, Alt.=928.164551m. Speed=8.532000m/h.</desc>
<speed>2.370000</speed>
</trkpt>
<trkpt lat="43.171795" lon="19.271605">
<ele>928.914551</ele>
<time>2012-04-29T13:11:25Z</time>
<desc>lat.=43.171795, lon.=19.271605, Alt.=928.914551m. Speed=8.640000m/h.</desc>
<speed>2.400000</speed>
</trkpt>
<trkpt lat="43.171894" lon="19.271633">
<ele>929.273926</ele>
<time>2012-04-29T13:11:30Z</time>
<desc>lat.=43.171894, lon.=19.271633, Alt.=929.273926m. Speed=6.984000m/h.</desc>
<speed>1.940000</speed>
</trkpt>
<trkpt lat="43.171986" lon="19.271637">
<ele>929.758301</ele>
<time>2012-04-29T13:11:35Z</time>
<desc>lat.=43.171986, lon.=19.271637, Alt.=929.758301m. Speed=4.500000m/h.</desc>
<speed>1.250000</speed>
</trkpt>
<trkpt lat="43.172119" lon="19.271517">
<ele>931.367676</ele>
<time>2012-04-29T13:11:40Z</time>
<desc>lat.=43.172119, lon.=19.271517, Alt.=931.367676m. Speed=9.036000m/h.</desc>
<speed>2.510000</speed>
</trkpt>
<trkpt lat="43.172195" lon="19.271374">
<ele>930.586426</ele>
<time>2012-04-29T13:11:45Z</time>
<desc>lat.=43.172195, lon.=19.271374, Alt.=930.586426m. Speed=8.676000m/h.</desc>
<speed>2.410000</speed>
</trkpt>
<trkpt lat="43.172276" lon="19.271246">
<ele>931.133301</ele>
<time>2012-04-29T13:11:50Z</time>
<desc>lat.=43.172276, lon.=19.271246, Alt.=931.133301m. Speed=8.604000m/h.</desc>
<speed>2.390000</speed>
</trkpt>
<trkpt lat="43.172359" lon="19.271141">
<ele>931.992676</ele>
<time>2012-04-29T13:11:55Z</time>
<desc>lat.=43.172359, lon.=19.271141, Alt.=931.992676m. Speed=9.180000m/h.</desc>
<speed>2.550000</speed>
</trkpt>
<trkpt lat="43.172470" lon="19.271067">
<ele>933.898926</ele>
<time>2012-04-29T13:12:00Z</time>
<desc>lat.=43.172470, lon.=19.271067, Alt.=933.898926m. Speed=9.252000m/h.</desc>
<speed>2.570000</speed>
</trkpt>
<trkpt lat="43.172588" lon="19.271044">
<ele>934.242676</ele>
<time>2012-04-29T13:12:05Z</time>
<desc>lat.=43.172588, lon.=19.271044, Alt.=934.242676m. Speed=8.460000m/h.</desc>
<speed>2.350000</speed>
</trkpt>
<trkpt lat="43.172691" lon="19.271025">
<ele>935.242676</ele>
<time>2012-04-29T13:12:10Z</time>
<desc>lat.=43.172691, lon.=19.271025, Alt.=935.242676m. Speed=7.992000m/h.</desc>
<speed>2.220000</speed>
</trkpt>
<trkpt lat="43.172775" lon="19.271000">
<ele>936.070801</ele>
<time>2012-04-29T13:12:15Z</time>
<desc>lat.=43.172775, lon.=19.271000, Alt.=936.070801m. Speed=7.992000m/h.</desc>
<speed>2.220000</speed>
</trkpt>
<trkpt lat="43.172878" lon="19.270960">
<ele>937.805176</ele>
<time>2012-04-29T13:12:20Z</time>
<desc>lat.=43.172878, lon.=19.270960, Alt.=937.805176m. Speed=8.604000m/h.</desc>
<speed>2.390000</speed>
</trkpt>
<trkpt lat="43.172985" lon="19.270926">
<ele>936.914551</ele>
<time>2012-04-29T13:12:25Z</time>
<desc>lat.=43.172985, lon.=19.270926, Alt.=936.914551m. Speed=9.648000m/h.</desc>
<speed>2.680000</speed>
</trkpt>
<trkpt lat="43.173092" lon="19.270895">
<ele>936.711426</ele>
<time>2012-04-29T13:12:30Z</time>
<desc>lat.=43.173092, lon.=19.270895, Alt.=936.711426m. Speed=8.064000m/h.</desc>
<speed>2.240000</speed>
</trkpt>
<trkpt lat="43.173191" lon="19.270882">
<ele>936.586426</ele>
<time>2012-04-29T13:12:35Z</time>
<desc>lat.=43.173191, lon.=19.270882, Alt.=936.586426m. Speed=8.244000m/h.</desc>
<speed>2.290000</speed>
</trkpt>
<trkpt lat="43.173275" lon="19.270897">
<ele>936.367676</ele>
<time>2012-04-29T13:12:40Z</time>
<desc>lat.=43.173275, lon.=19.270897, Alt.=936.367676m. Speed=7.776000m/h.</desc>
<speed>2.160000</speed>
</trkpt>
<trkpt lat="43.173351" lon="19.270927">
<ele>935.914551</ele>
<time>2012-04-29T13:12:45Z</time>
<desc>lat.=43.173351, lon.=19.270927, Alt.=935.914551m. Speed=3.600000m/h.</desc>
<speed>1.000000</speed>
</trkpt>
<trkpt lat="43.173416" lon="19.270906">
<ele>936.695801</ele>
<time>2012-04-29T13:12:50Z</time>
<desc>lat.=43.173416, lon.=19.270906, Alt.=936.695801m. Speed=5.544000m/h.</desc>
<speed>1.540000</speed>
</trkpt>
<trkpt lat="43.173485" lon="19.270872">
<ele>941.102051</ele>
<time>2012-04-29T13:12:55Z</time>
<desc>lat.=43.173485, lon.=19.270872, Alt.=941.102051m. Speed=3.312000m/h.</desc>
<speed>0.920000</speed>
</trkpt>
<trkpt lat="43.173534" lon="19.270838">
<ele>943.805176</ele>
<time>2012-04-29T13:13:00Z</time>
<desc>lat.=43.173534, lon.=19.270838, Alt.=943.805176m. Speed=5.256000m/h.</desc>
<speed>1.460000</speed>
</trkpt>
<trkpt lat="43.173569" lon="19.270748">
<ele>943.633301</ele>
<time>2012-04-29T13:13:05Z</time>
<desc>lat.=43.173569, lon.=19.270748, Alt.=943.633301m. Speed=12.708000m/h.</desc>
<speed>3.530000</speed>
</trkpt>
<trkpt lat="43.173611" lon="19.270653">
<ele>945.367676</ele>
<time>2012-04-29T13:13:10Z</time>
<desc>lat.=43.173611, lon.=19.270653, Alt.=945.367676m. Speed=6.408000m/h.</desc>
<speed>1.780000</speed>
</trkpt>
<trkpt lat="43.173668" lon="19.270571">
<ele>947.336426</ele>
<time>2012-04-29T13:13:15Z</time>
<desc>lat.=43.173668, lon.=19.270571, Alt.=947.336426m. Speed=5.724000m/h.</desc>
<speed>1.590000</speed>
</trkpt>
<trkpt lat="43.173721" lon="19.270496">
<ele>948.836426</ele>
<time>2012-04-29T13:13:20Z</time>
<desc>lat.=43.173721, lon.=19.270496, Alt.=948.836426m. Speed=6.408000m/h.</desc>
<speed>1.780000</speed>
</trkpt>
<trkpt lat="43.173779" lon="19.270428">
<ele>949.898926</ele>
<time>2012-04-29T13:13:25Z</time>
<desc>lat.=43.173779, lon.=19.270428, Alt.=949.898926m. Speed=5.508000m/h.</desc>
<speed>1.530000</speed>
</trkpt>
<trkpt lat="43.173836" lon="19.270361">
<ele>950.336426</ele>
<time>2012-04-29T13:13:30Z</time>
<desc>lat.=43.173836, lon.=19.270361, Alt.=950.336426m. Speed=5.724000m/h.</desc>
<speed>1.590000</speed>
</trkpt>
<trkpt lat="43.173893" lon="19.270306">
<ele>952.008301</ele>
<time>2012-04-29T13:13:35Z</time>
<desc>lat.=43.173893, lon.=19.270306, Alt.=952.008301m. Speed=6.444000m/h.</desc>
<speed>1.790000</speed>
</trkpt>
<trkpt lat="43.173965" lon="19.270235">
<ele>953.648926</ele>
<time>2012-04-29T13:13:40Z</time>
<desc>lat.=43.173965, lon.=19.270235, Alt.=953.648926m. Speed=6.696000m/h.</desc>
<speed>1.860000</speed>
</trkpt>
<trkpt lat="43.174046" lon="19.270176">
<ele>954.398926</ele>
<time>2012-04-29T13:13:45Z</time>
<desc>lat.=43.174046, lon.=19.270176, Alt.=954.398926m. Speed=7.128000m/h.</desc>
<speed>1.980000</speed>
</trkpt>
<trkpt lat="43.174126" lon="19.270124">
<ele>956.195801</ele>
<time>2012-04-29T13:13:50Z</time>
<desc>lat.=43.174126, lon.=19.270124, Alt.=956.195801m. Speed=7.056000m/h.</desc>
<speed>1.960000</speed>
</trkpt>
<trkpt lat="43.174202" lon="19.270065">
<ele>958.023926</ele>
<time>2012-04-29T13:13:55Z</time>
<desc>lat.=43.174202, lon.=19.270065, Alt.=958.023926m. Speed=7.632000m/h.</desc>
<speed>2.120000</speed>
</trkpt>
<trkpt lat="43.174274" lon="19.269987">
<ele>959.664551</ele>
<time>2012-04-29T13:14:00Z</time>
<desc>lat.=43.174274, lon.=19.269987, Alt.=959.664551m. Speed=7.488000m/h.</desc>
<speed>2.080000</speed>
</trkpt>
<trkpt lat="43.174366" lon="19.269928">
<ele>962.195801</ele>
<time>2012-04-29T13:14:05Z</time>
<desc>lat.=43.174366, lon.=19.269928, Alt.=962.195801m. Speed=9.324000m/h.</desc>
<speed>2.590000</speed>
</trkpt>
<trkpt lat="43.174465" lon="19.269928">
<ele>963.867676</ele>
<time>2012-04-29T13:14:10Z</time>
<desc>lat.=43.174465, lon.=19.269928, Alt.=963.867676m. Speed=5.976000m/h.</desc>
<speed>1.660000</speed>
</trkpt>
<trkpt lat="43.174564" lon="19.269955">
<ele>963.727051</ele>
<time>2012-04-29T13:14:15Z</time>
<desc>lat.=43.174564, lon.=19.269955, Alt.=963.727051m. Speed=7.956000m/h.</desc>
<speed>2.210000</speed>
</trkpt>
<trkpt lat="43.174679" lon="19.269976">
<ele>963.086426</ele>
<time>2012-04-29T13:14:20Z</time>
<desc>lat.=43.174679, lon.=19.269976, Alt.=963.086426m. Speed=7.380000m/h.</desc>
<speed>2.050000</speed>
</trkpt>
<trkpt lat="43.174744" lon="19.269981">
<ele>966.211426</ele>
<time>2012-04-29T13:14:25Z</time>
<desc>lat.=43.174744, lon.=19.269981, Alt.=966.211426m. Speed=8.856000m/h.</desc>
<speed>2.460000</speed>
</trkpt>
<trkpt lat="43.174831" lon="19.269970">
<ele>968.430176</ele>
<time>2012-04-29T13:14:30Z</time>
<desc>lat.=43.174831, lon.=19.269970, Alt.=968.430176m. Speed=8.820000m/h.</desc>
<speed>2.450000</speed>
</trkpt>
<trkpt lat="43.174946" lon="19.269884">
<ele>971.680176</ele>
<time>2012-04-29T13:14:35Z</time>
<desc>lat.=43.174946, lon.=19.269884, Alt.=971.680176m. Speed=11.880000m/h.</desc>
<speed>3.300000</speed>
</trkpt>
<trkpt lat="43.175068" lon="19.269791">
<ele>974.711426</ele>
<time>2012-04-29T13:14:40Z</time>
<desc>lat.=43.175068, lon.=19.269791, Alt.=974.711426m. Speed=9.648000m/h.</desc>
<speed>2.680000</speed>
</trkpt>
<trkpt lat="43.175167" lon="19.269711">
<ele>976.227051</ele>
<time>2012-04-29T13:14:45Z</time>
<desc>lat.=43.175167, lon.=19.269711, Alt.=976.227051m. Speed=5.940000m/h.</desc>
<speed>1.650000</speed>
</trkpt>
<trkpt lat="43.175278" lon="19.269617">
<ele>976.992676</ele>
<time>2012-04-29T13:14:50Z</time>
<desc>lat.=43.175278, lon.=19.269617, Alt.=976.992676m. Speed=10.296000m/h.</desc>
<speed>2.860000</speed>
</trkpt>
<trkpt lat="43.175392" lon="19.269604">
<ele>976.898926</ele>
<time>2012-04-29T13:14:55Z</time>
<desc>lat.=43.175392, lon.=19.269604, Alt.=976.898926m. Speed=7.560000m/h.</desc>
<speed>2.100000</speed>
</trkpt>
<trkpt lat="43.175457" lon="19.269558">
<ele>976.102051</ele>
<time>2012-04-29T13:15:00Z</time>
<desc>lat.=43.175457, lon.=19.269558, Alt.=976.102051m. Speed=5.364000m/h.</desc>
<speed>1.490000</speed>
</trkpt>
<trkpt lat="43.175522" lon="19.269543">
<ele>974.617676</ele>
<time>2012-04-29T13:15:05Z</time>
<desc>lat.=43.175522, lon.=19.269543, Alt.=974.617676m. Speed=3.960000m/h.</desc>
<speed>1.100000</speed>
</trkpt>
<trkpt lat="43.175564" lon="19.269520">
<ele>973.289551</ele>
<time>2012-04-29T13:15:10Z</time>
<desc>lat.=43.175564, lon.=19.269520, Alt.=973.289551m. Speed=3.348000m/h.</desc>
<speed>0.930000</speed>
</trkpt>
<trkpt lat="43.175632" lon="19.269497">
<ele>972.555176</ele>
<time>2012-04-29T13:15:15Z</time>
<desc>lat.=43.175632, lon.=19.269497, Alt.=972.555176m. Speed=5.076000m/h.</desc>
<speed>1.410000</speed>
</trkpt>
<trkpt lat="43.175713" lon="19.269449">
<ele>970.211426</ele>
<time>2012-04-29T13:15:20Z</time>
<desc>lat.=43.175713, lon.=19.269449, Alt.=970.211426m. Speed=4.824000m/h.</desc>
<speed>1.340000</speed>
</trkpt>
<trkpt lat="43.175762" lon="19.269382">
<ele>970.070801</ele>
<time>2012-04-29T13:15:25Z</time>
<desc>lat.=43.175762, lon.=19.269382, Alt.=970.070801m. Speed=3.780000m/h.</desc>
<speed>1.050000</speed>
</trkpt>
<trkpt lat="43.175781" lon="19.269289">
<ele>972.102051</ele>
<time>2012-04-29T13:15:30Z</time>
<desc>lat.=43.175781, lon.=19.269289, Alt.=972.102051m. Speed=5.004000m/h.</desc>
<speed>1.390000</speed>
</trkpt>
<trkpt lat="43.175827" lon="19.269207">
<ele>974.367676</ele>
<time>2012-04-29T13:15:35Z</time>
<desc>lat.=43.175827, lon.=19.269207, Alt.=974.367676m. Speed=6.300000m/h.</desc>
<speed>1.750000</speed>
</trkpt>
<trkpt lat="43.175900" lon="19.269140">
<ele>976.273926</ele>
<time>2012-04-29T13:15:40Z</time>
<desc>lat.=43.175900, lon.=19.269140, Alt.=976.273926m. Speed=8.136000m/h.</desc>
<speed>2.260000</speed>
</trkpt>
<trkpt lat="43.175999" lon="19.269100">
<ele>976.852051</ele>
<time>2012-04-29T13:15:45Z</time>
<desc>lat.=43.175999, lon.=19.269100, Alt.=976.852051m. Speed=10.368000m/h.</desc>
<speed>2.880000</speed>
</trkpt>
<trkpt lat="43.176136" lon="19.269091">
<ele>979.508301</ele>
<time>2012-04-29T13:15:50Z</time>
<desc>lat.=43.176136, lon.=19.269091, Alt.=979.508301m. Speed=6.948000m/h.</desc>
<speed>1.930000</speed>
</trkpt>
<trkpt lat="43.176281" lon="19.269056">
<ele>981.648926</ele>
<time>2012-04-29T13:15:55Z</time>
<desc>lat.=43.176281, lon.=19.269056, Alt.=981.648926m. Speed=10.800000m/h.</desc>
<speed>3.000000</speed>
</trkpt>
<trkpt lat="43.176434" lon="19.269030">
<ele>982.758301</ele>
<time>2012-04-29T13:16:00Z</time>
<desc>lat.=43.176434, lon.=19.269030, Alt.=982.758301m. Speed=12.312000m/h.</desc>
<speed>3.420000</speed>
</trkpt>
<trkpt lat="43.176571" lon="19.268986">
<ele>984.148926</ele>
<time>2012-04-29T13:16:05Z</time>
<desc>lat.=43.176571, lon.=19.268986, Alt.=984.148926m. Speed=8.748000m/h.</desc>
<speed>2.430000</speed>
</trkpt>
<trkpt lat="43.176659" lon="19.268860">
<ele>984.992676</ele>
<time>2012-04-29T13:16:10Z</time>
<desc>lat.=43.176659, lon.=19.268860, Alt.=984.992676m. Speed=10.584000m/h.</desc>
<speed>2.940000</speed>
</trkpt>
<trkpt lat="43.176701" lon="19.268681">
<ele>986.086426</ele>
<time>2012-04-29T13:16:15Z</time>
<desc>lat.=43.176701, lon.=19.268681, Alt.=986.086426m. Speed=12.240000m/h.</desc>
<speed>3.400000</speed>
</trkpt>
<trkpt lat="43.176788" lon="19.268496">
<ele>986.086426</ele>
<time>2012-04-29T13:16:20Z</time>
<desc>lat.=43.176788, lon.=19.268496, Alt.=986.086426m. Speed=8.712000m/h.</desc>
<speed>2.420000</speed>
</trkpt>
<trkpt lat="43.176849" lon="19.268358">
<ele>986.805176</ele>
<time>2012-04-29T13:16:25Z</time>
<desc>lat.=43.176849, lon.=19.268358, Alt.=986.805176m. Speed=9.612000m/h.</desc>
<speed>2.670000</speed>
</trkpt>
<trkpt lat="43.176945" lon="19.268286">
<ele>987.742676</ele>
<time>2012-04-29T13:16:30Z</time>
<desc>lat.=43.176945, lon.=19.268286, Alt.=987.742676m. Speed=8.280000m/h.</desc>
<speed>2.300000</speed>
</trkpt>
<trkpt lat="43.177059" lon="19.268293">
<ele>988.383301</ele>
<time>2012-04-29T13:16:35Z</time>
<desc>lat.=43.177059, lon.=19.268293, Alt.=988.383301m. Speed=7.668000m/h.</desc>
<speed>2.130000</speed>
</trkpt>
<trkpt lat="43.177139" lon="19.268328">
<ele>988.352051</ele>
<time>2012-04-29T13:16:40Z</time>
<desc>lat.=43.177139, lon.=19.268328, Alt.=988.352051m. Speed=6.480000m/h.</desc>
<speed>1.800000</speed>
</trkpt>
<trkpt lat="43.177231" lon="19.268391">
<ele>985.867676</ele>
<time>2012-04-29T13:16:45Z</time>
<desc>lat.=43.177231, lon.=19.268391, Alt.=985.867676m. Speed=6.120000m/h.</desc>
<speed>1.700000</speed>
</trkpt>
<trkpt lat="43.177319" lon="19.268505">
<ele>985.961426</ele>
<time>2012-04-29T13:16:50Z</time>
<desc>lat.=43.177319, lon.=19.268505, Alt.=985.961426m. Speed=7.812000m/h.</desc>
<speed>2.170000</speed>
</trkpt>
<trkpt lat="43.177410" lon="19.268587">
<ele>985.367676</ele>
<time>2012-04-29T13:16:55Z</time>
<desc>lat.=43.177410, lon.=19.268587, Alt.=985.367676m. Speed=6.300000m/h.</desc>
<speed>1.750000</speed>
</trkpt>
<trkpt lat="43.177502" lon="19.268591">
<ele>984.352051</ele>
<time>2012-04-29T13:17:00Z</time>
<desc>lat.=43.177502, lon.=19.268591, Alt.=984.352051m. Speed=5.796000m/h.</desc>
<speed>1.610000</speed>
</trkpt>
<trkpt lat="43.177605" lon="19.268572">
<ele>986.992676</ele>
<time>2012-04-29T13:17:05Z</time>
<desc>lat.=43.177605, lon.=19.268572, Alt.=986.992676m. Speed=9.612000m/h.</desc>
<speed>2.670000</speed>
</trkpt>
<trkpt lat="43.177719" lon="19.268606">
<ele>987.789551</ele>
<time>2012-04-29T13:17:10Z</time>
<desc>lat.=43.177719, lon.=19.268606, Alt.=987.789551m. Speed=8.712000m/h.</desc>
<speed>2.420000</speed>
</trkpt>
<trkpt lat="43.177834" lon="19.268673">
<ele>988.414551</ele>
<time>2012-04-29T13:17:15Z</time>
<desc>lat.=43.177834, lon.=19.268673, Alt.=988.414551m. Speed=10.116000m/h.</desc>
<speed>2.810000</speed>
</trkpt>
<trkpt lat="43.177902" lon="19.268761">
<ele>988.820801</ele>
<time>2012-04-29T13:17:20Z</time>
<desc>lat.=43.177902, lon.=19.268761, Alt.=988.820801m. Speed=6.732000m/h.</desc>
<speed>1.870000</speed>
</trkpt>
<trkpt lat="43.177975" lon="19.268820">
<ele>989.352051</ele>
<time>2012-04-29T13:17:25Z</time>
<desc>lat.=43.177975, lon.=19.268820, Alt.=989.352051m. Speed=8.568000m/h.</desc>
<speed>2.380000</speed>
</trkpt>
<trkpt lat="43.178104" lon="19.268894">
<ele>988.367676</ele>
<time>2012-04-29T13:17:30Z</time>
<desc>lat.=43.178104, lon.=19.268894, Alt.=988.367676m. Speed=10.872000m/h.</desc>
<speed>3.020000</speed>
</trkpt>
<trkpt lat="43.178226" lon="19.268982">
<ele>988.445801</ele>
<time>2012-04-29T13:17:35Z</time>
<desc>lat.=43.178226, lon.=19.268982, Alt.=988.445801m. Speed=9.036000m/h.</desc>
<speed>2.510000</speed>
</trkpt>
<trkpt lat="43.178360" lon="19.269083">
<ele>988.539551</ele>
<time>2012-04-29T13:17:40Z</time>
<desc>lat.=43.178360, lon.=19.269083, Alt.=988.539551m. Speed=14.832000m/h.</desc>
<speed>4.120000</speed>
</trkpt>
<trkpt lat="43.178497" lon="19.269199">
<ele>989.289551</ele>
<time>2012-04-29T13:17:45Z</time>
<desc>lat.=43.178497, lon.=19.269199, Alt.=989.289551m. Speed=9.360000m/h.</desc>
<speed>2.600000</speed>
</trkpt>
<trkpt lat="43.178619" lon="19.269255">
<ele>988.930176</ele>
<time>2012-04-29T13:17:50Z</time>
<desc>lat.=43.178619, lon.=19.269255, Alt.=988.930176m. Speed=11.988000m/h.</desc>
<speed>3.330000</speed>
</trkpt>
<trkpt lat="43.178780" lon="19.269272">
<ele>989.086426</ele>
<time>2012-04-29T13:17:55Z</time>
<desc>lat.=43.178780, lon.=19.269272, Alt.=989.086426m. Speed=11.844000m/h.</desc>
<speed>3.290000</speed>
</trkpt>
<trkpt lat="43.178921" lon="19.269238">
<ele>988.539551</ele>
<time>2012-04-29T13:18:00Z</time>
<desc>lat.=43.178921, lon.=19.269238, Alt.=988.539551m. Speed=12.708000m/h.</desc>
<speed>3.530000</speed>
</trkpt>
<trkpt lat="43.178993" lon="19.269209">
<ele>987.477051</ele>
<time>2012-04-29T13:18:05Z</time>
<desc>lat.=43.178993, lon.=19.269209, Alt.=987.477051m. Speed=8.640000m/h.</desc>
<speed>2.400000</speed>
</trkpt>
<trkpt lat="43.179100" lon="19.269171">
<ele>986.617676</ele>
<time>2012-04-29T13:18:10Z</time>
<desc>lat.=43.179100, lon.=19.269171, Alt.=986.617676m. Speed=8.676000m/h.</desc>
<speed>2.410000</speed>
</trkpt>
<trkpt lat="43.179211" lon="19.269184">
<ele>986.133301</ele>
<time>2012-04-29T13:18:15Z</time>
<desc>lat.=43.179211, lon.=19.269184, Alt.=986.133301m. Speed=9.360000m/h.</desc>
<speed>2.600000</speed>
</trkpt>
<trkpt lat="43.179230" lon="19.269241">
<ele>986.305176</ele>
<time>2012-04-29T13:18:20Z</time>
<desc>lat.=43.179230, lon.=19.269241, Alt.=986.305176m. Speed=0.144000m/h.</desc>
<speed>0.040000</speed>
</trkpt>
<trkpt lat="43.179211" lon="19.269255">
<ele>986.305176</ele>
<time>2012-04-29T13:18:25Z</time>
<desc>lat.=43.179211, lon.=19.269255, Alt.=986.305176m. Speed=0.000000m/h.</desc>
<speed>0.000000</speed>
</trkpt>
<trkpt lat="43.179211" lon="19.269257">
<ele>986.320801</ele>
<time>2012-04-29T13:18:30Z</time>
<desc>lat.=43.179211, lon.=19.269257, Alt.=986.320801m. Speed=0.036000m/h.</desc>
<speed>0.010000</speed>
</trkpt>
<trkpt lat="43.179211" lon="19.269257">
<ele>986.289551</ele>
<time>2012-04-29T13:18:35Z</time>
<desc>lat.=43.179211, lon.=19.269257, Alt.=986.289551m. Speed=0.000000m/h.</desc>
<speed>0.000000</speed>
</trkpt>
<trkpt lat="43.179211" lon="19.269257">
<ele>986.242676</ele>
<time>2012-04-29T13:18:40Z</time>
<desc>lat.=43.179211, lon.=19.269257, Alt.=986.242676m. Speed=0.036000m/h.</desc>
<speed>0.010000</speed>
</trkpt>
<trkpt lat="43.179211" lon="19.269257">
<ele>986.227051</ele>
<time>2012-04-29T13:18:45Z</time>
<desc>lat.=43.179211, lon.=19.269257, Alt.=986.227051m. Speed=0.000000m/h.</desc>
<speed>0.000000</speed>
</trkpt>
<trkpt lat="43.179211" lon="19.269258">
<ele>986.227051</ele>
<time>2012-04-29T13:18:50Z</time>
<desc>lat.=43.179211, lon.=19.269258, Alt.=986.227051m. Speed=0.036000m/h.</desc>
<speed>0.010000</speed>
</trkpt>
<trkpt lat="43.179211" lon="19.269258">
<ele>986.195801</ele>
<time>2012-04-29T13:18:55Z</time>
<desc>lat.=43.179211, lon.=19.269258, Alt.=986.195801m. Speed=0.036000m/h.</desc>
<speed>0.010000</speed>
</trkpt>
<trkpt lat="43.179211" lon="19.269258">
<ele>986.195801</ele>
<time>2012-04-29T13:19:00Z</time>
<desc>lat.=43.179211, lon.=19.269258, Alt.=986.195801m. Speed=0.000000m/h.</desc>
<speed>0.000000</speed>
</trkpt>
<trkpt lat="43.179211" lon="19.269258">
<ele>986.195801</ele>
<time>2012-04-29T13:19:05Z</time>
<desc>lat.=43.179211, lon.=19.269258, Alt.=986.195801m. Speed=0.036000m/h.</desc>
<speed>0.010000</speed>
</trkpt>
<trkpt lat="43.179211" lon="19.269258">
<ele>986.195801</ele>
<time>2012-04-29T13:19:10Z</time>
<desc>lat.=43.179211, lon.=19.269258, Alt.=986.195801m. Speed=0.000000m/h.</desc>
<speed>0.000000</speed>
</trkpt>
<trkpt lat="43.179211" lon="19.269258">
<ele>986.211426</ele>
<time>2012-04-29T13:19:15Z</time>
<desc>lat.=43.179211, lon.=19.269258, Alt.=986.211426m. Speed=0.000000m/h.</desc>
<speed>0.000000</speed>
</trkpt>
<trkpt lat="43.179211" lon="19.269258">
<ele>986.148926</ele>
<time>2012-04-29T13:19:20Z</time>
<desc>lat.=43.179211, lon.=19.269258, Alt.=986.148926m. Speed=0.288000m/h.</desc>
<speed>0.080000</speed>
</trkpt>
<trkpt lat="43.179207" lon="19.269258">
<ele>986.148926</ele>
<time>2012-04-29T13:19:25Z</time>
<desc>lat.=43.179207, lon.=19.269258, Alt.=986.148926m. Speed=0.036000m/h.</desc>
<speed>0.010000</speed>
</trkpt>
<trkpt lat="43.179207" lon="19.269258">
<ele>986.148926</ele>
<time>2012-04-29T13:19:30Z</time>
<desc>lat.=43.179207, lon.=19.269258, Alt.=986.148926m. Speed=0.036000m/h.</desc>
<speed>0.010000</speed>
</trkpt>
<trkpt lat="43.179207" lon="19.269258">
<ele>986.148926</ele>
<time>2012-04-29T13:19:35Z</time>
<desc>lat.=43.179207, lon.=19.269258, Alt.=986.148926m. Speed=0.000000m/h.</desc>
<speed>0.000000</speed>
</trkpt>
<trkpt lat="43.179207" lon="19.269258">
<ele>986.148926</ele>
<time>2012-04-29T13:19:40Z</time>
<desc>lat.=43.179207, lon.=19.269258, Alt.=986.148926m. Speed=0.000000m/h.</desc>
<speed>0.000000</speed>
</trkpt>
<trkpt lat="43.179207" lon="19.269258">
<ele>986.133301</ele>
<time>2012-04-29T13:19:45Z</time>
<desc>lat.=43.179207, lon.=19.269258, Alt.=986.133301m. Speed=0.000000m/h.</desc>
<speed>0.000000</speed>
</trkpt>
<trkpt lat="43.179207" lon="19.269258">
<ele>986.148926</ele>
<time>2012-04-29T13:19:50Z</time>
<desc>lat.=43.179207, lon.=19.269258, Alt.=986.148926m. Speed=0.000000m/h.</desc>
<speed>0.000000</speed>
</trkpt>
<trkpt lat="43.179207" lon="19.269258">
<ele>986.148926</ele>
<time>2012-04-29T13:19:55Z</time>
<desc>lat.=43.179207, lon.=19.269258, Alt.=986.148926m. Speed=0.000000m/h.</desc>
<speed>0.000000</speed>
</trkpt>
<trkpt lat="43.179207" lon="19.269258">
<ele>986.148926</ele>
<time>2012-04-29T13:20:00Z</time>
<desc>lat.=43.179207, lon.=19.269258, Alt.=986.148926m. Speed=0.036000m/h.</desc>
<speed>0.010000</speed>
</trkpt>
<trkpt lat="43.179207" lon="19.269257">
<ele>986.164551</ele>
<time>2012-04-29T13:20:05Z</time>
<desc>lat.=43.179207, lon.=19.269257, Alt.=986.164551m. Speed=0.000000m/h.</desc>
<speed>0.000000</speed>
</trkpt>
<trkpt lat="43.179207" lon="19.269257">
<ele>986.180176</ele>
<time>2012-04-29T13:20:10Z</time>
<desc>lat.=43.179207, lon.=19.269257, Alt.=986.180176m. Speed=0.000000m/h.</desc>
<speed>0.000000</speed>
</trkpt>
<trkpt lat="43.179207" lon="19.269257">
<ele>986.195801</ele>
<time>2012-04-29T13:20:15Z</time>
<desc>lat.=43.179207, lon.=19.269257, Alt.=986.195801m. Speed=0.000000m/h.</desc>
<speed>0.000000</speed>
</trkpt>
<trkpt lat="43.179207" lon="19.269257">
<ele>986.227051</ele>
<time>2012-04-29T13:20:20Z</time>
<desc>lat.=43.179207, lon.=19.269257, Alt.=986.227051m. Speed=0.000000m/h.</desc>
<speed>0.000000</speed>
</trkpt>
<trkpt lat="43.179207" lon="19.269255">
<ele>986.227051</ele>
<time>2012-04-29T13:20:25Z</time>
<desc>lat.=43.179207, lon.=19.269255, Alt.=986.227051m. Speed=0.000000m/h.</desc>
<speed>0.000000</speed>
</trkpt>
<trkpt lat="43.179207" lon="19.269255">
<ele>986.227051</ele>
<time>2012-04-29T13:20:30Z</time>
<desc>lat.=43.179207, lon.=19.269255, Alt.=986.227051m. Speed=0.000000m/h.</desc>
<speed>0.000000</speed>
</trkpt>
<trkpt lat="43.179207" lon="19.269255">
<ele>986.242676</ele>
<time>2012-04-29T13:20:35Z</time>
<desc>lat.=43.179207, lon.=19.269255, Alt.=986.242676m. Speed=0.000000m/h.</desc>
<speed>0.000000</speed>
</trkpt>
<trkpt lat="43.179203" lon="19.269255">
<ele>986.242676</ele>
<time>2012-04-29T13:20:40Z</time>
<desc>lat.=43.179203, lon.=19.269255, Alt.=986.242676m. Speed=0.000000m/h.</desc>
<speed>0.000000</speed>
</trkpt>
<trkpt lat="43.179203" lon="19.269253">
<ele>986.242676</ele>
<time>2012-04-29T13:20:45Z</time>
<desc>lat.=43.179203, lon.=19.269253, Alt.=986.242676m. Speed=0.000000m/h.</desc>
<speed>0.000000</speed>
</trkpt>
<trkpt lat="43.179203" lon="19.269253">
<ele>986.258301</ele>
<time>2012-04-29T13:20:50Z</time>
<desc>lat.=43.179203, lon.=19.269253, Alt.=986.258301m. Speed=0.000000m/h.</desc>
<speed>0.000000</speed>
</trkpt>
<trkpt lat="43.179203" lon="19.269253">
<ele>986.273926</ele>
<time>2012-04-29T13:20:55Z</time>
<desc>lat.=43.179203, lon.=19.269253, Alt.=986.273926m. Speed=0.000000m/h.</desc>
<speed>0.000000</speed>
</trkpt>
<trkpt lat="43.179203" lon="19.269251">
<ele>986.289551</ele>
<time>2012-04-29T13:21:00Z</time>
<desc>lat.=43.179203, lon.=19.269251, Alt.=986.289551m. Speed=0.036000m/h.</desc>
<speed>0.010000</speed>
</trkpt>
<trkpt lat="43.179203" lon="19.269251">
<ele>986.320801</ele>
<time>2012-04-29T13:21:05Z</time>
<desc>lat.=43.179203, lon.=19.269251, Alt.=986.320801m. Speed=0.000000m/h.</desc>
<speed>0.000000</speed>
</trkpt>
<trkpt lat="43.179203" lon="19.269251">
<ele>986.367676</ele>
<time>2012-04-29T13:21:10Z</time>
<desc>lat.=43.179203, lon.=19.269251, Alt.=986.367676m. Speed=0.000000m/h.</desc>
<speed>0.000000</speed>
</trkpt>
<trkpt lat="43.179203" lon="19.269251">
<ele>986.383301</ele>
<time>2012-04-29T13:21:15Z</time>
<desc>lat.=43.179203, lon.=19.269251, Alt.=986.383301m. Speed=0.000000m/h.</desc>
<speed>0.000000</speed>
</trkpt>
<trkpt lat="43.179203" lon="19.269251">
<ele>986.398926</ele>
<time>2012-04-29T13:21:20Z</time>
<desc>lat.=43.179203, lon.=19.269251, Alt.=986.398926m. Speed=0.000000m/h.</desc>
<speed>0.000000</speed>
</trkpt>
<trkpt lat="43.179203" lon="19.269251">
<ele>986.430176</ele>
<time>2012-04-29T13:21:25Z</time>
<desc>lat.=43.179203, lon.=19.269251, Alt.=986.430176m. Speed=0.000000m/h.</desc>
<speed>0.000000</speed>
</trkpt>
<trkpt lat="43.179203" lon="19.269249">
<ele>986.477051</ele>
<time>2012-04-29T13:21:30Z</time>
<desc>lat.=43.179203, lon.=19.269249, Alt.=986.477051m. Speed=0.000000m/h.</desc>
<speed>0.000000</speed>
</trkpt>
<trkpt lat="43.179203" lon="19.269249">
<ele>986.523926</ele>
<time>2012-04-29T13:21:35Z</time>
<desc>lat.=43.179203, lon.=19.269249, Alt.=986.523926m. Speed=0.000000m/h.</desc>
<speed>0.000000</speed>
</trkpt>
<trkpt lat="43.179203" lon="19.269249">
<ele>986.555176</ele>
<time>2012-04-29T13:21:40Z</time>
<desc>lat.=43.179203, lon.=19.269249, Alt.=986.555176m. Speed=0.036000m/h.</desc>
<speed>0.010000</speed>
</trkpt>
<trkpt lat="43.179203" lon="19.269249">
<ele>986.602051</ele>
<time>2012-04-29T13:21:45Z</time>
<desc>lat.=43.179203, lon.=19.269249, Alt.=986.602051m. Speed=0.036000m/h.</desc>
<speed>0.010000</speed>
</trkpt>
<trkpt lat="43.179203" lon="19.269249">
<ele>986.617676</ele>
<time>2012-04-29T13:21:50Z</time>
<desc>lat.=43.179203, lon.=19.269249, Alt.=986.617676m. Speed=0.000000m/h.</desc>
<speed>0.000000</speed>
</trkpt>
<trkpt lat="43.179203" lon="19.269249">
<ele>986.633301</ele>
<time>2012-04-29T13:21:55Z</time>
<desc>lat.=43.179203, lon.=19.269249, Alt.=986.633301m. Speed=0.000000m/h.</desc>
<speed>0.000000</speed>
</trkpt>
<trkpt lat="43.179203" lon="19.269247">
<ele>986.680176</ele>
<time>2012-04-29T13:22:00Z</time>
<desc>lat.=43.179203, lon.=19.269247, Alt.=986.680176m. Speed=0.072000m/h.</desc>
<speed>0.020000</speed>
</trkpt>
<trkpt lat="43.179203" lon="19.269247">
<ele>986.695801</ele>
<time>2012-04-29T13:22:05Z</time>
<desc>lat.=43.179203, lon.=19.269247, Alt.=986.695801m. Speed=0.036000m/h.</desc>
<speed>0.010000</speed>
</trkpt>
<trkpt lat="43.179203" lon="19.269247">
<ele>986.695801</ele>
<time>2012-04-29T13:22:10Z</time>
<desc>lat.=43.179203, lon.=19.269247, Alt.=986.695801m. Speed=0.036000m/h.</desc>
<speed>0.010000</speed>
</trkpt>
<trkpt lat="43.179203" lon="19.269247">
<ele>986.680176</ele>
<time>2012-04-29T13:22:15Z</time>
<desc>lat.=43.179203, lon.=19.269247, Alt.=986.680176m. Speed=0.000000m/h.</desc>
<speed>0.000000</speed>
</trkpt>
<trkpt lat="43.179203" lon="19.269247">
<ele>986.633301</ele>
<time>2012-04-29T13:22:20Z</time>
<desc>lat.=43.179203, lon.=19.269247, Alt.=986.633301m. Speed=0.036000m/h.</desc>
<speed>0.010000</speed>
</trkpt>
<trkpt lat="43.179203" lon="19.269247">
<ele>986.633301</ele>
<time>2012-04-29T13:22:25Z</time>
<desc>lat.=43.179203, lon.=19.269247, Alt.=986.633301m. Speed=0.036000m/h.</desc>
<speed>0.010000</speed>
</trkpt>
<trkpt lat="43.179203" lon="19.269247">
<ele>986.633301</ele>
<time>2012-04-29T13:22:30Z</time>
<desc>lat.=43.179203, lon.=19.269247, Alt.=986.633301m. Speed=0.036000m/h.</desc>
<speed>0.010000</speed>
</trkpt>
<trkpt lat="43.179199" lon="19.269247">
<ele>986.633301</ele>
<time>2012-04-29T13:22:35Z</time>
<desc>lat.=43.179199, lon.=19.269247, Alt.=986.633301m. Speed=0.000000m/h.</desc>
<speed>0.000000</speed>
</trkpt>
<trkpt lat="43.179199" lon="19.269249">
<ele>986.633301</ele>
<time>2012-04-29T13:22:40Z</time>
<desc>lat.=43.179199, lon.=19.269249, Alt.=986.633301m. Speed=0.036000m/h.</desc>
<speed>0.010000</speed>
</trkpt>
<trkpt lat="43.179199" lon="19.269249">
<ele>986.664551</ele>
<time>2012-04-29T13:22:45Z</time>
<desc>lat.=43.179199, lon.=19.269249, Alt.=986.664551m. Speed=0.036000m/h.</desc>
<speed>0.010000</speed>
</trkpt>
<trkpt lat="43.179199" lon="19.269249">
<ele>986.711426</ele>
<time>2012-04-29T13:22:50Z</time>
<desc>lat.=43.179199, lon.=19.269249, Alt.=986.711426m. Speed=0.000000m/h.</desc>
<speed>0.000000</speed>
</trkpt>
<trkpt lat="43.179199" lon="19.269249">
<ele>986.727051</ele>
<time>2012-04-29T13:22:55Z</time>
<desc>lat.=43.179199, lon.=19.269249, Alt.=986.727051m. Speed=0.000000m/h.</desc>
<speed>0.000000</speed>
</trkpt>
<trkpt lat="43.179199" lon="19.269249">
<ele>986.727051</ele>
<time>2012-04-29T13:23:00Z</time>
<desc>lat.=43.179199, lon.=19.269249, Alt.=986.727051m. Speed=0.036000m/h.</desc>
<speed>0.010000</speed>
</trkpt>
<trkpt lat="43.179199" lon="19.269247">
<ele>986.727051</ele>
<time>2012-04-29T13:23:05Z</time>
<desc>lat.=43.179199, lon.=19.269247, Alt.=986.727051m. Speed=0.000000m/h.</desc>
<speed>0.000000</speed>
</trkpt>
<trkpt lat="43.179199" lon="19.269247">
<ele>986.758301</ele>
<time>2012-04-29T13:23:10Z</time>
<desc>lat.=43.179199, lon.=19.269247, Alt.=986.758301m. Speed=0.000000m/h.</desc>
<speed>0.000000</speed>
</trkpt>
<trkpt lat="43.179199" lon="19.269247">
<ele>986.773926</ele>
<time>2012-04-29T13:23:15Z</time>
<desc>lat.=43.179199, lon.=19.269247, Alt.=986.773926m. Speed=0.036000m/h.</desc>
<speed>0.010000</speed>
</trkpt>
<trkpt lat="43.179199" lon="19.269247">
<ele>986.805176</ele>
<time>2012-04-29T13:23:20Z</time>
<desc>lat.=43.179199, lon.=19.269247, Alt.=986.805176m. Speed=0.036000m/h.</desc>
<speed>0.010000</speed>
</trkpt>
<trkpt lat="43.179199" lon="19.269247">
<ele>986.820801</ele>
<time>2012-04-29T13:23:25Z</time>
<desc>lat.=43.179199, lon.=19.269247, Alt.=986.820801m. Speed=0.072000m/h.</desc>
<speed>0.020000</speed>
</trkpt>
<trkpt lat="43.179199" lon="19.269247">
<ele>986.820801</ele>
<time>2012-04-29T13:23:30Z</time>
<desc>lat.=43.179199, lon.=19.269247, Alt.=986.820801m. Speed=0.000000m/h.</desc>
<speed>0.000000</speed>
</trkpt>
<trkpt lat="43.179199" lon="19.269247">
<ele>986.867676</ele>
<time>2012-04-29T13:23:35Z</time>
<desc>lat.=43.179199, lon.=19.269247, Alt.=986.867676m. Speed=0.000000m/h.</desc>
<speed>0.000000</speed>
</trkpt>
<trkpt lat="43.179199" lon="19.269247">
<ele>986.930176</ele>
<time>2012-04-29T13:23:40Z</time>
<desc>lat.=43.179199, lon.=19.269247, Alt.=986.930176m. Speed=0.000000m/h.</desc>
<speed>0.000000</speed>
</trkpt>
<trkpt lat="43.179199" lon="19.269247">
<ele>986.992676</ele>
<time>2012-04-29T13:23:45Z</time>
<desc>lat.=43.179199, lon.=19.269247, Alt.=986.992676m. Speed=0.036000m/h.</desc>
<speed>0.010000</speed>
</trkpt>
<trkpt lat="43.179199" lon="19.269247">
<ele>987.023926</ele>
<time>2012-04-29T13:23:50Z</time>
<desc>lat.=43.179199, lon.=19.269247, Alt.=987.023926m. Speed=0.000000m/h.</desc>
<speed>0.000000</speed>
</trkpt>
<trkpt lat="43.179199" lon="19.269247">
<ele>987.070801</ele>
<time>2012-04-29T13:23:55Z</time>
<desc>lat.=43.179199, lon.=19.269247, Alt.=987.070801m. Speed=0.000000m/h.</desc>
<speed>0.000000</speed>
</trkpt>
<trkpt lat="43.179199" lon="19.269247">
<ele>987.117676</ele>
<time>2012-04-29T13:24:00Z</time>
<desc>lat.=43.179199, lon.=19.269247, Alt.=987.117676m. Speed=0.000000m/h.</desc>
<speed>0.000000</speed>
</trkpt>
<trkpt lat="43.179199" lon="19.269247">
<ele>987.180176</ele>
<time>2012-04-29T13:24:05Z</time>
<desc>lat.=43.179199, lon.=19.269247, Alt.=987.180176m. Speed=0.000000m/h.</desc>
<speed>0.000000</speed>
</trkpt>
<trkpt lat="43.179199" lon="19.269247">
<ele>987.258301</ele>
<time>2012-04-29T13:24:10Z</time>
<desc>lat.=43.179199, lon.=19.269247, Alt.=987.258301m. Speed=0.000000m/h.</desc>
<speed>0.000000</speed>
</trkpt>
<trkpt lat="43.179199" lon="19.269247">
<ele>987.352051</ele>
<time>2012-04-29T13:24:15Z</time>
<desc>lat.=43.179199, lon.=19.269247, Alt.=987.352051m. Speed=0.000000m/h.</desc>
<speed>0.000000</speed>
</trkpt>
<trkpt lat="43.179199" lon="19.269247">
<ele>987.430176</ele>
<time>2012-04-29T13:24:20Z</time>
<desc>lat.=43.179199, lon.=19.269247, Alt.=987.430176m. Speed=0.000000m/h.</desc>
<speed>0.000000</speed>
</trkpt>
<trkpt lat="43.179199" lon="19.269247">
<ele>987.539551</ele>
<time>2012-04-29T13:24:25Z</time>
<desc>lat.=43.179199, lon.=19.269247, Alt.=987.539551m. Speed=0.036000m/h.</desc>
<speed>0.010000</speed>
</trkpt>
<trkpt lat="43.179199" lon="19.269245">
<ele>987.602051</ele>
<time>2012-04-29T13:24:30Z</time>
<desc>lat.=43.179199, lon.=19.269245, Alt.=987.602051m. Speed=0.000000m/h.</desc>
<speed>0.000000</speed>
</trkpt>
<trkpt lat="43.179199" lon="19.269245">
<ele>987.617676</ele>
<time>2012-04-29T13:24:35Z</time>
<desc>lat.=43.179199, lon.=19.269245, Alt.=987.617676m. Speed=0.036000m/h.</desc>
<speed>0.010000</speed>
</trkpt>
<trkpt lat="43.179199" lon="19.269245">
<ele>987.664551</ele>
<time>2012-04-29T13:24:40Z</time>
<desc>lat.=43.179199, lon.=19.269245, Alt.=987.664551m. Speed=0.036000m/h.</desc>
<speed>0.010000</speed>
</trkpt>
<trkpt lat="43.179199" lon="19.269245">
<ele>987.680176</ele>
<time>2012-04-29T13:24:45Z</time>
<desc>lat.=43.179199, lon.=19.269245, Alt.=987.680176m. Speed=0.000000m/h.</desc>
<speed>0.000000</speed>
</trkpt>
<trkpt lat="43.179199" lon="19.269245">
<ele>987.711426</ele>
<time>2012-04-29T13:24:50Z</time>
<desc>lat.=43.179199, lon.=19.269245, Alt.=987.711426m. Speed=0.036000m/h.</desc>
<speed>0.010000</speed>
</trkpt>
<trkpt lat="43.179199" lon="19.269245">
<ele>987.727051</ele>
<time>2012-04-29T13:24:55Z</time>
<desc>lat.=43.179199, lon.=19.269245, Alt.=987.727051m. Speed=0.000000m/h.</desc>
<speed>0.000000</speed>
</trkpt>
<trkpt lat="43.179199" lon="19.269245">
<ele>987.727051</ele>
<time>2012-04-29T13:25:00Z</time>
<desc>lat.=43.179199, lon.=19.269245, Alt.=987.727051m. Speed=0.000000m/h.</desc>
<speed>0.000000</speed>
</trkpt>
<trkpt lat="43.179199" lon="19.269245">
<ele>987.742676</ele>
<time>2012-04-29T13:25:05Z</time>
<desc>lat.=43.179199, lon.=19.269245, Alt.=987.742676m. Speed=0.000000m/h.</desc>
<speed>0.000000</speed>
</trkpt>
<trkpt lat="43.179199" lon="19.269245">
<ele>987.758301</ele>
<time>2012-04-29T13:25:10Z</time>
<desc>lat.=43.179199, lon.=19.269245, Alt.=987.758301m. Speed=0.036000m/h.</desc>
<speed>0.010000</speed>
</trkpt>
<trkpt lat="43.179199" lon="19.269245">
<ele>987.758301</ele>
<time>2012-04-29T13:25:15Z</time>
<desc>lat.=43.179199, lon.=19.269245, Alt.=987.758301m. Speed=0.036000m/h.</desc>
<speed>0.010000</speed>
</trkpt>
<trkpt lat="43.179199" lon="19.269245">
<ele>987.758301</ele>
<time>2012-04-29T13:25:20Z</time>
<desc>lat.=43.179199, lon.=19.269245, Alt.=987.758301m. Speed=0.000000m/h.</desc>
<speed>0.000000</speed>
</trkpt>
<trkpt lat="43.179199" lon="19.269245">
<ele>987.742676</ele>
<time>2012-04-29T13:25:25Z</time>
<desc>lat.=43.179199, lon.=19.269245, Alt.=987.742676m. Speed=0.000000m/h.</desc>
<speed>0.000000</speed>
</trkpt>
<trkpt lat="43.179199" lon="19.269245">
<ele>987.727051</ele>
<time>2012-04-29T13:25:30Z</time>
<desc>lat.=43.179199, lon.=19.269245, Alt.=987.727051m. Speed=0.000000m/h.</desc>
<speed>0.000000</speed>
</trkpt>
<trkpt lat="43.179199" lon="19.269245">
<ele>987.742676</ele>
<time>2012-04-29T13:25:35Z</time>
<desc>lat.=43.179199, lon.=19.269245, Alt.=987.742676m. Speed=0.936000m/h.</desc>
<speed>0.260000</speed>
</trkpt>
<trkpt lat="43.179245" lon="19.269356">
<ele>989.508301</ele>
<time>2012-04-29T13:25:40Z</time>
<desc>lat.=43.179245, lon.=19.269356, Alt.=989.508301m. Speed=12.996000m/h.</desc>
<speed>3.610000</speed>
</trkpt>
<trkpt lat="43.179451" lon="19.269537">
<ele>986.789551</ele>
<time>2012-04-29T13:25:45Z</time>
<desc>lat.=43.179451, lon.=19.269537, Alt.=986.789551m. Speed=21.636000m/h.</desc>
<speed>6.010000</speed>
</trkpt>
<trkpt lat="43.179783" lon="19.269609">
<ele>984.414551</ele>
<time>2012-04-29T13:25:50Z</time>
<desc>lat.=43.179783, lon.=19.269609, Alt.=984.414551m. Speed=26.856001m/h.</desc>
<speed>7.460000</speed>
</trkpt>
<trkpt lat="43.180191" lon="19.269842">
<ele>980.867676</ele>
<time>2012-04-29T13:25:55Z</time>
<desc>lat.=43.180191, lon.=19.269842, Alt.=980.867676m. Speed=41.292000m/h.</desc>
<speed>11.470000</speed>
</trkpt>
<trkpt lat="43.180626" lon="19.270020">
<ele>980.789551</ele>
<time>2012-04-29T13:26:00Z</time>
<desc>lat.=43.180626, lon.=19.270020, Alt.=980.789551m. Speed=23.903999m/h.</desc>
<speed>6.640000</speed>
</trkpt>
<trkpt lat="43.180683" lon="19.270229">
<ele>983.758301</ele>
<time>2012-04-29T13:26:05Z</time>
<desc>lat.=43.180683, lon.=19.270229, Alt.=983.758301m. Speed=10.188000m/h.</desc>
<speed>2.830000</speed>
</trkpt>
<trkpt lat="43.180664" lon="19.270384">
<ele>984.805176</ele>
<time>2012-04-29T13:26:10Z</time>
<desc>lat.=43.180664, lon.=19.270384, Alt.=984.805176m. Speed=10.116000m/h.</desc>
<speed>2.810000</speed>
</trkpt>
<trkpt lat="43.180595" lon="19.270571">
<ele>985.227051</ele>
<time>2012-04-29T13:26:15Z</time>
<desc>lat.=43.180595, lon.=19.270571, Alt.=985.227051m. Speed=13.068000m/h.</desc>
<speed>3.630000</speed>
</trkpt>
<trkpt lat="43.180553" lon="19.270710">
<ele>984.805176</ele>
<time>2012-04-29T13:26:20Z</time>
<desc>lat.=43.180553, lon.=19.270710, Alt.=984.805176m. Speed=8.280000m/h.</desc>
<speed>2.300000</speed>
</trkpt>
<trkpt lat="43.180531" lon="19.270947">
<ele>984.133301</ele>
<time>2012-04-29T13:26:25Z</time>
<desc>lat.=43.180531, lon.=19.270947, Alt.=984.133301m. Speed=10.476000m/h.</desc>
<speed>2.910000</speed>
</trkpt>
<trkpt lat="43.180576" lon="19.271166">
<ele>984.070801</ele>
<time>2012-04-29T13:26:30Z</time>
<desc>lat.=43.180576, lon.=19.271166, Alt.=984.070801m. Speed=10.548000m/h.</desc>
<speed>2.930000</speed>
</trkpt>
<trkpt lat="43.180630" lon="19.271393">
<ele>983.570801</ele>
<time>2012-04-29T13:26:35Z</time>
<desc>lat.=43.180630, lon.=19.271393, Alt.=983.570801m. Speed=10.980000m/h.</desc>
<speed>3.050000</speed>
</trkpt>
<trkpt lat="43.180626" lon="19.271652">
<ele>982.742676</ele>
<time>2012-04-29T13:26:40Z</time>
<desc>lat.=43.180626, lon.=19.271652, Alt.=982.742676m. Speed=12.312000m/h.</desc>
<speed>3.420000</speed>
</trkpt>
<trkpt lat="43.180660" lon="19.271904">
<ele>982.805176</ele>
<time>2012-04-29T13:26:45Z</time>
<desc>lat.=43.180660, lon.=19.271904, Alt.=982.805176m. Speed=12.564000m/h.</desc>
<speed>3.490000</speed>
</trkpt>
<trkpt lat="43.180634" lon="19.272165">
<ele>983.758301</ele>
<time>2012-04-29T13:26:50Z</time>
<desc>lat.=43.180634, lon.=19.272165, Alt.=983.758301m. Speed=14.364000m/h.</desc>
<speed>3.990000</speed>
</trkpt>
<trkpt lat="43.180626" lon="19.272379">
<ele>984.102051</ele>
<time>2012-04-29T13:26:55Z</time>
<desc>lat.=43.180626, lon.=19.272379, Alt.=984.102051m. Speed=11.160000m/h.</desc>
<speed>3.100000</speed>
</trkpt>
<trkpt lat="43.180695" lon="19.272608">
<ele>986.523926</ele>
<time>2012-04-29T13:27:00Z</time>
<desc>lat.=43.180695, lon.=19.272608, Alt.=986.523926m. Speed=12.492000m/h.</desc>
<speed>3.470000</speed>
</trkpt>
<trkpt lat="43.180687" lon="19.272825">
<ele>986.883301</ele>
<time>2012-04-29T13:27:05Z</time>
<desc>lat.=43.180687, lon.=19.272825, Alt.=986.883301m. Speed=12.888000m/h.</desc>
<speed>3.580000</speed>
</trkpt>
<trkpt lat="43.180653" lon="19.273066">
<ele>985.320801</ele>
<time>2012-04-29T13:27:10Z</time>
<desc>lat.=43.180653, lon.=19.273066, Alt.=985.320801m. Speed=21.672001m/h.</desc>
<speed>6.020000</speed>
</trkpt>
<trkpt lat="43.180569" lon="19.273428">
<ele>985.398926</ele>
<time>2012-04-29T13:27:15Z</time>
<desc>lat.=43.180569, lon.=19.273428, Alt.=985.398926m. Speed=19.080000m/h.</desc>
<speed>5.300000</speed>
</trkpt>
<trkpt lat="43.180573" lon="19.273663">
<ele>986.477051</ele>
<time>2012-04-29T13:27:20Z</time>
<desc>lat.=43.180573, lon.=19.273663, Alt.=986.477051m. Speed=8.208000m/h.</desc>
<speed>2.280000</speed>
</trkpt>
<trkpt lat="43.180561" lon="19.273819">
<ele>987.242676</ele>
<time>2012-04-29T13:27:25Z</time>
<desc>lat.=43.180561, lon.=19.273819, Alt.=987.242676m. Speed=8.856000m/h.</desc>
<speed>2.460000</speed>
</trkpt>
<trkpt lat="43.180603" lon="19.273956">
<ele>989.227051</ele>
<time>2012-04-29T13:27:30Z</time>
<desc>lat.=43.180603, lon.=19.273956, Alt.=989.227051m. Speed=8.316000m/h.</desc>
<speed>2.310000</speed>
</trkpt>
<trkpt lat="43.180622" lon="19.274080">
<ele>991.055176</ele>
<time>2012-04-29T13:27:35Z</time>
<desc>lat.=43.180622, lon.=19.274080, Alt.=991.055176m. Speed=6.228000m/h.</desc>
<speed>1.730000</speed>
</trkpt>
<trkpt lat="43.180714" lon="19.274155">
<ele>991.664551</ele>
<time>2012-04-29T13:27:40Z</time>
<desc>lat.=43.180714, lon.=19.274155, Alt.=991.664551m. Speed=5.796000m/h.</desc>
<speed>1.610000</speed>
</trkpt>
<trkpt lat="43.180801" lon="19.274199">
<ele>994.227051</ele>
<time>2012-04-29T13:27:45Z</time>
<desc>lat.=43.180801, lon.=19.274199, Alt.=994.227051m. Speed=6.732000m/h.</desc>
<speed>1.870000</speed>
</trkpt>
<trkpt lat="43.180908" lon="19.274200">
<ele>996.227051</ele>
<time>2012-04-29T13:27:50Z</time>
<desc>lat.=43.180908, lon.=19.274200, Alt.=996.227051m. Speed=4.212000m/h.</desc>
<speed>1.170000</speed>
</trkpt>
<trkpt lat="43.181011" lon="19.274216">
<ele>997.820801</ele>
<time>2012-04-29T13:27:55Z</time>
<desc>lat.=43.181011, lon.=19.274216, Alt.=997.820801m. Speed=9.252000m/h.</desc>
<speed>2.570000</speed>
</trkpt>
<trkpt lat="43.181091" lon="19.274254">
<ele>997.836426</ele>
<time>2012-04-29T13:28:00Z</time>
<desc>lat.=43.181091, lon.=19.274254, Alt.=997.836426m. Speed=6.372000m/h.</desc>
<speed>1.770000</speed>
</trkpt>
<trkpt lat="43.181171" lon="19.274330">
<ele>997.320801</ele>
<time>2012-04-29T13:28:05Z</time>
<desc>lat.=43.181171, lon.=19.274330, Alt.=997.320801m. Speed=7.380000m/h.</desc>
<speed>2.050000</speed>
</trkpt>
<trkpt lat="43.181255" lon="19.274422">
<ele>996.570801</ele>
<time>2012-04-29T13:28:10Z</time>
<desc>lat.=43.181255, lon.=19.274422, Alt.=996.570801m. Speed=9.144000m/h.</desc>
<speed>2.540000</speed>
</trkpt>
<trkpt lat="43.181366" lon="19.274530">
<ele>997.602051</ele>
<time>2012-04-29T13:28:15Z</time>
<desc>lat.=43.181366, lon.=19.274530, Alt.=997.602051m. Speed=9.504000m/h.</desc>
<speed>2.640000</speed>
</trkpt>
<trkpt lat="43.181469" lon="19.274633">
<ele>998.711426</ele>
<time>2012-04-29T13:28:20Z</time>
<desc>lat.=43.181469, lon.=19.274633, Alt.=998.711426m. Speed=8.388000m/h.</desc>
<speed>2.330000</speed>
</trkpt>
<trkpt lat="43.181583" lon="19.274696">
<ele>1002.273926</ele>
<time>2012-04-29T13:28:25Z</time>
<desc>lat.=43.181583, lon.=19.274696, Alt.=1002.273926m. Speed=7.452000m/h.</desc>
<speed>2.070000</speed>
</trkpt>
<trkpt lat="43.181671" lon="19.274773">
<ele>1004.695801</ele>
<time>2012-04-29T13:28:30Z</time>
<desc>lat.=43.181671, lon.=19.274773, Alt.=1004.695801m. Speed=8.028000m/h.</desc>
<speed>2.230000</speed>
</trkpt>
<trkpt lat="43.181728" lon="19.274874">
<ele>1006.320801</ele>
<time>2012-04-29T13:28:35Z</time>
<desc>lat.=43.181728, lon.=19.274874, Alt.=1006.320801m. Speed=6.840000m/h.</desc>
<speed>1.900000</speed>
</trkpt>
<trkpt lat="43.181782" lon="19.274971">
<ele>1008.570801</ele>
<time>2012-04-29T13:28:40Z</time>
<desc>lat.=43.181782, lon.=19.274971, Alt.=1008.570801m. Speed=6.336000m/h.</desc>
<speed>1.760000</speed>
</trkpt>
<trkpt lat="43.181786" lon="19.275080">
<ele>1009.039551</ele>
<time>2012-04-29T13:28:45Z</time>
<desc>lat.=43.181786, lon.=19.275080, Alt.=1009.039551m. Speed=6.120000m/h.</desc>
<speed>1.700000</speed>
</trkpt>
<trkpt lat="43.181812" lon="19.275173">
<ele>1010.523926</ele>
<time>2012-04-29T13:28:50Z</time>
<desc>lat.=43.181812, lon.=19.275173, Alt.=1010.523926m. Speed=7.020000m/h.</desc>
<speed>1.950000</speed>
</trkpt>
<trkpt lat="43.181839" lon="19.275290">
<ele>1010.758301</ele>
<time>2012-04-29T13:28:55Z</time>
<desc>lat.=43.181839, lon.=19.275290, Alt.=1010.758301m. Speed=8.604000m/h.</desc>
<speed>2.390000</speed>
</trkpt>
<trkpt lat="43.181850" lon="19.275457">
<ele>1011.227051</ele>
<time>2012-04-29T13:29:00Z</time>
<desc>lat.=43.181850, lon.=19.275457, Alt.=1011.227051m. Speed=13.248000m/h.</desc>
<speed>3.680000</speed>
</trkpt>
<trkpt lat="43.181877" lon="19.275688">
<ele>1010.477051</ele>
<time>2012-04-29T13:29:05Z</time>
<desc>lat.=43.181877, lon.=19.275688, Alt.=1010.477051m. Speed=11.664000m/h.</desc>
<speed>3.240000</speed>
</trkpt>
<trkpt lat="43.181919" lon="19.275854">
<ele>1011.039551</ele>
<time>2012-04-29T13:29:10Z</time>
<desc>lat.=43.181919, lon.=19.275854, Alt.=1011.039551m. Speed=10.836000m/h.</desc>
<speed>3.010000</speed>
</trkpt>
<trkpt lat="43.181999" lon="19.276012">
<ele>1010.211426</ele>
<time>2012-04-29T13:29:15Z</time>
<desc>lat.=43.181999, lon.=19.276012, Alt.=1010.211426m. Speed=10.116000m/h.</desc>
<speed>2.810000</speed>
</trkpt>
<trkpt lat="43.182068" lon="19.276104">
<ele>1010.945801</ele>
<time>2012-04-29T13:29:20Z</time>
<desc>lat.=43.182068, lon.=19.276104, Alt.=1010.945801m. Speed=7.776000m/h.</desc>
<speed>2.160000</speed>
</trkpt>
<trkpt lat="43.182137" lon="19.276205">
<ele>1012.070801</ele>
<time>2012-04-29T13:29:25Z</time>
<desc>lat.=43.182137, lon.=19.276205, Alt.=1012.070801m. Speed=8.712000m/h.</desc>
<speed>2.420000</speed>
</trkpt>
<trkpt lat="43.182220" lon="19.276283">
<ele>1014.523926</ele>
<time>2012-04-29T13:29:30Z</time>
<desc>lat.=43.182220, lon.=19.276283, Alt.=1014.523926m. Speed=4.212000m/h.</desc>
<speed>1.170000</speed>
</trkpt>
<trkpt lat="43.182270" lon="19.276354">
<ele>1015.648926</ele>
<time>2012-04-29T13:29:35Z</time>
<desc>lat.=43.182270, lon.=19.276354, Alt.=1015.648926m. Speed=4.284000m/h.</desc>
<speed>1.190000</speed>
</trkpt>
<trkpt lat="43.182316" lon="19.276430">
<ele>1015.820801</ele>
<time>2012-04-29T13:29:40Z</time>
<desc>lat.=43.182316, lon.=19.276430, Alt.=1015.820801m. Speed=6.048000m/h.</desc>
<speed>1.680000</speed>
</trkpt>
<trkpt lat="43.182358" lon="19.276497">
<ele>1015.867676</ele>
<time>2012-04-29T13:29:45Z</time>
<desc>lat.=43.182358, lon.=19.276497, Alt.=1015.867676m. Speed=6.048000m/h.</desc>
<speed>1.680000</speed>
</trkpt>
<trkpt lat="43.182419" lon="19.276560">
<ele>1015.945801</ele>
<time>2012-04-29T13:29:50Z</time>
<desc>lat.=43.182419, lon.=19.276560, Alt.=1015.945801m. Speed=5.580000m/h.</desc>
<speed>1.550000</speed>
</trkpt>
<trkpt lat="43.182499" lon="19.276628">
<ele>1017.555176</ele>
<time>2012-04-29T13:29:55Z</time>
<desc>lat.=43.182499, lon.=19.276628, Alt.=1017.555176m. Speed=7.452000m/h.</desc>
<speed>2.070000</speed>
</trkpt>
<trkpt lat="43.182594" lon="19.276697">
<ele>1018.648926</ele>
<time>2012-04-29T13:30:00Z</time>
<desc>lat.=43.182594, lon.=19.276697, Alt.=1018.648926m. Speed=5.868000m/h.</desc>
<speed>1.630000</speed>
</trkpt>
<trkpt lat="43.182674" lon="19.276752">
<ele>1020.773926</ele>
<time>2012-04-29T13:30:05Z</time>
<desc>lat.=43.182674, lon.=19.276752, Alt.=1020.773926m. Speed=7.056000m/h.</desc>
<speed>1.960000</speed>
</trkpt>
<trkpt lat="43.182762" lon="19.276794">
<ele>1021.992676</ele>
<time>2012-04-29T13:30:10Z</time>
<desc>lat.=43.182762, lon.=19.276794, Alt.=1021.992676m. Speed=7.380000m/h.</desc>
<speed>2.050000</speed>
</trkpt>
<trkpt lat="43.182854" lon="19.276827">
<ele>1023.617676</ele>
<time>2012-04-29T13:30:15Z</time>
<desc>lat.=43.182854, lon.=19.276827, Alt.=1023.617676m. Speed=6.264000m/h.</desc>
<speed>1.740000</speed>
</trkpt>
<trkpt lat="43.182945" lon="19.276852">
<ele>1024.360352</ele>
<time>2012-04-29T13:30:20Z</time>
<desc>lat.=43.182945, lon.=19.276852, Alt.=1024.360352m. Speed=7.596000m/h.</desc>
<speed>2.110000</speed>
</trkpt>
<trkpt lat="43.183025" lon="19.276859">
<ele>1025.954102</ele>
<time>2012-04-29T13:30:25Z</time>
<desc>lat.=43.183025, lon.=19.276859, Alt.=1025.954102m. Speed=6.156000m/h.</desc>
<speed>1.710000</speed>
</trkpt>
<trkpt lat="43.183079" lon="19.276867">
<ele>1026.860352</ele>
<time>2012-04-29T13:30:30Z</time>
<desc>lat.=43.183079, lon.=19.276867, Alt.=1026.860352m. Speed=5.184000m/h.</desc>
<speed>1.440000</speed>
</trkpt>
<trkpt lat="43.183155" lon="19.276863">
<ele>1027.297852</ele>
<time>2012-04-29T13:30:35Z</time>
<desc>lat.=43.183155, lon.=19.276863, Alt.=1027.297852m. Speed=9.072000m/h.</desc>
<speed>2.520000</speed>
</trkpt>
<trkpt lat="43.183289" lon="19.276850">
<ele>1025.204102</ele>
<time>2012-04-29T13:30:40Z</time>
<desc>lat.=43.183289, lon.=19.276850, Alt.=1025.204102m. Speed=8.172000m/h.</desc>
<speed>2.270000</speed>
</trkpt>
<trkpt lat="43.183392" lon="19.276833">
<ele>1024.610352</ele>
<time>2012-04-29T13:30:45Z</time>
<desc>lat.=43.183392, lon.=19.276833, Alt.=1024.610352m. Speed=5.652000m/h.</desc>
<speed>1.570000</speed>
</trkpt>
<trkpt lat="43.183475" lon="19.276827">
<ele>1024.391602</ele>
<time>2012-04-29T13:30:50Z</time>
<desc>lat.=43.183475, lon.=19.276827, Alt.=1024.391602m. Speed=6.912000m/h.</desc>
<speed>1.920000</speed>
</trkpt>
<trkpt lat="43.183594" lon="19.276800">
<ele>1023.477051</ele>
<time>2012-04-29T13:30:55Z</time>
<desc>lat.=43.183594, lon.=19.276800, Alt.=1023.477051m. Speed=7.236000m/h.</desc>
<speed>2.010000</speed>
</trkpt>
<trkpt lat="43.183731" lon="19.276798">
<ele>1023.242676</ele>
<time>2012-04-29T13:31:00Z</time>
<desc>lat.=43.183731, lon.=19.276798, Alt.=1023.242676m. Speed=9.828000m/h.</desc>
<speed>2.730000</speed>
</trkpt>
<trkpt lat="43.183926" lon="19.276899">
<ele>1021.242676</ele>
<time>2012-04-29T13:31:05Z</time>
<desc>lat.=43.183926, lon.=19.276899, Alt.=1021.242676m. Speed=19.908001m/h.</desc>
<speed>5.530000</speed>
</trkpt>
<trkpt lat="43.184105" lon="19.277170">
<ele>1019.398926</ele>
<time>2012-04-29T13:31:10Z</time>
<desc>lat.=43.184105, lon.=19.277170, Alt.=1019.398926m. Speed=19.332001m/h.</desc>
<speed>5.370000</speed>
</trkpt>
<trkpt lat="43.184238" lon="19.277388">
<ele>1017.336426</ele>
<time>2012-04-29T13:31:15Z</time>
<desc>lat.=43.184238, lon.=19.277388, Alt.=1017.336426m. Speed=18.792000m/h.</desc>
<speed>5.220000</speed>
</trkpt>
<trkpt lat="43.184475" lon="19.277542">
<ele>1015.664551</ele>
<time>2012-04-29T13:31:20Z</time>
<desc>lat.=43.184475, lon.=19.277542, Alt.=1015.664551m. Speed=19.944000m/h.</desc>
<speed>5.540000</speed>
</trkpt>
<trkpt lat="43.184723" lon="19.277634">
<ele>1013.492676</ele>
<time>2012-04-29T13:31:25Z</time>
<desc>lat.=43.184723, lon.=19.277634, Alt.=1013.492676m. Speed=16.559999m/h.</desc>
<speed>4.600000</speed>
</trkpt>
<trkpt lat="43.184872" lon="19.277754">
<ele>1011.102051</ele>
<time>2012-04-29T13:31:30Z</time>
<desc>lat.=43.184872, lon.=19.277754, Alt.=1011.102051m. Speed=14.796000m/h.</desc>
<speed>4.110000</speed>
</trkpt>
<trkpt lat="43.184959" lon="19.277945">
<ele>1009.320801</ele>
<time>2012-04-29T13:31:35Z</time>
<desc>lat.=43.184959, lon.=19.277945, Alt.=1009.320801m. Speed=9.324000m/h.</desc>
<speed>2.590000</speed>
</trkpt>
<trkpt lat="43.184982" lon="19.278011">
<ele>1008.008301</ele>
<time>2012-04-29T13:31:40Z</time>
<desc>lat.=43.184982, lon.=19.278011, Alt.=1008.008301m. Speed=0.324000m/h.</desc>
<speed>0.090000</speed>
</trkpt>
<trkpt lat="43.184982" lon="19.278015">
<ele>1007.602051</ele>
<time>2012-04-29T13:31:45Z</time>
<desc>lat.=43.184982, lon.=19.278015, Alt.=1007.602051m. Speed=0.396000m/h.</desc>
<speed>0.110000</speed>
</trkpt>
<trkpt lat="43.184982" lon="19.278015">
<ele>1007.539551</ele>
<time>2012-04-29T13:31:50Z</time>
<desc>lat.=43.184982, lon.=19.278015, Alt.=1007.539551m. Speed=0.432000m/h.</desc>
<speed>0.120000</speed>
</trkpt>
<trkpt lat="43.184990" lon="19.278032">
<ele>1007.555176</ele>
<time>2012-04-29T13:31:55Z</time>
<desc>lat.=43.184990, lon.=19.278032, Alt.=1007.555176m. Speed=2.772000m/h.</desc>
<speed>0.770000</speed>
</trkpt>
<trkpt lat="43.185093" lon="19.278173">
<ele>1006.383301</ele>
<time>2012-04-29T13:32:00Z</time>
<desc>lat.=43.185093, lon.=19.278173, Alt.=1006.383301m. Speed=15.264000m/h.</desc>
<speed>4.240000</speed>
</trkpt>
<trkpt lat="43.185223" lon="19.278393">
<ele>1004.258301</ele>
<time>2012-04-29T13:32:05Z</time>
<desc>lat.=43.185223, lon.=19.278393, Alt.=1004.258301m. Speed=11.232000m/h.</desc>
<speed>3.120000</speed>
</trkpt>
<trkpt lat="43.185394" lon="19.278332">
<ele>1000.945801</ele>
<time>2012-04-29T13:32:10Z</time>
<desc>lat.=43.185394, lon.=19.278332, Alt.=1000.945801m. Speed=21.563999m/h.</desc>
<speed>5.990000</speed>
</trkpt>
<trkpt lat="43.185658" lon="19.277962">
<ele>997.773926</ele>
<time>2012-04-29T13:32:15Z</time>
<desc>lat.=43.185658, lon.=19.277962, Alt.=997.773926m. Speed=30.996000m/h.</desc>
<speed>8.610000</speed>
</trkpt>
<trkpt lat="43.185921" lon="19.277454">
<ele>994.336426</ele>
<time>2012-04-29T13:32:20Z</time>
<desc>lat.=43.185921, lon.=19.277454, Alt.=994.336426m. Speed=37.944000m/h.</desc>
<speed>10.540000</speed>
</trkpt>
<trkpt lat="43.186157" lon="19.277004">
<ele>993.977051</ele>
<time>2012-04-29T13:32:25Z</time>
<desc>lat.=43.186157, lon.=19.277004, Alt.=993.977051m. Speed=27.468000m/h.</desc>
<speed>7.630000</speed>
</trkpt>
<trkpt lat="43.186249" lon="19.276882">
<ele>993.602051</ele>
<time>2012-04-29T13:32:30Z</time>
<desc>lat.=43.186249, lon.=19.276882, Alt.=993.602051m. Speed=3.132000m/h.</desc>
<speed>0.870000</speed>
</trkpt>
<trkpt lat="43.186317" lon="19.276806">
<ele>992.305176</ele>
<time>2012-04-29T13:32:35Z</time>
<desc>lat.=43.186317, lon.=19.276806, Alt.=992.305176m. Speed=0.756000m/h.</desc>
<speed>0.210000</speed>
</trkpt>
<trkpt lat="43.186359" lon="19.276791">
<ele>992.570801</ele>
<time>2012-04-29T13:32:40Z</time>
<desc>lat.=43.186359, lon.=19.276791, Alt.=992.570801m. Speed=1.908000m/h.</desc>
<speed>0.530000</speed>
</trkpt>
<trkpt lat="43.186356" lon="19.276772">
<ele>991.867676</ele>
<time>2012-04-29T13:32:45Z</time>
<desc>lat.=43.186356, lon.=19.276772, Alt.=991.867676m. Speed=1.008000m/h.</desc>
<speed>0.280000</speed>
</trkpt>
<trkpt lat="43.186352" lon="19.276762">
<ele>991.508301</ele>
<time>2012-04-29T13:32:50Z</time>
<desc>lat.=43.186352, lon.=19.276762, Alt.=991.508301m. Speed=0.144000m/h.</desc>
<speed>0.040000</speed>
</trkpt>
<trkpt lat="43.186352" lon="19.276764">
<ele>991.383301</ele>
<time>2012-04-29T13:32:55Z</time>
<desc>lat.=43.186352, lon.=19.276764, Alt.=991.383301m. Speed=0.396000m/h.</desc>
<speed>0.110000</speed>
</trkpt>
<trkpt lat="43.186348" lon="19.276770">
<ele>991.336426</ele>
<time>2012-04-29T13:33:00Z</time>
<desc>lat.=43.186348, lon.=19.276770, Alt.=991.336426m. Speed=0.720000m/h.</desc>
<speed>0.200000</speed>
</trkpt>
<trkpt lat="43.186340" lon="19.276773">
<ele>991.305176</ele>
<time>2012-04-29T13:33:05Z</time>
<desc>lat.=43.186340, lon.=19.276773, Alt.=991.305176m. Speed=0.756000m/h.</desc>
<speed>0.210000</speed>
</trkpt>
<trkpt lat="43.186337" lon="19.276781">
<ele>991.305176</ele>
<time>2012-04-29T13:33:10Z</time>
<desc>lat.=43.186337, lon.=19.276781, Alt.=991.305176m. Speed=0.108000m/h.</desc>
<speed>0.030000</speed>
</trkpt>
<trkpt lat="43.186337" lon="19.276783">
<ele>991.305176</ele>
<time>2012-04-29T13:33:15Z</time>
<desc>lat.=43.186337, lon.=19.276783, Alt.=991.305176m. Speed=0.396000m/h.</desc>
<speed>0.110000</speed>
</trkpt>
<trkpt lat="43.186340" lon="19.276791">
<ele>991.289551</ele>
<time>2012-04-29T13:33:20Z</time>
<desc>lat.=43.186340, lon.=19.276791, Alt.=991.289551m. Speed=0.936000m/h.</desc>
<speed>0.260000</speed>
</trkpt>
<trkpt lat="43.186352" lon="19.276802">
<ele>991.289551</ele>
<time>2012-04-29T13:33:25Z</time>
<desc>lat.=43.186352, lon.=19.276802, Alt.=991.289551m. Speed=1.044000m/h.</desc>
<speed>0.290000</speed>
</trkpt>
<trkpt lat="43.186359" lon="19.276810">
<ele>991.273926</ele>
<time>2012-04-29T13:33:30Z</time>
<desc>lat.=43.186359, lon.=19.276810, Alt.=991.273926m. Speed=0.324000m/h.</desc>
<speed>0.090000</speed>
</trkpt>
<trkpt lat="43.186359" lon="19.276815">
<ele>991.273926</ele>
<time>2012-04-29T13:33:35Z</time>
<desc>lat.=43.186359, lon.=19.276815, Alt.=991.273926m. Speed=0.180000m/h.</desc>
<speed>0.050000</speed>
</trkpt>
<trkpt lat="43.186359" lon="19.276817">
<ele>991.273926</ele>
<time>2012-04-29T13:33:40Z</time>
<desc>lat.=43.186359, lon.=19.276817, Alt.=991.273926m. Speed=0.432000m/h.</desc>
<speed>0.120000</speed>
</trkpt>
<trkpt lat="43.186363" lon="19.276819">
<ele>991.273926</ele>
<time>2012-04-29T13:33:45Z</time>
<desc>lat.=43.186363, lon.=19.276819, Alt.=991.273926m. Speed=0.108000m/h.</desc>
<speed>0.030000</speed>
</trkpt>
<trkpt lat="43.186367" lon="19.276821">
<ele>991.273926</ele>
<time>2012-04-29T13:33:50Z</time>
<desc>lat.=43.186367, lon.=19.276821, Alt.=991.273926m. Speed=0.720000m/h.</desc>
<speed>0.200000</speed>
</trkpt>
<trkpt lat="43.186375" lon="19.276821">
<ele>991.273926</ele>
<time>2012-04-29T13:33:55Z</time>
<desc>lat.=43.186375, lon.=19.276821, Alt.=991.273926m. Speed=0.540000m/h.</desc>
<speed>0.150000</speed>
</trkpt>
<trkpt lat="43.186378" lon="19.276825">
<ele>991.258301</ele>
<time>2012-04-29T13:34:00Z</time>
<desc>lat.=43.186378, lon.=19.276825, Alt.=991.258301m. Speed=0.468000m/h.</desc>
<speed>0.130000</speed>
</trkpt>
<trkpt lat="43.186386" lon="19.276825">
<ele>991.273926</ele>
<time>2012-04-29T13:34:05Z</time>
<desc>lat.=43.186386, lon.=19.276825, Alt.=991.273926m. Speed=0.648000m/h.</desc>
<speed>0.180000</speed>
</trkpt>
<trkpt lat="43.186394" lon="19.276825">
<ele>991.289551</ele>
<time>2012-04-29T13:34:10Z</time>
<desc>lat.=43.186394, lon.=19.276825, Alt.=991.289551m. Speed=0.684000m/h.</desc>
<speed>0.190000</speed>
</trkpt>
<trkpt lat="43.186398" lon="19.276829">
<ele>991.320801</ele>
<time>2012-04-29T13:34:15Z</time>
<desc>lat.=43.186398, lon.=19.276829, Alt.=991.320801m. Speed=0.684000m/h.</desc>
<speed>0.190000</speed>
</trkpt>
<trkpt lat="43.186405" lon="19.276833">
<ele>991.352051</ele>
<time>2012-04-29T13:34:20Z</time>
<desc>lat.=43.186405, lon.=19.276833, Alt.=991.352051m. Speed=0.756000m/h.</desc>
<speed>0.210000</speed>
</trkpt>
<trkpt lat="43.186417" lon="19.276833">
<ele>991.367676</ele>
<time>2012-04-29T13:34:25Z</time>
<desc>lat.=43.186417, lon.=19.276833, Alt.=991.367676m. Speed=1.260000m/h.</desc>
<speed>0.350000</speed>
</trkpt>
<trkpt lat="43.186432" lon="19.276831">
<ele>991.414551</ele>
<time>2012-04-29T13:34:30Z</time>
<desc>lat.=43.186432, lon.=19.276831, Alt.=991.414551m. Speed=0.792000m/h.</desc>
<speed>0.220000</speed>
</trkpt>
<trkpt lat="43.186440" lon="19.276831">
<ele>991.508301</ele>
<time>2012-04-29T13:34:35Z</time>
<desc>lat.=43.186440, lon.=19.276831, Alt.=991.508301m. Speed=0.756000m/h.</desc>
<speed>0.210000</speed>
</trkpt>
<trkpt lat="43.186447" lon="19.276827">
<ele>991.570801</ele>
<time>2012-04-29T13:34:40Z</time>
<desc>lat.=43.186447, lon.=19.276827, Alt.=991.570801m. Speed=0.144000m/h.</desc>
<speed>0.040000</speed>
</trkpt>
<trkpt lat="43.186447" lon="19.276823">
<ele>991.602051</ele>
<time>2012-04-29T13:34:45Z</time>
<desc>lat.=43.186447, lon.=19.276823, Alt.=991.602051m. Speed=0.360000m/h.</desc>
<speed>0.100000</speed>
</trkpt>
<trkpt lat="43.186436" lon="19.276823">
<ele>991.633301</ele>
<time>2012-04-29T13:34:50Z</time>
<desc>lat.=43.186436, lon.=19.276823, Alt.=991.633301m. Speed=0.720000m/h.</desc>
<speed>0.200000</speed>
</trkpt>
<trkpt lat="43.186424" lon="19.276817">
<ele>991.664551</ele>
<time>2012-04-29T13:34:55Z</time>
<desc>lat.=43.186424, lon.=19.276817, Alt.=991.664551m. Speed=1.116000m/h.</desc>
<speed>0.310000</speed>
</trkpt>
<trkpt lat="43.186417" lon="19.276810">
<ele>991.711426</ele>
<time>2012-04-29T13:35:00Z</time>
<desc>lat.=43.186417, lon.=19.276810, Alt.=991.711426m. Speed=0.648000m/h.</desc>
<speed>0.180000</speed>
</trkpt>
<trkpt lat="43.186428" lon="19.276798">
<ele>991.773926</ele>
<time>2012-04-29T13:35:05Z</time>
<desc>lat.=43.186428, lon.=19.276798, Alt.=991.773926m. Speed=0.396000m/h.</desc>
<speed>0.110000</speed>
</trkpt>
<trkpt lat="43.186420" lon="19.276789">
<ele>991.836426</ele>
<time>2012-04-29T13:35:10Z</time>
<desc>lat.=43.186420, lon.=19.276789, Alt.=991.836426m. Speed=0.792000m/h.</desc>
<speed>0.220000</speed>
</trkpt>
<trkpt lat="43.186420" lon="19.276783">
<ele>992.039551</ele>
<time>2012-04-29T13:35:15Z</time>
<desc>lat.=43.186420, lon.=19.276783, Alt.=992.039551m. Speed=0.324000m/h.</desc>
<speed>0.090000</speed>
</trkpt>
<trkpt lat="43.186417" lon="19.276787">
<ele>992.305176</ele>
<time>2012-04-29T13:35:20Z</time>
<desc>lat.=43.186417, lon.=19.276787, Alt.=992.305176m. Speed=0.216000m/h.</desc>
<speed>0.060000</speed>
</trkpt>
<trkpt lat="43.186413" lon="19.276787">
<ele>992.523926</ele>
<time>2012-04-29T13:35:25Z</time>
<desc>lat.=43.186413, lon.=19.276787, Alt.=992.523926m. Speed=0.000000m/h.</desc>
<speed>0.000000</speed>
</trkpt>
<trkpt lat="43.186413" lon="19.276787">
<ele>992.523926</ele>
<time>2012-04-29T13:35:30Z</time>
<desc>lat.=43.186413, lon.=19.276787, Alt.=992.523926m. Speed=0.000000m/h.</desc>
<speed>0.000000</speed>
</trkpt>
<trkpt lat="43.186413" lon="19.276787">
<ele>992.508301</ele>
<time>2012-04-29T13:35:35Z</time>
<desc>lat.=43.186413, lon.=19.276787, Alt.=992.508301m. Speed=0.000000m/h.</desc>
<speed>0.000000</speed>
</trkpt>
<trkpt lat="43.186413" lon="19.276787">
<ele>992.539551</ele>
<time>2012-04-29T13:35:40Z</time>
<desc>lat.=43.186413, lon.=19.276787, Alt.=992.539551m. Speed=0.000000m/h.</desc>
<speed>0.000000</speed>
</trkpt>
<trkpt lat="43.186413" lon="19.276787">
<ele>992.555176</ele>
<time>2012-04-29T13:35:45Z</time>
<desc>lat.=43.186413, lon.=19.276787, Alt.=992.555176m. Speed=0.000000m/h.</desc>
<speed>0.000000</speed>
</trkpt>
<trkpt lat="43.186413" lon="19.276787">
<ele>992.586426</ele>
<time>2012-04-29T13:35:50Z</time>
<desc>lat.=43.186413, lon.=19.276787, Alt.=992.586426m. Speed=0.000000m/h.</desc>
<speed>0.000000</speed>
</trkpt>
<trkpt lat="43.186413" lon="19.276787">
<ele>992.602051</ele>
<time>2012-04-29T13:35:55Z</time>
<desc>lat.=43.186413, lon.=19.276787, Alt.=992.602051m. Speed=0.000000m/h.</desc>
<speed>0.000000</speed>
</trkpt>
<trkpt lat="43.186413" lon="19.276787">
<ele>992.617676</ele>
<time>2012-04-29T13:36:00Z</time>
<desc>lat.=43.186413, lon.=19.276787, Alt.=992.617676m. Speed=0.000000m/h.</desc>
<speed>0.000000</speed>
</trkpt>
<trkpt lat="43.186413" lon="19.276787">
<ele>992.648926</ele>
<time>2012-04-29T13:36:05Z</time>
<desc>lat.=43.186413, lon.=19.276787, Alt.=992.648926m. Speed=0.000000m/h.</desc>
<speed>0.000000</speed>
</trkpt>
<trkpt lat="43.186413" lon="19.276787">
<ele>992.664551</ele>
<time>2012-04-29T13:36:10Z</time>
<desc>lat.=43.186413, lon.=19.276787, Alt.=992.664551m. Speed=0.000000m/h.</desc>
<speed>0.000000</speed>
</trkpt>
<trkpt lat="43.186413" lon="19.276787">
<ele>992.664551</ele>
<time>2012-04-29T13:36:15Z</time>
<desc>lat.=43.186413, lon.=19.276787, Alt.=992.664551m. Speed=0.000000m/h.</desc>
<speed>0.000000</speed>
</trkpt>
<trkpt lat="43.186409" lon="19.276787">
<ele>992.680176</ele>
<time>2012-04-29T13:36:20Z</time>
<desc>lat.=43.186409, lon.=19.276787, Alt.=992.680176m. Speed=0.000000m/h.</desc>
<speed>0.000000</speed>
</trkpt>
<trkpt lat="43.186409" lon="19.276787">
<ele>992.680176</ele>
<time>2012-04-29T13:36:25Z</time>
<desc>lat.=43.186409, lon.=19.276787, Alt.=992.680176m. Speed=0.000000m/h.</desc>
<speed>0.000000</speed>
</trkpt>
<trkpt lat="43.186409" lon="19.276787">
<ele>992.695801</ele>
<time>2012-04-29T13:36:30Z</time>
<desc>lat.=43.186409, lon.=19.276787, Alt.=992.695801m. Speed=0.000000m/h.</desc>
<speed>0.000000</speed>
</trkpt>
<trkpt lat="43.186409" lon="19.276787">
<ele>992.711426</ele>
<time>2012-04-29T13:36:35Z</time>
<desc>lat.=43.186409, lon.=19.276787, Alt.=992.711426m. Speed=0.000000m/h.</desc>
<speed>0.000000</speed>
</trkpt>
<trkpt lat="43.186409" lon="19.276787">
<ele>992.727051</ele>
<time>2012-04-29T13:36:40Z</time>
<desc>lat.=43.186409, lon.=19.276787, Alt.=992.727051m. Speed=0.000000m/h.</desc>
<speed>0.000000</speed>
</trkpt>
<trkpt lat="43.186409" lon="19.276787">
<ele>992.742676</ele>
<time>2012-04-29T13:36:45Z</time>
<desc>lat.=43.186409, lon.=19.276787, Alt.=992.742676m. Speed=0.000000m/h.</desc>
<speed>0.000000</speed>
</trkpt>
<trkpt lat="43.186409" lon="19.276787">
<ele>992.742676</ele>
<time>2012-04-29T13:36:50Z</time>
<desc>lat.=43.186409, lon.=19.276787, Alt.=992.742676m. Speed=0.000000m/h.</desc>
<speed>0.000000</speed>
</trkpt>
<trkpt lat="43.186409" lon="19.276787">
<ele>992.758301</ele>
<time>2012-04-29T13:36:55Z</time>
<desc>lat.=43.186409, lon.=19.276787, Alt.=992.758301m. Speed=0.000000m/h.</desc>
<speed>0.000000</speed>
</trkpt>
<trkpt lat="43.186409" lon="19.276787">
<ele>992.758301</ele>
<time>2012-04-29T13:37:00Z</time>
<desc>lat.=43.186409, lon.=19.276787, Alt.=992.758301m. Speed=0.000000m/h.</desc>
<speed>0.000000</speed>
</trkpt>
<trkpt lat="43.186409" lon="19.276787">
<ele>992.773926</ele>
<time>2012-04-29T13:37:05Z</time>
<desc>lat.=43.186409, lon.=19.276787, Alt.=992.773926m. Speed=0.000000m/h.</desc>
<speed>0.000000</speed>
</trkpt>
<trkpt lat="43.186409" lon="19.276787">
<ele>992.773926</ele>
<time>2012-04-29T13:37:10Z</time>
<desc>lat.=43.186409, lon.=19.276787, Alt.=992.773926m. Speed=0.000000m/h.</desc>
<speed>0.000000</speed>
</trkpt>
<trkpt lat="43.186409" lon="19.276787">
<ele>992.789551</ele>
<time>2012-04-29T13:37:15Z</time>
<desc>lat.=43.186409, lon.=19.276787, Alt.=992.789551m. Speed=0.000000m/h.</desc>
<speed>0.000000</speed>
</trkpt>
<trkpt lat="43.186405" lon="19.276787">
<ele>992.805176</ele>
<time>2012-04-29T13:37:20Z</time>
<desc>lat.=43.186405, lon.=19.276787, Alt.=992.805176m. Speed=0.000000m/h.</desc>
<speed>0.000000</speed>
</trkpt>
<trkpt lat="43.186405" lon="19.276787">
<ele>992.805176</ele>
<time>2012-04-29T13:37:25Z</time>
<desc>lat.=43.186405, lon.=19.276787, Alt.=992.805176m. Speed=0.000000m/h.</desc>
<speed>0.000000</speed>
</trkpt>
<trkpt lat="43.186405" lon="19.276787">
<ele>992.820801</ele>
<time>2012-04-29T13:37:30Z</time>
<desc>lat.=43.186405, lon.=19.276787, Alt.=992.820801m. Speed=0.000000m/h.</desc>
<speed>0.000000</speed>
</trkpt>
<trkpt lat="43.186405" lon="19.276787">
<ele>992.836426</ele>
<time>2012-04-29T13:37:35Z</time>
<desc>lat.=43.186405, lon.=19.276787, Alt.=992.836426m. Speed=0.000000m/h.</desc>
<speed>0.000000</speed>
</trkpt>
<trkpt lat="43.186405" lon="19.276787">
<ele>992.867676</ele>
<time>2012-04-29T13:37:40Z</time>
<desc>lat.=43.186405, lon.=19.276787, Alt.=992.867676m. Speed=0.000000m/h.</desc>
<speed>0.000000</speed>
</trkpt>
<trkpt lat="43.186405" lon="19.276785">
<ele>992.883301</ele>
<time>2012-04-29T13:37:45Z</time>
<desc>lat.=43.186405, lon.=19.276785, Alt.=992.883301m. Speed=0.000000m/h.</desc>
<speed>0.000000</speed>
</trkpt>
<trkpt lat="43.186405" lon="19.276785">
<ele>992.914551</ele>
<time>2012-04-29T13:37:50Z</time>
<desc>lat.=43.186405, lon.=19.276785, Alt.=992.914551m. Speed=0.000000m/h.</desc>
<speed>0.000000</speed>
</trkpt>
<trkpt lat="43.186405" lon="19.276785">
<ele>992.914551</ele>
<time>2012-04-29T13:37:55Z</time>
<desc>lat.=43.186405, lon.=19.276785, Alt.=992.914551m. Speed=0.000000m/h.</desc>
<speed>0.000000</speed>
</trkpt>
<trkpt lat="43.186405" lon="19.276785">
<ele>992.930176</ele>
<time>2012-04-29T13:38:00Z</time>
<desc>lat.=43.186405, lon.=19.276785, Alt.=992.930176m. Speed=0.000000m/h.</desc>
<speed>0.000000</speed>
</trkpt>
<trkpt lat="43.186405" lon="19.276785">
<ele>992.945801</ele>
<time>2012-04-29T13:38:05Z</time>
<desc>lat.=43.186405, lon.=19.276785, Alt.=992.945801m. Speed=0.000000m/h.</desc>
<speed>0.000000</speed>
</trkpt>
<trkpt lat="43.186405" lon="19.276783">
<ele>992.961426</ele>
<time>2012-04-29T13:38:10Z</time>
<desc>lat.=43.186405, lon.=19.276783, Alt.=992.961426m. Speed=0.000000m/h.</desc>
<speed>0.000000</speed>
</trkpt>
<trkpt lat="43.186405" lon="19.276783">
<ele>992.992676</ele>
<time>2012-04-29T13:38:15Z</time>
<desc>lat.=43.186405, lon.=19.276783, Alt.=992.992676m. Speed=0.000000m/h.</desc>
<speed>0.000000</speed>
</trkpt>
<trkpt lat="43.186405" lon="19.276783">
<ele>992.992676</ele>
<time>2012-04-29T13:38:20Z</time>
<desc>lat.=43.186405, lon.=19.276783, Alt.=992.992676m. Speed=0.000000m/h.</desc>
<speed>0.000000</speed>
</trkpt>
<trkpt lat="43.186405" lon="19.276783">
<ele>993.008301</ele>
<time>2012-04-29T13:38:25Z</time>
<desc>lat.=43.186405, lon.=19.276783, Alt.=993.008301m. Speed=0.000000m/h.</desc>
<speed>0.000000</speed>
</trkpt>
<trkpt lat="43.186401" lon="19.276781">
<ele>993.008301</ele>
<time>2012-04-29T13:38:30Z</time>
<desc>lat.=43.186401, lon.=19.276781, Alt.=993.008301m. Speed=0.000000m/h.</desc>
<speed>0.000000</speed>
</trkpt>
<trkpt lat="43.186401" lon="19.276781">
<ele>993.008301</ele>
<time>2012-04-29T13:38:35Z</time>
<desc>lat.=43.186401, lon.=19.276781, Alt.=993.008301m. Speed=0.000000m/h.</desc>
<speed>0.000000</speed>
</trkpt>
<trkpt lat="43.186401" lon="19.276781">
<ele>993.023926</ele>
<time>2012-04-29T13:38:40Z</time>
<desc>lat.=43.186401, lon.=19.276781, Alt.=993.023926m. Speed=0.000000m/h.</desc>
<speed>0.000000</speed>
</trkpt>
<trkpt lat="43.186401" lon="19.276781">
<ele>993.023926</ele>
<time>2012-04-29T13:38:45Z</time>
<desc>lat.=43.186401, lon.=19.276781, Alt.=993.023926m. Speed=0.000000m/h.</desc>
<speed>0.000000</speed>
</trkpt>
<trkpt lat="43.186401" lon="19.276781">
<ele>993.023926</ele>
<time>2012-04-29T13:38:50Z</time>
<desc>lat.=43.186401, lon.=19.276781, Alt.=993.023926m. Speed=0.000000m/h.</desc>
<speed>0.000000</speed>
</trkpt>
<trkpt lat="43.186401" lon="19.276781">
<ele>993.039551</ele>
<time>2012-04-29T13:38:55Z</time>
<desc>lat.=43.186401, lon.=19.276781, Alt.=993.039551m. Speed=0.000000m/h.</desc>
<speed>0.000000</speed>
</trkpt>
<trkpt lat="43.186401" lon="19.276781">
<ele>993.055176</ele>
<time>2012-04-29T13:39:00Z</time>
<desc>lat.=43.186401, lon.=19.276781, Alt.=993.055176m. Speed=0.000000m/h.</desc>
<speed>0.000000</speed>
</trkpt>
<trkpt lat="43.186401" lon="19.276781">
<ele>993.055176</ele>
<time>2012-04-29T13:39:05Z</time>
<desc>lat.=43.186401, lon.=19.276781, Alt.=993.055176m. Speed=0.000000m/h.</desc>
<speed>0.000000</speed>
</trkpt>
<trkpt lat="43.186401" lon="19.276781">
<ele>993.070801</ele>
<time>2012-04-29T13:39:10Z</time>
<desc>lat.=43.186401, lon.=19.276781, Alt.=993.070801m. Speed=0.000000m/h.</desc>
<speed>0.000000</speed>
</trkpt>
<trkpt lat="43.186401" lon="19.276781">
<ele>993.086426</ele>
<time>2012-04-29T13:39:15Z</time>
<desc>lat.=43.186401, lon.=19.276781, Alt.=993.086426m. Speed=0.000000m/h.</desc>
<speed>0.000000</speed>
</trkpt>
<trkpt lat="43.186401" lon="19.276779">
<ele>993.102051</ele>
<time>2012-04-29T13:39:20Z</time>
<desc>lat.=43.186401, lon.=19.276779, Alt.=993.102051m. Speed=0.000000m/h.</desc>
<speed>0.000000</speed>
</trkpt>
<trkpt lat="43.186401" lon="19.276779">
<ele>993.117676</ele>
<time>2012-04-29T13:39:25Z</time>
<desc>lat.=43.186401, lon.=19.276779, Alt.=993.117676m. Speed=0.000000m/h.</desc>
<speed>0.000000</speed>
</trkpt>
<trkpt lat="43.186401" lon="19.276779">
<ele>993.133301</ele>
<time>2012-04-29T13:39:30Z</time>
<desc>lat.=43.186401, lon.=19.276779, Alt.=993.133301m. Speed=0.000000m/h.</desc>
<speed>0.000000</speed>
</trkpt>
<trkpt lat="43.186401" lon="19.276779">
<ele>993.164551</ele>
<time>2012-04-29T13:39:35Z</time>
<desc>lat.=43.186401, lon.=19.276779, Alt.=993.164551m. Speed=0.000000m/h.</desc>
<speed>0.000000</speed>
</trkpt>
<trkpt lat="43.186401" lon="19.276779">
<ele>993.164551</ele>
<time>2012-04-29T13:39:40Z</time>
<desc>lat.=43.186401, lon.=19.276779, Alt.=993.164551m. Speed=0.000000m/h.</desc>
<speed>0.000000</speed>
</trkpt>
<trkpt lat="43.186401" lon="19.276779">
<ele>993.180176</ele>
<time>2012-04-29T13:39:45Z</time>
<desc>lat.=43.186401, lon.=19.276779, Alt.=993.180176m. Speed=0.000000m/h.</desc>
<speed>0.000000</speed>
</trkpt>
<trkpt lat="43.186401" lon="19.276779">
<ele>993.195801</ele>
<time>2012-04-29T13:39:50Z</time>
<desc>lat.=43.186401, lon.=19.276779, Alt.=993.195801m. Speed=0.000000m/h.</desc>
<speed>0.000000</speed>
</trkpt>
<trkpt lat="43.186401" lon="19.276779">
<ele>993.211426</ele>
<time>2012-04-29T13:39:55Z</time>
<desc>lat.=43.186401, lon.=19.276779, Alt.=993.211426m. Speed=0.000000m/h.</desc>
<speed>0.000000</speed>
</trkpt>
<trkpt lat="43.186401" lon="19.276779">
<ele>993.242676</ele>
<time>2012-04-29T13:40:00Z</time>
<desc>lat.=43.186401, lon.=19.276779, Alt.=993.242676m. Speed=0.000000m/h.</desc>
<speed>0.000000</speed>
</trkpt>
<trkpt lat="43.186401" lon="19.276777">
<ele>993.258301</ele>
<time>2012-04-29T13:40:05Z</time>
<desc>lat.=43.186401, lon.=19.276777, Alt.=993.258301m. Speed=0.000000m/h.</desc>
<speed>0.000000</speed>
</trkpt>
<trkpt lat="43.186401" lon="19.276777">
<ele>993.273926</ele>
<time>2012-04-29T13:40:10Z</time>
<desc>lat.=43.186401, lon.=19.276777, Alt.=993.273926m. Speed=0.000000m/h.</desc>
<speed>0.000000</speed>
</trkpt>
<trkpt lat="43.186398" lon="19.276777">
<ele>993.273926</ele>
<time>2012-04-29T13:40:15Z</time>
<desc>lat.=43.186398, lon.=19.276777, Alt.=993.273926m. Speed=0.000000m/h.</desc>
<speed>0.000000</speed>
</trkpt>
<trkpt lat="43.186398" lon="19.276777">
<ele>993.289551</ele>
<time>2012-04-29T13:40:20Z</time>
<desc>lat.=43.186398, lon.=19.276777, Alt.=993.289551m. Speed=0.000000m/h.</desc>
<speed>0.000000</speed>
</trkpt>
<trkpt lat="43.186398" lon="19.276777">
<ele>993.289551</ele>
<time>2012-04-29T13:40:25Z</time>
<desc>lat.=43.186398, lon.=19.276777, Alt.=993.289551m. Speed=0.000000m/h.</desc>
<speed>0.000000</speed>
</trkpt>
<trkpt lat="43.186398" lon="19.276775">
<ele>993.305176</ele>
<time>2012-04-29T13:40:30Z</time>
<desc>lat.=43.186398, lon.=19.276775, Alt.=993.305176m. Speed=0.036000m/h.</desc>
<speed>0.010000</speed>
</trkpt>
<trkpt lat="43.186398" lon="19.276775">
<ele>993.305176</ele>
<time>2012-04-29T13:40:35Z</time>
<desc>lat.=43.186398, lon.=19.276775, Alt.=993.305176m. Speed=0.000000m/h.</desc>
<speed>0.000000</speed>
</trkpt>
<trkpt lat="43.186398" lon="19.276775">
<ele>993.305176</ele>
<time>2012-04-29T13:40:40Z</time>
<desc>lat.=43.186398, lon.=19.276775, Alt.=993.305176m. Speed=0.000000m/h.</desc>
<speed>0.000000</speed>
</trkpt>
<trkpt lat="43.186398" lon="19.276775">
<ele>993.305176</ele>
<time>2012-04-29T13:40:45Z</time>
<desc>lat.=43.186398, lon.=19.276775, Alt.=993.305176m. Speed=0.000000m/h.</desc>
<speed>0.000000</speed>
</trkpt>
<trkpt lat="43.186398" lon="19.276775">
<ele>993.289551</ele>
<time>2012-04-29T13:40:50Z</time>
<desc>lat.=43.186398, lon.=19.276775, Alt.=993.289551m. Speed=0.000000m/h.</desc>
<speed>0.000000</speed>
</trkpt>
<trkpt lat="43.186398" lon="19.276775">
<ele>993.305176</ele>
<time>2012-04-29T13:40:55Z</time>
<desc>lat.=43.186398, lon.=19.276775, Alt.=993.305176m. Speed=0.000000m/h.</desc>
<speed>0.000000</speed>
</trkpt>
<trkpt lat="43.186398" lon="19.276775">
<ele>993.305176</ele>
<time>2012-04-29T13:41:00Z</time>
<desc>lat.=43.186398, lon.=19.276775, Alt.=993.305176m. Speed=0.000000m/h.</desc>
<speed>0.000000</speed>
</trkpt>
<trkpt lat="43.186398" lon="19.276773">
<ele>993.305176</ele>
<time>2012-04-29T13:41:05Z</time>
<desc>lat.=43.186398, lon.=19.276773, Alt.=993.305176m. Speed=0.000000m/h.</desc>
<speed>0.000000</speed>
</trkpt>
<trkpt lat="43.186398" lon="19.276773">
<ele>993.305176</ele>
<time>2012-04-29T13:41:10Z</time>
<desc>lat.=43.186398, lon.=19.276773, Alt.=993.305176m. Speed=0.000000m/h.</desc>
<speed>0.000000</speed>
</trkpt>
<trkpt lat="43.186398" lon="19.276773">
<ele>993.305176</ele>
<time>2012-04-29T13:41:15Z</time>
<desc>lat.=43.186398, lon.=19.276773, Alt.=993.305176m. Speed=0.000000m/h.</desc>
<speed>0.000000</speed>
</trkpt>
<trkpt lat="43.186398" lon="19.276773">
<ele>993.305176</ele>
<time>2012-04-29T13:41:20Z</time>
<desc>lat.=43.186398, lon.=19.276773, Alt.=993.305176m. Speed=0.000000m/h.</desc>
<speed>0.000000</speed>
</trkpt>
<trkpt lat="43.186398" lon="19.276773">
<ele>993.320801</ele>
<time>2012-04-29T13:41:25Z</time>
<desc>lat.=43.186398, lon.=19.276773, Alt.=993.320801m. Speed=0.000000m/h.</desc>
<speed>0.000000</speed>
</trkpt>
<trkpt lat="43.186398" lon="19.276772">
<ele>993.320801</ele>
<time>2012-04-29T13:41:30Z</time>
<desc>lat.=43.186398, lon.=19.276772, Alt.=993.320801m. Speed=0.000000m/h.</desc>
<speed>0.000000</speed>
</trkpt>
<trkpt lat="43.186394" lon="19.276772">
<ele>993.352051</ele>
<time>2012-04-29T13:41:35Z</time>
<desc>lat.=43.186394, lon.=19.276772, Alt.=993.352051m. Speed=0.000000m/h.</desc>
<speed>0.000000</speed>
</trkpt>
<trkpt lat="43.186394" lon="19.276772">
<ele>993.367676</ele>
<time>2012-04-29T13:41:40Z</time>
<desc>lat.=43.186394, lon.=19.276772, Alt.=993.367676m. Speed=0.036000m/h.</desc>
<speed>0.010000</speed>
</trkpt>
<trkpt lat="43.186394" lon="19.276772">
<ele>993.383301</ele>
<time>2012-04-29T13:41:45Z</time>
<desc>lat.=43.186394, lon.=19.276772, Alt.=993.383301m. Speed=0.000000m/h.</desc>
<speed>0.000000</speed>
</trkpt>
<trkpt lat="43.186394" lon="19.276772">
<ele>993.398926</ele>
<time>2012-04-29T13:41:50Z</time>
<desc>lat.=43.186394, lon.=19.276772, Alt.=993.398926m. Speed=0.000000m/h.</desc>
<speed>0.000000</speed>
</trkpt>
<trkpt lat="43.186394" lon="19.276772">
<ele>993.414551</ele>
<time>2012-04-29T13:41:55Z</time>
<desc>lat.=43.186394, lon.=19.276772, Alt.=993.414551m. Speed=0.000000m/h.</desc>
<speed>0.000000</speed>
</trkpt>
<trkpt lat="43.186394" lon="19.276772">
<ele>993.430176</ele>
<time>2012-04-29T13:42:00Z</time>
<desc>lat.=43.186394, lon.=19.276772, Alt.=993.430176m. Speed=0.000000m/h.</desc>
<speed>0.000000</speed>
</trkpt>
<trkpt lat="43.186394" lon="19.276772">
<ele>993.445801</ele>
<time>2012-04-29T13:42:05Z</time>
<desc>lat.=43.186394, lon.=19.276772, Alt.=993.445801m. Speed=0.000000m/h.</desc>
<speed>0.000000</speed>
</trkpt>
<trkpt lat="43.186394" lon="19.276770">
<ele>993.477051</ele>
<time>2012-04-29T13:42:10Z</time>
<desc>lat.=43.186394, lon.=19.276770, Alt.=993.477051m. Speed=0.000000m/h.</desc>
<speed>0.000000</speed>
</trkpt>
<trkpt lat="43.186394" lon="19.276770">
<ele>993.492676</ele>
<time>2012-04-29T13:42:15Z</time>
<desc>lat.=43.186394, lon.=19.276770, Alt.=993.492676m. Speed=0.000000m/h.</desc>
<speed>0.000000</speed>
</trkpt>
<trkpt lat="43.186394" lon="19.276770">
<ele>993.508301</ele>
<time>2012-04-29T13:42:20Z</time>
<desc>lat.=43.186394, lon.=19.276770, Alt.=993.508301m. Speed=0.000000m/h.</desc>
<speed>0.000000</speed>
</trkpt>
<trkpt lat="43.186394" lon="19.276770">
<ele>993.523926</ele>
<time>2012-04-29T13:42:25Z</time>
<desc>lat.=43.186394, lon.=19.276770, Alt.=993.523926m. Speed=0.000000m/h.</desc>
<speed>0.000000</speed>
</trkpt>
<trkpt lat="43.186394" lon="19.276770">
<ele>993.539551</ele>
<time>2012-04-29T13:42:30Z</time>
<desc>lat.=43.186394, lon.=19.276770, Alt.=993.539551m. Speed=0.000000m/h.</desc>
<speed>0.000000</speed>
</trkpt>
<trkpt lat="43.186394" lon="19.276770">
<ele>993.523926</ele>
<time>2012-04-29T13:42:35Z</time>
<desc>lat.=43.186394, lon.=19.276770, Alt.=993.523926m. Speed=0.000000m/h.</desc>
<speed>0.000000</speed>
</trkpt>
<trkpt lat="43.186394" lon="19.276770">
<ele>993.523926</ele>
<time>2012-04-29T13:42:40Z</time>
<desc>lat.=43.186394, lon.=19.276770, Alt.=993.523926m. Speed=0.000000m/h.</desc>
<speed>0.000000</speed>
</trkpt>
<trkpt lat="43.186394" lon="19.276770">
<ele>993.539551</ele>
<time>2012-04-29T13:42:45Z</time>
<desc>lat.=43.186394, lon.=19.276770, Alt.=993.539551m. Speed=0.000000m/h.</desc>
<speed>0.000000</speed>
</trkpt>
<trkpt lat="43.186394" lon="19.276772">
<ele>993.555176</ele>
<time>2012-04-29T13:42:50Z</time>
<desc>lat.=43.186394, lon.=19.276772, Alt.=993.555176m. Speed=0.000000m/h.</desc>
<speed>0.000000</speed>
</trkpt>
<trkpt lat="43.186394" lon="19.276772">
<ele>993.555176</ele>
<time>2012-04-29T13:42:55Z</time>
<desc>lat.=43.186394, lon.=19.276772, Alt.=993.555176m. Speed=0.000000m/h.</desc>
<speed>0.000000</speed>
</trkpt>
<trkpt lat="43.186394" lon="19.276772">
<ele>993.570801</ele>
<time>2012-04-29T13:43:00Z</time>
<desc>lat.=43.186394, lon.=19.276772, Alt.=993.570801m. Speed=0.000000m/h.</desc>
<speed>0.000000</speed>
</trkpt>
<trkpt lat="43.186390" lon="19.276770">
<ele>993.586426</ele>
<time>2012-04-29T13:43:05Z</time>
<desc>lat.=43.186390, lon.=19.276770, Alt.=993.586426m. Speed=0.000000m/h.</desc>
<speed>0.000000</speed>
</trkpt>
<trkpt lat="43.186390" lon="19.276770">
<ele>993.617676</ele>
<time>2012-04-29T13:43:10Z</time>
<desc>lat.=43.186390, lon.=19.276770, Alt.=993.617676m. Speed=0.000000m/h.</desc>
<speed>0.000000</speed>
</trkpt>
<trkpt lat="43.186390" lon="19.276770">
<ele>993.633301</ele>
<time>2012-04-29T13:43:15Z</time>
<desc>lat.=43.186390, lon.=19.276770, Alt.=993.633301m. Speed=0.000000m/h.</desc>
<speed>0.000000</speed>
</trkpt>
<trkpt lat="43.186390" lon="19.276770">
<ele>993.648926</ele>
<time>2012-04-29T13:43:20Z</time>
<desc>lat.=43.186390, lon.=19.276770, Alt.=993.648926m. Speed=0.000000m/h.</desc>
<speed>0.000000</speed>
</trkpt>
<trkpt lat="43.186390" lon="19.276770">
<ele>993.664551</ele>
<time>2012-04-29T13:43:25Z</time>
<desc>lat.=43.186390, lon.=19.276770, Alt.=993.664551m. Speed=0.000000m/h.</desc>
<speed>0.000000</speed>
</trkpt>
<trkpt lat="43.186390" lon="19.276770">
<ele>993.680176</ele>
<time>2012-04-29T13:43:30Z</time>
<desc>lat.=43.186390, lon.=19.276770, Alt.=993.680176m. Speed=0.000000m/h.</desc>
<speed>0.000000</speed>
</trkpt>
<trkpt lat="43.186390" lon="19.276770">
<ele>993.680176</ele>
<time>2012-04-29T13:43:35Z</time>
<desc>lat.=43.186390, lon.=19.276770, Alt.=993.680176m. Speed=0.000000m/h.</desc>
<speed>0.000000</speed>
</trkpt>
<trkpt lat="43.186390" lon="19.276768">
<ele>993.711426</ele>
<time>2012-04-29T13:43:40Z</time>
<desc>lat.=43.186390, lon.=19.276768, Alt.=993.711426m. Speed=0.000000m/h.</desc>
<speed>0.000000</speed>
</trkpt>
<trkpt lat="43.186390" lon="19.276768">
<ele>993.727051</ele>
<time>2012-04-29T13:43:45Z</time>
<desc>lat.=43.186390, lon.=19.276768, Alt.=993.727051m. Speed=0.000000m/h.</desc>
<speed>0.000000</speed>
</trkpt>
<trkpt lat="43.186390" lon="19.276768">
<ele>993.742676</ele>
<time>2012-04-29T13:43:50Z</time>
<desc>lat.=43.186390, lon.=19.276768, Alt.=993.742676m. Speed=0.000000m/h.</desc>
<speed>0.000000</speed>
</trkpt>
<trkpt lat="43.186390" lon="19.276768">
<ele>993.773926</ele>
<time>2012-04-29T13:43:55Z</time>
<desc>lat.=43.186390, lon.=19.276768, Alt.=993.773926m. Speed=0.000000m/h.</desc>
<speed>0.000000</speed>
</trkpt>
<trkpt lat="43.186390" lon="19.276768">
<ele>993.789551</ele>
<time>2012-04-29T13:44:00Z</time>
<desc>lat.=43.186390, lon.=19.276768, Alt.=993.789551m. Speed=0.000000m/h.</desc>
<speed>0.000000</speed>
</trkpt>
<trkpt lat="43.186390" lon="19.276768">
<ele>993.805176</ele>
<time>2012-04-29T13:44:05Z</time>
<desc>lat.=43.186390, lon.=19.276768, Alt.=993.805176m. Speed=0.000000m/h.</desc>
<speed>0.000000</speed>
</trkpt>
<trkpt lat="43.186390" lon="19.276768">
<ele>993.805176</ele>
<time>2012-04-29T13:44:10Z</time>
<desc>lat.=43.186390, lon.=19.276768, Alt.=993.805176m. Speed=0.000000m/h.</desc>
<speed>0.000000</speed>
</trkpt>
<trkpt lat="43.186390" lon="19.276766">
<ele>993.805176</ele>
<time>2012-04-29T13:44:15Z</time>
<desc>lat.=43.186390, lon.=19.276766, Alt.=993.805176m. Speed=0.000000m/h.</desc>
<speed>0.000000</speed>
</trkpt>
<trkpt lat="43.186390" lon="19.276766">
<ele>993.805176</ele>
<time>2012-04-29T13:44:20Z</time>
<desc>lat.=43.186390, lon.=19.276766, Alt.=993.805176m. Speed=0.000000m/h.</desc>
<speed>0.000000</speed>
</trkpt>
<trkpt lat="43.186390" lon="19.276766">
<ele>993.805176</ele>
<time>2012-04-29T13:44:25Z</time>
<desc>lat.=43.186390, lon.=19.276766, Alt.=993.805176m. Speed=0.000000m/h.</desc>
<speed>0.000000</speed>
</trkpt>
<trkpt lat="43.186390" lon="19.276766">
<ele>993.805176</ele>
<time>2012-04-29T13:44:30Z</time>
<desc>lat.=43.186390, lon.=19.276766, Alt.=993.805176m. Speed=0.000000m/h.</desc>
<speed>0.000000</speed>
</trkpt>
<trkpt lat="43.186390" lon="19.276766">
<ele>993.820801</ele>
<time>2012-04-29T13:44:35Z</time>
<desc>lat.=43.186390, lon.=19.276766, Alt.=993.820801m. Speed=0.036000m/h.</desc>
<speed>0.010000</speed>
</trkpt>
<trkpt lat="43.186390" lon="19.276766">
<ele>993.820801</ele>
<time>2012-04-29T13:44:40Z</time>
<desc>lat.=43.186390, lon.=19.276766, Alt.=993.820801m. Speed=0.000000m/h.</desc>
<speed>0.000000</speed>
</trkpt>
<trkpt lat="43.186390" lon="19.276766">
<ele>993.836426</ele>
<time>2012-04-29T13:44:45Z</time>
<desc>lat.=43.186390, lon.=19.276766, Alt.=993.836426m. Speed=0.000000m/h.</desc>
<speed>0.000000</speed>
</trkpt>
<trkpt lat="43.186390" lon="19.276766">
<ele>993.852051</ele>
<time>2012-04-29T13:44:50Z</time>
<desc>lat.=43.186390, lon.=19.276766, Alt.=993.852051m. Speed=0.000000m/h.</desc>
<speed>0.000000</speed>
</trkpt>
<trkpt lat="43.186390" lon="19.276766">
<ele>993.867676</ele>
<time>2012-04-29T13:44:55Z</time>
<desc>lat.=43.186390, lon.=19.276766, Alt.=993.867676m. Speed=0.000000m/h.</desc>
<speed>0.000000</speed>
</trkpt>
<trkpt lat="43.186390" lon="19.276766">
<ele>993.883301</ele>
<time>2012-04-29T13:45:00Z</time>
<desc>lat.=43.186390, lon.=19.276766, Alt.=993.883301m. Speed=0.000000m/h.</desc>
<speed>0.000000</speed>
</trkpt>
<trkpt lat="43.186390" lon="19.276766">
<ele>993.883301</ele>
<time>2012-04-29T13:45:05Z</time>
<desc>lat.=43.186390, lon.=19.276766, Alt.=993.883301m. Speed=0.000000m/h.</desc>
<speed>0.000000</speed>
</trkpt>
<trkpt lat="43.186390" lon="19.276766">
<ele>993.883301</ele>
<time>2012-04-29T13:45:10Z</time>
<desc>lat.=43.186390, lon.=19.276766, Alt.=993.883301m. Speed=0.000000m/h.</desc>
<speed>0.000000</speed>
</trkpt>
<trkpt lat="43.186390" lon="19.276766">
<ele>993.867676</ele>
<time>2012-04-29T13:45:15Z</time>
<desc>lat.=43.186390, lon.=19.276766, Alt.=993.867676m. Speed=0.036000m/h.</desc>
<speed>0.010000</speed>
</trkpt>
<trkpt lat="43.186390" lon="19.276766">
<ele>993.867676</ele>
<time>2012-04-29T13:45:20Z</time>
<desc>lat.=43.186390, lon.=19.276766, Alt.=993.867676m. Speed=0.000000m/h.</desc>
<speed>0.000000</speed>
</trkpt>
<trkpt lat="43.186390" lon="19.276766">
<ele>993.867676</ele>
<time>2012-04-29T13:45:25Z</time>
<desc>lat.=43.186390, lon.=19.276766, Alt.=993.867676m. Speed=0.000000m/h.</desc>
<speed>0.000000</speed>
</trkpt>
<trkpt lat="43.186390" lon="19.276766">
<ele>993.867676</ele>
<time>2012-04-29T13:45:30Z</time>
<desc>lat.=43.186390, lon.=19.276766, Alt.=993.867676m. Speed=0.000000m/h.</desc>
<speed>0.000000</speed>
</trkpt>
<trkpt lat="43.186390" lon="19.276766">
<ele>993.867676</ele>
<time>2012-04-29T13:45:35Z</time>
<desc>lat.=43.186390, lon.=19.276766, Alt.=993.867676m. Speed=0.000000m/h.</desc>
<speed>0.000000</speed>
</trkpt>
<trkpt lat="43.186390" lon="19.276766">
<ele>993.867676</ele>
<time>2012-04-29T13:45:40Z</time>
<desc>lat.=43.186390, lon.=19.276766, Alt.=993.867676m. Speed=0.000000m/h.</desc>
<speed>0.000000</speed>
</trkpt>
<trkpt lat="43.186390" lon="19.276766">
<ele>993.867676</ele>
<time>2012-04-29T13:45:45Z</time>
<desc>lat.=43.186390, lon.=19.276766, Alt.=993.867676m. Speed=0.000000m/h.</desc>
<speed>0.000000</speed>
</trkpt>
<trkpt lat="43.186390" lon="19.276766">
<ele>993.852051</ele>
<time>2012-04-29T13:45:50Z</time>
<desc>lat.=43.186390, lon.=19.276766, Alt.=993.852051m. Speed=0.000000m/h.</desc>
<speed>0.000000</speed>
</trkpt>
<trkpt lat="43.186390" lon="19.276766">
<ele>993.852051</ele>
<time>2012-04-29T13:45:55Z</time>
<desc>lat.=43.186390, lon.=19.276766, Alt.=993.852051m. Speed=0.000000m/h.</desc>
<speed>0.000000</speed>
</trkpt>
<trkpt lat="43.186390" lon="19.276766">
<ele>993.836426</ele>
<time>2012-04-29T13:46:00Z</time>
<desc>lat.=43.186390, lon.=19.276766, Alt.=993.836426m. Speed=0.000000m/h.</desc>
<speed>0.000000</speed>
</trkpt>
<trkpt lat="43.186390" lon="19.276768">
<ele>993.836426</ele>
<time>2012-04-29T13:46:05Z</time>
<desc>lat.=43.186390, lon.=19.276768, Alt.=993.836426m. Speed=0.000000m/h.</desc>
<speed>0.000000</speed>
</trkpt>
<trkpt lat="43.186390" lon="19.276768">
<ele>993.820801</ele>
<time>2012-04-29T13:46:10Z</time>
<desc>lat.=43.186390, lon.=19.276768, Alt.=993.820801m. Speed=0.000000m/h.</desc>
<speed>0.000000</speed>
</trkpt>
<trkpt lat="43.186390" lon="19.276768">
<ele>993.820801</ele>
<time>2012-04-29T13:46:15Z</time>
<desc>lat.=43.186390, lon.=19.276768, Alt.=993.820801m. Speed=0.000000m/h.</desc>
<speed>0.000000</speed>
</trkpt>
<trkpt lat="43.186390" lon="19.276768">
<ele>993.820801</ele>
<time>2012-04-29T13:46:20Z</time>
<desc>lat.=43.186390, lon.=19.276768, Alt.=993.820801m. Speed=0.000000m/h.</desc>
<speed>0.000000</speed>
</trkpt>
<trkpt lat="43.186390" lon="19.276768">
<ele>993.820801</ele>
<time>2012-04-29T13:46:25Z</time>
<desc>lat.=43.186390, lon.=19.276768, Alt.=993.820801m. Speed=0.000000m/h.</desc>
<speed>0.000000</speed>
</trkpt>
<trkpt lat="43.186390" lon="19.276768">
<ele>993.836426</ele>
<time>2012-04-29T13:46:30Z</time>
<desc>lat.=43.186390, lon.=19.276768, Alt.=993.836426m. Speed=0.000000m/h.</desc>
<speed>0.000000</speed>
</trkpt>
<trkpt lat="43.186390" lon="19.276768">
<ele>993.836426</ele>
<time>2012-04-29T13:46:35Z</time>
<desc>lat.=43.186390, lon.=19.276768, Alt.=993.836426m. Speed=0.000000m/h.</desc>
<speed>0.000000</speed>
</trkpt>
<trkpt lat="43.186390" lon="19.276768">
<ele>993.836426</ele>
<time>2012-04-29T13:46:40Z</time>
<desc>lat.=43.186390, lon.=19.276768, Alt.=993.836426m. Speed=0.000000m/h.</desc>
<speed>0.000000</speed>
</trkpt>
<trkpt lat="43.186390" lon="19.276768">
<ele>993.836426</ele>
<time>2012-04-29T13:46:45Z</time>
<desc>lat.=43.186390, lon.=19.276768, Alt.=993.836426m. Speed=0.000000m/h.</desc>
<speed>0.000000</speed>
</trkpt>
<trkpt lat="43.186390" lon="19.276768">
<ele>993.820801</ele>
<time>2012-04-29T13:46:50Z</time>
<desc>lat.=43.186390, lon.=19.276768, Alt.=993.820801m. Speed=0.000000m/h.</desc>
<speed>0.000000</speed>
</trkpt>
<trkpt lat="43.186390" lon="19.276768">
<ele>993.820801</ele>
<time>2012-04-29T13:46:55Z</time>
<desc>lat.=43.186390, lon.=19.276768, Alt.=993.820801m. Speed=0.000000m/h.</desc>
<speed>0.000000</speed>
</trkpt>
<trkpt lat="43.186390" lon="19.276768">
<ele>993.820801</ele>
<time>2012-04-29T13:47:00Z</time>
<desc>lat.=43.186390, lon.=19.276768, Alt.=993.820801m. Speed=0.000000m/h.</desc>
<speed>0.000000</speed>
</trkpt>
<trkpt lat="43.186386" lon="19.276768">
<ele>993.836426</ele>
<time>2012-04-29T13:47:05Z</time>
<desc>lat.=43.186386, lon.=19.276768, Alt.=993.836426m. Speed=0.000000m/h.</desc>
<speed>0.000000</speed>
</trkpt>
<trkpt lat="43.186386" lon="19.276768">
<ele>993.836426</ele>
<time>2012-04-29T13:47:10Z</time>
<desc>lat.=43.186386, lon.=19.276768, Alt.=993.836426m. Speed=0.000000m/h.</desc>
<speed>0.000000</speed>
</trkpt>
<trkpt lat="43.186386" lon="19.276768">
<ele>993.852051</ele>
<time>2012-04-29T13:47:15Z</time>
<desc>lat.=43.186386, lon.=19.276768, Alt.=993.852051m. Speed=0.000000m/h.</desc>
<speed>0.000000</speed>
</trkpt>
<trkpt lat="43.186386" lon="19.276768">
<ele>993.852051</ele>
<time>2012-04-29T13:47:20Z</time>
<desc>lat.=43.186386, lon.=19.276768, Alt.=993.852051m. Speed=0.000000m/h.</desc>
<speed>0.000000</speed>
</trkpt>
<trkpt lat="43.186386" lon="19.276768">
<ele>993.852051</ele>
<time>2012-04-29T13:47:25Z</time>
<desc>lat.=43.186386, lon.=19.276768, Alt.=993.852051m. Speed=0.000000m/h.</desc>
<speed>0.000000</speed>
</trkpt>
<trkpt lat="43.186386" lon="19.276770">
<ele>993.852051</ele>
<time>2012-04-29T13:47:30Z</time>
<desc>lat.=43.186386, lon.=19.276770, Alt.=993.852051m. Speed=0.000000m/h.</desc>
<speed>0.000000</speed>
</trkpt>
<trkpt lat="43.186386" lon="19.276770">
<ele>993.852051</ele>
<time>2012-04-29T13:47:35Z</time>
<desc>lat.=43.186386, lon.=19.276770, Alt.=993.852051m. Speed=0.000000m/h.</desc>
<speed>0.000000</speed>
</trkpt>
<trkpt lat="43.186386" lon="19.276770">
<ele>993.852051</ele>
<time>2012-04-29T13:47:40Z</time>
<desc>lat.=43.186386, lon.=19.276770, Alt.=993.852051m. Speed=0.000000m/h.</desc>
<speed>0.000000</speed>
</trkpt>
<trkpt lat="43.186386" lon="19.276770">
<ele>993.867676</ele>
<time>2012-04-29T13:47:45Z</time>
<desc>lat.=43.186386, lon.=19.276770, Alt.=993.867676m. Speed=0.000000m/h.</desc>
<speed>0.000000</speed>
</trkpt>
<trkpt lat="43.186386" lon="19.276770">
<ele>993.867676</ele>
<time>2012-04-29T13:47:50Z</time>
<desc>lat.=43.186386, lon.=19.276770, Alt.=993.867676m. Speed=0.000000m/h.</desc>
<speed>0.000000</speed>
</trkpt>
<trkpt lat="43.186386" lon="19.276770">
<ele>993.883301</ele>
<time>2012-04-29T13:47:55Z</time>
<desc>lat.=43.186386, lon.=19.276770, Alt.=993.883301m. Speed=0.000000m/h.</desc>
<speed>0.000000</speed>
</trkpt>
<trkpt lat="43.186386" lon="19.276770">
<ele>993.883301</ele>
<time>2012-04-29T13:48:00Z</time>
<desc>lat.=43.186386, lon.=19.276770, Alt.=993.883301m. Speed=0.000000m/h.</desc>
<speed>0.000000</speed>
</trkpt>
<trkpt lat="43.186386" lon="19.276770">
<ele>993.883301</ele>
<time>2012-04-29T13:48:05Z</time>
<desc>lat.=43.186386, lon.=19.276770, Alt.=993.883301m. Speed=0.000000m/h.</desc>
<speed>0.000000</speed>
</trkpt>
<trkpt lat="43.186386" lon="19.276770">
<ele>993.898926</ele>
<time>2012-04-29T13:48:10Z</time>
<desc>lat.=43.186386, lon.=19.276770, Alt.=993.898926m. Speed=0.000000m/h.</desc>
<speed>0.000000</speed>
</trkpt>
<trkpt lat="43.186386" lon="19.276772">
<ele>993.898926</ele>
<time>2012-04-29T13:48:15Z</time>
<desc>lat.=43.186386, lon.=19.276772, Alt.=993.898926m. Speed=0.000000m/h.</desc>
<speed>0.000000</speed>
</trkpt>
<trkpt lat="43.186386" lon="19.276772">
<ele>993.898926</ele>
<time>2012-04-29T13:48:20Z</time>
<desc>lat.=43.186386, lon.=19.276772, Alt.=993.898926m. Speed=0.000000m/h.</desc>
<speed>0.000000</speed>
</trkpt>
<trkpt lat="43.186386" lon="19.276772">
<ele>993.898926</ele>
<time>2012-04-29T13:48:25Z</time>
<desc>lat.=43.186386, lon.=19.276772, Alt.=993.898926m. Speed=0.000000m/h.</desc>
<speed>0.000000</speed>
</trkpt>
<trkpt lat="43.186386" lon="19.276770">
<ele>993.898926</ele>
<time>2012-04-29T13:48:30Z</time>
<desc>lat.=43.186386, lon.=19.276770, Alt.=993.898926m. Speed=0.000000m/h.</desc>
<speed>0.000000</speed>
</trkpt>
<trkpt lat="43.186386" lon="19.276770">
<ele>993.883301</ele>
<time>2012-04-29T13:48:35Z</time>
<desc>lat.=43.186386, lon.=19.276770, Alt.=993.883301m. Speed=0.000000m/h.</desc>
<speed>0.000000</speed>
</trkpt>
<trkpt lat="43.186386" lon="19.276770">
<ele>993.883301</ele>
<time>2012-04-29T13:48:40Z</time>
<desc>lat.=43.186386, lon.=19.276770, Alt.=993.883301m. Speed=0.000000m/h.</desc>
<speed>0.000000</speed>
</trkpt>
<trkpt lat="43.186386" lon="19.276770">
<ele>993.883301</ele>
<time>2012-04-29T13:48:45Z</time>
<desc>lat.=43.186386, lon.=19.276770, Alt.=993.883301m. Speed=0.000000m/h.</desc>
<speed>0.000000</speed>
</trkpt>
<trkpt lat="43.186386" lon="19.276770">
<ele>993.898926</ele>
<time>2012-04-29T13:48:50Z</time>
<desc>lat.=43.186386, lon.=19.276770, Alt.=993.898926m. Speed=0.000000m/h.</desc>
<speed>0.000000</speed>
</trkpt>
<trkpt lat="43.186386" lon="19.276770">
<ele>993.898926</ele>
<time>2012-04-29T13:48:55Z</time>
<desc>lat.=43.186386, lon.=19.276770, Alt.=993.898926m. Speed=0.000000m/h.</desc>
<speed>0.000000</speed>
</trkpt>
<trkpt lat="43.186386" lon="19.276770">
<ele>993.898926</ele>
<time>2012-04-29T13:49:00Z</time>
<desc>lat.=43.186386, lon.=19.276770, Alt.=993.898926m. Speed=0.000000m/h.</desc>
<speed>0.000000</speed>
</trkpt>
<trkpt lat="43.186386" lon="19.276770">
<ele>993.898926</ele>
<time>2012-04-29T13:49:05Z</time>
<desc>lat.=43.186386, lon.=19.276770, Alt.=993.898926m. Speed=0.000000m/h.</desc>
<speed>0.000000</speed>
</trkpt>
<trkpt lat="43.186386" lon="19.276770">
<ele>993.883301</ele>
<time>2012-04-29T13:49:10Z</time>
<desc>lat.=43.186386, lon.=19.276770, Alt.=993.883301m. Speed=0.036000m/h.</desc>
<speed>0.010000</speed>
</trkpt>
<trkpt lat="43.186386" lon="19.276770">
<ele>993.898926</ele>
<time>2012-04-29T13:49:15Z</time>
<desc>lat.=43.186386, lon.=19.276770, Alt.=993.898926m. Speed=0.000000m/h.</desc>
<speed>0.000000</speed>
</trkpt>
<trkpt lat="43.186386" lon="19.276770">
<ele>993.898926</ele>
<time>2012-04-29T13:49:20Z</time>
<desc>lat.=43.186386, lon.=19.276770, Alt.=993.898926m. Speed=0.000000m/h.</desc>
<speed>0.000000</speed>
</trkpt>
<trkpt lat="43.186386" lon="19.276770">
<ele>993.898926</ele>
<time>2012-04-29T13:49:25Z</time>
<desc>lat.=43.186386, lon.=19.276770, Alt.=993.898926m. Speed=0.000000m/h.</desc>
<speed>0.000000</speed>
</trkpt>
<trkpt lat="43.186386" lon="19.276770">
<ele>993.883301</ele>
<time>2012-04-29T13:49:30Z</time>
<desc>lat.=43.186386, lon.=19.276770, Alt.=993.883301m. Speed=0.000000m/h.</desc>
<speed>0.000000</speed>
</trkpt>
<trkpt lat="43.186386" lon="19.276770">
<ele>993.883301</ele>
<time>2012-04-29T13:49:35Z</time>
<desc>lat.=43.186386, lon.=19.276770, Alt.=993.883301m. Speed=0.000000m/h.</desc>
<speed>0.000000</speed>
</trkpt>
<trkpt lat="43.186386" lon="19.276770">
<ele>993.898926</ele>
<time>2012-04-29T13:49:40Z</time>
<desc>lat.=43.186386, lon.=19.276770, Alt.=993.898926m. Speed=0.000000m/h.</desc>
<speed>0.000000</speed>
</trkpt>
<trkpt lat="43.186386" lon="19.276770">
<ele>993.898926</ele>
<time>2012-04-29T13:49:45Z</time>
<desc>lat.=43.186386, lon.=19.276770, Alt.=993.898926m. Speed=0.000000m/h.</desc>
<speed>0.000000</speed>
</trkpt>
<trkpt lat="43.186386" lon="19.276770">
<ele>993.898926</ele>
<time>2012-04-29T13:49:50Z</time>
<desc>lat.=43.186386, lon.=19.276770, Alt.=993.898926m. Speed=0.072000m/h.</desc>
<speed>0.020000</speed>
</trkpt>
<trkpt lat="43.186386" lon="19.276770">
<ele>993.914551</ele>
<time>2012-04-29T13:49:55Z</time>
<desc>lat.=43.186386, lon.=19.276770, Alt.=993.914551m. Speed=0.000000m/h.</desc>
<speed>0.000000</speed>
</trkpt>
<trkpt lat="43.186386" lon="19.276770">
<ele>993.898926</ele>
<time>2012-04-29T13:50:00Z</time>
<desc>lat.=43.186386, lon.=19.276770, Alt.=993.898926m. Speed=0.000000m/h.</desc>
<speed>0.000000</speed>
</trkpt>
<trkpt lat="43.186386" lon="19.276770">
<ele>993.898926</ele>
<time>2012-04-29T13:50:05Z</time>
<desc>lat.=43.186386, lon.=19.276770, Alt.=993.898926m. Speed=0.000000m/h.</desc>
<speed>0.000000</speed>
</trkpt>
<trkpt lat="43.186386" lon="19.276770">
<ele>993.883301</ele>
<time>2012-04-29T13:50:10Z</time>
<desc>lat.=43.186386, lon.=19.276770, Alt.=993.883301m. Speed=0.000000m/h.</desc>
<speed>0.000000</speed>
</trkpt>
<trkpt lat="43.186386" lon="19.276770">
<ele>993.883301</ele>
<time>2012-04-29T13:50:15Z</time>
<desc>lat.=43.186386, lon.=19.276770, Alt.=993.883301m. Speed=0.072000m/h.</desc>
<speed>0.020000</speed>
</trkpt>
<trkpt lat="43.186386" lon="19.276775">
<ele>993.945801</ele>
<time>2012-04-29T13:50:20Z</time>
<desc>lat.=43.186386, lon.=19.276775, Alt.=993.945801m. Speed=0.036000m/h.</desc>
<speed>0.010000</speed>
</trkpt>
<trkpt lat="43.186386" lon="19.276775">
<ele>993.898926</ele>
<time>2012-04-29T13:50:25Z</time>
<desc>lat.=43.186386, lon.=19.276775, Alt.=993.898926m. Speed=1.908000m/h.</desc>
<speed>0.530000</speed>
</trkpt>
<trkpt lat="43.186394" lon="19.276781">
<ele>993.961426</ele>
<time>2012-04-29T13:50:30Z</time>
<desc>lat.=43.186394, lon.=19.276781, Alt.=993.961426m. Speed=0.036000m/h.</desc>
<speed>0.010000</speed>
</trkpt>
<trkpt lat="43.186394" lon="19.276781">
<ele>993.961426</ele>
<time>2012-04-29T13:50:35Z</time>
<desc>lat.=43.186394, lon.=19.276781, Alt.=993.961426m. Speed=0.036000m/h.</desc>
<speed>0.010000</speed>
</trkpt>
<trkpt lat="43.186394" lon="19.276781">
<ele>993.961426</ele>
<time>2012-04-29T13:50:40Z</time>
<desc>lat.=43.186394, lon.=19.276781, Alt.=993.961426m. Speed=0.000000m/h.</desc>
<speed>0.000000</speed>
</trkpt>
<trkpt lat="43.186394" lon="19.276781">
<ele>993.977051</ele>
<time>2012-04-29T13:50:45Z</time>
<desc>lat.=43.186394, lon.=19.276781, Alt.=993.977051m. Speed=0.036000m/h.</desc>
<speed>0.010000</speed>
</trkpt>
<trkpt lat="43.186394" lon="19.276781">
<ele>993.977051</ele>
<time>2012-04-29T13:50:50Z</time>
<desc>lat.=43.186394, lon.=19.276781, Alt.=993.977051m. Speed=0.000000m/h.</desc>
<speed>0.000000</speed>
</trkpt>
<trkpt lat="43.186394" lon="19.276781">
<ele>993.977051</ele>
<time>2012-04-29T13:50:55Z</time>
<desc>lat.=43.186394, lon.=19.276781, Alt.=993.977051m. Speed=0.000000m/h.</desc>
<speed>0.000000</speed>
</trkpt>
<trkpt lat="43.186394" lon="19.276781">
<ele>993.977051</ele>
<time>2012-04-29T13:51:00Z</time>
<desc>lat.=43.186394, lon.=19.276781, Alt.=993.977051m. Speed=0.000000m/h.</desc>
<speed>0.000000</speed>
</trkpt>
<trkpt lat="43.186394" lon="19.276781">
<ele>993.977051</ele>
<time>2012-04-29T13:51:05Z</time>
<desc>lat.=43.186394, lon.=19.276781, Alt.=993.977051m. Speed=0.036000m/h.</desc>
<speed>0.010000</speed>
</trkpt>
<trkpt lat="43.186394" lon="19.276779">
<ele>993.977051</ele>
<time>2012-04-29T13:51:10Z</time>
<desc>lat.=43.186394, lon.=19.276779, Alt.=993.977051m. Speed=0.072000m/h.</desc>
<speed>0.020000</speed>
</trkpt>
<trkpt lat="43.186394" lon="19.276779">
<ele>993.977051</ele>
<time>2012-04-29T13:51:15Z</time>
<desc>lat.=43.186394, lon.=19.276779, Alt.=993.977051m. Speed=0.000000m/h.</desc>
<speed>0.000000</speed>
</trkpt>
<trkpt lat="43.186394" lon="19.276781">
<ele>993.914551</ele>
<time>2012-04-29T13:51:20Z</time>
<desc>lat.=43.186394, lon.=19.276781, Alt.=993.914551m. Speed=1.188000m/h.</desc>
<speed>0.330000</speed>
</trkpt>
<trkpt lat="43.186428" lon="19.276787">
<ele>993.617676</ele>
<time>2012-04-29T13:51:25Z</time>
<desc>lat.=43.186428, lon.=19.276787, Alt.=993.617676m. Speed=3.960000m/h.</desc>
<speed>1.100000</speed>
</trkpt>
<trkpt lat="43.186462" lon="19.276747">
<ele>993.914551</ele>
<time>2012-04-29T13:51:30Z</time>
<desc>lat.=43.186462, lon.=19.276747, Alt.=993.914551m. Speed=5.328000m/h.</desc>
<speed>1.480000</speed>
</trkpt>
<trkpt lat="43.186516" lon="19.276686">
<ele>995.242676</ele>
<time>2012-04-29T13:51:35Z</time>
<desc>lat.=43.186516, lon.=19.276686, Alt.=995.242676m. Speed=5.580000m/h.</desc>
<speed>1.550000</speed>
</trkpt>
<trkpt lat="43.186581" lon="19.276608">
<ele>997.398926</ele>
<time>2012-04-29T13:51:40Z</time>
<desc>lat.=43.186581, lon.=19.276608, Alt.=997.398926m. Speed=6.192000m/h.</desc>
<speed>1.720000</speed>
</trkpt>
<trkpt lat="43.186623" lon="19.276543">
<ele>999.758301</ele>
<time>2012-04-29T13:51:45Z</time>
<desc>lat.=43.186623, lon.=19.276543, Alt.=999.758301m. Speed=5.184000m/h.</desc>
<speed>1.440000</speed>
</trkpt>
<trkpt lat="43.186676" lon="19.276470">
<ele>1002.055176</ele>
<time>2012-04-29T13:51:50Z</time>
<desc>lat.=43.186676, lon.=19.276470, Alt.=1002.055176m. Speed=5.616000m/h.</desc>
<speed>1.560000</speed>
</trkpt>
<trkpt lat="43.186745" lon="19.276432">
<ele>1005.945801</ele>
<time>2012-04-29T13:51:55Z</time>
<desc>lat.=43.186745, lon.=19.276432, Alt.=1005.945801m. Speed=7.308000m/h.</desc>
<speed>2.030000</speed>
</trkpt>
<trkpt lat="43.186855" lon="19.276400">
<ele>1008.320801</ele>
<time>2012-04-29T13:52:00Z</time>
<desc>lat.=43.186855, lon.=19.276400, Alt.=1008.320801m. Speed=5.688000m/h.</desc>
<speed>1.580000</speed>
</trkpt>
<trkpt lat="43.186928" lon="19.276344">
<ele>1010.008301</ele>
<time>2012-04-29T13:52:05Z</time>
<desc>lat.=43.186928, lon.=19.276344, Alt.=1010.008301m. Speed=4.896000m/h.</desc>
<speed>1.360000</speed>
</trkpt>
<trkpt lat="43.187004" lon="19.276308">
<ele>1011.195801</ele>
<time>2012-04-29T13:52:10Z</time>
<desc>lat.=43.187004, lon.=19.276308, Alt.=1011.195801m. Speed=3.384000m/h.</desc>
<speed>0.940000</speed>
</trkpt>
<trkpt lat="43.187023" lon="19.276283">
<ele>1011.117676</ele>
<time>2012-04-29T13:52:15Z</time>
<desc>lat.=43.187023, lon.=19.276283, Alt.=1011.117676m. Speed=2.052000m/h.</desc>
<speed>0.570000</speed>
</trkpt>
<trkpt lat="43.187046" lon="19.276249">
<ele>1011.664551</ele>
<time>2012-04-29T13:52:20Z</time>
<desc>lat.=43.187046, lon.=19.276249, Alt.=1011.664551m. Speed=0.360000m/h.</desc>
<speed>0.100000</speed>
</trkpt>
<trkpt lat="43.187046" lon="19.276230">
<ele>1012.180176</ele>
<time>2012-04-29T13:52:25Z</time>
<desc>lat.=43.187046, lon.=19.276230, Alt.=1012.180176m. Speed=0.432000m/h.</desc>
<speed>0.120000</speed>
</trkpt>
<trkpt lat="43.187042" lon="19.276222">
<ele>1012.320801</ele>
<time>2012-04-29T13:52:30Z</time>
<desc>lat.=43.187042, lon.=19.276222, Alt.=1012.320801m. Speed=0.684000m/h.</desc>
<speed>0.190000</speed>
</trkpt>
<trkpt lat="43.187042" lon="19.276222">
<ele>1012.445801</ele>
<time>2012-04-29T13:52:35Z</time>
<desc>lat.=43.187042, lon.=19.276222, Alt.=1012.445801m. Speed=0.180000m/h.</desc>
<speed>0.050000</speed>
</trkpt>
<trkpt lat="43.187042" lon="19.276226">
<ele>1012.586426</ele>
<time>2012-04-29T13:52:40Z</time>
<desc>lat.=43.187042, lon.=19.276226, Alt.=1012.586426m. Speed=0.144000m/h.</desc>
<speed>0.040000</speed>
</trkpt>
<trkpt lat="43.187042" lon="19.276228">
<ele>1012.664551</ele>
<time>2012-04-29T13:52:45Z</time>
<desc>lat.=43.187042, lon.=19.276228, Alt.=1012.664551m. Speed=0.720000m/h.</desc>
<speed>0.200000</speed>
</trkpt>
<trkpt lat="43.187042" lon="19.276228">
<ele>1012.648926</ele>
<time>2012-04-29T13:52:50Z</time>
<desc>lat.=43.187042, lon.=19.276228, Alt.=1012.648926m. Speed=0.072000m/h.</desc>
<speed>0.020000</speed>
</trkpt>
<trkpt lat="43.187023" lon="19.276226">
<ele>1012.555176</ele>
<time>2012-04-29T13:52:55Z</time>
<desc>lat.=43.187023, lon.=19.276226, Alt.=1012.555176m. Speed=10.584000m/h.</desc>
<speed>2.940000</speed>
</trkpt>
<trkpt lat="43.186890" lon="19.276268">
<ele>1013.414551</ele>
<time>2012-04-29T13:53:00Z</time>
<desc>lat.=43.186890, lon.=19.276268, Alt.=1013.414551m. Speed=0.432000m/h.</desc>
<speed>0.120000</speed>
</trkpt>
<trkpt lat="43.186924" lon="19.276285">
<ele>1013.883301</ele>
<time>2012-04-29T13:53:05Z</time>
<desc>lat.=43.186924, lon.=19.276285, Alt.=1013.883301m. Speed=2.340000m/h.</desc>
<speed>0.650000</speed>
</trkpt>
<trkpt lat="43.186970" lon="19.276276">
<ele>1014.711426</ele>
<time>2012-04-29T13:53:10Z</time>
<desc>lat.=43.186970, lon.=19.276276, Alt.=1014.711426m. Speed=2.700000m/h.</desc>
<speed>0.750000</speed>
</trkpt>
<trkpt lat="43.187008" lon="19.276281">
<ele>1015.680176</ele>
<time>2012-04-29T13:53:15Z</time>
<desc>lat.=43.187008, lon.=19.276281, Alt.=1015.680176m. Speed=1.332000m/h.</desc>
<speed>0.370000</speed>
</trkpt>
<trkpt lat="43.187019" lon="19.276251">
<ele>1016.977051</ele>
<time>2012-04-29T13:53:20Z</time>
<desc>lat.=43.187019, lon.=19.276251, Alt.=1016.977051m. Speed=0.648000m/h.</desc>
<speed>0.180000</speed>
</trkpt>
<trkpt lat="43.187019" lon="19.276245">
<ele>1017.148926</ele>
<time>2012-04-29T13:53:25Z</time>
<desc>lat.=43.187019, lon.=19.276245, Alt.=1017.148926m. Speed=0.360000m/h.</desc>
<speed>0.100000</speed>
</trkpt>
<trkpt lat="43.187050" lon="19.276230">
<ele>1016.742676</ele>
<time>2012-04-29T13:53:30Z</time>
<desc>lat.=43.187050, lon.=19.276230, Alt.=1016.742676m. Speed=0.288000m/h.</desc>
<speed>0.080000</speed>
</trkpt>
<trkpt lat="43.186989" lon="19.276239">
<ele>1016.039551</ele>
<time>2012-04-29T13:53:35Z</time>
<desc>lat.=43.186989, lon.=19.276239, Alt.=1016.039551m. Speed=11.772000m/h.</desc>
<speed>3.270000</speed>
</trkpt>
<trkpt lat="43.186802" lon="19.276314">
<ele>1016.336426</ele>
<time>2012-04-29T13:53:40Z</time>
<desc>lat.=43.186802, lon.=19.276314, Alt.=1016.336426m. Speed=16.740000m/h.</desc>
<speed>4.650000</speed>
</trkpt>
<trkpt lat="43.186604" lon="19.276386">
<ele>1017.258301</ele>
<time>2012-04-29T13:53:45Z</time>
<desc>lat.=43.186604, lon.=19.276386, Alt.=1017.258301m. Speed=14.940000m/h.</desc>
<speed>4.150000</speed>
</trkpt>
<trkpt lat="43.186440" lon="19.276550">
<ele>1015.680176</ele>
<time>2012-04-29T13:53:50Z</time>
<desc>lat.=43.186440, lon.=19.276550, Alt.=1015.680176m. Speed=17.676001m/h.</desc>
<speed>4.910000</speed>
</trkpt>
<trkpt lat="43.186268" lon="19.276667">
<ele>1013.148926</ele>
<time>2012-04-29T13:53:55Z</time>
<desc>lat.=43.186268, lon.=19.276667, Alt.=1013.148926m. Speed=13.788000m/h.</desc>
<speed>3.830000</speed>
</trkpt>
<trkpt lat="43.186161" lon="19.276842">
<ele>1010.852051</ele>
<time>2012-04-29T13:54:00Z</time>
<desc>lat.=43.186161, lon.=19.276842, Alt.=1010.852051m. Speed=12.024000m/h.</desc>
<speed>3.340000</speed>
</trkpt>
<trkpt lat="43.186043" lon="19.277079">
<ele>1005.742676</ele>
<time>2012-04-29T13:54:05Z</time>
<desc>lat.=43.186043, lon.=19.277079, Alt.=1005.742676m. Speed=18.468000m/h.</desc>
<speed>5.130000</speed>
</trkpt>
<trkpt lat="43.185867" lon="19.277338">
<ele>1004.320801</ele>
<time>2012-04-29T13:54:10Z</time>
<desc>lat.=43.185867, lon.=19.277338, Alt.=1004.320801m. Speed=20.556000m/h.</desc>
<speed>5.710000</speed>
</trkpt>
<trkpt lat="43.185734" lon="19.277548">
<ele>1006.477051</ele>
<time>2012-04-29T13:54:15Z</time>
<desc>lat.=43.185734, lon.=19.277548, Alt.=1006.477051m. Speed=12.996000m/h.</desc>
<speed>3.610000</speed>
</trkpt>
<trkpt lat="43.185669" lon="19.277662">
<ele>1007.570801</ele>
<time>2012-04-29T13:54:20Z</time>
<desc>lat.=43.185669, lon.=19.277662, Alt.=1007.570801m. Speed=8.676000m/h.</desc>
<speed>2.410000</speed>
</trkpt>
<trkpt lat="43.185593" lon="19.277775">
<ele>1011.492676</ele>
<time>2012-04-29T13:54:25Z</time>
<desc>lat.=43.185593, lon.=19.277775, Alt.=1011.492676m. Speed=8.208000m/h.</desc>
<speed>2.280000</speed>
</trkpt>
<trkpt lat="43.185524" lon="19.277868">
<ele>1014.820801</ele>
<time>2012-04-29T13:54:30Z</time>
<desc>lat.=43.185524, lon.=19.277868, Alt.=1014.820801m. Speed=8.712000m/h.</desc>
<speed>2.420000</speed>
</trkpt>
<trkpt lat="43.185444" lon="19.277983">
<ele>1017.445801</ele>
<time>2012-04-29T13:54:35Z</time>
<desc>lat.=43.185444, lon.=19.277983, Alt.=1017.445801m. Speed=9.972000m/h.</desc>
<speed>2.770000</speed>
</trkpt>
<trkpt lat="43.185360" lon="19.278070">
<ele>1020.617676</ele>
<time>2012-04-29T13:54:40Z</time>
<desc>lat.=43.185360, lon.=19.278070, Alt.=1020.617676m. Speed=9.288000m/h.</desc>
<speed>2.580000</speed>
</trkpt>
<trkpt lat="43.185265" lon="19.278141">
<ele>1023.523926</ele>
<time>2012-04-29T13:54:45Z</time>
<desc>lat.=43.185265, lon.=19.278141, Alt.=1023.523926m. Speed=9.216000m/h.</desc>
<speed>2.560000</speed>
</trkpt>
<trkpt lat="43.185242" lon="19.278156">
<ele>1022.820801</ele>
<time>2012-04-29T13:54:50Z</time>
<desc>lat.=43.185242, lon.=19.278156, Alt.=1022.820801m. Speed=0.180000m/h.</desc>
<speed>0.050000</speed>
</trkpt>
<trkpt lat="43.185230" lon="19.278154">
<ele>1023.039551</ele>
<time>2012-04-29T13:54:55Z</time>
<desc>lat.=43.185230, lon.=19.278154, Alt.=1023.039551m. Speed=0.360000m/h.</desc>
<speed>0.100000</speed>
</trkpt>
<trkpt lat="43.185230" lon="19.278152">
<ele>1023.320801</ele>
<time>2012-04-29T13:55:00Z</time>
<desc>lat.=43.185230, lon.=19.278152, Alt.=1023.320801m. Speed=0.216000m/h.</desc>
<speed>0.060000</speed>
</trkpt>
<trkpt lat="43.185226" lon="19.278162">
<ele>1023.430176</ele>
<time>2012-04-29T13:55:05Z</time>
<desc>lat.=43.185226, lon.=19.278162, Alt.=1023.430176m. Speed=0.180000m/h.</desc>
<speed>0.050000</speed>
</trkpt>
<trkpt lat="43.185223" lon="19.278170">
<ele>1023.492676</ele>
<time>2012-04-29T13:55:10Z</time>
<desc>lat.=43.185223, lon.=19.278170, Alt.=1023.492676m. Speed=0.756000m/h.</desc>
<speed>0.210000</speed>
</trkpt>
<trkpt lat="43.185211" lon="19.278179">
<ele>1023.539551</ele>
<time>2012-04-29T13:55:15Z</time>
<desc>lat.=43.185211, lon.=19.278179, Alt.=1023.539551m. Speed=1.692000m/h.</desc>
<speed>0.470000</speed>
</trkpt>
<trkpt lat="43.185196" lon="19.278177">
<ele>1023.539551</ele>
<time>2012-04-29T13:55:20Z</time>
<desc>lat.=43.185196, lon.=19.278177, Alt.=1023.539551m. Speed=0.324000m/h.</desc>
<speed>0.090000</speed>
</trkpt>
<trkpt lat="43.185192" lon="19.278177">
<ele>1023.461426</ele>
<time>2012-04-29T13:55:25Z</time>
<desc>lat.=43.185192, lon.=19.278177, Alt.=1023.461426m. Speed=0.396000m/h.</desc>
<speed>0.110000</speed>
</trkpt>
<trkpt lat="43.185184" lon="19.278179">
<ele>1023.383301</ele>
<time>2012-04-29T13:55:30Z</time>
<desc>lat.=43.185184, lon.=19.278179, Alt.=1023.383301m. Speed=0.360000m/h.</desc>
<speed>0.100000</speed>
</trkpt>
<trkpt lat="43.185181" lon="19.278179">
<ele>1023.305176</ele>
<time>2012-04-29T13:55:35Z</time>
<desc>lat.=43.185181, lon.=19.278179, Alt.=1023.305176m. Speed=0.396000m/h.</desc>
<speed>0.110000</speed>
</trkpt>
<trkpt lat="43.185173" lon="19.278179">
<ele>1023.211426</ele>
<time>2012-04-29T13:55:40Z</time>
<desc>lat.=43.185173, lon.=19.278179, Alt.=1023.211426m. Speed=0.396000m/h.</desc>
<speed>0.110000</speed>
</trkpt>
<trkpt lat="43.185169" lon="19.278183">
<ele>1023.133301</ele>
<time>2012-04-29T13:55:45Z</time>
<desc>lat.=43.185169, lon.=19.278183, Alt.=1023.133301m. Speed=0.324000m/h.</desc>
<speed>0.090000</speed>
</trkpt>
<trkpt lat="43.185169" lon="19.278187">
<ele>1023.055176</ele>
<time>2012-04-29T13:55:50Z</time>
<desc>lat.=43.185169, lon.=19.278187, Alt.=1023.055176m. Speed=0.360000m/h.</desc>
<speed>0.100000</speed>
</trkpt>
<trkpt lat="43.185169" lon="19.278191">
<ele>1022.977051</ele>
<time>2012-04-29T13:55:55Z</time>
<desc>lat.=43.185169, lon.=19.278191, Alt.=1022.977051m. Speed=0.144000m/h.</desc>
<speed>0.040000</speed>
</trkpt>
<trkpt lat="43.185169" lon="19.278193">
<ele>1022.914551</ele>
<time>2012-04-29T13:56:00Z</time>
<desc>lat.=43.185169, lon.=19.278193, Alt.=1022.914551m. Speed=0.180000m/h.</desc>
<speed>0.050000</speed>
</trkpt>
<trkpt lat="43.185177" lon="19.278193">
<ele>1022.836426</ele>
<time>2012-04-29T13:56:05Z</time>
<desc>lat.=43.185177, lon.=19.278193, Alt.=1022.836426m. Speed=0.864000m/h.</desc>
<speed>0.240000</speed>
</trkpt>
<trkpt lat="43.185196" lon="19.278191">
<ele>1022.758301</ele>
<time>2012-04-29T13:56:10Z</time>
<desc>lat.=43.185196, lon.=19.278191, Alt.=1022.758301m. Speed=2.304000m/h.</desc>
<speed>0.640000</speed>
</trkpt>
<trkpt lat="43.185276" lon="19.278198">
<ele>1022.695801</ele>
<time>2012-04-29T13:56:15Z</time>
<desc>lat.=43.185276, lon.=19.278198, Alt.=1022.695801m. Speed=4.464000m/h.</desc>
<speed>1.240000</speed>
</trkpt>
<trkpt lat="43.185329" lon="19.278198">
<ele>1022.664551</ele>
<time>2012-04-29T13:56:20Z</time>
<desc>lat.=43.185329, lon.=19.278198, Alt.=1022.664551m. Speed=3.780000m/h.</desc>
<speed>1.050000</speed>
</trkpt>
<trkpt lat="43.185379" lon="19.278183">
<ele>1022.680176</ele>
<time>2012-04-29T13:56:25Z</time>
<desc>lat.=43.185379, lon.=19.278183, Alt.=1022.680176m. Speed=3.780000m/h.</desc>
<speed>1.050000</speed>
</trkpt>
<trkpt lat="43.185413" lon="19.278191">
<ele>1022.695801</ele>
<time>2012-04-29T13:56:30Z</time>
<desc>lat.=43.185413, lon.=19.278191, Alt.=1022.695801m. Speed=3.276000m/h.</desc>
<speed>0.910000</speed>
</trkpt>
<trkpt lat="43.185455" lon="19.278233">
<ele>1022.711426</ele>
<time>2012-04-29T13:56:35Z</time>
<desc>lat.=43.185455, lon.=19.278233, Alt.=1022.711426m. Speed=3.384000m/h.</desc>
<speed>0.940000</speed>
</trkpt>
<trkpt lat="43.185474" lon="19.278244">
<ele>1022.758301</ele>
<time>2012-04-29T13:56:40Z</time>
<desc>lat.=43.185474, lon.=19.278244, Alt.=1022.758301m. Speed=2.628000m/h.</desc>
<speed>0.730000</speed>
</trkpt>
<trkpt lat="43.185532" lon="19.278259">
<ele>1022.758301</ele>
<time>2012-04-29T13:56:45Z</time>
<desc>lat.=43.185532, lon.=19.278259, Alt.=1022.758301m. Speed=3.024000m/h.</desc>
<speed>0.840000</speed>
</trkpt>
<trkpt lat="43.185570" lon="19.278284">
<ele>1022.695801</ele>
<time>2012-04-29T13:56:50Z</time>
<desc>lat.=43.185570, lon.=19.278284, Alt.=1022.695801m. Speed=3.132000m/h.</desc>
<speed>0.870000</speed>
</trkpt>
<trkpt lat="43.185627" lon="19.278286">
<ele>1022.633301</ele>
<time>2012-04-29T13:56:55Z</time>
<desc>lat.=43.185627, lon.=19.278286, Alt.=1022.633301m. Speed=3.348000m/h.</desc>
<speed>0.930000</speed>
</trkpt>
<trkpt lat="43.185677" lon="19.278305">
<ele>1022.602051</ele>
<time>2012-04-29T13:57:00Z</time>
<desc>lat.=43.185677, lon.=19.278305, Alt.=1022.602051m. Speed=3.420000m/h.</desc>
<speed>0.950000</speed>
</trkpt>
<trkpt lat="43.185692" lon="19.278309">
<ele>1022.523926</ele>
<time>2012-04-29T13:57:05Z</time>
<desc>lat.=43.185692, lon.=19.278309, Alt.=1022.523926m. Speed=2.448000m/h.</desc>
<speed>0.680000</speed>
</trkpt>
<trkpt lat="43.185635" lon="19.278320">
<ele>1022.398926</ele>
<time>2012-04-29T13:57:10Z</time>
<desc>lat.=43.185635, lon.=19.278320, Alt.=1022.398926m. Speed=1.332000m/h.</desc>
<speed>0.370000</speed>
</trkpt>
<trkpt lat="43.185417" lon="19.278278">
<ele>1022.289551</ele>
<time>2012-04-29T13:57:15Z</time>
<desc>lat.=43.185417, lon.=19.278278, Alt.=1022.289551m. Speed=1.008000m/h.</desc>
<speed>0.280000</speed>
</trkpt>
<trkpt lat="43.185406" lon="19.278275">
<ele>1022.211426</ele>
<time>2012-04-29T13:57:20Z</time>
<desc>lat.=43.185406, lon.=19.278275, Alt.=1022.211426m. Speed=0.504000m/h.</desc>
<speed>0.140000</speed>
</trkpt>
<trkpt lat="43.185398" lon="19.278269">
<ele>1022.133301</ele>
<time>2012-04-29T13:57:25Z</time>
<desc>lat.=43.185398, lon.=19.278269, Alt.=1022.133301m. Speed=0.684000m/h.</desc>
<speed>0.190000</speed>
</trkpt>
<trkpt lat="43.185371" lon="19.278280">
<ele>1021.945801</ele>
<time>2012-04-29T13:57:30Z</time>
<desc>lat.=43.185371, lon.=19.278280, Alt.=1021.945801m. Speed=1.620000m/h.</desc>
<speed>0.450000</speed>
</trkpt>
<trkpt lat="43.185356" lon="19.278284">
<ele>1021.477051</ele>
<time>2012-04-29T13:57:35Z</time>
<desc>lat.=43.185356, lon.=19.278284, Alt.=1021.477051m. Speed=0.216000m/h.</desc>
<speed>0.060000</speed>
</trkpt>
<trkpt lat="43.185329" lon="19.278275">
<ele>1020.977051</ele>
<time>2012-04-29T13:57:40Z</time>
<desc>lat.=43.185329, lon.=19.278275, Alt.=1020.977051m. Speed=2.808000m/h.</desc>
<speed>0.780000</speed>
</trkpt>
<trkpt lat="43.185268" lon="19.278229">
<ele>1021.352051</ele>
<time>2012-04-29T13:57:45Z</time>
<desc>lat.=43.185268, lon.=19.278229, Alt.=1021.352051m. Speed=5.580000m/h.</desc>
<speed>1.550000</speed>
</trkpt>
<trkpt lat="43.185253" lon="19.278189">
<ele>1021.148926</ele>
<time>2012-04-29T13:57:50Z</time>
<desc>lat.=43.185253, lon.=19.278189, Alt.=1021.148926m. Speed=0.972000m/h.</desc>
<speed>0.270000</speed>
</trkpt>
<trkpt lat="43.185234" lon="19.278141">
<ele>1021.039551</ele>
<time>2012-04-29T13:57:55Z</time>
<desc>lat.=43.185234, lon.=19.278141, Alt.=1021.039551m. Speed=5.868000m/h.</desc>
<speed>1.630000</speed>
</trkpt>
<trkpt lat="43.185207" lon="19.278069">
<ele>1021.086426</ele>
<time>2012-04-29T13:58:00Z</time>
<desc>lat.=43.185207, lon.=19.278069, Alt.=1021.086426m. Speed=4.464000m/h.</desc>
<speed>1.240000</speed>
</trkpt>
<trkpt lat="43.185204" lon="19.278000">
<ele>1021.414551</ele>
<time>2012-04-29T13:58:05Z</time>
<desc>lat.=43.185204, lon.=19.278000, Alt.=1021.414551m. Speed=5.292000m/h.</desc>
<speed>1.470000</speed>
</trkpt>
<trkpt lat="43.185165" lon="19.277910">
<ele>1021.742676</ele>
<time>2012-04-29T13:58:10Z</time>
<desc>lat.=43.185165, lon.=19.277910, Alt.=1021.742676m. Speed=6.012000m/h.</desc>
<speed>1.670000</speed>
</trkpt>
<trkpt lat="43.185120" lon="19.277826">
<ele>1022.711426</ele>
<time>2012-04-29T13:58:15Z</time>
<desc>lat.=43.185120, lon.=19.277826, Alt.=1022.711426m. Speed=5.292000m/h.</desc>
<speed>1.470000</speed>
</trkpt>
<trkpt lat="43.185062" lon="19.277763">
<ele>1024.079102</ele>
<time>2012-04-29T13:58:20Z</time>
<desc>lat.=43.185062, lon.=19.277763, Alt.=1024.079102m. Speed=6.300000m/h.</desc>
<speed>1.750000</speed>
</trkpt>
<trkpt lat="43.185017" lon="19.277689">
<ele>1024.360352</ele>
<time>2012-04-29T13:58:25Z</time>
<desc>lat.=43.185017, lon.=19.277689, Alt.=1024.360352m. Speed=6.084000m/h.</desc>
<speed>1.690000</speed>
</trkpt>
<trkpt lat="43.184959" lon="19.277637">
<ele>1026.141602</ele>
<time>2012-04-29T13:58:30Z</time>
<desc>lat.=43.184959, lon.=19.277637, Alt.=1026.141602m. Speed=1.836000m/h.</desc>
<speed>0.510000</speed>
</trkpt>
<trkpt lat="43.184883" lon="19.277575">
<ele>1027.547852</ele>
<time>2012-04-29T13:58:35Z</time>
<desc>lat.=43.184883, lon.=19.277575, Alt.=1027.547852m. Speed=9.648000m/h.</desc>
<speed>2.680000</speed>
</trkpt>
<trkpt lat="43.184788" lon="19.277529">
<ele>1026.735352</ele>
<time>2012-04-29T13:58:40Z</time>
<desc>lat.=43.184788, lon.=19.277529, Alt.=1026.735352m. Speed=5.220000m/h.</desc>
<speed>1.450000</speed>
</trkpt>
<trkpt lat="43.184643" lon="19.277489">
<ele>1027.266602</ele>
<time>2012-04-29T13:58:45Z</time>
<desc>lat.=43.184643, lon.=19.277489, Alt.=1027.266602m. Speed=6.048000m/h.</desc>
<speed>1.680000</speed>
</trkpt>
<trkpt lat="43.184563" lon="19.277456">
<ele>1028.079102</ele>
<time>2012-04-29T13:58:50Z</time>
<desc>lat.=43.184563, lon.=19.277456, Alt.=1028.079102m. Speed=3.384000m/h.</desc>
<speed>0.940000</speed>
</trkpt>
<trkpt lat="43.184490" lon="19.277428">
<ele>1029.516602</ele>
<time>2012-04-29T13:58:55Z</time>
<desc>lat.=43.184490, lon.=19.277428, Alt.=1029.516602m. Speed=4.932000m/h.</desc>
<speed>1.370000</speed>
</trkpt>
<trkpt lat="43.184425" lon="19.277399">
<ele>1030.516602</ele>
<time>2012-04-29T13:59:00Z</time>
<desc>lat.=43.184425, lon.=19.277399, Alt.=1030.516602m. Speed=5.976000m/h.</desc>
<speed>1.660000</speed>
</trkpt>
<trkpt lat="43.184368" lon="19.277376">
<ele>1030.766602</ele>
<time>2012-04-29T13:59:05Z</time>
<desc>lat.=43.184368, lon.=19.277376, Alt.=1030.766602m. Speed=5.472000m/h.</desc>
<speed>1.520000</speed>
</trkpt>
<trkpt lat="43.184303" lon="19.277328">
<ele>1031.422852</ele>
<time>2012-04-29T13:59:10Z</time>
<desc>lat.=43.184303, lon.=19.277328, Alt.=1031.422852m. Speed=4.968000m/h.</desc>
<speed>1.380000</speed>
</trkpt>
<trkpt lat="43.184258" lon="19.277283">
<ele>1030.172852</ele>
<time>2012-04-29T13:59:15Z</time>
<desc>lat.=43.184258, lon.=19.277283, Alt.=1030.172852m. Speed=3.636000m/h.</desc>
<speed>1.010000</speed>
</trkpt>
<trkpt lat="43.184216" lon="19.277227">
<ele>1028.141602</ele>
<time>2012-04-29T13:59:20Z</time>
<desc>lat.=43.184216, lon.=19.277227, Alt.=1028.141602m. Speed=5.004000m/h.</desc>
<speed>1.390000</speed>
</trkpt>
<trkpt lat="43.184181" lon="19.277153">
<ele>1027.485352</ele>
<time>2012-04-29T13:59:25Z</time>
<desc>lat.=43.184181, lon.=19.277153, Alt.=1027.485352m. Speed=5.040000m/h.</desc>
<speed>1.400000</speed>
</trkpt>
<trkpt lat="43.184147" lon="19.277081">
<ele>1028.891602</ele>
<time>2012-04-29T13:59:30Z</time>
<desc>lat.=43.184147, lon.=19.277081, Alt.=1028.891602m. Speed=5.364000m/h.</desc>
<speed>1.490000</speed>
</trkpt>
<trkpt lat="43.184109" lon="19.277014">
<ele>1028.485352</ele>
<time>2012-04-29T13:59:35Z</time>
<desc>lat.=43.184109, lon.=19.277014, Alt.=1028.485352m. Speed=5.400000m/h.</desc>
<speed>1.500000</speed>
</trkpt>
<trkpt lat="43.184074" lon="19.276941">
<ele>1029.297852</ele>
<time>2012-04-29T13:59:40Z</time>
<desc>lat.=43.184074, lon.=19.276941, Alt.=1029.297852m. Speed=6.336000m/h.</desc>
<speed>1.760000</speed>
</trkpt>
<trkpt lat="43.184013" lon="19.276861">
<ele>1028.204102</ele>
<time>2012-04-29T13:59:45Z</time>
<desc>lat.=43.184013, lon.=19.276861, Alt.=1028.204102m. Speed=6.768000m/h.</desc>
<speed>1.880000</speed>
</trkpt>
<trkpt lat="43.183945" lon="19.276810">
<ele>1027.360352</ele>
<time>2012-04-29T13:59:50Z</time>
<desc>lat.=43.183945, lon.=19.276810, Alt.=1027.360352m. Speed=5.580000m/h.</desc>
<speed>1.550000</speed>
</trkpt>
<trkpt lat="43.183872" lon="19.276762">
<ele>1027.079102</ele>
<time>2012-04-29T13:59:55Z</time>
<desc>lat.=43.183872, lon.=19.276762, Alt.=1027.079102m. Speed=5.760000m/h.</desc>
<speed>1.600000</speed>
</trkpt>
<trkpt lat="43.183788" lon="19.276747">
<ele>1027.797852</ele>
<time>2012-04-29T14:00:00Z</time>
<desc>lat.=43.183788, lon.=19.276747, Alt.=1027.797852m. Speed=4.752000m/h.</desc>
<speed>1.320000</speed>
</trkpt>
<trkpt lat="43.183723" lon="19.276737">
<ele>1029.079102</ele>
<time>2012-04-29T14:00:05Z</time>
<desc>lat.=43.183723, lon.=19.276737, Alt.=1029.079102m. Speed=4.896000m/h.</desc>
<speed>1.360000</speed>
</trkpt>
<trkpt lat="43.183659" lon="19.276737">
<ele>1029.547852</ele>
<time>2012-04-29T14:00:10Z</time>
<desc>lat.=43.183659, lon.=19.276737, Alt.=1029.547852m. Speed=4.212000m/h.</desc>
<speed>1.170000</speed>
</trkpt>
<trkpt lat="43.183624" lon="19.276737">
<ele>1028.141602</ele>
<time>2012-04-29T14:00:15Z</time>
<desc>lat.=43.183624, lon.=19.276737, Alt.=1028.141602m. Speed=0.252000m/h.</desc>
<speed>0.070000</speed>
</trkpt>
<trkpt lat="43.183628" lon="19.276735">
<ele>1027.860352</ele>
<time>2012-04-29T14:00:20Z</time>
<desc>lat.=43.183628, lon.=19.276735, Alt.=1027.860352m. Speed=0.180000m/h.</desc>
<speed>0.050000</speed>
</trkpt>
<trkpt lat="43.183628" lon="19.276735">
<ele>1027.641602</ele>
<time>2012-04-29T14:00:25Z</time>
<desc>lat.=43.183628, lon.=19.276735, Alt.=1027.641602m. Speed=0.000000m/h.</desc>
<speed>0.000000</speed>
</trkpt>
<trkpt lat="43.183628" lon="19.276731">
<ele>1027.891602</ele>
<time>2012-04-29T14:00:30Z</time>
<desc>lat.=43.183628, lon.=19.276731, Alt.=1027.891602m. Speed=0.036000m/h.</desc>
<speed>0.010000</speed>
</trkpt>
<trkpt lat="43.183628" lon="19.276731">
<ele>1027.891602</ele>
<time>2012-04-29T14:00:35Z</time>
<desc>lat.=43.183628, lon.=19.276731, Alt.=1027.891602m. Speed=0.000000m/h.</desc>
<speed>0.000000</speed>
</trkpt>
<trkpt lat="43.183628" lon="19.276733">
<ele>1027.860352</ele>
<time>2012-04-29T14:00:40Z</time>
<desc>lat.=43.183628, lon.=19.276733, Alt.=1027.860352m. Speed=0.000000m/h.</desc>
<speed>0.000000</speed>
</trkpt>
<trkpt lat="43.183628" lon="19.276733">
<ele>1027.829102</ele>
<time>2012-04-29T14:00:45Z</time>
<desc>lat.=43.183628, lon.=19.276733, Alt.=1027.829102m. Speed=0.000000m/h.</desc>
<speed>0.000000</speed>
</trkpt>
<trkpt lat="43.183628" lon="19.276733">
<ele>1027.797852</ele>
<time>2012-04-29T14:00:50Z</time>
<desc>lat.=43.183628, lon.=19.276733, Alt.=1027.797852m. Speed=0.000000m/h.</desc>
<speed>0.000000</speed>
</trkpt>
<trkpt lat="43.183628" lon="19.276733">
<ele>1027.766602</ele>
<time>2012-04-29T14:00:55Z</time>
<desc>lat.=43.183628, lon.=19.276733, Alt.=1027.766602m. Speed=4.284000m/h.</desc>
<speed>1.190000</speed>
</trkpt>
<trkpt lat="43.183556" lon="19.276751">
<ele>1026.766602</ele>
<time>2012-04-29T14:01:00Z</time>
<desc>lat.=43.183556, lon.=19.276751, Alt.=1026.766602m. Speed=6.084000m/h.</desc>
<speed>1.690000</speed>
</trkpt>
<trkpt lat="43.183479" lon="19.276762">
<ele>1026.485352</ele>
<time>2012-04-29T14:01:05Z</time>
<desc>lat.=43.183479, lon.=19.276762, Alt.=1026.485352m. Speed=5.832000m/h.</desc>
<speed>1.620000</speed>
</trkpt>
<trkpt lat="43.183395" lon="19.276764">
<ele>1026.641602</ele>
<time>2012-04-29T14:01:10Z</time>
<desc>lat.=43.183395, lon.=19.276764, Alt.=1026.641602m. Speed=5.760000m/h.</desc>
<speed>1.600000</speed>
</trkpt>
<trkpt lat="43.183327" lon="19.276775">
<ele>1026.579102</ele>
<time>2012-04-29T14:01:15Z</time>
<desc>lat.=43.183327, lon.=19.276775, Alt.=1026.579102m. Speed=5.724000m/h.</desc>
<speed>1.590000</speed>
</trkpt>
<trkpt lat="43.183262" lon="19.276793">
<ele>1026.891602</ele>
<time>2012-04-29T14:01:20Z</time>
<desc>lat.=43.183262, lon.=19.276793, Alt.=1026.891602m. Speed=5.220000m/h.</desc>
<speed>1.450000</speed>
</trkpt>
<trkpt lat="43.183189" lon="19.276804">
<ele>1026.891602</ele>
<time>2012-04-29T14:01:25Z</time>
<desc>lat.=43.183189, lon.=19.276804, Alt.=1026.891602m. Speed=5.436000m/h.</desc>
<speed>1.510000</speed>
</trkpt>
<trkpt lat="43.183105" lon="19.276798">
<ele>1027.016602</ele>
<time>2012-04-29T14:01:30Z</time>
<desc>lat.=43.183105, lon.=19.276798, Alt.=1027.016602m. Speed=4.104000m/h.</desc>
<speed>1.140000</speed>
</trkpt>
<trkpt lat="43.183041" lon="19.276791">
<ele>1026.360352</ele>
<time>2012-04-29T14:01:35Z</time>
<desc>lat.=43.183041, lon.=19.276791, Alt.=1026.360352m. Speed=5.040000m/h.</desc>
<speed>1.400000</speed>
</trkpt>
<trkpt lat="43.182976" lon="19.276772">
<ele>1026.110352</ele>
<time>2012-04-29T14:01:40Z</time>
<desc>lat.=43.182976, lon.=19.276772, Alt.=1026.110352m. Speed=5.760000m/h.</desc>
<speed>1.600000</speed>
</trkpt>
<trkpt lat="43.182911" lon="19.276752">
<ele>1024.766602</ele>
<time>2012-04-29T14:01:45Z</time>
<desc>lat.=43.182911, lon.=19.276752, Alt.=1024.766602m. Speed=5.688000m/h.</desc>
<speed>1.580000</speed>
</trkpt>
<trkpt lat="43.182884" lon="19.276751">
<ele>1024.641602</ele>
<time>2012-04-29T14:01:50Z</time>
<desc>lat.=43.182884, lon.=19.276751, Alt.=1024.641602m. Speed=0.180000m/h.</desc>
<speed>0.050000</speed>
</trkpt>
<trkpt lat="43.182888" lon="19.276756">
<ele>1024.547852</ele>
<time>2012-04-29T14:01:55Z</time>
<desc>lat.=43.182888, lon.=19.276756, Alt.=1024.547852m. Speed=0.108000m/h.</desc>
<speed>0.030000</speed>
</trkpt>
<trkpt lat="43.182888" lon="19.276756">
<ele>1024.516602</ele>
<time>2012-04-29T14:02:00Z</time>
<desc>lat.=43.182888, lon.=19.276756, Alt.=1024.516602m. Speed=0.072000m/h.</desc>
<speed>0.020000</speed>
</trkpt>
<trkpt lat="43.182888" lon="19.276758">
<ele>1024.454102</ele>
<time>2012-04-29T14:02:05Z</time>
<desc>lat.=43.182888, lon.=19.276758, Alt.=1024.454102m. Speed=0.144000m/h.</desc>
<speed>0.040000</speed>
</trkpt>
<trkpt lat="43.182888" lon="19.276758">
<ele>1024.454102</ele>
<time>2012-04-29T14:02:10Z</time>
<desc>lat.=43.182888, lon.=19.276758, Alt.=1024.454102m. Speed=0.864000m/h.</desc>
<speed>0.240000</speed>
</trkpt>
<trkpt lat="43.182838" lon="19.276737">
<ele>1024.360352</ele>
<time>2012-04-29T14:02:15Z</time>
<desc>lat.=43.182838, lon.=19.276737, Alt.=1024.360352m. Speed=6.660000m/h.</desc>
<speed>1.850000</speed>
</trkpt>
<trkpt lat="43.182755" lon="19.276701">
<ele>1024.079102</ele>
<time>2012-04-29T14:02:20Z</time>
<desc>lat.=43.182755, lon.=19.276701, Alt.=1024.079102m. Speed=5.904000m/h.</desc>
<speed>1.640000</speed>
</trkpt>
<trkpt lat="43.182682" lon="19.276670">
<ele>1023.414551</ele>
<time>2012-04-29T14:02:25Z</time>
<desc>lat.=43.182682, lon.=19.276670, Alt.=1023.414551m. Speed=5.904000m/h.</desc>
<speed>1.640000</speed>
</trkpt>
<trkpt lat="43.182613" lon="19.276634">
<ele>1023.227051</ele>
<time>2012-04-29T14:02:30Z</time>
<desc>lat.=43.182613, lon.=19.276634, Alt.=1023.227051m. Speed=4.968000m/h.</desc>
<speed>1.380000</speed>
</trkpt>
<trkpt lat="43.182549" lon="19.276585">
<ele>1022.039551</ele>
<time>2012-04-29T14:02:35Z</time>
<desc>lat.=43.182549, lon.=19.276585, Alt.=1022.039551m. Speed=4.356000m/h.</desc>
<speed>1.210000</speed>
</trkpt>
<trkpt lat="43.182491" lon="19.276541">
<ele>1019.930176</ele>
<time>2012-04-29T14:02:40Z</time>
<desc>lat.=43.182491, lon.=19.276541, Alt.=1019.930176m. Speed=5.724000m/h.</desc>
<speed>1.590000</speed>
</trkpt>
<trkpt lat="43.182438" lon="19.276493">
<ele>1019.477051</ele>
<time>2012-04-29T14:02:45Z</time>
<desc>lat.=43.182438, lon.=19.276493, Alt.=1019.477051m. Speed=6.012000m/h.</desc>
<speed>1.670000</speed>
</trkpt>
<trkpt lat="43.182396" lon="19.276436">
<ele>1018.445801</ele>
<time>2012-04-29T14:02:50Z</time>
<desc>lat.=43.182396, lon.=19.276436, Alt.=1018.445801m. Speed=4.968000m/h.</desc>
<speed>1.380000</speed>
</trkpt>
<trkpt lat="43.182362" lon="19.276375">
<ele>1017.383301</ele>
<time>2012-04-29T14:02:55Z</time>
<desc>lat.=43.182362, lon.=19.276375, Alt.=1017.383301m. Speed=4.716000m/h.</desc>
<speed>1.310000</speed>
</trkpt>
<trkpt lat="43.182335" lon="19.276318">
<ele>1016.586426</ele>
<time>2012-04-29T14:03:00Z</time>
<desc>lat.=43.182335, lon.=19.276318, Alt.=1016.586426m. Speed=5.400000m/h.</desc>
<speed>1.500000</speed>
</trkpt>
<trkpt lat="43.182297" lon="19.276243">
<ele>1015.367676</ele>
<time>2012-04-29T14:03:05Z</time>
<desc>lat.=43.182297, lon.=19.276243, Alt.=1015.367676m. Speed=5.904000m/h.</desc>
<speed>1.640000</speed>
</trkpt>
<trkpt lat="43.182270" lon="19.276167">
<ele>1014.617676</ele>
<time>2012-04-29T14:03:10Z</time>
<desc>lat.=43.182270, lon.=19.276167, Alt.=1014.617676m. Speed=5.976000m/h.</desc>
<speed>1.660000</speed>
</trkpt>
<trkpt lat="43.182224" lon="19.276093">
<ele>1014.836426</ele>
<time>2012-04-29T14:03:15Z</time>
<desc>lat.=43.182224, lon.=19.276093, Alt.=1014.836426m. Speed=5.148000m/h.</desc>
<speed>1.430000</speed>
</trkpt>
<trkpt lat="43.182171" lon="19.276022">
<ele>1014.102051</ele>
<time>2012-04-29T14:03:20Z</time>
<desc>lat.=43.182171, lon.=19.276022, Alt.=1014.102051m. Speed=5.220000m/h.</desc>
<speed>1.450000</speed>
</trkpt>
<trkpt lat="43.182152" lon="19.276012">
<ele>1013.695801</ele>
<time>2012-04-29T14:03:25Z</time>
<desc>lat.=43.182152, lon.=19.276012, Alt.=1013.695801m. Speed=0.216000m/h.</desc>
<speed>0.060000</speed>
</trkpt>
<trkpt lat="43.182140" lon="19.276003">
<ele>1013.258301</ele>
<time>2012-04-29T14:03:30Z</time>
<desc>lat.=43.182140, lon.=19.276003, Alt.=1013.258301m. Speed=3.312000m/h.</desc>
<speed>0.920000</speed>
</trkpt>
<trkpt lat="43.182102" lon="19.275938">
<ele>1012.805176</ele>
<time>2012-04-29T14:03:35Z</time>
<desc>lat.=43.182102, lon.=19.275938, Alt.=1012.805176m. Speed=5.436000m/h.</desc>
<speed>1.510000</speed>
</trkpt>
<trkpt lat="43.182053" lon="19.275858">
<ele>1013.180176</ele>
<time>2012-04-29T14:03:40Z</time>
<desc>lat.=43.182053, lon.=19.275858, Alt.=1013.180176m. Speed=6.084000m/h.</desc>
<speed>1.690000</speed>
</trkpt>
<trkpt lat="43.182014" lon="19.275774">
<ele>1013.023926</ele>
<time>2012-04-29T14:03:45Z</time>
<desc>lat.=43.182014, lon.=19.275774, Alt.=1013.023926m. Speed=5.472000m/h.</desc>
<speed>1.520000</speed>
</trkpt>
<trkpt lat="43.181984" lon="19.275681">
<ele>1012.508301</ele>
<time>2012-04-29T14:03:50Z</time>
<desc>lat.=43.181984, lon.=19.275681, Alt.=1012.508301m. Speed=5.868000m/h.</desc>
<speed>1.630000</speed>
</trkpt>
<trkpt lat="43.181976" lon="19.275585">
<ele>1013.148926</ele>
<time>2012-04-29T14:03:55Z</time>
<desc>lat.=43.181976, lon.=19.275585, Alt.=1013.148926m. Speed=5.688000m/h.</desc>
<speed>1.580000</speed>
</trkpt>
<trkpt lat="43.181969" lon="19.275488">
<ele>1013.055176</ele>
<time>2012-04-29T14:04:00Z</time>
<desc>lat.=43.181969, lon.=19.275488, Alt.=1013.055176m. Speed=5.940000m/h.</desc>
<speed>1.650000</speed>
</trkpt>
<trkpt lat="43.181957" lon="19.275393">
<ele>1012.117676</ele>
<time>2012-04-29T14:04:05Z</time>
<desc>lat.=43.181957, lon.=19.275393, Alt.=1012.117676m. Speed=5.652000m/h.</desc>
<speed>1.570000</speed>
</trkpt>
<trkpt lat="43.181919" lon="19.275299">
<ele>1010.070801</ele>
<time>2012-04-29T14:04:10Z</time>
<desc>lat.=43.181919, lon.=19.275299, Alt.=1010.070801m. Speed=5.868000m/h.</desc>
<speed>1.630000</speed>
</trkpt>
<trkpt lat="43.181885" lon="19.275196">
<ele>1008.742676</ele>
<time>2012-04-29T14:04:15Z</time>
<desc>lat.=43.181885, lon.=19.275196, Alt.=1008.742676m. Speed=6.336000m/h.</desc>
<speed>1.760000</speed>
</trkpt>
<trkpt lat="43.181858" lon="19.275101">
<ele>1008.758301</ele>
<time>2012-04-29T14:04:20Z</time>
<desc>lat.=43.181858, lon.=19.275101, Alt.=1008.758301m. Speed=5.796000m/h.</desc>
<speed>1.610000</speed>
</trkpt>
<trkpt lat="43.181816" lon="19.275007">
<ele>1007.523926</ele>
<time>2012-04-29T14:04:25Z</time>
<desc>lat.=43.181816, lon.=19.275007, Alt.=1007.523926m. Speed=5.724000m/h.</desc>
<speed>1.590000</speed>
</trkpt>
<trkpt lat="43.181778" lon="19.274935">
<ele>1006.867676</ele>
<time>2012-04-29T14:04:30Z</time>
<desc>lat.=43.181778, lon.=19.274935, Alt.=1006.867676m. Speed=5.292000m/h.</desc>
<speed>1.470000</speed>
</trkpt>
<trkpt lat="43.181747" lon="19.274849">
<ele>1005.430176</ele>
<time>2012-04-29T14:04:35Z</time>
<desc>lat.=43.181747, lon.=19.274849, Alt.=1005.430176m. Speed=5.580000m/h.</desc>
<speed>1.550000</speed>
</trkpt>
<trkpt lat="43.181713" lon="19.274759">
<ele>1004.477051</ele>
<time>2012-04-29T14:04:40Z</time>
<desc>lat.=43.181713, lon.=19.274759, Alt.=1004.477051m. Speed=6.084000m/h.</desc>
<speed>1.690000</speed>
</trkpt>
<trkpt lat="43.181667" lon="19.274694">
<ele>1003.320801</ele>
<time>2012-04-29T14:04:45Z</time>
<desc>lat.=43.181667, lon.=19.274694, Alt.=1003.320801m. Speed=5.868000m/h.</desc>
<speed>1.630000</speed>
</trkpt>
<trkpt lat="43.181606" lon="19.274633">
<ele>1002.367676</ele>
<time>2012-04-29T14:04:50Z</time>
<desc>lat.=43.181606, lon.=19.274633, Alt.=1002.367676m. Speed=6.048000m/h.</desc>
<speed>1.680000</speed>
</trkpt>
<trkpt lat="43.181549" lon="19.274565">
<ele>1001.367676</ele>
<time>2012-04-29T14:04:55Z</time>
<desc>lat.=43.181549, lon.=19.274565, Alt.=1001.367676m. Speed=5.688000m/h.</desc>
<speed>1.580000</speed>
</trkpt>
<trkpt lat="43.181492" lon="19.274496">
<ele>1000.273926</ele>
<time>2012-04-29T14:05:00Z</time>
<desc>lat.=43.181492, lon.=19.274496, Alt.=1000.273926m. Speed=6.264000m/h.</desc>
<speed>1.740000</speed>
</trkpt>
<trkpt lat="43.181446" lon="19.274427">
<ele>1000.508301</ele>
<time>2012-04-29T14:05:05Z</time>
<desc>lat.=43.181446, lon.=19.274427, Alt.=1000.508301m. Speed=5.760000m/h.</desc>
<speed>1.600000</speed>
</trkpt>
<trkpt lat="43.181404" lon="19.274364">
<ele>1000.570801</ele>
<time>2012-04-29T14:05:10Z</time>
<desc>lat.=43.181404, lon.=19.274364, Alt.=1000.570801m. Speed=4.860000m/h.</desc>
<speed>1.350000</speed>
</trkpt>
<trkpt lat="43.181343" lon="19.274305">
<ele>1000.523926</ele>
<time>2012-04-29T14:05:15Z</time>
<desc>lat.=43.181343, lon.=19.274305, Alt.=1000.523926m. Speed=5.868000m/h.</desc>
<speed>1.630000</speed>
</trkpt>
<trkpt lat="43.181286" lon="19.274242">
<ele>1000.727051</ele>
<time>2012-04-29T14:05:20Z</time>
<desc>lat.=43.181286, lon.=19.274242, Alt.=1000.727051m. Speed=5.976000m/h.</desc>
<speed>1.660000</speed>
</trkpt>
<trkpt lat="43.181229" lon="19.274187">
<ele>1000.961426</ele>
<time>2012-04-29T14:05:25Z</time>
<desc>lat.=43.181229, lon.=19.274187, Alt.=1000.961426m. Speed=6.444000m/h.</desc>
<speed>1.790000</speed>
</trkpt>
<trkpt lat="43.181175" lon="19.274147">
<ele>1001.227051</ele>
<time>2012-04-29T14:05:30Z</time>
<desc>lat.=43.181175, lon.=19.274147, Alt.=1001.227051m. Speed=6.336000m/h.</desc>
<speed>1.760000</speed>
</trkpt>
<trkpt lat="43.181129" lon="19.274137">
<ele>1001.398926</ele>
<time>2012-04-29T14:05:35Z</time>
<desc>lat.=43.181129, lon.=19.274137, Alt.=1001.398926m. Speed=1.404000m/h.</desc>
<speed>0.390000</speed>
</trkpt>
<trkpt lat="43.181049" lon="19.274118">
<ele>1001.805176</ele>
<time>2012-04-29T14:05:40Z</time>
<desc>lat.=43.181049, lon.=19.274118, Alt.=1001.805176m. Speed=4.932000m/h.</desc>
<speed>1.370000</speed>
</trkpt>
<trkpt lat="43.180969" lon="19.274107">
<ele>1001.805176</ele>
<time>2012-04-29T14:05:45Z</time>
<desc>lat.=43.180969, lon.=19.274107, Alt.=1001.805176m. Speed=5.868000m/h.</desc>
<speed>1.630000</speed>
</trkpt>
<trkpt lat="43.180897" lon="19.274088">
<ele>1001.898926</ele>
<time>2012-04-29T14:05:50Z</time>
<desc>lat.=43.180897, lon.=19.274088, Alt.=1001.898926m. Speed=5.616000m/h.</desc>
<speed>1.560000</speed>
</trkpt>
<trkpt lat="43.180820" lon="19.274052">
<ele>1002.492676</ele>
<time>2012-04-29T14:05:55Z</time>
<desc>lat.=43.180820, lon.=19.274052, Alt.=1002.492676m. Speed=5.256000m/h.</desc>
<speed>1.460000</speed>
</trkpt>
<trkpt lat="43.180771" lon="19.274014">
<ele>1001.492676</ele>
<time>2012-04-29T14:06:00Z</time>
<desc>lat.=43.180771, lon.=19.274014, Alt.=1001.492676m. Speed=5.652000m/h.</desc>
<speed>1.570000</speed>
</trkpt>
<trkpt lat="43.180733" lon="19.273958">
<ele>1000.195801</ele>
<time>2012-04-29T14:06:05Z</time>
<desc>lat.=43.180733, lon.=19.273958, Alt.=1000.195801m. Speed=5.508000m/h.</desc>
<speed>1.530000</speed>
</trkpt>
<trkpt lat="43.180698" lon="19.273884">
<ele>998.961426</ele>
<time>2012-04-29T14:06:10Z</time>
<desc>lat.=43.180698, lon.=19.273884, Alt.=998.961426m. Speed=5.580000m/h.</desc>
<speed>1.550000</speed>
</trkpt>
<trkpt lat="43.180676" lon="19.273787">
<ele>997.477051</ele>
<time>2012-04-29T14:06:15Z</time>
<desc>lat.=43.180676, lon.=19.273787, Alt.=997.477051m. Speed=5.688000m/h.</desc>
<speed>1.580000</speed>
</trkpt>
<trkpt lat="43.180664" lon="19.273685">
<ele>996.289551</ele>
<time>2012-04-29T14:06:20Z</time>
<desc>lat.=43.180664, lon.=19.273685, Alt.=996.289551m. Speed=5.256000m/h.</desc>
<speed>1.460000</speed>
</trkpt>
<trkpt lat="43.180637" lon="19.273594">
<ele>994.195801</ele>
<time>2012-04-29T14:06:25Z</time>
<desc>lat.=43.180637, lon.=19.273594, Alt.=994.195801m. Speed=4.176000m/h.</desc>
<speed>1.160000</speed>
</trkpt>
<trkpt lat="43.180637" lon="19.273500">
<ele>993.992676</ele>
<time>2012-04-29T14:06:30Z</time>
<desc>lat.=43.180637, lon.=19.273500, Alt.=993.992676m. Speed=6.084000m/h.</desc>
<speed>1.690000</speed>
</trkpt>
<trkpt lat="43.180630" lon="19.273397">
<ele>992.680176</ele>
<time>2012-04-29T14:06:35Z</time>
<desc>lat.=43.180630, lon.=19.273397, Alt.=992.680176m. Speed=4.680000m/h.</desc>
<speed>1.300000</speed>
</trkpt>
<trkpt lat="43.180641" lon="19.273289">
<ele>993.570801</ele>
<time>2012-04-29T14:06:40Z</time>
<desc>lat.=43.180641, lon.=19.273289, Alt.=993.570801m. Speed=5.904000m/h.</desc>
<speed>1.640000</speed>
</trkpt>
<trkpt lat="43.180676" lon="19.273207">
<ele>993.648926</ele>
<time>2012-04-29T14:06:45Z</time>
<desc>lat.=43.180676, lon.=19.273207, Alt.=993.648926m. Speed=5.364000m/h.</desc>
<speed>1.490000</speed>
</trkpt>
<trkpt lat="43.180710" lon="19.273125">
<ele>994.039551</ele>
<time>2012-04-29T14:06:50Z</time>
<desc>lat.=43.180710, lon.=19.273125, Alt.=994.039551m. Speed=6.516000m/h.</desc>
<speed>1.810000</speed>
</trkpt>
<trkpt lat="43.180729" lon="19.273026">
<ele>994.867676</ele>
<time>2012-04-29T14:06:55Z</time>
<desc>lat.=43.180729, lon.=19.273026, Alt.=994.867676m. Speed=5.580000m/h.</desc>
<speed>1.550000</speed>
</trkpt>
<trkpt lat="43.180737" lon="19.272928">
<ele>995.148926</ele>
<time>2012-04-29T14:07:00Z</time>
<desc>lat.=43.180737, lon.=19.272928, Alt.=995.148926m. Speed=5.688000m/h.</desc>
<speed>1.580000</speed>
</trkpt>
<trkpt lat="43.180744" lon="19.272869">
<ele>994.727051</ele>
<time>2012-04-29T14:07:05Z</time>
<desc>lat.=43.180744, lon.=19.272869, Alt.=994.727051m. Speed=0.288000m/h.</desc>
<speed>0.080000</speed>
</trkpt>
<trkpt lat="43.180748" lon="19.272854">
<ele>994.961426</ele>
<time>2012-04-29T14:07:10Z</time>
<desc>lat.=43.180748, lon.=19.272854, Alt.=994.961426m. Speed=1.332000m/h.</desc>
<speed>0.370000</speed>
</trkpt>
<trkpt lat="43.180752" lon="19.272785">
<ele>994.148926</ele>
<time>2012-04-29T14:07:15Z</time>
<desc>lat.=43.180752, lon.=19.272785, Alt.=994.148926m. Speed=5.616000m/h.</desc>
<speed>1.560000</speed>
</trkpt>
<trkpt lat="43.180744" lon="19.272673">
<ele>992.586426</ele>
<time>2012-04-29T14:07:20Z</time>
<desc>lat.=43.180744, lon.=19.272673, Alt.=992.586426m. Speed=5.760000m/h.</desc>
<speed>1.600000</speed>
</trkpt>
<trkpt lat="43.180733" lon="19.272572">
<ele>991.305176</ele>
<time>2012-04-29T14:07:25Z</time>
<desc>lat.=43.180733, lon.=19.272572, Alt.=991.305176m. Speed=5.940000m/h.</desc>
<speed>1.650000</speed>
</trkpt>
<trkpt lat="43.180717" lon="19.272465">
<ele>989.711426</ele>
<time>2012-04-29T14:07:30Z</time>
<desc>lat.=43.180717, lon.=19.272465, Alt.=989.711426m. Speed=6.120000m/h.</desc>
<speed>1.700000</speed>
</trkpt>
<trkpt lat="43.180702" lon="19.272358">
<ele>988.508301</ele>
<time>2012-04-29T14:07:35Z</time>
<desc>lat.=43.180702, lon.=19.272358, Alt.=988.508301m. Speed=5.976000m/h.</desc>
<speed>1.660000</speed>
</trkpt>
<trkpt lat="43.180691" lon="19.272253">
<ele>988.148926</ele>
<time>2012-04-29T14:07:40Z</time>
<desc>lat.=43.180691, lon.=19.272253, Alt.=988.148926m. Speed=5.868000m/h.</desc>
<speed>1.630000</speed>
</trkpt>
<trkpt lat="43.180687" lon="19.272152">
<ele>987.883301</ele>
<time>2012-04-29T14:07:45Z</time>
<desc>lat.=43.180687, lon.=19.272152, Alt.=987.883301m. Speed=6.120000m/h.</desc>
<speed>1.700000</speed>
</trkpt>
<trkpt lat="43.180683" lon="19.272053">
<ele>987.258301</ele>
<time>2012-04-29T14:07:50Z</time>
<desc>lat.=43.180683, lon.=19.272053, Alt.=987.258301m. Speed=6.408000m/h.</desc>
<speed>1.780000</speed>
</trkpt>
<trkpt lat="43.180676" lon="19.271963">
<ele>986.820801</ele>
<time>2012-04-29T14:07:55Z</time>
<desc>lat.=43.180676, lon.=19.271963, Alt.=986.820801m. Speed=5.724000m/h.</desc>
<speed>1.590000</speed>
</trkpt>
<trkpt lat="43.180653" lon="19.271870">
<ele>986.664551</ele>
<time>2012-04-29T14:08:00Z</time>
<desc>lat.=43.180653, lon.=19.271870, Alt.=986.664551m. Speed=6.012000m/h.</desc>
<speed>1.670000</speed>
</trkpt>
<trkpt lat="43.180618" lon="19.271782">
<ele>986.148926</ele>
<time>2012-04-29T14:08:05Z</time>
<desc>lat.=43.180618, lon.=19.271782, Alt.=986.148926m. Speed=4.968000m/h.</desc>
<speed>1.380000</speed>
</trkpt>
<trkpt lat="43.180607" lon="19.271709">
<ele>986.180176</ele>
<time>2012-04-29T14:08:10Z</time>
<desc>lat.=43.180607, lon.=19.271709, Alt.=986.180176m. Speed=0.108000m/h.</desc>
<speed>0.030000</speed>
</trkpt>
<trkpt lat="43.180607" lon="19.271692">
<ele>985.992676</ele>
<time>2012-04-29T14:08:15Z</time>
<desc>lat.=43.180607, lon.=19.271692, Alt.=985.992676m. Speed=4.248000m/h.</desc>
<speed>1.180000</speed>
</trkpt>
<trkpt lat="43.180611" lon="19.271595">
<ele>986.695801</ele>
<time>2012-04-29T14:08:20Z</time>
<desc>lat.=43.180611, lon.=19.271595, Alt.=986.695801m. Speed=5.724000m/h.</desc>
<speed>1.590000</speed>
</trkpt>
<trkpt lat="43.180614" lon="19.271505">
<ele>986.617676</ele>
<time>2012-04-29T14:08:25Z</time>
<desc>lat.=43.180614, lon.=19.271505, Alt.=986.617676m. Speed=5.688000m/h.</desc>
<speed>1.580000</speed>
</trkpt>
<trkpt lat="43.180614" lon="19.271410">
<ele>986.570801</ele>
<time>2012-04-29T14:08:30Z</time>
<desc>lat.=43.180614, lon.=19.271410, Alt.=986.570801m. Speed=5.688000m/h.</desc>
<speed>1.580000</speed>
</trkpt>
<trkpt lat="43.180630" lon="19.271315">
<ele>987.633301</ele>
<time>2012-04-29T14:08:35Z</time>
<desc>lat.=43.180630, lon.=19.271315, Alt.=987.633301m. Speed=5.184000m/h.</desc>
<speed>1.440000</speed>
</trkpt>
<trkpt lat="43.180649" lon="19.271236">
<ele>988.336426</ele>
<time>2012-04-29T14:08:40Z</time>
<desc>lat.=43.180649, lon.=19.271236, Alt.=988.336426m. Speed=6.228000m/h.</desc>
<speed>1.730000</speed>
</trkpt>
<trkpt lat="43.180630" lon="19.271223">
<ele>986.680176</ele>
<time>2012-04-29T14:08:45Z</time>
<desc>lat.=43.180630, lon.=19.271223, Alt.=986.680176m. Speed=0.000000m/h.</desc>
<speed>0.000000</speed>
</trkpt>
<trkpt lat="43.180630" lon="19.271223">
<ele>986.648926</ele>
<time>2012-04-29T14:08:50Z</time>
<desc>lat.=43.180630, lon.=19.271223, Alt.=986.648926m. Speed=0.288000m/h.</desc>
<speed>0.080000</speed>
</trkpt>
<trkpt lat="43.180614" lon="19.271145">
<ele>986.164551</ele>
<time>2012-04-29T14:08:55Z</time>
<desc>lat.=43.180614, lon.=19.271145, Alt.=986.164551m. Speed=6.696000m/h.</desc>
<speed>1.860000</speed>
</trkpt>
<trkpt lat="43.180637" lon="19.271074">
<ele>986.789551</ele>
<time>2012-04-29T14:09:00Z</time>
<desc>lat.=43.180637, lon.=19.271074, Alt.=986.789551m. Speed=8.424000m/h.</desc>
<speed>2.340000</speed>
</trkpt>
<trkpt lat="43.180634" lon="19.270969">
<ele>985.539551</ele>
<time>2012-04-29T14:09:05Z</time>
<desc>lat.=43.180634, lon.=19.270969, Alt.=985.539551m. Speed=5.256000m/h.</desc>
<speed>1.460000</speed>
</trkpt>
<trkpt lat="43.180626" lon="19.270863">
<ele>984.445801</ele>
<time>2012-04-29T14:09:10Z</time>
<desc>lat.=43.180626, lon.=19.270863, Alt.=984.445801m. Speed=4.896000m/h.</desc>
<speed>1.360000</speed>
</trkpt>
<trkpt lat="43.180626" lon="19.270746">
<ele>983.711426</ele>
<time>2012-04-29T14:09:15Z</time>
<desc>lat.=43.180626, lon.=19.270746, Alt.=983.711426m. Speed=6.084000m/h.</desc>
<speed>1.690000</speed>
</trkpt>
<trkpt lat="43.180637" lon="19.270622">
<ele>984.273926</ele>
<time>2012-04-29T14:09:20Z</time>
<desc>lat.=43.180637, lon.=19.270622, Alt.=984.273926m. Speed=6.336000m/h.</desc>
<speed>1.760000</speed>
</trkpt>
<trkpt lat="43.180672" lon="19.270521">
<ele>984.945801</ele>
<time>2012-04-29T14:09:25Z</time>
<desc>lat.=43.180672, lon.=19.270521, Alt.=984.945801m. Speed=5.976000m/h.</desc>
<speed>1.660000</speed>
</trkpt>
<trkpt lat="43.180695" lon="19.270420">
<ele>985.680176</ele>
<time>2012-04-29T14:09:30Z</time>
<desc>lat.=43.180695, lon.=19.270420, Alt.=985.680176m. Speed=6.300000m/h.</desc>
<speed>1.750000</speed>
</trkpt>
<trkpt lat="43.180706" lon="19.270317">
<ele>986.805176</ele>
<time>2012-04-29T14:09:35Z</time>
<desc>lat.=43.180706, lon.=19.270317, Alt.=986.805176m. Speed=6.444000m/h.</desc>
<speed>1.790000</speed>
</trkpt>
<trkpt lat="43.180737" lon="19.270224">
<ele>987.117676</ele>
<time>2012-04-29T14:09:40Z</time>
<desc>lat.=43.180737, lon.=19.270224, Alt.=987.117676m. Speed=6.264000m/h.</desc>
<speed>1.740000</speed>
</trkpt>
<trkpt lat="43.180752" lon="19.270128">
<ele>986.289551</ele>
<time>2012-04-29T14:09:45Z</time>
<desc>lat.=43.180752, lon.=19.270128, Alt.=986.289551m. Speed=6.048000m/h.</desc>
<speed>1.680000</speed>
</trkpt>
<trkpt lat="43.180744" lon="19.270035">
<ele>984.586426</ele>
<time>2012-04-29T14:09:50Z</time>
<desc>lat.=43.180744, lon.=19.270035, Alt.=984.586426m. Speed=6.156000m/h.</desc>
<speed>1.710000</speed>
</trkpt>
<trkpt lat="43.180691" lon="19.269957">
<ele>983.023926</ele>
<time>2012-04-29T14:09:55Z</time>
<desc>lat.=43.180691, lon.=19.269957, Alt.=983.023926m. Speed=6.444000m/h.</desc>
<speed>1.790000</speed>
</trkpt>
<trkpt lat="43.180595" lon="19.269917">
<ele>980.852051</ele>
<time>2012-04-29T14:10:00Z</time>
<desc>lat.=43.180595, lon.=19.269917, Alt.=980.852051m. Speed=6.372000m/h.</desc>
<speed>1.770000</speed>
</trkpt>
<trkpt lat="43.180508" lon="19.269884">
<ele>979.711426</ele>
<time>2012-04-29T14:10:05Z</time>
<desc>lat.=43.180508, lon.=19.269884, Alt.=979.711426m. Speed=6.300000m/h.</desc>
<speed>1.750000</speed>
</trkpt>
<trkpt lat="43.180435" lon="19.269865">
<ele>979.273926</ele>
<time>2012-04-29T14:10:10Z</time>
<desc>lat.=43.180435, lon.=19.269865, Alt.=979.273926m. Speed=6.084000m/h.</desc>
<speed>1.690000</speed>
</trkpt>
<trkpt lat="43.180367" lon="19.269852">
<ele>979.258301</ele>
<time>2012-04-29T14:10:15Z</time>
<desc>lat.=43.180367, lon.=19.269852, Alt.=979.258301m. Speed=5.652000m/h.</desc>
<speed>1.570000</speed>
</trkpt>
<trkpt lat="43.180305" lon="19.269833">
<ele>979.180176</ele>
<time>2012-04-29T14:10:20Z</time>
<desc>lat.=43.180305, lon.=19.269833, Alt.=979.180176m. Speed=2.340000m/h.</desc>
<speed>0.650000</speed>
</trkpt>
<trkpt lat="43.180298" lon="19.269829">
<ele>978.586426</ele>
<time>2012-04-29T14:10:25Z</time>
<desc>lat.=43.180298, lon.=19.269829, Alt.=978.586426m. Speed=1.692000m/h.</desc>
<speed>0.470000</speed>
</trkpt>
<trkpt lat="43.180229" lon="19.269804">
<ele>978.977051</ele>
<time>2012-04-29T14:10:30Z</time>
<desc>lat.=43.180229, lon.=19.269804, Alt.=978.977051m. Speed=5.652000m/h.</desc>
<speed>1.570000</speed>
</trkpt>
<trkpt lat="43.180164" lon="19.269781">
<ele>980.008301</ele>
<time>2012-04-29T14:10:35Z</time>
<desc>lat.=43.180164, lon.=19.269781, Alt.=980.008301m. Speed=4.392000m/h.</desc>
<speed>1.220000</speed>
</trkpt>
<trkpt lat="43.180107" lon="19.269762">
<ele>981.633301</ele>
<time>2012-04-29T14:10:40Z</time>
<desc>lat.=43.180107, lon.=19.269762, Alt.=981.633301m. Speed=4.752000m/h.</desc>
<speed>1.320000</speed>
</trkpt>
<trkpt lat="43.180050" lon="19.269726">
<ele>982.352051</ele>
<time>2012-04-29T14:10:45Z</time>
<desc>lat.=43.180050, lon.=19.269726, Alt.=982.352051m. Speed=4.716000m/h.</desc>
<speed>1.310000</speed>
</trkpt>
<trkpt lat="43.179993" lon="19.269695">
<ele>983.617676</ele>
<time>2012-04-29T14:10:50Z</time>
<desc>lat.=43.179993, lon.=19.269695, Alt.=983.617676m. Speed=4.140000m/h.</desc>
<speed>1.150000</speed>
</trkpt>
<trkpt lat="43.179947" lon="19.269663">
<ele>983.836426</ele>
<time>2012-04-29T14:10:55Z</time>
<desc>lat.=43.179947, lon.=19.269663, Alt.=983.836426m. Speed=4.824000m/h.</desc>
<speed>1.340000</speed>
</trkpt>
<trkpt lat="43.179890" lon="19.269621">
<ele>983.820801</ele>
<time>2012-04-29T14:11:00Z</time>
<desc>lat.=43.179890, lon.=19.269621, Alt.=983.820801m. Speed=6.912000m/h.</desc>
<speed>1.920000</speed>
</trkpt>
<trkpt lat="43.179840" lon="19.269592">
<ele>984.648926</ele>
<time>2012-04-29T14:11:05Z</time>
<desc>lat.=43.179840, lon.=19.269592, Alt.=984.648926m. Speed=3.780000m/h.</desc>
<speed>1.050000</speed>
</trkpt>
<trkpt lat="43.179794" lon="19.269564">
<ele>985.445801</ele>
<time>2012-04-29T14:11:10Z</time>
<desc>lat.=43.179794, lon.=19.269564, Alt.=985.445801m. Speed=4.176000m/h.</desc>
<speed>1.160000</speed>
</trkpt>
<trkpt lat="43.179749" lon="19.269535">
<ele>987.102051</ele>
<time>2012-04-29T14:11:15Z</time>
<desc>lat.=43.179749, lon.=19.269535, Alt.=987.102051m. Speed=4.068000m/h.</desc>
<speed>1.130000</speed>
</trkpt>
<trkpt lat="43.179729" lon="19.269524">
<ele>988.195801</ele>
<time>2012-04-29T14:11:20Z</time>
<desc>lat.=43.179729, lon.=19.269524, Alt.=988.195801m. Speed=2.376000m/h.</desc>
<speed>0.660000</speed>
</trkpt>
<trkpt lat="43.179680" lon="19.269514">
<ele>989.930176</ele>
<time>2012-04-29T14:11:25Z</time>
<desc>lat.=43.179680, lon.=19.269514, Alt.=989.930176m. Speed=4.356000m/h.</desc>
<speed>1.210000</speed>
</trkpt>
<trkpt lat="43.179630" lon="19.269520">
<ele>990.367676</ele>
<time>2012-04-29T14:11:30Z</time>
<desc>lat.=43.179630, lon.=19.269520, Alt.=990.367676m. Speed=4.032000m/h.</desc>
<speed>1.120000</speed>
</trkpt>
<trkpt lat="43.179573" lon="19.269495">
<ele>991.039551</ele>
<time>2012-04-29T14:11:35Z</time>
<desc>lat.=43.179573, lon.=19.269495, Alt.=991.039551m. Speed=3.816000m/h.</desc>
<speed>1.060000</speed>
</trkpt>
<trkpt lat="43.179520" lon="19.269476">
<ele>991.898926</ele>
<time>2012-04-29T14:11:40Z</time>
<desc>lat.=43.179520, lon.=19.269476, Alt.=991.898926m. Speed=4.968000m/h.</desc>
<speed>1.380000</speed>
</trkpt>
<trkpt lat="43.179466" lon="19.269447">
<ele>993.039551</ele>
<time>2012-04-29T14:11:45Z</time>
<desc>lat.=43.179466, lon.=19.269447, Alt.=993.039551m. Speed=3.996000m/h.</desc>
<speed>1.110000</speed>
</trkpt>
<trkpt lat="43.179428" lon="19.269398">
<ele>993.570801</ele>
<time>2012-04-29T14:11:50Z</time>
<desc>lat.=43.179428, lon.=19.269398, Alt.=993.570801m. Speed=5.292000m/h.</desc>
<speed>1.470000</speed>
</trkpt>
<trkpt lat="43.179398" lon="19.269335">
<ele>994.477051</ele>
<time>2012-04-29T14:11:55Z</time>
<desc>lat.=43.179398, lon.=19.269335, Alt.=994.477051m. Speed=4.464000m/h.</desc>
<speed>1.240000</speed>
</trkpt>
<trkpt lat="43.179367" lon="19.269272">
<ele>994.336426</ele>
<time>2012-04-29T14:12:00Z</time>
<desc>lat.=43.179367, lon.=19.269272, Alt.=994.336426m. Speed=5.004000m/h.</desc>
<speed>1.390000</speed>
</trkpt>
<trkpt lat="43.179325" lon="19.269207">
<ele>995.070801</ele>
<time>2012-04-29T14:12:05Z</time>
<desc>lat.=43.179325, lon.=19.269207, Alt.=995.070801m. Speed=4.968000m/h.</desc>
<speed>1.380000</speed>
</trkpt>
<trkpt lat="43.179272" lon="19.269157">
<ele>995.742676</ele>
<time>2012-04-29T14:12:10Z</time>
<desc>lat.=43.179272, lon.=19.269157, Alt.=995.742676m. Speed=4.860000m/h.</desc>
<speed>1.350000</speed>
</trkpt>
<trkpt lat="43.179222" lon="19.269100">
<ele>995.398926</ele>
<time>2012-04-29T14:12:15Z</time>
<desc>lat.=43.179222, lon.=19.269100, Alt.=995.398926m. Speed=5.400000m/h.</desc>
<speed>1.500000</speed>
</trkpt>
<trkpt lat="43.179127" lon="19.269066">
<ele>994.211426</ele>
<time>2012-04-29T14:12:20Z</time>
<desc>lat.=43.179127, lon.=19.269066, Alt.=994.211426m. Speed=5.652000m/h.</desc>
<speed>1.570000</speed>
</trkpt>
<trkpt lat="43.179050" lon="19.269072">
<ele>993.617676</ele>
<time>2012-04-29T14:12:25Z</time>
<desc>lat.=43.179050, lon.=19.269072, Alt.=993.617676m. Speed=3.816000m/h.</desc>
<speed>1.060000</speed>
</trkpt>
<trkpt lat="43.179035" lon="19.269066">
<ele>993.664551</ele>
<time>2012-04-29T14:12:30Z</time>
<desc>lat.=43.179035, lon.=19.269066, Alt.=993.664551m. Speed=0.072000m/h.</desc>
<speed>0.020000</speed>
</trkpt>
<trkpt lat="43.179035" lon="19.269066">
<ele>993.680176</ele>
<time>2012-04-29T14:12:35Z</time>
<desc>lat.=43.179035, lon.=19.269066, Alt.=993.680176m. Speed=0.108000m/h.</desc>
<speed>0.030000</speed>
</trkpt>
<trkpt lat="43.179035" lon="19.269066">
<ele>993.727051</ele>
<time>2012-04-29T14:12:40Z</time>
<desc>lat.=43.179035, lon.=19.269066, Alt.=993.727051m. Speed=0.000000m/h.</desc>
<speed>0.000000</speed>
</trkpt>
<trkpt lat="43.179035" lon="19.269068">
<ele>993.727051</ele>
<time>2012-04-29T14:12:45Z</time>
<desc>lat.=43.179035, lon.=19.269068, Alt.=993.727051m. Speed=0.000000m/h.</desc>
<speed>0.000000</speed>
</trkpt>
<trkpt lat="43.179035" lon="19.269068">
<ele>993.727051</ele>
<time>2012-04-29T14:12:50Z</time>
<desc>lat.=43.179035, lon.=19.269068, Alt.=993.727051m. Speed=0.000000m/h.</desc>
<speed>0.000000</speed>
</trkpt>
<trkpt lat="43.179035" lon="19.269068">
<ele>993.727051</ele>
<time>2012-04-29T14:12:55Z</time>
<desc>lat.=43.179035, lon.=19.269068, Alt.=993.727051m. Speed=0.036000m/h.</desc>
<speed>0.010000</speed>
</trkpt>
<trkpt lat="43.179035" lon="19.269068">
<ele>993.727051</ele>
<time>2012-04-29T14:13:00Z</time>
<desc>lat.=43.179035, lon.=19.269068, Alt.=993.727051m. Speed=0.072000m/h.</desc>
<speed>0.020000</speed>
</trkpt>
<trkpt lat="43.179028" lon="19.269072">
<ele>993.648926</ele>
<time>2012-04-29T14:13:05Z</time>
<desc>lat.=43.179028, lon.=19.269072, Alt.=993.648926m. Speed=3.852000m/h.</desc>
<speed>1.070000</speed>
</trkpt>
<trkpt lat="43.178963" lon="19.269108">
<ele>992.195801</ele>
<time>2012-04-29T14:13:10Z</time>
<desc>lat.=43.178963, lon.=19.269108, Alt.=992.195801m. Speed=5.076000m/h.</desc>
<speed>1.410000</speed>
</trkpt>
<trkpt lat="43.178917" lon="19.269154">
<ele>990.523926</ele>
<time>2012-04-29T14:13:15Z</time>
<desc>lat.=43.178917, lon.=19.269154, Alt.=990.523926m. Speed=4.968000m/h.</desc>
<speed>1.380000</speed>
</trkpt>
<trkpt lat="43.178860" lon="19.269182">
<ele>990.602051</ele>
<time>2012-04-29T14:13:20Z</time>
<desc>lat.=43.178860, lon.=19.269182, Alt.=990.602051m. Speed=5.256000m/h.</desc>
<speed>1.460000</speed>
</trkpt>
<trkpt lat="43.178795" lon="19.269196">
<ele>990.555176</ele>
<time>2012-04-29T14:13:25Z</time>
<desc>lat.=43.178795, lon.=19.269196, Alt.=990.555176m. Speed=5.472000m/h.</desc>
<speed>1.520000</speed>
</trkpt>
<trkpt lat="43.178730" lon="19.269199">
<ele>990.773926</ele>
<time>2012-04-29T14:13:30Z</time>
<desc>lat.=43.178730, lon.=19.269199, Alt.=990.773926m. Speed=5.688000m/h.</desc>
<speed>1.580000</speed>
</trkpt>
<trkpt lat="43.178661" lon="19.269197">
<ele>991.008301</ele>
<time>2012-04-29T14:13:35Z</time>
<desc>lat.=43.178661, lon.=19.269197, Alt.=991.008301m. Speed=4.572000m/h.</desc>
<speed>1.270000</speed>
</trkpt>
<trkpt lat="43.178596" lon="19.269197">
<ele>990.742676</ele>
<time>2012-04-29T14:13:40Z</time>
<desc>lat.=43.178596, lon.=19.269197, Alt.=990.742676m. Speed=5.292000m/h.</desc>
<speed>1.470000</speed>
</trkpt>
<trkpt lat="43.178535" lon="19.269165">
<ele>990.320801</ele>
<time>2012-04-29T14:13:45Z</time>
<desc>lat.=43.178535, lon.=19.269165, Alt.=990.320801m. Speed=6.228000m/h.</desc>
<speed>1.730000</speed>
</trkpt>
<trkpt lat="43.178482" lon="19.269125">
<ele>990.633301</ele>
<time>2012-04-29T14:13:50Z</time>
<desc>lat.=43.178482, lon.=19.269125, Alt.=990.633301m. Speed=5.256000m/h.</desc>
<speed>1.460000</speed>
</trkpt>
<trkpt lat="43.178425" lon="19.269068">
<ele>990.664551</ele>
<time>2012-04-29T14:13:55Z</time>
<desc>lat.=43.178425, lon.=19.269068, Alt.=990.664551m. Speed=5.256000m/h.</desc>
<speed>1.460000</speed>
</trkpt>
<trkpt lat="43.178356" lon="19.269011">
<ele>990.570801</ele>
<time>2012-04-29T14:14:00Z</time>
<desc>lat.=43.178356, lon.=19.269011, Alt.=990.570801m. Speed=5.112000m/h.</desc>
<speed>1.420000</speed>
</trkpt>
<trkpt lat="43.178288" lon="19.268965">
<ele>988.945801</ele>
<time>2012-04-29T14:14:05Z</time>
<desc>lat.=43.178288, lon.=19.268965, Alt.=988.945801m. Speed=5.580000m/h.</desc>
<speed>1.550000</speed>
</trkpt>
<trkpt lat="43.178226" lon="19.268917">
<ele>988.883301</ele>
<time>2012-04-29T14:14:10Z</time>
<desc>lat.=43.178226, lon.=19.268917, Alt.=988.883301m. Speed=4.968000m/h.</desc>
<speed>1.380000</speed>
</trkpt>
<trkpt lat="43.178165" lon="19.268877">
<ele>988.617676</ele>
<time>2012-04-29T14:14:15Z</time>
<desc>lat.=43.178165, lon.=19.268877, Alt.=988.617676m. Speed=5.904000m/h.</desc>
<speed>1.640000</speed>
</trkpt>
<trkpt lat="43.178101" lon="19.268831">
<ele>987.805176</ele>
<time>2012-04-29T14:14:20Z</time>
<desc>lat.=43.178101, lon.=19.268831, Alt.=987.805176m. Speed=6.264000m/h.</desc>
<speed>1.740000</speed>
</trkpt>
<trkpt lat="43.178047" lon="19.268797">
<ele>987.977051</ele>
<time>2012-04-29T14:14:25Z</time>
<desc>lat.=43.178047, lon.=19.268797, Alt.=987.977051m. Speed=6.012000m/h.</desc>
<speed>1.670000</speed>
</trkpt>
<trkpt lat="43.177994" lon="19.268753">
<ele>988.352051</ele>
<time>2012-04-29T14:14:30Z</time>
<desc>lat.=43.177994, lon.=19.268753, Alt.=988.352051m. Speed=5.868000m/h.</desc>
<speed>1.630000</speed>
</trkpt>
<trkpt lat="43.177937" lon="19.268700">
<ele>988.414551</ele>
<time>2012-04-29T14:14:35Z</time>
<desc>lat.=43.177937, lon.=19.268700, Alt.=988.414551m. Speed=5.472000m/h.</desc>
<speed>1.520000</speed>
</trkpt>
<trkpt lat="43.177883" lon="19.268641">
<ele>987.820801</ele>
<time>2012-04-29T14:14:40Z</time>
<desc>lat.=43.177883, lon.=19.268641, Alt.=987.820801m. Speed=5.724000m/h.</desc>
<speed>1.590000</speed>
</trkpt>
<trkpt lat="43.177834" lon="19.268583">
<ele>987.758301</ele>
<time>2012-04-29T14:14:45Z</time>
<desc>lat.=43.177834, lon.=19.268583, Alt.=987.758301m. Speed=5.184000m/h.</desc>
<speed>1.440000</speed>
</trkpt>
<trkpt lat="43.177780" lon="19.268526">
<ele>988.664551</ele>
<time>2012-04-29T14:14:50Z</time>
<desc>lat.=43.177780, lon.=19.268526, Alt.=988.664551m. Speed=4.536000m/h.</desc>
<speed>1.260000</speed>
</trkpt>
<trkpt lat="43.177715" lon="19.268497">
<ele>988.789551</ele>
<time>2012-04-29T14:14:55Z</time>
<desc>lat.=43.177715, lon.=19.268497, Alt.=988.789551m. Speed=5.292000m/h.</desc>
<speed>1.470000</speed>
</trkpt>
<trkpt lat="43.177647" lon="19.268484">
<ele>987.867676</ele>
<time>2012-04-29T14:15:00Z</time>
<desc>lat.=43.177647, lon.=19.268484, Alt.=987.867676m. Speed=5.508000m/h.</desc>
<speed>1.530000</speed>
</trkpt>
<trkpt lat="43.177578" lon="19.268501">
<ele>985.914551</ele>
<time>2012-04-29T14:15:05Z</time>
<desc>lat.=43.177578, lon.=19.268501, Alt.=985.914551m. Speed=5.472000m/h.</desc>
<speed>1.520000</speed>
</trkpt>
<trkpt lat="43.177513" lon="19.268532">
<ele>984.086426</ele>
<time>2012-04-29T14:15:10Z</time>
<desc>lat.=43.177513, lon.=19.268532, Alt.=984.086426m. Speed=5.544000m/h.</desc>
<speed>1.540000</speed>
</trkpt>
<trkpt lat="43.177441" lon="19.268539">
<ele>982.602051</ele>
<time>2012-04-29T14:15:15Z</time>
<desc>lat.=43.177441, lon.=19.268539, Alt.=982.602051m. Speed=5.328000m/h.</desc>
<speed>1.480000</speed>
</trkpt>
<trkpt lat="43.177383" lon="19.268501">
<ele>982.227051</ele>
<time>2012-04-29T14:15:20Z</time>
<desc>lat.=43.177383, lon.=19.268501, Alt.=982.227051m. Speed=5.220000m/h.</desc>
<speed>1.450000</speed>
</trkpt>
<trkpt lat="43.177345" lon="19.268444">
<ele>982.320801</ele>
<time>2012-04-29T14:15:25Z</time>
<desc>lat.=43.177345, lon.=19.268444, Alt.=982.320801m. Speed=5.400000m/h.</desc>
<speed>1.500000</speed>
</trkpt>
<trkpt lat="43.177315" lon="19.268385">
<ele>983.445801</ele>
<time>2012-04-29T14:15:30Z</time>
<desc>lat.=43.177315, lon.=19.268385, Alt.=983.445801m. Speed=0.756000m/h.</desc>
<speed>0.210000</speed>
</trkpt>
<trkpt lat="43.177280" lon="19.268353">
<ele>982.961426</ele>
<time>2012-04-29T14:15:35Z</time>
<desc>lat.=43.177280, lon.=19.268353, Alt.=982.961426m. Speed=5.724000m/h.</desc>
<speed>1.590000</speed>
</trkpt>
<trkpt lat="43.177212" lon="19.268309">
<ele>982.305176</ele>
<time>2012-04-29T14:15:40Z</time>
<desc>lat.=43.177212, lon.=19.268309, Alt.=982.305176m. Speed=5.868000m/h.</desc>
<speed>1.630000</speed>
</trkpt>
<trkpt lat="43.177132" lon="19.268286">
<ele>981.305176</ele>
<time>2012-04-29T14:15:45Z</time>
<desc>lat.=43.177132, lon.=19.268286, Alt.=981.305176m. Speed=5.904000m/h.</desc>
<speed>1.640000</speed>
</trkpt>
<trkpt lat="43.177067" lon="19.268261">
<ele>980.617676</ele>
<time>2012-04-29T14:15:50Z</time>
<desc>lat.=43.177067, lon.=19.268261, Alt.=980.617676m. Speed=5.832000m/h.</desc>
<speed>1.620000</speed>
</trkpt>
<trkpt lat="43.176998" lon="19.268263">
<ele>979.789551</ele>
<time>2012-04-29T14:15:55Z</time>
<desc>lat.=43.176998, lon.=19.268263, Alt.=979.789551m. Speed=6.228000m/h.</desc>
<speed>1.730000</speed>
</trkpt>
<trkpt lat="43.176922" lon="19.268290">
<ele>978.258301</ele>
<time>2012-04-29T14:16:00Z</time>
<desc>lat.=43.176922, lon.=19.268290, Alt.=978.258301m. Speed=5.976000m/h.</desc>
<speed>1.660000</speed>
</trkpt>
<trkpt lat="43.176861" lon="19.268339">
<ele>977.836426</ele>
<time>2012-04-29T14:16:05Z</time>
<desc>lat.=43.176861, lon.=19.268339, Alt.=977.836426m. Speed=6.624000m/h.</desc>
<speed>1.840000</speed>
</trkpt>
<trkpt lat="43.176815" lon="19.268423">
<ele>976.695801</ele>
<time>2012-04-29T14:16:10Z</time>
<desc>lat.=43.176815, lon.=19.268423, Alt.=976.695801m. Speed=5.760000m/h.</desc>
<speed>1.600000</speed>
</trkpt>
<trkpt lat="43.176777" lon="19.268526">
<ele>975.555176</ele>
<time>2012-04-29T14:16:15Z</time>
<desc>lat.=43.176777, lon.=19.268526, Alt.=975.555176m. Speed=5.868000m/h.</desc>
<speed>1.630000</speed>
</trkpt>
<trkpt lat="43.176743" lon="19.268621">
<ele>975.977051</ele>
<time>2012-04-29T14:16:20Z</time>
<desc>lat.=43.176743, lon.=19.268621, Alt.=975.977051m. Speed=5.292000m/h.</desc>
<speed>1.470000</speed>
</trkpt>
<trkpt lat="43.176712" lon="19.268698">
<ele>975.602051</ele>
<time>2012-04-29T14:16:25Z</time>
<desc>lat.=43.176712, lon.=19.268698, Alt.=975.602051m. Speed=5.544000m/h.</desc>
<speed>1.540000</speed>
</trkpt>
<trkpt lat="43.176666" lon="19.268770">
<ele>974.992676</ele>
<time>2012-04-29T14:16:30Z</time>
<desc>lat.=43.176666, lon.=19.268770, Alt.=974.992676m. Speed=5.364000m/h.</desc>
<speed>1.490000</speed>
</trkpt>
<trkpt lat="43.176624" lon="19.268854">
<ele>973.555176</ele>
<time>2012-04-29T14:16:35Z</time>
<desc>lat.=43.176624, lon.=19.268854, Alt.=973.555176m. Speed=5.400000m/h.</desc>
<speed>1.500000</speed>
</trkpt>
<trkpt lat="43.176579" lon="19.268917">
<ele>973.570801</ele>
<time>2012-04-29T14:16:40Z</time>
<desc>lat.=43.176579, lon.=19.268917, Alt.=973.570801m. Speed=5.292000m/h.</desc>
<speed>1.470000</speed>
</trkpt>
<trkpt lat="43.176521" lon="19.268957">
<ele>973.414551</ele>
<time>2012-04-29T14:16:45Z</time>
<desc>lat.=43.176521, lon.=19.268957, Alt.=973.414551m. Speed=5.724000m/h.</desc>
<speed>1.590000</speed>
</trkpt>
<trkpt lat="43.176453" lon="19.268976">
<ele>974.289551</ele>
<time>2012-04-29T14:16:50Z</time>
<desc>lat.=43.176453, lon.=19.268976, Alt.=974.289551m. Speed=6.120000m/h.</desc>
<speed>1.700000</speed>
</trkpt>
<trkpt lat="43.176392" lon="19.268995">
<ele>974.664551</ele>
<time>2012-04-29T14:16:55Z</time>
<desc>lat.=43.176392, lon.=19.268995, Alt.=974.664551m. Speed=5.328000m/h.</desc>
<speed>1.480000</speed>
</trkpt>
<trkpt lat="43.176327" lon="19.269012">
<ele>973.555176</ele>
<time>2012-04-29T14:17:00Z</time>
<desc>lat.=43.176327, lon.=19.269012, Alt.=973.555176m. Speed=5.688000m/h.</desc>
<speed>1.580000</speed>
</trkpt>
<trkpt lat="43.176262" lon="19.269035">
<ele>972.945801</ele>
<time>2012-04-29T14:17:05Z</time>
<desc>lat.=43.176262, lon.=19.269035, Alt.=972.945801m. Speed=5.616000m/h.</desc>
<speed>1.560000</speed>
</trkpt>
<trkpt lat="43.176197" lon="19.269062">
<ele>972.039551</ele>
<time>2012-04-29T14:17:10Z</time>
<desc>lat.=43.176197, lon.=19.269062, Alt.=972.039551m. Speed=5.364000m/h.</desc>
<speed>1.490000</speed>
</trkpt>
<trkpt lat="43.176151" lon="19.269085">
<ele>971.711426</ele>
<time>2012-04-29T14:17:15Z</time>
<desc>lat.=43.176151, lon.=19.269085, Alt.=971.711426m. Speed=0.072000m/h.</desc>
<speed>0.020000</speed>
</trkpt>
<trkpt lat="43.176128" lon="19.269106">
<ele>971.523926</ele>
<time>2012-04-29T14:17:20Z</time>
<desc>lat.=43.176128, lon.=19.269106, Alt.=971.523926m. Speed=6.804000m/h.</desc>
<speed>1.890000</speed>
</trkpt>
<trkpt lat="43.176056" lon="19.269115">
<ele>972.477051</ele>
<time>2012-04-29T14:17:25Z</time>
<desc>lat.=43.176056, lon.=19.269115, Alt.=972.477051m. Speed=5.256000m/h.</desc>
<speed>1.460000</speed>
</trkpt>
<trkpt lat="43.176010" lon="19.269119">
<ele>972.508301</ele>
<time>2012-04-29T14:17:30Z</time>
<desc>lat.=43.176010, lon.=19.269119, Alt.=972.508301m. Speed=0.720000m/h.</desc>
<speed>0.200000</speed>
</trkpt>
<trkpt lat="43.175961" lon="19.269123">
<ele>972.492676</ele>
<time>2012-04-29T14:17:35Z</time>
<desc>lat.=43.175961, lon.=19.269123, Alt.=972.492676m. Speed=4.356000m/h.</desc>
<speed>1.210000</speed>
</trkpt>
<trkpt lat="43.175900" lon="19.269150">
<ele>972.211426</ele>
<time>2012-04-29T14:17:40Z</time>
<desc>lat.=43.175900, lon.=19.269150, Alt.=972.211426m. Speed=5.688000m/h.</desc>
<speed>1.580000</speed>
</trkpt>
<trkpt lat="43.175846" lon="19.269199">
<ele>971.055176</ele>
<time>2012-04-29T14:17:45Z</time>
<desc>lat.=43.175846, lon.=19.269199, Alt.=971.055176m. Speed=5.364000m/h.</desc>
<speed>1.490000</speed>
</trkpt>
<trkpt lat="43.175804" lon="19.269255">
<ele>970.570801</ele>
<time>2012-04-29T14:17:50Z</time>
<desc>lat.=43.175804, lon.=19.269255, Alt.=970.570801m. Speed=4.140000m/h.</desc>
<speed>1.150000</speed>
</trkpt>
<trkpt lat="43.175762" lon="19.269323">
<ele>969.039551</ele>
<time>2012-04-29T14:17:55Z</time>
<desc>lat.=43.175762, lon.=19.269323, Alt.=969.039551m. Speed=5.112000m/h.</desc>
<speed>1.420000</speed>
</trkpt>
<trkpt lat="43.175732" lon="19.269348">
<ele>968.211426</ele>
<time>2012-04-29T14:18:00Z</time>
<desc>lat.=43.175732, lon.=19.269348, Alt.=968.211426m. Speed=0.360000m/h.</desc>
<speed>0.100000</speed>
</trkpt>
<trkpt lat="43.175728" lon="19.269344">
<ele>968.023926</ele>
<time>2012-04-29T14:18:05Z</time>
<desc>lat.=43.175728, lon.=19.269344, Alt.=968.023926m. Speed=0.072000m/h.</desc>
<speed>0.020000</speed>
</trkpt>
<trkpt lat="43.175728" lon="19.269344">
<ele>967.961426</ele>
<time>2012-04-29T14:18:10Z</time>
<desc>lat.=43.175728, lon.=19.269344, Alt.=967.961426m. Speed=0.072000m/h.</desc>
<speed>0.020000</speed>
</trkpt>
<trkpt lat="43.175728" lon="19.269344">
<ele>968.008301</ele>
<time>2012-04-29T14:18:15Z</time>
<desc>lat.=43.175728, lon.=19.269344, Alt.=968.008301m. Speed=0.072000m/h.</desc>
<speed>0.020000</speed>
</trkpt>
<trkpt lat="43.175716" lon="19.269392">
<ele>965.523926</ele>
<time>2012-04-29T14:18:20Z</time>
<desc>lat.=43.175716, lon.=19.269392, Alt.=965.523926m. Speed=5.148000m/h.</desc>
<speed>1.430000</speed>
</trkpt>
<trkpt lat="43.175659" lon="19.269442">
<ele>965.977051</ele>
<time>2012-04-29T14:18:25Z</time>
<desc>lat.=43.175659, lon.=19.269442, Alt.=965.977051m. Speed=6.228000m/h.</desc>
<speed>1.730000</speed>
</trkpt>
<trkpt lat="43.175602" lon="19.269472">
<ele>964.586426</ele>
<time>2012-04-29T14:18:30Z</time>
<desc>lat.=43.175602, lon.=19.269472, Alt.=964.586426m. Speed=4.968000m/h.</desc>
<speed>1.380000</speed>
</trkpt>
<trkpt lat="43.175533" lon="19.269499">
<ele>962.789551</ele>
<time>2012-04-29T14:18:35Z</time>
<desc>lat.=43.175533, lon.=19.269499, Alt.=962.789551m. Speed=4.968000m/h.</desc>
<speed>1.380000</speed>
</trkpt>
<trkpt lat="43.175449" lon="19.269484">
<ele>965.805176</ele>
<time>2012-04-29T14:18:40Z</time>
<desc>lat.=43.175449, lon.=19.269484, Alt.=965.805176m. Speed=6.048000m/h.</desc>
<speed>1.680000</speed>
</trkpt>
<trkpt lat="43.175396" lon="19.269537">
<ele>963.039551</ele>
<time>2012-04-29T14:18:45Z</time>
<desc>lat.=43.175396, lon.=19.269537, Alt.=963.039551m. Speed=5.436000m/h.</desc>
<speed>1.510000</speed>
</trkpt>
<trkpt lat="43.175339" lon="19.269569">
<ele>961.586426</ele>
<time>2012-04-29T14:18:50Z</time>
<desc>lat.=43.175339, lon.=19.269569, Alt.=961.586426m. Speed=5.076000m/h.</desc>
<speed>1.410000</speed>
</trkpt>
<trkpt lat="43.175278" lon="19.269611">
<ele>960.148926</ele>
<time>2012-04-29T14:18:55Z</time>
<desc>lat.=43.175278, lon.=19.269611, Alt.=960.148926m. Speed=4.968000m/h.</desc>
<speed>1.380000</speed>
</trkpt>
<trkpt lat="43.175217" lon="19.269655">
<ele>960.070801</ele>
<time>2012-04-29T14:19:00Z</time>
<desc>lat.=43.175217, lon.=19.269655, Alt.=960.070801m. Speed=4.428000m/h.</desc>
<speed>1.230000</speed>
</trkpt>
<trkpt lat="43.175167" lon="19.269693">
<ele>960.414551</ele>
<time>2012-04-29T14:19:05Z</time>
<desc>lat.=43.175167, lon.=19.269693, Alt.=960.414551m. Speed=2.340000m/h.</desc>
<speed>0.650000</speed>
</trkpt>
<trkpt lat="43.175159" lon="19.269690">
<ele>960.586426</ele>
<time>2012-04-29T14:19:10Z</time>
<desc>lat.=43.175159, lon.=19.269690, Alt.=960.586426m. Speed=0.072000m/h.</desc>
<speed>0.020000</speed>
</trkpt>
<trkpt lat="43.175163" lon="19.269695">
<ele>960.227051</ele>
<time>2012-04-29T14:19:15Z</time>
<desc>lat.=43.175163, lon.=19.269695, Alt.=960.227051m. Speed=0.720000m/h.</desc>
<speed>0.200000</speed>
</trkpt>
<trkpt lat="43.175125" lon="19.269733">
<ele>959.508301</ele>
<time>2012-04-29T14:19:20Z</time>
<desc>lat.=43.175125, lon.=19.269733, Alt.=959.508301m. Speed=3.132000m/h.</desc>
<speed>0.870000</speed>
</trkpt>
<trkpt lat="43.175129" lon="19.269764">
<ele>958.836426</ele>
<time>2012-04-29T14:19:25Z</time>
<desc>lat.=43.175129, lon.=19.269764, Alt.=958.836426m. Speed=0.180000m/h.</desc>
<speed>0.050000</speed>
</trkpt>
<trkpt lat="43.175152" lon="19.269785">
<ele>958.211426</ele>
<time>2012-04-29T14:19:30Z</time>
<desc>lat.=43.175152, lon.=19.269785, Alt.=958.211426m. Speed=0.036000m/h.</desc>
<speed>0.010000</speed>
</trkpt>
<trkpt lat="43.175152" lon="19.269785">
<ele>958.211426</ele>
<time>2012-04-29T14:19:35Z</time>
<desc>lat.=43.175152, lon.=19.269785, Alt.=958.211426m. Speed=0.000000m/h.</desc>
<speed>0.000000</speed>
</trkpt>
<trkpt lat="43.175152" lon="19.269785">
<ele>958.227051</ele>
<time>2012-04-29T14:19:40Z</time>
<desc>lat.=43.175152, lon.=19.269785, Alt.=958.227051m. Speed=0.000000m/h.</desc>
<speed>0.000000</speed>
</trkpt>
<trkpt lat="43.175152" lon="19.269785">
<ele>958.211426</ele>
<time>2012-04-29T14:19:45Z</time>
<desc>lat.=43.175152, lon.=19.269785, Alt.=958.211426m. Speed=0.036000m/h.</desc>
<speed>0.010000</speed>
</trkpt>
<trkpt lat="43.175152" lon="19.269787">
<ele>958.211426</ele>
<time>2012-04-29T14:19:50Z</time>
<desc>lat.=43.175152, lon.=19.269787, Alt.=958.211426m. Speed=0.036000m/h.</desc>
<speed>0.010000</speed>
</trkpt>
<trkpt lat="43.175152" lon="19.269787">
<ele>958.211426</ele>
<time>2012-04-29T14:19:55Z</time>
<desc>lat.=43.175152, lon.=19.269787, Alt.=958.211426m. Speed=0.000000m/h.</desc>
<speed>0.000000</speed>
</trkpt>
<trkpt lat="43.175152" lon="19.269787">
<ele>958.211426</ele>
<time>2012-04-29T14:20:00Z</time>
<desc>lat.=43.175152, lon.=19.269787, Alt.=958.211426m. Speed=0.000000m/h.</desc>
<speed>0.000000</speed>
</trkpt>
<trkpt lat="43.175152" lon="19.269785">
<ele>958.227051</ele>
<time>2012-04-29T14:20:05Z</time>
<desc>lat.=43.175152, lon.=19.269785, Alt.=958.227051m. Speed=0.000000m/h.</desc>
<speed>0.000000</speed>
</trkpt>
<trkpt lat="43.175152" lon="19.269785">
<ele>958.242676</ele>
<time>2012-04-29T14:20:10Z</time>
<desc>lat.=43.175152, lon.=19.269785, Alt.=958.242676m. Speed=0.000000m/h.</desc>
<speed>0.000000</speed>
</trkpt>
<trkpt lat="43.175152" lon="19.269785">
<ele>958.273926</ele>
<time>2012-04-29T14:20:15Z</time>
<desc>lat.=43.175152, lon.=19.269785, Alt.=958.273926m. Speed=0.000000m/h.</desc>
<speed>0.000000</speed>
</trkpt>
<trkpt lat="43.175152" lon="19.269787">
<ele>958.305176</ele>
<time>2012-04-29T14:20:20Z</time>
<desc>lat.=43.175152, lon.=19.269787, Alt.=958.305176m. Speed=0.000000m/h.</desc>
<speed>0.000000</speed>
</trkpt>
<trkpt lat="43.175152" lon="19.269787">
<ele>958.336426</ele>
<time>2012-04-29T14:20:25Z</time>
<desc>lat.=43.175152, lon.=19.269787, Alt.=958.336426m. Speed=0.036000m/h.</desc>
<speed>0.010000</speed>
</trkpt>
<trkpt lat="43.175152" lon="19.269787">
<ele>958.352051</ele>
<time>2012-04-29T14:20:30Z</time>
<desc>lat.=43.175152, lon.=19.269787, Alt.=958.352051m. Speed=0.000000m/h.</desc>
<speed>0.000000</speed>
</trkpt>
<trkpt lat="43.175152" lon="19.269787">
<ele>958.383301</ele>
<time>2012-04-29T14:20:35Z</time>
<desc>lat.=43.175152, lon.=19.269787, Alt.=958.383301m. Speed=0.000000m/h.</desc>
<speed>0.000000</speed>
</trkpt>
<trkpt lat="43.175152" lon="19.269787">
<ele>958.414551</ele>
<time>2012-04-29T14:20:40Z</time>
<desc>lat.=43.175152, lon.=19.269787, Alt.=958.414551m. Speed=0.000000m/h.</desc>
<speed>0.000000</speed>
</trkpt>
<trkpt lat="43.175152" lon="19.269787">
<ele>958.445801</ele>
<time>2012-04-29T14:20:45Z</time>
<desc>lat.=43.175152, lon.=19.269787, Alt.=958.445801m. Speed=0.000000m/h.</desc>
<speed>0.000000</speed>
</trkpt>
<trkpt lat="43.175152" lon="19.269787">
<ele>958.445801</ele>
<time>2012-04-29T14:20:50Z</time>
<desc>lat.=43.175152, lon.=19.269787, Alt.=958.445801m. Speed=0.000000m/h.</desc>
<speed>0.000000</speed>
</trkpt>
<trkpt lat="43.175152" lon="19.269787">
<ele>958.445801</ele>
<time>2012-04-29T14:20:55Z</time>
<desc>lat.=43.175152, lon.=19.269787, Alt.=958.445801m. Speed=0.036000m/h.</desc>
<speed>0.010000</speed>
</trkpt>
<trkpt lat="43.175152" lon="19.269781">
<ele>958.492676</ele>
<time>2012-04-29T14:21:00Z</time>
<desc>lat.=43.175152, lon.=19.269781, Alt.=958.492676m. Speed=0.144000m/h.</desc>
<speed>0.040000</speed>
</trkpt>
<trkpt lat="43.175114" lon="19.269789">
<ele>958.570801</ele>
<time>2012-04-29T14:21:05Z</time>
<desc>lat.=43.175114, lon.=19.269789, Alt.=958.570801m. Speed=5.040000m/h.</desc>
<speed>1.400000</speed>
</trkpt>
<trkpt lat="43.175045" lon="19.269819">
<ele>958.805176</ele>
<time>2012-04-29T14:21:10Z</time>
<desc>lat.=43.175045, lon.=19.269819, Alt.=958.805176m. Speed=5.400000m/h.</desc>
<speed>1.500000</speed>
</trkpt>
<trkpt lat="43.174973" lon="19.269852">
<ele>959.164551</ele>
<time>2012-04-29T14:21:15Z</time>
<desc>lat.=43.174973, lon.=19.269852, Alt.=959.164551m. Speed=5.364000m/h.</desc>
<speed>1.490000</speed>
</trkpt>
<trkpt lat="43.174908" lon="19.269890">
<ele>958.930176</ele>
<time>2012-04-29T14:21:20Z</time>
<desc>lat.=43.174908, lon.=19.269890, Alt.=958.930176m. Speed=5.724000m/h.</desc>
<speed>1.590000</speed>
</trkpt>
<trkpt lat="43.174847" lon="19.269920">
<ele>957.852051</ele>
<time>2012-04-29T14:21:25Z</time>
<desc>lat.=43.174847, lon.=19.269920, Alt.=957.852051m. Speed=5.256000m/h.</desc>
<speed>1.460000</speed>
</trkpt>
<trkpt lat="43.174782" lon="19.269939">
<ele>956.805176</ele>
<time>2012-04-29T14:21:30Z</time>
<desc>lat.=43.174782, lon.=19.269939, Alt.=956.805176m. Speed=4.500000m/h.</desc>
<speed>1.250000</speed>
</trkpt>
<trkpt lat="43.174721" lon="19.269953">
<ele>956.008301</ele>
<time>2012-04-29T14:21:35Z</time>
<desc>lat.=43.174721, lon.=19.269953, Alt.=956.008301m. Speed=4.428000m/h.</desc>
<speed>1.230000</speed>
</trkpt>
<trkpt lat="43.174660" lon="19.269970">
<ele>954.164551</ele>
<time>2012-04-29T14:21:40Z</time>
<desc>lat.=43.174660, lon.=19.269970, Alt.=954.164551m. Speed=5.364000m/h.</desc>
<speed>1.490000</speed>
</trkpt>
<trkpt lat="43.174595" lon="19.269966">
<ele>954.305176</ele>
<time>2012-04-29T14:21:45Z</time>
<desc>lat.=43.174595, lon.=19.269966, Alt.=954.305176m. Speed=5.436000m/h.</desc>
<speed>1.510000</speed>
</trkpt>
<trkpt lat="43.174522" lon="19.269953">
<ele>954.367676</ele>
<time>2012-04-29T14:21:50Z</time>
<desc>lat.=43.174522, lon.=19.269953, Alt.=954.367676m. Speed=4.968000m/h.</desc>
<speed>1.380000</speed>
</trkpt>
<trkpt lat="43.174454" lon="19.269949">
<ele>955.164551</ele>
<time>2012-04-29T14:21:55Z</time>
<desc>lat.=43.174454, lon.=19.269949, Alt.=955.164551m. Speed=7.164000m/h.</desc>
<speed>1.990000</speed>
</trkpt>
<trkpt lat="43.174389" lon="19.269953">
<ele>954.883301</ele>
<time>2012-04-29T14:22:00Z</time>
<desc>lat.=43.174389, lon.=19.269953, Alt.=954.883301m. Speed=5.256000m/h.</desc>
<speed>1.460000</speed>
</trkpt>
<trkpt lat="43.174305" lon="19.269974">
<ele>954.164551</ele>
<time>2012-04-29T14:22:05Z</time>
<desc>lat.=43.174305, lon.=19.269974, Alt.=954.164551m. Speed=9.936000m/h.</desc>
<speed>2.760000</speed>
</trkpt>
<trkpt lat="43.174210" lon="19.269987">
<ele>953.227051</ele>
<time>2012-04-29T14:22:10Z</time>
<desc>lat.=43.174210, lon.=19.269987, Alt.=953.227051m. Speed=4.500000m/h.</desc>
<speed>1.250000</speed>
</trkpt>
<trkpt lat="43.174126" lon="19.270016">
<ele>953.320801</ele>
<time>2012-04-29T14:22:15Z</time>
<desc>lat.=43.174126, lon.=19.270016, Alt.=953.320801m. Speed=6.552000m/h.</desc>
<speed>1.820000</speed>
</trkpt>
<trkpt lat="43.174042" lon="19.270041">
<ele>953.930176</ele>
<time>2012-04-29T14:22:20Z</time>
<desc>lat.=43.174042, lon.=19.270041, Alt.=953.930176m. Speed=7.056000m/h.</desc>
<speed>1.960000</speed>
</trkpt>
<trkpt lat="43.173958" lon="19.270082">
<ele>954.477051</ele>
<time>2012-04-29T14:22:25Z</time>
<desc>lat.=43.173958, lon.=19.270082, Alt.=954.477051m. Speed=7.632000m/h.</desc>
<speed>2.120000</speed>
</trkpt>
<trkpt lat="43.173885" lon="19.270140">
<ele>953.867676</ele>
<time>2012-04-29T14:22:30Z</time>
<desc>lat.=43.173885, lon.=19.270140, Alt.=953.867676m. Speed=6.228000m/h.</desc>
<speed>1.730000</speed>
</trkpt>
<trkpt lat="43.173836" lon="19.270205">
<ele>952.852051</ele>
<time>2012-04-29T14:22:35Z</time>
<desc>lat.=43.173836, lon.=19.270205, Alt.=952.852051m. Speed=5.832000m/h.</desc>
<speed>1.620000</speed>
</trkpt>
<trkpt lat="43.173759" lon="19.270245">
<ele>953.258301</ele>
<time>2012-04-29T14:22:40Z</time>
<desc>lat.=43.173759, lon.=19.270245, Alt.=953.258301m. Speed=5.688000m/h.</desc>
<speed>1.580000</speed>
</trkpt>
<trkpt lat="43.173706" lon="19.270309">
<ele>952.992676</ele>
<time>2012-04-29T14:22:45Z</time>
<desc>lat.=43.173706, lon.=19.270309, Alt.=952.992676m. Speed=6.156000m/h.</desc>
<speed>1.710000</speed>
</trkpt>
<trkpt lat="43.173630" lon="19.270350">
<ele>952.742676</ele>
<time>2012-04-29T14:22:50Z</time>
<desc>lat.=43.173630, lon.=19.270350, Alt.=952.742676m. Speed=6.624000m/h.</desc>
<speed>1.840000</speed>
</trkpt>
<trkpt lat="43.173569" lon="19.270407">
<ele>952.133301</ele>
<time>2012-04-29T14:22:55Z</time>
<desc>lat.=43.173569, lon.=19.270407, Alt.=952.133301m. Speed=6.336000m/h.</desc>
<speed>1.760000</speed>
</trkpt>
<trkpt lat="43.173492" lon="19.270433">
<ele>951.227051</ele>
<time>2012-04-29T14:23:00Z</time>
<desc>lat.=43.173492, lon.=19.270433, Alt.=951.227051m. Speed=5.616000m/h.</desc>
<speed>1.560000</speed>
</trkpt>
<trkpt lat="43.173508" lon="19.270504">
<ele>950.727051</ele>
<time>2012-04-29T14:23:05Z</time>
<desc>lat.=43.173508, lon.=19.270504, Alt.=950.727051m. Speed=1.548000m/h.</desc>
<speed>0.430000</speed>
</trkpt>
<trkpt lat="43.173534" lon="19.270533">
<ele>950.555176</ele>
<time>2012-04-29T14:23:10Z</time>
<desc>lat.=43.173534, lon.=19.270533, Alt.=950.555176m. Speed=0.180000m/h.</desc>
<speed>0.050000</speed>
</trkpt>
<trkpt lat="43.173546" lon="19.270575">
<ele>951.695801</ele>
<time>2012-04-29T14:23:15Z</time>
<desc>lat.=43.173546, lon.=19.270575, Alt.=951.695801m. Speed=9.576000m/h.</desc>
<speed>2.660000</speed>
</trkpt>
<trkpt lat="43.173527" lon="19.270662">
<ele>952.523926</ele>
<time>2012-04-29T14:23:20Z</time>
<desc>lat.=43.173527, lon.=19.270662, Alt.=952.523926m. Speed=4.464000m/h.</desc>
<speed>1.240000</speed>
</trkpt>
<trkpt lat="43.173458" lon="19.270700">
<ele>953.273926</ele>
<time>2012-04-29T14:23:25Z</time>
<desc>lat.=43.173458, lon.=19.270700, Alt.=953.273926m. Speed=5.184000m/h.</desc>
<speed>1.440000</speed>
</trkpt>
<trkpt lat="43.173386" lon="19.270718">
<ele>955.164551</ele>
<time>2012-04-29T14:23:30Z</time>
<desc>lat.=43.173386, lon.=19.270718, Alt.=955.164551m. Speed=7.848000m/h.</desc>
<speed>2.180000</speed>
</trkpt>
<trkpt lat="43.173332" lon="19.270777">
<ele>951.086426</ele>
<time>2012-04-29T14:23:35Z</time>
<desc>lat.=43.173332, lon.=19.270777, Alt.=951.086426m. Speed=5.652000m/h.</desc>
<speed>1.570000</speed>
</trkpt>
<trkpt lat="43.173283" lon="19.270815">
<ele>949.555176</ele>
<time>2012-04-29T14:23:40Z</time>
<desc>lat.=43.173283, lon.=19.270815, Alt.=949.555176m. Speed=5.760000m/h.</desc>
<speed>1.600000</speed>
</trkpt>
<trkpt lat="43.173275" lon="19.270885">
<ele>948.289551</ele>
<time>2012-04-29T14:23:45Z</time>
<desc>lat.=43.173275, lon.=19.270885, Alt.=948.289551m. Speed=5.472000m/h.</desc>
<speed>1.520000</speed>
</trkpt>
<trkpt lat="43.173222" lon="19.270889">
<ele>946.023926</ele>
<time>2012-04-29T14:23:50Z</time>
<desc>lat.=43.173222, lon.=19.270889, Alt.=946.023926m. Speed=5.976000m/h.</desc>
<speed>1.660000</speed>
</trkpt>
<trkpt lat="43.173153" lon="19.270887">
<ele>944.523926</ele>
<time>2012-04-29T14:23:55Z</time>
<desc>lat.=43.173153, lon.=19.270887, Alt.=944.523926m. Speed=5.544000m/h.</desc>
<speed>1.540000</speed>
</trkpt>
<trkpt lat="43.173084" lon="19.270884">
<ele>942.914551</ele>
<time>2012-04-29T14:24:00Z</time>
<desc>lat.=43.173084, lon.=19.270884, Alt.=942.914551m. Speed=5.508000m/h.</desc>
<speed>1.530000</speed>
</trkpt>
<trkpt lat="43.173000" lon="19.270901">
<ele>941.789551</ele>
<time>2012-04-29T14:24:05Z</time>
<desc>lat.=43.173000, lon.=19.270901, Alt.=941.789551m. Speed=6.156000m/h.</desc>
<speed>1.710000</speed>
</trkpt>
<trkpt lat="43.172916" lon="19.270903">
<ele>939.445801</ele>
<time>2012-04-29T14:24:10Z</time>
<desc>lat.=43.172916, lon.=19.270903, Alt.=939.445801m. Speed=6.732000m/h.</desc>
<speed>1.870000</speed>
</trkpt>
<trkpt lat="43.172844" lon="19.270920">
<ele>938.945801</ele>
<time>2012-04-29T14:24:15Z</time>
<desc>lat.=43.172844, lon.=19.270920, Alt.=938.945801m. Speed=5.724000m/h.</desc>
<speed>1.590000</speed>
</trkpt>
<trkpt lat="43.172821" lon="19.270918">
<ele>937.602051</ele>
<time>2012-04-29T14:24:20Z</time>
<desc>lat.=43.172821, lon.=19.270918, Alt.=937.602051m. Speed=0.072000m/h.</desc>
<speed>0.020000</speed>
</trkpt>
<trkpt lat="43.172821" lon="19.270918">
<ele>937.320801</ele>
<time>2012-04-29T14:24:25Z</time>
<desc>lat.=43.172821, lon.=19.270918, Alt.=937.320801m. Speed=0.000000m/h.</desc>
<speed>0.000000</speed>
</trkpt>
<trkpt lat="43.172821" lon="19.270918">
<ele>937.305176</ele>
<time>2012-04-29T14:24:30Z</time>
<desc>lat.=43.172821, lon.=19.270918, Alt.=937.305176m. Speed=0.000000m/h.</desc>
<speed>0.000000</speed>
</trkpt>
<trkpt lat="43.172821" lon="19.270918">
<ele>937.336426</ele>
<time>2012-04-29T14:24:35Z</time>
<desc>lat.=43.172821, lon.=19.270918, Alt.=937.336426m. Speed=0.036000m/h.</desc>
<speed>0.010000</speed>
</trkpt>
<trkpt lat="43.172821" lon="19.270918">
<ele>937.352051</ele>
<time>2012-04-29T14:24:40Z</time>
<desc>lat.=43.172821, lon.=19.270918, Alt.=937.352051m. Speed=0.000000m/h.</desc>
<speed>0.000000</speed>
</trkpt>
<trkpt lat="43.172821" lon="19.270918">
<ele>937.352051</ele>
<time>2012-04-29T14:24:45Z</time>
<desc>lat.=43.172821, lon.=19.270918, Alt.=937.352051m. Speed=0.000000m/h.</desc>
<speed>0.000000</speed>
</trkpt>
<trkpt lat="43.172821" lon="19.270918">
<ele>937.352051</ele>
<time>2012-04-29T14:24:50Z</time>
<desc>lat.=43.172821, lon.=19.270918, Alt.=937.352051m. Speed=0.000000m/h.</desc>
<speed>0.000000</speed>
</trkpt>
<trkpt lat="43.172821" lon="19.270918">
<ele>937.352051</ele>
<time>2012-04-29T14:24:55Z</time>
<desc>lat.=43.172821, lon.=19.270918, Alt.=937.352051m. Speed=0.036000m/h.</desc>
<speed>0.010000</speed>
</trkpt>
<trkpt lat="43.172787" lon="19.270924">
<ele>936.398926</ele>
<time>2012-04-29T14:25:00Z</time>
<desc>lat.=43.172787, lon.=19.270924, Alt.=936.398926m. Speed=5.220000m/h.</desc>
<speed>1.450000</speed>
</trkpt>
<trkpt lat="43.172714" lon="19.270943">
<ele>936.055176</ele>
<time>2012-04-29T14:25:05Z</time>
<desc>lat.=43.172714, lon.=19.270943, Alt.=936.055176m. Speed=5.940000m/h.</desc>
<speed>1.650000</speed>
</trkpt>
<trkpt lat="43.172638" lon="19.270966">
<ele>933.820801</ele>
<time>2012-04-29T14:25:10Z</time>
<desc>lat.=43.172638, lon.=19.270966, Alt.=933.820801m. Speed=5.400000m/h.</desc>
<speed>1.500000</speed>
</trkpt>
<trkpt lat="43.172573" lon="19.270979">
<ele>932.773926</ele>
<time>2012-04-29T14:25:15Z</time>
<desc>lat.=43.172573, lon.=19.270979, Alt.=932.773926m. Speed=6.336000m/h.</desc>
<speed>1.760000</speed>
</trkpt>
<trkpt lat="43.172504" lon="19.270998">
<ele>932.430176</ele>
<time>2012-04-29T14:25:20Z</time>
<desc>lat.=43.172504, lon.=19.270998, Alt.=932.430176m. Speed=5.256000m/h.</desc>
<speed>1.460000</speed>
</trkpt>
<trkpt lat="43.172432" lon="19.271013">
<ele>931.508301</ele>
<time>2012-04-29T14:25:25Z</time>
<desc>lat.=43.172432, lon.=19.271013, Alt.=931.508301m. Speed=5.724000m/h.</desc>
<speed>1.590000</speed>
</trkpt>
<trkpt lat="43.172367" lon="19.271049">
<ele>930.727051</ele>
<time>2012-04-29T14:25:30Z</time>
<desc>lat.=43.172367, lon.=19.271049, Alt.=930.727051m. Speed=5.796000m/h.</desc>
<speed>1.610000</speed>
</trkpt>
<trkpt lat="43.172306" lon="19.271101">
<ele>929.852051</ele>
<time>2012-04-29T14:25:35Z</time>
<desc>lat.=43.172306, lon.=19.271101, Alt.=929.852051m. Speed=5.832000m/h.</desc>
<speed>1.620000</speed>
</trkpt>
<trkpt lat="43.172245" lon="19.271149">
<ele>929.477051</ele>
<time>2012-04-29T14:25:40Z</time>
<desc>lat.=43.172245, lon.=19.271149, Alt.=929.477051m. Speed=5.832000m/h.</desc>
<speed>1.620000</speed>
</trkpt>
<trkpt lat="43.172195" lon="19.271235">
<ele>928.680176</ele>
<time>2012-04-29T14:25:45Z</time>
<desc>lat.=43.172195, lon.=19.271235, Alt.=928.680176m. Speed=5.832000m/h.</desc>
<speed>1.620000</speed>
</trkpt>
<trkpt lat="43.172142" lon="19.271311">
<ele>927.898926</ele>
<time>2012-04-29T14:25:50Z</time>
<desc>lat.=43.172142, lon.=19.271311, Alt.=927.898926m. Speed=5.616000m/h.</desc>
<speed>1.560000</speed>
</trkpt>
<trkpt lat="43.172085" lon="19.271368">
<ele>926.430176</ele>
<time>2012-04-29T14:25:55Z</time>
<desc>lat.=43.172085, lon.=19.271368, Alt.=926.430176m. Speed=5.904000m/h.</desc>
<speed>1.640000</speed>
</trkpt>
<trkpt lat="43.172043" lon="19.271448">
<ele>925.008301</ele>
<time>2012-04-29T14:26:00Z</time>
<desc>lat.=43.172043, lon.=19.271448, Alt.=925.008301m. Speed=5.688000m/h.</desc>
<speed>1.580000</speed>
</trkpt>
<trkpt lat="43.171986" lon="19.271505">
<ele>924.320801</ele>
<time>2012-04-29T14:26:05Z</time>
<desc>lat.=43.171986, lon.=19.271505, Alt.=924.320801m. Speed=6.012000m/h.</desc>
<speed>1.670000</speed>
</trkpt>
<trkpt lat="43.171928" lon="19.271542">
<ele>923.242676</ele>
<time>2012-04-29T14:26:10Z</time>
<desc>lat.=43.171928, lon.=19.271542, Alt.=923.242676m. Speed=6.012000m/h.</desc>
<speed>1.670000</speed>
</trkpt>
<trkpt lat="43.171860" lon="19.271549">
<ele>921.633301</ele>
<time>2012-04-29T14:26:15Z</time>
<desc>lat.=43.171860, lon.=19.271549, Alt.=921.633301m. Speed=6.516000m/h.</desc>
<speed>1.810000</speed>
</trkpt>
<trkpt lat="43.171803" lon="19.271553">
<ele>921.211426</ele>
<time>2012-04-29T14:26:20Z</time>
<desc>lat.=43.171803, lon.=19.271553, Alt.=921.211426m. Speed=6.408000m/h.</desc>
<speed>1.780000</speed>
</trkpt>
<trkpt lat="43.171741" lon="19.271540">
<ele>921.180176</ele>
<time>2012-04-29T14:26:25Z</time>
<desc>lat.=43.171741, lon.=19.271540, Alt.=921.180176m. Speed=5.976000m/h.</desc>
<speed>1.660000</speed>
</trkpt>
<trkpt lat="43.171680" lon="19.271523">
<ele>920.336426</ele>
<time>2012-04-29T14:26:30Z</time>
<desc>lat.=43.171680, lon.=19.271523, Alt.=920.336426m. Speed=5.652000m/h.</desc>
<speed>1.570000</speed>
</trkpt>
<trkpt lat="43.171600" lon="19.271503">
<ele>920.086426</ele>
<time>2012-04-29T14:26:35Z</time>
<desc>lat.=43.171600, lon.=19.271503, Alt.=920.086426m. Speed=7.812000m/h.</desc>
<speed>2.170000</speed>
</trkpt>
<trkpt lat="43.171524" lon="19.271507">
<ele>918.258301</ele>
<time>2012-04-29T14:26:40Z</time>
<desc>lat.=43.171524, lon.=19.271507, Alt.=918.258301m. Speed=4.212000m/h.</desc>
<speed>1.170000</speed>
</trkpt>
<trkpt lat="43.171471" lon="19.271524">
<ele>920.461426</ele>
<time>2012-04-29T14:26:45Z</time>
<desc>lat.=43.171471, lon.=19.271524, Alt.=920.461426m. Speed=7.200000m/h.</desc>
<speed>2.000000</speed>
</trkpt>
<trkpt lat="43.171394" lon="19.271542">
<ele>919.633301</ele>
<time>2012-04-29T14:26:50Z</time>
<desc>lat.=43.171394, lon.=19.271542, Alt.=919.633301m. Speed=7.596000m/h.</desc>
<speed>2.110000</speed>
</trkpt>
<trkpt lat="43.171307" lon="19.271542">
<ele>918.727051</ele>
<time>2012-04-29T14:26:55Z</time>
<desc>lat.=43.171307, lon.=19.271542, Alt.=918.727051m. Speed=6.408000m/h.</desc>
<speed>1.780000</speed>
</trkpt>
<trkpt lat="43.171246" lon="19.271566">
<ele>918.352051</ele>
<time>2012-04-29T14:27:00Z</time>
<desc>lat.=43.171246, lon.=19.271566, Alt.=918.352051m. Speed=6.264000m/h.</desc>
<speed>1.740000</speed>
</trkpt>
<trkpt lat="43.171169" lon="19.271591">
<ele>917.586426</ele>
<time>2012-04-29T14:27:05Z</time>
<desc>lat.=43.171169, lon.=19.271591, Alt.=917.586426m. Speed=6.336000m/h.</desc>
<speed>1.760000</speed>
</trkpt>
<trkpt lat="43.171097" lon="19.271622">
<ele>916.164551</ele>
<time>2012-04-29T14:27:10Z</time>
<desc>lat.=43.171097, lon.=19.271622, Alt.=916.164551m. Speed=7.164000m/h.</desc>
<speed>1.990000</speed>
</trkpt>
<trkpt lat="43.171024" lon="19.271645">
<ele>915.305176</ele>
<time>2012-04-29T14:27:15Z</time>
<desc>lat.=43.171024, lon.=19.271645, Alt.=915.305176m. Speed=5.688000m/h.</desc>
<speed>1.580000</speed>
</trkpt>
<trkpt lat="43.170952" lon="19.271677">
<ele>914.773926</ele>
<time>2012-04-29T14:27:20Z</time>
<desc>lat.=43.170952, lon.=19.271677, Alt.=914.773926m. Speed=6.156000m/h.</desc>
<speed>1.710000</speed>
</trkpt>
<trkpt lat="43.170879" lon="19.271730">
<ele>914.148926</ele>
<time>2012-04-29T14:27:25Z</time>
<desc>lat.=43.170879, lon.=19.271730, Alt.=914.148926m. Speed=6.696000m/h.</desc>
<speed>1.860000</speed>
</trkpt>
<trkpt lat="43.170799" lon="19.271770">
<ele>913.867676</ele>
<time>2012-04-29T14:27:30Z</time>
<desc>lat.=43.170799, lon.=19.271770, Alt.=913.867676m. Speed=5.616000m/h.</desc>
<speed>1.560000</speed>
</trkpt>
<trkpt lat="43.170734" lon="19.271830">
<ele>913.992676</ele>
<time>2012-04-29T14:27:35Z</time>
<desc>lat.=43.170734, lon.=19.271830, Alt.=913.992676m. Speed=6.048000m/h.</desc>
<speed>1.680000</speed>
</trkpt>
<trkpt lat="43.170662" lon="19.271881">
<ele>914.117676</ele>
<time>2012-04-29T14:27:40Z</time>
<desc>lat.=43.170662, lon.=19.271881, Alt.=914.117676m. Speed=6.012000m/h.</desc>
<speed>1.670000</speed>
</trkpt>
<trkpt lat="43.170593" lon="19.271929">
<ele>914.961426</ele>
<time>2012-04-29T14:27:45Z</time>
<desc>lat.=43.170593, lon.=19.271929, Alt.=914.961426m. Speed=5.580000m/h.</desc>
<speed>1.550000</speed>
</trkpt>
<trkpt lat="43.170513" lon="19.271957">
<ele>915.805176</ele>
<time>2012-04-29T14:27:50Z</time>
<desc>lat.=43.170513, lon.=19.271957, Alt.=915.805176m. Speed=6.012000m/h.</desc>
<speed>1.670000</speed>
</trkpt>
<trkpt lat="43.170456" lon="19.272013">
<ele>913.227051</ele>
<time>2012-04-29T14:27:55Z</time>
<desc>lat.=43.170456, lon.=19.272013, Alt.=913.227051m. Speed=5.220000m/h.</desc>
<speed>1.450000</speed>
</trkpt>
<trkpt lat="43.170410" lon="19.272049">
<ele>912.727051</ele>
<time>2012-04-29T14:28:00Z</time>
<desc>lat.=43.170410, lon.=19.272049, Alt.=912.727051m. Speed=4.932000m/h.</desc>
<speed>1.370000</speed>
</trkpt>
<trkpt lat="43.170357" lon="19.272091">
<ele>913.086426</ele>
<time>2012-04-29T14:28:05Z</time>
<desc>lat.=43.170357, lon.=19.272091, Alt.=913.086426m. Speed=4.356000m/h.</desc>
<speed>1.210000</speed>
</trkpt>
<trkpt lat="43.170288" lon="19.272133">
<ele>912.820801</ele>
<time>2012-04-29T14:28:10Z</time>
<desc>lat.=43.170288, lon.=19.272133, Alt.=912.820801m. Speed=6.084000m/h.</desc>
<speed>1.690000</speed>
</trkpt>
<trkpt lat="43.170216" lon="19.272165">
<ele>912.008301</ele>
<time>2012-04-29T14:28:15Z</time>
<desc>lat.=43.170216, lon.=19.272165, Alt.=912.008301m. Speed=6.552000m/h.</desc>
<speed>1.820000</speed>
</trkpt>
<trkpt lat="43.170139" lon="19.272202">
<ele>910.586426</ele>
<time>2012-04-29T14:28:20Z</time>
<desc>lat.=43.170139, lon.=19.272202, Alt.=910.586426m. Speed=6.192000m/h.</desc>
<speed>1.720000</speed>
</trkpt>
<trkpt lat="43.170059" lon="19.272249">
<ele>909.852051</ele>
<time>2012-04-29T14:28:25Z</time>
<desc>lat.=43.170059, lon.=19.272249, Alt.=909.852051m. Speed=6.516000m/h.</desc>
<speed>1.810000</speed>
</trkpt>
<trkpt lat="43.169987" lon="19.272305">
<ele>908.898926</ele>
<time>2012-04-29T14:28:30Z</time>
<desc>lat.=43.169987, lon.=19.272305, Alt.=908.898926m. Speed=6.120000m/h.</desc>
<speed>1.700000</speed>
</trkpt>
<trkpt lat="43.169918" lon="19.272346">
<ele>907.883301</ele>
<time>2012-04-29T14:28:35Z</time>
<desc>lat.=43.169918, lon.=19.272346, Alt.=907.883301m. Speed=8.532000m/h.</desc>
<speed>2.370000</speed>
</trkpt>
<trkpt lat="43.169823" lon="19.272375">
<ele>906.680176</ele>
<time>2012-04-29T14:28:40Z</time>
<desc>lat.=43.169823, lon.=19.272375, Alt.=906.680176m. Speed=6.048000m/h.</desc>
<speed>1.680000</speed>
</trkpt>
<trkpt lat="43.169743" lon="19.272415">
<ele>905.945801</ele>
<time>2012-04-29T14:28:45Z</time>
<desc>lat.=43.169743, lon.=19.272415, Alt.=905.945801m. Speed=8.964000m/h.</desc>
<speed>2.490000</speed>
</trkpt>
<trkpt lat="43.169670" lon="19.272461">
<ele>905.117676</ele>
<time>2012-04-29T14:28:50Z</time>
<desc>lat.=43.169670, lon.=19.272461, Alt.=905.117676m. Speed=5.616000m/h.</desc>
<speed>1.560000</speed>
</trkpt>
<trkpt lat="43.169605" lon="19.272516">
<ele>905.336426</ele>
<time>2012-04-29T14:28:55Z</time>
<desc>lat.=43.169605, lon.=19.272516, Alt.=905.336426m. Speed=6.012000m/h.</desc>
<speed>1.670000</speed>
</trkpt>
<trkpt lat="43.169537" lon="19.272575">
<ele>905.523926</ele>
<time>2012-04-29T14:29:00Z</time>
<desc>lat.=43.169537, lon.=19.272575, Alt.=905.523926m. Speed=5.400000m/h.</desc>
<speed>1.500000</speed>
</trkpt>
<trkpt lat="43.169479" lon="19.272657">
<ele>905.633301</ele>
<time>2012-04-29T14:29:05Z</time>
<desc>lat.=43.169479, lon.=19.272657, Alt.=905.633301m. Speed=5.580000m/h.</desc>
<speed>1.550000</speed>
</trkpt>
<trkpt lat="43.169437" lon="19.272751">
<ele>906.445801</ele>
<time>2012-04-29T14:29:10Z</time>
<desc>lat.=43.169437, lon.=19.272751, Alt.=906.445801m. Speed=5.796000m/h.</desc>
<speed>1.610000</speed>
</trkpt>
<trkpt lat="43.169384" lon="19.272840">
<ele>907.258301</ele>
<time>2012-04-29T14:29:15Z</time>
<desc>lat.=43.169384, lon.=19.272840, Alt.=907.258301m. Speed=5.940000m/h.</desc>
<speed>1.650000</speed>
</trkpt>
<trkpt lat="43.169346" lon="19.272932">
<ele>907.336426</ele>
<time>2012-04-29T14:29:20Z</time>
<desc>lat.=43.169346, lon.=19.272932, Alt.=907.336426m. Speed=5.796000m/h.</desc>
<speed>1.610000</speed>
</trkpt>
<trkpt lat="43.169308" lon="19.273018">
<ele>907.414551</ele>
<time>2012-04-29T14:29:25Z</time>
<desc>lat.=43.169308, lon.=19.273018, Alt.=907.414551m. Speed=5.868000m/h.</desc>
<speed>1.630000</speed>
</trkpt>
<trkpt lat="43.169277" lon="19.273115">
<ele>907.055176</ele>
<time>2012-04-29T14:29:30Z</time>
<desc>lat.=43.169277, lon.=19.273115, Alt.=907.055176m. Speed=5.580000m/h.</desc>
<speed>1.550000</speed>
</trkpt>
<trkpt lat="43.169247" lon="19.273214">
<ele>906.852051</ele>
<time>2012-04-29T14:29:35Z</time>
<desc>lat.=43.169247, lon.=19.273214, Alt.=906.852051m. Speed=5.724000m/h.</desc>
<speed>1.590000</speed>
</trkpt>
<trkpt lat="43.169216" lon="19.273310">
<ele>906.742676</ele>
<time>2012-04-29T14:29:40Z</time>
<desc>lat.=43.169216, lon.=19.273310, Alt.=906.742676m. Speed=5.688000m/h.</desc>
<speed>1.580000</speed>
</trkpt>
<trkpt lat="43.169193" lon="19.273409">
<ele>906.008301</ele>
<time>2012-04-29T14:29:45Z</time>
<desc>lat.=43.169193, lon.=19.273409, Alt.=906.008301m. Speed=5.652000m/h.</desc>
<speed>1.570000</speed>
</trkpt>
<trkpt lat="43.169167" lon="19.273499">
<ele>904.883301</ele>
<time>2012-04-29T14:29:50Z</time>
<desc>lat.=43.169167, lon.=19.273499, Alt.=904.883301m. Speed=5.760000m/h.</desc>
<speed>1.600000</speed>
</trkpt>
<trkpt lat="43.169147" lon="19.273560">
<ele>905.680176</ele>
<time>2012-04-29T14:29:55Z</time>
<desc>lat.=43.169147, lon.=19.273560, Alt.=905.680176m. Speed=0.396000m/h.</desc>
<speed>0.110000</speed>
</trkpt>
<trkpt lat="43.169132" lon="19.273600">
<ele>905.367676</ele>
<time>2012-04-29T14:30:00Z</time>
<desc>lat.=43.169132, lon.=19.273600, Alt.=905.367676m. Speed=5.616000m/h.</desc>
<speed>1.560000</speed>
</trkpt>
<trkpt lat="43.169117" lon="19.273697">
<ele>904.148926</ele>
<time>2012-04-29T14:30:05Z</time>
<desc>lat.=43.169117, lon.=19.273697, Alt.=904.148926m. Speed=5.184000m/h.</desc>
<speed>1.440000</speed>
</trkpt>
<trkpt lat="43.169060" lon="19.273760">
<ele>900.648926</ele>
<time>2012-04-29T14:30:10Z</time>
<desc>lat.=43.169060, lon.=19.273760, Alt.=900.648926m. Speed=5.544000m/h.</desc>
<speed>1.540000</speed>
</trkpt>
<trkpt lat="43.169029" lon="19.273857">
<ele>898.664551</ele>
<time>2012-04-29T14:30:15Z</time>
<desc>lat.=43.169029, lon.=19.273857, Alt.=898.664551m. Speed=5.220000m/h.</desc>
<speed>1.450000</speed>
</trkpt>
<trkpt lat="43.168991" lon="19.273945">
<ele>896.898926</ele>
<time>2012-04-29T14:30:20Z</time>
<desc>lat.=43.168991, lon.=19.273945, Alt.=896.898926m. Speed=6.444000m/h.</desc>
<speed>1.790000</speed>
</trkpt>
<trkpt lat="43.168938" lon="19.274029">
<ele>895.430176</ele>
<time>2012-04-29T14:30:25Z</time>
<desc>lat.=43.168938, lon.=19.274029, Alt.=895.430176m. Speed=5.688000m/h.</desc>
<speed>1.580000</speed>
</trkpt>
<trkpt lat="43.168892" lon="19.274099">
<ele>895.148926</ele>
<time>2012-04-29T14:30:30Z</time>
<desc>lat.=43.168892, lon.=19.274099, Alt.=895.148926m. Speed=6.480000m/h.</desc>
<speed>1.800000</speed>
</trkpt>
<trkpt lat="43.168835" lon="19.274162">
<ele>895.273926</ele>
<time>2012-04-29T14:30:35Z</time>
<desc>lat.=43.168835, lon.=19.274162, Alt.=895.273926m. Speed=5.832000m/h.</desc>
<speed>1.620000</speed>
</trkpt>
<trkpt lat="43.168785" lon="19.274237">
<ele>894.961426</ele>
<time>2012-04-29T14:30:40Z</time>
<desc>lat.=43.168785, lon.=19.274237, Alt.=894.961426m. Speed=6.048000m/h.</desc>
<speed>1.680000</speed>
</trkpt>
<trkpt lat="43.168743" lon="19.274292">
<ele>894.336426</ele>
<time>2012-04-29T14:30:45Z</time>
<desc>lat.=43.168743, lon.=19.274292, Alt.=894.336426m. Speed=3.564000m/h.</desc>
<speed>0.990000</speed>
</trkpt>
<trkpt lat="43.168694" lon="19.274353">
<ele>893.164551</ele>
<time>2012-04-29T14:30:50Z</time>
<desc>lat.=43.168694, lon.=19.274353, Alt.=893.164551m. Speed=5.760000m/h.</desc>
<speed>1.600000</speed>
</trkpt>
<trkpt lat="43.168648" lon="19.274435">
<ele>893.477051</ele>
<time>2012-04-29T14:30:55Z</time>
<desc>lat.=43.168648, lon.=19.274435, Alt.=893.477051m. Speed=5.868000m/h.</desc>
<speed>1.630000</speed>
</trkpt>
<trkpt lat="43.168583" lon="19.274488">
<ele>892.789551</ele>
<time>2012-04-29T14:31:00Z</time>
<desc>lat.=43.168583, lon.=19.274488, Alt.=892.789551m. Speed=5.724000m/h.</desc>
<speed>1.590000</speed>
</trkpt>
<trkpt lat="43.168514" lon="19.274551">
<ele>891.664551</ele>
<time>2012-04-29T14:31:05Z</time>
<desc>lat.=43.168514, lon.=19.274551, Alt.=891.664551m. Speed=6.012000m/h.</desc>
<speed>1.670000</speed>
</trkpt>
<trkpt lat="43.168465" lon="19.274639">
<ele>890.945801</ele>
<time>2012-04-29T14:31:10Z</time>
<desc>lat.=43.168465, lon.=19.274639, Alt.=890.945801m. Speed=6.372000m/h.</desc>
<speed>1.770000</speed>
</trkpt>
<trkpt lat="43.168446" lon="19.274755">
<ele>889.430176</ele>
<time>2012-04-29T14:31:15Z</time>
<desc>lat.=43.168446, lon.=19.274755, Alt.=889.430176m. Speed=6.048000m/h.</desc>
<speed>1.680000</speed>
</trkpt>
<trkpt lat="43.168392" lon="19.274837">
<ele>889.789551</ele>
<time>2012-04-29T14:31:20Z</time>
<desc>lat.=43.168392, lon.=19.274837, Alt.=889.789551m. Speed=6.084000m/h.</desc>
<speed>1.690000</speed>
</trkpt>
<trkpt lat="43.168335" lon="19.274912">
<ele>890.398926</ele>
<time>2012-04-29T14:31:25Z</time>
<desc>lat.=43.168335, lon.=19.274912, Alt.=890.398926m. Speed=5.940000m/h.</desc>
<speed>1.650000</speed>
</trkpt>
<trkpt lat="43.168289" lon="19.274992">
<ele>890.180176</ele>
<time>2012-04-29T14:31:30Z</time>
<desc>lat.=43.168289, lon.=19.274992, Alt.=890.180176m. Speed=5.940000m/h.</desc>
<speed>1.650000</speed>
</trkpt>
<trkpt lat="43.168240" lon="19.275066">
<ele>889.383301</ele>
<time>2012-04-29T14:31:35Z</time>
<desc>lat.=43.168240, lon.=19.275066, Alt.=889.383301m. Speed=6.300000m/h.</desc>
<speed>1.750000</speed>
</trkpt>
<trkpt lat="43.168182" lon="19.275135">
<ele>888.492676</ele>
<time>2012-04-29T14:31:40Z</time>
<desc>lat.=43.168182, lon.=19.275135, Alt.=888.492676m. Speed=6.660000m/h.</desc>
<speed>1.850000</speed>
</trkpt>
<trkpt lat="43.168114" lon="19.275194">
<ele>888.039551</ele>
<time>2012-04-29T14:31:45Z</time>
<desc>lat.=43.168114, lon.=19.275194, Alt.=888.039551m. Speed=6.660000m/h.</desc>
<speed>1.850000</speed>
</trkpt>
<trkpt lat="43.168049" lon="19.275246">
<ele>886.852051</ele>
<time>2012-04-29T14:31:50Z</time>
<desc>lat.=43.168049, lon.=19.275246, Alt.=886.852051m. Speed=6.192000m/h.</desc>
<speed>1.720000</speed>
</trkpt>
<trkpt lat="43.167984" lon="19.275312">
<ele>886.867676</ele>
<time>2012-04-29T14:31:55Z</time>
<desc>lat.=43.167984, lon.=19.275312, Alt.=886.867676m. Speed=6.264000m/h.</desc>
<speed>1.740000</speed>
</trkpt>
<trkpt lat="43.167950" lon="19.275410">
<ele>886.227051</ele>
<time>2012-04-29T14:32:00Z</time>
<desc>lat.=43.167950, lon.=19.275410, Alt.=886.227051m. Speed=5.652000m/h.</desc>
<speed>1.570000</speed>
</trkpt>
<trkpt lat="43.167912" lon="19.275496">
<ele>884.633301</ele>
<time>2012-04-29T14:32:05Z</time>
<desc>lat.=43.167912, lon.=19.275496, Alt.=884.633301m. Speed=5.580000m/h.</desc>
<speed>1.550000</speed>
</trkpt>
<trkpt lat="43.167881" lon="19.275568">
<ele>884.867676</ele>
<time>2012-04-29T14:32:10Z</time>
<desc>lat.=43.167881, lon.=19.275568, Alt.=884.867676m. Speed=4.500000m/h.</desc>
<speed>1.250000</speed>
</trkpt>
<trkpt lat="43.167854" lon="19.275637">
<ele>884.367676</ele>
<time>2012-04-29T14:32:15Z</time>
<desc>lat.=43.167854, lon.=19.275637, Alt.=884.367676m. Speed=4.680000m/h.</desc>
<speed>1.300000</speed>
</trkpt>
<trkpt lat="43.167835" lon="19.275723">
<ele>884.664551</ele>
<time>2012-04-29T14:32:20Z</time>
<desc>lat.=43.167835, lon.=19.275723, Alt.=884.664551m. Speed=5.256000m/h.</desc>
<speed>1.460000</speed>
</trkpt>
<trkpt lat="43.167809" lon="19.275782">
<ele>884.570801</ele>
<time>2012-04-29T14:32:25Z</time>
<desc>lat.=43.167809, lon.=19.275782, Alt.=884.570801m. Speed=4.896000m/h.</desc>
<speed>1.360000</speed>
</trkpt>
<trkpt lat="43.167763" lon="19.275856">
<ele>883.852051</ele>
<time>2012-04-29T14:32:30Z</time>
<desc>lat.=43.167763, lon.=19.275856, Alt.=883.852051m. Speed=6.120000m/h.</desc>
<speed>1.700000</speed>
</trkpt>
<trkpt lat="43.167725" lon="19.275936">
<ele>883.086426</ele>
<time>2012-04-29T14:32:35Z</time>
<desc>lat.=43.167725, lon.=19.275936, Alt.=883.086426m. Speed=5.688000m/h.</desc>
<speed>1.580000</speed>
</trkpt>
<trkpt lat="43.167683" lon="19.276012">
<ele>882.461426</ele>
<time>2012-04-29T14:32:40Z</time>
<desc>lat.=43.167683, lon.=19.276012, Alt.=882.461426m. Speed=1.260000m/h.</desc>
<speed>0.350000</speed>
</trkpt>
<trkpt lat="43.167679" lon="19.276028">
<ele>881.133301</ele>
<time>2012-04-29T14:32:45Z</time>
<desc>lat.=43.167679, lon.=19.276028, Alt.=881.133301m. Speed=2.556000m/h.</desc>
<speed>0.710000</speed>
</trkpt>
<trkpt lat="43.167633" lon="19.276085">
<ele>881.836426</ele>
<time>2012-04-29T14:32:50Z</time>
<desc>lat.=43.167633, lon.=19.276085, Alt.=881.836426m. Speed=5.292000m/h.</desc>
<speed>1.470000</speed>
</trkpt>
<trkpt lat="43.167572" lon="19.276150">
<ele>882.805176</ele>
<time>2012-04-29T14:32:55Z</time>
<desc>lat.=43.167572, lon.=19.276150, Alt.=882.805176m. Speed=5.688000m/h.</desc>
<speed>1.580000</speed>
</trkpt>
<trkpt lat="43.167542" lon="19.276234">
<ele>882.242676</ele>
<time>2012-04-29T14:33:00Z</time>
<desc>lat.=43.167542, lon.=19.276234, Alt.=882.242676m. Speed=5.940000m/h.</desc>
<speed>1.650000</speed>
</trkpt>
<trkpt lat="43.167519" lon="19.276329">
<ele>881.742676</ele>
<time>2012-04-29T14:33:05Z</time>
<desc>lat.=43.167519, lon.=19.276329, Alt.=881.742676m. Speed=5.760000m/h.</desc>
<speed>1.600000</speed>
</trkpt>
<trkpt lat="43.167473" lon="19.276409">
<ele>882.133301</ele>
<time>2012-04-29T14:33:10Z</time>
<desc>lat.=43.167473, lon.=19.276409, Alt.=882.133301m. Speed=5.112000m/h.</desc>
<speed>1.420000</speed>
</trkpt>
<trkpt lat="43.167435" lon="19.276508">
<ele>882.398926</ele>
<time>2012-04-29T14:33:15Z</time>
<desc>lat.=43.167435, lon.=19.276508, Alt.=882.398926m. Speed=5.256000m/h.</desc>
<speed>1.460000</speed>
</trkpt>
<trkpt lat="43.167419" lon="19.276548">
<ele>882.930176</ele>
<time>2012-04-29T14:33:20Z</time>
<desc>lat.=43.167419, lon.=19.276548, Alt.=882.930176m. Speed=0.072000m/h.</desc>
<speed>0.020000</speed>
</trkpt>
<trkpt lat="43.167419" lon="19.276554">
<ele>882.711426</ele>
<time>2012-04-29T14:33:25Z</time>
<desc>lat.=43.167419, lon.=19.276554, Alt.=882.711426m. Speed=0.000000m/h.</desc>
<speed>0.000000</speed>
</trkpt>
<trkpt lat="43.167419" lon="19.276554">
<ele>882.648926</ele>
<time>2012-04-29T14:33:30Z</time>
<desc>lat.=43.167419, lon.=19.276554, Alt.=882.648926m. Speed=0.108000m/h.</desc>
<speed>0.030000</speed>
</trkpt>
<trkpt lat="43.167419" lon="19.276554">
<ele>882.664551</ele>
<time>2012-04-29T14:33:35Z</time>
<desc>lat.=43.167419, lon.=19.276554, Alt.=882.664551m. Speed=0.000000m/h.</desc>
<speed>0.000000</speed>
</trkpt>
<trkpt lat="43.167419" lon="19.276554">
<ele>882.648926</ele>
<time>2012-04-29T14:33:40Z</time>
<desc>lat.=43.167419, lon.=19.276554, Alt.=882.648926m. Speed=0.000000m/h.</desc>
<speed>0.000000</speed>
</trkpt>
<trkpt lat="43.167419" lon="19.276554">
<ele>882.664551</ele>
<time>2012-04-29T14:33:45Z</time>
<desc>lat.=43.167419, lon.=19.276554, Alt.=882.664551m. Speed=0.000000m/h.</desc>
<speed>0.000000</speed>
</trkpt>
<trkpt lat="43.167419" lon="19.276554">
<ele>882.648926</ele>
<time>2012-04-29T14:33:50Z</time>
<desc>lat.=43.167419, lon.=19.276554, Alt.=882.648926m. Speed=0.000000m/h.</desc>
<speed>0.000000</speed>
</trkpt>
<trkpt lat="43.167419" lon="19.276554">
<ele>882.664551</ele>
<time>2012-04-29T14:33:55Z</time>
<desc>lat.=43.167419, lon.=19.276554, Alt.=882.664551m. Speed=0.000000m/h.</desc>
<speed>0.000000</speed>
</trkpt>
<trkpt lat="43.167419" lon="19.276552">
<ele>882.664551</ele>
<time>2012-04-29T14:34:00Z</time>
<desc>lat.=43.167419, lon.=19.276552, Alt.=882.664551m. Speed=0.000000m/h.</desc>
<speed>0.000000</speed>
</trkpt>
<trkpt lat="43.167419" lon="19.276554">
<ele>882.633301</ele>
<time>2012-04-29T14:34:05Z</time>
<desc>lat.=43.167419, lon.=19.276554, Alt.=882.633301m. Speed=0.000000m/h.</desc>
<speed>0.000000</speed>
</trkpt>
<trkpt lat="43.167419" lon="19.276552">
<ele>882.633301</ele>
<time>2012-04-29T14:34:10Z</time>
<desc>lat.=43.167419, lon.=19.276552, Alt.=882.633301m. Speed=0.036000m/h.</desc>
<speed>0.010000</speed>
</trkpt>
<trkpt lat="43.167419" lon="19.276552">
<ele>882.633301</ele>
<time>2012-04-29T14:34:15Z</time>
<desc>lat.=43.167419, lon.=19.276552, Alt.=882.633301m. Speed=0.000000m/h.</desc>
<speed>0.000000</speed>
</trkpt>
<trkpt lat="43.167419" lon="19.276552">
<ele>882.648926</ele>
<time>2012-04-29T14:34:20Z</time>
<desc>lat.=43.167419, lon.=19.276552, Alt.=882.648926m. Speed=0.000000m/h.</desc>
<speed>0.000000</speed>
</trkpt>
<trkpt lat="43.167419" lon="19.276552">
<ele>882.664551</ele>
<time>2012-04-29T14:34:25Z</time>
<desc>lat.=43.167419, lon.=19.276552, Alt.=882.664551m. Speed=0.000000m/h.</desc>
<speed>0.000000</speed>
</trkpt>
<trkpt lat="43.167419" lon="19.276552">
<ele>882.711426</ele>
<time>2012-04-29T14:34:30Z</time>
<desc>lat.=43.167419, lon.=19.276552, Alt.=882.711426m. Speed=0.000000m/h.</desc>
<speed>0.000000</speed>
</trkpt>
<trkpt lat="43.167419" lon="19.276552">
<ele>882.727051</ele>
<time>2012-04-29T14:34:35Z</time>
<desc>lat.=43.167419, lon.=19.276552, Alt.=882.727051m. Speed=0.000000m/h.</desc>
<speed>0.000000</speed>
</trkpt>
<trkpt lat="43.167412" lon="19.276564">
<ele>883.023926</ele>
<time>2012-04-29T14:34:40Z</time>
<desc>lat.=43.167412, lon.=19.276564, Alt.=883.023926m. Speed=4.572000m/h.</desc>
<speed>1.270000</speed>
</trkpt>
<trkpt lat="43.167377" lon="19.276648">
<ele>883.773926</ele>
<time>2012-04-29T14:34:45Z</time>
<desc>lat.=43.167377, lon.=19.276648, Alt.=883.773926m. Speed=5.400000m/h.</desc>
<speed>1.500000</speed>
</trkpt>
<trkpt lat="43.167339" lon="19.276718">
<ele>884.148926</ele>
<time>2012-04-29T14:34:50Z</time>
<desc>lat.=43.167339, lon.=19.276718, Alt.=884.148926m. Speed=4.752000m/h.</desc>
<speed>1.320000</speed>
</trkpt>
<trkpt lat="43.167301" lon="19.276796">
<ele>884.070801</ele>
<time>2012-04-29T14:34:55Z</time>
<desc>lat.=43.167301, lon.=19.276796, Alt.=884.070801m. Speed=5.076000m/h.</desc>
<speed>1.410000</speed>
</trkpt>
<trkpt lat="43.167259" lon="19.276873">
<ele>883.758301</ele>
<time>2012-04-29T14:35:00Z</time>
<desc>lat.=43.167259, lon.=19.276873, Alt.=883.758301m. Speed=5.220000m/h.</desc>
<speed>1.450000</speed>
</trkpt>
<trkpt lat="43.167221" lon="19.276945">
<ele>883.883301</ele>
<time>2012-04-29T14:35:05Z</time>
<desc>lat.=43.167221, lon.=19.276945, Alt.=883.883301m. Speed=6.084000m/h.</desc>
<speed>1.690000</speed>
</trkpt>
<trkpt lat="43.167179" lon="19.277029">
<ele>883.930176</ele>
<time>2012-04-29T14:35:10Z</time>
<desc>lat.=43.167179, lon.=19.277029, Alt.=883.930176m. Speed=5.832000m/h.</desc>
<speed>1.620000</speed>
</trkpt>
<trkpt lat="43.167137" lon="19.277109">
<ele>882.523926</ele>
<time>2012-04-29T14:35:15Z</time>
<desc>lat.=43.167137, lon.=19.277109, Alt.=882.523926m. Speed=5.760000m/h.</desc>
<speed>1.600000</speed>
</trkpt>
<trkpt lat="43.167084" lon="19.277182">
<ele>882.039551</ele>
<time>2012-04-29T14:35:20Z</time>
<desc>lat.=43.167084, lon.=19.277182, Alt.=882.039551m. Speed=5.688000m/h.</desc>
<speed>1.580000</speed>
</trkpt>
<trkpt lat="43.167034" lon="19.277239">
<ele>883.117676</ele>
<time>2012-04-29T14:35:25Z</time>
<desc>lat.=43.167034, lon.=19.277239, Alt.=883.117676m. Speed=5.904000m/h.</desc>
<speed>1.640000</speed>
</trkpt>
<trkpt lat="43.166977" lon="19.277298">
<ele>883.070801</ele>
<time>2012-04-29T14:35:30Z</time>
<desc>lat.=43.166977, lon.=19.277298, Alt.=883.070801m. Speed=4.248000m/h.</desc>
<speed>1.180000</speed>
</trkpt>
<trkpt lat="43.166912" lon="19.277357">
<ele>884.367676</ele>
<time>2012-04-29T14:35:35Z</time>
<desc>lat.=43.166912, lon.=19.277357, Alt.=884.367676m. Speed=4.428000m/h.</desc>
<speed>1.230000</speed>
</trkpt>
<trkpt lat="43.166843" lon="19.277420">
<ele>884.852051</ele>
<time>2012-04-29T14:35:40Z</time>
<desc>lat.=43.166843, lon.=19.277420, Alt.=884.852051m. Speed=4.716000m/h.</desc>
<speed>1.310000</speed>
</trkpt>
<trkpt lat="43.166782" lon="19.277462">
<ele>887.445801</ele>
<time>2012-04-29T14:35:45Z</time>
<desc>lat.=43.166782, lon.=19.277462, Alt.=887.445801m. Speed=4.824000m/h.</desc>
<speed>1.340000</speed>
</trkpt>
<trkpt lat="43.166729" lon="19.277521">
<ele>889.930176</ele>
<time>2012-04-29T14:35:50Z</time>
<desc>lat.=43.166729, lon.=19.277521, Alt.=889.930176m. Speed=5.292000m/h.</desc>
<speed>1.470000</speed>
</trkpt>
<trkpt lat="43.166668" lon="19.277563">
<ele>891.945801</ele>
<time>2012-04-29T14:35:55Z</time>
<desc>lat.=43.166668, lon.=19.277563, Alt.=891.945801m. Speed=5.796000m/h.</desc>
<speed>1.610000</speed>
</trkpt>
<trkpt lat="43.166611" lon="19.277617">
<ele>893.852051</ele>
<time>2012-04-29T14:36:00Z</time>
<desc>lat.=43.166611, lon.=19.277617, Alt.=893.852051m. Speed=5.400000m/h.</desc>
<speed>1.500000</speed>
</trkpt>
<trkpt lat="43.166569" lon="19.277681">
<ele>895.242676</ele>
<time>2012-04-29T14:36:05Z</time>
<desc>lat.=43.166569, lon.=19.277681, Alt.=895.242676m. Speed=5.112000m/h.</desc>
<speed>1.420000</speed>
</trkpt>
<trkpt lat="43.166531" lon="19.277744">
<ele>895.320801</ele>
<time>2012-04-29T14:36:10Z</time>
<desc>lat.=43.166531, lon.=19.277744, Alt.=895.320801m. Speed=4.716000m/h.</desc>
<speed>1.310000</speed>
</trkpt>
<trkpt lat="43.166504" lon="19.277784">
<ele>895.836426</ele>
<time>2012-04-29T14:36:15Z</time>
<desc>lat.=43.166504, lon.=19.277784, Alt.=895.836426m. Speed=3.348000m/h.</desc>
<speed>0.930000</speed>
</trkpt>
<trkpt lat="43.166462" lon="19.277847">
<ele>896.914551</ele>
<time>2012-04-29T14:36:20Z</time>
<desc>lat.=43.166462, lon.=19.277847, Alt.=896.914551m. Speed=3.960000m/h.</desc>
<speed>1.100000</speed>
</trkpt>
<trkpt lat="43.166401" lon="19.277927">
<ele>897.086426</ele>
<time>2012-04-29T14:36:25Z</time>
<desc>lat.=43.166401, lon.=19.277927, Alt.=897.086426m. Speed=4.320000m/h.</desc>
<speed>1.200000</speed>
</trkpt>
<trkpt lat="43.166359" lon="19.277996">
<ele>898.336426</ele>
<time>2012-04-29T14:36:30Z</time>
<desc>lat.=43.166359, lon.=19.277996, Alt.=898.336426m. Speed=3.528000m/h.</desc>
<speed>0.980000</speed>
</trkpt>
<trkpt lat="43.166332" lon="19.278051">
<ele>898.633301</ele>
<time>2012-04-29T14:36:35Z</time>
<desc>lat.=43.166332, lon.=19.278051, Alt.=898.633301m. Speed=4.572000m/h.</desc>
<speed>1.270000</speed>
</trkpt>
<trkpt lat="43.166298" lon="19.278124">
<ele>899.430176</ele>
<time>2012-04-29T14:36:40Z</time>
<desc>lat.=43.166298, lon.=19.278124, Alt.=899.430176m. Speed=5.004000m/h.</desc>
<speed>1.390000</speed>
</trkpt>
<trkpt lat="43.166264" lon="19.278194">
<ele>899.836426</ele>
<time>2012-04-29T14:36:45Z</time>
<desc>lat.=43.166264, lon.=19.278194, Alt.=899.836426m. Speed=4.032000m/h.</desc>
<speed>1.120000</speed>
</trkpt>
<trkpt lat="43.166225" lon="19.278267">
<ele>900.086426</ele>
<time>2012-04-29T14:36:50Z</time>
<desc>lat.=43.166225, lon.=19.278267, Alt.=900.086426m. Speed=4.572000m/h.</desc>
<speed>1.270000</speed>
</trkpt>
<trkpt lat="43.166203" lon="19.278368">
<ele>900.742676</ele>
<time>2012-04-29T14:36:55Z</time>
<desc>lat.=43.166203, lon.=19.278368, Alt.=900.742676m. Speed=3.384000m/h.</desc>
<speed>0.940000</speed>
</trkpt>
<trkpt lat="43.166164" lon="19.278456">
<ele>901.289551</ele>
<time>2012-04-29T14:37:00Z</time>
<desc>lat.=43.166164, lon.=19.278456, Alt.=901.289551m. Speed=5.076000m/h.</desc>
<speed>1.410000</speed>
</trkpt>
<trkpt lat="43.166134" lon="19.278536">
<ele>901.914551</ele>
<time>2012-04-29T14:37:05Z</time>
<desc>lat.=43.166134, lon.=19.278536, Alt.=901.914551m. Speed=4.968000m/h.</desc>
<speed>1.380000</speed>
</trkpt>
<trkpt lat="43.166096" lon="19.278635">
<ele>902.039551</ele>
<time>2012-04-29T14:37:10Z</time>
<desc>lat.=43.166096, lon.=19.278635, Alt.=902.039551m. Speed=5.508000m/h.</desc>
<speed>1.530000</speed>
</trkpt>
<trkpt lat="43.166058" lon="19.278727">
<ele>903.117676</ele>
<time>2012-04-29T14:37:15Z</time>
<desc>lat.=43.166058, lon.=19.278727, Alt.=903.117676m. Speed=5.436000m/h.</desc>
<speed>1.510000</speed>
</trkpt>
<trkpt lat="43.166023" lon="19.278816">
<ele>903.336426</ele>
<time>2012-04-29T14:37:20Z</time>
<desc>lat.=43.166023, lon.=19.278816, Alt.=903.336426m. Speed=5.544000m/h.</desc>
<speed>1.540000</speed>
</trkpt>
<trkpt lat="43.165985" lon="19.278927">
<ele>903.336426</ele>
<time>2012-04-29T14:37:25Z</time>
<desc>lat.=43.165985, lon.=19.278927, Alt.=903.336426m. Speed=5.832000m/h.</desc>
<speed>1.620000</speed>
</trkpt>
<trkpt lat="43.165955" lon="19.279026">
<ele>902.977051</ele>
<time>2012-04-29T14:37:30Z</time>
<desc>lat.=43.165955, lon.=19.279026, Alt.=902.977051m. Speed=5.760000m/h.</desc>
<speed>1.600000</speed>
</trkpt>
<trkpt lat="43.165932" lon="19.279116">
<ele>903.273926</ele>
<time>2012-04-29T14:37:35Z</time>
<desc>lat.=43.165932, lon.=19.279116, Alt.=903.273926m. Speed=5.904000m/h.</desc>
<speed>1.640000</speed>
</trkpt>
<trkpt lat="43.165890" lon="19.279213">
<ele>903.867676</ele>
<time>2012-04-29T14:37:40Z</time>
<desc>lat.=43.165890, lon.=19.279213, Alt.=903.867676m. Speed=5.544000m/h.</desc>
<speed>1.540000</speed>
</trkpt>
<trkpt lat="43.165863" lon="19.279308">
<ele>903.477051</ele>
<time>2012-04-29T14:37:45Z</time>
<desc>lat.=43.165863, lon.=19.279308, Alt.=903.477051m. Speed=5.832000m/h.</desc>
<speed>1.620000</speed>
</trkpt>
<trkpt lat="43.165844" lon="19.279408">
<ele>902.773926</ele>
<time>2012-04-29T14:37:50Z</time>
<desc>lat.=43.165844, lon.=19.279408, Alt.=902.773926m. Speed=5.436000m/h.</desc>
<speed>1.510000</speed>
</trkpt>
<trkpt lat="43.165817" lon="19.279503">
<ele>902.195801</ele>
<time>2012-04-29T14:37:55Z</time>
<desc>lat.=43.165817, lon.=19.279503, Alt.=902.195801m. Speed=6.012000m/h.</desc>
<speed>1.670000</speed>
</trkpt>
<trkpt lat="43.165802" lon="19.279596">
<ele>902.617676</ele>
<time>2012-04-29T14:38:00Z</time>
<desc>lat.=43.165802, lon.=19.279596, Alt.=902.617676m. Speed=5.724000m/h.</desc>
<speed>1.590000</speed>
</trkpt>
<trkpt lat="43.165787" lon="19.279692">
<ele>902.539551</ele>
<time>2012-04-29T14:38:05Z</time>
<desc>lat.=43.165787, lon.=19.279692, Alt.=902.539551m. Speed=5.544000m/h.</desc>
<speed>1.540000</speed>
</trkpt>
<trkpt lat="43.165779" lon="19.279783">
<ele>901.164551</ele>
<time>2012-04-29T14:38:10Z</time>
<desc>lat.=43.165779, lon.=19.279783, Alt.=901.164551m. Speed=5.616000m/h.</desc>
<speed>1.560000</speed>
</trkpt>
<trkpt lat="43.165771" lon="19.279877">
<ele>902.086426</ele>
<time>2012-04-29T14:38:15Z</time>
<desc>lat.=43.165771, lon.=19.279877, Alt.=902.086426m. Speed=5.544000m/h.</desc>
<speed>1.540000</speed>
</trkpt>
<trkpt lat="43.165771" lon="19.279974">
<ele>901.961426</ele>
<time>2012-04-29T14:38:20Z</time>
<desc>lat.=43.165771, lon.=19.279974, Alt.=901.961426m. Speed=5.940000m/h.</desc>
<speed>1.650000</speed>
</trkpt>
<trkpt lat="43.165771" lon="19.280069">
<ele>902.648926</ele>
<time>2012-04-29T14:38:25Z</time>
<desc>lat.=43.165771, lon.=19.280069, Alt.=902.648926m. Speed=5.328000m/h.</desc>
<speed>1.480000</speed>
</trkpt>
<trkpt lat="43.165779" lon="19.280151">
<ele>903.414551</ele>
<time>2012-04-29T14:38:30Z</time>
<desc>lat.=43.165779, lon.=19.280151, Alt.=903.414551m. Speed=5.220000m/h.</desc>
<speed>1.450000</speed>
</trkpt>
<trkpt lat="43.165787" lon="19.280237">
<ele>902.086426</ele>
<time>2012-04-29T14:38:35Z</time>
<desc>lat.=43.165787, lon.=19.280237, Alt.=902.086426m. Speed=5.832000m/h.</desc>
<speed>1.620000</speed>
</trkpt>
<trkpt lat="43.165791" lon="19.280340">
<ele>901.227051</ele>
<time>2012-04-29T14:38:40Z</time>
<desc>lat.=43.165791, lon.=19.280340, Alt.=901.227051m. Speed=5.328000m/h.</desc>
<speed>1.480000</speed>
</trkpt>
<trkpt lat="43.165802" lon="19.280432">
<ele>901.195801</ele>
<time>2012-04-29T14:38:45Z</time>
<desc>lat.=43.165802, lon.=19.280432, Alt.=901.195801m. Speed=5.508000m/h.</desc>
<speed>1.530000</speed>
</trkpt>
<trkpt lat="43.165817" lon="19.280533">
<ele>901.102051</ele>
<time>2012-04-29T14:38:50Z</time>
<desc>lat.=43.165817, lon.=19.280533, Alt.=901.102051m. Speed=5.940000m/h.</desc>
<speed>1.650000</speed>
</trkpt>
<trkpt lat="43.165844" lon="19.280630">
<ele>902.023926</ele>
<time>2012-04-29T14:38:55Z</time>
<desc>lat.=43.165844, lon.=19.280630, Alt.=902.023926m. Speed=5.616000m/h.</desc>
<speed>1.560000</speed>
</trkpt>
<trkpt lat="43.165859" lon="19.280737">
<ele>903.586426</ele>
<time>2012-04-29T14:39:00Z</time>
<desc>lat.=43.165859, lon.=19.280737, Alt.=903.586426m. Speed=5.760000m/h.</desc>
<speed>1.600000</speed>
</trkpt>
<trkpt lat="43.165874" lon="19.280838">
<ele>904.898926</ele>
<time>2012-04-29T14:39:05Z</time>
<desc>lat.=43.165874, lon.=19.280838, Alt.=904.898926m. Speed=5.904000m/h.</desc>
<speed>1.640000</speed>
</trkpt>
<trkpt lat="43.165905" lon="19.280943">
<ele>905.352051</ele>
<time>2012-04-29T14:39:10Z</time>
<desc>lat.=43.165905, lon.=19.280943, Alt.=905.352051m. Speed=5.724000m/h.</desc>
<speed>1.590000</speed>
</trkpt>
<trkpt lat="43.165905" lon="19.281038">
<ele>906.211426</ele>
<time>2012-04-29T14:39:15Z</time>
<desc>lat.=43.165905, lon.=19.281038, Alt.=906.211426m. Speed=5.724000m/h.</desc>
<speed>1.590000</speed>
</trkpt>
<trkpt lat="43.165913" lon="19.281134">
<ele>906.523926</ele>
<time>2012-04-29T14:39:20Z</time>
<desc>lat.=43.165913, lon.=19.281134, Alt.=906.523926m. Speed=5.544000m/h.</desc>
<speed>1.540000</speed>
</trkpt>
<trkpt lat="43.165928" lon="19.281233">
<ele>904.945801</ele>
<time>2012-04-29T14:39:25Z</time>
<desc>lat.=43.165928, lon.=19.281233, Alt.=904.945801m. Speed=5.940000m/h.</desc>
<speed>1.650000</speed>
</trkpt>
<trkpt lat="43.165936" lon="19.281334">
<ele>903.867676</ele>
<time>2012-04-29T14:39:30Z</time>
<desc>lat.=43.165936, lon.=19.281334, Alt.=903.867676m. Speed=5.904000m/h.</desc>
<speed>1.640000</speed>
</trkpt>
<trkpt lat="43.165947" lon="19.281452">
<ele>902.945801</ele>
<time>2012-04-29T14:39:35Z</time>
<desc>lat.=43.165947, lon.=19.281452, Alt.=902.945801m. Speed=5.652000m/h.</desc>
<speed>1.570000</speed>
</trkpt>
<trkpt lat="43.165955" lon="19.281559">
<ele>902.711426</ele>
<time>2012-04-29T14:39:40Z</time>
<desc>lat.=43.165955, lon.=19.281559, Alt.=902.711426m. Speed=5.940000m/h.</desc>
<speed>1.650000</speed>
</trkpt>
<trkpt lat="43.165962" lon="19.281654">
<ele>902.742676</ele>
<time>2012-04-29T14:39:45Z</time>
<desc>lat.=43.165962, lon.=19.281654, Alt.=902.742676m. Speed=4.284000m/h.</desc>
<speed>1.190000</speed>
</trkpt>
<trkpt lat="43.165958" lon="19.281651">
<ele>902.961426</ele>
<time>2012-04-29T14:39:50Z</time>
<desc>lat.=43.165958, lon.=19.281651, Alt.=902.961426m. Speed=0.180000m/h.</desc>
<speed>0.050000</speed>
</trkpt>
<trkpt lat="43.165958" lon="19.281651">
<ele>902.914551</ele>
<time>2012-04-29T14:39:55Z</time>
<desc>lat.=43.165958, lon.=19.281651, Alt.=902.914551m. Speed=0.036000m/h.</desc>
<speed>0.010000</speed>
</trkpt>
<trkpt lat="43.165958" lon="19.281651">
<ele>902.945801</ele>
<time>2012-04-29T14:40:00Z</time>
<desc>lat.=43.165958, lon.=19.281651, Alt.=902.945801m. Speed=0.000000m/h.</desc>
<speed>0.000000</speed>
</trkpt>
<trkpt lat="43.165958" lon="19.281651">
<ele>902.961426</ele>
<time>2012-04-29T14:40:05Z</time>
<desc>lat.=43.165958, lon.=19.281651, Alt.=902.961426m. Speed=0.000000m/h.</desc>
<speed>0.000000</speed>
</trkpt>
<trkpt lat="43.165962" lon="19.281670">
<ele>902.883301</ele>
<time>2012-04-29T14:40:10Z</time>
<desc>lat.=43.165962, lon.=19.281670, Alt.=902.883301m. Speed=5.184000m/h.</desc>
<speed>1.440000</speed>
</trkpt>
<trkpt lat="43.165970" lon="19.281786">
<ele>903.508301</ele>
<time>2012-04-29T14:40:15Z</time>
<desc>lat.=43.165970, lon.=19.281786, Alt.=903.508301m. Speed=6.012000m/h.</desc>
<speed>1.670000</speed>
</trkpt>
<trkpt lat="43.165966" lon="19.281885">
<ele>903.727051</ele>
<time>2012-04-29T14:40:20Z</time>
<desc>lat.=43.165966, lon.=19.281885, Alt.=903.727051m. Speed=5.760000m/h.</desc>
<speed>1.600000</speed>
</trkpt>
<trkpt lat="43.165970" lon="19.281990">
<ele>903.789551</ele>
<time>2012-04-29T14:40:25Z</time>
<desc>lat.=43.165970, lon.=19.281990, Alt.=903.789551m. Speed=5.616000m/h.</desc>
<speed>1.560000</speed>
</trkpt>
<trkpt lat="43.165962" lon="19.282095">
<ele>903.492676</ele>
<time>2012-04-29T14:40:30Z</time>
<desc>lat.=43.165962, lon.=19.282095, Alt.=903.492676m. Speed=4.968000m/h.</desc>
<speed>1.380000</speed>
</trkpt>
<trkpt lat="43.165966" lon="19.282196">
<ele>903.227051</ele>
<time>2012-04-29T14:40:35Z</time>
<desc>lat.=43.165966, lon.=19.282196, Alt.=903.227051m. Speed=5.724000m/h.</desc>
<speed>1.590000</speed>
</trkpt>
<trkpt lat="43.165970" lon="19.282299">
<ele>902.852051</ele>
<time>2012-04-29T14:40:40Z</time>
<desc>lat.=43.165970, lon.=19.282299, Alt.=902.852051m. Speed=5.940000m/h.</desc>
<speed>1.650000</speed>
</trkpt>
<trkpt lat="43.165974" lon="19.282404">
<ele>902.039551</ele>
<time>2012-04-29T14:40:45Z</time>
<desc>lat.=43.165974, lon.=19.282404, Alt.=902.039551m. Speed=5.940000m/h.</desc>
<speed>1.650000</speed>
</trkpt>
<trkpt lat="43.165981" lon="19.282497">
<ele>901.492676</ele>
<time>2012-04-29T14:40:50Z</time>
<desc>lat.=43.165981, lon.=19.282497, Alt.=901.492676m. Speed=3.132000m/h.</desc>
<speed>0.870000</speed>
</trkpt>
<trkpt lat="43.165974" lon="19.282507">
<ele>901.742676</ele>
<time>2012-04-29T14:40:55Z</time>
<desc>lat.=43.165974, lon.=19.282507, Alt.=901.742676m. Speed=0.036000m/h.</desc>
<speed>0.010000</speed>
</trkpt>
<trkpt lat="43.165974" lon="19.282507">
<ele>901.633301</ele>
<time>2012-04-29T14:41:00Z</time>
<desc>lat.=43.165974, lon.=19.282507, Alt.=901.633301m. Speed=0.000000m/h.</desc>
<speed>0.000000</speed>
</trkpt>
<trkpt lat="43.165974" lon="19.282534">
<ele>901.133301</ele>
<time>2012-04-29T14:41:05Z</time>
<desc>lat.=43.165974, lon.=19.282534, Alt.=901.133301m. Speed=4.644000m/h.</desc>
<speed>1.290000</speed>
</trkpt>
<trkpt lat="43.165974" lon="19.282627">
<ele>900.977051</ele>
<time>2012-04-29T14:41:10Z</time>
<desc>lat.=43.165974, lon.=19.282627, Alt.=900.977051m. Speed=5.472000m/h.</desc>
<speed>1.520000</speed>
</trkpt>
<trkpt lat="43.165970" lon="19.282726">
<ele>901.914551</ele>
<time>2012-04-29T14:41:15Z</time>
<desc>lat.=43.165970, lon.=19.282726, Alt.=901.914551m. Speed=5.796000m/h.</desc>
<speed>1.610000</speed>
</trkpt>
<trkpt lat="43.165985" lon="19.282820">
<ele>901.398926</ele>
<time>2012-04-29T14:41:20Z</time>
<desc>lat.=43.165985, lon.=19.282820, Alt.=901.398926m. Speed=5.508000m/h.</desc>
<speed>1.530000</speed>
</trkpt>
<trkpt lat="43.166004" lon="19.282909">
<ele>901.180176</ele>
<time>2012-04-29T14:41:25Z</time>
<desc>lat.=43.166004, lon.=19.282909, Alt.=901.180176m. Speed=5.400000m/h.</desc>
<speed>1.500000</speed>
</trkpt>
<trkpt lat="43.166019" lon="19.283014">
<ele>900.914551</ele>
<time>2012-04-29T14:41:30Z</time>
<desc>lat.=43.166019, lon.=19.283014, Alt.=900.914551m. Speed=5.976000m/h.</desc>
<speed>1.660000</speed>
</trkpt>
<trkpt lat="43.166046" lon="19.283113">
<ele>900.492676</ele>
<time>2012-04-29T14:41:35Z</time>
<desc>lat.=43.166046, lon.=19.283113, Alt.=900.492676m. Speed=5.976000m/h.</desc>
<speed>1.660000</speed>
</trkpt>
<trkpt lat="43.166092" lon="19.283205">
<ele>901.445801</ele>
<time>2012-04-29T14:41:40Z</time>
<desc>lat.=43.166092, lon.=19.283205, Alt.=901.445801m. Speed=4.536000m/h.</desc>
<speed>1.260000</speed>
</trkpt>
<trkpt lat="43.166142" lon="19.283300">
<ele>902.477051</ele>
<time>2012-04-29T14:41:45Z</time>
<desc>lat.=43.166142, lon.=19.283300, Alt.=902.477051m. Speed=5.292000m/h.</desc>
<speed>1.470000</speed>
</trkpt>
<trkpt lat="43.166187" lon="19.283382">
<ele>903.742676</ele>
<time>2012-04-29T14:41:50Z</time>
<desc>lat.=43.166187, lon.=19.283382, Alt.=903.742676m. Speed=4.932000m/h.</desc>
<speed>1.370000</speed>
</trkpt>
<trkpt lat="43.166225" lon="19.283468">
<ele>903.680176</ele>
<time>2012-04-29T14:41:55Z</time>
<desc>lat.=43.166225, lon.=19.283468, Alt.=903.680176m. Speed=4.716000m/h.</desc>
<speed>1.310000</speed>
</trkpt>
<trkpt lat="43.166260" lon="19.283541">
<ele>904.008301</ele>
<time>2012-04-29T14:42:00Z</time>
<desc>lat.=43.166260, lon.=19.283541, Alt.=904.008301m. Speed=5.724000m/h.</desc>
<speed>1.590000</speed>
</trkpt>
<trkpt lat="43.166302" lon="19.283634">
<ele>903.961426</ele>
<time>2012-04-29T14:42:05Z</time>
<desc>lat.=43.166302, lon.=19.283634, Alt.=903.961426m. Speed=5.652000m/h.</desc>
<speed>1.570000</speed>
</trkpt>
<trkpt lat="43.166336" lon="19.283722">
<ele>904.180176</ele>
<time>2012-04-29T14:42:10Z</time>
<desc>lat.=43.166336, lon.=19.283722, Alt.=904.180176m. Speed=5.292000m/h.</desc>
<speed>1.470000</speed>
</trkpt>
<trkpt lat="43.166363" lon="19.283787">
<ele>904.930176</ele>
<time>2012-04-29T14:42:15Z</time>
<desc>lat.=43.166363, lon.=19.283787, Alt.=904.930176m. Speed=4.752000m/h.</desc>
<speed>1.320000</speed>
</trkpt>
<trkpt lat="43.166401" lon="19.283871">
<ele>905.383301</ele>
<time>2012-04-29T14:42:20Z</time>
<desc>lat.=43.166401, lon.=19.283871, Alt.=905.383301m. Speed=5.724000m/h.</desc>
<speed>1.590000</speed>
</trkpt>
<trkpt lat="43.166439" lon="19.283962">
<ele>904.680176</ele>
<time>2012-04-29T14:42:25Z</time>
<desc>lat.=43.166439, lon.=19.283962, Alt.=904.680176m. Speed=5.436000m/h.</desc>
<speed>1.510000</speed>
</trkpt>
<trkpt lat="43.166473" lon="19.284037">
<ele>901.539551</ele>
<time>2012-04-29T14:42:30Z</time>
<desc>lat.=43.166473, lon.=19.284037, Alt.=901.539551m. Speed=4.968000m/h.</desc>
<speed>1.380000</speed>
</trkpt>
<trkpt lat="43.166512" lon="19.284121">
<ele>899.086426</ele>
<time>2012-04-29T14:42:35Z</time>
<desc>lat.=43.166512, lon.=19.284121, Alt.=899.086426m. Speed=5.832000m/h.</desc>
<speed>1.620000</speed>
</trkpt>
<trkpt lat="43.166546" lon="19.284208">
<ele>898.023926</ele>
<time>2012-04-29T14:42:40Z</time>
<desc>lat.=43.166546, lon.=19.284208, Alt.=898.023926m. Speed=5.580000m/h.</desc>
<speed>1.550000</speed>
</trkpt>
<trkpt lat="43.166592" lon="19.284279">
<ele>897.023926</ele>
<time>2012-04-29T14:42:45Z</time>
<desc>lat.=43.166592, lon.=19.284279, Alt.=897.023926m. Speed=5.724000m/h.</desc>
<speed>1.590000</speed>
</trkpt>
<trkpt lat="43.166637" lon="19.284359">
<ele>895.664551</ele>
<time>2012-04-29T14:42:50Z</time>
<desc>lat.=43.166637, lon.=19.284359, Alt.=895.664551m. Speed=4.824000m/h.</desc>
<speed>1.340000</speed>
</trkpt>
<trkpt lat="43.166676" lon="19.284437">
<ele>894.539551</ele>
<time>2012-04-29T14:42:55Z</time>
<desc>lat.=43.166676, lon.=19.284437, Alt.=894.539551m. Speed=4.968000m/h.</desc>
<speed>1.380000</speed>
</trkpt>
<trkpt lat="43.166718" lon="19.284523">
<ele>893.727051</ele>
<time>2012-04-29T14:43:00Z</time>
<desc>lat.=43.166718, lon.=19.284523, Alt.=893.727051m. Speed=5.148000m/h.</desc>
<speed>1.430000</speed>
</trkpt>
<trkpt lat="43.166752" lon="19.284613">
<ele>893.883301</ele>
<time>2012-04-29T14:43:05Z</time>
<desc>lat.=43.166752, lon.=19.284613, Alt.=893.883301m. Speed=5.400000m/h.</desc>
<speed>1.500000</speed>
</trkpt>
<trkpt lat="43.166782" lon="19.284718">
<ele>893.977051</ele>
<time>2012-04-29T14:43:10Z</time>
<desc>lat.=43.166782, lon.=19.284718, Alt.=893.977051m. Speed=5.976000m/h.</desc>
<speed>1.660000</speed>
</trkpt>
<trkpt lat="43.166805" lon="19.284830">
<ele>893.398926</ele>
<time>2012-04-29T14:43:15Z</time>
<desc>lat.=43.166805, lon.=19.284830, Alt.=893.398926m. Speed=5.328000m/h.</desc>
<speed>1.480000</speed>
</trkpt>
<trkpt lat="43.166805" lon="19.284939">
<ele>893.336426</ele>
<time>2012-04-29T14:43:20Z</time>
<desc>lat.=43.166805, lon.=19.284939, Alt.=893.336426m. Speed=5.472000m/h.</desc>
<speed>1.520000</speed>
</trkpt>
<trkpt lat="43.166798" lon="19.285040">
<ele>892.961426</ele>
<time>2012-04-29T14:43:25Z</time>
<desc>lat.=43.166798, lon.=19.285040, Alt.=892.961426m. Speed=6.048000m/h.</desc>
<speed>1.680000</speed>
</trkpt>
<trkpt lat="43.166771" lon="19.285151">
<ele>892.227051</ele>
<time>2012-04-29T14:43:30Z</time>
<desc>lat.=43.166771, lon.=19.285151, Alt.=892.227051m. Speed=5.940000m/h.</desc>
<speed>1.650000</speed>
</trkpt>
<trkpt lat="43.166744" lon="19.285252">
<ele>891.773926</ele>
<time>2012-04-29T14:43:35Z</time>
<desc>lat.=43.166744, lon.=19.285252, Alt.=891.773926m. Speed=6.336000m/h.</desc>
<speed>1.760000</speed>
</trkpt>
<trkpt lat="43.166721" lon="19.285347">
<ele>891.617676</ele>
<time>2012-04-29T14:43:40Z</time>
<desc>lat.=43.166721, lon.=19.285347, Alt.=891.617676m. Speed=5.688000m/h.</desc>
<speed>1.580000</speed>
</trkpt>
<trkpt lat="43.166691" lon="19.285446">
<ele>889.039551</ele>
<time>2012-04-29T14:43:45Z</time>
<desc>lat.=43.166691, lon.=19.285446, Alt.=889.039551m. Speed=6.084000m/h.</desc>
<speed>1.690000</speed>
</trkpt>
<trkpt lat="43.166660" lon="19.285547">
<ele>888.492676</ele>
<time>2012-04-29T14:43:50Z</time>
<desc>lat.=43.166660, lon.=19.285547, Alt.=888.492676m. Speed=5.868000m/h.</desc>
<speed>1.630000</speed>
</trkpt>
<trkpt lat="43.166637" lon="19.285648">
<ele>888.367676</ele>
<time>2012-04-29T14:43:55Z</time>
<desc>lat.=43.166637, lon.=19.285648, Alt.=888.367676m. Speed=5.868000m/h.</desc>
<speed>1.630000</speed>
</trkpt>
<trkpt lat="43.166611" lon="19.285736">
<ele>888.539551</ele>
<time>2012-04-29T14:44:00Z</time>
<desc>lat.=43.166611, lon.=19.285736, Alt.=888.539551m. Speed=5.796000m/h.</desc>
<speed>1.610000</speed>
</trkpt>
<trkpt lat="43.166573" lon="19.285820">
<ele>888.508301</ele>
<time>2012-04-29T14:44:05Z</time>
<desc>lat.=43.166573, lon.=19.285820, Alt.=888.508301m. Speed=5.616000m/h.</desc>
<speed>1.560000</speed>
</trkpt>
<trkpt lat="43.166538" lon="19.285902">
<ele>888.648926</ele>
<time>2012-04-29T14:44:10Z</time>
<desc>lat.=43.166538, lon.=19.285902, Alt.=888.648926m. Speed=5.724000m/h.</desc>
<speed>1.590000</speed>
</trkpt>
<trkpt lat="43.166504" lon="19.285995">
<ele>887.680176</ele>
<time>2012-04-29T14:44:15Z</time>
<desc>lat.=43.166504, lon.=19.285995, Alt.=887.680176m. Speed=6.012000m/h.</desc>
<speed>1.670000</speed>
</trkpt>
<trkpt lat="43.166454" lon="19.286095">
<ele>886.492676</ele>
<time>2012-04-29T14:44:20Z</time>
<desc>lat.=43.166454, lon.=19.286095, Alt.=886.492676m. Speed=5.796000m/h.</desc>
<speed>1.610000</speed>
</trkpt>
<trkpt lat="43.166397" lon="19.286177">
<ele>885.680176</ele>
<time>2012-04-29T14:44:25Z</time>
<desc>lat.=43.166397, lon.=19.286177, Alt.=885.680176m. Speed=5.616000m/h.</desc>
<speed>1.560000</speed>
</trkpt>
<trkpt lat="43.166332" lon="19.286226">
<ele>888.148926</ele>
<time>2012-04-29T14:44:30Z</time>
<desc>lat.=43.166332, lon.=19.286226, Alt.=888.148926m. Speed=5.112000m/h.</desc>
<speed>1.420000</speed>
</trkpt>
<trkpt lat="43.166283" lon="19.286280">
<ele>888.664551</ele>
<time>2012-04-29T14:44:35Z</time>
<desc>lat.=43.166283, lon.=19.286280, Alt.=888.664551m. Speed=4.680000m/h.</desc>
<speed>1.300000</speed>
</trkpt>
<trkpt lat="43.166206" lon="19.286316">
<ele>889.070801</ele>
<time>2012-04-29T14:44:40Z</time>
<desc>lat.=43.166206, lon.=19.286316, Alt.=889.070801m. Speed=4.860000m/h.</desc>
<speed>1.350000</speed>
</trkpt>
<trkpt lat="43.166138" lon="19.286337">
<ele>889.086426</ele>
<time>2012-04-29T14:44:45Z</time>
<desc>lat.=43.166138, lon.=19.286337, Alt.=889.086426m. Speed=2.412000m/h.</desc>
<speed>0.670000</speed>
</trkpt>
<trkpt lat="43.166119" lon="19.286331">
<ele>890.883301</ele>
<time>2012-04-29T14:44:50Z</time>
<desc>lat.=43.166119, lon.=19.286331, Alt.=890.883301m. Speed=0.000000m/h.</desc>
<speed>0.000000</speed>
</trkpt>
<trkpt lat="43.166119" lon="19.286331">
<ele>890.898926</ele>
<time>2012-04-29T14:44:55Z</time>
<desc>lat.=43.166119, lon.=19.286331, Alt.=890.898926m. Speed=0.000000m/h.</desc>
<speed>0.000000</speed>
</trkpt>
<trkpt lat="43.166119" lon="19.286333">
<ele>890.945801</ele>
<time>2012-04-29T14:45:00Z</time>
<desc>lat.=43.166119, lon.=19.286333, Alt.=890.945801m. Speed=0.036000m/h.</desc>
<speed>0.010000</speed>
</trkpt>
<trkpt lat="43.166119" lon="19.286333">
<ele>890.961426</ele>
<time>2012-04-29T14:45:05Z</time>
<desc>lat.=43.166119, lon.=19.286333, Alt.=890.961426m. Speed=0.000000m/h.</desc>
<speed>0.000000</speed>
</trkpt>
<trkpt lat="43.166119" lon="19.286333">
<ele>890.977051</ele>
<time>2012-04-29T14:45:10Z</time>
<desc>lat.=43.166119, lon.=19.286333, Alt.=890.977051m. Speed=0.000000m/h.</desc>
<speed>0.000000</speed>
</trkpt>
<trkpt lat="43.166092" lon="19.286356">
<ele>891.883301</ele>
<time>2012-04-29T14:45:15Z</time>
<desc>lat.=43.166092, lon.=19.286356, Alt.=891.883301m. Speed=5.544000m/h.</desc>
<speed>1.540000</speed>
</trkpt>
<trkpt lat="43.166027" lon="19.286400">
<ele>893.461426</ele>
<time>2012-04-29T14:45:20Z</time>
<desc>lat.=43.166027, lon.=19.286400, Alt.=893.461426m. Speed=5.724000m/h.</desc>
<speed>1.590000</speed>
</trkpt>
<trkpt lat="43.165958" lon="19.286428">
<ele>894.836426</ele>
<time>2012-04-29T14:45:25Z</time>
<desc>lat.=43.165958, lon.=19.286428, Alt.=894.836426m. Speed=5.400000m/h.</desc>
<speed>1.500000</speed>
</trkpt>
<trkpt lat="43.165886" lon="19.286417">
<ele>896.617676</ele>
<time>2012-04-29T14:45:30Z</time>
<desc>lat.=43.165886, lon.=19.286417, Alt.=896.617676m. Speed=5.688000m/h.</desc>
<speed>1.580000</speed>
</trkpt>
<trkpt lat="43.165829" lon="19.286406">
<ele>897.852051</ele>
<time>2012-04-29T14:45:35Z</time>
<desc>lat.=43.165829, lon.=19.286406, Alt.=897.852051m. Speed=4.068000m/h.</desc>
<speed>1.130000</speed>
</trkpt>
<trkpt lat="43.165775" lon="19.286392">
<ele>899.289551</ele>
<time>2012-04-29T14:45:40Z</time>
<desc>lat.=43.165775, lon.=19.286392, Alt.=899.289551m. Speed=4.860000m/h.</desc>
<speed>1.350000</speed>
</trkpt>
<trkpt lat="43.165722" lon="19.286385">
<ele>900.211426</ele>
<time>2012-04-29T14:45:45Z</time>
<desc>lat.=43.165722, lon.=19.286385, Alt.=900.211426m. Speed=5.112000m/h.</desc>
<speed>1.420000</speed>
</trkpt>
<trkpt lat="43.165657" lon="19.286373">
<ele>901.977051</ele>
<time>2012-04-29T14:45:50Z</time>
<desc>lat.=43.165657, lon.=19.286373, Alt.=901.977051m. Speed=5.004000m/h.</desc>
<speed>1.390000</speed>
</trkpt>
<trkpt lat="43.165585" lon="19.286367">
<ele>903.633301</ele>
<time>2012-04-29T14:45:55Z</time>
<desc>lat.=43.165585, lon.=19.286367, Alt.=903.633301m. Speed=4.788000m/h.</desc>
<speed>1.330000</speed>
</trkpt>
<trkpt lat="43.165508" lon="19.286369">
<ele>904.992676</ele>
<time>2012-04-29T14:46:00Z</time>
<desc>lat.=43.165508, lon.=19.286369, Alt.=904.992676m. Speed=5.112000m/h.</desc>
<speed>1.420000</speed>
</trkpt>
<trkpt lat="43.165462" lon="19.286364">
<ele>906.258301</ele>
<time>2012-04-29T14:46:05Z</time>
<desc>lat.=43.165462, lon.=19.286364, Alt.=906.258301m. Speed=3.852000m/h.</desc>
<speed>1.070000</speed>
</trkpt>
<trkpt lat="43.165405" lon="19.286356">
<ele>908.273926</ele>
<time>2012-04-29T14:46:10Z</time>
<desc>lat.=43.165405, lon.=19.286356, Alt.=908.273926m. Speed=4.536000m/h.</desc>
<speed>1.260000</speed>
</trkpt>
<trkpt lat="43.165340" lon="19.286367">
<ele>909.945801</ele>
<time>2012-04-29T14:46:15Z</time>
<desc>lat.=43.165340, lon.=19.286367, Alt.=909.945801m. Speed=4.572000m/h.</desc>
<speed>1.270000</speed>
</trkpt>
<trkpt lat="43.165287" lon="19.286404">
<ele>910.586426</ele>
<time>2012-04-29T14:46:20Z</time>
<desc>lat.=43.165287, lon.=19.286404, Alt.=910.586426m. Speed=4.248000m/h.</desc>
<speed>1.180000</speed>
</trkpt>
<trkpt lat="43.165241" lon="19.286448">
<ele>910.273926</ele>
<time>2012-04-29T14:46:25Z</time>
<desc>lat.=43.165241, lon.=19.286448, Alt.=910.273926m. Speed=3.852000m/h.</desc>
<speed>1.070000</speed>
</trkpt>
<trkpt lat="43.165234" lon="19.286451">
<ele>910.242676</ele>
<time>2012-04-29T14:46:30Z</time>
<desc>lat.=43.165234, lon.=19.286451, Alt.=910.242676m. Speed=0.108000m/h.</desc>
<speed>0.030000</speed>
</trkpt>
<trkpt lat="43.165234" lon="19.286451">
<ele>910.242676</ele>
<time>2012-04-29T14:46:35Z</time>
<desc>lat.=43.165234, lon.=19.286451, Alt.=910.242676m. Speed=0.000000m/h.</desc>
<speed>0.000000</speed>
</trkpt>
<trkpt lat="43.165234" lon="19.286451">
<ele>910.227051</ele>
<time>2012-04-29T14:46:40Z</time>
<desc>lat.=43.165234, lon.=19.286451, Alt.=910.227051m. Speed=0.000000m/h.</desc>
<speed>0.000000</speed>
</trkpt>
<trkpt lat="43.165234" lon="19.286451">
<ele>910.211426</ele>
<time>2012-04-29T14:46:45Z</time>
<desc>lat.=43.165234, lon.=19.286451, Alt.=910.211426m. Speed=0.000000m/h.</desc>
<speed>0.000000</speed>
</trkpt>
<trkpt lat="43.165234" lon="19.286451">
<ele>910.227051</ele>
<time>2012-04-29T14:46:50Z</time>
<desc>lat.=43.165234, lon.=19.286451, Alt.=910.227051m. Speed=0.036000m/h.</desc>
<speed>0.010000</speed>
</trkpt>
<trkpt lat="43.165199" lon="19.286472">
<ele>910.430176</ele>
<time>2012-04-29T14:46:55Z</time>
<desc>lat.=43.165199, lon.=19.286472, Alt.=910.430176m. Speed=5.112000m/h.</desc>
<speed>1.420000</speed>
</trkpt>
<trkpt lat="43.165150" lon="19.286503">
<ele>911.055176</ele>
<time>2012-04-29T14:47:00Z</time>
<desc>lat.=43.165150, lon.=19.286503, Alt.=911.055176m. Speed=4.320000m/h.</desc>
<speed>1.200000</speed>
</trkpt>
<trkpt lat="43.165081" lon="19.286484">
<ele>910.195801</ele>
<time>2012-04-29T14:47:05Z</time>
<desc>lat.=43.165081, lon.=19.286484, Alt.=910.195801m. Speed=5.616000m/h.</desc>
<speed>1.560000</speed>
</trkpt>
<trkpt lat="43.165016" lon="19.286478">
<ele>910.039551</ele>
<time>2012-04-29T14:47:10Z</time>
<desc>lat.=43.165016, lon.=19.286478, Alt.=910.039551m. Speed=5.184000m/h.</desc>
<speed>1.440000</speed>
</trkpt>
<trkpt lat="43.164944" lon="19.286476">
<ele>909.742676</ele>
<time>2012-04-29T14:47:15Z</time>
<desc>lat.=43.164944, lon.=19.286476, Alt.=909.742676m. Speed=5.040000m/h.</desc>
<speed>1.400000</speed>
</trkpt>
<trkpt lat="43.164867" lon="19.286482">
<ele>909.570801</ele>
<time>2012-04-29T14:47:20Z</time>
<desc>lat.=43.164867, lon.=19.286482, Alt.=909.570801m. Speed=5.760000m/h.</desc>
<speed>1.600000</speed>
</trkpt>
<trkpt lat="43.164783" lon="19.286501">
<ele>909.195801</ele>
<time>2012-04-29T14:47:25Z</time>
<desc>lat.=43.164783, lon.=19.286501, Alt.=909.195801m. Speed=5.940000m/h.</desc>
<speed>1.650000</speed>
</trkpt>
<trkpt lat="43.164711" lon="19.286507">
<ele>908.883301</ele>
<time>2012-04-29T14:47:30Z</time>
<desc>lat.=43.164711, lon.=19.286507, Alt.=908.883301m. Speed=5.544000m/h.</desc>
<speed>1.540000</speed>
</trkpt>
<trkpt lat="43.164642" lon="19.286514">
<ele>908.633301</ele>
<time>2012-04-29T14:47:35Z</time>
<desc>lat.=43.164642, lon.=19.286514, Alt.=908.633301m. Speed=6.372000m/h.</desc>
<speed>1.770000</speed>
</trkpt>
<trkpt lat="43.164566" lon="19.286541">
<ele>907.961426</ele>
<time>2012-04-29T14:47:40Z</time>
<desc>lat.=43.164566, lon.=19.286541, Alt.=907.961426m. Speed=6.192000m/h.</desc>
<speed>1.720000</speed>
</trkpt>
<trkpt lat="43.164486" lon="19.286568">
<ele>907.914551</ele>
<time>2012-04-29T14:47:45Z</time>
<desc>lat.=43.164486, lon.=19.286568, Alt.=907.914551m. Speed=6.156000m/h.</desc>
<speed>1.710000</speed>
</trkpt>
<trkpt lat="43.164413" lon="19.286617">
<ele>907.742676</ele>
<time>2012-04-29T14:47:50Z</time>
<desc>lat.=43.164413, lon.=19.286617, Alt.=907.742676m. Speed=6.192000m/h.</desc>
<speed>1.720000</speed>
</trkpt>
<trkpt lat="43.164349" lon="19.286674">
<ele>907.648926</ele>
<time>2012-04-29T14:47:55Z</time>
<desc>lat.=43.164349, lon.=19.286674, Alt.=907.648926m. Speed=6.156000m/h.</desc>
<speed>1.710000</speed>
</trkpt>
<trkpt lat="43.164284" lon="19.286726">
<ele>907.227051</ele>
<time>2012-04-29T14:48:00Z</time>
<desc>lat.=43.164284, lon.=19.286726, Alt.=907.227051m. Speed=5.076000m/h.</desc>
<speed>1.410000</speed>
</trkpt>
<trkpt lat="43.164230" lon="19.286787">
<ele>907.320801</ele>
<time>2012-04-29T14:48:05Z</time>
<desc>lat.=43.164230, lon.=19.286787, Alt.=907.320801m. Speed=5.400000m/h.</desc>
<speed>1.500000</speed>
</trkpt>
<trkpt lat="43.164181" lon="19.286856">
<ele>907.992676</ele>
<time>2012-04-29T14:48:10Z</time>
<desc>lat.=43.164181, lon.=19.286856, Alt.=907.992676m. Speed=5.688000m/h.</desc>
<speed>1.580000</speed>
</trkpt>
<trkpt lat="43.164131" lon="19.286930">
<ele>908.648926</ele>
<time>2012-04-29T14:48:15Z</time>
<desc>lat.=43.164131, lon.=19.286930, Alt.=908.648926m. Speed=5.976000m/h.</desc>
<speed>1.660000</speed>
</trkpt>
<trkpt lat="43.164082" lon="19.286999">
<ele>908.586426</ele>
<time>2012-04-29T14:48:20Z</time>
<desc>lat.=43.164082, lon.=19.286999, Alt.=908.586426m. Speed=5.868000m/h.</desc>
<speed>1.630000</speed>
</trkpt>
<trkpt lat="43.164047" lon="19.287083">
<ele>907.617676</ele>
<time>2012-04-29T14:48:25Z</time>
<desc>lat.=43.164047, lon.=19.287083, Alt.=907.617676m. Speed=5.832000m/h.</desc>
<speed>1.620000</speed>
</trkpt>
<trkpt lat="43.164001" lon="19.287163">
<ele>907.227051</ele>
<time>2012-04-29T14:48:30Z</time>
<desc>lat.=43.164001, lon.=19.287163, Alt.=907.227051m. Speed=6.048000m/h.</desc>
<speed>1.680000</speed>
</trkpt>
<trkpt lat="43.163956" lon="19.287249">
<ele>906.867676</ele>
<time>2012-04-29T14:48:35Z</time>
<desc>lat.=43.163956, lon.=19.287249, Alt.=906.867676m. Speed=6.300000m/h.</desc>
<speed>1.750000</speed>
</trkpt>
<trkpt lat="43.163921" lon="19.287333">
<ele>906.023926</ele>
<time>2012-04-29T14:48:40Z</time>
<desc>lat.=43.163921, lon.=19.287333, Alt.=906.023926m. Speed=6.192000m/h.</desc>
<speed>1.720000</speed>
</trkpt>
<trkpt lat="43.163876" lon="19.287413">
<ele>905.445801</ele>
<time>2012-04-29T14:48:45Z</time>
<desc>lat.=43.163876, lon.=19.287413, Alt.=905.445801m. Speed=6.156000m/h.</desc>
<speed>1.710000</speed>
</trkpt>
<trkpt lat="43.163834" lon="19.287489">
<ele>904.898926</ele>
<time>2012-04-29T14:48:50Z</time>
<desc>lat.=43.163834, lon.=19.287489, Alt.=904.898926m. Speed=5.940000m/h.</desc>
<speed>1.650000</speed>
</trkpt>
<trkpt lat="43.163792" lon="19.287569">
<ele>903.773926</ele>
<time>2012-04-29T14:48:55Z</time>
<desc>lat.=43.163792, lon.=19.287569, Alt.=903.773926m. Speed=5.760000m/h.</desc>
<speed>1.600000</speed>
</trkpt>
<trkpt lat="43.163765" lon="19.287663">
<ele>901.727051</ele>
<time>2012-04-29T14:49:00Z</time>
<desc>lat.=43.163765, lon.=19.287663, Alt.=901.727051m. Speed=5.832000m/h.</desc>
<speed>1.620000</speed>
</trkpt>
<trkpt lat="43.163731" lon="19.287756">
<ele>899.492676</ele>
<time>2012-04-29T14:49:05Z</time>
<desc>lat.=43.163731, lon.=19.287756, Alt.=899.492676m. Speed=6.048000m/h.</desc>
<speed>1.680000</speed>
</trkpt>
<trkpt lat="43.163704" lon="19.287865">
<ele>897.867676</ele>
<time>2012-04-29T14:49:10Z</time>
<desc>lat.=43.163704, lon.=19.287865, Alt.=897.867676m. Speed=5.796000m/h.</desc>
<speed>1.610000</speed>
</trkpt>
<trkpt lat="43.163673" lon="19.287966">
<ele>896.273926</ele>
<time>2012-04-29T14:49:15Z</time>
<desc>lat.=43.163673, lon.=19.287966, Alt.=896.273926m. Speed=5.652000m/h.</desc>
<speed>1.570000</speed>
</trkpt>
<trkpt lat="43.163643" lon="19.288061">
<ele>894.492676</ele>
<time>2012-04-29T14:49:20Z</time>
<desc>lat.=43.163643, lon.=19.288061, Alt.=894.492676m. Speed=5.436000m/h.</desc>
<speed>1.510000</speed>
</trkpt>
<trkpt lat="43.163620" lon="19.288170">
<ele>892.570801</ele>
<time>2012-04-29T14:49:25Z</time>
<desc>lat.=43.163620, lon.=19.288170, Alt.=892.570801m. Speed=6.084000m/h.</desc>
<speed>1.690000</speed>
</trkpt>
<trkpt lat="43.163601" lon="19.288282">
<ele>890.570801</ele>
<time>2012-04-29T14:49:30Z</time>
<desc>lat.=43.163601, lon.=19.288282, Alt.=890.570801m. Speed=5.976000m/h.</desc>
<speed>1.660000</speed>
</trkpt>
<trkpt lat="43.163582" lon="19.288389">
<ele>887.430176</ele>
<time>2012-04-29T14:49:35Z</time>
<desc>lat.=43.163582, lon.=19.288389, Alt.=887.430176m. Speed=5.796000m/h.</desc>
<speed>1.610000</speed>
</trkpt>
<trkpt lat="43.163570" lon="19.288490">
<ele>887.180176</ele>
<time>2012-04-29T14:49:40Z</time>
<desc>lat.=43.163570, lon.=19.288490, Alt.=887.180176m. Speed=5.724000m/h.</desc>
<speed>1.590000</speed>
</trkpt>
<trkpt lat="43.163555" lon="19.288595">
<ele>886.461426</ele>
<time>2012-04-29T14:49:45Z</time>
<desc>lat.=43.163555, lon.=19.288595, Alt.=886.461426m. Speed=6.084000m/h.</desc>
<speed>1.690000</speed>
</trkpt>
<trkpt lat="43.163536" lon="19.288700">
<ele>884.961426</ele>
<time>2012-04-29T14:49:50Z</time>
<desc>lat.=43.163536, lon.=19.288700, Alt.=884.961426m. Speed=5.904000m/h.</desc>
<speed>1.640000</speed>
</trkpt>
<trkpt lat="43.163517" lon="19.288795">
<ele>883.148926</ele>
<time>2012-04-29T14:49:55Z</time>
<desc>lat.=43.163517, lon.=19.288795, Alt.=883.148926m. Speed=5.976000m/h.</desc>
<speed>1.660000</speed>
</trkpt>
<trkpt lat="43.163490" lon="19.288891">
<ele>880.195801</ele>
<time>2012-04-29T14:50:00Z</time>
<desc>lat.=43.163490, lon.=19.288891, Alt.=880.195801m. Speed=5.940000m/h.</desc>
<speed>1.650000</speed>
</trkpt>
<trkpt lat="43.163467" lon="19.288988">
<ele>878.195801</ele>
<time>2012-04-29T14:50:05Z</time>
<desc>lat.=43.163467, lon.=19.288988, Alt.=878.195801m. Speed=5.904000m/h.</desc>
<speed>1.640000</speed>
</trkpt>
<trkpt lat="43.163448" lon="19.289087">
<ele>876.805176</ele>
<time>2012-04-29T14:50:10Z</time>
<desc>lat.=43.163448, lon.=19.289087, Alt.=876.805176m. Speed=5.400000m/h.</desc>
<speed>1.500000</speed>
</trkpt>
<trkpt lat="43.163418" lon="19.289183">
<ele>875.414551</ele>
<time>2012-04-29T14:50:15Z</time>
<desc>lat.=43.163418, lon.=19.289183, Alt.=875.414551m. Speed=5.652000m/h.</desc>
<speed>1.570000</speed>
</trkpt>
<trkpt lat="43.163387" lon="19.289278">
<ele>874.492676</ele>
<time>2012-04-29T14:50:20Z</time>
<desc>lat.=43.163387, lon.=19.289278, Alt.=874.492676m. Speed=6.084000m/h.</desc>
<speed>1.690000</speed>
</trkpt>
<trkpt lat="43.163357" lon="19.289362">
<ele>874.398926</ele>
<time>2012-04-29T14:50:25Z</time>
<desc>lat.=43.163357, lon.=19.289362, Alt.=874.398926m. Speed=6.192000m/h.</desc>
<speed>1.720000</speed>
</trkpt>
<trkpt lat="43.163311" lon="19.289442">
<ele>875.633301</ele>
<time>2012-04-29T14:50:30Z</time>
<desc>lat.=43.163311, lon.=19.289442, Alt.=875.633301m. Speed=5.904000m/h.</desc>
<speed>1.640000</speed>
</trkpt>
<trkpt lat="43.163280" lon="19.289541">
<ele>875.117676</ele>
<time>2012-04-29T14:50:35Z</time>
<desc>lat.=43.163280, lon.=19.289541, Alt.=875.117676m. Speed=6.048000m/h.</desc>
<speed>1.680000</speed>
</trkpt>
<trkpt lat="43.163239" lon="19.289619">
<ele>876.898926</ele>
<time>2012-04-29T14:50:40Z</time>
<desc>lat.=43.163239, lon.=19.289619, Alt.=876.898926m. Speed=6.084000m/h.</desc>
<speed>1.690000</speed>
</trkpt>
<trkpt lat="43.163197" lon="19.289701">
<ele>877.805176</ele>
<time>2012-04-29T14:50:45Z</time>
<desc>lat.=43.163197, lon.=19.289701, Alt.=877.805176m. Speed=6.264000m/h.</desc>
<speed>1.740000</speed>
</trkpt>
<trkpt lat="43.163155" lon="19.289787">
<ele>878.602051</ele>
<time>2012-04-29T14:50:50Z</time>
<desc>lat.=43.163155, lon.=19.289787, Alt.=878.602051m. Speed=5.832000m/h.</desc>
<speed>1.620000</speed>
</trkpt>
<trkpt lat="43.163113" lon="19.289864">
<ele>880.180176</ele>
<time>2012-04-29T14:50:55Z</time>
<desc>lat.=43.163113, lon.=19.289864, Alt.=880.180176m. Speed=6.048000m/h.</desc>
<speed>1.680000</speed>
</trkpt>
<trkpt lat="43.163101" lon="19.289883">
<ele>880.461426</ele>
<time>2012-04-29T14:51:00Z</time>
<desc>lat.=43.163101, lon.=19.289883, Alt.=880.461426m. Speed=0.180000m/h.</desc>
<speed>0.050000</speed>
</trkpt>
<trkpt lat="43.163101" lon="19.289885">
<ele>880.180176</ele>
<time>2012-04-29T14:51:05Z</time>
<desc>lat.=43.163101, lon.=19.289885, Alt.=880.180176m. Speed=0.072000m/h.</desc>
<speed>0.020000</speed>
</trkpt>
<trkpt lat="43.163101" lon="19.289885">
<ele>880.211426</ele>
<time>2012-04-29T14:51:10Z</time>
<desc>lat.=43.163101, lon.=19.289885, Alt.=880.211426m. Speed=0.072000m/h.</desc>
<speed>0.020000</speed>
</trkpt>
<trkpt lat="43.163101" lon="19.289885">
<ele>880.258301</ele>
<time>2012-04-29T14:51:15Z</time>
<desc>lat.=43.163101, lon.=19.289885, Alt.=880.258301m. Speed=0.108000m/h.</desc>
<speed>0.030000</speed>
</trkpt>
<trkpt lat="43.163086" lon="19.289906">
<ele>881.195801</ele>
<time>2012-04-29T14:51:20Z</time>
<desc>lat.=43.163086, lon.=19.289906, Alt.=881.195801m. Speed=1.980000m/h.</desc>
<speed>0.550000</speed>
</trkpt>
<trkpt lat="43.163052" lon="19.289948">
<ele>882.367676</ele>
<time>2012-04-29T14:51:25Z</time>
<desc>lat.=43.163052, lon.=19.289948, Alt.=882.367676m. Speed=5.040000m/h.</desc>
<speed>1.400000</speed>
</trkpt>
<trkpt lat="43.162991" lon="19.290010">
<ele>882.773926</ele>
<time>2012-04-29T14:51:30Z</time>
<desc>lat.=43.162991, lon.=19.290010, Alt.=882.773926m. Speed=5.616000m/h.</desc>
<speed>1.560000</speed>
</trkpt>
<trkpt lat="43.162933" lon="19.290079">
<ele>883.523926</ele>
<time>2012-04-29T14:51:35Z</time>
<desc>lat.=43.162933, lon.=19.290079, Alt.=883.523926m. Speed=5.976000m/h.</desc>
<speed>1.660000</speed>
</trkpt>
<trkpt lat="43.162880" lon="19.290142">
<ele>884.117676</ele>
<time>2012-04-29T14:51:40Z</time>
<desc>lat.=43.162880, lon.=19.290142, Alt.=884.117676m. Speed=5.976000m/h.</desc>
<speed>1.660000</speed>
</trkpt>
<trkpt lat="43.162811" lon="19.290209">
<ele>883.727051</ele>
<time>2012-04-29T14:51:45Z</time>
<desc>lat.=43.162811, lon.=19.290209, Alt.=883.727051m. Speed=6.156000m/h.</desc>
<speed>1.710000</speed>
</trkpt>
<trkpt lat="43.162758" lon="19.290270">
<ele>884.117676</ele>
<time>2012-04-29T14:51:50Z</time>
<desc>lat.=43.162758, lon.=19.290270, Alt.=884.117676m. Speed=6.012000m/h.</desc>
<speed>1.670000</speed>
</trkpt>
<trkpt lat="43.162693" lon="19.290331">
<ele>883.930176</ele>
<time>2012-04-29T14:51:55Z</time>
<desc>lat.=43.162693, lon.=19.290331, Alt.=883.930176m. Speed=5.976000m/h.</desc>
<speed>1.660000</speed>
</trkpt>
<trkpt lat="43.162632" lon="19.290396">
<ele>883.945801</ele>
<time>2012-04-29T14:52:00Z</time>
<desc>lat.=43.162632, lon.=19.290396, Alt.=883.945801m. Speed=6.192000m/h.</desc>
<speed>1.720000</speed>
</trkpt>
<trkpt lat="43.162582" lon="19.290468">
<ele>883.586426</ele>
<time>2012-04-29T14:52:05Z</time>
<desc>lat.=43.162582, lon.=19.290468, Alt.=883.586426m. Speed=6.120000m/h.</desc>
<speed>1.700000</speed>
</trkpt>
<trkpt lat="43.162537" lon="19.290556">
<ele>883.477051</ele>
<time>2012-04-29T14:52:10Z</time>
<desc>lat.=43.162537, lon.=19.290556, Alt.=883.477051m. Speed=6.012000m/h.</desc>
<speed>1.670000</speed>
</trkpt>
<trkpt lat="43.162506" lon="19.290636">
<ele>882.492676</ele>
<time>2012-04-29T14:52:15Z</time>
<desc>lat.=43.162506, lon.=19.290636, Alt.=882.492676m. Speed=5.652000m/h.</desc>
<speed>1.570000</speed>
</trkpt>
<trkpt lat="43.162479" lon="19.290726">
<ele>881.836426</ele>
<time>2012-04-29T14:52:20Z</time>
<desc>lat.=43.162479, lon.=19.290726, Alt.=881.836426m. Speed=5.760000m/h.</desc>
<speed>1.600000</speed>
</trkpt>
<trkpt lat="43.162460" lon="19.290831">
<ele>880.398926</ele>
<time>2012-04-29T14:52:25Z</time>
<desc>lat.=43.162460, lon.=19.290831, Alt.=880.398926m. Speed=5.976000m/h.</desc>
<speed>1.660000</speed>
</trkpt>
<trkpt lat="43.162441" lon="19.290913">
<ele>878.695801</ele>
<time>2012-04-29T14:52:30Z</time>
<desc>lat.=43.162441, lon.=19.290913, Alt.=878.695801m. Speed=5.940000m/h.</desc>
<speed>1.650000</speed>
</trkpt>
<trkpt lat="43.162422" lon="19.291016">
<ele>877.711426</ele>
<time>2012-04-29T14:52:35Z</time>
<desc>lat.=43.162422, lon.=19.291016, Alt.=877.711426m. Speed=6.156000m/h.</desc>
<speed>1.710000</speed>
</trkpt>
<trkpt lat="43.162415" lon="19.291121">
<ele>877.148926</ele>
<time>2012-04-29T14:52:40Z</time>
<desc>lat.=43.162415, lon.=19.291121, Alt.=877.148926m. Speed=5.940000m/h.</desc>
<speed>1.650000</speed>
</trkpt>
<trkpt lat="43.162411" lon="19.291225">
<ele>876.242676</ele>
<time>2012-04-29T14:52:45Z</time>
<desc>lat.=43.162411, lon.=19.291225, Alt.=876.242676m. Speed=6.156000m/h.</desc>
<speed>1.710000</speed>
</trkpt>
<trkpt lat="43.162395" lon="19.291325">
<ele>874.164551</ele>
<time>2012-04-29T14:52:50Z</time>
<desc>lat.=43.162395, lon.=19.291325, Alt.=874.164551m. Speed=6.012000m/h.</desc>
<speed>1.670000</speed>
</trkpt>
<trkpt lat="43.162373" lon="19.291431">
<ele>872.039551</ele>
<time>2012-04-29T14:52:55Z</time>
<desc>lat.=43.162373, lon.=19.291431, Alt.=872.039551m. Speed=5.976000m/h.</desc>
<speed>1.660000</speed>
</trkpt>
<trkpt lat="43.162346" lon="19.291529">
<ele>870.211426</ele>
<time>2012-04-29T14:53:00Z</time>
<desc>lat.=43.162346, lon.=19.291529, Alt.=870.211426m. Speed=6.084000m/h.</desc>
<speed>1.690000</speed>
</trkpt>
<trkpt lat="43.162312" lon="19.291615">
<ele>868.992676</ele>
<time>2012-04-29T14:53:05Z</time>
<desc>lat.=43.162312, lon.=19.291615, Alt.=868.992676m. Speed=6.084000m/h.</desc>
<speed>1.690000</speed>
</trkpt>
<trkpt lat="43.162277" lon="19.291706">
<ele>868.570801</ele>
<time>2012-04-29T14:53:10Z</time>
<desc>lat.=43.162277, lon.=19.291706, Alt.=868.570801m. Speed=5.796000m/h.</desc>
<speed>1.610000</speed>
</trkpt>
<trkpt lat="43.162231" lon="19.291794">
<ele>869.586426</ele>
<time>2012-04-29T14:53:15Z</time>
<desc>lat.=43.162231, lon.=19.291794, Alt.=869.586426m. Speed=5.904000m/h.</desc>
<speed>1.640000</speed>
</trkpt>
<trkpt lat="43.162189" lon="19.291874">
<ele>870.758301</ele>
<time>2012-04-29T14:53:20Z</time>
<desc>lat.=43.162189, lon.=19.291874, Alt.=870.758301m. Speed=6.408000m/h.</desc>
<speed>1.780000</speed>
</trkpt>
<trkpt lat="43.162132" lon="19.291945">
<ele>871.180176</ele>
<time>2012-04-29T14:53:25Z</time>
<desc>lat.=43.162132, lon.=19.291945, Alt.=871.180176m. Speed=6.012000m/h.</desc>
<speed>1.670000</speed>
</trkpt>
<trkpt lat="43.162083" lon="19.292025">
<ele>871.648926</ele>
<time>2012-04-29T14:53:30Z</time>
<desc>lat.=43.162083, lon.=19.292025, Alt.=871.648926m. Speed=6.192000m/h.</desc>
<speed>1.720000</speed>
</trkpt>
<trkpt lat="43.162022" lon="19.292088">
<ele>872.117676</ele>
<time>2012-04-29T14:53:35Z</time>
<desc>lat.=43.162022, lon.=19.292088, Alt.=872.117676m. Speed=6.048000m/h.</desc>
<speed>1.680000</speed>
</trkpt>
<trkpt lat="43.161961" lon="19.292158">
<ele>871.680176</ele>
<time>2012-04-29T14:53:40Z</time>
<desc>lat.=43.161961, lon.=19.292158, Alt.=871.680176m. Speed=6.048000m/h.</desc>
<speed>1.680000</speed>
</trkpt>
<trkpt lat="43.161900" lon="19.292227">
<ele>869.914551</ele>
<time>2012-04-29T14:53:45Z</time>
<desc>lat.=43.161900, lon.=19.292227, Alt.=869.914551m. Speed=6.444000m/h.</desc>
<speed>1.790000</speed>
</trkpt>
<trkpt lat="43.161839" lon="19.292301">
<ele>870.336426</ele>
<time>2012-04-29T14:53:50Z</time>
<desc>lat.=43.161839, lon.=19.292301, Alt.=870.336426m. Speed=5.868000m/h.</desc>
<speed>1.630000</speed>
</trkpt>
<trkpt lat="43.161777" lon="19.292360">
<ele>870.086426</ele>
<time>2012-04-29T14:53:55Z</time>
<desc>lat.=43.161777, lon.=19.292360, Alt.=870.086426m. Speed=6.336000m/h.</desc>
<speed>1.760000</speed>
</trkpt>
<trkpt lat="43.161728" lon="19.292427">
<ele>870.914551</ele>
<time>2012-04-29T14:54:00Z</time>
<desc>lat.=43.161728, lon.=19.292427, Alt.=870.914551m. Speed=6.048000m/h.</desc>
<speed>1.680000</speed>
</trkpt>
<trkpt lat="43.161678" lon="19.292494">
<ele>870.242676</ele>
<time>2012-04-29T14:54:05Z</time>
<desc>lat.=43.161678, lon.=19.292494, Alt.=870.242676m. Speed=5.220000m/h.</desc>
<speed>1.450000</speed>
</trkpt>
<trkpt lat="43.161629" lon="19.292566">
<ele>870.086426</ele>
<time>2012-04-29T14:54:10Z</time>
<desc>lat.=43.161629, lon.=19.292566, Alt.=870.086426m. Speed=5.688000m/h.</desc>
<speed>1.580000</speed>
</trkpt>
<trkpt lat="43.161579" lon="19.292641">
<ele>868.883301</ele>
<time>2012-04-29T14:54:15Z</time>
<desc>lat.=43.161579, lon.=19.292641, Alt.=868.883301m. Speed=5.796000m/h.</desc>
<speed>1.610000</speed>
</trkpt>
<trkpt lat="43.161522" lon="19.292721">
<ele>868.805176</ele>
<time>2012-04-29T14:54:20Z</time>
<desc>lat.=43.161522, lon.=19.292721, Alt.=868.805176m. Speed=6.156000m/h.</desc>
<speed>1.710000</speed>
</trkpt>
<trkpt lat="43.161476" lon="19.292803">
<ele>868.070801</ele>
<time>2012-04-29T14:54:25Z</time>
<desc>lat.=43.161476, lon.=19.292803, Alt.=868.070801m. Speed=6.228000m/h.</desc>
<speed>1.730000</speed>
</trkpt>
<trkpt lat="43.161427" lon="19.292879">
<ele>867.633301</ele>
<time>2012-04-29T14:54:30Z</time>
<desc>lat.=43.161427, lon.=19.292879, Alt.=867.633301m. Speed=6.120000m/h.</desc>
<speed>1.700000</speed>
</trkpt>
<trkpt lat="43.161377" lon="19.292955">
<ele>866.570801</ele>
<time>2012-04-29T14:54:35Z</time>
<desc>lat.=43.161377, lon.=19.292955, Alt.=866.570801m. Speed=5.904000m/h.</desc>
<speed>1.640000</speed>
</trkpt>
<trkpt lat="43.161339" lon="19.293028">
<ele>866.758301</ele>
<time>2012-04-29T14:54:40Z</time>
<desc>lat.=43.161339, lon.=19.293028, Alt.=866.758301m. Speed=6.192000m/h.</desc>
<speed>1.720000</speed>
</trkpt>
<trkpt lat="43.161297" lon="19.293119">
<ele>866.414551</ele>
<time>2012-04-29T14:54:45Z</time>
<desc>lat.=43.161297, lon.=19.293119, Alt.=866.414551m. Speed=5.688000m/h.</desc>
<speed>1.580000</speed>
</trkpt>
<trkpt lat="43.161251" lon="19.293205">
<ele>865.039551</ele>
<time>2012-04-29T14:54:50Z</time>
<desc>lat.=43.161251, lon.=19.293205, Alt.=865.039551m. Speed=5.148000m/h.</desc>
<speed>1.430000</speed>
</trkpt>
<trkpt lat="43.161205" lon="19.293282">
<ele>864.648926</ele>
<time>2012-04-29T14:54:55Z</time>
<desc>lat.=43.161205, lon.=19.293282, Alt.=864.648926m. Speed=6.120000m/h.</desc>
<speed>1.700000</speed>
</trkpt>
<trkpt lat="43.161156" lon="19.293364">
<ele>864.523926</ele>
<time>2012-04-29T14:55:00Z</time>
<desc>lat.=43.161156, lon.=19.293364, Alt.=864.523926m. Speed=5.724000m/h.</desc>
<speed>1.590000</speed>
</trkpt>
<trkpt lat="43.161114" lon="19.293451">
<ele>864.633301</ele>
<time>2012-04-29T14:55:05Z</time>
<desc>lat.=43.161114, lon.=19.293451, Alt.=864.633301m. Speed=5.868000m/h.</desc>
<speed>1.630000</speed>
</trkpt>
<trkpt lat="43.161079" lon="19.293541">
<ele>863.508301</ele>
<time>2012-04-29T14:55:10Z</time>
<desc>lat.=43.161079, lon.=19.293541, Alt.=863.508301m. Speed=5.832000m/h.</desc>
<speed>1.620000</speed>
</trkpt>
<trkpt lat="43.161045" lon="19.293631">
<ele>862.930176</ele>
<time>2012-04-29T14:55:15Z</time>
<desc>lat.=43.161045, lon.=19.293631, Alt.=862.930176m. Speed=5.796000m/h.</desc>
<speed>1.610000</speed>
</trkpt>
<trkpt lat="43.161018" lon="19.293730">
<ele>861.758301</ele>
<time>2012-04-29T14:55:20Z</time>
<desc>lat.=43.161018, lon.=19.293730, Alt.=861.758301m. Speed=5.976000m/h.</desc>
<speed>1.660000</speed>
</trkpt>
<trkpt lat="43.160988" lon="19.293825">
<ele>860.633301</ele>
<time>2012-04-29T14:55:25Z</time>
<desc>lat.=43.160988, lon.=19.293825, Alt.=860.633301m. Speed=6.084000m/h.</desc>
<speed>1.690000</speed>
</trkpt>
<trkpt lat="43.160957" lon="19.293913">
<ele>859.039551</ele>
<time>2012-04-29T14:55:30Z</time>
<desc>lat.=43.160957, lon.=19.293913, Alt.=859.039551m. Speed=5.976000m/h.</desc>
<speed>1.660000</speed>
</trkpt>
<trkpt lat="43.160927" lon="19.294014">
<ele>857.180176</ele>
<time>2012-04-29T14:55:35Z</time>
<desc>lat.=43.160927, lon.=19.294014, Alt.=857.180176m. Speed=5.868000m/h.</desc>
<speed>1.630000</speed>
</trkpt>
<trkpt lat="43.160889" lon="19.294100">
<ele>856.820801</ele>
<time>2012-04-29T14:55:40Z</time>
<desc>lat.=43.160889, lon.=19.294100, Alt.=856.820801m. Speed=6.084000m/h.</desc>
<speed>1.690000</speed>
</trkpt>
<trkpt lat="43.160839" lon="19.294184">
<ele>856.508301</ele>
<time>2012-04-29T14:55:45Z</time>
<desc>lat.=43.160839, lon.=19.294184, Alt.=856.508301m. Speed=6.084000m/h.</desc>
<speed>1.690000</speed>
</trkpt>
<trkpt lat="43.160793" lon="19.294268">
<ele>855.867676</ele>
<time>2012-04-29T14:55:50Z</time>
<desc>lat.=43.160793, lon.=19.294268, Alt.=855.867676m. Speed=5.652000m/h.</desc>
<speed>1.570000</speed>
</trkpt>
<trkpt lat="43.160748" lon="19.294342">
<ele>856.320801</ele>
<time>2012-04-29T14:55:55Z</time>
<desc>lat.=43.160748, lon.=19.294342, Alt.=856.320801m. Speed=5.760000m/h.</desc>
<speed>1.600000</speed>
</trkpt>
<trkpt lat="43.160702" lon="19.294422">
<ele>856.508301</ele>
<time>2012-04-29T14:56:00Z</time>
<desc>lat.=43.160702, lon.=19.294422, Alt.=856.508301m. Speed=5.832000m/h.</desc>
<speed>1.620000</speed>
</trkpt>
<trkpt lat="43.160648" lon="19.294485">
<ele>855.852051</ele>
<time>2012-04-29T14:56:05Z</time>
<desc>lat.=43.160648, lon.=19.294485, Alt.=855.852051m. Speed=5.796000m/h.</desc>
<speed>1.610000</speed>
</trkpt>
<trkpt lat="43.160587" lon="19.294538">
<ele>856.289551</ele>
<time>2012-04-29T14:56:10Z</time>
<desc>lat.=43.160587, lon.=19.294538, Alt.=856.289551m. Speed=5.472000m/h.</desc>
<speed>1.520000</speed>
</trkpt>
<trkpt lat="43.160519" lon="19.294584">
<ele>856.273926</ele>
<time>2012-04-29T14:56:15Z</time>
<desc>lat.=43.160519, lon.=19.294584, Alt.=856.273926m. Speed=6.192000m/h.</desc>
<speed>1.720000</speed>
</trkpt>
<trkpt lat="43.160446" lon="19.294622">
<ele>856.086426</ele>
<time>2012-04-29T14:56:20Z</time>
<desc>lat.=43.160446, lon.=19.294622, Alt.=856.086426m. Speed=5.184000m/h.</desc>
<speed>1.440000</speed>
</trkpt>
<trkpt lat="43.160442" lon="19.294640">
<ele>856.961426</ele>
<time>2012-04-29T14:56:25Z</time>
<desc>lat.=43.160442, lon.=19.294640, Alt.=856.961426m. Speed=0.036000m/h.</desc>
<speed>0.010000</speed>
</trkpt>
<trkpt lat="43.160439" lon="19.294638">
<ele>856.992676</ele>
<time>2012-04-29T14:56:30Z</time>
<desc>lat.=43.160439, lon.=19.294638, Alt.=856.992676m. Speed=0.504000m/h.</desc>
<speed>0.140000</speed>
</trkpt>
<trkpt lat="43.160381" lon="19.294645">
<ele>857.883301</ele>
<time>2012-04-29T14:56:35Z</time>
<desc>lat.=43.160381, lon.=19.294645, Alt.=857.883301m. Speed=5.904000m/h.</desc>
<speed>1.640000</speed>
</trkpt>
<trkpt lat="43.160313" lon="19.294666">
<ele>856.414551</ele>
<time>2012-04-29T14:56:40Z</time>
<desc>lat.=43.160313, lon.=19.294666, Alt.=856.414551m. Speed=5.868000m/h.</desc>
<speed>1.630000</speed>
</trkpt>
<trkpt lat="43.160236" lon="19.294691">
<ele>855.617676</ele>
<time>2012-04-29T14:56:45Z</time>
<desc>lat.=43.160236, lon.=19.294691, Alt.=855.617676m. Speed=6.048000m/h.</desc>
<speed>1.680000</speed>
</trkpt>
<trkpt lat="43.160156" lon="19.294699">
<ele>855.680176</ele>
<time>2012-04-29T14:56:50Z</time>
<desc>lat.=43.160156, lon.=19.294699, Alt.=855.680176m. Speed=5.868000m/h.</desc>
<speed>1.630000</speed>
</trkpt>
<trkpt lat="43.160084" lon="19.294689">
<ele>854.477051</ele>
<time>2012-04-29T14:56:55Z</time>
<desc>lat.=43.160084, lon.=19.294689, Alt.=854.477051m. Speed=6.228000m/h.</desc>
<speed>1.730000</speed>
</trkpt>
<trkpt lat="43.160011" lon="19.294680">
<ele>853.867676</ele>
<time>2012-04-29T14:57:00Z</time>
<desc>lat.=43.160011, lon.=19.294680, Alt.=853.867676m. Speed=6.048000m/h.</desc>
<speed>1.680000</speed>
</trkpt>
<trkpt lat="43.159935" lon="19.294661">
<ele>853.383301</ele>
<time>2012-04-29T14:57:05Z</time>
<desc>lat.=43.159935, lon.=19.294661, Alt.=853.383301m. Speed=6.048000m/h.</desc>
<speed>1.680000</speed>
</trkpt>
<trkpt lat="43.159859" lon="19.294638">
<ele>853.367676</ele>
<time>2012-04-29T14:57:10Z</time>
<desc>lat.=43.159859, lon.=19.294638, Alt.=853.367676m. Speed=5.904000m/h.</desc>
<speed>1.640000</speed>
</trkpt>
<trkpt lat="43.159786" lon="19.294605">
<ele>853.680176</ele>
<time>2012-04-29T14:57:15Z</time>
<desc>lat.=43.159786, lon.=19.294605, Alt.=853.680176m. Speed=6.084000m/h.</desc>
<speed>1.690000</speed>
</trkpt>
<trkpt lat="43.159710" lon="19.294567">
<ele>853.477051</ele>
<time>2012-04-29T14:57:20Z</time>
<desc>lat.=43.159710, lon.=19.294567, Alt.=853.477051m. Speed=6.552000m/h.</desc>
<speed>1.820000</speed>
</trkpt>
<trkpt lat="43.159645" lon="19.294521">
<ele>853.023926</ele>
<time>2012-04-29T14:57:25Z</time>
<desc>lat.=43.159645, lon.=19.294521, Alt.=853.023926m. Speed=6.264000m/h.</desc>
<speed>1.740000</speed>
</trkpt>
<trkpt lat="43.159584" lon="19.294474">
<ele>852.664551</ele>
<time>2012-04-29T14:57:30Z</time>
<desc>lat.=43.159584, lon.=19.294474, Alt.=852.664551m. Speed=5.832000m/h.</desc>
<speed>1.620000</speed>
</trkpt>
<trkpt lat="43.159523" lon="19.294418">
<ele>852.055176</ele>
<time>2012-04-29T14:57:35Z</time>
<desc>lat.=43.159523, lon.=19.294418, Alt.=852.055176m. Speed=6.120000m/h.</desc>
<speed>1.700000</speed>
</trkpt>
<trkpt lat="43.159462" lon="19.294361">
<ele>851.695801</ele>
<time>2012-04-29T14:57:40Z</time>
<desc>lat.=43.159462, lon.=19.294361, Alt.=851.695801m. Speed=5.544000m/h.</desc>
<speed>1.540000</speed>
</trkpt>
<trkpt lat="43.159409" lon="19.294302">
<ele>851.195801</ele>
<time>2012-04-29T14:57:45Z</time>
<desc>lat.=43.159409, lon.=19.294302, Alt.=851.195801m. Speed=5.796000m/h.</desc>
<speed>1.610000</speed>
</trkpt>
<trkpt lat="43.159351" lon="19.294237">
<ele>850.727051</ele>
<time>2012-04-29T14:57:50Z</time>
<desc>lat.=43.159351, lon.=19.294237, Alt.=850.727051m. Speed=6.228000m/h.</desc>
<speed>1.730000</speed>
</trkpt>
<trkpt lat="43.159283" lon="19.294174">
<ele>850.617676</ele>
<time>2012-04-29T14:57:55Z</time>
<desc>lat.=43.159283, lon.=19.294174, Alt.=850.617676m. Speed=6.192000m/h.</desc>
<speed>1.720000</speed>
</trkpt>
<trkpt lat="43.159218" lon="19.294123">
<ele>850.523926</ele>
<time>2012-04-29T14:58:00Z</time>
<desc>lat.=43.159218, lon.=19.294123, Alt.=850.523926m. Speed=5.508000m/h.</desc>
<speed>1.530000</speed>
</trkpt>
<trkpt lat="43.159149" lon="19.294073">
<ele>850.445801</ele>
<time>2012-04-29T14:58:05Z</time>
<desc>lat.=43.159149, lon.=19.294073, Alt.=850.445801m. Speed=6.264000m/h.</desc>
<speed>1.740000</speed>
</trkpt>
<trkpt lat="43.159073" lon="19.294037">
<ele>850.023926</ele>
<time>2012-04-29T14:58:10Z</time>
<desc>lat.=43.159073, lon.=19.294037, Alt.=850.023926m. Speed=6.192000m/h.</desc>
<speed>1.720000</speed>
</trkpt>
<trkpt lat="43.159012" lon="19.293983">
<ele>849.805176</ele>
<time>2012-04-29T14:58:15Z</time>
<desc>lat.=43.159012, lon.=19.293983, Alt.=849.805176m. Speed=5.724000m/h.</desc>
<speed>1.590000</speed>
</trkpt>
<trkpt lat="43.158958" lon="19.293919">
<ele>849.852051</ele>
<time>2012-04-29T14:58:20Z</time>
<desc>lat.=43.158958, lon.=19.293919, Alt.=849.852051m. Speed=5.544000m/h.</desc>
<speed>1.540000</speed>
</trkpt>
<trkpt lat="43.158943" lon="19.293859">
<ele>848.008301</ele>
<time>2012-04-29T14:58:25Z</time>
<desc>lat.=43.158943, lon.=19.293859, Alt.=848.008301m. Speed=5.580000m/h.</desc>
<speed>1.550000</speed>
</trkpt>
<trkpt lat="43.158913" lon="19.293772">
<ele>846.836426</ele>
<time>2012-04-29T14:58:30Z</time>
<desc>lat.=43.158913, lon.=19.293772, Alt.=846.836426m. Speed=6.012000m/h.</desc>
<speed>1.670000</speed>
</trkpt>
<trkpt lat="43.158886" lon="19.293688">
<ele>846.227051</ele>
<time>2012-04-29T14:58:35Z</time>
<desc>lat.=43.158886, lon.=19.293688, Alt.=846.227051m. Speed=4.788000m/h.</desc>
<speed>1.330000</speed>
</trkpt>
<trkpt lat="43.158882" lon="19.293613">
<ele>845.008301</ele>
<time>2012-04-29T14:58:40Z</time>
<desc>lat.=43.158882, lon.=19.293613, Alt.=845.008301m. Speed=5.580000m/h.</desc>
<speed>1.550000</speed>
</trkpt>
<trkpt lat="43.158871" lon="19.293531">
<ele>842.820801</ele>
<time>2012-04-29T14:58:45Z</time>
<desc>lat.=43.158871, lon.=19.293531, Alt.=842.820801m. Speed=4.500000m/h.</desc>
<speed>1.250000</speed>
</trkpt>
<trkpt lat="43.158878" lon="19.293447">
<ele>840.414551</ele>
<time>2012-04-29T14:58:50Z</time>
<desc>lat.=43.158878, lon.=19.293447, Alt.=840.414551m. Speed=4.968000m/h.</desc>
<speed>1.380000</speed>
</trkpt>
<trkpt lat="43.158894" lon="19.293341">
<ele>839.117676</ele>
<time>2012-04-29T14:58:55Z</time>
<desc>lat.=43.158894, lon.=19.293341, Alt.=839.117676m. Speed=5.976000m/h.</desc>
<speed>1.660000</speed>
</trkpt>
<trkpt lat="43.158905" lon="19.293240">
<ele>837.477051</ele>
<time>2012-04-29T14:59:00Z</time>
<desc>lat.=43.158905, lon.=19.293240, Alt.=837.477051m. Speed=5.760000m/h.</desc>
<speed>1.600000</speed>
</trkpt>
<trkpt lat="43.158924" lon="19.293131">
<ele>837.492676</ele>
<time>2012-04-29T14:59:05Z</time>
<desc>lat.=43.158924, lon.=19.293131, Alt.=837.492676m. Speed=5.868000m/h.</desc>
<speed>1.630000</speed>
</trkpt>
<trkpt lat="43.158936" lon="19.293036">
<ele>836.477051</ele>
<time>2012-04-29T14:59:10Z</time>
<desc>lat.=43.158936, lon.=19.293036, Alt.=836.477051m. Speed=6.012000m/h.</desc>
<speed>1.670000</speed>
</trkpt>
<trkpt lat="43.158955" lon="19.292934">
<ele>836.680176</ele>
<time>2012-04-29T14:59:15Z</time>
<desc>lat.=43.158955, lon.=19.292934, Alt.=836.680176m. Speed=6.660000m/h.</desc>
<speed>1.850000</speed>
</trkpt>
<trkpt lat="43.158974" lon="19.292830">
<ele>836.680176</ele>
<time>2012-04-29T14:59:20Z</time>
<desc>lat.=43.158974, lon.=19.292830, Alt.=836.680176m. Speed=5.976000m/h.</desc>
<speed>1.660000</speed>
</trkpt>
<trkpt lat="43.158993" lon="19.292730">
<ele>836.023926</ele>
<time>2012-04-29T14:59:25Z</time>
<desc>lat.=43.158993, lon.=19.292730, Alt.=836.023926m. Speed=4.104000m/h.</desc>
<speed>1.140000</speed>
</trkpt>
<trkpt lat="43.158981" lon="19.292686">
<ele>836.102051</ele>
<time>2012-04-29T14:59:30Z</time>
<desc>lat.=43.158981, lon.=19.292686, Alt.=836.102051m. Speed=2.304000m/h.</desc>
<speed>0.640000</speed>
</trkpt>
<trkpt lat="43.158974" lon="19.292683">
<ele>836.117676</ele>
<time>2012-04-29T14:59:35Z</time>
<desc>lat.=43.158974, lon.=19.292683, Alt.=836.117676m. Speed=0.684000m/h.</desc>
<speed>0.190000</speed>
</trkpt>
<trkpt lat="43.158962" lon="19.292679">
<ele>836.070801</ele>
<time>2012-04-29T14:59:40Z</time>
<desc>lat.=43.158962, lon.=19.292679, Alt.=836.070801m. Speed=0.756000m/h.</desc>
<speed>0.210000</speed>
</trkpt>
<trkpt lat="43.158958" lon="19.292677">
<ele>836.039551</ele>
<time>2012-04-29T14:59:45Z</time>
<desc>lat.=43.158958, lon.=19.292677, Alt.=836.039551m. Speed=0.036000m/h.</desc>
<speed>0.010000</speed>
</trkpt>
<trkpt lat="43.158958" lon="19.292677">
<ele>836.008301</ele>
<time>2012-04-29T14:59:50Z</time>
<desc>lat.=43.158958, lon.=19.292677, Alt.=836.008301m. Speed=0.072000m/h.</desc>
<speed>0.020000</speed>
</trkpt>
<trkpt lat="43.158958" lon="19.292677">
<ele>835.977051</ele>
<time>2012-04-29T14:59:55Z</time>
<desc>lat.=43.158958, lon.=19.292677, Alt.=835.977051m. Speed=0.036000m/h.</desc>
<speed>0.010000</speed>
</trkpt>
<trkpt lat="43.158958" lon="19.292677">
<ele>835.961426</ele>
<time>2012-04-29T15:00:00Z</time>
<desc>lat.=43.158958, lon.=19.292677, Alt.=835.961426m. Speed=0.000000m/h.</desc>
<speed>0.000000</speed>
</trkpt>
<trkpt lat="43.158958" lon="19.292677">
<ele>835.961426</ele>
<time>2012-04-29T15:00:05Z</time>
<desc>lat.=43.158958, lon.=19.292677, Alt.=835.961426m. Speed=0.000000m/h.</desc>
<speed>0.000000</speed>
</trkpt>
<trkpt lat="43.158958" lon="19.292677">
<ele>835.961426</ele>
<time>2012-04-29T15:00:10Z</time>
<desc>lat.=43.158958, lon.=19.292677, Alt.=835.961426m. Speed=0.000000m/h.</desc>
<speed>0.000000</speed>
</trkpt>
<trkpt lat="43.158958" lon="19.292677">
<ele>835.961426</ele>
<time>2012-04-29T15:00:15Z</time>
<desc>lat.=43.158958, lon.=19.292677, Alt.=835.961426m. Speed=0.036000m/h.</desc>
<speed>0.010000</speed>
</trkpt>
<trkpt lat="43.158962" lon="19.292677">
<ele>835.961426</ele>
<time>2012-04-29T15:00:20Z</time>
<desc>lat.=43.158962, lon.=19.292677, Alt.=835.961426m. Speed=0.000000m/h.</desc>
<speed>0.000000</speed>
</trkpt>
<trkpt lat="43.158962" lon="19.292677">
<ele>835.961426</ele>
<time>2012-04-29T15:00:25Z</time>
<desc>lat.=43.158962, lon.=19.292677, Alt.=835.961426m. Speed=0.000000m/h.</desc>
<speed>0.000000</speed>
</trkpt>
<trkpt lat="43.158962" lon="19.292677">
<ele>835.945801</ele>
<time>2012-04-29T15:00:30Z</time>
<desc>lat.=43.158962, lon.=19.292677, Alt.=835.945801m. Speed=0.000000m/h.</desc>
<speed>0.000000</speed>
</trkpt>
<trkpt lat="43.158962" lon="19.292677">
<ele>835.945801</ele>
<time>2012-04-29T15:00:35Z</time>
<desc>lat.=43.158962, lon.=19.292677, Alt.=835.945801m. Speed=0.000000m/h.</desc>
<speed>0.000000</speed>
</trkpt>
<trkpt lat="43.158962" lon="19.292679">
<ele>835.945801</ele>
<time>2012-04-29T15:00:40Z</time>
<desc>lat.=43.158962, lon.=19.292679, Alt.=835.945801m. Speed=0.036000m/h.</desc>
<speed>0.010000</speed>
</trkpt>
<trkpt lat="43.158962" lon="19.292679">
<ele>835.945801</ele>
<time>2012-04-29T15:00:45Z</time>
<desc>lat.=43.158962, lon.=19.292679, Alt.=835.945801m. Speed=0.000000m/h.</desc>
<speed>0.000000</speed>
</trkpt>
<trkpt lat="43.158962" lon="19.292679">
<ele>835.945801</ele>
<time>2012-04-29T15:00:50Z</time>
<desc>lat.=43.158962, lon.=19.292679, Alt.=835.945801m. Speed=0.036000m/h.</desc>
<speed>0.010000</speed>
</trkpt>
<trkpt lat="43.158962" lon="19.292679">
<ele>835.945801</ele>
<time>2012-04-29T15:00:55Z</time>
<desc>lat.=43.158962, lon.=19.292679, Alt.=835.945801m. Speed=0.000000m/h.</desc>
<speed>0.000000</speed>
</trkpt>
<trkpt lat="43.158962" lon="19.292679">
<ele>835.961426</ele>
<time>2012-04-29T15:01:00Z</time>
<desc>lat.=43.158962, lon.=19.292679, Alt.=835.961426m. Speed=0.000000m/h.</desc>
<speed>0.000000</speed>
</trkpt>
<trkpt lat="43.158962" lon="19.292679">
<ele>835.961426</ele>
<time>2012-04-29T15:01:05Z</time>
<desc>lat.=43.158962, lon.=19.292679, Alt.=835.961426m. Speed=0.000000m/h.</desc>
<speed>0.000000</speed>
</trkpt>
<trkpt lat="43.158962" lon="19.292679">
<ele>835.961426</ele>
<time>2012-04-29T15:01:10Z</time>
<desc>lat.=43.158962, lon.=19.292679, Alt.=835.961426m. Speed=0.072000m/h.</desc>
<speed>0.020000</speed>
</trkpt>
<trkpt lat="43.158962" lon="19.292679">
<ele>835.961426</ele>
<time>2012-04-29T15:01:15Z</time>
<desc>lat.=43.158962, lon.=19.292679, Alt.=835.961426m. Speed=0.000000m/h.</desc>
<speed>0.000000</speed>
</trkpt>
<trkpt lat="43.158962" lon="19.292679">
<ele>835.961426</ele>
<time>2012-04-29T15:01:20Z</time>
<desc>lat.=43.158962, lon.=19.292679, Alt.=835.961426m. Speed=0.000000m/h.</desc>
<speed>0.000000</speed>
</trkpt>
<trkpt lat="43.158962" lon="19.292679">
<ele>835.945801</ele>
<time>2012-04-29T15:01:25Z</time>
<desc>lat.=43.158962, lon.=19.292679, Alt.=835.945801m. Speed=0.036000m/h.</desc>
<speed>0.010000</speed>
</trkpt>
<trkpt lat="43.158962" lon="19.292679">
<ele>835.945801</ele>
<time>2012-04-29T15:01:30Z</time>
<desc>lat.=43.158962, lon.=19.292679, Alt.=835.945801m. Speed=0.000000m/h.</desc>
<speed>0.000000</speed>
</trkpt>
<trkpt lat="43.158962" lon="19.292679">
<ele>835.945801</ele>
<time>2012-04-29T15:01:35Z</time>
<desc>lat.=43.158962, lon.=19.292679, Alt.=835.945801m. Speed=0.000000m/h.</desc>
<speed>0.000000</speed>
</trkpt>
<trkpt lat="43.158962" lon="19.292679">
<ele>835.945801</ele>
<time>2012-04-29T15:01:40Z</time>
<desc>lat.=43.158962, lon.=19.292679, Alt.=835.945801m. Speed=0.036000m/h.</desc>
<speed>0.010000</speed>
</trkpt>
<trkpt lat="43.158962" lon="19.292679">
<ele>835.945801</ele>
<time>2012-04-29T15:01:45Z</time>
<desc>lat.=43.158962, lon.=19.292679, Alt.=835.945801m. Speed=0.036000m/h.</desc>
<speed>0.010000</speed>
</trkpt>
<trkpt lat="43.158962" lon="19.292679">
<ele>835.930176</ele>
<time>2012-04-29T15:01:50Z</time>
<desc>lat.=43.158962, lon.=19.292679, Alt.=835.930176m. Speed=0.036000m/h.</desc>
<speed>0.010000</speed>
</trkpt>
<trkpt lat="43.158962" lon="19.292679">
<ele>835.914551</ele>
<time>2012-04-29T15:01:55Z</time>
<desc>lat.=43.158962, lon.=19.292679, Alt.=835.914551m. Speed=0.036000m/h.</desc>
<speed>0.010000</speed>
</trkpt>
<trkpt lat="43.158962" lon="19.292679">
<ele>835.914551</ele>
<time>2012-04-29T15:02:00Z</time>
<desc>lat.=43.158962, lon.=19.292679, Alt.=835.914551m. Speed=0.072000m/h.</desc>
<speed>0.020000</speed>
</trkpt>
<trkpt lat="43.158962" lon="19.292679">
<ele>835.898926</ele>
<time>2012-04-29T15:02:05Z</time>
<desc>lat.=43.158962, lon.=19.292679, Alt.=835.898926m. Speed=0.036000m/h.</desc>
<speed>0.010000</speed>
</trkpt>
<trkpt lat="43.158962" lon="19.292679">
<ele>835.883301</ele>
<time>2012-04-29T15:02:10Z</time>
<desc>lat.=43.158962, lon.=19.292679, Alt.=835.883301m. Speed=0.000000m/h.</desc>
<speed>0.000000</speed>
</trkpt>
<trkpt lat="43.158962" lon="19.292679">
<ele>835.883301</ele>
<time>2012-04-29T15:02:15Z</time>
<desc>lat.=43.158962, lon.=19.292679, Alt.=835.883301m. Speed=0.000000m/h.</desc>
<speed>0.000000</speed>
</trkpt>
<trkpt lat="43.158962" lon="19.292679">
<ele>835.883301</ele>
<time>2012-04-29T15:02:20Z</time>
<desc>lat.=43.158962, lon.=19.292679, Alt.=835.883301m. Speed=0.036000m/h.</desc>
<speed>0.010000</speed>
</trkpt>
<trkpt lat="43.158962" lon="19.292679">
<ele>835.898926</ele>
<time>2012-04-29T15:02:25Z</time>
<desc>lat.=43.158962, lon.=19.292679, Alt.=835.898926m. Speed=0.000000m/h.</desc>
<speed>0.000000</speed>
</trkpt>
<trkpt lat="43.158962" lon="19.292679">
<ele>835.898926</ele>
<time>2012-04-29T15:02:30Z</time>
<desc>lat.=43.158962, lon.=19.292679, Alt.=835.898926m. Speed=0.000000m/h.</desc>
<speed>0.000000</speed>
</trkpt>
<trkpt lat="43.158962" lon="19.292679">
<ele>835.898926</ele>
<time>2012-04-29T15:02:35Z</time>
<desc>lat.=43.158962, lon.=19.292679, Alt.=835.898926m. Speed=0.000000m/h.</desc>
<speed>0.000000</speed>
</trkpt>
<trkpt lat="43.158962" lon="19.292679">
<ele>835.883301</ele>
<time>2012-04-29T15:02:40Z</time>
<desc>lat.=43.158962, lon.=19.292679, Alt.=835.883301m. Speed=0.072000m/h.</desc>
<speed>0.020000</speed>
</trkpt>
<trkpt lat="43.158962" lon="19.292681">
<ele>835.867676</ele>
<time>2012-04-29T15:02:45Z</time>
<desc>lat.=43.158962, lon.=19.292681, Alt.=835.867676m. Speed=0.000000m/h.</desc>
<speed>0.000000</speed>
</trkpt>
<trkpt lat="43.158962" lon="19.292681">
<ele>835.852051</ele>
<time>2012-04-29T15:02:50Z</time>
<desc>lat.=43.158962, lon.=19.292681, Alt.=835.852051m. Speed=0.000000m/h.</desc>
<speed>0.000000</speed>
</trkpt>
<trkpt lat="43.158962" lon="19.292681">
<ele>835.836426</ele>
<time>2012-04-29T15:02:55Z</time>
<desc>lat.=43.158962, lon.=19.292681, Alt.=835.836426m. Speed=0.000000m/h.</desc>
<speed>0.000000</speed>
</trkpt>
<trkpt lat="43.158962" lon="19.292681">
<ele>835.836426</ele>
<time>2012-04-29T15:03:00Z</time>
<desc>lat.=43.158962, lon.=19.292681, Alt.=835.836426m. Speed=0.000000m/h.</desc>
<speed>0.000000</speed>
</trkpt>
<trkpt lat="43.158962" lon="19.292681">
<ele>835.820801</ele>
<time>2012-04-29T15:03:05Z</time>
<desc>lat.=43.158962, lon.=19.292681, Alt.=835.820801m. Speed=0.000000m/h.</desc>
<speed>0.000000</speed>
</trkpt>
<trkpt lat="43.158962" lon="19.292681">
<ele>835.805176</ele>
<time>2012-04-29T15:03:10Z</time>
<desc>lat.=43.158962, lon.=19.292681, Alt.=835.805176m. Speed=0.000000m/h.</desc>
<speed>0.000000</speed>
</trkpt>
<trkpt lat="43.158962" lon="19.292681">
<ele>835.805176</ele>
<time>2012-04-29T15:03:15Z</time>
<desc>lat.=43.158962, lon.=19.292681, Alt.=835.805176m. Speed=0.000000m/h.</desc>
<speed>0.000000</speed>
</trkpt>
<trkpt lat="43.158962" lon="19.292681">
<ele>835.789551</ele>
<time>2012-04-29T15:03:20Z</time>
<desc>lat.=43.158962, lon.=19.292681, Alt.=835.789551m. Speed=0.000000m/h.</desc>
<speed>0.000000</speed>
</trkpt>
<trkpt lat="43.158962" lon="19.292681">
<ele>835.773926</ele>
<time>2012-04-29T15:03:25Z</time>
<desc>lat.=43.158962, lon.=19.292681, Alt.=835.773926m. Speed=0.036000m/h.</desc>
<speed>0.010000</speed>
</trkpt>
<trkpt lat="43.158962" lon="19.292681">
<ele>835.758301</ele>
<time>2012-04-29T15:03:30Z</time>
<desc>lat.=43.158962, lon.=19.292681, Alt.=835.758301m. Speed=0.000000m/h.</desc>
<speed>0.000000</speed>
</trkpt>
<trkpt lat="43.158962" lon="19.292681">
<ele>835.742676</ele>
<time>2012-04-29T15:03:35Z</time>
<desc>lat.=43.158962, lon.=19.292681, Alt.=835.742676m. Speed=0.000000m/h.</desc>
<speed>0.000000</speed>
</trkpt>
<trkpt lat="43.158962" lon="19.292681">
<ele>835.727051</ele>
<time>2012-04-29T15:03:40Z</time>
<desc>lat.=43.158962, lon.=19.292681, Alt.=835.727051m. Speed=0.000000m/h.</desc>
<speed>0.000000</speed>
</trkpt>
<trkpt lat="43.158962" lon="19.292679">
<ele>835.711426</ele>
<time>2012-04-29T15:03:45Z</time>
<desc>lat.=43.158962, lon.=19.292679, Alt.=835.711426m. Speed=0.036000m/h.</desc>
<speed>0.010000</speed>
</trkpt>
<trkpt lat="43.158962" lon="19.292679">
<ele>835.695801</ele>
<time>2012-04-29T15:03:50Z</time>
<desc>lat.=43.158962, lon.=19.292679, Alt.=835.695801m. Speed=0.000000m/h.</desc>
<speed>0.000000</speed>
</trkpt>
<trkpt lat="43.158962" lon="19.292679">
<ele>835.680176</ele>
<time>2012-04-29T15:03:55Z</time>
<desc>lat.=43.158962, lon.=19.292679, Alt.=835.680176m. Speed=0.036000m/h.</desc>
<speed>0.010000</speed>
</trkpt>
<trkpt lat="43.158962" lon="19.292681">
<ele>835.664551</ele>
<time>2012-04-29T15:04:00Z</time>
<desc>lat.=43.158962, lon.=19.292681, Alt.=835.664551m. Speed=0.036000m/h.</desc>
<speed>0.010000</speed>
</trkpt>
<trkpt lat="43.158962" lon="19.292681">
<ele>835.633301</ele>
<time>2012-04-29T15:04:05Z</time>
<desc>lat.=43.158962, lon.=19.292681, Alt.=835.633301m. Speed=0.036000m/h.</desc>
<speed>0.010000</speed>
</trkpt>
<trkpt lat="43.158962" lon="19.292681">
<ele>835.648926</ele>
<time>2012-04-29T15:04:10Z</time>
<desc>lat.=43.158962, lon.=19.292681, Alt.=835.648926m. Speed=0.036000m/h.</desc>
<speed>0.010000</speed>
</trkpt>
<trkpt lat="43.158962" lon="19.292681">
<ele>835.648926</ele>
<time>2012-04-29T15:04:15Z</time>
<desc>lat.=43.158962, lon.=19.292681, Alt.=835.648926m. Speed=0.108000m/h.</desc>
<speed>0.030000</speed>
</trkpt>
<trkpt lat="43.158962" lon="19.292679">
<ele>835.648926</ele>
<time>2012-04-29T15:04:20Z</time>
<desc>lat.=43.158962, lon.=19.292679, Alt.=835.648926m. Speed=0.000000m/h.</desc>
<speed>0.000000</speed>
</trkpt>
<trkpt lat="43.158962" lon="19.292679">
<ele>835.633301</ele>
<time>2012-04-29T15:04:25Z</time>
<desc>lat.=43.158962, lon.=19.292679, Alt.=835.633301m. Speed=0.000000m/h.</desc>
<speed>0.000000</speed>
</trkpt>
<trkpt lat="43.158962" lon="19.292679">
<ele>835.633301</ele>
<time>2012-04-29T15:04:30Z</time>
<desc>lat.=43.158962, lon.=19.292679, Alt.=835.633301m. Speed=0.000000m/h.</desc>
<speed>0.000000</speed>
</trkpt>
<trkpt lat="43.158962" lon="19.292681">
<ele>835.648926</ele>
<time>2012-04-29T15:04:35Z</time>
<desc>lat.=43.158962, lon.=19.292681, Alt.=835.648926m. Speed=0.000000m/h.</desc>
<speed>0.000000</speed>
</trkpt>
<trkpt lat="43.158962" lon="19.292681">
<ele>835.664551</ele>
<time>2012-04-29T15:04:40Z</time>
<desc>lat.=43.158962, lon.=19.292681, Alt.=835.664551m. Speed=0.072000m/h.</desc>
<speed>0.020000</speed>
</trkpt>
<trkpt lat="43.158962" lon="19.292681">
<ele>835.664551</ele>
<time>2012-04-29T15:04:45Z</time>
<desc>lat.=43.158962, lon.=19.292681, Alt.=835.664551m. Speed=0.036000m/h.</desc>
<speed>0.010000</speed>
</trkpt>
<trkpt lat="43.158962" lon="19.292681">
<ele>835.664551</ele>
<time>2012-04-29T15:04:50Z</time>
<desc>lat.=43.158962, lon.=19.292681, Alt.=835.664551m. Speed=0.072000m/h.</desc>
<speed>0.020000</speed>
</trkpt>
<trkpt lat="43.158962" lon="19.292681">
<ele>835.664551</ele>
<time>2012-04-29T15:04:55Z</time>
<desc>lat.=43.158962, lon.=19.292681, Alt.=835.664551m. Speed=0.072000m/h.</desc>
<speed>0.020000</speed>
</trkpt>
<trkpt lat="43.158962" lon="19.292681">
<ele>835.680176</ele>
<time>2012-04-29T15:05:00Z</time>
<desc>lat.=43.158962, lon.=19.292681, Alt.=835.680176m. Speed=0.000000m/h.</desc>
<speed>0.000000</speed>
</trkpt>
<trkpt lat="43.158962" lon="19.292681">
<ele>835.680176</ele>
<time>2012-04-29T15:05:05Z</time>
<desc>lat.=43.158962, lon.=19.292681, Alt.=835.680176m. Speed=0.036000m/h.</desc>
<speed>0.010000</speed>
</trkpt>
<trkpt lat="43.158962" lon="19.292681">
<ele>835.680176</ele>
<time>2012-04-29T15:05:10Z</time>
<desc>lat.=43.158962, lon.=19.292681, Alt.=835.680176m. Speed=0.072000m/h.</desc>
<speed>0.020000</speed>
</trkpt>
<trkpt lat="43.158962" lon="19.292681">
<ele>835.664551</ele>
<time>2012-04-29T15:05:15Z</time>
<desc>lat.=43.158962, lon.=19.292681, Alt.=835.664551m. Speed=0.108000m/h.</desc>
<speed>0.030000</speed>
</trkpt>
<trkpt lat="43.158962" lon="19.292683">
<ele>835.664551</ele>
<time>2012-04-29T15:05:20Z</time>
<desc>lat.=43.158962, lon.=19.292683, Alt.=835.664551m. Speed=0.000000m/h.</desc>
<speed>0.000000</speed>
</trkpt>
<trkpt lat="43.158962" lon="19.292683">
<ele>835.664551</ele>
<time>2012-04-29T15:05:25Z</time>
<desc>lat.=43.158962, lon.=19.292683, Alt.=835.664551m. Speed=0.000000m/h.</desc>
<speed>0.000000</speed>
</trkpt>
<trkpt lat="43.158962" lon="19.292683">
<ele>835.680176</ele>
<time>2012-04-29T15:05:30Z</time>
<desc>lat.=43.158962, lon.=19.292683, Alt.=835.680176m. Speed=0.036000m/h.</desc>
<speed>0.010000</speed>
</trkpt>
<trkpt lat="43.158962" lon="19.292683">
<ele>835.695801</ele>
<time>2012-04-29T15:05:35Z</time>
<desc>lat.=43.158962, lon.=19.292683, Alt.=835.695801m. Speed=0.036000m/h.</desc>
<speed>0.010000</speed>
</trkpt>
<trkpt lat="43.158962" lon="19.292683">
<ele>835.711426</ele>
<time>2012-04-29T15:05:40Z</time>
<desc>lat.=43.158962, lon.=19.292683, Alt.=835.711426m. Speed=0.000000m/h.</desc>
<speed>0.000000</speed>
</trkpt>
<trkpt lat="43.158962" lon="19.292683">
<ele>835.727051</ele>
<time>2012-04-29T15:05:45Z</time>
<desc>lat.=43.158962, lon.=19.292683, Alt.=835.727051m. Speed=0.072000m/h.</desc>
<speed>0.020000</speed>
</trkpt>
<trkpt lat="43.158966" lon="19.292683">
<ele>835.742676</ele>
<time>2012-04-29T15:05:50Z</time>
<desc>lat.=43.158966, lon.=19.292683, Alt.=835.742676m. Speed=0.036000m/h.</desc>
<speed>0.010000</speed>
</trkpt>
<trkpt lat="43.158966" lon="19.292685">
<ele>835.742676</ele>
<time>2012-04-29T15:05:55Z</time>
<desc>lat.=43.158966, lon.=19.292685, Alt.=835.742676m. Speed=0.108000m/h.</desc>
<speed>0.030000</speed>
</trkpt>
<trkpt lat="43.158966" lon="19.292685">
<ele>835.711426</ele>
<time>2012-04-29T15:06:00Z</time>
<desc>lat.=43.158966, lon.=19.292685, Alt.=835.711426m. Speed=0.360000m/h.</desc>
<speed>0.100000</speed>
</trkpt>
<trkpt lat="43.158970" lon="19.292685">
<ele>835.695801</ele>
<time>2012-04-29T15:06:05Z</time>
<desc>lat.=43.158970, lon.=19.292685, Alt.=835.695801m. Speed=0.072000m/h.</desc>
<speed>0.020000</speed>
</trkpt>
<trkpt lat="43.158970" lon="19.292685">
<ele>835.711426</ele>
<time>2012-04-29T15:06:10Z</time>
<desc>lat.=43.158970, lon.=19.292685, Alt.=835.711426m. Speed=0.000000m/h.</desc>
<speed>0.000000</speed>
</trkpt>
<trkpt lat="43.158970" lon="19.292685">
<ele>835.711426</ele>
<time>2012-04-29T15:06:15Z</time>
<desc>lat.=43.158970, lon.=19.292685, Alt.=835.711426m. Speed=0.036000m/h.</desc>
<speed>0.010000</speed>
</trkpt>
<trkpt lat="43.158970" lon="19.292685">
<ele>835.711426</ele>
<time>2012-04-29T15:06:20Z</time>
<desc>lat.=43.158970, lon.=19.292685, Alt.=835.711426m. Speed=0.036000m/h.</desc>
<speed>0.010000</speed>
</trkpt>
<trkpt lat="43.158970" lon="19.292686">
<ele>835.727051</ele>
<time>2012-04-29T15:06:25Z</time>
<desc>lat.=43.158970, lon.=19.292686, Alt.=835.727051m. Speed=0.072000m/h.</desc>
<speed>0.020000</speed>
</trkpt>
<trkpt lat="43.158970" lon="19.292686">
<ele>835.742676</ele>
<time>2012-04-29T15:06:30Z</time>
<desc>lat.=43.158970, lon.=19.292686, Alt.=835.742676m. Speed=0.036000m/h.</desc>
<speed>0.010000</speed>
</trkpt>
<trkpt lat="43.158970" lon="19.292685">
<ele>835.789551</ele>
<time>2012-04-29T15:06:35Z</time>
<desc>lat.=43.158970, lon.=19.292685, Alt.=835.789551m. Speed=0.072000m/h.</desc>
<speed>0.020000</speed>
</trkpt>
<trkpt lat="43.158970" lon="19.292685">
<ele>835.820801</ele>
<time>2012-04-29T15:06:40Z</time>
<desc>lat.=43.158970, lon.=19.292685, Alt.=835.820801m. Speed=0.072000m/h.</desc>
<speed>0.020000</speed>
</trkpt>
<trkpt lat="43.158970" lon="19.292685">
<ele>835.820801</ele>
<time>2012-04-29T15:06:45Z</time>
<desc>lat.=43.158970, lon.=19.292685, Alt.=835.820801m. Speed=0.000000m/h.</desc>
<speed>0.000000</speed>
</trkpt>
<trkpt lat="43.158970" lon="19.292685">
<ele>835.820801</ele>
<time>2012-04-29T15:06:50Z</time>
<desc>lat.=43.158970, lon.=19.292685, Alt.=835.820801m. Speed=0.036000m/h.</desc>
<speed>0.010000</speed>
</trkpt>
<trkpt lat="43.158970" lon="19.292685">
<ele>835.820801</ele>
<time>2012-04-29T15:06:55Z</time>
<desc>lat.=43.158970, lon.=19.292685, Alt.=835.820801m. Speed=0.072000m/h.</desc>
<speed>0.020000</speed>
</trkpt>
<trkpt lat="43.158970" lon="19.292685">
<ele>835.789551</ele>
<time>2012-04-29T15:07:00Z</time>
<desc>lat.=43.158970, lon.=19.292685, Alt.=835.789551m. Speed=0.072000m/h.</desc>
<speed>0.020000</speed>
</trkpt>
<trkpt lat="43.158970" lon="19.292685">
<ele>835.789551</ele>
<time>2012-04-29T15:07:05Z</time>
<desc>lat.=43.158970, lon.=19.292685, Alt.=835.789551m. Speed=0.000000m/h.</desc>
<speed>0.000000</speed>
</trkpt>
<trkpt lat="43.158970" lon="19.292685">
<ele>835.789551</ele>
<time>2012-04-29T15:07:10Z</time>
<desc>lat.=43.158970, lon.=19.292685, Alt.=835.789551m. Speed=0.072000m/h.</desc>
<speed>0.020000</speed>
</trkpt>
<trkpt lat="43.158974" lon="19.292685">
<ele>835.805176</ele>
<time>2012-04-29T15:07:15Z</time>
<desc>lat.=43.158974, lon.=19.292685, Alt.=835.805176m. Speed=0.072000m/h.</desc>
<speed>0.020000</speed>
</trkpt>
<trkpt lat="43.158974" lon="19.292685">
<ele>835.789551</ele>
<time>2012-04-29T15:07:20Z</time>
<desc>lat.=43.158974, lon.=19.292685, Alt.=835.789551m. Speed=0.000000m/h.</desc>
<speed>0.000000</speed>
</trkpt>
<trkpt lat="43.158974" lon="19.292685">
<ele>835.805176</ele>
<time>2012-04-29T15:07:25Z</time>
<desc>lat.=43.158974, lon.=19.292685, Alt.=835.805176m. Speed=0.036000m/h.</desc>
<speed>0.010000</speed>
</trkpt>
<trkpt lat="43.158974" lon="19.292685">
<ele>835.820801</ele>
<time>2012-04-29T15:07:30Z</time>
<desc>lat.=43.158974, lon.=19.292685, Alt.=835.820801m. Speed=0.000000m/h.</desc>
<speed>0.000000</speed>
</trkpt>
<trkpt lat="43.158974" lon="19.292685">
<ele>835.836426</ele>
<time>2012-04-29T15:07:35Z</time>
<desc>lat.=43.158974, lon.=19.292685, Alt.=835.836426m. Speed=0.072000m/h.</desc>
<speed>0.020000</speed>
</trkpt>
<trkpt lat="43.158974" lon="19.292685">
<ele>835.883301</ele>
<time>2012-04-29T15:07:40Z</time>
<desc>lat.=43.158974, lon.=19.292685, Alt.=835.883301m. Speed=0.000000m/h.</desc>
<speed>0.000000</speed>
</trkpt>
<trkpt lat="43.158974" lon="19.292685">
<ele>835.898926</ele>
<time>2012-04-29T15:07:45Z</time>
<desc>lat.=43.158974, lon.=19.292685, Alt.=835.898926m. Speed=0.000000m/h.</desc>
<speed>0.000000</speed>
</trkpt>
<trkpt lat="43.158974" lon="19.292685">
<ele>835.898926</ele>
<time>2012-04-29T15:07:50Z</time>
<desc>lat.=43.158974, lon.=19.292685, Alt.=835.898926m. Speed=0.000000m/h.</desc>
<speed>0.000000</speed>
</trkpt>
<trkpt lat="43.158974" lon="19.292685">
<ele>835.914551</ele>
<time>2012-04-29T15:07:55Z</time>
<desc>lat.=43.158974, lon.=19.292685, Alt.=835.914551m. Speed=0.036000m/h.</desc>
<speed>0.010000</speed>
</trkpt>
<trkpt lat="43.158974" lon="19.292685">
<ele>835.945801</ele>
<time>2012-04-29T15:08:00Z</time>
<desc>lat.=43.158974, lon.=19.292685, Alt.=835.945801m. Speed=0.036000m/h.</desc>
<speed>0.010000</speed>
</trkpt>
<trkpt lat="43.158974" lon="19.292685">
<ele>835.961426</ele>
<time>2012-04-29T15:08:05Z</time>
<desc>lat.=43.158974, lon.=19.292685, Alt.=835.961426m. Speed=0.000000m/h.</desc>
<speed>0.000000</speed>
</trkpt>
<trkpt lat="43.158974" lon="19.292685">
<ele>835.977051</ele>
<time>2012-04-29T15:08:10Z</time>
<desc>lat.=43.158974, lon.=19.292685, Alt.=835.977051m. Speed=0.000000m/h.</desc>
<speed>0.000000</speed>
</trkpt>
<trkpt lat="43.158974" lon="19.292685">
<ele>835.992676</ele>
<time>2012-04-29T15:08:15Z</time>
<desc>lat.=43.158974, lon.=19.292685, Alt.=835.992676m. Speed=0.000000m/h.</desc>
<speed>0.000000</speed>
</trkpt>
<trkpt lat="43.158974" lon="19.292685">
<ele>835.992676</ele>
<time>2012-04-29T15:08:20Z</time>
<desc>lat.=43.158974, lon.=19.292685, Alt.=835.992676m. Speed=0.036000m/h.</desc>
<speed>0.010000</speed>
</trkpt>
<trkpt lat="43.158974" lon="19.292686">
<ele>836.008301</ele>
<time>2012-04-29T15:08:25Z</time>
<desc>lat.=43.158974, lon.=19.292686, Alt.=836.008301m. Speed=0.036000m/h.</desc>
<speed>0.010000</speed>
</trkpt>
<trkpt lat="43.158974" lon="19.292686">
<ele>836.023926</ele>
<time>2012-04-29T15:08:30Z</time>
<desc>lat.=43.158974, lon.=19.292686, Alt.=836.023926m. Speed=0.000000m/h.</desc>
<speed>0.000000</speed>
</trkpt>
<trkpt lat="43.158974" lon="19.292686">
<ele>836.023926</ele>
<time>2012-04-29T15:08:35Z</time>
<desc>lat.=43.158974, lon.=19.292686, Alt.=836.023926m. Speed=0.036000m/h.</desc>
<speed>0.010000</speed>
</trkpt>
<trkpt lat="43.158974" lon="19.292686">
<ele>836.023926</ele>
<time>2012-04-29T15:08:40Z</time>
<desc>lat.=43.158974, lon.=19.292686, Alt.=836.023926m. Speed=0.036000m/h.</desc>
<speed>0.010000</speed>
</trkpt>
<trkpt lat="43.158974" lon="19.292686">
<ele>836.039551</ele>
<time>2012-04-29T15:08:45Z</time>
<desc>lat.=43.158974, lon.=19.292686, Alt.=836.039551m. Speed=0.036000m/h.</desc>
<speed>0.010000</speed>
</trkpt>
<trkpt lat="43.158974" lon="19.292686">
<ele>836.055176</ele>
<time>2012-04-29T15:08:50Z</time>
<desc>lat.=43.158974, lon.=19.292686, Alt.=836.055176m. Speed=0.000000m/h.</desc>
<speed>0.000000</speed>
</trkpt>
<trkpt lat="43.158974" lon="19.292686">
<ele>836.070801</ele>
<time>2012-04-29T15:08:55Z</time>
<desc>lat.=43.158974, lon.=19.292686, Alt.=836.070801m. Speed=0.000000m/h.</desc>
<speed>0.000000</speed>
</trkpt>
<trkpt lat="43.158974" lon="19.292686">
<ele>836.086426</ele>
<time>2012-04-29T15:09:00Z</time>
<desc>lat.=43.158974, lon.=19.292686, Alt.=836.086426m. Speed=0.036000m/h.</desc>
<speed>0.010000</speed>
</trkpt>
<trkpt lat="43.158974" lon="19.292686">
<ele>836.086426</ele>
<time>2012-04-29T15:09:05Z</time>
<desc>lat.=43.158974, lon.=19.292686, Alt.=836.086426m. Speed=0.000000m/h.</desc>
<speed>0.000000</speed>
</trkpt>
<trkpt lat="43.158974" lon="19.292686">
<ele>836.102051</ele>
<time>2012-04-29T15:09:10Z</time>
<desc>lat.=43.158974, lon.=19.292686, Alt.=836.102051m. Speed=0.252000m/h.</desc>
<speed>0.070000</speed>
</trkpt>
<trkpt lat="43.158970" lon="19.292686">
<ele>836.117676</ele>
<time>2012-04-29T15:09:15Z</time>
<desc>lat.=43.158970, lon.=19.292686, Alt.=836.117676m. Speed=0.144000m/h.</desc>
<speed>0.040000</speed>
</trkpt>
<trkpt lat="43.158970" lon="19.292686">
<ele>836.117676</ele>
<time>2012-04-29T15:09:20Z</time>
<desc>lat.=43.158970, lon.=19.292686, Alt.=836.117676m. Speed=0.036000m/h.</desc>
<speed>0.010000</speed>
</trkpt>
<trkpt lat="43.158970" lon="19.292686">
<ele>836.102051</ele>
<time>2012-04-29T15:09:25Z</time>
<desc>lat.=43.158970, lon.=19.292686, Alt.=836.102051m. Speed=0.000000m/h.</desc>
<speed>0.000000</speed>
</trkpt>
<trkpt lat="43.158970" lon="19.292686">
<ele>836.117676</ele>
<time>2012-04-29T15:09:30Z</time>
<desc>lat.=43.158970, lon.=19.292686, Alt.=836.117676m. Speed=0.288000m/h.</desc>
<speed>0.080000</speed>
</trkpt>
<trkpt lat="43.158970" lon="19.292686">
<ele>836.102051</ele>
<time>2012-04-29T15:09:35Z</time>
<desc>lat.=43.158970, lon.=19.292686, Alt.=836.102051m. Speed=0.000000m/h.</desc>
<speed>0.000000</speed>
</trkpt>
<trkpt lat="43.158970" lon="19.292686">
<ele>836.102051</ele>
<time>2012-04-29T15:09:40Z</time>
<desc>lat.=43.158970, lon.=19.292686, Alt.=836.102051m. Speed=0.000000m/h.</desc>
<speed>0.000000</speed>
</trkpt>
<trkpt lat="43.158970" lon="19.292686">
<ele>836.102051</ele>
<time>2012-04-29T15:09:45Z</time>
<desc>lat.=43.158970, lon.=19.292686, Alt.=836.102051m. Speed=0.072000m/h.</desc>
<speed>0.020000</speed>
</trkpt>
<trkpt lat="43.158970" lon="19.292686">
<ele>836.102051</ele>
<time>2012-04-29T15:09:50Z</time>
<desc>lat.=43.158970, lon.=19.292686, Alt.=836.102051m. Speed=0.000000m/h.</desc>
<speed>0.000000</speed>
</trkpt>
<trkpt lat="43.158970" lon="19.292686">
<ele>836.102051</ele>
<time>2012-04-29T15:09:55Z</time>
<desc>lat.=43.158970, lon.=19.292686, Alt.=836.102051m. Speed=0.036000m/h.</desc>
<speed>0.010000</speed>
</trkpt>
<trkpt lat="43.158970" lon="19.292686">
<ele>836.102051</ele>
<time>2012-04-29T15:10:00Z</time>
<desc>lat.=43.158970, lon.=19.292686, Alt.=836.102051m. Speed=0.036000m/h.</desc>
<speed>0.010000</speed>
</trkpt>
<trkpt lat="43.158970" lon="19.292688">
<ele>836.086426</ele>
<time>2012-04-29T15:10:05Z</time>
<desc>lat.=43.158970, lon.=19.292688, Alt.=836.086426m. Speed=0.072000m/h.</desc>
<speed>0.020000</speed>
</trkpt>
<trkpt lat="43.158970" lon="19.292688">
<ele>836.070801</ele>
<time>2012-04-29T15:10:10Z</time>
<desc>lat.=43.158970, lon.=19.292688, Alt.=836.070801m. Speed=0.000000m/h.</desc>
<speed>0.000000</speed>
</trkpt>
<trkpt lat="43.158974" lon="19.292688">
<ele>836.055176</ele>
<time>2012-04-29T15:10:15Z</time>
<desc>lat.=43.158974, lon.=19.292688, Alt.=836.055176m. Speed=0.108000m/h.</desc>
<speed>0.030000</speed>
</trkpt>
<trkpt lat="43.158974" lon="19.292688">
<ele>836.070801</ele>
<time>2012-04-29T15:10:20Z</time>
<desc>lat.=43.158974, lon.=19.292688, Alt.=836.070801m. Speed=0.072000m/h.</desc>
<speed>0.020000</speed>
</trkpt>
<trkpt lat="43.158974" lon="19.292688">
<ele>836.086426</ele>
<time>2012-04-29T15:10:25Z</time>
<desc>lat.=43.158974, lon.=19.292688, Alt.=836.086426m. Speed=0.036000m/h.</desc>
<speed>0.010000</speed>
</trkpt>
<trkpt lat="43.158970" lon="19.292688">
<ele>836.102051</ele>
<time>2012-04-29T15:10:30Z</time>
<desc>lat.=43.158970, lon.=19.292688, Alt.=836.102051m. Speed=0.000000m/h.</desc>
<speed>0.000000</speed>
</trkpt>
<trkpt lat="43.158970" lon="19.292688">
<ele>836.117676</ele>
<time>2012-04-29T15:10:35Z</time>
<desc>lat.=43.158970, lon.=19.292688, Alt.=836.117676m. Speed=0.360000m/h.</desc>
<speed>0.100000</speed>
</trkpt>
<trkpt lat="43.158970" lon="19.292688">
<ele>836.086426</ele>
<time>2012-04-29T15:10:40Z</time>
<desc>lat.=43.158970, lon.=19.292688, Alt.=836.086426m. Speed=0.072000m/h.</desc>
<speed>0.020000</speed>
</trkpt>
<trkpt lat="43.158970" lon="19.292688">
<ele>836.070801</ele>
<time>2012-04-29T15:10:45Z</time>
<desc>lat.=43.158970, lon.=19.292688, Alt.=836.070801m. Speed=0.000000m/h.</desc>
<speed>0.000000</speed>
</trkpt>
<trkpt lat="43.158970" lon="19.292688">
<ele>836.039551</ele>
<time>2012-04-29T15:10:50Z</time>
<desc>lat.=43.158970, lon.=19.292688, Alt.=836.039551m. Speed=0.000000m/h.</desc>
<speed>0.000000</speed>
</trkpt>
<trkpt lat="43.158970" lon="19.292688">
<ele>836.023926</ele>
<time>2012-04-29T15:10:55Z</time>
<desc>lat.=43.158970, lon.=19.292688, Alt.=836.023926m. Speed=0.036000m/h.</desc>
<speed>0.010000</speed>
</trkpt>
<trkpt lat="43.158970" lon="19.292688">
<ele>836.008301</ele>
<time>2012-04-29T15:11:00Z</time>
<desc>lat.=43.158970, lon.=19.292688, Alt.=836.008301m. Speed=0.036000m/h.</desc>
<speed>0.010000</speed>
</trkpt>
<trkpt lat="43.158970" lon="19.292688">
<ele>836.008301</ele>
<time>2012-04-29T15:11:05Z</time>
<desc>lat.=43.158970, lon.=19.292688, Alt.=836.008301m. Speed=0.000000m/h.</desc>
<speed>0.000000</speed>
</trkpt>
<trkpt lat="43.158970" lon="19.292688">
<ele>835.992676</ele>
<time>2012-04-29T15:11:10Z</time>
<desc>lat.=43.158970, lon.=19.292688, Alt.=835.992676m. Speed=0.072000m/h.</desc>
<speed>0.020000</speed>
</trkpt>
<trkpt lat="43.158970" lon="19.292688">
<ele>835.977051</ele>
<time>2012-04-29T15:11:15Z</time>
<desc>lat.=43.158970, lon.=19.292688, Alt.=835.977051m. Speed=0.036000m/h.</desc>
<speed>0.010000</speed>
</trkpt>
<trkpt lat="43.158970" lon="19.292688">
<ele>835.992676</ele>
<time>2012-04-29T15:11:20Z</time>
<desc>lat.=43.158970, lon.=19.292688, Alt.=835.992676m. Speed=0.000000m/h.</desc>
<speed>0.000000</speed>
</trkpt>
<trkpt lat="43.158966" lon="19.292688">
<ele>836.023926</ele>
<time>2012-04-29T15:11:25Z</time>
<desc>lat.=43.158966, lon.=19.292688, Alt.=836.023926m. Speed=0.216000m/h.</desc>
<speed>0.060000</speed>
</trkpt>
<trkpt lat="43.158966" lon="19.292688">
<ele>836.039551</ele>
<time>2012-04-29T15:11:30Z</time>
<desc>lat.=43.158966, lon.=19.292688, Alt.=836.039551m. Speed=0.036000m/h.</desc>
<speed>0.010000</speed>
</trkpt>
<trkpt lat="43.158966" lon="19.292688">
<ele>836.039551</ele>
<time>2012-04-29T15:11:35Z</time>
<desc>lat.=43.158966, lon.=19.292688, Alt.=836.039551m. Speed=0.072000m/h.</desc>
<speed>0.020000</speed>
</trkpt>
<trkpt lat="43.158966" lon="19.292688">
<ele>836.039551</ele>
<time>2012-04-29T15:11:40Z</time>
<desc>lat.=43.158966, lon.=19.292688, Alt.=836.039551m. Speed=0.072000m/h.</desc>
<speed>0.020000</speed>
</trkpt>
<trkpt lat="43.158966" lon="19.292688">
<ele>836.055176</ele>
<time>2012-04-29T15:11:45Z</time>
<desc>lat.=43.158966, lon.=19.292688, Alt.=836.055176m. Speed=0.072000m/h.</desc>
<speed>0.020000</speed>
</trkpt>
<trkpt lat="43.158966" lon="19.292688">
<ele>836.086426</ele>
<time>2012-04-29T15:11:50Z</time>
<desc>lat.=43.158966, lon.=19.292688, Alt.=836.086426m. Speed=0.108000m/h.</desc>
<speed>0.030000</speed>
</trkpt>
<trkpt lat="43.158966" lon="19.292690">
<ele>836.102051</ele>
<time>2012-04-29T15:11:55Z</time>
<desc>lat.=43.158966, lon.=19.292690, Alt.=836.102051m. Speed=0.036000m/h.</desc>
<speed>0.010000</speed>
</trkpt>
<trkpt lat="43.158966" lon="19.292690">
<ele>836.133301</ele>
<time>2012-04-29T15:12:00Z</time>
<desc>lat.=43.158966, lon.=19.292690, Alt.=836.133301m. Speed=0.000000m/h.</desc>
<speed>0.000000</speed>
</trkpt>
<trkpt lat="43.158966" lon="19.292690">
<ele>836.164551</ele>
<time>2012-04-29T15:12:05Z</time>
<desc>lat.=43.158966, lon.=19.292690, Alt.=836.164551m. Speed=0.000000m/h.</desc>
<speed>0.000000</speed>
</trkpt>
<trkpt lat="43.158966" lon="19.292690">
<ele>836.211426</ele>
<time>2012-04-29T15:12:10Z</time>
<desc>lat.=43.158966, lon.=19.292690, Alt.=836.211426m. Speed=0.036000m/h.</desc>
<speed>0.010000</speed>
</trkpt>
<trkpt lat="43.158966" lon="19.292690">
<ele>836.227051</ele>
<time>2012-04-29T15:12:15Z</time>
<desc>lat.=43.158966, lon.=19.292690, Alt.=836.227051m. Speed=0.000000m/h.</desc>
<speed>0.000000</speed>
</trkpt>
<trkpt lat="43.158966" lon="19.292690">
<ele>836.258301</ele>
<time>2012-04-29T15:12:20Z</time>
<desc>lat.=43.158966, lon.=19.292690, Alt.=836.258301m. Speed=0.072000m/h.</desc>
<speed>0.020000</speed>
</trkpt>
<trkpt lat="43.158966" lon="19.292690">
<ele>836.289551</ele>
<time>2012-04-29T15:12:25Z</time>
<desc>lat.=43.158966, lon.=19.292690, Alt.=836.289551m. Speed=0.000000m/h.</desc>
<speed>0.000000</speed>
</trkpt>
<trkpt lat="43.158966" lon="19.292690">
<ele>836.305176</ele>
<time>2012-04-29T15:12:30Z</time>
<desc>lat.=43.158966, lon.=19.292690, Alt.=836.305176m. Speed=0.000000m/h.</desc>
<speed>0.000000</speed>
</trkpt>
<trkpt lat="43.158966" lon="19.292692">
<ele>836.352051</ele>
<time>2012-04-29T15:12:35Z</time>
<desc>lat.=43.158966, lon.=19.292692, Alt.=836.352051m. Speed=0.000000m/h.</desc>
<speed>0.000000</speed>
</trkpt>
<trkpt lat="43.158966" lon="19.292692">
<ele>836.367676</ele>
<time>2012-04-29T15:12:40Z</time>
<desc>lat.=43.158966, lon.=19.292692, Alt.=836.367676m. Speed=0.000000m/h.</desc>
<speed>0.000000</speed>
</trkpt>
<trkpt lat="43.158966" lon="19.292692">
<ele>836.383301</ele>
<time>2012-04-29T15:12:45Z</time>
<desc>lat.=43.158966, lon.=19.292692, Alt.=836.383301m. Speed=0.000000m/h.</desc>
<speed>0.000000</speed>
</trkpt>
<trkpt lat="43.158966" lon="19.292692">
<ele>836.398926</ele>
<time>2012-04-29T15:12:50Z</time>
<desc>lat.=43.158966, lon.=19.292692, Alt.=836.398926m. Speed=0.000000m/h.</desc>
<speed>0.000000</speed>
</trkpt>
<trkpt lat="43.158966" lon="19.292692">
<ele>836.398926</ele>
<time>2012-04-29T15:12:55Z</time>
<desc>lat.=43.158966, lon.=19.292692, Alt.=836.398926m. Speed=0.000000m/h.</desc>
<speed>0.000000</speed>
</trkpt>
<trkpt lat="43.158966" lon="19.292692">
<ele>836.398926</ele>
<time>2012-04-29T15:13:00Z</time>
<desc>lat.=43.158966, lon.=19.292692, Alt.=836.398926m. Speed=0.036000m/h.</desc>
<speed>0.010000</speed>
</trkpt>
<trkpt lat="43.158966" lon="19.292692">
<ele>836.383301</ele>
<time>2012-04-29T15:13:05Z</time>
<desc>lat.=43.158966, lon.=19.292692, Alt.=836.383301m. Speed=0.000000m/h.</desc>
<speed>0.000000</speed>
</trkpt>
<trkpt lat="43.158966" lon="19.292692">
<ele>836.383301</ele>
<time>2012-04-29T15:13:10Z</time>
<desc>lat.=43.158966, lon.=19.292692, Alt.=836.383301m. Speed=0.036000m/h.</desc>
<speed>0.010000</speed>
</trkpt>
<trkpt lat="43.158966" lon="19.292692">
<ele>836.383301</ele>
<time>2012-04-29T15:13:15Z</time>
<desc>lat.=43.158966, lon.=19.292692, Alt.=836.383301m. Speed=0.036000m/h.</desc>
<speed>0.010000</speed>
</trkpt>
<trkpt lat="43.158966" lon="19.292692">
<ele>836.383301</ele>
<time>2012-04-29T15:13:20Z</time>
<desc>lat.=43.158966, lon.=19.292692, Alt.=836.383301m. Speed=0.000000m/h.</desc>
<speed>0.000000</speed>
</trkpt>
<trkpt lat="43.158966" lon="19.292692">
<ele>836.398926</ele>
<time>2012-04-29T15:13:25Z</time>
<desc>lat.=43.158966, lon.=19.292692, Alt.=836.398926m. Speed=0.036000m/h.</desc>
<speed>0.010000</speed>
</trkpt>
<trkpt lat="43.158966" lon="19.292692">
<ele>836.383301</ele>
<time>2012-04-29T15:13:30Z</time>
<desc>lat.=43.158966, lon.=19.292692, Alt.=836.383301m. Speed=0.036000m/h.</desc>
<speed>0.010000</speed>
</trkpt>
<trkpt lat="43.158966" lon="19.292692">
<ele>836.367676</ele>
<time>2012-04-29T15:13:35Z</time>
<desc>lat.=43.158966, lon.=19.292692, Alt.=836.367676m. Speed=0.000000m/h.</desc>
<speed>0.000000</speed>
</trkpt>
<trkpt lat="43.158966" lon="19.292692">
<ele>836.367676</ele>
<time>2012-04-29T15:13:40Z</time>
<desc>lat.=43.158966, lon.=19.292692, Alt.=836.367676m. Speed=0.000000m/h.</desc>
<speed>0.000000</speed>
</trkpt>
<trkpt lat="43.158966" lon="19.292692">
<ele>836.367676</ele>
<time>2012-04-29T15:13:45Z</time>
<desc>lat.=43.158966, lon.=19.292692, Alt.=836.367676m. Speed=0.000000m/h.</desc>
<speed>0.000000</speed>
</trkpt>
<trkpt lat="43.158966" lon="19.292692">
<ele>836.383301</ele>
<time>2012-04-29T15:13:50Z</time>
<desc>lat.=43.158966, lon.=19.292692, Alt.=836.383301m. Speed=0.000000m/h.</desc>
<speed>0.000000</speed>
</trkpt>
<trkpt lat="43.158966" lon="19.292692">
<ele>836.367676</ele>
<time>2012-04-29T15:13:55Z</time>
<desc>lat.=43.158966, lon.=19.292692, Alt.=836.367676m. Speed=0.000000m/h.</desc>
<speed>0.000000</speed>
</trkpt>
<trkpt lat="43.158966" lon="19.292692">
<ele>836.352051</ele>
<time>2012-04-29T15:14:00Z</time>
<desc>lat.=43.158966, lon.=19.292692, Alt.=836.352051m. Speed=0.036000m/h.</desc>
<speed>0.010000</speed>
</trkpt>
<trkpt lat="43.158966" lon="19.292694">
<ele>836.336426</ele>
<time>2012-04-29T15:14:05Z</time>
<desc>lat.=43.158966, lon.=19.292694, Alt.=836.336426m. Speed=0.144000m/h.</desc>
<speed>0.040000</speed>
</trkpt>
<trkpt lat="43.158966" lon="19.292694">
<ele>836.336426</ele>
<time>2012-04-29T15:14:10Z</time>
<desc>lat.=43.158966, lon.=19.292694, Alt.=836.336426m. Speed=0.000000m/h.</desc>
<speed>0.000000</speed>
</trkpt>
<trkpt lat="43.158966" lon="19.292694">
<ele>836.336426</ele>
<time>2012-04-29T15:14:15Z</time>
<desc>lat.=43.158966, lon.=19.292694, Alt.=836.336426m. Speed=0.072000m/h.</desc>
<speed>0.020000</speed>
</trkpt>
<trkpt lat="43.158966" lon="19.292694">
<ele>836.305176</ele>
<time>2012-04-29T15:14:20Z</time>
<desc>lat.=43.158966, lon.=19.292694, Alt.=836.305176m. Speed=0.000000m/h.</desc>
<speed>0.000000</speed>
</trkpt>
<trkpt lat="43.158966" lon="19.292694">
<ele>836.305176</ele>
<time>2012-04-29T15:14:25Z</time>
<desc>lat.=43.158966, lon.=19.292694, Alt.=836.305176m. Speed=0.000000m/h.</desc>
<speed>0.000000</speed>
</trkpt>
<trkpt lat="43.158966" lon="19.292694">
<ele>836.320801</ele>
<time>2012-04-29T15:14:30Z</time>
<desc>lat.=43.158966, lon.=19.292694, Alt.=836.320801m. Speed=0.036000m/h.</desc>
<speed>0.010000</speed>
</trkpt>
<trkpt lat="43.158966" lon="19.292692">
<ele>836.336426</ele>
<time>2012-04-29T15:14:35Z</time>
<desc>lat.=43.158966, lon.=19.292692, Alt.=836.336426m. Speed=0.252000m/h.</desc>
<speed>0.070000</speed>
</trkpt>
<trkpt lat="43.158962" lon="19.292692">
<ele>836.336426</ele>
<time>2012-04-29T15:14:40Z</time>
<desc>lat.=43.158962, lon.=19.292692, Alt.=836.336426m. Speed=0.108000m/h.</desc>
<speed>0.030000</speed>
</trkpt>
<trkpt lat="43.158962" lon="19.292692">
<ele>836.352051</ele>
<time>2012-04-29T15:14:45Z</time>
<desc>lat.=43.158962, lon.=19.292692, Alt.=836.352051m. Speed=0.072000m/h.</desc>
<speed>0.020000</speed>
</trkpt>
<trkpt lat="43.158962" lon="19.292692">
<ele>836.367676</ele>
<time>2012-04-29T15:14:50Z</time>
<desc>lat.=43.158962, lon.=19.292692, Alt.=836.367676m. Speed=0.036000m/h.</desc>
<speed>0.010000</speed>
</trkpt>
<trkpt lat="43.158962" lon="19.292692">
<ele>836.383301</ele>
<time>2012-04-29T15:14:55Z</time>
<desc>lat.=43.158962, lon.=19.292692, Alt.=836.383301m. Speed=0.036000m/h.</desc>
<speed>0.010000</speed>
</trkpt>
<trkpt lat="43.158962" lon="19.292692">
<ele>836.383301</ele>
<time>2012-04-29T15:15:00Z</time>
<desc>lat.=43.158962, lon.=19.292692, Alt.=836.383301m. Speed=0.000000m/h.</desc>
<speed>0.000000</speed>
</trkpt>
<trkpt lat="43.158962" lon="19.292692">
<ele>836.367676</ele>
<time>2012-04-29T15:15:05Z</time>
<desc>lat.=43.158962, lon.=19.292692, Alt.=836.367676m. Speed=0.036000m/h.</desc>
<speed>0.010000</speed>
</trkpt>
<trkpt lat="43.158962" lon="19.292692">
<ele>836.352051</ele>
<time>2012-04-29T15:15:10Z</time>
<desc>lat.=43.158962, lon.=19.292692, Alt.=836.352051m. Speed=0.036000m/h.</desc>
<speed>0.010000</speed>
</trkpt>
<trkpt lat="43.158962" lon="19.292694">
<ele>836.367676</ele>
<time>2012-04-29T15:15:15Z</time>
<desc>lat.=43.158962, lon.=19.292694, Alt.=836.367676m. Speed=0.072000m/h.</desc>
<speed>0.020000</speed>
</trkpt>
<trkpt lat="43.158962" lon="19.292694">
<ele>836.352051</ele>
<time>2012-04-29T15:15:20Z</time>
<desc>lat.=43.158962, lon.=19.292694, Alt.=836.352051m. Speed=0.072000m/h.</desc>
<speed>0.020000</speed>
</trkpt>
<trkpt lat="43.158962" lon="19.292694">
<ele>836.352051</ele>
<time>2012-04-29T15:15:25Z</time>
<desc>lat.=43.158962, lon.=19.292694, Alt.=836.352051m. Speed=0.000000m/h.</desc>
<speed>0.000000</speed>
</trkpt>
<trkpt lat="43.158962" lon="19.292694">
<ele>836.336426</ele>
<time>2012-04-29T15:15:30Z</time>
<desc>lat.=43.158962, lon.=19.292694, Alt.=836.336426m. Speed=0.000000m/h.</desc>
<speed>0.000000</speed>
</trkpt>
<trkpt lat="43.158966" lon="19.292694">
<ele>836.336426</ele>
<time>2012-04-29T15:15:35Z</time>
<desc>lat.=43.158966, lon.=19.292694, Alt.=836.336426m. Speed=0.000000m/h.</desc>
<speed>0.000000</speed>
</trkpt>
<trkpt lat="43.158966" lon="19.292694">
<ele>836.336426</ele>
<time>2012-04-29T15:15:40Z</time>
<desc>lat.=43.158966, lon.=19.292694, Alt.=836.336426m. Speed=0.000000m/h.</desc>
<speed>0.000000</speed>
</trkpt>
<trkpt lat="43.158966" lon="19.292694">
<ele>836.336426</ele>
<time>2012-04-29T15:15:45Z</time>
<desc>lat.=43.158966, lon.=19.292694, Alt.=836.336426m. Speed=0.144000m/h.</desc>
<speed>0.040000</speed>
</trkpt>
<trkpt lat="43.158966" lon="19.292694">
<ele>836.336426</ele>
<time>2012-04-29T15:15:50Z</time>
<desc>lat.=43.158966, lon.=19.292694, Alt.=836.336426m. Speed=0.036000m/h.</desc>
<speed>0.010000</speed>
</trkpt>
<trkpt lat="43.158966" lon="19.292694">
<ele>836.336426</ele>
<time>2012-04-29T15:15:55Z</time>
<desc>lat.=43.158966, lon.=19.292694, Alt.=836.336426m. Speed=0.000000m/h.</desc>
<speed>0.000000</speed>
</trkpt>
<trkpt lat="43.158966" lon="19.292694">
<ele>836.352051</ele>
<time>2012-04-29T15:16:00Z</time>
<desc>lat.=43.158966, lon.=19.292694, Alt.=836.352051m. Speed=0.000000m/h.</desc>
<speed>0.000000</speed>
</trkpt>
<trkpt lat="43.158966" lon="19.292694">
<ele>836.367676</ele>
<time>2012-04-29T15:16:05Z</time>
<desc>lat.=43.158966, lon.=19.292694, Alt.=836.367676m. Speed=0.036000m/h.</desc>
<speed>0.010000</speed>
</trkpt>
<trkpt lat="43.158966" lon="19.292694">
<ele>836.367676</ele>
<time>2012-04-29T15:16:10Z</time>
<desc>lat.=43.158966, lon.=19.292694, Alt.=836.367676m. Speed=0.000000m/h.</desc>
<speed>0.000000</speed>
</trkpt>
<trkpt lat="43.158966" lon="19.292696">
<ele>836.367676</ele>
<time>2012-04-29T15:16:15Z</time>
<desc>lat.=43.158966, lon.=19.292696, Alt.=836.367676m. Speed=0.072000m/h.</desc>
<speed>0.020000</speed>
</trkpt>
<trkpt lat="43.158966" lon="19.292696">
<ele>836.383301</ele>
<time>2012-04-29T15:16:20Z</time>
<desc>lat.=43.158966, lon.=19.292696, Alt.=836.383301m. Speed=0.072000m/h.</desc>
<speed>0.020000</speed>
</trkpt>
<trkpt lat="43.158966" lon="19.292696">
<ele>836.398926</ele>
<time>2012-04-29T15:16:25Z</time>
<desc>lat.=43.158966, lon.=19.292696, Alt.=836.398926m. Speed=0.036000m/h.</desc>
<speed>0.010000</speed>
</trkpt>
<trkpt lat="43.158966" lon="19.292696">
<ele>836.430176</ele>
<time>2012-04-29T15:16:30Z</time>
<desc>lat.=43.158966, lon.=19.292696, Alt.=836.430176m. Speed=0.000000m/h.</desc>
<speed>0.000000</speed>
</trkpt>
<trkpt lat="43.158966" lon="19.292696">
<ele>836.445801</ele>
<time>2012-04-29T15:16:35Z</time>
<desc>lat.=43.158966, lon.=19.292696, Alt.=836.445801m. Speed=0.000000m/h.</desc>
<speed>0.000000</speed>
</trkpt>
<trkpt lat="43.158966" lon="19.292696">
<ele>836.461426</ele>
<time>2012-04-29T15:16:40Z</time>
<desc>lat.=43.158966, lon.=19.292696, Alt.=836.461426m. Speed=0.000000m/h.</desc>
<speed>0.000000</speed>
</trkpt>
<trkpt lat="43.158966" lon="19.292696">
<ele>836.461426</ele>
<time>2012-04-29T15:16:45Z</time>
<desc>lat.=43.158966, lon.=19.292696, Alt.=836.461426m. Speed=0.036000m/h.</desc>
<speed>0.010000</speed>
</trkpt>
<trkpt lat="43.158966" lon="19.292696">
<ele>836.492676</ele>
<time>2012-04-29T15:16:50Z</time>
<desc>lat.=43.158966, lon.=19.292696, Alt.=836.492676m. Speed=0.036000m/h.</desc>
<speed>0.010000</speed>
</trkpt>
<trkpt lat="43.158966" lon="19.292696">
<ele>836.508301</ele>
<time>2012-04-29T15:16:55Z</time>
<desc>lat.=43.158966, lon.=19.292696, Alt.=836.508301m. Speed=0.108000m/h.</desc>
<speed>0.030000</speed>
</trkpt>
<trkpt lat="43.158966" lon="19.292696">
<ele>836.539551</ele>
<time>2012-04-29T15:17:00Z</time>
<desc>lat.=43.158966, lon.=19.292696, Alt.=836.539551m. Speed=0.036000m/h.</desc>
<speed>0.010000</speed>
</trkpt>
<trkpt lat="43.158966" lon="19.292696">
<ele>836.555176</ele>
<time>2012-04-29T15:17:05Z</time>
<desc>lat.=43.158966, lon.=19.292696, Alt.=836.555176m. Speed=0.000000m/h.</desc>
<speed>0.000000</speed>
</trkpt>
<trkpt lat="43.158966" lon="19.292698">
<ele>836.570801</ele>
<time>2012-04-29T15:17:10Z</time>
<desc>lat.=43.158966, lon.=19.292698, Alt.=836.570801m. Speed=0.036000m/h.</desc>
<speed>0.010000</speed>
</trkpt>
<trkpt lat="43.158966" lon="19.292698">
<ele>836.602051</ele>
<time>2012-04-29T15:17:15Z</time>
<desc>lat.=43.158966, lon.=19.292698, Alt.=836.602051m. Speed=0.000000m/h.</desc>
<speed>0.000000</speed>
</trkpt>
<trkpt lat="43.158966" lon="19.292698">
<ele>836.617676</ele>
<time>2012-04-29T15:17:20Z</time>
<desc>lat.=43.158966, lon.=19.292698, Alt.=836.617676m. Speed=0.000000m/h.</desc>
<speed>0.000000</speed>
</trkpt>
<trkpt lat="43.158966" lon="19.292698">
<ele>836.648926</ele>
<time>2012-04-29T15:17:25Z</time>
<desc>lat.=43.158966, lon.=19.292698, Alt.=836.648926m. Speed=0.036000m/h.</desc>
<speed>0.010000</speed>
</trkpt>
<trkpt lat="43.158966" lon="19.292698">
<ele>836.664551</ele>
<time>2012-04-29T15:17:30Z</time>
<desc>lat.=43.158966, lon.=19.292698, Alt.=836.664551m. Speed=0.036000m/h.</desc>
<speed>0.010000</speed>
</trkpt>
<trkpt lat="43.158966" lon="19.292698">
<ele>836.680176</ele>
<time>2012-04-29T15:17:35Z</time>
<desc>lat.=43.158966, lon.=19.292698, Alt.=836.680176m. Speed=0.000000m/h.</desc>
<speed>0.000000</speed>
</trkpt>
<trkpt lat="43.158970" lon="19.292698">
<ele>836.695801</ele>
<time>2012-04-29T15:17:40Z</time>
<desc>lat.=43.158970, lon.=19.292698, Alt.=836.695801m. Speed=0.072000m/h.</desc>
<speed>0.020000</speed>
</trkpt>
<trkpt lat="43.158970" lon="19.292698">
<ele>836.711426</ele>
<time>2012-04-29T15:17:45Z</time>
<desc>lat.=43.158970, lon.=19.292698, Alt.=836.711426m. Speed=0.000000m/h.</desc>
<speed>0.000000</speed>
</trkpt>
<trkpt lat="43.158970" lon="19.292698">
<ele>836.727051</ele>
<time>2012-04-29T15:17:50Z</time>
<desc>lat.=43.158970, lon.=19.292698, Alt.=836.727051m. Speed=0.108000m/h.</desc>
<speed>0.030000</speed>
</trkpt>
<trkpt lat="43.158970" lon="19.292698">
<ele>836.742676</ele>
<time>2012-04-29T15:17:55Z</time>
<desc>lat.=43.158970, lon.=19.292698, Alt.=836.742676m. Speed=0.036000m/h.</desc>
<speed>0.010000</speed>
</trkpt>
<trkpt lat="43.158970" lon="19.292700">
<ele>836.742676</ele>
<time>2012-04-29T15:18:00Z</time>
<desc>lat.=43.158970, lon.=19.292700, Alt.=836.742676m. Speed=0.036000m/h.</desc>
<speed>0.010000</speed>
</trkpt>
<trkpt lat="43.158970" lon="19.292700">
<ele>836.758301</ele>
<time>2012-04-29T15:18:05Z</time>
<desc>lat.=43.158970, lon.=19.292700, Alt.=836.758301m. Speed=0.036000m/h.</desc>
<speed>0.010000</speed>
</trkpt>
<trkpt lat="43.158970" lon="19.292700">
<ele>836.758301</ele>
<time>2012-04-29T15:18:10Z</time>
<desc>lat.=43.158970, lon.=19.292700, Alt.=836.758301m. Speed=0.000000m/h.</desc>
<speed>0.000000</speed>
</trkpt>
<trkpt lat="43.158970" lon="19.292700">
<ele>836.758301</ele>
<time>2012-04-29T15:18:15Z</time>
<desc>lat.=43.158970, lon.=19.292700, Alt.=836.758301m. Speed=0.000000m/h.</desc>
<speed>0.000000</speed>
</trkpt>
<trkpt lat="43.158970" lon="19.292700">
<ele>836.773926</ele>
<time>2012-04-29T15:18:20Z</time>
<desc>lat.=43.158970, lon.=19.292700, Alt.=836.773926m. Speed=0.036000m/h.</desc>
<speed>0.010000</speed>
</trkpt>
<trkpt lat="43.158970" lon="19.292700">
<ele>836.789551</ele>
<time>2012-04-29T15:18:25Z</time>
<desc>lat.=43.158970, lon.=19.292700, Alt.=836.789551m. Speed=0.000000m/h.</desc>
<speed>0.000000</speed>
</trkpt>
<trkpt lat="43.158970" lon="19.292700">
<ele>836.789551</ele>
<time>2012-04-29T15:18:30Z</time>
<desc>lat.=43.158970, lon.=19.292700, Alt.=836.789551m. Speed=0.000000m/h.</desc>
<speed>0.000000</speed>
</trkpt>
<trkpt lat="43.158974" lon="19.292700">
<ele>836.805176</ele>
<time>2012-04-29T15:18:35Z</time>
<desc>lat.=43.158974, lon.=19.292700, Alt.=836.805176m. Speed=0.036000m/h.</desc>
<speed>0.010000</speed>
</trkpt>
<trkpt lat="43.158974" lon="19.292700">
<ele>836.805176</ele>
<time>2012-04-29T15:18:40Z</time>
<desc>lat.=43.158974, lon.=19.292700, Alt.=836.805176m. Speed=0.072000m/h.</desc>
<speed>0.020000</speed>
</trkpt>
<trkpt lat="43.158974" lon="19.292700">
<ele>836.820801</ele>
<time>2012-04-29T15:18:45Z</time>
<desc>lat.=43.158974, lon.=19.292700, Alt.=836.820801m. Speed=0.036000m/h.</desc>
<speed>0.010000</speed>
</trkpt>
<trkpt lat="43.158974" lon="19.292700">
<ele>836.820801</ele>
<time>2012-04-29T15:18:50Z</time>
<desc>lat.=43.158974, lon.=19.292700, Alt.=836.820801m. Speed=0.000000m/h.</desc>
<speed>0.000000</speed>
</trkpt>
<trkpt lat="43.158974" lon="19.292700">
<ele>836.836426</ele>
<time>2012-04-29T15:18:55Z</time>
<desc>lat.=43.158974, lon.=19.292700, Alt.=836.836426m. Speed=0.000000m/h.</desc>
<speed>0.000000</speed>
</trkpt>
<trkpt lat="43.158974" lon="19.292700">
<ele>836.867676</ele>
<time>2012-04-29T15:19:00Z</time>
<desc>lat.=43.158974, lon.=19.292700, Alt.=836.867676m. Speed=0.144000m/h.</desc>
<speed>0.040000</speed>
</trkpt>
<trkpt lat="43.158974" lon="19.292700">
<ele>836.898926</ele>
<time>2012-04-29T15:19:05Z</time>
<desc>lat.=43.158974, lon.=19.292700, Alt.=836.898926m. Speed=0.000000m/h.</desc>
<speed>0.000000</speed>
</trkpt>
<trkpt lat="43.158974" lon="19.292702">
<ele>836.945801</ele>
<time>2012-04-29T15:19:10Z</time>
<desc>lat.=43.158974, lon.=19.292702, Alt.=836.945801m. Speed=0.000000m/h.</desc>
<speed>0.000000</speed>
</trkpt>
<trkpt lat="43.158978" lon="19.292702">
<ele>836.977051</ele>
<time>2012-04-29T15:19:15Z</time>
<desc>lat.=43.158978, lon.=19.292702, Alt.=836.977051m. Speed=0.036000m/h.</desc>
<speed>0.010000</speed>
</trkpt>
<trkpt lat="43.158978" lon="19.292702">
<ele>837.039551</ele>
<time>2012-04-29T15:19:20Z</time>
<desc>lat.=43.158978, lon.=19.292702, Alt.=837.039551m. Speed=0.252000m/h.</desc>
<speed>0.070000</speed>
</trkpt>
<trkpt lat="43.158978" lon="19.292702">
<ele>837.070801</ele>
<time>2012-04-29T15:19:25Z</time>
<desc>lat.=43.158978, lon.=19.292702, Alt.=837.070801m. Speed=0.144000m/h.</desc>
<speed>0.040000</speed>
</trkpt>
<trkpt lat="43.158978" lon="19.292702">
<ele>837.117676</ele>
<time>2012-04-29T15:19:30Z</time>
<desc>lat.=43.158978, lon.=19.292702, Alt.=837.117676m. Speed=0.072000m/h.</desc>
<speed>0.020000</speed>
</trkpt>
<trkpt lat="43.158978" lon="19.292702">
<ele>837.133301</ele>
<time>2012-04-29T15:19:35Z</time>
<desc>lat.=43.158978, lon.=19.292702, Alt.=837.133301m. Speed=0.036000m/h.</desc>
<speed>0.010000</speed>
</trkpt>
<trkpt lat="43.158978" lon="19.292702">
<ele>837.180176</ele>
<time>2012-04-29T15:19:40Z</time>
<desc>lat.=43.158978, lon.=19.292702, Alt.=837.180176m. Speed=0.072000m/h.</desc>
<speed>0.020000</speed>
</trkpt>
<trkpt lat="43.158978" lon="19.292702">
<ele>837.195801</ele>
<time>2012-04-29T15:19:45Z</time>
<desc>lat.=43.158978, lon.=19.292702, Alt.=837.195801m. Speed=0.072000m/h.</desc>
<speed>0.020000</speed>
</trkpt>
<trkpt lat="43.158978" lon="19.292702">
<ele>837.195801</ele>
<time>2012-04-29T15:19:50Z</time>
<desc>lat.=43.158978, lon.=19.292702, Alt.=837.195801m. Speed=0.108000m/h.</desc>
<speed>0.030000</speed>
</trkpt>
<trkpt lat="43.158978" lon="19.292702">
<ele>837.195801</ele>
<time>2012-04-29T15:19:55Z</time>
<desc>lat.=43.158978, lon.=19.292702, Alt.=837.195801m. Speed=0.108000m/h.</desc>
<speed>0.030000</speed>
</trkpt>
<trkpt lat="43.158974" lon="19.292702">
<ele>837.195801</ele>
<time>2012-04-29T15:20:00Z</time>
<desc>lat.=43.158974, lon.=19.292702, Alt.=837.195801m. Speed=0.144000m/h.</desc>
<speed>0.040000</speed>
</trkpt>
<trkpt lat="43.158974" lon="19.292702">
<ele>837.211426</ele>
<time>2012-04-29T15:20:05Z</time>
<desc>lat.=43.158974, lon.=19.292702, Alt.=837.211426m. Speed=0.144000m/h.</desc>
<speed>0.040000</speed>
</trkpt>
<trkpt lat="43.158974" lon="19.292700">
<ele>837.242676</ele>
<time>2012-04-29T15:20:10Z</time>
<desc>lat.=43.158974, lon.=19.292700, Alt.=837.242676m. Speed=0.036000m/h.</desc>
<speed>0.010000</speed>
</trkpt>
<trkpt lat="43.158974" lon="19.292700">
<ele>837.258301</ele>
<time>2012-04-29T15:20:15Z</time>
<desc>lat.=43.158974, lon.=19.292700, Alt.=837.258301m. Speed=0.000000m/h.</desc>
<speed>0.000000</speed>
</trkpt>
<trkpt lat="43.158974" lon="19.292700">
<ele>837.273926</ele>
<time>2012-04-29T15:20:20Z</time>
<desc>lat.=43.158974, lon.=19.292700, Alt.=837.273926m. Speed=0.000000m/h.</desc>
<speed>0.000000</speed>
</trkpt>
<trkpt lat="43.158974" lon="19.292700">
<ele>837.289551</ele>
<time>2012-04-29T15:20:25Z</time>
<desc>lat.=43.158974, lon.=19.292700, Alt.=837.289551m. Speed=0.000000m/h.</desc>
<speed>0.000000</speed>
</trkpt>
<trkpt lat="43.158974" lon="19.292700">
<ele>837.305176</ele>
<time>2012-04-29T15:20:30Z</time>
<desc>lat.=43.158974, lon.=19.292700, Alt.=837.305176m. Speed=0.036000m/h.</desc>
<speed>0.010000</speed>
</trkpt>
<trkpt lat="43.158974" lon="19.292702">
<ele>837.320801</ele>
<time>2012-04-29T15:20:35Z</time>
<desc>lat.=43.158974, lon.=19.292702, Alt.=837.320801m. Speed=0.000000m/h.</desc>
<speed>0.000000</speed>
</trkpt>
<trkpt lat="43.158974" lon="19.292702">
<ele>837.320801</ele>
<time>2012-04-29T15:20:40Z</time>
<desc>lat.=43.158974, lon.=19.292702, Alt.=837.320801m. Speed=0.036000m/h.</desc>
<speed>0.010000</speed>
</trkpt>
<trkpt lat="43.158974" lon="19.292702">
<ele>837.336426</ele>
<time>2012-04-29T15:20:45Z</time>
<desc>lat.=43.158974, lon.=19.292702, Alt.=837.336426m. Speed=0.108000m/h.</desc>
<speed>0.030000</speed>
</trkpt>
<trkpt lat="43.158974" lon="19.292702">
<ele>837.352051</ele>
<time>2012-04-29T15:20:50Z</time>
<desc>lat.=43.158974, lon.=19.292702, Alt.=837.352051m. Speed=0.072000m/h.</desc>
<speed>0.020000</speed>
</trkpt>
<trkpt lat="43.158974" lon="19.292702">
<ele>837.383301</ele>
<time>2012-04-29T15:20:55Z</time>
<desc>lat.=43.158974, lon.=19.292702, Alt.=837.383301m. Speed=0.000000m/h.</desc>
<speed>0.000000</speed>
</trkpt>
<trkpt lat="43.158974" lon="19.292702">
<ele>837.414551</ele>
<time>2012-04-29T15:21:00Z</time>
<desc>lat.=43.158974, lon.=19.292702, Alt.=837.414551m. Speed=0.036000m/h.</desc>
<speed>0.010000</speed>
</trkpt>
<trkpt lat="43.158974" lon="19.292702">
<ele>837.430176</ele>
<time>2012-04-29T15:21:05Z</time>
<desc>lat.=43.158974, lon.=19.292702, Alt.=837.430176m. Speed=0.000000m/h.</desc>
<speed>0.000000</speed>
</trkpt>
<trkpt lat="43.158974" lon="19.292702">
<ele>837.461426</ele>
<time>2012-04-29T15:21:10Z</time>
<desc>lat.=43.158974, lon.=19.292702, Alt.=837.461426m. Speed=0.000000m/h.</desc>
<speed>0.000000</speed>
</trkpt>
<trkpt lat="43.158974" lon="19.292702">
<ele>837.492676</ele>
<time>2012-04-29T15:21:15Z</time>
<desc>lat.=43.158974, lon.=19.292702, Alt.=837.492676m. Speed=0.072000m/h.</desc>
<speed>0.020000</speed>
</trkpt>
<trkpt lat="43.158974" lon="19.292702">
<ele>837.523926</ele>
<time>2012-04-29T15:21:20Z</time>
<desc>lat.=43.158974, lon.=19.292702, Alt.=837.523926m. Speed=0.000000m/h.</desc>
<speed>0.000000</speed>
</trkpt>
<trkpt lat="43.158974" lon="19.292702">
<ele>837.555176</ele>
<time>2012-04-29T15:21:25Z</time>
<desc>lat.=43.158974, lon.=19.292702, Alt.=837.555176m. Speed=0.036000m/h.</desc>
<speed>0.010000</speed>
</trkpt>
<trkpt lat="43.158978" lon="19.292702">
<ele>837.586426</ele>
<time>2012-04-29T15:21:30Z</time>
<desc>lat.=43.158978, lon.=19.292702, Alt.=837.586426m. Speed=0.108000m/h.</desc>
<speed>0.030000</speed>
</trkpt>
<trkpt lat="43.158978" lon="19.292702">
<ele>837.633301</ele>
<time>2012-04-29T15:21:35Z</time>
<desc>lat.=43.158978, lon.=19.292702, Alt.=837.633301m. Speed=0.036000m/h.</desc>
<speed>0.010000</speed>
</trkpt>
<trkpt lat="43.158978" lon="19.292704">
<ele>837.695801</ele>
<time>2012-04-29T15:21:40Z</time>
<desc>lat.=43.158978, lon.=19.292704, Alt.=837.695801m. Speed=0.108000m/h.</desc>
<speed>0.030000</speed>
</trkpt>
<trkpt lat="43.158978" lon="19.292704">
<ele>837.742676</ele>
<time>2012-04-29T15:21:45Z</time>
<desc>lat.=43.158978, lon.=19.292704, Alt.=837.742676m. Speed=0.072000m/h.</desc>
<speed>0.020000</speed>
</trkpt>
<trkpt lat="43.158981" lon="19.292704">
<ele>837.789551</ele>
<time>2012-04-29T15:21:50Z</time>
<desc>lat.=43.158981, lon.=19.292704, Alt.=837.789551m. Speed=0.036000m/h.</desc>
<speed>0.010000</speed>
</trkpt>
<trkpt lat="43.158981" lon="19.292704">
<ele>837.836426</ele>
<time>2012-04-29T15:21:55Z</time>
<desc>lat.=43.158981, lon.=19.292704, Alt.=837.836426m. Speed=0.036000m/h.</desc>
<speed>0.010000</speed>
</trkpt>
<trkpt lat="43.158981" lon="19.292704">
<ele>837.852051</ele>
<time>2012-04-29T15:22:00Z</time>
<desc>lat.=43.158981, lon.=19.292704, Alt.=837.852051m. Speed=0.000000m/h.</desc>
<speed>0.000000</speed>
</trkpt>
<trkpt lat="43.158981" lon="19.292704">
<ele>837.883301</ele>
<time>2012-04-29T15:22:05Z</time>
<desc>lat.=43.158981, lon.=19.292704, Alt.=837.883301m. Speed=0.000000m/h.</desc>
<speed>0.000000</speed>
</trkpt>
<trkpt lat="43.158981" lon="19.292704">
<ele>837.930176</ele>
<time>2012-04-29T15:22:10Z</time>
<desc>lat.=43.158981, lon.=19.292704, Alt.=837.930176m. Speed=0.072000m/h.</desc>
<speed>0.020000</speed>
</trkpt>
<trkpt lat="43.158981" lon="19.292706">
<ele>837.961426</ele>
<time>2012-04-29T15:22:15Z</time>
<desc>lat.=43.158981, lon.=19.292706, Alt.=837.961426m. Speed=0.000000m/h.</desc>
<speed>0.000000</speed>
</trkpt>
<trkpt lat="43.158981" lon="19.292706">
<ele>837.992676</ele>
<time>2012-04-29T15:22:20Z</time>
<desc>lat.=43.158981, lon.=19.292706, Alt.=837.992676m. Speed=0.036000m/h.</desc>
<speed>0.010000</speed>
</trkpt>
<trkpt lat="43.158981" lon="19.292706">
<ele>838.023926</ele>
<time>2012-04-29T15:22:25Z</time>
<desc>lat.=43.158981, lon.=19.292706, Alt.=838.023926m. Speed=0.000000m/h.</desc>
<speed>0.000000</speed>
</trkpt>
<trkpt lat="43.158981" lon="19.292706">
<ele>838.039551</ele>
<time>2012-04-29T15:22:30Z</time>
<desc>lat.=43.158981, lon.=19.292706, Alt.=838.039551m. Speed=0.000000m/h.</desc>
<speed>0.000000</speed>
</trkpt>
<trkpt lat="43.158981" lon="19.292706">
<ele>838.070801</ele>
<time>2012-04-29T15:22:35Z</time>
<desc>lat.=43.158981, lon.=19.292706, Alt.=838.070801m. Speed=0.108000m/h.</desc>
<speed>0.030000</speed>
</trkpt>
<trkpt lat="43.158981" lon="19.292704">
<ele>838.070801</ele>
<time>2012-04-29T15:22:40Z</time>
<desc>lat.=43.158981, lon.=19.292704, Alt.=838.070801m. Speed=0.036000m/h.</desc>
<speed>0.010000</speed>
</trkpt>
<trkpt lat="43.158981" lon="19.292704">
<ele>838.086426</ele>
<time>2012-04-29T15:22:45Z</time>
<desc>lat.=43.158981, lon.=19.292704, Alt.=838.086426m. Speed=0.000000m/h.</desc>
<speed>0.000000</speed>
</trkpt>
<trkpt lat="43.158978" lon="19.292704">
<ele>838.086426</ele>
<time>2012-04-29T15:22:50Z</time>
<desc>lat.=43.158978, lon.=19.292704, Alt.=838.086426m. Speed=0.036000m/h.</desc>
<speed>0.010000</speed>
</trkpt>
<trkpt lat="43.158978" lon="19.292706">
<ele>838.102051</ele>
<time>2012-04-29T15:22:55Z</time>
<desc>lat.=43.158978, lon.=19.292706, Alt.=838.102051m. Speed=0.000000m/h.</desc>
<speed>0.000000</speed>
</trkpt>
<trkpt lat="43.158978" lon="19.292706">
<ele>838.102051</ele>
<time>2012-04-29T15:23:00Z</time>
<desc>lat.=43.158978, lon.=19.292706, Alt.=838.102051m. Speed=0.036000m/h.</desc>
<speed>0.010000</speed>
</trkpt>
<trkpt lat="43.158978" lon="19.292704">
<ele>838.117676</ele>
<time>2012-04-29T15:23:05Z</time>
<desc>lat.=43.158978, lon.=19.292704, Alt.=838.117676m. Speed=0.072000m/h.</desc>
<speed>0.020000</speed>
</trkpt>
<trkpt lat="43.158978" lon="19.292704">
<ele>838.102051</ele>
<time>2012-04-29T15:23:10Z</time>
<desc>lat.=43.158978, lon.=19.292704, Alt.=838.102051m. Speed=0.108000m/h.</desc>
<speed>0.030000</speed>
</trkpt>
<trkpt lat="43.158978" lon="19.292704">
<ele>838.102051</ele>
<time>2012-04-29T15:23:15Z</time>
<desc>lat.=43.158978, lon.=19.292704, Alt.=838.102051m. Speed=0.000000m/h.</desc>
<speed>0.000000</speed>
</trkpt>
<trkpt lat="43.158978" lon="19.292704">
<ele>838.117676</ele>
<time>2012-04-29T15:23:20Z</time>
<desc>lat.=43.158978, lon.=19.292704, Alt.=838.117676m. Speed=0.252000m/h.</desc>
<speed>0.070000</speed>
</trkpt>
<trkpt lat="43.158978" lon="19.292704">
<ele>838.117676</ele>
<time>2012-04-29T15:23:25Z</time>
<desc>lat.=43.158978, lon.=19.292704, Alt.=838.117676m. Speed=0.000000m/h.</desc>
<speed>0.000000</speed>
</trkpt>
<trkpt lat="43.158978" lon="19.292704">
<ele>838.117676</ele>
<time>2012-04-29T15:23:30Z</time>
<desc>lat.=43.158978, lon.=19.292704, Alt.=838.117676m. Speed=0.000000m/h.</desc>
<speed>0.000000</speed>
</trkpt>
<trkpt lat="43.158978" lon="19.292704">
<ele>838.117676</ele>
<time>2012-04-29T15:23:35Z</time>
<desc>lat.=43.158978, lon.=19.292704, Alt.=838.117676m. Speed=0.036000m/h.</desc>
<speed>0.010000</speed>
</trkpt>
<trkpt lat="43.158978" lon="19.292706">
<ele>838.117676</ele>
<time>2012-04-29T15:23:40Z</time>
<desc>lat.=43.158978, lon.=19.292706, Alt.=838.117676m. Speed=0.036000m/h.</desc>
<speed>0.010000</speed>
</trkpt>
<trkpt lat="43.158978" lon="19.292706">
<ele>838.117676</ele>
<time>2012-04-29T15:23:45Z</time>
<desc>lat.=43.158978, lon.=19.292706, Alt.=838.117676m. Speed=0.072000m/h.</desc>
<speed>0.020000</speed>
</trkpt>
</trkseg>
</trk>
</gpx>